<?xml version='1.0' encoding='UTF-8'?><gpx version="1.1" creator="JPX - https://github.com/jenetics/jpx" xmlns="http://www.topografix.com/GPX/1/1"><trk><trkseg><trkpt lat="45.39169872896436" lon="11.019298135147363"><ele>50.00000000000001</ele><time>2026-04-19T07:13:52Z</time></trkpt><trkpt lat="45.3917564883147" lon="11.019236694342855"><ele>50.0</ele><time>2026-04-19T07:14:16Z</time></trkpt><trkpt lat="45.391726554468086" lon="11.019145927229488"><ele>50.0</ele><time>2026-04-19T07:14:20Z</time></trkpt><trkpt lat="45.391679311820894" lon="11.01906795855862"><ele>50.0</ele><time>2026-04-19T07:14:22Z</time></trkpt><trkpt lat="45.39163035272847" lon="11.018991498732715"><ele>50.0</ele><time>2026-04-19T07:14:24Z</time></trkpt><trkpt lat="45.39159986424016" lon="11.018897640078787"><ele>50.00000000000001</ele><time>2026-04-19T07:14:27Z</time></trkpt><trkpt lat="45.39167943502091" lon="11.018891128453186"><ele>50.0</ele><time>2026-04-19T07:14:31Z</time></trkpt><trkpt lat="45.391736816507624" lon="11.018967626185137"><ele>50.0</ele><time>2026-04-19T07:15:14.999Z</time></trkpt><trkpt lat="45.391776358138706" lon="11.019057251046961"><ele>50.0</ele><time>2026-04-19T07:15:18.999Z</time></trkpt><trkpt lat="45.39185917613137" lon="11.019173529910963"><ele>50.0</ele><time>2026-04-19T07:15:42.999Z</time></trkpt><trkpt lat="45.39189899528133" lon="11.019342691519713"><ele>50.0</ele><time>2026-04-19T07:15:44.999Z</time></trkpt><trkpt lat="45.3918859980307" lon="11.019441434980079"><ele>50.0</ele><time>2026-04-19T07:15:45.999Z</time></trkpt><trkpt lat="45.39184145515333" lon="11.019550315379648"><ele>50.0</ele><time>2026-04-19T07:15:46.999Z</time></trkpt><trkpt lat="45.39175873255181" lon="11.019670713710038"><ele>50.0</ele><time>2026-04-19T07:15:47.999Z</time></trkpt><trkpt lat="45.3916739343464" lon="11.019766023134657"><ele>50.0</ele><time>2026-04-19T07:15:48.999Z</time></trkpt><trkpt lat="45.39159173797434" lon="11.019852392915077"><ele>50.0</ele><time>2026-04-19T07:15:49.999Z</time></trkpt><trkpt lat="45.39149916617925" lon="11.01995565938694"><ele>50.0</ele><time>2026-04-19T07:15:50.999Z</time></trkpt><trkpt lat="45.39139407528004" lon="11.020082490998634"><ele>49.5</ele><time>2026-04-19T07:15:51.999Z</time></trkpt><trkpt lat="45.39128248931985" lon="11.02022496366714"><ele>49.0</ele><time>2026-04-19T07:15:52.999Z</time></trkpt><trkpt lat="45.39117756264411" lon="11.02036781254082"><ele>48.5</ele><time>2026-04-19T07:15:53.999Z</time></trkpt><trkpt lat="45.39106945601786" lon="11.020516237081969"><ele>48.0</ele><time>2026-04-19T07:15:54.999Z</time></trkpt><trkpt lat="45.390960440297185" lon="11.020666132052845"><ele>48.0</ele><time>2026-04-19T07:15:55.999Z</time></trkpt><trkpt lat="45.390846654261246" lon="11.020821850325014"><ele>48.0</ele><time>2026-04-19T07:15:56.999Z</time></trkpt><trkpt lat="45.39072377132039" lon="11.02098991838591"><ele>48.0</ele><time>2026-04-19T07:15:57.999Z</time></trkpt><trkpt lat="45.39060615044431" lon="11.021148684124709"><ele>48.66666666666667</ele><time>2026-04-19T07:15:58.999Z</time></trkpt><trkpt lat="45.39049406582485" lon="11.021301358632394"><ele>49.333333333333336</ele><time>2026-04-19T07:15:59.999Z</time></trkpt><trkpt lat="45.39038169979631" lon="11.021451620045301"><ele>50.0</ele><time>2026-04-19T07:16:00.999Z</time></trkpt><trkpt lat="45.390267471922535" lon="11.021602938177372"><ele>49.66666666666667</ele><time>2026-04-19T07:16:01.999Z</time></trkpt><trkpt lat="45.390153706204046" lon="11.021754757525583"><ele>49.33333333333333</ele><time>2026-04-19T07:16:02.999Z</time></trkpt><trkpt lat="45.3900401854053" lon="11.021912368599038"><ele>49.0</ele><time>2026-04-19T07:16:03.999Z</time></trkpt><trkpt lat="45.38993178390864" lon="11.022080717360122"><ele>49.0</ele><time>2026-04-19T07:16:04.999Z</time></trkpt><trkpt lat="45.38981917990382" lon="11.022251380835158"><ele>49.0</ele><time>2026-04-19T07:16:05.999Z</time></trkpt><trkpt lat="45.38970062720804" lon="11.022410923428982"><ele>49.0</ele><time>2026-04-19T07:16:06.999Z</time></trkpt><trkpt lat="45.3895824886628" lon="11.022563780699478"><ele>48.33333333333333</ele><time>2026-04-19T07:16:07.999Z</time></trkpt><trkpt lat="45.38946069985319" lon="11.022716412250906"><ele>47.666666666666664</ele><time>2026-04-19T07:16:08.999Z</time></trkpt><trkpt lat="45.38933916418909" lon="11.022871181986085"><ele>47.0</ele><time>2026-04-19T07:16:09.999Z</time></trkpt><trkpt lat="45.38921857219118" lon="11.02302943603148"><ele>47.0</ele><time>2026-04-19T07:16:10.999Z</time></trkpt><trkpt lat="45.38909917971808" lon="11.023189233853078"><ele>47.0</ele><time>2026-04-19T07:16:11.999Z</time></trkpt><trkpt lat="45.38898375899435" lon="11.02334641545428"><ele>47.0</ele><time>2026-04-19T07:16:12.999Z</time></trkpt><trkpt lat="45.38886866818797" lon="11.023501352664189"><ele>47.0</ele><time>2026-04-19T07:16:13.999Z</time></trkpt><trkpt lat="45.388752314131786" lon="11.023651117565295"><ele>47.0</ele><time>2026-04-19T07:16:14.999Z</time></trkpt><trkpt lat="45.3886261329898" lon="11.023813931148917"><ele>47.0</ele><time>2026-04-19T07:16:15.999Z</time></trkpt><trkpt lat="45.38848949922212" lon="11.023987603770435"><ele>46.666666666666664</ele><time>2026-04-19T07:16:16.999Z</time></trkpt><trkpt lat="45.388349493250224" lon="11.02416656160751"><ele>46.333333333333336</ele><time>2026-04-19T07:16:17.999Z</time></trkpt><trkpt lat="45.3882078953526" lon="11.02434699159016"><ele>46.0</ele><time>2026-04-19T07:16:18.999Z</time></trkpt><trkpt lat="45.38807027328546" lon="11.024523628911737"><ele>46.0</ele><time>2026-04-19T07:16:19.999Z</time></trkpt><trkpt lat="45.38793274121991" lon="11.024700359193789"><ele>46.0</ele><time>2026-04-19T07:16:20.999Z</time></trkpt><trkpt lat="45.38780145298066" lon="11.024871534746161"><ele>46.0</ele><time>2026-04-19T07:16:21.999Z</time></trkpt><trkpt lat="45.387675476464295" lon="11.025035043145163"><ele>45.0</ele><time>2026-04-19T07:16:22.999Z</time></trkpt><trkpt lat="45.38754826097496" lon="11.025201542303693"><ele>44.0</ele><time>2026-04-19T07:16:23.999Z</time></trkpt><trkpt lat="45.38741649906874" lon="11.025372297179954"><ele>43.0</ele><time>2026-04-19T07:16:24.999Z</time></trkpt><trkpt lat="45.387275617756444" lon="11.025552685992354"><ele>43.0</ele><time>2026-04-19T07:16:25.999Z</time></trkpt><trkpt lat="45.387131933376914" lon="11.02574000185385"><ele>43.0</ele><time>2026-04-19T07:16:26.999Z</time></trkpt><trkpt lat="45.38698013980462" lon="11.02593783698373"><ele>43.0</ele><time>2026-04-19T07:16:27.999Z</time></trkpt><trkpt lat="45.386833120428115" lon="11.026127491230078"><ele>43.333333333333336</ele><time>2026-04-19T07:16:28.999Z</time></trkpt><trkpt lat="45.386694269609514" lon="11.026306804196295"><ele>43.666666666666664</ele><time>2026-04-19T07:16:29.999Z</time></trkpt><trkpt lat="45.386555390617715" lon="11.026484362845851"><ele>44.0</ele><time>2026-04-19T07:16:30.999Z</time></trkpt><trkpt lat="45.38641326223467" lon="11.026669765431414"><ele>44.666666666666664</ele><time>2026-04-19T07:16:31.999Z</time></trkpt><trkpt lat="45.38626777878135" lon="11.026860722136453"><ele>45.333333333333336</ele><time>2026-04-19T07:16:32.999Z</time></trkpt><trkpt lat="45.38611820039459" lon="11.027056835429441"><ele>46.0</ele><time>2026-04-19T07:16:33.999Z</time></trkpt><trkpt lat="45.38596425842778" lon="11.02725583572982"><ele>46.0</ele><time>2026-04-19T07:16:34.999Z</time></trkpt><trkpt lat="45.385810304104176" lon="11.027457907010742"><ele>46.0</ele><time>2026-04-19T07:16:35.999Z</time></trkpt><trkpt lat="45.385655224329625" lon="11.027659345060489"><ele>46.0</ele><time>2026-04-19T07:16:36.999Z</time></trkpt><trkpt lat="45.38549977207872" lon="11.027861510966197"><ele>45.333333333333336</ele><time>2026-04-19T07:16:37.999Z</time></trkpt><trkpt lat="45.3853432183878" lon="11.028062853996408"><ele>44.666666666666664</ele><time>2026-04-19T07:16:38.999Z</time></trkpt><trkpt lat="45.385189559590394" lon="11.028259150686415"><ele>44.0</ele><time>2026-04-19T07:16:39.999Z</time></trkpt><trkpt lat="45.38504319308463" lon="11.028441771157409"><ele>43.33333333333333</ele><time>2026-04-19T07:16:40.999Z</time></trkpt><trkpt lat="45.38490110968585" lon="11.028617233814265"><ele>42.666666666666664</ele><time>2026-04-19T07:16:41.999Z</time></trkpt><trkpt lat="45.384759723825546" lon="11.028786258203786"><ele>42.0</ele><time>2026-04-19T07:16:43Z</time></trkpt><trkpt lat="45.38461470623535" lon="11.028958617063324"><ele>42.0</ele><time>2026-04-19T07:16:43.998Z</time></trkpt><trkpt lat="45.38447017999932" lon="11.029130723717994"><ele>42.0</ele><time>2026-04-19T07:16:44.998Z</time></trkpt><trkpt lat="45.384326886251316" lon="11.029305637793243"><ele>42.0</ele><time>2026-04-19T07:16:45.998Z</time></trkpt><trkpt lat="45.38418124921359" lon="11.029486817983027"><ele>42.666666666666664</ele><time>2026-04-19T07:16:46.998Z</time></trkpt><trkpt lat="45.38403274038158" lon="11.029672462400553"><ele>43.33333333333333</ele><time>2026-04-19T07:16:47.998Z</time></trkpt><trkpt lat="45.38388485673964" lon="11.029862020978932"><ele>44.0</ele><time>2026-04-19T07:16:48.998Z</time></trkpt><trkpt lat="45.38374969308879" lon="11.030041475642365"><ele>44.0</ele><time>2026-04-19T07:16:49.998Z</time></trkpt><trkpt lat="45.38362196640762" lon="11.030211370972406"><ele>44.0</ele><time>2026-04-19T07:16:50.998Z</time></trkpt><trkpt lat="45.38350112234695" lon="11.030372890048472"><ele>44.0</ele><time>2026-04-19T07:16:51.998Z</time></trkpt><trkpt lat="45.383381842090614" lon="11.030533095026108"><ele>44.0</ele><time>2026-04-19T07:16:52.998Z</time></trkpt><trkpt lat="45.38326526022185" lon="11.03069241210292"><ele>44.0</ele><time>2026-04-19T07:16:53.998Z</time></trkpt><trkpt lat="45.38315116530855" lon="11.03085643457659"><ele>44.0</ele><time>2026-04-19T07:16:54.998Z</time></trkpt><trkpt lat="45.383036140225464" lon="11.031022414047632"><ele>44.0</ele><time>2026-04-19T07:16:55.998Z</time></trkpt><trkpt lat="45.38292141925599" lon="11.031189617697558"><ele>44.0</ele><time>2026-04-19T07:16:56.998Z</time></trkpt><trkpt lat="45.3828028061011" lon="11.031360636334233"><ele>44.0</ele><time>2026-04-19T07:16:57.998Z</time></trkpt><trkpt lat="45.38267808198462" lon="11.031536474064836"><ele>43.666666666666664</ele><time>2026-04-19T07:16:58.998Z</time></trkpt><trkpt lat="45.38254983561249" lon="11.031717579781951"><ele>43.333333333333336</ele><time>2026-04-19T07:16:59.998Z</time></trkpt><trkpt lat="45.38241679596786" lon="11.03190722062832"><ele>43.0</ele><time>2026-04-19T07:17:00.998Z</time></trkpt><trkpt lat="45.38228569235497" lon="11.03209610292879"><ele>43.333333333333336</ele><time>2026-04-19T07:17:01.999Z</time></trkpt><trkpt lat="45.382157720146026" lon="11.032280895019554"><ele>43.666666666666664</ele><time>2026-04-19T07:17:02.999Z</time></trkpt><trkpt lat="45.3820330609892" lon="11.032463811828055"><ele>44.0</ele><time>2026-04-19T07:17:03.999Z</time></trkpt><trkpt lat="45.38190403409787" lon="11.032650150884539"><ele>44.0</ele><time>2026-04-19T07:17:04.999Z</time></trkpt><trkpt lat="45.38177078316448" lon="11.032844551507019"><ele>44.0</ele><time>2026-04-19T07:17:05.999Z</time></trkpt><trkpt lat="45.3816340948431" lon="11.033045005926272"><ele>44.0</ele><time>2026-04-19T07:17:06.999Z</time></trkpt><trkpt lat="45.3814960487742" lon="11.033246359902911"><ele>44.0</ele><time>2026-04-19T07:17:07.999Z</time></trkpt><trkpt lat="45.38135333353063" lon="11.033452392638958"><ele>44.0</ele><time>2026-04-19T07:17:08.999Z</time></trkpt><trkpt lat="45.38121202453589" lon="11.033660795525364"><ele>44.0</ele><time>2026-04-19T07:17:09.999Z</time></trkpt><trkpt lat="45.38107620424722" lon="11.033858412121145"><ele>44.0</ele><time>2026-04-19T07:17:10.999Z</time></trkpt><trkpt lat="45.38093888283271" lon="11.034057834202049"><ele>44.0</ele><time>2026-04-19T07:17:11.999Z</time></trkpt><trkpt lat="45.38079573726975" lon="11.034263863891418"><ele>44.0</ele><time>2026-04-19T07:17:12.999Z</time></trkpt><trkpt lat="45.38069333840915" lon="11.03442930657796"><ele>43.666666666666664</ele><time>2026-04-19T07:17:13.999Z</time></trkpt><trkpt lat="45.380556613261355" lon="11.034622347995546"><ele>43.333333333333336</ele><time>2026-04-19T07:17:14.999Z</time></trkpt><trkpt lat="45.38042005626218" lon="11.03482442187553"><ele>43.0</ele><time>2026-04-19T07:17:15.999Z</time></trkpt><trkpt lat="45.38028839701976" lon="11.035014851227453"><ele>43.66666666666667</ele><time>2026-04-19T07:17:16.999Z</time></trkpt><trkpt lat="45.38016378379894" lon="11.035221815905148"><ele>44.333333333333336</ele><time>2026-04-19T07:17:17.999Z</time></trkpt><trkpt lat="45.3800359623239" lon="11.03540718403252"><ele>45.0</ele><time>2026-04-19T07:17:18.999Z</time></trkpt><trkpt lat="45.37990700140928" lon="11.035599444164777"><ele>45.0</ele><time>2026-04-19T07:17:19.999Z</time></trkpt><trkpt lat="45.37977096277557" lon="11.035793964978339"><ele>45.0</ele><time>2026-04-19T07:17:20.999Z</time></trkpt><trkpt lat="45.37964326843972" lon="11.03598609983373"><ele>45.0</ele><time>2026-04-19T07:17:21.999Z</time></trkpt><trkpt lat="45.37950254753122" lon="11.036194989201777"><ele>44.0</ele><time>2026-04-19T07:17:23.067Z</time></trkpt><trkpt lat="45.37793846436546" lon="11.03802318417582"><ele>44.0</ele><time>2026-04-19T07:17:26.603Z</time></trkpt><trkpt lat="45.377361181334905" lon="11.038827620079848"><ele>43.0</ele><time>2026-04-19T07:17:27.602Z</time></trkpt><trkpt lat="45.37678215316808" lon="11.03963235583639"><ele>42.0</ele><time>2026-04-19T07:17:28.603Z</time></trkpt><trkpt lat="45.376215476912215" lon="11.040451494357706"><ele>42.0</ele><time>2026-04-19T07:17:29.602Z</time></trkpt><trkpt lat="45.37564421489172" lon="11.041264184250867"><ele>42.0</ele><time>2026-04-19T07:17:30.601Z</time></trkpt><trkpt lat="45.375087176987506" lon="11.042101065853602"><ele>40.0</ele><time>2026-04-19T07:17:31.603Z</time></trkpt><trkpt lat="45.373864323113914" lon="11.044239052632918"><ele>41.0</ele><time>2026-04-19T07:18:02.999Z</time></trkpt><trkpt lat="45.37361816972317" lon="11.044404301218542"><ele>42.0</ele><time>2026-04-19T07:18:03.999Z</time></trkpt><trkpt lat="45.37337306566455" lon="11.04460261287885"><ele>42.0</ele><time>2026-04-19T07:18:04.999Z</time></trkpt><trkpt lat="45.37324706650081" lon="11.044845704873573"><ele>42.0</ele><time>2026-04-19T07:18:05.999Z</time></trkpt><trkpt lat="45.373096889495514" lon="11.045069638803922"><ele>42.0</ele><time>2026-04-19T07:18:06.999Z</time></trkpt><trkpt lat="45.372920801841516" lon="11.045270311532493"><ele>41.5</ele><time>2026-04-19T07:18:07.999Z</time></trkpt><trkpt lat="45.37272953093038" lon="11.045456658573423"><ele>41.0</ele><time>2026-04-19T07:18:08.999Z</time></trkpt><trkpt lat="45.372568427644495" lon="11.045665744288144"><ele>40.666666666666664</ele><time>2026-04-19T07:18:09.999Z</time></trkpt><trkpt lat="45.37240252627884" lon="11.045869120533949"><ele>40.333333333333336</ele><time>2026-04-19T07:18:10.999Z</time></trkpt><trkpt lat="45.37223557914238" lon="11.046068036636024"><ele>40.0</ele><time>2026-04-19T07:18:11.999Z</time></trkpt><trkpt lat="45.37206380537743" lon="11.046269814527465"><ele>39.66666666666667</ele><time>2026-04-19T07:18:12.999Z</time></trkpt><trkpt lat="45.371897638366406" lon="11.046479174340549"><ele>39.333333333333336</ele><time>2026-04-19T07:18:13.999Z</time></trkpt><trkpt lat="45.37173456478424" lon="11.046672589291086"><ele>39.0</ele><time>2026-04-19T07:18:14.999Z</time></trkpt><trkpt lat="45.37156887504697" lon="11.04688018436176"><ele>39.0</ele><time>2026-04-19T07:18:15.999Z</time></trkpt><trkpt lat="45.37140316917163" lon="11.047087062790425"><ele>39.0</ele><time>2026-04-19T07:18:16.999Z</time></trkpt><trkpt lat="45.37123789634819" lon="11.047300876931478"><ele>39.0</ele><time>2026-04-19T07:18:17.999Z</time></trkpt><trkpt lat="45.37107217181035" lon="11.047524505233985"><ele>39.0</ele><time>2026-04-19T07:18:18.999Z</time></trkpt><trkpt lat="45.37091183418082" lon="11.047750780044426"><ele>39.0</ele><time>2026-04-19T07:18:19.999Z</time></trkpt><trkpt lat="45.37075526709032" lon="11.047977730676457"><ele>39.0</ele><time>2026-04-19T07:18:20.999Z</time></trkpt><trkpt lat="45.37060076750922" lon="11.048217191866941"><ele>41.0</ele><time>2026-04-19T07:18:21.999Z</time></trkpt><trkpt lat="45.3704485917378" lon="11.04846133897239"><ele>43.0</ele><time>2026-04-19T07:18:22.999Z</time></trkpt><trkpt lat="45.370295929783644" lon="11.048705217018842"><ele>43.0</ele><time>2026-04-19T07:18:23.999Z</time></trkpt><trkpt lat="45.37014156599048" lon="11.048959534512367"><ele>43.0</ele><time>2026-04-19T07:18:24.999Z</time></trkpt><trkpt lat="45.369986724467886" lon="11.049225233294349"><ele>42.5</ele><time>2026-04-19T07:18:25.999Z</time></trkpt><trkpt lat="45.36982754492692" lon="11.049498918884105"><ele>42.0</ele><time>2026-04-19T07:18:26.999Z</time></trkpt><trkpt lat="45.36966303164999" lon="11.049790183770225"><ele>42.0</ele><time>2026-04-19T07:18:27.999Z</time></trkpt><trkpt lat="45.36949723018515" lon="11.050092063600385"><ele>42.0</ele><time>2026-04-19T07:18:28.999Z</time></trkpt><trkpt lat="45.36934112412825" lon="11.050389293083873"><ele>42.0</ele><time>2026-04-19T07:18:29.999Z</time></trkpt><trkpt lat="45.36919683419606" lon="11.05068632722879"><ele>42.0</ele><time>2026-04-19T07:18:30.999Z</time></trkpt><trkpt lat="45.369055576383765" lon="11.05097797443006"><ele>42.0</ele><time>2026-04-19T07:18:31.999Z</time></trkpt><trkpt lat="45.368917940680106" lon="11.05126944169726"><ele>42.0</ele><time>2026-04-19T07:18:32.999Z</time></trkpt><trkpt lat="45.3687843986644" lon="11.051561204673998"><ele>40.5</ele><time>2026-04-19T07:18:33.999Z</time></trkpt><trkpt lat="45.36865724799397" lon="11.05185065687425"><ele>39.0</ele><time>2026-04-19T07:18:34.999Z</time></trkpt><trkpt lat="45.368533665512224" lon="11.052140797229143"><ele>39.0</ele><time>2026-04-19T07:18:35.999Z</time></trkpt><trkpt lat="45.36841340254433" lon="11.052431561676512"><ele>39.0</ele><time>2026-04-19T07:18:36.999Z</time></trkpt><trkpt lat="45.36828834540591" lon="11.052729601436084"><ele>39.0</ele><time>2026-04-19T07:18:37.999Z</time></trkpt><trkpt lat="45.368164731965074" lon="11.053028043750702"><ele>39.0</ele><time>2026-04-19T07:18:38.999Z</time></trkpt><trkpt lat="45.368041655401555" lon="11.053321697381964"><ele>37.5</ele><time>2026-04-19T07:18:39.999Z</time></trkpt><trkpt lat="45.36791103597934" lon="11.053623739498933"><ele>36.0</ele><time>2026-04-19T07:18:40.999Z</time></trkpt><trkpt lat="45.36777764018199" lon="11.053928709878749"><ele>37.0</ele><time>2026-04-19T07:18:41.999Z</time></trkpt><trkpt lat="45.36764944330077" lon="11.054232534777979"><ele>38.0</ele><time>2026-04-19T07:18:42.999Z</time></trkpt><trkpt lat="45.36752103670889" lon="11.054534217916288"><ele>38.0</ele><time>2026-04-19T07:18:43.999Z</time></trkpt><trkpt lat="45.367391768005675" lon="11.054838727428564"><ele>38.0</ele><time>2026-04-19T07:18:44.999Z</time></trkpt><trkpt lat="45.36726281009672" lon="11.055144385434064"><ele>37.5</ele><time>2026-04-19T07:18:45.999Z</time></trkpt><trkpt lat="45.36713686848265" lon="11.055444041955774"><ele>37.0</ele><time>2026-04-19T07:18:46.999Z</time></trkpt><trkpt lat="45.36701216173735" lon="11.055744566420877"><ele>37.0</ele><time>2026-04-19T07:18:47.999Z</time></trkpt><trkpt lat="45.366885392308106" lon="11.056044772300897"><ele>37.0</ele><time>2026-04-19T07:18:48.999Z</time></trkpt><trkpt lat="45.36675827977718" lon="11.056345872909064"><ele>37.5</ele><time>2026-04-19T07:18:49.998Z</time></trkpt><trkpt lat="45.36663060041625" lon="11.056642232776825"><ele>38.0</ele><time>2026-04-19T07:18:50.998Z</time></trkpt><trkpt lat="45.3665021663042" lon="11.05694355748268"><ele>38.0</ele><time>2026-04-19T07:18:51.998Z</time></trkpt><trkpt lat="45.36637415791131" lon="11.057233488132498"><ele>38.0</ele><time>2026-04-19T07:18:52.998Z</time></trkpt><trkpt lat="45.3662371529929" lon="11.057521551061757"><ele>37.0</ele><time>2026-04-19T07:18:53.998Z</time></trkpt><trkpt lat="45.366108809570356" lon="11.057783275747273"><ele>36.0</ele><time>2026-04-19T07:18:54.998Z</time></trkpt><trkpt lat="45.36594696759863" lon="11.058052234314845"><ele>37.0</ele><time>2026-04-19T07:18:55.998Z</time></trkpt><trkpt lat="45.36579548545733" lon="11.058298394332766"><ele>38.0</ele><time>2026-04-19T07:18:56.998Z</time></trkpt><trkpt lat="45.3656417694957" lon="11.058535658200237"><ele>37.0</ele><time>2026-04-19T07:18:57.998Z</time></trkpt><trkpt lat="45.3654781820529" lon="11.058768329218353"><ele>36.0</ele><time>2026-04-19T07:18:58.998Z</time></trkpt><trkpt lat="45.365315153514274" lon="11.058982053179816"><ele>36.0</ele><time>2026-04-19T07:18:59.999Z</time></trkpt><trkpt lat="45.365147671457486" lon="11.059188967908257"><ele>36.0</ele><time>2026-04-19T07:19:00.999Z</time></trkpt><trkpt lat="45.364983335253186" lon="11.059379466008675"><ele>36.0</ele><time>2026-04-19T07:19:01.999Z</time></trkpt><trkpt lat="45.36481279531768" lon="11.059565186867497"><ele>36.0</ele><time>2026-04-19T07:19:02.999Z</time></trkpt><trkpt lat="45.36463385012985" lon="11.059743918345413"><ele>36.0</ele><time>2026-04-19T07:19:03.999Z</time></trkpt><trkpt lat="45.3644489081324" lon="11.059917093389991"><ele>36.0</ele><time>2026-04-19T07:19:04.999Z</time></trkpt><trkpt lat="45.36425731306344" lon="11.060090002810474"><ele>36.0</ele><time>2026-04-19T07:19:05.999Z</time></trkpt><trkpt lat="45.364059575924344" lon="11.060254081471406"><ele>36.0</ele><time>2026-04-19T07:19:06.999Z</time></trkpt><trkpt lat="45.36385452280432" lon="11.060406859444347"><ele>37.0</ele><time>2026-04-19T07:19:07.999Z</time></trkpt><trkpt lat="45.36364070091274" lon="11.060549246796143"><ele>38.0</ele><time>2026-04-19T07:19:08.999Z</time></trkpt><trkpt lat="45.363423953805366" lon="11.060689057883318"><ele>37.5</ele><time>2026-04-19T07:19:09.999Z</time></trkpt><trkpt lat="45.3631980806704" lon="11.060820313145621"><ele>37.0</ele><time>2026-04-19T07:19:10.999Z</time></trkpt><trkpt lat="45.36296609646726" lon="11.060940100559169"><ele>37.0</ele><time>2026-04-19T07:19:11.999Z</time></trkpt><trkpt lat="45.36272050072016" lon="11.061049856291667"><ele>37.0</ele><time>2026-04-19T07:19:12.999Z</time></trkpt><trkpt lat="45.36247510770223" lon="11.061150301018879"><ele>37.0</ele><time>2026-04-19T07:19:13.999Z</time></trkpt><trkpt lat="45.36222641160214" lon="11.061241708271654"><ele>37.0</ele><time>2026-04-19T07:19:14.999Z</time></trkpt><trkpt lat="45.36198045564864" lon="11.061330239897657"><ele>35.5</ele><time>2026-04-19T07:19:15.999Z</time></trkpt><trkpt lat="45.36173902598447" lon="11.061421344572471"><ele>34.0</ele><time>2026-04-19T07:19:16.999Z</time></trkpt><trkpt lat="45.36150044963873" lon="11.061514714925886"><ele>34.0</ele><time>2026-04-19T07:19:17.999Z</time></trkpt><trkpt lat="45.36126406623886" lon="11.061605631978544"><ele>34.0</ele><time>2026-04-19T07:19:18.999Z</time></trkpt><trkpt lat="45.36103296976798" lon="11.061697089972647"><ele>35.0</ele><time>2026-04-19T07:19:19.999Z</time></trkpt><trkpt lat="45.3608007588332" lon="11.06178503584642"><ele>36.0</ele><time>2026-04-19T07:19:20.999Z</time></trkpt><trkpt lat="45.36056796871149" lon="11.061872424803871"><ele>34.0</ele><time>2026-04-19T07:19:21.999Z</time></trkpt><trkpt lat="45.36033389581526" lon="11.061962048724569"><ele>32.0</ele><time>2026-04-19T07:19:22.999Z</time></trkpt><trkpt lat="45.36009976863063" lon="11.062051111436958"><ele>32.0</ele><time>2026-04-19T07:19:23.999Z</time></trkpt><trkpt lat="45.35986419086144" lon="11.062140158116847"><ele>32.0</ele><time>2026-04-19T07:19:24.999Z</time></trkpt><trkpt lat="45.35962784768599" lon="11.062231027258363"><ele>32.5</ele><time>2026-04-19T07:19:25.999Z</time></trkpt><trkpt lat="45.359392107117074" lon="11.062321132064374"><ele>33.0</ele><time>2026-04-19T07:19:26.999Z</time></trkpt><trkpt lat="45.35915527969252" lon="11.06241002415316"><ele>32.0</ele><time>2026-04-19T07:19:27.999Z</time></trkpt><trkpt lat="45.35892655006889" lon="11.062495632319504"><ele>31.0</ele><time>2026-04-19T07:19:28.999Z</time></trkpt><trkpt lat="45.35869890228038" lon="11.062580990808065"><ele>31.0</ele><time>2026-04-19T07:19:29.999Z</time></trkpt><trkpt lat="45.35847558498095" lon="11.062665549417344"><ele>31.0</ele><time>2026-04-19T07:19:30.999Z</time></trkpt><trkpt lat="45.35825244198768" lon="11.06275006726644"><ele>31.5</ele><time>2026-04-19T07:19:31.999Z</time></trkpt><trkpt lat="45.35802528114067" lon="11.06283528629215"><ele>32.0</ele><time>2026-04-19T07:19:32.999Z</time></trkpt><trkpt lat="45.357793589070575" lon="11.062917011063442"><ele>32.0</ele><time>2026-04-19T07:19:33.999Z</time></trkpt><trkpt lat="45.357560509975315" lon="11.062990936162166"><ele>32.0</ele><time>2026-04-19T07:19:34.999Z</time></trkpt><trkpt lat="45.357325536407714" lon="11.063056666475585"><ele>31.0</ele><time>2026-04-19T07:19:35.999Z</time></trkpt><trkpt lat="45.357082232338044" lon="11.063110870085614"><ele>30.0</ele><time>2026-04-19T07:19:36.999Z</time></trkpt><trkpt lat="45.35683914936136" lon="11.063153434204068"><ele>30.0</ele><time>2026-04-19T07:19:37.999Z</time></trkpt><trkpt lat="45.35659038928378" lon="11.063183697073626"><ele>30.0</ele><time>2026-04-19T07:19:38.999Z</time></trkpt><trkpt lat="45.35633678627193" lon="11.06320755799983"><ele>31.5</ele><time>2026-04-19T07:19:39.999Z</time></trkpt><trkpt lat="45.356082459629214" lon="11.063224355281754"><ele>33.0</ele><time>2026-04-19T07:19:40.999Z</time></trkpt><trkpt lat="45.355825770954304" lon="11.063230362885754"><ele>33.0</ele><time>2026-04-19T07:19:41.999Z</time></trkpt><trkpt lat="45.355566685925396" lon="11.06322455236596"><ele>33.0</ele><time>2026-04-19T07:19:42.999Z</time></trkpt><trkpt lat="45.35531124996724" lon="11.063210710172035"><ele>32.0</ele><time>2026-04-19T07:19:43.999Z</time></trkpt><trkpt lat="45.35506791034194" lon="11.063187398405626"><ele>31.0</ele><time>2026-04-19T07:19:44.999Z</time></trkpt><trkpt lat="45.35482685395778" lon="11.063153820793744"><ele>32.0</ele><time>2026-04-19T07:19:45.999Z</time></trkpt><trkpt lat="45.35458560171041" lon="11.063111575248993"><ele>33.0</ele><time>2026-04-19T07:19:46.999Z</time></trkpt><trkpt lat="45.354347137049935" lon="11.0630618625133"><ele>33.0</ele><time>2026-04-19T07:19:47.999Z</time></trkpt><trkpt lat="45.35410657338755" lon="11.062998777360724"><ele>33.0</ele><time>2026-04-19T07:19:48.999Z</time></trkpt><trkpt lat="45.353872422211886" lon="11.062929657666071"><ele>33.5</ele><time>2026-04-19T07:19:49.999Z</time></trkpt><trkpt lat="45.353638708933815" lon="11.06285101897258"><ele>34.0</ele><time>2026-04-19T07:19:50.999Z</time></trkpt><trkpt lat="45.35340471896481" lon="11.06276064957032"><ele>34.0</ele><time>2026-04-19T07:19:51.999Z</time></trkpt><trkpt lat="45.35317007178887" lon="11.062666595399957"><ele>34.0</ele><time>2026-04-19T07:19:52.999Z</time></trkpt><trkpt lat="45.35293431410485" lon="11.062569703304856"><ele>33.0</ele><time>2026-04-19T07:19:53.999Z</time></trkpt><trkpt lat="45.35270230901912" lon="11.062469816756593"><ele>32.0</ele><time>2026-04-19T07:19:54.999Z</time></trkpt><trkpt lat="45.35247348890046" lon="11.062365717154341"><ele>32.0</ele><time>2026-04-19T07:19:55.999Z</time></trkpt><trkpt lat="45.35224335365674" lon="11.0622582643144"><ele>32.0</ele><time>2026-04-19T07:19:56.999Z</time></trkpt><trkpt lat="45.352014666210835" lon="11.062153013358772"><ele>33.0</ele><time>2026-04-19T07:19:57.999Z</time></trkpt><trkpt lat="45.35178682786067" lon="11.062050751978479"><ele>34.0</ele><time>2026-04-19T07:19:58.999Z</time></trkpt><trkpt lat="45.351568566045486" lon="11.061949658004089"><ele>35.5</ele><time>2026-04-19T07:19:59.999Z</time></trkpt><trkpt lat="45.35134837027122" lon="11.06184701418452"><ele>37.0</ele><time>2026-04-19T07:20:00.999Z</time></trkpt><trkpt lat="45.351124398807734" lon="11.061742849264618"><ele>37.0</ele><time>2026-04-19T07:20:01.999Z</time></trkpt><trkpt lat="45.35090727549705" lon="11.061645241124765"><ele>37.0</ele><time>2026-04-19T07:20:02.999Z</time></trkpt><trkpt lat="45.35069552491856" lon="11.061557014296863"><ele>37.0</ele><time>2026-04-19T07:20:03.999Z</time></trkpt><trkpt lat="45.35047994956746" lon="11.06147839884785"><ele>37.0</ele><time>2026-04-19T07:20:04.999Z</time></trkpt><trkpt lat="45.35026149795102" lon="11.061413418465467"><ele>37.0</ele><time>2026-04-19T07:20:05.999Z</time></trkpt><trkpt lat="45.35004187597574" lon="11.061363093021583"><ele>37.0</ele><time>2026-04-19T07:20:06.999Z</time></trkpt><trkpt lat="45.3498192353473" lon="11.061331217287062"><ele>36.5</ele><time>2026-04-19T07:20:07.999Z</time></trkpt><trkpt lat="45.34959176735295" lon="11.061314096823168"><ele>36.0</ele><time>2026-04-19T07:20:08.999Z</time></trkpt><trkpt lat="45.34936261829723" lon="11.061310456004513"><ele>36.0</ele><time>2026-04-19T07:20:09.999Z</time></trkpt><trkpt lat="45.34913417704877" lon="11.061319945158335"><ele>36.0</ele><time>2026-04-19T07:20:10.999Z</time></trkpt><trkpt lat="45.34891124625796" lon="11.061345690418516"><ele>35.666666666666664</ele><time>2026-04-19T07:20:11.999Z</time></trkpt><trkpt lat="45.34869101219457" lon="11.061393447688163"><ele>35.33333333333333</ele><time>2026-04-19T07:20:12.999Z</time></trkpt><trkpt lat="45.34846999661761" lon="11.061458348355565"><ele>35.0</ele><time>2026-04-19T07:20:13.999Z</time></trkpt><trkpt lat="45.34825300277662" lon="11.061536436111881"><ele>35.33333333333333</ele><time>2026-04-19T07:20:14.999Z</time></trkpt><trkpt lat="45.34804440514659" lon="11.061626759074047"><ele>35.666666666666664</ele><time>2026-04-19T07:20:15.999Z</time></trkpt><trkpt lat="45.34784295026889" lon="11.06173659913483"><ele>36.0</ele><time>2026-04-19T07:20:16.999Z</time></trkpt><trkpt lat="45.347641743911524" lon="11.061852279908097"><ele>36.0</ele><time>2026-04-19T07:20:17.999Z</time></trkpt><trkpt lat="45.34744585119237" lon="11.061979453175963"><ele>36.0</ele><time>2026-04-19T07:20:18.999Z</time></trkpt><trkpt lat="45.34725405519473" lon="11.062119283411397"><ele>36.0</ele><time>2026-04-19T07:20:19.999Z</time></trkpt><trkpt lat="45.347063071986845" lon="11.062280005496017"><ele>34.5</ele><time>2026-04-19T07:20:20.999Z</time></trkpt><trkpt lat="45.34686059548332" lon="11.062463797459117"><ele>33.0</ele><time>2026-04-19T07:20:21.999Z</time></trkpt><trkpt lat="45.3466462004435" lon="11.062672316955666"><ele>33.0</ele><time>2026-04-19T07:20:22.999Z</time></trkpt><trkpt lat="45.3464338255631" lon="11.06288619809692"><ele>33.0</ele><time>2026-04-19T07:20:24Z</time></trkpt><trkpt lat="45.34622633183484" lon="11.063099942826366"><ele>34.0</ele><time>2026-04-19T07:20:25Z</time></trkpt><trkpt lat="45.34602560459234" lon="11.063314771280082"><ele>35.0</ele><time>2026-04-19T07:20:26Z</time></trkpt><trkpt lat="45.345827592285445" lon="11.063536088916274"><ele>35.0</ele><time>2026-04-19T07:20:27Z</time></trkpt><trkpt lat="45.34563037729559" lon="11.063761748807089"><ele>35.0</ele><time>2026-04-19T07:20:28Z</time></trkpt><trkpt lat="45.345432356647486" lon="11.063988951958368"><ele>35.5</ele><time>2026-04-19T07:20:29Z</time></trkpt><trkpt lat="45.345236067438684" lon="11.064218553191617"><ele>36.0</ele><time>2026-04-19T07:20:30Z</time></trkpt><trkpt lat="45.34503958292523" lon="11.064451563782466"><ele>36.0</ele><time>2026-04-19T07:20:31Z</time></trkpt><trkpt lat="45.344844148139146" lon="11.064687504302963"><ele>36.0</ele><time>2026-04-19T07:20:32Z</time></trkpt><trkpt lat="45.344646976762064" lon="11.064921926269204"><ele>35.0</ele><time>2026-04-19T07:20:33Z</time></trkpt><trkpt lat="45.34444752334942" lon="11.06515633471629"><ele>34.0</ele><time>2026-04-19T07:20:34Z</time></trkpt><trkpt lat="45.344246765237465" lon="11.06539241383402"><ele>34.0</ele><time>2026-04-19T07:20:35Z</time></trkpt><trkpt lat="45.34404538431929" lon="11.065628630534468"><ele>34.0</ele><time>2026-04-19T07:20:36Z</time></trkpt><trkpt lat="45.343842749104844" lon="11.065866318404543"><ele>33.5</ele><time>2026-04-19T07:20:37Z</time></trkpt><trkpt lat="45.34364336923341" lon="11.066103835166187"><ele>33.0</ele><time>2026-04-19T07:20:38Z</time></trkpt><trkpt lat="45.34344559180346" lon="11.066344497950567"><ele>33.0</ele><time>2026-04-19T07:20:39Z</time></trkpt><trkpt lat="45.34324766301104" lon="11.06658682565554"><ele>33.0</ele><time>2026-04-19T07:20:40Z</time></trkpt><trkpt lat="45.34305070051918" lon="11.06682717988315"><ele>31.5</ele><time>2026-04-19T07:20:41Z</time></trkpt><trkpt lat="45.34285199168243" lon="11.067064898278531"><ele>30.0</ele><time>2026-04-19T07:20:42Z</time></trkpt><trkpt lat="45.3426532266186" lon="11.067300450355837"><ele>30.5</ele><time>2026-04-19T07:20:43Z</time></trkpt><trkpt lat="45.342455538879676" lon="11.067533738523142"><ele>31.0</ele><time>2026-04-19T07:20:44Z</time></trkpt><trkpt lat="45.34225640351475" lon="11.067768917819532"><ele>30.0</ele><time>2026-04-19T07:20:45Z</time></trkpt><trkpt lat="45.34205728383509" lon="11.06800318907727"><ele>29.0</ele><time>2026-04-19T07:20:46Z</time></trkpt><trkpt lat="45.341860578324074" lon="11.068238734436381"><ele>29.5</ele><time>2026-04-19T07:20:47Z</time></trkpt><trkpt lat="45.34166304837345" lon="11.06847482726449"><ele>30.0</ele><time>2026-04-19T07:20:48Z</time></trkpt><trkpt lat="45.34146362448761" lon="11.06871266924871"><ele>30.0</ele><time>2026-04-19T07:20:49Z</time></trkpt><trkpt lat="45.341263721136215" lon="11.068951658720527"><ele>30.0</ele><time>2026-04-19T07:20:50Z</time></trkpt><trkpt lat="45.34106374957619" lon="11.069190513659304"><ele>30.5</ele><time>2026-04-19T07:20:51Z</time></trkpt><trkpt lat="45.340865352498426" lon="11.069428906892416"><ele>31.0</ele><time>2026-04-19T07:20:52Z</time></trkpt><trkpt lat="45.34066646891164" lon="11.06966695248438"><ele>31.0</ele><time>2026-04-19T07:20:53Z</time></trkpt><trkpt lat="45.34046729375029" lon="11.069904911167493"><ele>31.0</ele><time>2026-04-19T07:20:54Z</time></trkpt><trkpt lat="45.34027159723813" lon="11.07013867040063"><ele>31.0</ele><time>2026-04-19T07:20:55Z</time></trkpt><trkpt lat="45.34007448606845" lon="11.070372394680644"><ele>31.0</ele><time>2026-04-19T07:20:55.999Z</time></trkpt><trkpt lat="45.33987815091973" lon="11.07060845789221"><ele>30.5</ele><time>2026-04-19T07:20:56.999Z</time></trkpt><trkpt lat="45.33967904054812" lon="11.070848604152609"><ele>30.0</ele><time>2026-04-19T07:20:57.999Z</time></trkpt><trkpt lat="45.33947739393685" lon="11.071091874872357"><ele>30.0</ele><time>2026-04-19T07:20:58.999Z</time></trkpt><trkpt lat="45.33927751795732" lon="11.07133242465056"><ele>30.0</ele><time>2026-04-19T07:20:59.999Z</time></trkpt><trkpt lat="45.339078166770285" lon="11.071571029076665"><ele>30.0</ele><time>2026-04-19T07:21:00.999Z</time></trkpt><trkpt lat="45.338879112566566" lon="11.071810343148954"><ele>30.0</ele><time>2026-04-19T07:21:01.999Z</time></trkpt><trkpt lat="45.33868030938987" lon="11.072049527430847"><ele>30.0</ele><time>2026-04-19T07:21:02.999Z</time></trkpt><trkpt lat="45.338487421632806" lon="11.072281604006664"><ele>30.0</ele><time>2026-04-19T07:21:03.999Z</time></trkpt><trkpt lat="45.3382956933663" lon="11.072513040908744"><ele>30.5</ele><time>2026-04-19T07:21:04.999Z</time></trkpt><trkpt lat="45.338104432449676" lon="11.072743546759977"><ele>31.0</ele><time>2026-04-19T07:21:05.999Z</time></trkpt><trkpt lat="45.33790887044365" lon="11.072973446525825"><ele>30.5</ele><time>2026-04-19T07:21:06.999Z</time></trkpt><trkpt lat="45.337712024051136" lon="11.073204331415614"><ele>30.0</ele><time>2026-04-19T07:21:07.999Z</time></trkpt><trkpt lat="45.33751361155311" lon="11.073437286411245"><ele>30.0</ele><time>2026-04-19T07:21:08.999Z</time></trkpt><trkpt lat="45.33731431117069" lon="11.073672800243399"><ele>30.0</ele><time>2026-04-19T07:21:09.999Z</time></trkpt><trkpt lat="45.33711262340016" lon="11.0739122114938"><ele>29.0</ele><time>2026-04-19T07:21:10.999Z</time></trkpt><trkpt lat="45.33690998603644" lon="11.074154906747156"><ele>28.0</ele><time>2026-04-19T07:21:11.999Z</time></trkpt><trkpt lat="45.33670902080423" lon="11.07439732545978"><ele>28.0</ele><time>2026-04-19T07:21:12.999Z</time></trkpt><trkpt lat="45.33650970756071" lon="11.074636929324623"><ele>28.0</ele><time>2026-04-19T07:21:13.999Z</time></trkpt><trkpt lat="45.3363089031593" lon="11.074878048650959"><ele>27.5</ele><time>2026-04-19T07:21:14.999Z</time></trkpt><trkpt lat="45.33610558932202" lon="11.075121003854008"><ele>27.0</ele><time>2026-04-19T07:21:15.999Z</time></trkpt><trkpt lat="45.33590277396151" lon="11.075364849566139"><ele>27.0</ele><time>2026-04-19T07:21:16.999Z</time></trkpt><trkpt lat="45.33569697311359" lon="11.07560768920227"><ele>27.0</ele><time>2026-04-19T07:21:17.999Z</time></trkpt><trkpt lat="45.335494425825964" lon="11.075844798810632"><ele>27.0</ele><time>2026-04-19T07:21:18.999Z</time></trkpt><trkpt lat="45.335290110348915" lon="11.076079144659317"><ele>27.0</ele><time>2026-04-19T07:21:19.999Z</time></trkpt><trkpt lat="45.33508069416544" lon="11.076306557956794"><ele>27.0</ele><time>2026-04-19T07:21:20.999Z</time></trkpt><trkpt lat="45.33486493749298" lon="11.076524603662957"><ele>27.0</ele><time>2026-04-19T07:21:21.999Z</time></trkpt><trkpt lat="45.334641403906836" lon="11.076725013128211"><ele>27.5</ele><time>2026-04-19T07:21:22.999Z</time></trkpt><trkpt lat="45.33441392041125" lon="11.076917815688484"><ele>28.0</ele><time>2026-04-19T07:21:23.999Z</time></trkpt><trkpt lat="45.33417877356224" lon="11.077106605266211"><ele>28.0</ele><time>2026-04-19T07:21:24.999Z</time></trkpt><trkpt lat="45.333939544663814" lon="11.077285539486619"><ele>28.0</ele><time>2026-04-19T07:21:25.999Z</time></trkpt><trkpt lat="45.33369828079849" lon="11.077457817086588"><ele>29.0</ele><time>2026-04-19T07:21:26.999Z</time></trkpt><trkpt lat="45.33344249141394" lon="11.077635032705967"><ele>30.0</ele><time>2026-04-19T07:21:27.999Z</time></trkpt><trkpt lat="45.33317769052106" lon="11.07780597302462"><ele>30.5</ele><time>2026-04-19T07:21:28.999Z</time></trkpt><trkpt lat="45.332904757333424" lon="11.077970919535334"><ele>31.0</ele><time>2026-04-19T07:21:29.999Z</time></trkpt><trkpt lat="45.332624118133964" lon="11.078133024067267"><ele>31.0</ele><time>2026-04-19T07:21:30.999Z</time></trkpt><trkpt lat="45.33245866037796" lon="11.078187269654991"><ele>31.0</ele><time>2026-04-19T07:21:31.999Z</time></trkpt><trkpt lat="45.33220888393825" lon="11.078300107943697"><ele>31.0</ele><time>2026-04-19T07:21:32.999Z</time></trkpt><trkpt lat="45.331958658604016" lon="11.07840237463248"><ele>31.5</ele><time>2026-04-19T07:21:33.999Z</time></trkpt><trkpt lat="45.331704949389426" lon="11.07850426967577"><ele>32.0</ele><time>2026-04-19T07:21:34.999Z</time></trkpt><trkpt lat="45.33145082559179" lon="11.078612912838189"><ele>32.5</ele><time>2026-04-19T07:21:35.999Z</time></trkpt><trkpt lat="45.33119708447077" lon="11.078726210628307"><ele>33.0</ele><time>2026-04-19T07:21:37Z</time></trkpt><trkpt lat="45.33094148379195" lon="11.078841520063962"><ele>33.0</ele><time>2026-04-19T07:21:38Z</time></trkpt><trkpt lat="45.33068640504233" lon="11.07895947879249"><ele>33.0</ele><time>2026-04-19T07:21:39Z</time></trkpt><trkpt lat="45.33043426338897" lon="11.079077071500402"><ele>32.0</ele><time>2026-04-19T07:21:40Z</time></trkpt><trkpt lat="45.33018207871751" lon="11.079198857936273"><ele>31.0</ele><time>2026-04-19T07:21:41Z</time></trkpt><trkpt lat="45.32993355867813" lon="11.07933662595726"><ele>30.5</ele><time>2026-04-19T07:21:42Z</time></trkpt><trkpt lat="45.32968804252233" lon="11.079490871065886"><ele>30.0</ele><time>2026-04-19T07:21:43Z</time></trkpt><trkpt lat="45.32944272978913" lon="11.079657861650006"><ele>30.0</ele><time>2026-04-19T07:21:44Z</time></trkpt><trkpt lat="45.329197682506226" lon="11.079834686005766"><ele>30.0</ele><time>2026-04-19T07:21:45Z</time></trkpt><trkpt lat="45.328960348514514" lon="11.080023479160815"><ele>30.0</ele><time>2026-04-19T07:21:46Z</time></trkpt><trkpt lat="45.32872626648339" lon="11.08022206739081"><ele>30.0</ele><time>2026-04-19T07:21:47Z</time></trkpt><trkpt lat="45.3284908567004" lon="11.080422551451779"><ele>30.0</ele><time>2026-04-19T07:21:48Z</time></trkpt><trkpt lat="45.32825994145859" lon="11.080635712807563"><ele>30.0</ele><time>2026-04-19T07:21:49Z</time></trkpt><trkpt lat="45.328033644632086" lon="11.080861417708242"><ele>29.5</ele><time>2026-04-19T07:21:50Z</time></trkpt><trkpt lat="45.327804769520185" lon="11.08109985971035"><ele>29.0</ele><time>2026-04-19T07:21:51Z</time></trkpt><trkpt lat="45.32758385226493" lon="11.081336173083061"><ele>29.0</ele><time>2026-04-19T07:21:52Z</time></trkpt><trkpt lat="45.327378098701374" lon="11.081557053224408"><ele>29.0</ele><time>2026-04-19T07:21:53Z</time></trkpt><trkpt lat="45.327174427981134" lon="11.081775309423621"><ele>29.5</ele><time>2026-04-19T07:21:54Z</time></trkpt><trkpt lat="45.32698105966931" lon="11.081989445596308"><ele>30.0</ele><time>2026-04-19T07:21:55Z</time></trkpt><trkpt lat="45.32677769047281" lon="11.082207983799037"><ele>30.0</ele><time>2026-04-19T07:21:56Z</time></trkpt><trkpt lat="45.32657591575938" lon="11.082424179604795"><ele>30.0</ele><time>2026-04-19T07:21:57Z</time></trkpt><trkpt lat="45.326376365333395" lon="11.082641769443125"><ele>29.5</ele><time>2026-04-19T07:21:58Z</time></trkpt><trkpt lat="45.326173136845256" lon="11.082862502169426"><ele>29.0</ele><time>2026-04-19T07:21:59Z</time></trkpt><trkpt lat="45.32597184262893" lon="11.083086120258315"><ele>29.0</ele><time>2026-04-19T07:22:00Z</time></trkpt><trkpt lat="45.32577181681976" lon="11.08331546861638"><ele>29.0</ele><time>2026-04-19T07:22:01Z</time></trkpt><trkpt lat="45.32557167478019" lon="11.083557003129238"><ele>28.5</ele><time>2026-04-19T07:22:02Z</time></trkpt><trkpt lat="45.32538063622441" lon="11.083809788568608"><ele>28.0</ele><time>2026-04-19T07:22:03Z</time></trkpt><trkpt lat="45.325196204830185" lon="11.084071666734745"><ele>29.0</ele><time>2026-04-19T07:22:04Z</time></trkpt><trkpt lat="45.3250162096132" lon="11.084334950921523"><ele>30.0</ele><time>2026-04-19T07:22:05Z</time></trkpt><trkpt lat="45.324838364150736" lon="11.084610053504205"><ele>30.0</ele><time>2026-04-19T07:22:06Z</time></trkpt><trkpt lat="45.324667380436615" lon="11.084892887688627"><ele>30.0</ele><time>2026-04-19T07:22:07Z</time></trkpt><trkpt lat="45.324499207923616" lon="11.085180743126955"><ele>30.0</ele><time>2026-04-19T07:22:08Z</time></trkpt><trkpt lat="45.324338301577974" lon="11.085478011710117"><ele>30.0</ele><time>2026-04-19T07:22:09Z</time></trkpt><trkpt lat="45.324178354626085" lon="11.085783062413936"><ele>29.0</ele><time>2026-04-19T07:22:10Z</time></trkpt><trkpt lat="45.32402543572764" lon="11.086088935442977"><ele>28.0</ele><time>2026-04-19T07:22:11Z</time></trkpt><trkpt lat="45.32388355286484" lon="11.08639603399761"><ele>27.5</ele><time>2026-04-19T07:22:12Z</time></trkpt><trkpt lat="45.32374074228598" lon="11.086719346923035"><ele>27.0</ele><time>2026-04-19T07:22:13Z</time></trkpt><trkpt lat="45.323606665618335" lon="11.087048102155759"><ele>27.0</ele><time>2026-04-19T07:22:14Z</time></trkpt><trkpt lat="45.323479421588225" lon="11.08737733419725"><ele>27.0</ele><time>2026-04-19T07:22:15Z</time></trkpt><trkpt lat="45.32336236158389" lon="11.087713146871803"><ele>26.5</ele><time>2026-04-19T07:22:16Z</time></trkpt><trkpt lat="45.323250794020396" lon="11.088063240144406"><ele>26.0</ele><time>2026-04-19T07:22:17Z</time></trkpt><trkpt lat="45.32314147243617" lon="11.088421421193278"><ele>27.5</ele><time>2026-04-19T07:22:18Z</time></trkpt><trkpt lat="45.32304201658383" lon="11.088780417613043"><ele>29.0</ele><time>2026-04-19T07:22:19Z</time></trkpt><trkpt lat="45.322949526502384" lon="11.089141198937751"><ele>29.0</ele><time>2026-04-19T07:22:20Z</time></trkpt><trkpt lat="45.3228609870219" lon="11.08950235383044"><ele>29.0</ele><time>2026-04-19T07:22:21Z</time></trkpt><trkpt lat="45.322785365100636" lon="11.089863448611174"><ele>29.0</ele><time>2026-04-19T07:22:22Z</time></trkpt><trkpt lat="45.322717997062" lon="11.09021944929504"><ele>29.0</ele><time>2026-04-19T07:22:23Z</time></trkpt><trkpt lat="45.32265623600363" lon="11.090592303056193"><ele>29.0</ele><time>2026-04-19T07:22:24Z</time></trkpt><trkpt lat="45.322603972875235" lon="11.090955618477158"><ele>29.0</ele><time>2026-04-19T07:22:25Z</time></trkpt><trkpt lat="45.32255846424771" lon="11.09133370861991"><ele>28.5</ele><time>2026-04-19T07:22:26Z</time></trkpt><trkpt lat="45.32251646021379" lon="11.091715168381599"><ele>28.0</ele><time>2026-04-19T07:22:27Z</time></trkpt><trkpt lat="45.32248095383277" lon="11.09209370698116"><ele>28.0</ele><time>2026-04-19T07:22:28Z</time></trkpt><trkpt lat="45.322447085360274" lon="11.092469971598227"><ele>28.0</ele><time>2026-04-19T07:22:29Z</time></trkpt><trkpt lat="45.32241364706304" lon="11.092848778466584"><ele>28.0</ele><time>2026-04-19T07:22:30Z</time></trkpt><trkpt lat="45.32237552517508" lon="11.093219234149586"><ele>28.0</ele><time>2026-04-19T07:22:31Z</time></trkpt><trkpt lat="45.32233185891466" lon="11.093589618116564"><ele>28.0</ele><time>2026-04-19T07:22:32Z</time></trkpt><trkpt lat="45.322277518122995" lon="11.093957869075917"><ele>28.0</ele><time>2026-04-19T07:22:33Z</time></trkpt><trkpt lat="45.32220499387045" lon="11.09431422888883"><ele>27.5</ele><time>2026-04-19T07:22:34Z</time></trkpt><trkpt lat="45.32211969631571" lon="11.09466712700424"><ele>27.0</ele><time>2026-04-19T07:22:35Z</time></trkpt><trkpt lat="45.32202750882217" lon="11.095019763223506"><ele>28.5</ele><time>2026-04-19T07:22:36Z</time></trkpt><trkpt lat="45.32193461150823" lon="11.095373456892064"><ele>30.0</ele><time>2026-04-19T07:22:37Z</time></trkpt><trkpt lat="45.32183926997029" lon="11.095729853538813"><ele>28.5</ele><time>2026-04-19T07:22:38Z</time></trkpt><trkpt lat="45.32174536623826" lon="11.096080166593783"><ele>27.0</ele><time>2026-04-19T07:22:39Z</time></trkpt><trkpt lat="45.32164291053221" lon="11.096427516999128"><ele>26.5</ele><time>2026-04-19T07:22:40Z</time></trkpt><trkpt lat="45.321532103711235" lon="11.09676902517492"><ele>26.0</ele><time>2026-04-19T07:22:41Z</time></trkpt><trkpt lat="45.32141323033419" lon="11.097110574933646"><ele>27.0</ele><time>2026-04-19T07:22:42Z</time></trkpt><trkpt lat="45.32128976028178" lon="11.097454230733629"><ele>28.0</ele><time>2026-04-19T07:22:43Z</time></trkpt><trkpt lat="45.321161335412135" lon="11.097795123233164"><ele>28.0</ele><time>2026-04-19T07:22:44Z</time></trkpt><trkpt lat="45.3210301387868" lon="11.098127885916925"><ele>28.0</ele><time>2026-04-19T07:22:45Z</time></trkpt><trkpt lat="45.32089672813389" lon="11.098454429624052"><ele>28.0</ele><time>2026-04-19T07:22:46Z</time></trkpt><trkpt lat="45.32076301520283" lon="11.098781155457212"><ele>28.0</ele><time>2026-04-19T07:22:47Z</time></trkpt><trkpt lat="45.32062987914849" lon="11.099112840256112"><ele>26.0</ele><time>2026-04-19T07:22:48Z</time></trkpt><trkpt lat="45.32049938262077" lon="11.099444743174677"><ele>24.0</ele><time>2026-04-19T07:22:49Z</time></trkpt><trkpt lat="45.32037044902586" lon="11.099779649924173"><ele>23.5</ele><time>2026-04-19T07:22:50Z</time></trkpt><trkpt lat="45.32024192259614" lon="11.100116144582596"><ele>23.0</ele><time>2026-04-19T07:22:51Z</time></trkpt><trkpt lat="45.320111806750695" lon="11.100452237347927"><ele>25.0</ele><time>2026-04-19T07:22:52Z</time></trkpt><trkpt lat="45.31998105292768" lon="11.100792550185261"><ele>27.0</ele><time>2026-04-19T07:22:53Z</time></trkpt><trkpt lat="45.31985022515016" lon="11.101127086178794"><ele>27.0</ele><time>2026-04-19T07:22:54Z</time></trkpt><trkpt lat="45.319717445491676" lon="11.101456059509868"><ele>27.0</ele><time>2026-04-19T07:22:55Z</time></trkpt><trkpt lat="45.319570381890486" lon="11.101803236061265"><ele>26.5</ele><time>2026-04-19T07:22:56Z</time></trkpt><trkpt lat="45.319419934738264" lon="11.102144557005856"><ele>26.0</ele><time>2026-04-19T07:22:57Z</time></trkpt><trkpt lat="45.31926795519687" lon="11.102473242949621"><ele>26.0</ele><time>2026-04-19T07:22:58Z</time></trkpt><trkpt lat="45.319110724032676" lon="11.10278571876689"><ele>26.0</ele><time>2026-04-19T07:22:59Z</time></trkpt><trkpt lat="45.31894470738236" lon="11.103091168954686"><ele>25.5</ele><time>2026-04-19T07:23:00Z</time></trkpt><trkpt lat="45.318770902746934" lon="11.103393680505212"><ele>25.0</ele><time>2026-04-19T07:23:01Z</time></trkpt><trkpt lat="45.31858731136437" lon="11.1036899966073"><ele>25.0</ele><time>2026-04-19T07:23:02Z</time></trkpt><trkpt lat="45.31839802705875" lon="11.103982878623029"><ele>25.0</ele><time>2026-04-19T07:23:03Z</time></trkpt><trkpt lat="45.31820028489065" lon="11.10426963140475"><ele>26.0</ele><time>2026-04-19T07:23:04Z</time></trkpt><trkpt lat="45.3179905519904" lon="11.104544499723968"><ele>27.0</ele><time>2026-04-19T07:23:05Z</time></trkpt><trkpt lat="45.3177813380587" lon="11.104819921437391"><ele>25.5</ele><time>2026-04-19T07:23:06Z</time></trkpt><trkpt lat="45.31756616361258" lon="11.105098023082695"><ele>24.0</ele><time>2026-04-19T07:23:07Z</time></trkpt><trkpt lat="45.31734593531175" lon="11.1053787318222"><ele>24.5</ele><time>2026-04-19T07:23:08Z</time></trkpt><trkpt lat="45.317128114086145" lon="11.105660041318455"><ele>25.0</ele><time>2026-04-19T07:23:09Z</time></trkpt><trkpt lat="45.316922548743094" lon="11.105914524453246"><ele>25.0</ele><time>2026-04-19T07:23:10Z</time></trkpt><trkpt lat="45.31673160660891" lon="11.106162288226162"><ele>25.0</ele><time>2026-04-19T07:23:11Z</time></trkpt><trkpt lat="45.31655285573951" lon="11.106394349507235"><ele>26.0</ele><time>2026-04-19T07:23:12Z</time></trkpt><trkpt lat="45.31637455379813" lon="11.106623938082056"><ele>27.0</ele><time>2026-04-19T07:23:13Z</time></trkpt><trkpt lat="45.31619714247506" lon="11.106869284147129"><ele>27.0</ele><time>2026-04-19T07:23:14Z</time></trkpt><trkpt lat="45.31602311502846" lon="11.10713417239369"><ele>27.0</ele><time>2026-04-19T07:23:15Z</time></trkpt><trkpt lat="45.31585087947874" lon="11.107411755653084"><ele>26.5</ele><time>2026-04-19T07:23:16Z</time></trkpt><trkpt lat="45.315677833288845" lon="11.107696391387844"><ele>26.0</ele><time>2026-04-19T07:23:17Z</time></trkpt><trkpt lat="45.315507038665395" lon="11.107985925798728"><ele>26.0</ele><time>2026-04-19T07:23:18Z</time></trkpt><trkpt lat="45.315336054704986" lon="11.108274385943735"><ele>26.0</ele><time>2026-04-19T07:23:19Z</time></trkpt><trkpt lat="45.31516806900035" lon="11.108552962971565"><ele>26.0</ele><time>2026-04-19T07:23:20Z</time></trkpt><trkpt lat="45.31499907902934" lon="11.108834703506933"><ele>26.0</ele><time>2026-04-19T07:23:21Z</time></trkpt><trkpt lat="45.31482983252085" lon="11.109114594348332"><ele>25.5</ele><time>2026-04-19T07:23:22Z</time></trkpt><trkpt lat="45.314662617731976" lon="11.109393269941673"><ele>25.0</ele><time>2026-04-19T07:23:23Z</time></trkpt><trkpt lat="45.31449323868893" lon="11.10967744615402"><ele>24.5</ele><time>2026-04-19T07:23:24Z</time></trkpt><trkpt lat="45.31432257330349" lon="11.10996644550573"><ele>24.0</ele><time>2026-04-19T07:23:25Z</time></trkpt><trkpt lat="45.314156213896" lon="11.110262935105215"><ele>24.0</ele><time>2026-04-19T07:23:26Z</time></trkpt><trkpt lat="45.31399859880859" lon="11.110565760139664"><ele>24.0</ele><time>2026-04-19T07:23:27Z</time></trkpt><trkpt lat="45.31384365409097" lon="11.110880459461477"><ele>25.0</ele><time>2026-04-19T07:23:28Z</time></trkpt><trkpt lat="45.313694615500395" lon="11.111203111121744"><ele>26.0</ele><time>2026-04-19T07:23:29Z</time></trkpt><trkpt lat="45.31355192809101" lon="11.111532718079854"><ele>26.5</ele><time>2026-04-19T07:23:30Z</time></trkpt><trkpt lat="45.313415097021874" lon="11.111866205085"><ele>27.0</ele><time>2026-04-19T07:23:31Z</time></trkpt><trkpt lat="45.31329155615044" lon="11.112198702207564"><ele>27.5</ele><time>2026-04-19T07:23:32Z</time></trkpt><trkpt lat="45.31316842356436" lon="11.112540961706424"><ele>28.0</ele><time>2026-04-19T07:23:33Z</time></trkpt><trkpt lat="45.313042843452074" lon="11.112884912484976"><ele>27.0</ele><time>2026-04-19T07:23:34Z</time></trkpt><trkpt lat="45.312917297347816" lon="11.11322728964516"><ele>26.0</ele><time>2026-04-19T07:23:35Z</time></trkpt><trkpt lat="45.31278668504342" lon="11.113569292358628"><ele>25.5</ele><time>2026-04-19T07:23:36Z</time></trkpt><trkpt lat="45.31265728397479" lon="11.11391408494947"><ele>25.0</ele><time>2026-04-19T07:23:37Z</time></trkpt><trkpt lat="45.3125275425739" lon="11.114253729875337"><ele>25.0</ele><time>2026-04-19T07:23:38Z</time></trkpt><trkpt lat="45.312396042061685" lon="11.114593756334799"><ele>25.0</ele><time>2026-04-19T07:23:39Z</time></trkpt><trkpt lat="45.31226125706518" lon="11.11493000761751"><ele>25.5</ele><time>2026-04-19T07:23:40Z</time></trkpt><trkpt lat="45.312121267501986" lon="11.115263395061342"><ele>26.0</ele><time>2026-04-19T07:23:41Z</time></trkpt><trkpt lat="45.31198591452548" lon="11.115599367633424"><ele>26.5</ele><time>2026-04-19T07:23:42Z</time></trkpt><trkpt lat="45.3118542090859" lon="11.115943334142466"><ele>27.0</ele><time>2026-04-19T07:23:43Z</time></trkpt><trkpt lat="45.311724707486114" lon="11.116285545025763"><ele>27.0</ele><time>2026-04-19T07:23:44Z</time></trkpt><trkpt lat="45.31159620351845" lon="11.11663205265472"><ele>27.0</ele><time>2026-04-19T07:23:45Z</time></trkpt><trkpt lat="45.311465606514936" lon="11.116990561099374"><ele>26.0</ele><time>2026-04-19T07:23:46Z</time></trkpt><trkpt lat="45.31134135291428" lon="11.117350959719598"><ele>25.0</ele><time>2026-04-19T07:23:47Z</time></trkpt><trkpt lat="45.31121325000026" lon="11.117723253905877"><ele>25.0</ele><time>2026-04-19T07:23:48Z</time></trkpt><trkpt lat="45.31108609320579" lon="11.11809892481176"><ele>25.0</ele><time>2026-04-19T07:23:49Z</time></trkpt><trkpt lat="45.31095431070347" lon="11.118475229473843"><ele>25.5</ele><time>2026-04-19T07:23:50Z</time></trkpt><trkpt lat="45.31082236911069" lon="11.118849079131131"><ele>26.0</ele><time>2026-04-19T07:23:51Z</time></trkpt><trkpt lat="45.31069539510542" lon="11.119213723970281"><ele>26.5</ele><time>2026-04-19T07:23:52Z</time></trkpt><trkpt lat="45.31055967641842" lon="11.11958639628802"><ele>27.0</ele><time>2026-04-19T07:23:53Z</time></trkpt><trkpt lat="45.310427022982" lon="11.119952628658837"><ele>27.0</ele><time>2026-04-19T07:23:54Z</time></trkpt><trkpt lat="45.310295683203954" lon="11.120314519922033"><ele>27.0</ele><time>2026-04-19T07:23:55Z</time></trkpt><trkpt lat="45.31016342955738" lon="11.120661816694094"><ele>26.5</ele><time>2026-04-19T07:23:56Z</time></trkpt><trkpt lat="45.31003475930056" lon="11.121008769526588"><ele>26.0</ele><time>2026-04-19T07:23:57Z</time></trkpt><trkpt lat="45.30990836910984" lon="11.121347297221359"><ele>26.0</ele><time>2026-04-19T07:23:58Z</time></trkpt><trkpt lat="45.30978295396031" lon="11.12169396935079"><ele>26.0</ele><time>2026-04-19T07:23:59Z</time></trkpt><trkpt lat="45.309657501051234" lon="11.12204082794689"><ele>25.5</ele><time>2026-04-19T07:24:00Z</time></trkpt><trkpt lat="45.30953376661181" lon="11.122388705453213"><ele>25.0</ele><time>2026-04-19T07:24:01Z</time></trkpt><trkpt lat="45.30940677082417" lon="11.122740842408957"><ele>25.0</ele><time>2026-04-19T07:24:02Z</time></trkpt><trkpt lat="45.30928157451629" lon="11.123084233208441"><ele>25.0</ele><time>2026-04-19T07:24:03Z</time></trkpt><trkpt lat="45.3091571760069" lon="11.123420234084941"><ele>25.5</ele><time>2026-04-19T07:24:04Z</time></trkpt><trkpt lat="45.309027624945614" lon="11.123748240662994"><ele>26.0</ele><time>2026-04-19T07:24:05Z</time></trkpt><trkpt lat="45.30889496831764" lon="11.124070996165289"><ele>26.0</ele><time>2026-04-19T07:24:06Z</time></trkpt><trkpt lat="45.30876195301956" lon="11.124381146168032"><ele>26.0</ele><time>2026-04-19T07:24:07Z</time></trkpt><trkpt lat="45.30862553902234" lon="11.124687702921136"><ele>26.0</ele><time>2026-04-19T07:24:08Z</time></trkpt><trkpt lat="45.308486109799674" lon="11.124990360806336"><ele>26.0</ele><time>2026-04-19T07:24:09Z</time></trkpt><trkpt lat="45.30834426183734" lon="11.125289684216929"><ele>26.0</ele><time>2026-04-19T07:24:10Z</time></trkpt><trkpt lat="45.308198920318176" lon="11.12559161250795"><ele>26.0</ele><time>2026-04-19T07:24:11Z</time></trkpt><trkpt lat="45.30805350303814" lon="11.125894458143165"><ele>25.5</ele><time>2026-04-19T07:24:12Z</time></trkpt><trkpt lat="45.30790540379092" lon="11.126197402661404"><ele>25.0</ele><time>2026-04-19T07:24:13Z</time></trkpt><trkpt lat="45.30775382113349" lon="11.126500918658081"><ele>24.5</ele><time>2026-04-19T07:24:14Z</time></trkpt><trkpt lat="45.307598456620774" lon="11.126810651245282"><ele>24.0</ele><time>2026-04-19T07:24:15Z</time></trkpt><trkpt lat="45.307443838746245" lon="11.127121132196345"><ele>24.5</ele><time>2026-04-19T07:24:16Z</time></trkpt><trkpt lat="45.30728854900748" lon="11.127435707328052"><ele>25.0</ele><time>2026-04-19T07:24:17Z</time></trkpt><trkpt lat="45.307131357733766" lon="11.127753224400688"><ele>25.0</ele><time>2026-04-19T07:24:18Z</time></trkpt><trkpt lat="45.3069756655696" lon="11.128069327525326"><ele>25.0</ele><time>2026-04-19T07:24:19Z</time></trkpt><trkpt lat="45.306820910956596" lon="11.128378805191339"><ele>25.0</ele><time>2026-04-19T07:24:20Z</time></trkpt><trkpt lat="45.30666602856867" lon="11.128687609522112"><ele>25.0</ele><time>2026-04-19T07:24:21Z</time></trkpt><trkpt lat="45.30651158894113" lon="11.128995600648661"><ele>25.0</ele><time>2026-04-19T07:24:22Z</time></trkpt><trkpt lat="45.30636028304744" lon="11.129300192590224"><ele>25.0</ele><time>2026-04-19T07:24:23Z</time></trkpt><trkpt lat="45.306211220097666" lon="11.129598228692604"><ele>25.5</ele><time>2026-04-19T07:24:24Z</time></trkpt><trkpt lat="45.30606317406385" lon="11.129893672397996"><ele>26.0</ele><time>2026-04-19T07:24:25Z</time></trkpt><trkpt lat="45.30591485959906" lon="11.130191399138138"><ele>26.0</ele><time>2026-04-19T07:24:26Z</time></trkpt><trkpt lat="45.305765211948156" lon="11.130490730522194"><ele>26.0</ele><time>2026-04-19T07:24:27Z</time></trkpt><trkpt lat="45.30561524746672" lon="11.130792601042344"><ele>25.0</ele><time>2026-04-19T07:24:28Z</time></trkpt><trkpt lat="45.30546356667452" lon="11.131097065439493"><ele>24.0</ele><time>2026-04-19T07:24:29Z</time></trkpt><trkpt lat="45.30531200994865" lon="11.131400509144568"><ele>24.5</ele><time>2026-04-19T07:24:30Z</time></trkpt><trkpt lat="45.30516001431175" lon="11.131705167614495"><ele>25.0</ele><time>2026-04-19T07:24:31Z</time></trkpt><trkpt lat="45.305007524829634" lon="11.13201100018172"><ele>25.0</ele><time>2026-04-19T07:24:32Z</time></trkpt><trkpt lat="45.30485529704269" lon="11.132314180383261"><ele>25.0</ele><time>2026-04-19T07:24:33Z</time></trkpt><trkpt lat="45.30470323512467" lon="11.132617581271447"><ele>25.0</ele><time>2026-04-19T07:24:34Z</time></trkpt><trkpt lat="45.30455102064132" lon="11.132919910828374"><ele>25.0</ele><time>2026-04-19T07:24:35Z</time></trkpt><trkpt lat="45.304396851426475" lon="11.133227899369139"><ele>25.0</ele><time>2026-04-19T07:24:36Z</time></trkpt><trkpt lat="45.30424184710884" lon="11.133536456732827"><ele>25.0</ele><time>2026-04-19T07:24:37Z</time></trkpt><trkpt lat="45.304085639678256" lon="11.133849238453976"><ele>24.5</ele><time>2026-04-19T07:24:38Z</time></trkpt><trkpt lat="45.30392782570833" lon="11.134168055141792"><ele>24.0</ele><time>2026-04-19T07:24:39Z</time></trkpt><trkpt lat="45.303768281785956" lon="11.134490806814524"><ele>24.0</ele><time>2026-04-19T07:24:40Z</time></trkpt><trkpt lat="45.3036067636927" lon="11.13481778535012"><ele>24.0</ele><time>2026-04-19T07:24:41Z</time></trkpt><trkpt lat="45.30344507462398" lon="11.135146598293105"><ele>24.5</ele><time>2026-04-19T07:24:42Z</time></trkpt><trkpt lat="45.30328451401289" lon="11.135474808863696"><ele>25.0</ele><time>2026-04-19T07:24:43Z</time></trkpt><trkpt lat="45.30312514751124" lon="11.135805005912713"><ele>24.5</ele><time>2026-04-19T07:24:44Z</time></trkpt><trkpt lat="45.302970337326705" lon="11.136132976365843"><ele>24.0</ele><time>2026-04-19T07:24:45Z</time></trkpt><trkpt lat="45.30282011546672" lon="11.136458523295346"><ele>24.0</ele><time>2026-04-19T07:24:46Z</time></trkpt><trkpt lat="45.30267356008459" lon="11.136786208197751"><ele>24.0</ele><time>2026-04-19T07:24:47Z</time></trkpt><trkpt lat="45.30253009377231" lon="11.137120229990856"><ele>24.0</ele><time>2026-04-19T07:24:48Z</time></trkpt><trkpt lat="45.30238559677522" lon="11.137467999284949"><ele>24.0</ele><time>2026-04-19T07:24:49Z</time></trkpt><trkpt lat="45.30224609675175" lon="11.137829620045212"><ele>24.0</ele><time>2026-04-19T07:24:50Z</time></trkpt><trkpt lat="45.30212188141104" lon="11.138175386299574"><ele>24.0</ele><time>2026-04-19T07:24:51Z</time></trkpt><trkpt lat="45.30200575010235" lon="11.138515058955184"><ele>24.0</ele><time>2026-04-19T07:24:52Z</time></trkpt><trkpt lat="45.30189329358532" lon="11.138860712448464"><ele>24.0</ele><time>2026-04-19T07:24:53Z</time></trkpt><trkpt lat="45.30178445696414" lon="11.139213490962833"><ele>25.5</ele><time>2026-04-19T07:24:54Z</time></trkpt><trkpt lat="45.301682334295144" lon="11.139568673428418"><ele>27.0</ele><time>2026-04-19T07:24:55Z</time></trkpt><trkpt lat="45.30158576311775" lon="11.139926173599424"><ele>27.0</ele><time>2026-04-19T07:24:56Z</time></trkpt><trkpt lat="45.30149404508299" lon="11.140287127946515"><ele>27.0</ele><time>2026-04-19T07:24:57Z</time></trkpt><trkpt lat="45.30140527419184" lon="11.140650024937043"><ele>27.0</ele><time>2026-04-19T07:24:58Z</time></trkpt><trkpt lat="45.30132056508334" lon="11.141011708746"><ele>27.0</ele><time>2026-04-19T07:24:59Z</time></trkpt><trkpt lat="45.30123979287431" lon="11.141373348340773"><ele>27.0</ele><time>2026-04-19T07:25:00Z</time></trkpt><trkpt lat="45.30116471871945" lon="11.14173191898224"><ele>27.0</ele><time>2026-04-19T07:25:01Z</time></trkpt><trkpt lat="45.301091249867454" lon="11.14209213131739"><ele>27.0</ele><time>2026-04-19T07:25:02Z</time></trkpt><trkpt lat="45.301019006037016" lon="11.142456182633302"><ele>27.0</ele><time>2026-04-19T07:25:03Z</time></trkpt><trkpt lat="45.30094381139644" lon="11.142826578081397"><ele>27.0</ele><time>2026-04-19T07:25:04Z</time></trkpt><trkpt lat="45.300866600152965" lon="11.143201764193844"><ele>27.0</ele><time>2026-04-19T07:25:05Z</time></trkpt><trkpt lat="45.30078780505008" lon="11.14357891304678"><ele>26.5</ele><time>2026-04-19T07:25:06Z</time></trkpt><trkpt lat="45.30070779354365" lon="11.143957673537992"><ele>26.0</ele><time>2026-04-19T07:25:07Z</time></trkpt><trkpt lat="45.300626818123696" lon="11.14433729795658"><ele>26.0</ele><time>2026-04-19T07:25:08Z</time></trkpt><trkpt lat="45.300543038263996" lon="11.144718315174117"><ele>26.0</ele><time>2026-04-19T07:25:09Z</time></trkpt><trkpt lat="45.300454020458446" lon="11.145096356898142"><ele>26.0</ele><time>2026-04-19T07:25:10Z</time></trkpt><trkpt lat="45.30036127307874" lon="11.145472630646982"><ele>26.0</ele><time>2026-04-19T07:25:11Z</time></trkpt><trkpt lat="45.30026536213966" lon="11.145846249552887"><ele>25.5</ele><time>2026-04-19T07:25:12Z</time></trkpt><trkpt lat="45.300168552351735" lon="11.146215675759153"><ele>25.0</ele><time>2026-04-19T07:25:13Z</time></trkpt><trkpt lat="45.30007276284182" lon="11.1465804040822"><ele>25.0</ele><time>2026-04-19T07:25:14Z</time></trkpt><trkpt lat="45.2999766269036" lon="11.146941676991371"><ele>25.0</ele><time>2026-04-19T07:25:15Z</time></trkpt><trkpt lat="45.29987929717624" lon="11.147301035780762"><ele>25.0</ele><time>2026-04-19T07:25:16Z</time></trkpt><trkpt lat="45.29978228473405" lon="11.147661154221497"><ele>25.0</ele><time>2026-04-19T07:25:17Z</time></trkpt><trkpt lat="45.2996866939214" lon="11.148021861901167"><ele>25.0</ele><time>2026-04-19T07:25:18Z</time></trkpt><trkpt lat="45.29959156556624" lon="11.148382108003448"><ele>25.0</ele><time>2026-04-19T07:25:19Z</time></trkpt><trkpt lat="45.29949561567634" lon="11.14874082415126"><ele>25.0</ele><time>2026-04-19T07:25:20Z</time></trkpt><trkpt lat="45.29940021358619" lon="11.149099654574798"><ele>25.0</ele><time>2026-04-19T07:25:21Z</time></trkpt><trkpt lat="45.299301496613" lon="11.149456800291228"><ele>25.0</ele><time>2026-04-19T07:25:22Z</time></trkpt><trkpt lat="45.29920025224018" lon="11.149810246004312"><ele>25.0</ele><time>2026-04-19T07:25:23Z</time></trkpt><trkpt lat="45.299095290252346" lon="11.150160892366923"><ele>25.5</ele><time>2026-04-19T07:25:24Z</time></trkpt><trkpt lat="45.29898562851255" lon="11.150507074086464"><ele>26.0</ele><time>2026-04-19T07:25:25Z</time></trkpt><trkpt lat="45.298871286532105" lon="11.150852672231382"><ele>26.0</ele><time>2026-04-19T07:25:26Z</time></trkpt><trkpt lat="45.29875532285268" lon="11.151197984880806"><ele>26.0</ele><time>2026-04-19T07:25:27Z</time></trkpt><trkpt lat="45.29863612672105" lon="11.15154275852533"><ele>25.0</ele><time>2026-04-19T07:25:28Z</time></trkpt><trkpt lat="45.29851624409651" lon="11.15189107610114"><ele>24.0</ele><time>2026-04-19T07:25:29Z</time></trkpt><trkpt lat="45.29839637091023" lon="11.152241718616244"><ele>24.0</ele><time>2026-04-19T07:25:30Z</time></trkpt><trkpt lat="45.29828090088597" lon="11.152591999497485"><ele>24.0</ele><time>2026-04-19T07:25:31Z</time></trkpt><trkpt lat="45.298171500370934" lon="11.152945079407285"><ele>25.0</ele><time>2026-04-19T07:25:32Z</time></trkpt><trkpt lat="45.29807015960849" lon="11.153300602830935"><ele>26.0</ele><time>2026-04-19T07:25:33Z</time></trkpt><trkpt lat="45.29797469579259" lon="11.15366185078003"><ele>26.0</ele><time>2026-04-19T07:25:34Z</time></trkpt><trkpt lat="45.2978837888733" lon="11.154027061487625"><ele>26.0</ele><time>2026-04-19T07:25:35Z</time></trkpt><trkpt lat="45.297795875930255" lon="11.154397548452659"><ele>26.0</ele><time>2026-04-19T07:25:36Z</time></trkpt><trkpt lat="45.29771148567509" lon="11.154769260120132"><ele>26.0</ele><time>2026-04-19T07:25:37Z</time></trkpt><trkpt lat="45.29763121245785" lon="11.15513941840079"><ele>26.0</ele><time>2026-04-19T07:25:38Z</time></trkpt><trkpt lat="45.29755201126732" lon="11.155506016846228"><ele>26.0</ele><time>2026-04-19T07:25:39Z</time></trkpt><trkpt lat="45.29747088206869" lon="11.155870684554122"><ele>25.5</ele><time>2026-04-19T07:25:40Z</time></trkpt><trkpt lat="45.29738938419481" lon="11.156233753316153"><ele>25.0</ele><time>2026-04-19T07:25:41Z</time></trkpt><trkpt lat="45.297309053471764" lon="11.15659438563473"><ele>25.5</ele><time>2026-04-19T07:25:42Z</time></trkpt><trkpt lat="45.297230957481226" lon="11.156957617754525"><ele>26.0</ele><time>2026-04-19T07:25:43Z</time></trkpt><trkpt lat="45.297152178784586" lon="11.1573241578124"><ele>25.5</ele><time>2026-04-19T07:25:44Z</time></trkpt><trkpt lat="45.297071839596995" lon="11.157694766653176"><ele>25.0</ele><time>2026-04-19T07:25:45Z</time></trkpt><trkpt lat="45.296990531112534" lon="11.158070674363145"><ele>24.0</ele><time>2026-04-19T07:25:46Z</time></trkpt><trkpt lat="45.29690918177745" lon="11.158450774645917"><ele>23.0</ele><time>2026-04-19T07:25:47Z</time></trkpt><trkpt lat="45.29683043148846" lon="11.158833569856382"><ele>23.0</ele><time>2026-04-19T07:25:48Z</time></trkpt><trkpt lat="45.29675622783517" lon="11.159217549393524"><ele>23.0</ele><time>2026-04-19T07:25:49Z</time></trkpt><trkpt lat="45.29668872888486" lon="11.15960426864596"><ele>23.5</ele><time>2026-04-19T07:25:50Z</time></trkpt><trkpt lat="45.29662619576244" lon="11.159994954331962"><ele>24.0</ele><time>2026-04-19T07:25:51Z</time></trkpt><trkpt lat="45.2965681789401" lon="11.16038158068118"><ele>24.0</ele><time>2026-04-19T07:25:52Z</time></trkpt><trkpt lat="45.29651243089597" lon="11.160766327839008"><ele>24.0</ele><time>2026-04-19T07:25:53Z</time></trkpt><trkpt lat="45.296457957167625" lon="11.161147439100375"><ele>24.0</ele><time>2026-04-19T07:25:54Z</time></trkpt><trkpt lat="45.29640315841401" lon="11.16152853187425"><ele>24.0</ele><time>2026-04-19T07:25:55Z</time></trkpt><trkpt lat="45.296348158098176" lon="11.161907791209213"><ele>24.0</ele><time>2026-04-19T07:25:56Z</time></trkpt><trkpt lat="45.29629333009103" lon="11.162284765641425"><ele>24.0</ele><time>2026-04-19T07:25:57Z</time></trkpt><trkpt lat="45.29623869690095" lon="11.162661783132318"><ele>24.0</ele><time>2026-04-19T07:25:58Z</time></trkpt><trkpt lat="45.2961834414882" lon="11.163039871114005"><ele>24.0</ele><time>2026-04-19T07:25:59Z</time></trkpt><trkpt lat="45.29612906029659" lon="11.163417272195055"><ele>24.0</ele><time>2026-04-19T07:26:00Z</time></trkpt><trkpt lat="45.29607525568246" lon="11.163799133007645"><ele>24.0</ele><time>2026-04-19T07:26:01Z</time></trkpt><trkpt lat="45.29602061542331" lon="11.164176951004464"><ele>24.0</ele><time>2026-04-19T07:26:02Z</time></trkpt><trkpt lat="45.29596611920036" lon="11.164559774029813"><ele>24.0</ele><time>2026-04-19T07:26:03Z</time></trkpt><trkpt lat="45.29590974506749" lon="11.164944821974398"><ele>24.0</ele><time>2026-04-19T07:26:04Z</time></trkpt><trkpt lat="45.2958512937839" lon="11.165331695917752"><ele>24.0</ele><time>2026-04-19T07:26:05Z</time></trkpt><trkpt lat="45.295787261675486" lon="11.165718582648942"><ele>23.5</ele><time>2026-04-19T07:26:06Z</time></trkpt><trkpt lat="45.29571970177726" lon="11.166101694235465"><ele>23.0</ele><time>2026-04-19T07:26:07Z</time></trkpt><trkpt lat="45.29564684124522" lon="11.166480716577455"><ele>23.5</ele><time>2026-04-19T07:26:08Z</time></trkpt><trkpt lat="45.29557084565295" lon="11.16685425884172"><ele>24.0</ele><time>2026-04-19T07:26:09Z</time></trkpt><trkpt lat="45.295489167581614" lon="11.167225802464237"><ele>23.5</ele><time>2026-04-19T07:26:10Z</time></trkpt><trkpt lat="45.29540316463207" lon="11.167596671320103"><ele>23.0</ele><time>2026-04-19T07:26:11Z</time></trkpt><trkpt lat="45.29531360050673" lon="11.167968667970102"><ele>23.5</ele><time>2026-04-19T07:26:12Z</time></trkpt><trkpt lat="45.29521968734077" lon="11.168338396769665"><ele>24.0</ele><time>2026-04-19T07:26:13Z</time></trkpt><trkpt lat="45.295120479824064" lon="11.16870704743335"><ele>24.5</ele><time>2026-04-19T07:26:14Z</time></trkpt><trkpt lat="45.2950154082958" lon="11.169076078153983"><ele>25.0</ele><time>2026-04-19T07:26:15Z</time></trkpt><trkpt lat="45.29490716098061" lon="11.169446979689223"><ele>25.0</ele><time>2026-04-19T07:26:16Z</time></trkpt><trkpt lat="45.29479080968157" lon="11.169815305434769"><ele>25.0</ele><time>2026-04-19T07:26:17Z</time></trkpt><trkpt lat="45.294670665766674" lon="11.170180633304879"><ele>24.5</ele><time>2026-04-19T07:26:18Z</time></trkpt><trkpt lat="45.294551007646845" lon="11.170538156646383"><ele>24.0</ele><time>2026-04-19T07:26:19Z</time></trkpt><trkpt lat="45.294428843940196" lon="11.170886512151778"><ele>24.0</ele><time>2026-04-19T07:26:20Z</time></trkpt><trkpt lat="45.29430112243778" lon="11.171235419990028"><ele>24.0</ele><time>2026-04-19T07:26:21Z</time></trkpt><trkpt lat="45.29417098016875" lon="11.171577044006069"><ele>23.5</ele><time>2026-04-19T07:26:22Z</time></trkpt><trkpt lat="45.29403752902654" lon="11.171914500294571"><ele>23.0</ele><time>2026-04-19T07:26:23Z</time></trkpt><trkpt lat="45.29390126199832" lon="11.172247546581257"><ele>22.0</ele><time>2026-04-19T07:26:24Z</time></trkpt><trkpt lat="45.29376056959429" lon="11.172580574058449"><ele>21.0</ele><time>2026-04-19T07:26:25Z</time></trkpt><trkpt lat="45.29361839945906" lon="11.172915596725378"><ele>22.0</ele><time>2026-04-19T07:26:26Z</time></trkpt><trkpt lat="45.29347457630167" lon="11.17325522150373"><ele>23.0</ele><time>2026-04-19T07:26:27Z</time></trkpt><trkpt lat="45.29333052082074" lon="11.173598181741738"><ele>23.0</ele><time>2026-04-19T07:26:28Z</time></trkpt><trkpt lat="45.29318465141947" lon="11.173944139100795"><ele>23.0</ele><time>2026-04-19T07:26:29Z</time></trkpt><trkpt lat="45.29303751122167" lon="11.174293016817055"><ele>22.5</ele><time>2026-04-19T07:26:30Z</time></trkpt><trkpt lat="45.29289040677614" lon="11.17464298412568"><ele>22.0</ele><time>2026-04-19T07:26:31Z</time></trkpt><trkpt lat="45.292742276814025" lon="11.17499762869875"><ele>22.0</ele><time>2026-04-19T07:26:32Z</time></trkpt><trkpt lat="45.2925920513296" lon="11.175359129691696"><ele>22.0</ele><time>2026-04-19T07:26:33Z</time></trkpt><trkpt lat="45.29243173047105" lon="11.175740894239478"><ele>22.0</ele><time>2026-04-19T07:26:34Z</time></trkpt><trkpt lat="45.292263516793184" lon="11.176144853366598"><ele>22.0</ele><time>2026-04-19T07:26:35Z</time></trkpt><trkpt lat="45.29210084710456" lon="11.176534050230586"><ele>22.0</ele><time>2026-04-19T07:26:36Z</time></trkpt><trkpt lat="45.291945245335384" lon="11.176907926171609"><ele>22.0</ele><time>2026-04-19T07:26:37Z</time></trkpt><trkpt lat="45.291791124177635" lon="11.17727605213084"><ele>21.5</ele><time>2026-04-19T07:26:38Z</time></trkpt><trkpt lat="45.29163735297874" lon="11.177640398889581"><ele>21.0</ele><time>2026-04-19T07:26:39Z</time></trkpt><trkpt lat="45.2914849278014" lon="11.177999844657242"><ele>20.5</ele><time>2026-04-19T07:26:40Z</time></trkpt><trkpt lat="45.29133583056573" lon="11.17835517919311"><ele>20.0</ele><time>2026-04-19T07:26:41Z</time></trkpt><trkpt lat="45.291189615974005" lon="11.1787037791711"><ele>19.5</ele><time>2026-04-19T07:26:42Z</time></trkpt><trkpt lat="45.29104653507528" lon="11.179045545244229"><ele>19.0</ele><time>2026-04-19T07:26:43Z</time></trkpt><trkpt lat="45.290904343211274" lon="11.179385174298382"><ele>19.0</ele><time>2026-04-19T07:26:44Z</time></trkpt><trkpt lat="45.29076569444705" lon="11.179721282669583"><ele>19.0</ele><time>2026-04-19T07:26:45Z</time></trkpt><trkpt lat="45.29062873523696" lon="11.180051342965982"><ele>19.5</ele><time>2026-04-19T07:26:46Z</time></trkpt><trkpt lat="45.29049333517592" lon="11.180376389543621"><ele>20.0</ele><time>2026-04-19T07:26:47Z</time></trkpt><trkpt lat="45.29036057649366" lon="11.180697344363026"><ele>20.0</ele><time>2026-04-19T07:26:48Z</time></trkpt><trkpt lat="45.29022996025193" lon="11.181009890037263"><ele>20.0</ele><time>2026-04-19T07:26:49Z</time></trkpt><trkpt lat="45.2901002994601" lon="11.181321498037985"><ele>21.0</ele><time>2026-04-19T07:26:50Z</time></trkpt><trkpt lat="45.28997130451675" lon="11.181633630620299"><ele>22.0</ele><time>2026-04-19T07:26:51Z</time></trkpt><trkpt lat="45.289843209425285" lon="11.181945102384551"><ele>22.0</ele><time>2026-04-19T07:26:52Z</time></trkpt><trkpt lat="45.28971356839832" lon="11.182260123910504"><ele>22.0</ele><time>2026-04-19T07:26:53Z</time></trkpt><trkpt lat="45.289582140035236" lon="11.182577091784198"><ele>22.0</ele><time>2026-04-19T07:26:54Z</time></trkpt><trkpt lat="45.28944931077758" lon="11.18289625925612"><ele>22.0</ele><time>2026-04-19T07:26:55Z</time></trkpt><trkpt lat="45.289314515694144" lon="11.183220354374178"><ele>21.0</ele><time>2026-04-19T07:26:56Z</time></trkpt><trkpt lat="45.28917767998062" lon="11.183549339398047"><ele>20.0</ele><time>2026-04-19T07:26:57Z</time></trkpt><trkpt lat="45.28903952416616" lon="11.183880360611644"><ele>19.5</ele><time>2026-04-19T07:26:58Z</time></trkpt><trkpt lat="45.28889937144135" lon="11.18421595872658"><ele>19.0</ele><time>2026-04-19T07:26:59Z</time></trkpt><trkpt lat="45.28875385684906" lon="11.184562071410472"><ele>19.0</ele><time>2026-04-19T07:27:00Z</time></trkpt><trkpt lat="45.28860575300688" lon="11.184916929858185"><ele>19.0</ele><time>2026-04-19T07:27:01Z</time></trkpt><trkpt lat="45.28845502270511" lon="11.185277246266347"><ele>19.0</ele><time>2026-04-19T07:27:02Z</time></trkpt><trkpt lat="45.28830385756467" lon="11.185635672453694"><ele>19.0</ele><time>2026-04-19T07:27:03Z</time></trkpt><trkpt lat="45.28815703305186" lon="11.185985055257182"><ele>19.0</ele><time>2026-04-19T07:27:04Z</time></trkpt><trkpt lat="45.288008423892705" lon="11.186336689063598"><ele>19.0</ele><time>2026-04-19T07:27:05Z</time></trkpt><trkpt lat="45.28785853566939" lon="11.186691907598595"><ele>19.0</ele><time>2026-04-19T07:27:06Z</time></trkpt><trkpt lat="45.287708632043646" lon="11.187046373757699"><ele>19.0</ele><time>2026-04-19T07:27:07Z</time></trkpt><trkpt lat="45.28756013723789" lon="11.187401642233363"><ele>19.5</ele><time>2026-04-19T07:27:08Z</time></trkpt><trkpt lat="45.287414290735235" lon="11.187758949487444"><ele>20.0</ele><time>2026-04-19T07:27:09Z</time></trkpt><trkpt lat="45.28726887189131" lon="11.188113943315567"><ele>20.0</ele><time>2026-04-19T07:27:10Z</time></trkpt><trkpt lat="45.28712402957257" lon="11.188465143717234"><ele>20.0</ele><time>2026-04-19T07:27:11Z</time></trkpt><trkpt lat="45.286978054512545" lon="11.188813603870795"><ele>21.5</ele><time>2026-04-19T07:27:12Z</time></trkpt><trkpt lat="45.28683449926338" lon="11.189155610317643"><ele>23.0</ele><time>2026-04-19T07:27:13Z</time></trkpt><trkpt lat="45.28668959976745" lon="11.189499721069819"><ele>23.0</ele><time>2026-04-19T07:27:14Z</time></trkpt><trkpt lat="45.28654699405799" lon="11.189840749359174"><ele>23.0</ele><time>2026-04-19T07:27:15Z</time></trkpt><trkpt lat="45.28640413840281" lon="11.190184142702142"><ele>23.0</ele><time>2026-04-19T07:27:16Z</time></trkpt><trkpt lat="45.28625959894312" lon="11.190532015979047"><ele>23.0</ele><time>2026-04-19T07:27:17Z</time></trkpt><trkpt lat="45.28611757194374" lon="11.190879095215509"><ele>23.0</ele><time>2026-04-19T07:27:18Z</time></trkpt><trkpt lat="45.28598167475316" lon="11.19123120960893"><ele>23.0</ele><time>2026-04-19T07:27:19Z</time></trkpt><trkpt lat="45.2858522066296" lon="11.191586674407786"><ele>23.5</ele><time>2026-04-19T07:27:20Z</time></trkpt><trkpt lat="45.28573137812241" lon="11.191945049002504"><ele>24.0</ele><time>2026-04-19T07:27:21Z</time></trkpt><trkpt lat="45.285608906658446" lon="11.192300882315136"><ele>23.0</ele><time>2026-04-19T07:27:22Z</time></trkpt><trkpt lat="45.28548350056316" lon="11.192657303355787"><ele>22.0</ele><time>2026-04-19T07:27:23Z</time></trkpt><trkpt lat="45.285369571396224" lon="11.192999390074304"><ele>21.5</ele><time>2026-04-19T07:27:24Z</time></trkpt><trkpt lat="45.28526037933793" lon="11.1933362883795"><ele>21.0</ele><time>2026-04-19T07:27:25Z</time></trkpt><trkpt lat="45.285157065421906" lon="11.193654951643088"><ele>21.0</ele><time>2026-04-19T07:27:26Z</time></trkpt><trkpt lat="45.28505902163296" lon="11.193970919401503"><ele>21.0</ele><time>2026-04-19T07:27:27Z</time></trkpt><trkpt lat="45.284961698001645" lon="11.194292926402756"><ele>21.0</ele><time>2026-04-19T07:27:28Z</time></trkpt><trkpt lat="45.284862518789055" lon="11.19462553968775"><ele>21.0</ele><time>2026-04-19T07:27:29Z</time></trkpt><trkpt lat="45.28476742034061" lon="11.194960360429135"><ele>22.5</ele><time>2026-04-19T07:27:30Z</time></trkpt><trkpt lat="45.28467764313708" lon="11.19528321139612"><ele>24.0</ele><time>2026-04-19T07:27:31Z</time></trkpt><trkpt lat="45.28459020366387" lon="11.195607294503493"><ele>23.5</ele><time>2026-04-19T07:27:32Z</time></trkpt><trkpt lat="45.28450294326784" lon="11.19593049719641"><ele>23.0</ele><time>2026-04-19T07:27:33Z</time></trkpt><trkpt lat="45.28441481997923" lon="11.196254654536764"><ele>22.5</ele><time>2026-04-19T07:27:34Z</time></trkpt><trkpt lat="45.284325413240474" lon="11.196579872121555"><ele>22.0</ele><time>2026-04-19T07:27:35Z</time></trkpt><trkpt lat="45.28423567231046" lon="11.19690301365452"><ele>22.0</ele><time>2026-04-19T07:27:36Z</time></trkpt><trkpt lat="45.28414609943401" lon="11.197223637973291"><ele>22.0</ele><time>2026-04-19T07:27:37Z</time></trkpt><trkpt lat="45.28405765180124" lon="11.197542553968029"><ele>22.0</ele><time>2026-04-19T07:27:38Z</time></trkpt><trkpt lat="45.28396893466443" lon="11.197861267304114"><ele>22.0</ele><time>2026-04-19T07:27:39Z</time></trkpt><trkpt lat="45.28388048294612" lon="11.198186812556344"><ele>22.0</ele><time>2026-04-19T07:27:40Z</time></trkpt><trkpt lat="45.28379156478079" lon="11.19851803418776"><ele>22.0</ele><time>2026-04-19T07:27:41Z</time></trkpt><trkpt lat="45.28370323077276" lon="11.198849457094129"><ele>22.0</ele><time>2026-04-19T07:27:42Z</time></trkpt><trkpt lat="45.28361325317766" lon="11.199188134739966"><ele>22.0</ele><time>2026-04-19T07:27:43Z</time></trkpt><trkpt lat="45.28352248630834" lon="11.199528829365466"><ele>21.0</ele><time>2026-04-19T07:27:44Z</time></trkpt><trkpt lat="45.283429741831945" lon="11.199864305593309"><ele>20.0</ele><time>2026-04-19T07:27:45Z</time></trkpt><trkpt lat="45.283332483054515" lon="11.200197635926191"><ele>20.0</ele><time>2026-04-19T07:27:46Z</time></trkpt><trkpt lat="45.28322845403621" lon="11.200530639088077"><ele>20.0</ele><time>2026-04-19T07:27:47Z</time></trkpt><trkpt lat="45.28311799192651" lon="11.200860555049731"><ele>21.0</ele><time>2026-04-19T07:27:48Z</time></trkpt><trkpt lat="45.283006033325535" lon="11.201194580889997"><ele>22.0</ele><time>2026-04-19T07:27:49Z</time></trkpt><trkpt lat="45.2828882184157" lon="11.201527561247891"><ele>22.0</ele><time>2026-04-19T07:27:50Z</time></trkpt><trkpt lat="45.28276693404424" lon="11.201860864636485"><ele>22.0</ele><time>2026-04-19T07:27:51Z</time></trkpt><trkpt lat="45.282643494376096" lon="11.202187861435993"><ele>21.0</ele><time>2026-04-19T07:27:52Z</time></trkpt><trkpt lat="45.2825150562125" lon="11.20251167046672"><ele>20.0</ele><time>2026-04-19T07:27:53Z</time></trkpt><trkpt lat="45.28238161747771" lon="11.202828749642167"><ele>20.0</ele><time>2026-04-19T07:27:54Z</time></trkpt><trkpt lat="45.2822470139512" lon="11.203141287071594"><ele>20.0</ele><time>2026-04-19T07:27:55Z</time></trkpt><trkpt lat="45.28210940634281" lon="11.203451114283938"><ele>20.0</ele><time>2026-04-19T07:27:56Z</time></trkpt><trkpt lat="45.281968168422466" lon="11.20375750402981"><ele>20.0</ele><time>2026-04-19T07:27:57Z</time></trkpt><trkpt lat="45.281824111610014" lon="11.20406214532058"><ele>20.0</ele><time>2026-04-19T07:27:58Z</time></trkpt><trkpt lat="45.28167781036733" lon="11.2043601737616"><ele>20.0</ele><time>2026-04-19T07:27:59Z</time></trkpt><trkpt lat="45.28152796599987" lon="11.204652108934273"><ele>20.5</ele><time>2026-04-19T07:28:00Z</time></trkpt><trkpt lat="45.28137589396392" lon="11.204937827815618"><ele>21.0</ele><time>2026-04-19T07:28:01Z</time></trkpt><trkpt lat="45.28122329497624" lon="11.205218348219514"><ele>21.0</ele><time>2026-04-19T07:28:02Z</time></trkpt><trkpt lat="45.28106983685534" lon="11.205493444344905"><ele>21.0</ele><time>2026-04-19T07:28:03Z</time></trkpt><trkpt lat="45.280914001385554" lon="11.205764947396887"><ele>21.0</ele><time>2026-04-19T07:28:04Z</time></trkpt><trkpt lat="45.280751639658" lon="11.206035186157495"><ele>21.0</ele><time>2026-04-19T07:28:05Z</time></trkpt><trkpt lat="45.280585064672835" lon="11.206307428329483"><ele>19.5</ele><time>2026-04-19T07:28:06Z</time></trkpt><trkpt lat="45.2804164267643" lon="11.206578578430873"><ele>18.0</ele><time>2026-04-19T07:28:07Z</time></trkpt><trkpt lat="45.28024195104982" lon="11.206850959879146"><ele>18.0</ele><time>2026-04-19T07:28:08Z</time></trkpt><trkpt lat="45.28006710677331" lon="11.207126299175076"><ele>18.0</ele><time>2026-04-19T07:28:09Z</time></trkpt><trkpt lat="45.279891042624506" lon="11.207404264875255"><ele>18.5</ele><time>2026-04-19T07:28:10Z</time></trkpt><trkpt lat="45.279714535786674" lon="11.20768325148259"><ele>19.0</ele><time>2026-04-19T07:28:11Z</time></trkpt><trkpt lat="45.27953802204331" lon="11.207959670090641"><ele>18.5</ele><time>2026-04-19T07:28:12Z</time></trkpt><trkpt lat="45.27936215058615" lon="11.208237889832684"><ele>18.0</ele><time>2026-04-19T07:28:13Z</time></trkpt><trkpt lat="45.27918477402391" lon="11.208516849854682"><ele>18.0</ele><time>2026-04-19T07:28:14Z</time></trkpt><trkpt lat="45.27900824927119" lon="11.20879451051718"><ele>18.0</ele><time>2026-04-19T07:28:15Z</time></trkpt><trkpt lat="45.27883130128785" lon="11.209072811261816"><ele>19.0</ele><time>2026-04-19T07:28:16Z</time></trkpt><trkpt lat="45.27865510771033" lon="11.209349261494095"><ele>20.0</ele><time>2026-04-19T07:28:17Z</time></trkpt><trkpt lat="45.27848284543241" lon="11.209617739064615"><ele>19.5</ele><time>2026-04-19T07:28:18Z</time></trkpt><trkpt lat="45.278313918991486" lon="11.209881744713613"><ele>19.0</ele><time>2026-04-19T07:28:19Z</time></trkpt><trkpt lat="45.27814751498427" lon="11.210143615016198"><ele>19.0</ele><time>2026-04-19T07:28:20Z</time></trkpt><trkpt lat="45.27797838322312" lon="11.210407875088112"><ele>19.0</ele><time>2026-04-19T07:28:21Z</time></trkpt><trkpt lat="45.277809742415954" lon="11.21067103732084"><ele>18.5</ele><time>2026-04-19T07:28:22Z</time></trkpt><trkpt lat="45.27763905712714" lon="11.210940648701964"><ele>18.0</ele><time>2026-04-19T07:28:23Z</time></trkpt><trkpt lat="45.27747392881633" lon="11.211199037330783"><ele>18.0</ele><time>2026-04-19T07:28:24Z</time></trkpt><trkpt lat="45.277307069418605" lon="11.211454893242392"><ele>18.0</ele><time>2026-04-19T07:28:25Z</time></trkpt><trkpt lat="45.27713909448857" lon="11.211704442697918"><ele>18.0</ele><time>2026-04-19T07:28:26Z</time></trkpt><trkpt lat="45.276973352987675" lon="11.211962938493816"><ele>18.0</ele><time>2026-04-19T07:28:27Z</time></trkpt><trkpt lat="45.276809958650055" lon="11.21222567814712"><ele>17.5</ele><time>2026-04-19T07:28:28Z</time></trkpt><trkpt lat="45.276647357561394" lon="11.212489473885206"><ele>17.0</ele><time>2026-04-19T07:28:29Z</time></trkpt><trkpt lat="45.27648600766071" lon="11.212749040934803"><ele>17.5</ele><time>2026-04-19T07:28:30Z</time></trkpt><trkpt lat="45.27632434461203" lon="11.21300777511084"><ele>18.0</ele><time>2026-04-19T07:28:31Z</time></trkpt><trkpt lat="45.27616575278595" lon="11.213261849171701"><ele>18.0</ele><time>2026-04-19T07:28:32Z</time></trkpt><trkpt lat="45.276004375628396" lon="11.213513341810604"><ele>18.0</ele><time>2026-04-19T07:28:33Z</time></trkpt><trkpt lat="45.275839134728095" lon="11.213770905581242"><ele>18.0</ele><time>2026-04-19T07:28:34Z</time></trkpt><trkpt lat="45.27567129580151" lon="11.21403432666702"><ele>18.0</ele><time>2026-04-19T07:28:35Z</time></trkpt><trkpt lat="45.27550347751906" lon="11.214298081441516"><ele>18.5</ele><time>2026-04-19T07:28:36Z</time></trkpt><trkpt lat="45.275333996772325" lon="11.214564981177935"><ele>19.0</ele><time>2026-04-19T07:28:37Z</time></trkpt><trkpt lat="45.275161698732724" lon="11.214835919939192"><ele>19.5</ele><time>2026-04-19T07:28:38Z</time></trkpt><trkpt lat="45.27498941598183" lon="11.215103200996618"><ele>20.0</ele><time>2026-04-19T07:28:39Z</time></trkpt><trkpt lat="45.27481345829272" lon="11.215370998419111"><ele>19.0</ele><time>2026-04-19T07:28:40Z</time></trkpt><trkpt lat="45.27463490486618" lon="11.215647193233893"><ele>18.0</ele><time>2026-04-19T07:28:41Z</time></trkpt><trkpt lat="45.27445309084844" lon="11.215935335944238"><ele>18.0</ele><time>2026-04-19T07:28:42Z</time></trkpt><trkpt lat="45.27426587360957" lon="11.216238566477516"><ele>18.0</ele><time>2026-04-19T07:28:43Z</time></trkpt><trkpt lat="45.27407322760924" lon="11.216551547049677"><ele>18.0</ele><time>2026-04-19T07:28:44Z</time></trkpt><trkpt lat="45.27386775243783" lon="11.216880064865212"><ele>18.0</ele><time>2026-04-19T07:28:45Z</time></trkpt><trkpt lat="45.273653460675575" lon="11.217218517283923"><ele>17.5</ele><time>2026-04-19T07:28:46Z</time></trkpt><trkpt lat="45.27343126048005" lon="11.217568213018698"><ele>17.0</ele><time>2026-04-19T07:28:47Z</time></trkpt><trkpt lat="45.273192855161646" lon="11.217937927672015"><ele>16.5</ele><time>2026-04-19T07:28:48Z</time></trkpt><trkpt lat="45.272954798935324" lon="11.21830902622952"><ele>16.0</ele><time>2026-04-19T07:28:49Z</time></trkpt><trkpt lat="45.27273171135252" lon="11.218651552111515"><ele>16.0</ele><time>2026-04-19T07:28:50Z</time></trkpt><trkpt lat="45.272515364060965" lon="11.218982824514352"><ele>16.0</ele><time>2026-04-19T07:28:51Z</time></trkpt><trkpt lat="45.27229645947638" lon="11.21931445932321"><ele>16.0</ele><time>2026-04-19T07:28:52Z</time></trkpt><trkpt lat="45.272078101089654" lon="11.21964685407868"><ele>16.0</ele><time>2026-04-19T07:28:53Z</time></trkpt><trkpt lat="45.271861337828774" lon="11.219979760942216"><ele>16.0</ele><time>2026-04-19T07:28:54Z</time></trkpt><trkpt lat="45.27164286987322" lon="11.220314443844721"><ele>16.0</ele><time>2026-04-19T07:28:55Z</time></trkpt><trkpt lat="45.27142307250948" lon="11.220644333713468"><ele>17.0</ele><time>2026-04-19T07:28:56Z</time></trkpt><trkpt lat="45.27120062654482" lon="11.22096163258578"><ele>18.0</ele><time>2026-04-19T07:28:57Z</time></trkpt><trkpt lat="45.270976186875686" lon="11.221271904600169"><ele>18.0</ele><time>2026-04-19T07:28:58Z</time></trkpt><trkpt lat="45.27075095783374" lon="11.221566337044413"><ele>18.0</ele><time>2026-04-19T07:28:59Z</time></trkpt><trkpt lat="45.270528146237744" lon="11.221845571547735"><ele>17.5</ele><time>2026-04-19T07:29:00Z</time></trkpt><trkpt lat="45.27030612991814" lon="11.222113022778286"><ele>17.0</ele><time>2026-04-19T07:29:01Z</time></trkpt><trkpt lat="45.27008697377931" lon="11.222368414697028"><ele>17.0</ele><time>2026-04-19T07:29:02Z</time></trkpt><trkpt lat="45.26986452718827" lon="11.222615225971671"><ele>17.0</ele><time>2026-04-19T07:29:03Z</time></trkpt><trkpt lat="45.26963941365095" lon="11.222855233999761"><ele>17.0</ele><time>2026-04-19T07:29:04Z</time></trkpt><trkpt lat="45.26940939898932" lon="11.223087740147713"><ele>17.0</ele><time>2026-04-19T07:29:05Z</time></trkpt><trkpt lat="45.26917352526851" lon="11.223315569389658"><ele>17.0</ele><time>2026-04-19T07:29:06Z</time></trkpt><trkpt lat="45.268931737512005" lon="11.223540772533271"><ele>17.0</ele><time>2026-04-19T07:29:07Z</time></trkpt><trkpt lat="45.268685660331414" lon="11.223762104030842"><ele>17.0</ele><time>2026-04-19T07:29:08Z</time></trkpt><trkpt lat="45.268434100858265" lon="11.223977949217614"><ele>17.0</ele><time>2026-04-19T07:29:09Z</time></trkpt><trkpt lat="45.2681842623995" lon="11.224183409725272"><ele>17.0</ele><time>2026-04-19T07:29:10Z</time></trkpt><trkpt lat="45.26793088767317" lon="11.224383746088144"><ele>17.0</ele><time>2026-04-19T07:29:11Z</time></trkpt><trkpt lat="45.26767518461224" lon="11.224576125441791"><ele>17.0</ele><time>2026-04-19T07:29:12Z</time></trkpt><trkpt lat="45.26741547105146" lon="11.224762548444776"><ele>17.0</ele><time>2026-04-19T07:29:13Z</time></trkpt><trkpt lat="45.2671559637102" lon="11.224938724140532"><ele>16.5</ele><time>2026-04-19T07:29:14Z</time></trkpt><trkpt lat="45.266896204465674" lon="11.225103448753996"><ele>16.0</ele><time>2026-04-19T07:29:15Z</time></trkpt><trkpt lat="45.26663564952836" lon="11.225269554623585"><ele>16.0</ele><time>2026-04-19T07:29:16Z</time></trkpt><trkpt lat="45.26637650151167" lon="11.225436546868984"><ele>16.0</ele><time>2026-04-19T07:29:17Z</time></trkpt><trkpt lat="45.26612039743718" lon="11.225604591489105"><ele>15.5</ele><time>2026-04-19T07:29:18Z</time></trkpt><trkpt lat="45.2658619404582" lon="11.225768321839315"><ele>15.0</ele><time>2026-04-19T07:29:19Z</time></trkpt><trkpt lat="45.26559908520226" lon="11.225940264094753"><ele>14.5</ele><time>2026-04-19T07:29:20Z</time></trkpt><trkpt lat="45.26532834151956" lon="11.226114324163452"><ele>14.0</ele><time>2026-04-19T07:29:21Z</time></trkpt><trkpt lat="45.26505415471847" lon="11.226294852759183"><ele>14.0</ele><time>2026-04-19T07:29:22Z</time></trkpt><trkpt lat="45.26478853629427" lon="11.226465316245836"><ele>14.0</ele><time>2026-04-19T07:29:23Z</time></trkpt><trkpt lat="45.2645251952724" lon="11.226639079838804"><ele>14.5</ele><time>2026-04-19T07:29:24Z</time></trkpt><trkpt lat="45.26427077067773" lon="11.226801555166828"><ele>15.0</ele><time>2026-04-19T07:29:25Z</time></trkpt><trkpt lat="45.26402342544378" lon="11.226963475377385"><ele>16.0</ele><time>2026-04-19T07:29:26Z</time></trkpt><trkpt lat="45.26377584487943" lon="11.227125291831605"><ele>17.0</ele><time>2026-04-19T07:29:27Z</time></trkpt><trkpt lat="45.26352398467588" lon="11.227290182377471"><ele>17.0</ele><time>2026-04-19T07:29:28Z</time></trkpt><trkpt lat="45.26327411735522" lon="11.227453262016587"><ele>17.0</ele><time>2026-04-19T07:29:29Z</time></trkpt><trkpt lat="45.26302301875864" lon="11.227616400952927"><ele>16.5</ele><time>2026-04-19T07:29:30Z</time></trkpt><trkpt lat="45.26277233565734" lon="11.227781168451965"><ele>16.0</ele><time>2026-04-19T07:29:31Z</time></trkpt><trkpt lat="45.26251989125448" lon="11.227946590232515"><ele>17.0</ele><time>2026-04-19T07:29:32Z</time></trkpt><trkpt lat="45.262266769888164" lon="11.228111957695708"><ele>18.0</ele><time>2026-04-19T07:29:33Z</time></trkpt><trkpt lat="45.26201586679394" lon="11.228274478082872"><ele>18.0</ele><time>2026-04-19T07:29:34Z</time></trkpt><trkpt lat="45.261764235133604" lon="11.228438472358736"><ele>18.0</ele><time>2026-04-19T07:29:35Z</time></trkpt><trkpt lat="45.26150943816982" lon="11.228603634802825"><ele>16.5</ele><time>2026-04-19T07:29:36Z</time></trkpt><trkpt lat="45.26125634390543" lon="11.22876938088784"><ele>15.0</ele><time>2026-04-19T07:29:37Z</time></trkpt><trkpt lat="45.26100210508708" lon="11.22893482685061"><ele>15.0</ele><time>2026-04-19T07:29:38Z</time></trkpt><trkpt lat="45.26074637061362" lon="11.229099086696575"><ele>15.0</ele><time>2026-04-19T07:29:39Z</time></trkpt><trkpt lat="45.26049179941999" lon="11.229263851458171"><ele>15.0</ele><time>2026-04-19T07:29:40Z</time></trkpt><trkpt lat="45.26023498513329" lon="11.229431189408322"><ele>15.0</ele><time>2026-04-19T07:29:41Z</time></trkpt><trkpt lat="45.25997861667625" lon="11.22959775304481"><ele>14.5</ele><time>2026-04-19T07:29:42Z</time></trkpt><trkpt lat="45.259722178936855" lon="11.229765398636337"><ele>14.0</ele><time>2026-04-19T07:29:43Z</time></trkpt><trkpt lat="45.259466957437624" lon="11.229930966722522"><ele>13.5</ele><time>2026-04-19T07:29:44Z</time></trkpt><trkpt lat="45.259210152541385" lon="11.23009883575363"><ele>13.0</ele><time>2026-04-19T07:29:45Z</time></trkpt><trkpt lat="45.258957691792695" lon="11.230265447589282"><ele>13.0</ele><time>2026-04-19T07:29:46Z</time></trkpt><trkpt lat="45.25871702419535" lon="11.230429304047643"><ele>13.0</ele><time>2026-04-19T07:29:47Z</time></trkpt><trkpt lat="45.25847980018778" lon="11.230601292059006"><ele>13.0</ele><time>2026-04-19T07:29:48Z</time></trkpt><trkpt lat="45.25824276764208" lon="11.230782469158523"><ele>13.0</ele><time>2026-04-19T07:29:49Z</time></trkpt><trkpt lat="45.258005260517876" lon="11.230967781937926"><ele>14.0</ele><time>2026-04-19T07:29:50Z</time></trkpt><trkpt lat="45.25776869904117" lon="11.231155824331658"><ele>15.0</ele><time>2026-04-19T07:29:51Z</time></trkpt><trkpt lat="45.257534212372" lon="11.231350819519125"><ele>15.0</ele><time>2026-04-19T07:29:52Z</time></trkpt><trkpt lat="45.25729905724765" lon="11.231550553128663"><ele>15.0</ele><time>2026-04-19T07:29:53Z</time></trkpt><trkpt lat="45.257064072461326" lon="11.231757764991224"><ele>14.5</ele><time>2026-04-19T07:29:54Z</time></trkpt><trkpt lat="45.2568289477914" lon="11.231969273573466"><ele>14.0</ele><time>2026-04-19T07:29:55Z</time></trkpt><trkpt lat="45.25659727640131" lon="11.232178805682167"><ele>15.0</ele><time>2026-04-19T07:29:56Z</time></trkpt><trkpt lat="45.25636665744764" lon="11.232384213047471"><ele>16.0</ele><time>2026-04-19T07:29:57Z</time></trkpt><trkpt lat="45.25613604160979" lon="11.232590188803542"><ele>16.0</ele><time>2026-04-19T07:29:58Z</time></trkpt><trkpt lat="45.255908115790646" lon="11.232796251743482"><ele>16.0</ele><time>2026-04-19T07:29:59Z</time></trkpt><trkpt lat="45.25567856909398" lon="11.23300133256867"><ele>15.0</ele><time>2026-04-19T07:30:00Z</time></trkpt><trkpt lat="45.2554471806467" lon="11.233207484390173"><ele>14.0</ele><time>2026-04-19T07:30:01Z</time></trkpt><trkpt lat="45.25521214605371" lon="11.233414494287329"><ele>14.0</ele><time>2026-04-19T07:30:02Z</time></trkpt><trkpt lat="45.2549765631716" lon="11.233622011705643"><ele>14.0</ele><time>2026-04-19T07:30:03Z</time></trkpt><trkpt lat="45.254743905350956" lon="11.23383094100803"><ele>14.5</ele><time>2026-04-19T07:30:04Z</time></trkpt><trkpt lat="45.25451168714045" lon="11.234038016639884"><ele>15.0</ele><time>2026-04-19T07:30:05Z</time></trkpt><trkpt lat="45.25428008506736" lon="11.234244290906181"><ele>15.0</ele><time>2026-04-19T07:30:06Z</time></trkpt><trkpt lat="45.25404709865418" lon="11.234449970209203"><ele>15.0</ele><time>2026-04-19T07:30:07Z</time></trkpt><trkpt lat="45.25381366798492" lon="11.234654442739771"><ele>15.5</ele><time>2026-04-19T07:30:08Z</time></trkpt><trkpt lat="45.253580579129654" lon="11.234861088389499"><ele>16.0</ele><time>2026-04-19T07:30:09Z</time></trkpt><trkpt lat="45.25334877126129" lon="11.235066418690788"><ele>16.5</ele><time>2026-04-19T07:30:10Z</time></trkpt><trkpt lat="45.25312027783717" lon="11.235271074148672"><ele>17.0</ele><time>2026-04-19T07:30:11Z</time></trkpt><trkpt lat="45.25290132595876" lon="11.2354673805971"><ele>16.0</ele><time>2026-04-19T07:30:12Z</time></trkpt><trkpt lat="45.25267991434981" lon="11.235663375625048"><ele>15.0</ele><time>2026-04-19T07:30:13Z</time></trkpt><trkpt lat="45.2524567970414" lon="11.235860871368464"><ele>15.5</ele><time>2026-04-19T07:30:14Z</time></trkpt><trkpt lat="45.25223388840067" lon="11.236055699737403"><ele>16.0</ele><time>2026-04-19T07:30:15Z</time></trkpt><trkpt lat="45.2520062492772" lon="11.236250226929663"><ele>16.0</ele><time>2026-04-19T07:30:16Z</time></trkpt><trkpt lat="45.25177462997277" lon="11.236443505923164"><ele>16.0</ele><time>2026-04-19T07:30:17Z</time></trkpt><trkpt lat="45.251537352269615" lon="11.236631456523408"><ele>15.5</ele><time>2026-04-19T07:30:18Z</time></trkpt><trkpt lat="45.25129140518192" lon="11.236812895986608"><ele>15.0</ele><time>2026-04-19T07:30:19Z</time></trkpt><trkpt lat="45.25103629494584" lon="11.236985201095536"><ele>15.0</ele><time>2026-04-19T07:30:20Z</time></trkpt><trkpt lat="45.25077518528619" lon="11.237146278206506"><ele>15.0</ele><time>2026-04-19T07:30:21Z</time></trkpt><trkpt lat="45.25051167211665" lon="11.237298270328754"><ele>15.0</ele><time>2026-04-19T07:30:22Z</time></trkpt><trkpt lat="45.25024460745518" lon="11.237439749448441"><ele>15.0</ele><time>2026-04-19T07:30:23Z</time></trkpt><trkpt lat="45.24997784370413" lon="11.23757157658307"><ele>14.5</ele><time>2026-04-19T07:30:24Z</time></trkpt><trkpt lat="45.24970736925935" lon="11.237688629732054"><ele>14.0</ele><time>2026-04-19T07:30:25Z</time></trkpt><trkpt lat="45.249432390376654" lon="11.237793895580099"><ele>14.0</ele><time>2026-04-19T07:30:26Z</time></trkpt><trkpt lat="45.249154068843616" lon="11.237884088135884"><ele>14.0</ele><time>2026-04-19T07:30:27Z</time></trkpt><trkpt lat="45.24887446870246" lon="11.237962225750834"><ele>14.0</ele><time>2026-04-19T07:30:28Z</time></trkpt><trkpt lat="45.24859220581859" lon="11.238026989145075"><ele>14.0</ele><time>2026-04-19T07:30:29Z</time></trkpt><trkpt lat="45.24831316624566" lon="11.238084808428432"><ele>14.5</ele><time>2026-04-19T07:30:30Z</time></trkpt><trkpt lat="45.24804250166002" lon="11.23812898824214"><ele>15.0</ele><time>2026-04-19T07:30:31Z</time></trkpt><trkpt lat="45.24777783689911" lon="11.238159814229173"><ele>15.5</ele><time>2026-04-19T07:30:32Z</time></trkpt><trkpt lat="45.247525212309405" lon="11.238180654895768"><ele>16.0</ele><time>2026-04-19T07:30:33Z</time></trkpt><trkpt lat="45.24728077068307" lon="11.238189748841416"><ele>16.5</ele><time>2026-04-19T07:30:34Z</time></trkpt><trkpt lat="45.24703498348694" lon="11.23818717929124"><ele>17.0</ele><time>2026-04-19T07:30:35Z</time></trkpt><trkpt lat="45.246782627951944" lon="11.238173633160695"><ele>17.0</ele><time>2026-04-19T07:30:36Z</time></trkpt><trkpt lat="45.24652790819019" lon="11.238153081622846"><ele>17.0</ele><time>2026-04-19T07:30:37Z</time></trkpt><trkpt lat="45.24627206071119" lon="11.238131440294922"><ele>17.0</ele><time>2026-04-19T07:30:38Z</time></trkpt><trkpt lat="45.24601097990654" lon="11.238099815198748"><ele>17.0</ele><time>2026-04-19T07:30:39Z</time></trkpt><trkpt lat="45.24574519017232" lon="11.238060834103015"><ele>16.5</ele><time>2026-04-19T07:30:40Z</time></trkpt><trkpt lat="45.245478524211435" lon="11.238016378512997"><ele>16.0</ele><time>2026-04-19T07:30:41Z</time></trkpt><trkpt lat="45.24520659744388" lon="11.237965633359822"><ele>16.0</ele><time>2026-04-19T07:30:42Z</time></trkpt><trkpt lat="45.24493435991086" lon="11.237910028800059"><ele>16.0</ele><time>2026-04-19T07:30:43Z</time></trkpt><trkpt lat="45.24465535188451" lon="11.237847083879096"><ele>15.0</ele><time>2026-04-19T07:30:44Z</time></trkpt><trkpt lat="45.24437980127772" lon="11.237778244083422"><ele>14.0</ele><time>2026-04-19T07:30:45Z</time></trkpt><trkpt lat="45.244097948473446" lon="11.237709460295395"><ele>13.5</ele><time>2026-04-19T07:30:46Z</time></trkpt><trkpt lat="45.24381497795036" lon="11.237642575728605"><ele>13.0</ele><time>2026-04-19T07:30:47Z</time></trkpt><trkpt lat="45.24352963842187" lon="11.237576031003389"><ele>13.0</ele><time>2026-04-19T07:30:48Z</time></trkpt><trkpt lat="45.24324441598772" lon="11.237508904578766"><ele>13.0</ele><time>2026-04-19T07:30:49Z</time></trkpt><trkpt lat="45.242957428926964" lon="11.237439914285735"><ele>14.0</ele><time>2026-04-19T07:30:50Z</time></trkpt><trkpt lat="45.242674482604954" lon="11.23737273424737"><ele>15.0</ele><time>2026-04-19T07:30:51Z</time></trkpt><trkpt lat="45.24238916941902" lon="11.237306577921936"><ele>14.5</ele><time>2026-04-19T07:30:52Z</time></trkpt><trkpt lat="45.24210744824454" lon="11.237239459938044"><ele>14.0</ele><time>2026-04-19T07:30:53Z</time></trkpt><trkpt lat="45.24182844288016" lon="11.237172354965017"><ele>14.0</ele><time>2026-04-19T07:30:54Z</time></trkpt><trkpt lat="45.2415485693929" lon="11.23710698623725"><ele>14.0</ele><time>2026-04-19T07:30:55Z</time></trkpt><trkpt lat="45.24126608734962" lon="11.237041465185222"><ele>15.0</ele><time>2026-04-19T07:30:56Z</time></trkpt><trkpt lat="45.24098237677158" lon="11.236973900794622"><ele>16.0</ele><time>2026-04-19T07:30:57Z</time></trkpt><trkpt lat="45.24069811610371" lon="11.236906457323316"><ele>15.5</ele><time>2026-04-19T07:30:58Z</time></trkpt><trkpt lat="45.24041212697801" lon="11.236837548347847"><ele>15.0</ele><time>2026-04-19T07:30:59Z</time></trkpt><trkpt lat="45.24012660913272" lon="11.236769723691532"><ele>15.0</ele><time>2026-04-19T07:31:00Z</time></trkpt><trkpt lat="45.23984616988938" lon="11.236702166879146"><ele>15.0</ele><time>2026-04-19T07:31:01Z</time></trkpt><trkpt lat="45.239567453266744" lon="11.236635156535243"><ele>13.5</ele><time>2026-04-19T07:31:02Z</time></trkpt><trkpt lat="45.239291734522745" lon="11.236570383180668"><ele>12.0</ele><time>2026-04-19T07:31:03Z</time></trkpt><trkpt lat="45.23901752394165" lon="11.236505005838723"><ele>13.5</ele><time>2026-04-19T07:31:04Z</time></trkpt><trkpt lat="45.2387442297518" lon="11.236441035671339"><ele>15.0</ele><time>2026-04-19T07:31:05Z</time></trkpt><trkpt lat="45.238471401877234" lon="11.236377415818652"><ele>15.0</ele><time>2026-04-19T07:31:06Z</time></trkpt><trkpt lat="45.238205997750555" lon="11.23631682430391"><ele>15.0</ele><time>2026-04-19T07:31:07Z</time></trkpt><trkpt lat="45.23794608494615" lon="11.236260127577617"><ele>14.5</ele><time>2026-04-19T07:31:08Z</time></trkpt><trkpt lat="45.23768598904468" lon="11.236203551241267"><ele>14.0</ele><time>2026-04-19T07:31:09Z</time></trkpt><trkpt lat="45.23742771782849" lon="11.236148504003424"><ele>13.0</ele><time>2026-04-19T07:31:10Z</time></trkpt><trkpt lat="45.23716967785828" lon="11.236091644739595"><ele>12.0</ele><time>2026-04-19T07:31:11Z</time></trkpt><trkpt lat="45.236909535738896" lon="11.236033611816625"><ele>12.0</ele><time>2026-04-19T07:31:12Z</time></trkpt><trkpt lat="45.23664922829179" lon="11.235970822559763"><ele>12.0</ele><time>2026-04-19T07:31:13Z</time></trkpt><trkpt lat="45.23638969595828" lon="11.235906982487215"><ele>12.0</ele><time>2026-04-19T07:31:14Z</time></trkpt><trkpt lat="45.23612602015198" lon="11.23584306885842"><ele>12.0</ele><time>2026-04-19T07:31:15Z</time></trkpt><trkpt lat="45.23585930026084" lon="11.235780064733802"><ele>13.0</ele><time>2026-04-19T07:31:16Z</time></trkpt><trkpt lat="45.23558730095795" lon="11.235715837300157"><ele>14.0</ele><time>2026-04-19T07:31:17Z</time></trkpt><trkpt lat="45.235311531943815" lon="11.235648890781643"><ele>13.5</ele><time>2026-04-19T07:31:18Z</time></trkpt><trkpt lat="45.23503253004996" lon="11.235581310728895"><ele>13.0</ele><time>2026-04-19T07:31:19Z</time></trkpt><trkpt lat="45.234752489400066" lon="11.235512399737107"><ele>13.0</ele><time>2026-04-19T07:31:20Z</time></trkpt><trkpt lat="45.23447015367814" lon="11.235439147012409"><ele>13.0</ele><time>2026-04-19T07:31:21Z</time></trkpt><trkpt lat="45.234187067251526" lon="11.235360921217662"><ele>13.5</ele><time>2026-04-19T07:31:22Z</time></trkpt><trkpt lat="45.23390673168973" lon="11.235286581926916"><ele>14.0</ele><time>2026-04-19T07:31:23Z</time></trkpt><trkpt lat="45.23362512468104" lon="11.235222249888286"><ele>14.0</ele><time>2026-04-19T07:31:24Z</time></trkpt><trkpt lat="45.23334140595451" lon="11.235167424410221"><ele>14.0</ele><time>2026-04-19T07:31:25Z</time></trkpt><trkpt lat="45.23305399198694" lon="11.23512602911057"><ele>13.5</ele><time>2026-04-19T07:31:26Z</time></trkpt><trkpt lat="45.23276448561688" lon="11.235092141407861"><ele>13.0</ele><time>2026-04-19T07:31:27Z</time></trkpt><trkpt lat="45.23247835547627" lon="11.235069206266248"><ele>14.0</ele><time>2026-04-19T07:31:28Z</time></trkpt><trkpt lat="45.232197609715016" lon="11.235057142267884"><ele>15.0</ele><time>2026-04-19T07:31:29Z</time></trkpt><trkpt lat="45.23192519900126" lon="11.235051184358621"><ele>15.0</ele><time>2026-04-19T07:31:30Z</time></trkpt><trkpt lat="45.23165959117851" lon="11.235050737729015"><ele>15.0</ele><time>2026-04-19T07:31:31Z</time></trkpt><trkpt lat="45.231391128163764" lon="11.235058532892467"><ele>15.0</ele><time>2026-04-19T07:31:32Z</time></trkpt><trkpt lat="45.23112589742268" lon="11.235074158981353"><ele>15.0</ele><time>2026-04-19T07:31:33Z</time></trkpt><trkpt lat="45.23086731631397" lon="11.235095809593961"><ele>14.5</ele><time>2026-04-19T07:31:34Z</time></trkpt><trkpt lat="45.230610009887506" lon="11.235123634259974"><ele>14.0</ele><time>2026-04-19T07:31:35Z</time></trkpt><trkpt lat="45.2303536460776" lon="11.235154734417609"><ele>14.0</ele><time>2026-04-19T07:31:36Z</time></trkpt><trkpt lat="45.230095634075376" lon="11.235192695183873"><ele>14.0</ele><time>2026-04-19T07:31:37Z</time></trkpt><trkpt lat="45.22983519531535" lon="11.235240342593464"><ele>14.5</ele><time>2026-04-19T07:31:38Z</time></trkpt><trkpt lat="45.22957111962854" lon="11.23529389775746"><ele>15.0</ele><time>2026-04-19T07:31:39Z</time></trkpt><trkpt lat="45.229303301656486" lon="11.235356252859267"><ele>15.0</ele><time>2026-04-19T07:31:40Z</time></trkpt><trkpt lat="45.229036671372405" lon="11.235425843569665"><ele>15.0</ele><time>2026-04-19T07:31:41Z</time></trkpt><trkpt lat="45.22877282617812" lon="11.235503575247739"><ele>15.0</ele><time>2026-04-19T07:31:42Z</time></trkpt><trkpt lat="45.22851063345652" lon="11.235588489846252"><ele>15.0</ele><time>2026-04-19T07:31:43Z</time></trkpt><trkpt lat="45.228250389450395" lon="11.235681327510862"><ele>14.5</ele><time>2026-04-19T07:31:44Z</time></trkpt><trkpt lat="45.22799734579353" lon="11.235778519974646"><ele>14.0</ele><time>2026-04-19T07:31:45Z</time></trkpt><trkpt lat="45.22774521849832" lon="11.235881875492844"><ele>14.0</ele><time>2026-04-19T07:31:46Z</time></trkpt><trkpt lat="45.227494611590615" lon="11.2359913482704"><ele>14.0</ele><time>2026-04-19T07:31:47Z</time></trkpt><trkpt lat="45.22722972582325" lon="11.236097415011708"><ele>14.0</ele><time>2026-04-19T07:31:48Z</time></trkpt><trkpt lat="45.22697647865785" lon="11.236229854689013"><ele>14.0</ele><time>2026-04-19T07:31:49Z</time></trkpt><trkpt lat="45.226724356065226" lon="11.236366937269281"><ele>13.0</ele><time>2026-04-19T07:31:50Z</time></trkpt><trkpt lat="45.22647098497572" lon="11.236509286706063"><ele>12.0</ele><time>2026-04-19T07:31:51Z</time></trkpt><trkpt lat="45.226219246232084" lon="11.2366588946257"><ele>12.0</ele><time>2026-04-19T07:31:52Z</time></trkpt><trkpt lat="45.22596490422777" lon="11.23681350681673"><ele>12.0</ele><time>2026-04-19T07:31:53Z</time></trkpt><trkpt lat="45.225711084008545" lon="11.236981994534547"><ele>12.5</ele><time>2026-04-19T07:31:54Z</time></trkpt><trkpt lat="45.225460068339714" lon="11.237161070674658"><ele>13.0</ele><time>2026-04-19T07:31:55Z</time></trkpt><trkpt lat="45.22521003012651" lon="11.237348617787104"><ele>13.0</ele><time>2026-04-19T07:31:56Z</time></trkpt><trkpt lat="45.224967278116154" lon="11.23753468326992"><ele>13.0</ele><time>2026-04-19T07:31:57Z</time></trkpt><trkpt lat="45.22472865999011" lon="11.23772294610557"><ele>12.5</ele><time>2026-04-19T07:31:58Z</time></trkpt><trkpt lat="45.22449168520855" lon="11.237912997042695"><ele>12.0</ele><time>2026-04-19T07:31:59Z</time></trkpt><trkpt lat="45.224252110484336" lon="11.238098022201935"><ele>12.0</ele><time>2026-04-19T07:32:00Z</time></trkpt><trkpt lat="45.22401373580631" lon="11.238282391911477"><ele>12.0</ele><time>2026-04-19T07:32:01Z</time></trkpt><trkpt lat="45.22378147673186" lon="11.238455450437405"><ele>12.5</ele><time>2026-04-19T07:32:02Z</time></trkpt><trkpt lat="45.22355033566467" lon="11.238630560025914"><ele>13.0</ele><time>2026-04-19T07:32:03Z</time></trkpt><trkpt lat="45.22331959478378" lon="11.23880477797134"><ele>12.5</ele><time>2026-04-19T07:32:04Z</time></trkpt><trkpt lat="45.22308606549104" lon="11.238980499747088"><ele>12.0</ele><time>2026-04-19T07:32:05Z</time></trkpt><trkpt lat="45.22284966628423" lon="11.239162512595282"><ele>12.0</ele><time>2026-04-19T07:32:06Z</time></trkpt><trkpt lat="45.22261092374124" lon="11.239348188288238"><ele>12.0</ele><time>2026-04-19T07:32:07Z</time></trkpt><trkpt lat="45.22237283344242" lon="11.239535681853306"><ele>12.0</ele><time>2026-04-19T07:32:08Z</time></trkpt><trkpt lat="45.222126976806756" lon="11.239725677887945"><ele>12.0</ele><time>2026-04-19T07:32:09Z</time></trkpt><trkpt lat="45.22187985764892" lon="11.239911355495959"><ele>12.5</ele><time>2026-04-19T07:32:10Z</time></trkpt><trkpt lat="45.22162805616835" lon="11.240094471612204"><ele>13.0</ele><time>2026-04-19T07:32:11Z</time></trkpt><trkpt lat="45.2213775633226" lon="11.24026662449711"><ele>13.5</ele><time>2026-04-19T07:32:12Z</time></trkpt><trkpt lat="45.22112265020942" lon="11.240428444417807"><ele>14.0</ele><time>2026-04-19T07:32:13Z</time></trkpt><trkpt lat="45.22086540407909" lon="11.240583087278846"><ele>14.5</ele><time>2026-04-19T07:32:14Z</time></trkpt><trkpt lat="45.22061057336252" lon="11.240732459886987"><ele>15.0</ele><time>2026-04-19T07:32:15Z</time></trkpt><trkpt lat="45.22035519263061" lon="11.240868150128401"><ele>15.0</ele><time>2026-04-19T07:32:16Z</time></trkpt><trkpt lat="45.22009968561903" lon="11.240994043193593"><ele>15.0</ele><time>2026-04-19T07:32:17Z</time></trkpt><trkpt lat="45.219839832032996" lon="11.241121633482567"><ele>14.0</ele><time>2026-04-19T07:32:18Z</time></trkpt><trkpt lat="45.21957275963196" lon="11.241243018156204"><ele>13.0</ele><time>2026-04-19T07:32:19Z</time></trkpt><trkpt lat="45.21929863597314" lon="11.24135887695383"><ele>13.0</ele><time>2026-04-19T07:32:20Z</time></trkpt><trkpt lat="45.21901947518835" lon="11.241465116900475"><ele>13.0</ele><time>2026-04-19T07:32:21Z</time></trkpt><trkpt lat="45.218734825730685" lon="11.241565158916723"><ele>13.0</ele><time>2026-04-19T07:32:22Z</time></trkpt><trkpt lat="45.21844748906396" lon="11.241644830611476"><ele>13.0</ele><time>2026-04-19T07:32:23Z</time></trkpt><trkpt lat="45.21815826972882" lon="11.241718741618984"><ele>13.5</ele><time>2026-04-19T07:32:24Z</time></trkpt><trkpt lat="45.21787088065299" lon="11.241782358589665"><ele>14.0</ele><time>2026-04-19T07:32:25Z</time></trkpt><trkpt lat="45.217585351206836" lon="11.241849366386925"><ele>14.0</ele><time>2026-04-19T07:32:26Z</time></trkpt><trkpt lat="45.21729900353313" lon="11.241918170394777"><ele>14.0</ele><time>2026-04-19T07:32:27Z</time></trkpt><trkpt lat="45.21700810275217" lon="11.242003687028173"><ele>14.0</ele><time>2026-04-19T07:32:28Z</time></trkpt><trkpt lat="45.216720106433094" lon="11.24209159166832"><ele>14.0</ele><time>2026-04-19T07:32:29Z</time></trkpt><trkpt lat="45.216433793582894" lon="11.242172252269702"><ele>13.5</ele><time>2026-04-19T07:32:30Z</time></trkpt><trkpt lat="45.21615260775925" lon="11.242251168501769"><ele>13.0</ele><time>2026-04-19T07:32:31Z</time></trkpt><trkpt lat="45.21587138899698" lon="11.242327592182937"><ele>13.0</ele><time>2026-04-19T07:32:32Z</time></trkpt><trkpt lat="45.21559508885056" lon="11.24240114438559"><ele>13.0</ele><time>2026-04-19T07:32:33Z</time></trkpt><trkpt lat="45.215336067702154" lon="11.24247829698888"><ele>13.0</ele><time>2026-04-19T07:32:34Z</time></trkpt><trkpt lat="45.21508728873659" lon="11.242553030289878"><ele>13.0</ele><time>2026-04-19T07:32:35Z</time></trkpt><trkpt lat="45.214849025084376" lon="11.2426203069754"><ele>14.0</ele><time>2026-04-19T07:32:36Z</time></trkpt><trkpt lat="45.21460360697449" lon="11.242690405377374"><ele>15.0</ele><time>2026-04-19T07:32:37Z</time></trkpt><trkpt lat="45.21436503543419" lon="11.242758770667162"><ele>15.0</ele><time>2026-04-19T07:32:38Z</time></trkpt><trkpt lat="45.21413228905295" lon="11.242825550887217"><ele>15.0</ele><time>2026-04-19T07:32:39Z</time></trkpt><trkpt lat="45.21390365284022" lon="11.242890344001857"><ele>14.0</ele><time>2026-04-19T07:32:40Z</time></trkpt><trkpt lat="45.21367108430857" lon="11.242955547310885"><ele>13.0</ele><time>2026-04-19T07:32:41Z</time></trkpt><trkpt lat="45.21343521837457" lon="11.243021231725177"><ele>13.0</ele><time>2026-04-19T07:32:42Z</time></trkpt><trkpt lat="45.21319307691557" lon="11.243092741852745"><ele>13.0</ele><time>2026-04-19T07:32:43Z</time></trkpt><trkpt lat="45.21294442791336" lon="11.24317100926687"><ele>13.0</ele><time>2026-04-19T07:32:44Z</time></trkpt><trkpt lat="45.21269346577047" lon="11.243256128756162"><ele>13.0</ele><time>2026-04-19T07:32:45Z</time></trkpt><trkpt lat="45.2124386390102" lon="11.243347822965319"><ele>13.0</ele><time>2026-04-19T07:32:46Z</time></trkpt><trkpt lat="45.21218518769679" lon="11.243445721316387"><ele>13.0</ele><time>2026-04-19T07:32:47Z</time></trkpt><trkpt lat="45.211932887369414" lon="11.243547813260799"><ele>13.0</ele><time>2026-04-19T07:32:48Z</time></trkpt><trkpt lat="45.2116788051639" lon="11.243655434720468"><ele>13.0</ele><time>2026-04-19T07:32:49Z</time></trkpt><trkpt lat="45.211421865497506" lon="11.243771435291562"><ele>12.5</ele><time>2026-04-19T07:32:50Z</time></trkpt><trkpt lat="45.211163385928614" lon="11.243894668456175"><ele>12.0</ele><time>2026-04-19T07:32:51Z</time></trkpt><trkpt lat="45.21090494979845" lon="11.244021831254088"><ele>12.5</ele><time>2026-04-19T07:32:52Z</time></trkpt><trkpt lat="45.21064669950394" lon="11.244153907915212"><ele>13.0</ele><time>2026-04-19T07:32:53Z</time></trkpt><trkpt lat="45.21038864332272" lon="11.24429521052841"><ele>13.0</ele><time>2026-04-19T07:32:54Z</time></trkpt><trkpt lat="45.21013095157828" lon="11.244442997436174"><ele>13.0</ele><time>2026-04-19T07:32:55Z</time></trkpt><trkpt lat="45.20987207466042" lon="11.244596741789733"><ele>13.0</ele><time>2026-04-19T07:32:56Z</time></trkpt><trkpt lat="45.20961478193473" lon="11.24475860399507"><ele>13.0</ele><time>2026-04-19T07:32:57Z</time></trkpt><trkpt lat="45.2093558145716" lon="11.244923117544156"><ele>13.0</ele><time>2026-04-19T07:32:58Z</time></trkpt><trkpt lat="45.20909810025747" lon="11.245093391499596"><ele>13.0</ele><time>2026-04-19T07:32:59Z</time></trkpt><trkpt lat="45.20883797716731" lon="11.245272524441885"><ele>13.0</ele><time>2026-04-19T07:33:00Z</time></trkpt><trkpt lat="45.20858020277151" lon="11.245455046938586"><ele>13.0</ele><time>2026-04-19T07:33:01Z</time></trkpt><trkpt lat="45.20832792179964" lon="11.245641413705318"><ele>12.0</ele><time>2026-04-19T07:33:02Z</time></trkpt><trkpt lat="45.2080796024295" lon="11.245828888514552"><ele>11.0</ele><time>2026-04-19T07:33:03Z</time></trkpt><trkpt lat="45.207837357530735" lon="11.246023495897525"><ele>11.0</ele><time>2026-04-19T07:33:04Z</time></trkpt><trkpt lat="45.20760017087034" lon="11.246217792064728"><ele>11.0</ele><time>2026-04-19T07:33:05Z</time></trkpt><trkpt lat="45.20736454589814" lon="11.246417944998127"><ele>12.0</ele><time>2026-04-19T07:33:06Z</time></trkpt><trkpt lat="45.207118910218746" lon="11.246626606810592"><ele>13.0</ele><time>2026-04-19T07:33:07Z</time></trkpt><trkpt lat="45.20689686552811" lon="11.246829152001736"><ele>13.0</ele><time>2026-04-19T07:33:08Z</time></trkpt><trkpt lat="45.206666754074114" lon="11.247037197778011"><ele>13.0</ele><time>2026-04-19T07:33:09Z</time></trkpt><trkpt lat="45.20643801260745" lon="11.247240118379134"><ele>12.0</ele><time>2026-04-19T07:33:10Z</time></trkpt><trkpt lat="45.206208367447545" lon="11.247441548391773"><ele>11.0</ele><time>2026-04-19T07:33:11Z</time></trkpt><trkpt lat="45.20598426768219" lon="11.247644926112391"><ele>11.0</ele><time>2026-04-19T07:33:12Z</time></trkpt><trkpt lat="45.205756176937214" lon="11.247850290062361"><ele>11.0</ele><time>2026-04-19T07:33:13Z</time></trkpt><trkpt lat="45.205533859170366" lon="11.24806776238836"><ele>11.5</ele><time>2026-04-19T07:33:14Z</time></trkpt><trkpt lat="45.20531756959745" lon="11.24829125101746"><ele>12.0</ele><time>2026-04-19T07:33:15Z</time></trkpt><trkpt lat="45.20510390921428" lon="11.248527594453835"><ele>12.0</ele><time>2026-04-19T07:33:16Z</time></trkpt><trkpt lat="45.204898838271795" lon="11.248769457722297"><ele>12.0</ele><time>2026-04-19T07:33:17Z</time></trkpt><trkpt lat="45.20469830236001" lon="11.249020093543356"><ele>12.5</ele><time>2026-04-19T07:33:18Z</time></trkpt><trkpt lat="45.204497343677176" lon="11.249274185402122"><ele>13.0</ele><time>2026-04-19T07:33:19Z</time></trkpt><trkpt lat="45.20430258215505" lon="11.249539019155119"><ele>12.5</ele><time>2026-04-19T07:33:20Z</time></trkpt><trkpt lat="45.20411224753991" lon="11.249806347846663"><ele>12.0</ele><time>2026-04-19T07:33:21Z</time></trkpt><trkpt lat="45.203925891963465" lon="11.250087643364417"><ele>12.0</ele><time>2026-04-19T07:33:22Z</time></trkpt><trkpt lat="45.20374278304796" lon="11.250371927182393"><ele>12.0</ele><time>2026-04-19T07:33:23Z</time></trkpt><trkpt lat="45.203562587318366" lon="11.250667496199327"><ele>12.0</ele><time>2026-04-19T07:33:24Z</time></trkpt><trkpt lat="45.20338871948221" lon="11.250969790998337"><ele>12.0</ele><time>2026-04-19T07:33:25Z</time></trkpt><trkpt lat="45.20322244080804" lon="11.251277401005593"><ele>13.0</ele><time>2026-04-19T07:33:26Z</time></trkpt><trkpt lat="45.20305961185084" lon="11.251596427280836"><ele>14.0</ele><time>2026-04-19T07:33:27Z</time></trkpt><trkpt lat="45.202901627299006" lon="11.251921448152029"><ele>14.0</ele><time>2026-04-19T07:33:28Z</time></trkpt><trkpt lat="45.20275196905843" lon="11.252251212704156"><ele>14.0</ele><time>2026-04-19T07:33:29Z</time></trkpt><trkpt lat="45.202603947904045" lon="11.252590050300064"><ele>13.5</ele><time>2026-04-19T07:33:30Z</time></trkpt><trkpt lat="45.20246439569361" lon="11.252928113681053"><ele>13.0</ele><time>2026-04-19T07:33:31Z</time></trkpt><trkpt lat="45.20233046803918" lon="11.25327105383173"><ele>13.0</ele><time>2026-04-19T07:33:32Z</time></trkpt><trkpt lat="45.20220460170063" lon="11.253616117614829"><ele>13.0</ele><time>2026-04-19T07:33:33Z</time></trkpt><trkpt lat="45.20209037345952" lon="11.253960863916337"><ele>13.0</ele><time>2026-04-19T07:33:34Z</time></trkpt><trkpt lat="45.20197994044303" lon="11.254310383112125"><ele>13.0</ele><time>2026-04-19T07:33:35Z</time></trkpt><trkpt lat="45.201877778136506" lon="11.254657191716566"><ele>12.5</ele><time>2026-04-19T07:33:36Z</time></trkpt><trkpt lat="45.20178296931338" lon="11.254993840176832"><ele>12.0</ele><time>2026-04-19T07:33:37Z</time></trkpt><trkpt lat="45.20169624765248" lon="11.2553313902346"><ele>12.5</ele><time>2026-04-19T07:33:38Z</time></trkpt><trkpt lat="45.20161096853735" lon="11.255668726628805"><ele>13.0</ele><time>2026-04-19T07:33:39Z</time></trkpt><trkpt lat="45.20153044606384" lon="11.256004591224837"><ele>13.0</ele><time>2026-04-19T07:33:40Z</time></trkpt><trkpt lat="45.20144612211618" lon="11.25633923429514"><ele>13.0</ele><time>2026-04-19T07:33:41Z</time></trkpt><trkpt lat="45.20135688749078" lon="11.256684066627166"><ele>13.0</ele><time>2026-04-19T07:33:42Z</time></trkpt><trkpt lat="45.201268874550124" lon="11.257031297151187"><ele>13.0</ele><time>2026-04-19T07:33:43Z</time></trkpt><trkpt lat="45.201179340539994" lon="11.257379793979565"><ele>13.0</ele><time>2026-04-19T07:33:44Z</time></trkpt><trkpt lat="45.20109101018614" lon="11.257727941507119"><ele>13.0</ele><time>2026-04-19T07:33:45Z</time></trkpt><trkpt lat="45.201002508983805" lon="11.258083440770006"><ele>12.5</ele><time>2026-04-19T07:33:46Z</time></trkpt><trkpt lat="45.2009139629664" lon="11.25843545460504"><ele>12.0</ele><time>2026-04-19T07:33:47Z</time></trkpt><trkpt lat="45.20082153370783" lon="11.258791162759195"><ele>12.0</ele><time>2026-04-19T07:33:48Z</time></trkpt><trkpt lat="45.20072295342062" lon="11.259147981001188"><ele>12.0</ele><time>2026-04-19T07:33:49Z</time></trkpt><trkpt lat="45.20061660757007" lon="11.259501360524073"><ele>13.0</ele><time>2026-04-19T07:33:50Z</time></trkpt><trkpt lat="45.20049569541828" lon="11.259848784935114"><ele>14.0</ele><time>2026-04-19T07:33:51Z</time></trkpt><trkpt lat="45.20036234922245" lon="11.260190923736985"><ele>14.0</ele><time>2026-04-19T07:33:52Z</time></trkpt><trkpt lat="45.20021731998753" lon="11.260534620403762"><ele>14.0</ele><time>2026-04-19T07:33:53Z</time></trkpt><trkpt lat="45.20006138404699" lon="11.26087934432122"><ele>14.5</ele><time>2026-04-19T07:33:54Z</time></trkpt><trkpt lat="45.199901640859295" lon="11.261203426805581"><ele>15.0</ele><time>2026-04-19T07:33:55Z</time></trkpt><trkpt lat="45.19973263609596" lon="11.26151070210834"><ele>15.0</ele><time>2026-04-19T07:33:56Z</time></trkpt><trkpt lat="45.19955323428442" lon="11.261803141825757"><ele>15.0</ele><time>2026-04-19T07:33:57Z</time></trkpt><trkpt lat="45.19936274895208" lon="11.262092007942389"><ele>15.5</ele><time>2026-04-19T07:33:58Z</time></trkpt><trkpt lat="45.1991646041311" lon="11.26238033300482"><ele>16.0</ele><time>2026-04-19T07:33:59Z</time></trkpt><trkpt lat="45.19895916165585" lon="11.262653647984072"><ele>16.0</ele><time>2026-04-19T07:34:00Z</time></trkpt><trkpt lat="45.19874645361732" lon="11.262912300289477"><ele>16.0</ele><time>2026-04-19T07:34:01Z</time></trkpt><trkpt lat="45.198517346617336" lon="11.263166707710807"><ele>16.0</ele><time>2026-04-19T07:34:02Z</time></trkpt><trkpt lat="45.19828163511267" lon="11.26340765502653"><ele>16.0</ele><time>2026-04-19T07:34:03Z</time></trkpt><trkpt lat="45.198043598794484" lon="11.263634753538797"><ele>16.0</ele><time>2026-04-19T07:34:04Z</time></trkpt><trkpt lat="45.1978043823988" lon="11.263848788850686"><ele>16.0</ele><time>2026-04-19T07:34:05Z</time></trkpt><trkpt lat="45.19756634826982" lon="11.264056852232585"><ele>14.5</ele><time>2026-04-19T07:34:06Z</time></trkpt><trkpt lat="45.19732616991306" lon="11.264264185854488"><ele>13.0</ele><time>2026-04-19T07:34:07Z</time></trkpt><trkpt lat="45.19708471605415" lon="11.264473094257204"><ele>13.0</ele><time>2026-04-19T07:34:08Z</time></trkpt><trkpt lat="45.19683706278471" lon="11.264689921042043"><ele>13.0</ele><time>2026-04-19T07:34:09Z</time></trkpt><trkpt lat="45.196588472188076" lon="11.264906676589431"><ele>13.0</ele><time>2026-04-19T07:34:10Z</time></trkpt><trkpt lat="45.196342989468604" lon="11.265120909631108"><ele>13.0</ele><time>2026-04-19T07:34:11.001Z</time></trkpt><trkpt lat="45.19609581598868" lon="11.265334674841192"><ele>13.0</ele><time>2026-04-19T07:34:12.001Z</time></trkpt><trkpt lat="45.19584478501242" lon="11.265548523029597"><ele>13.0</ele><time>2026-04-19T07:34:13.001Z</time></trkpt><trkpt lat="45.19558560310982" lon="11.265768341441012"><ele>14.0</ele><time>2026-04-19T07:34:14.001Z</time></trkpt><trkpt lat="45.195323573049485" lon="11.265990696042762"><ele>15.0</ele><time>2026-04-19T07:34:15.001Z</time></trkpt><trkpt lat="45.19506468093772" lon="11.266202756522784"><ele>14.0</ele><time>2026-04-19T07:34:16.001Z</time></trkpt><trkpt lat="45.19479910195958" lon="11.266403768768305"><ele>13.0</ele><time>2026-04-19T07:34:17.001Z</time></trkpt><trkpt lat="45.19452693601782" lon="11.266585172897772"><ele>13.0</ele><time>2026-04-19T07:34:18.001Z</time></trkpt><trkpt lat="45.19424661732071" lon="11.266746770079115"><ele>13.0</ele><time>2026-04-19T07:34:19.001Z</time></trkpt><trkpt lat="45.193967148305546" lon="11.26688664766041"><ele>13.0</ele><time>2026-04-19T07:34:20.001Z</time></trkpt><trkpt lat="45.19368706166392" lon="11.267007747192148"><ele>13.0</ele><time>2026-04-19T07:34:21.001Z</time></trkpt><trkpt lat="45.193403101503876" lon="11.267110361532044"><ele>13.0</ele><time>2026-04-19T07:34:22.001Z</time></trkpt><trkpt lat="45.19311886045581" lon="11.267199316978784"><ele>13.0</ele><time>2026-04-19T07:34:23.001Z</time></trkpt><trkpt lat="45.19283261932765" lon="11.267273568768413"><ele>13.5</ele><time>2026-04-19T07:34:24.001Z</time></trkpt><trkpt lat="45.19254394666724" lon="11.267336660907576"><ele>14.0</ele><time>2026-04-19T07:34:25.001Z</time></trkpt><trkpt lat="45.19225276662124" lon="11.267392335934867"><ele>15.0</ele><time>2026-04-19T07:34:26.001Z</time></trkpt><trkpt lat="45.19196486007273" lon="11.267445787593998"><ele>16.0</ele><time>2026-04-19T07:34:27.001Z</time></trkpt><trkpt lat="45.191678486303964" lon="11.267499791738933"><ele>15.5</ele><time>2026-04-19T07:34:28.001Z</time></trkpt><trkpt lat="45.19138963077788" lon="11.267552815824715"><ele>15.0</ele><time>2026-04-19T07:34:29.001Z</time></trkpt><trkpt lat="45.191089149618556" lon="11.267605982423479"><ele>15.0</ele><time>2026-04-19T07:34:30.001Z</time></trkpt><trkpt lat="45.1907883379992" lon="11.267657563445773"><ele>15.0</ele><time>2026-04-19T07:34:31.001Z</time></trkpt><trkpt lat="45.19049251102689" lon="11.267706479250942"><ele>13.5</ele><time>2026-04-19T07:34:32.001Z</time></trkpt><trkpt lat="45.190209848114165" lon="11.267754074044312"><ele>12.0</ele><time>2026-04-19T07:34:33.001Z</time></trkpt><trkpt lat="45.1899370416328" lon="11.267798415770596"><ele>12.5</ele><time>2026-04-19T07:34:34.001Z</time></trkpt><trkpt lat="45.18966076487575" lon="11.267842474624155"><ele>13.0</ele><time>2026-04-19T07:34:35.001Z</time></trkpt><trkpt lat="45.18938013487786" lon="11.267890632296833"><ele>13.0</ele><time>2026-04-19T07:34:36.001Z</time></trkpt><trkpt lat="45.189101919667536" lon="11.267934606156423"><ele>13.0</ele><time>2026-04-19T07:34:37.001Z</time></trkpt><trkpt lat="45.18883466539649" lon="11.267974338388388"><ele>14.5</ele><time>2026-04-19T07:34:38.001Z</time></trkpt><trkpt lat="45.18856170779716" lon="11.268014462722206"><ele>16.0</ele><time>2026-04-19T07:34:39.001Z</time></trkpt><trkpt lat="45.18828576435375" lon="11.268051589034163"><ele>15.5</ele><time>2026-04-19T07:34:40.001Z</time></trkpt><trkpt lat="45.18801257182988" lon="11.268086731453916"><ele>15.0</ele><time>2026-04-19T07:34:41.001Z</time></trkpt><trkpt lat="45.18774693007206" lon="11.268122061180872"><ele>15.0</ele><time>2026-04-19T07:34:42.001Z</time></trkpt><trkpt lat="45.18748534859341" lon="11.268159133404794"><ele>15.0</ele><time>2026-04-19T07:34:43.001Z</time></trkpt><trkpt lat="45.18722310437076" lon="11.26819878840582"><ele>16.5</ele><time>2026-04-19T07:34:44.001Z</time></trkpt><trkpt lat="45.186962337214894" lon="11.268244352532928"><ele>18.0</ele><time>2026-04-19T07:34:45.001Z</time></trkpt><trkpt lat="45.1867012314374" lon="11.268296117407463"><ele>17.0</ele><time>2026-04-19T07:34:46.001Z</time></trkpt><trkpt lat="45.18643656663755" lon="11.268357405022615"><ele>16.0</ele><time>2026-04-19T07:34:47.001Z</time></trkpt><trkpt lat="45.18617149938637" lon="11.268432110570615"><ele>16.0</ele><time>2026-04-19T07:34:48.001Z</time></trkpt><trkpt lat="45.18590417743301" lon="11.26851561402886"><ele>16.0</ele><time>2026-04-19T07:34:49.001Z</time></trkpt><trkpt lat="45.18564423651338" lon="11.268614391735872"><ele>15.5</ele><time>2026-04-19T07:34:50.001Z</time></trkpt><trkpt lat="45.18538929988931" lon="11.26872401212514"><ele>15.0</ele><time>2026-04-19T07:34:51.001Z</time></trkpt><trkpt lat="45.18513286509586" lon="11.268846145164478"><ele>14.5</ele><time>2026-04-19T07:34:52.001Z</time></trkpt><trkpt lat="45.184866886897275" lon="11.268989230623049"><ele>14.0</ele><time>2026-04-19T07:34:53.001Z</time></trkpt><trkpt lat="45.18459080336631" lon="11.269169889228145"><ele>14.0</ele><time>2026-04-19T07:34:54.001Z</time></trkpt><trkpt lat="45.18432762209327" lon="11.269351400888718"><ele>14.0</ele><time>2026-04-19T07:34:55.001Z</time></trkpt><trkpt lat="45.18406652947138" lon="11.269529133604811"><ele>14.0</ele><time>2026-04-19T07:34:56.001Z</time></trkpt><trkpt lat="45.183812228747755" lon="11.269710549735716"><ele>14.0</ele><time>2026-04-19T07:34:57.001Z</time></trkpt><trkpt lat="45.18356918978085" lon="11.269896995034587"><ele>14.5</ele><time>2026-04-19T07:34:58.001Z</time></trkpt><trkpt lat="45.18333254234728" lon="11.270090409999321"><ele>15.0</ele><time>2026-04-19T07:34:59.001Z</time></trkpt><trkpt lat="45.183102081308" lon="11.270293212119112"><ele>14.5</ele><time>2026-04-19T07:35:00.001Z</time></trkpt><trkpt lat="45.18288585548958" lon="11.270502453689318"><ele>14.0</ele><time>2026-04-19T07:35:01.001Z</time></trkpt><trkpt lat="45.18268083740272" lon="11.270723891668968"><ele>14.0</ele><time>2026-04-19T07:35:02.001Z</time></trkpt><trkpt lat="45.18248180764392" lon="11.270966589170246"><ele>14.0</ele><time>2026-04-19T07:35:03.001Z</time></trkpt><trkpt lat="45.182283672834444" lon="11.271226154315206"><ele>13.5</ele><time>2026-04-19T07:35:04.001Z</time></trkpt><trkpt lat="45.18208665037994" lon="11.271498888297097"><ele>13.0</ele><time>2026-04-19T07:35:05.001Z</time></trkpt><trkpt lat="45.18189527001508" lon="11.271789451956467"><ele>13.0</ele><time>2026-04-19T07:35:06.001Z</time></trkpt><trkpt lat="45.181713656436656" lon="11.272108252168312"><ele>13.0</ele><time>2026-04-19T07:35:07.001Z</time></trkpt><trkpt lat="45.18153828060929" lon="11.272451992712211"><ele>13.0</ele><time>2026-04-19T07:35:08.001Z</time></trkpt><trkpt lat="45.181365848442034" lon="11.272806768083951"><ele>13.0</ele><time>2026-04-19T07:35:09.001Z</time></trkpt><trkpt lat="45.18120612603695" lon="11.273156410515385"><ele>12.0</ele><time>2026-04-19T07:35:10.001Z</time></trkpt><trkpt lat="45.18105999884257" lon="11.27349744369122"><ele>11.0</ele><time>2026-04-19T07:35:11.001Z</time></trkpt><trkpt lat="45.18092188077606" lon="11.273840103809151"><ele>11.0</ele><time>2026-04-19T07:35:12.001Z</time></trkpt><trkpt lat="45.18079261133348" lon="11.274174744242757"><ele>11.0</ele><time>2026-04-19T07:35:13.001Z</time></trkpt><trkpt lat="45.18067050508865" lon="11.27448370383204"><ele>11.5</ele><time>2026-04-19T07:35:14.001Z</time></trkpt><trkpt lat="45.18055542284313" lon="11.274775717552135"><ele>12.0</ele><time>2026-04-19T07:35:15.001Z</time></trkpt><trkpt lat="45.1804427276306" lon="11.275053961791121"><ele>12.0</ele><time>2026-04-19T07:35:16.001Z</time></trkpt><trkpt lat="45.18032781778569" lon="11.275334352538843"><ele>12.0</ele><time>2026-04-19T07:35:17.001Z</time></trkpt><trkpt lat="45.18020930209035" lon="11.275626859941845"><ele>12.0</ele><time>2026-04-19T07:35:18.001Z</time></trkpt><trkpt lat="45.18008967019212" lon="11.275925926191679"><ele>12.0</ele><time>2026-04-19T07:35:19.001Z</time></trkpt><trkpt lat="45.17996941477122" lon="11.276230521129616"><ele>13.0</ele><time>2026-04-19T07:35:20.001Z</time></trkpt><trkpt lat="45.17984594712864" lon="11.27654300932324"><ele>14.0</ele><time>2026-04-19T07:35:21.001Z</time></trkpt><trkpt lat="45.179721545651475" lon="11.276854075078784"><ele>14.0</ele><time>2026-04-19T07:35:22.001Z</time></trkpt><trkpt lat="45.17959617416066" lon="11.277162881804738"><ele>14.0</ele><time>2026-04-19T07:35:23.001Z</time></trkpt><trkpt lat="45.179466360060026" lon="11.277478743805617"><ele>13.5</ele><time>2026-04-19T07:35:24.001Z</time></trkpt><trkpt lat="45.17933511589293" lon="11.277801225712636"><ele>13.0</ele><time>2026-04-19T07:35:25.001Z</time></trkpt><trkpt lat="45.17920162369821" lon="11.278127077816169"><ele>13.0</ele><time>2026-04-19T07:35:26.001Z</time></trkpt><trkpt lat="45.1790708958019" lon="11.278450916371703"><ele>13.0</ele><time>2026-04-19T07:35:27.001Z</time></trkpt><trkpt lat="45.17894284905627" lon="11.27876966038362"><ele>13.0</ele><time>2026-04-19T07:35:28.001Z</time></trkpt><trkpt lat="45.17882551552942" lon="11.279076066655078"><ele>13.0</ele><time>2026-04-19T07:35:29.001Z</time></trkpt><trkpt lat="45.178711977455045" lon="11.27937885653736"><ele>13.0</ele><time>2026-04-19T07:35:30.001Z</time></trkpt><trkpt lat="45.17859990282012" lon="11.279682300707604"><ele>13.0</ele><time>2026-04-19T07:35:31.001Z</time></trkpt><trkpt lat="45.178492018412506" lon="11.279980241565358"><ele>13.5</ele><time>2026-04-19T07:35:32.001Z</time></trkpt><trkpt lat="45.178349010011374" lon="11.280300691953709"><ele>14.0</ele><time>2026-04-19T07:35:33.001Z</time></trkpt><trkpt lat="45.178221667950055" lon="11.280590715722004"><ele>14.0</ele><time>2026-04-19T07:35:34.001Z</time></trkpt><trkpt lat="45.17808577191928" lon="11.280881340855949"><ele>14.0</ele><time>2026-04-19T07:35:35.001Z</time></trkpt><trkpt lat="45.177864811525474" lon="11.281325877693705"><ele>13.0</ele><time>2026-04-19T07:35:36.001Z</time></trkpt><trkpt lat="45.17768798723894" lon="11.281661485722346"><ele>12.0</ele><time>2026-04-19T07:35:37.001Z</time></trkpt><trkpt lat="45.17749978127844" lon="11.282005644385157"><ele>12.0</ele><time>2026-04-19T07:35:38Z</time></trkpt><trkpt lat="45.17730552821413" lon="11.28234925690925"><ele>12.0</ele><time>2026-04-19T07:35:39Z</time></trkpt><trkpt lat="45.177110219282454" lon="11.28268551314072"><ele>12.0</ele><time>2026-04-19T07:35:40Z</time></trkpt><trkpt lat="45.17691560434772" lon="11.283016883327596"><ele>12.0</ele><time>2026-04-19T07:35:41Z</time></trkpt><trkpt lat="45.17672021667139" lon="11.283347829116504"><ele>12.0</ele><time>2026-04-19T07:35:42Z</time></trkpt><trkpt lat="45.17652929755949" lon="11.28367805739277"><ele>12.0</ele><time>2026-04-19T07:35:43Z</time></trkpt><trkpt lat="45.17633737081172" lon="11.284006491930848"><ele>12.0</ele><time>2026-04-19T07:35:44Z</time></trkpt><trkpt lat="45.17615819535573" lon="11.28431913419483"><ele>12.0</ele><time>2026-04-19T07:35:45Z</time></trkpt><trkpt lat="45.17597685026215" lon="11.284625607235272"><ele>12.0</ele><time>2026-04-19T07:35:46Z</time></trkpt><trkpt lat="45.1757933561156" lon="11.284932571406976"><ele>12.0</ele><time>2026-04-19T07:35:47Z</time></trkpt><trkpt lat="45.17560707342143" lon="11.285242668497752"><ele>12.0</ele><time>2026-04-19T07:35:48Z</time></trkpt><trkpt lat="45.17542361532678" lon="11.285556279117412"><ele>12.0</ele><time>2026-04-19T07:35:49Z</time></trkpt><trkpt lat="45.175241130539455" lon="11.285866131031277"><ele>12.5</ele><time>2026-04-19T07:35:50Z</time></trkpt><trkpt lat="45.175065865259526" lon="11.286161076660168"><ele>13.0</ele><time>2026-04-19T07:35:51Z</time></trkpt><trkpt lat="45.17490665978173" lon="11.286432433238431"><ele>12.0</ele><time>2026-04-19T07:35:52Z</time></trkpt><trkpt lat="45.17475192859222" lon="11.286690686745741"><ele>11.0</ele><time>2026-04-19T07:35:53Z</time></trkpt><trkpt lat="45.17459685190099" lon="11.286951482533786"><ele>11.0</ele><time>2026-04-19T07:35:54Z</time></trkpt><trkpt lat="45.1744387391034" lon="11.28721477763406"><ele>11.0</ele><time>2026-04-19T07:35:55Z</time></trkpt><trkpt lat="45.17427640020172" lon="11.287480681133495"><ele>10.5</ele><time>2026-04-19T07:35:56Z</time></trkpt><trkpt lat="45.174108854174214" lon="11.28774807231301"><ele>10.0</ele><time>2026-04-19T07:35:57Z</time></trkpt><trkpt lat="45.17393908369338" lon="11.288021435301417"><ele>10.0</ele><time>2026-04-19T07:35:58Z</time></trkpt><trkpt lat="45.173771685845296" lon="11.28830933245568"><ele>10.0</ele><time>2026-04-19T07:35:59Z</time></trkpt><trkpt lat="45.1735964730421" lon="11.288597537040646"><ele>10.0</ele><time>2026-04-19T07:36:00Z</time></trkpt><trkpt lat="45.173413234370074" lon="11.288888223441612"><ele>10.0</ele><time>2026-04-19T07:36:01Z</time></trkpt><trkpt lat="45.17322762803414" lon="11.28917732427279"><ele>9.5</ele><time>2026-04-19T07:36:02Z</time></trkpt><trkpt lat="45.17303819373762" lon="11.289460450196554"><ele>9.0</ele><time>2026-04-19T07:36:03Z</time></trkpt><trkpt lat="45.17285300534998" lon="11.289741216159014"><ele>9.5</ele><time>2026-04-19T07:36:04Z</time></trkpt><trkpt lat="45.17266970445097" lon="11.290023154618982"><ele>10.0</ele><time>2026-04-19T07:36:05Z</time></trkpt><trkpt lat="45.172484037981405" lon="11.290299336208118"><ele>10.0</ele><time>2026-04-19T07:36:06Z</time></trkpt><trkpt lat="45.172306697024524" lon="11.290574353300462"><ele>10.0</ele><time>2026-04-19T07:36:07Z</time></trkpt><trkpt lat="45.17212730588519" lon="11.290843712352116"><ele>10.0</ele><time>2026-04-19T07:36:08Z</time></trkpt><trkpt lat="45.17195224765559" lon="11.291110695276133"><ele>10.0</ele><time>2026-04-19T07:36:09Z</time></trkpt><trkpt lat="45.171774518313896" lon="11.291379413543268"><ele>10.0</ele><time>2026-04-19T07:36:10Z</time></trkpt><trkpt lat="45.171596456007904" lon="11.291650151102628"><ele>10.0</ele><time>2026-04-19T07:36:11Z</time></trkpt><trkpt lat="45.171415566588465" lon="11.291924236904338"><ele>10.0</ele><time>2026-04-19T07:36:12Z</time></trkpt><trkpt lat="45.17123194497016" lon="11.292202227134275"><ele>10.0</ele><time>2026-04-19T07:36:13Z</time></trkpt><trkpt lat="45.17105239300254" lon="11.292474442047125"><ele>10.0</ele><time>2026-04-19T07:36:14Z</time></trkpt><trkpt lat="45.170875390981536" lon="11.292743449950066"><ele>10.0</ele><time>2026-04-19T07:36:15Z</time></trkpt><trkpt lat="45.170695997829384" lon="11.293014775115404"><ele>10.0</ele><time>2026-04-19T07:36:16Z</time></trkpt><trkpt lat="45.170519452112124" lon="11.293284946524262"><ele>10.0</ele><time>2026-04-19T07:36:17Z</time></trkpt><trkpt lat="45.170343308319474" lon="11.29355501636561"><ele>10.0</ele><time>2026-04-19T07:36:18Z</time></trkpt><trkpt lat="45.17016885921958" lon="11.293821649150319"><ele>10.0</ele><time>2026-04-19T07:36:19Z</time></trkpt><trkpt lat="45.16999101814182" lon="11.294092763704766"><ele>10.0</ele><time>2026-04-19T07:36:20Z</time></trkpt><trkpt lat="45.16981370877374" lon="11.294366208952903"><ele>10.0</ele><time>2026-04-19T07:36:21Z</time></trkpt><trkpt lat="45.169630752426066" lon="11.294637864094332"><ele>11.5</ele><time>2026-04-19T07:36:22Z</time></trkpt><trkpt lat="45.16944705283279" lon="11.294915060823108"><ele>13.0</ele><time>2026-04-19T07:36:23Z</time></trkpt><trkpt lat="45.169256678469836" lon="11.29520291960128"><ele>13.0</ele><time>2026-04-19T07:36:24Z</time></trkpt><trkpt lat="45.169068582596694" lon="11.295489527881577"><ele>13.0</ele><time>2026-04-19T07:36:25Z</time></trkpt><trkpt lat="45.16887627816214" lon="11.29578360996256"><ele>11.0</ele><time>2026-04-19T07:36:26Z</time></trkpt><trkpt lat="45.1686805591097" lon="11.29607827184889"><ele>9.0</ele><time>2026-04-19T07:36:27Z</time></trkpt><trkpt lat="45.16848098742464" lon="11.296377415197917"><ele>9.0</ele><time>2026-04-19T07:36:28Z</time></trkpt><trkpt lat="45.1682856469501" lon="11.296671266916116"><ele>9.0</ele><time>2026-04-19T07:36:29Z</time></trkpt><trkpt lat="45.16808772420435" lon="11.296965441650457"><ele>9.0</ele><time>2026-04-19T07:36:30Z</time></trkpt><trkpt lat="45.16788932842243" lon="11.29726300436687"><ele>9.0</ele><time>2026-04-19T07:36:31Z</time></trkpt><trkpt lat="45.16768548313099" lon="11.297577735908705"><ele>9.0</ele><time>2026-04-19T07:36:32Z</time></trkpt><trkpt lat="45.16748336726101" lon="11.297888573664855"><ele>9.0</ele><time>2026-04-19T07:36:33Z</time></trkpt><trkpt lat="45.16729248767411" lon="11.29817160953921"><ele>10.0</ele><time>2026-04-19T07:36:34Z</time></trkpt><trkpt lat="45.16711418490038" lon="11.298446393712357"><ele>11.0</ele><time>2026-04-19T07:36:35.001Z</time></trkpt><trkpt lat="45.166935184076316" lon="11.29871353082806"><ele>11.0</ele><time>2026-04-19T07:36:36.001Z</time></trkpt><trkpt lat="45.16676108683591" lon="11.29898239694981"><ele>11.0</ele><time>2026-04-19T07:36:37.001Z</time></trkpt><trkpt lat="45.16658864212453" lon="11.299251216123185"><ele>11.5</ele><time>2026-04-19T07:36:38.001Z</time></trkpt><trkpt lat="45.16641600331498" lon="11.299523526542313"><ele>12.0</ele><time>2026-04-19T07:36:39.001Z</time></trkpt><trkpt lat="45.16623674985562" lon="11.299806429476764"><ele>12.5</ele><time>2026-04-19T07:36:40.001Z</time></trkpt><trkpt lat="45.16605277624772" lon="11.30009608514604"><ele>13.0</ele><time>2026-04-19T07:36:41.001Z</time></trkpt><trkpt lat="45.16586238838074" lon="11.300396580862762"><ele>14.0</ele><time>2026-04-19T07:36:42.001Z</time></trkpt><trkpt lat="45.16567142567147" lon="11.300699490381499"><ele>15.0</ele><time>2026-04-19T07:36:43.001Z</time></trkpt><trkpt lat="45.16547705708758" lon="11.300999798134841"><ele>15.0</ele><time>2026-04-19T07:36:44.001Z</time></trkpt><trkpt lat="45.16528334116868" lon="11.30129593978644"><ele>15.0</ele><time>2026-04-19T07:36:45.001Z</time></trkpt><trkpt lat="45.16508347388418" lon="11.301592219973859"><ele>14.5</ele><time>2026-04-19T07:36:46.001Z</time></trkpt><trkpt lat="45.16488415006657" lon="11.30189222368745"><ele>14.0</ele><time>2026-04-19T07:36:47.001Z</time></trkpt><trkpt lat="45.164688864353046" lon="11.302183876718718"><ele>13.0</ele><time>2026-04-19T07:36:48.001Z</time></trkpt><trkpt lat="45.164497325372864" lon="11.30247132857136"><ele>12.0</ele><time>2026-04-19T07:36:49.001Z</time></trkpt><trkpt lat="45.16430511511914" lon="11.302758843419191"><ele>12.0</ele><time>2026-04-19T07:36:50.001Z</time></trkpt><trkpt lat="45.16412095183451" lon="11.30304310678892"><ele>12.0</ele><time>2026-04-19T07:36:51.001Z</time></trkpt><trkpt lat="45.16394110652723" lon="11.303329280312894"><ele>12.0</ele><time>2026-04-19T07:36:52.001Z</time></trkpt><trkpt lat="45.16376825373292" lon="11.303620882389882"><ele>12.0</ele><time>2026-04-19T07:36:53.001Z</time></trkpt><trkpt lat="45.163593477020164" lon="11.303921182943533"><ele>12.0</ele><time>2026-04-19T07:36:54.001Z</time></trkpt><trkpt lat="45.16342717387833" lon="11.30422322755951"><ele>12.0</ele><time>2026-04-19T07:36:55.001Z</time></trkpt><trkpt lat="45.16325884515283" lon="11.304536170495922"><ele>11.5</ele><time>2026-04-19T07:36:56.001Z</time></trkpt><trkpt lat="45.16309431235605" lon="11.30484670223568"><ele>11.0</ele><time>2026-04-19T07:36:57.001Z</time></trkpt><trkpt lat="45.16292813298807" lon="11.305168682495946"><ele>11.0</ele><time>2026-04-19T07:36:58.001Z</time></trkpt><trkpt lat="45.16276808670077" lon="11.305494149273141"><ele>11.0</ele><time>2026-04-19T07:36:59.001Z</time></trkpt><trkpt lat="45.16261785110702" lon="11.305821226135112"><ele>10.5</ele><time>2026-04-19T07:37:00.001Z</time></trkpt><trkpt lat="45.16247502128351" lon="11.306146023960201"><ele>10.0</ele><time>2026-04-19T07:37:01.001Z</time></trkpt><trkpt lat="45.16234191679762" lon="11.306470492552235"><ele>10.0</ele><time>2026-04-19T07:37:02.001Z</time></trkpt><trkpt lat="45.162208600668635" lon="11.306789845634878"><ele>10.0</ele><time>2026-04-19T07:37:03.001Z</time></trkpt><trkpt lat="45.16208564923758" lon="11.307104546309347"><ele>9.0</ele><time>2026-04-19T07:37:04.001Z</time></trkpt><trkpt lat="45.16195955141349" lon="11.307419547101839"><ele>8.0</ele><time>2026-04-19T07:37:05.001Z</time></trkpt><trkpt lat="45.16182891722297" lon="11.30773365058031"><ele>8.0</ele><time>2026-04-19T07:37:06.001Z</time></trkpt><trkpt lat="45.16169830221285" lon="11.308056501622952"><ele>8.0</ele><time>2026-04-19T07:37:07.001Z</time></trkpt><trkpt lat="45.161567395454554" lon="11.30837787172923"><ele>8.5</ele><time>2026-04-19T07:37:08.001Z</time></trkpt><trkpt lat="45.161440158180966" lon="11.30870393799426"><ele>9.0</ele><time>2026-04-19T07:37:09.001Z</time></trkpt><trkpt lat="45.161308357082426" lon="11.309046421119344"><ele>9.5</ele><time>2026-04-19T07:37:10.001Z</time></trkpt><trkpt lat="45.161174713741595" lon="11.309391523217986"><ele>10.0</ele><time>2026-04-19T07:37:11.001Z</time></trkpt><trkpt lat="45.161031726407394" lon="11.309740844972001"><ele>9.5</ele><time>2026-04-19T07:37:12.001Z</time></trkpt><trkpt lat="45.160882448409154" lon="11.31009627204662"><ele>9.0</ele><time>2026-04-19T07:37:13.001Z</time></trkpt><trkpt lat="45.16073223470219" lon="11.31043717781349"><ele>9.5</ele><time>2026-04-19T07:37:14.001Z</time></trkpt><trkpt lat="45.160577500278784" lon="11.310782368241899"><ele>10.0</ele><time>2026-04-19T07:37:15.001Z</time></trkpt><trkpt lat="45.160429141600865" lon="11.3111245701108"><ele>10.5</ele><time>2026-04-19T07:37:16.001Z</time></trkpt><trkpt lat="45.16028425366993" lon="11.311474773944884"><ele>11.0</ele><time>2026-04-19T07:37:17.001Z</time></trkpt><trkpt lat="45.16014037997942" lon="11.311829925221014"><ele>11.0</ele><time>2026-04-19T07:37:18.001Z</time></trkpt><trkpt lat="45.15999792495382" lon="11.312182158683443"><ele>11.0</ele><time>2026-04-19T07:37:19.001Z</time></trkpt><trkpt lat="45.15985929990668" lon="11.31252918763014"><ele>11.0</ele><time>2026-04-19T07:37:20.001Z</time></trkpt><trkpt lat="45.15971786043245" lon="11.312875982746776"><ele>11.0</ele><time>2026-04-19T07:37:21.001Z</time></trkpt><trkpt lat="45.15957874292172" lon="11.313219233573452"><ele>10.5</ele><time>2026-04-19T07:37:22.001Z</time></trkpt><trkpt lat="45.159437805744915" lon="11.313561180338391"><ele>10.0</ele><time>2026-04-19T07:37:23.001Z</time></trkpt><trkpt lat="45.15929785733108" lon="11.313900034978623"><ele>10.0</ele><time>2026-04-19T07:37:24.001Z</time></trkpt><trkpt lat="45.15916152943686" lon="11.314236452291404"><ele>10.0</ele><time>2026-04-19T07:37:25.001Z</time></trkpt><trkpt lat="45.159022476443205" lon="11.314574803654997"><ele>10.0</ele><time>2026-04-19T07:37:26.001Z</time></trkpt><trkpt lat="45.15888793304413" lon="11.31490041034"><ele>10.0</ele><time>2026-04-19T07:37:27.001Z</time></trkpt><trkpt lat="45.158758735529354" lon="11.315209810856123"><ele>10.0</ele><time>2026-04-19T07:37:28.001Z</time></trkpt><trkpt lat="45.15863144750724" lon="11.315518735928864"><ele>10.0</ele><time>2026-04-19T07:37:29.001Z</time></trkpt><trkpt lat="45.15850244728897" lon="11.315832653525128"><ele>9.5</ele><time>2026-04-19T07:37:30.001Z</time></trkpt><trkpt lat="45.15837247114827" lon="11.316151573640132"><ele>9.0</ele><time>2026-04-19T07:37:31.001Z</time></trkpt><trkpt lat="45.15824241562412" lon="11.316473937881778"><ele>9.5</ele><time>2026-04-19T07:37:32.001Z</time></trkpt><trkpt lat="45.158111882231495" lon="11.316799183542136"><ele>10.0</ele><time>2026-04-19T07:37:33.001Z</time></trkpt><trkpt lat="45.15797952024087" lon="11.317125513014334"><ele>9.0</ele><time>2026-04-19T07:37:34.001Z</time></trkpt><trkpt lat="45.1578488353227" lon="11.317453164559103"><ele>8.0</ele><time>2026-04-19T07:37:35.001Z</time></trkpt><trkpt lat="45.15771701584873" lon="11.317787476837303"><ele>8.5</ele><time>2026-04-19T07:37:36.001Z</time></trkpt><trkpt lat="45.15758454602688" lon="11.318124943883701"><ele>9.0</ele><time>2026-04-19T07:37:37.001Z</time></trkpt><trkpt lat="45.15744945846335" lon="11.318465929537762"><ele>8.5</ele><time>2026-04-19T07:37:38.001Z</time></trkpt><trkpt lat="45.15731209313989" lon="11.318809183212474"><ele>8.0</ele><time>2026-04-19T07:37:39.001Z</time></trkpt><trkpt lat="45.15717289896637" lon="11.31915176746288"><ele>9.0</ele><time>2026-04-19T07:37:40.001Z</time></trkpt><trkpt lat="45.15703171334367" lon="11.319496637095389"><ele>10.0</ele><time>2026-04-19T07:37:41.001Z</time></trkpt><trkpt lat="45.156891557149756" lon="11.319841986695252"><ele>10.0</ele><time>2026-04-19T07:37:42.001Z</time></trkpt><trkpt lat="45.156747480063615" lon="11.32019335723592"><ele>10.0</ele><time>2026-04-19T07:37:43.001Z</time></trkpt><trkpt lat="45.15659980464418" lon="11.320550606712082"><ele>9.5</ele><time>2026-04-19T07:37:44Z</time></trkpt><trkpt lat="45.1564533507984" lon="11.320909403706155"><ele>9.0</ele><time>2026-04-19T07:37:45Z</time></trkpt><trkpt lat="45.15630558175324" lon="11.321268425144016"><ele>8.5</ele><time>2026-04-19T07:37:46Z</time></trkpt><trkpt lat="45.15615652252179" lon="11.321631774209292"><ele>8.0</ele><time>2026-04-19T07:37:47Z</time></trkpt><trkpt lat="45.156009161554174" lon="11.321991784452889"><ele>8.5</ele><time>2026-04-19T07:37:48Z</time></trkpt><trkpt lat="45.155860683538755" lon="11.322357763822716"><ele>9.0</ele><time>2026-04-19T07:37:49Z</time></trkpt><trkpt lat="45.15570998661782" lon="11.322720564970384"><ele>9.0</ele><time>2026-04-19T07:37:50Z</time></trkpt><trkpt lat="45.15556159922788" lon="11.323086449667754"><ele>9.0</ele><time>2026-04-19T07:37:51Z</time></trkpt><trkpt lat="45.15541779269844" lon="11.323437394703692"><ele>9.0</ele><time>2026-04-19T07:37:52Z</time></trkpt><trkpt lat="45.15527310779455" lon="11.323793611757228"><ele>9.0</ele><time>2026-04-19T07:37:53Z</time></trkpt><trkpt lat="45.15513067936829" lon="11.324151141730487"><ele>8.5</ele><time>2026-04-19T07:37:54Z</time></trkpt><trkpt lat="45.15498913940806" lon="11.324508655014752"><ele>8.0</ele><time>2026-04-19T07:37:55Z</time></trkpt><trkpt lat="45.15485239935437" lon="11.32486858359911"><ele>8.0</ele><time>2026-04-19T07:37:56Z</time></trkpt><trkpt lat="45.15471944204717" lon="11.32523129859462"><ele>8.0</ele><time>2026-04-19T07:37:57Z</time></trkpt><trkpt lat="45.15459526898252" lon="11.325596044524353"><ele>9.0</ele><time>2026-04-19T07:37:58Z</time></trkpt><trkpt lat="45.15448047371869" lon="11.325945377225327"><ele>10.0</ele><time>2026-04-19T07:37:59Z</time></trkpt><trkpt lat="45.15437969496035" lon="11.32627508871398"><ele>9.5</ele><time>2026-04-19T07:38:00Z</time></trkpt><trkpt lat="45.15428278036693" lon="11.326586772137045"><ele>9.0</ele><time>2026-04-19T07:38:01Z</time></trkpt><trkpt lat="45.154194741556694" lon="11.3268929473005"><ele>9.0</ele><time>2026-04-19T07:38:02Z</time></trkpt><trkpt lat="45.15410786792584" lon="11.327199558538055"><ele>9.0</ele><time>2026-04-19T07:38:03Z</time></trkpt><trkpt lat="45.154016319062976" lon="11.327509272698292"><ele>9.0</ele><time>2026-04-19T07:38:04Z</time></trkpt><trkpt lat="45.153922920549725" lon="11.327822619360008"><ele>9.0</ele><time>2026-04-19T07:38:05Z</time></trkpt><trkpt lat="45.15372995255409" lon="11.328457704972562"><ele>9.0</ele><time>2026-04-19T07:38:07Z</time></trkpt><trkpt lat="45.15363051522399" lon="11.328788336524443"><ele>9.0</ele><time>2026-04-19T07:38:08Z</time></trkpt><trkpt lat="45.15352927171818" lon="11.329122800432232"><ele>9.0</ele><time>2026-04-19T07:38:09Z</time></trkpt><trkpt lat="45.153425697876415" lon="11.329471357193263"><ele>9.0</ele><time>2026-04-19T07:38:10Z</time></trkpt><trkpt lat="45.153324194940474" lon="11.32982021004024"><ele>8.5</ele><time>2026-04-19T07:38:11Z</time></trkpt><trkpt lat="45.15321666455359" lon="11.330176984046059"><ele>8.0</ele><time>2026-04-19T07:38:12Z</time></trkpt><trkpt lat="45.15310886750489" lon="11.330534350148149"><ele>7.5</ele><time>2026-04-19T07:38:13Z</time></trkpt><trkpt lat="45.15300033903306" lon="11.330894360030863"><ele>7.0</ele><time>2026-04-19T07:38:14Z</time></trkpt><trkpt lat="45.15289334168198" lon="11.331249480371355"><ele>8.5</ele><time>2026-04-19T07:38:15Z</time></trkpt><trkpt lat="45.152785324309505" lon="11.331606479745195"><ele>10.0</ele><time>2026-04-19T07:38:16Z</time></trkpt><trkpt lat="45.152679164951316" lon="11.331964977757998"><ele>9.5</ele><time>2026-04-19T07:38:17Z</time></trkpt><trkpt lat="45.15257277885868" lon="11.332325514643285"><ele>9.0</ele><time>2026-04-19T07:38:18Z</time></trkpt><trkpt lat="45.15246784908483" lon="11.332686637981679"><ele>9.0</ele><time>2026-04-19T07:38:19Z</time></trkpt><trkpt lat="45.15236134531113" lon="11.333056044094263"><ele>9.0</ele><time>2026-04-19T07:38:20Z</time></trkpt><trkpt lat="45.15225216811043" lon="11.333426444462475"><ele>9.0</ele><time>2026-04-19T07:38:21Z</time></trkpt><trkpt lat="45.15214324867111" lon="11.333795240079352"><ele>9.0</ele><time>2026-04-19T07:38:22Z</time></trkpt><trkpt lat="45.152034081522686" lon="11.334159948513914"><ele>9.0</ele><time>2026-04-19T07:38:23Z</time></trkpt><trkpt lat="45.151922547559636" lon="11.334526389198686"><ele>9.0</ele><time>2026-04-19T07:38:24Z</time></trkpt><trkpt lat="45.15181217894103" lon="11.334888349518174"><ele>9.0</ele><time>2026-04-19T07:38:25Z</time></trkpt><trkpt lat="45.15170357628363" lon="11.335250140039935"><ele>9.0</ele><time>2026-04-19T07:38:26Z</time></trkpt><trkpt lat="45.15159776603676" lon="11.335604768965382"><ele>9.0</ele><time>2026-04-19T07:38:27Z</time></trkpt><trkpt lat="45.151493971083916" lon="11.33595141451362"><ele>9.0</ele><time>2026-04-19T07:38:28Z</time></trkpt><trkpt lat="45.15139075067107" lon="11.336291927600946"><ele>8.5</ele><time>2026-04-19T07:38:29Z</time></trkpt><trkpt lat="45.1512855319352" lon="11.336636102494994"><ele>8.0</ele><time>2026-04-19T07:38:30Z</time></trkpt><trkpt lat="45.151180111136654" lon="11.336980640636636"><ele>8.0</ele><time>2026-04-19T07:38:31Z</time></trkpt><trkpt lat="45.1510771549921" lon="11.337329017623027"><ele>8.0</ele><time>2026-04-19T07:38:32Z</time></trkpt><trkpt lat="45.15097559379795" lon="11.337683086597716"><ele>8.0</ele><time>2026-04-19T07:38:33Z</time></trkpt><trkpt lat="45.15087206655474" lon="11.338033534845103"><ele>8.0</ele><time>2026-04-19T07:38:34Z</time></trkpt><trkpt lat="45.15076521183562" lon="11.338378310837516"><ele>8.0</ele><time>2026-04-19T07:38:35Z</time></trkpt><trkpt lat="45.15065288669575" lon="11.338719898504339"><ele>8.0</ele><time>2026-04-19T07:38:36Z</time></trkpt><trkpt lat="45.15053845862105" lon="11.339051796148903"><ele>9.0</ele><time>2026-04-19T07:38:37Z</time></trkpt><trkpt lat="45.15041803647746" lon="11.339385095218717"><ele>10.0</ele><time>2026-04-19T07:38:38Z</time></trkpt><trkpt lat="45.15029224090629" lon="11.339716751856065"><ele>9.0</ele><time>2026-04-19T07:38:39Z</time></trkpt><trkpt lat="45.15016713287871" lon="11.340042694941767"><ele>8.0</ele><time>2026-04-19T07:38:40Z</time></trkpt><trkpt lat="45.150037245760245" lon="11.340369958949546"><ele>7.5</ele><time>2026-04-19T07:38:41Z</time></trkpt><trkpt lat="45.14990315291025" lon="11.340699562508227"><ele>7.0</ele><time>2026-04-19T07:38:42.001Z</time></trkpt><trkpt lat="45.14976582609963" lon="11.34102769358803"><ele>7.5</ele><time>2026-04-19T07:38:43.001Z</time></trkpt><trkpt lat="45.14962200379092" lon="11.341353515643016"><ele>8.0</ele><time>2026-04-19T07:38:44.001Z</time></trkpt><trkpt lat="45.14947514524199" lon="11.34167272635058"><ele>8.0</ele><time>2026-04-19T07:38:45.001Z</time></trkpt><trkpt lat="45.14932473852447" lon="11.341990692936527"><ele>8.0</ele><time>2026-04-19T07:38:46.001Z</time></trkpt><trkpt lat="45.14916839128873" lon="11.342309766793768"><ele>8.5</ele><time>2026-04-19T07:38:47.001Z</time></trkpt><trkpt lat="45.14900773582894" lon="11.342630208885593"><ele>9.0</ele><time>2026-04-19T07:38:48.001Z</time></trkpt><trkpt lat="45.148843695734634" lon="11.342951411729649"><ele>10.0</ele><time>2026-04-19T07:38:49.001Z</time></trkpt><trkpt lat="45.1486751658749" lon="11.343272108567144"><ele>11.0</ele><time>2026-04-19T07:38:50.001Z</time></trkpt><trkpt lat="45.14850490228447" lon="11.343588791505056"><ele>11.5</ele><time>2026-04-19T07:38:51.001Z</time></trkpt><trkpt lat="45.1483280592342" lon="11.343902793794888"><ele>12.0</ele><time>2026-04-19T07:38:52.001Z</time></trkpt><trkpt lat="45.14814583854808" lon="11.344212293319353"><ele>11.0</ele><time>2026-04-19T07:38:53.001Z</time></trkpt><trkpt lat="45.14795395074796" lon="11.344515003342561"><ele>10.0</ele><time>2026-04-19T07:38:54.001Z</time></trkpt><trkpt lat="45.147761224852644" lon="11.344812636696483"><ele>10.0</ele><time>2026-04-19T07:38:55.001Z</time></trkpt><trkpt lat="45.147570896082264" lon="11.345111862455724"><ele>10.0</ele><time>2026-04-19T07:38:56.001Z</time></trkpt><trkpt lat="45.14738253511837" lon="11.345412884995659"><ele>9.0</ele><time>2026-04-19T07:38:57.001Z</time></trkpt><trkpt lat="45.147193613411964" lon="11.345715834975458"><ele>8.0</ele><time>2026-04-19T07:38:58.001Z</time></trkpt><trkpt lat="45.147004388267604" lon="11.34602126568769"><ele>8.0</ele><time>2026-04-19T07:38:59.001Z</time></trkpt><trkpt lat="45.14681317472117" lon="11.346326570015602"><ele>8.0</ele><time>2026-04-19T07:39:00.001Z</time></trkpt><trkpt lat="45.14662607796694" lon="11.346628667792714"><ele>8.5</ele><time>2026-04-19T07:39:01.001Z</time></trkpt><trkpt lat="45.14643924259261" lon="11.34692877423484"><ele>9.0</ele><time>2026-04-19T07:39:02.001Z</time></trkpt><trkpt lat="45.14625417624482" lon="11.34722700388432"><ele>9.0</ele><time>2026-04-19T07:39:03.001Z</time></trkpt><trkpt lat="45.146074449999645" lon="11.347517072306687"><ele>9.0</ele><time>2026-04-19T07:39:04.001Z</time></trkpt><trkpt lat="45.14589694953635" lon="11.347804098531547"><ele>9.5</ele><time>2026-04-19T07:39:05.001Z</time></trkpt><trkpt lat="45.14572171134436" lon="11.348085804882098"><ele>10.0</ele><time>2026-04-19T07:39:06.001Z</time></trkpt><trkpt lat="45.14554653558146" lon="11.348364200004212"><ele>10.0</ele><time>2026-04-19T07:39:07.001Z</time></trkpt><trkpt lat="45.14536846554027" lon="11.348648568908406"><ele>10.0</ele><time>2026-04-19T07:39:08.001Z</time></trkpt><trkpt lat="45.14519070729069" lon="11.34892945470571"><ele>10.0</ele><time>2026-04-19T07:39:09.001Z</time></trkpt><trkpt lat="45.145012569939524" lon="11.34921234860671"><ele>10.0</ele><time>2026-04-19T07:39:10.001Z</time></trkpt><trkpt lat="45.144830166558194" lon="11.349500648203216"><ele>9.5</ele><time>2026-04-19T07:39:11.001Z</time></trkpt><trkpt lat="45.144644265139476" lon="11.349791387327508"><ele>9.0</ele><time>2026-04-19T07:39:12.001Z</time></trkpt><trkpt lat="45.144460567662016" lon="11.350082007992963"><ele>9.0</ele><time>2026-04-19T07:39:13.001Z</time></trkpt><trkpt lat="45.14427882385147" lon="11.350367133107591"><ele>9.0</ele><time>2026-04-19T07:39:14.001Z</time></trkpt><trkpt lat="45.14410126181033" lon="11.35064956620663"><ele>9.5</ele><time>2026-04-19T07:39:15.001Z</time></trkpt><trkpt lat="45.1439236516161" lon="11.350930516987647"><ele>10.0</ele><time>2026-04-19T07:39:16.001Z</time></trkpt><trkpt lat="45.14374836580724" lon="11.351212920924562"><ele>9.5</ele><time>2026-04-19T07:39:17.001Z</time></trkpt><trkpt lat="45.143575012115335" lon="11.351490731954785"><ele>9.0</ele><time>2026-04-19T07:39:18.001Z</time></trkpt><trkpt lat="45.14340302839487" lon="11.351769574634455"><ele>9.0</ele><time>2026-04-19T07:39:19.001Z</time></trkpt><trkpt lat="45.1432308062552" lon="11.352047936242597"><ele>9.0</ele><time>2026-04-19T07:39:20.001Z</time></trkpt><trkpt lat="45.14305701543509" lon="11.352329265168981"><ele>8.0</ele><time>2026-04-19T07:39:21.001Z</time></trkpt><trkpt lat="45.14288010642309" lon="11.352610068744223"><ele>7.0</ele><time>2026-04-19T07:39:22.001Z</time></trkpt><trkpt lat="45.142701590511955" lon="11.352891108361437"><ele>7.5</ele><time>2026-04-19T07:39:23.001Z</time></trkpt><trkpt lat="45.142523642383864" lon="11.353172488248381"><ele>8.0</ele><time>2026-04-19T07:39:24.001Z</time></trkpt><trkpt lat="45.14234603315158" lon="11.353452857086987"><ele>8.5</ele><time>2026-04-19T07:39:25.001Z</time></trkpt><trkpt lat="45.142170217807966" lon="11.353730952335683"><ele>9.0</ele><time>2026-04-19T07:39:26.001Z</time></trkpt><trkpt lat="45.141994251988095" lon="11.354016030513813"><ele>10.0</ele><time>2026-04-19T07:39:27.001Z</time></trkpt><trkpt lat="45.14181491322493" lon="11.354304105998358"><ele>11.0</ele><time>2026-04-19T07:39:28.001Z</time></trkpt><trkpt lat="45.141632782239625" lon="11.354596764487352"><ele>9.5</ele><time>2026-04-19T07:39:29.001Z</time></trkpt><trkpt lat="45.141451065348875" lon="11.354887057349368"><ele>8.0</ele><time>2026-04-19T07:39:30.001Z</time></trkpt><trkpt lat="45.14126680330361" lon="11.355183031773738"><ele>8.0</ele><time>2026-04-19T07:39:31.001Z</time></trkpt><trkpt lat="45.14107704209307" lon="11.355482478906666"><ele>8.0</ele><time>2026-04-19T07:39:32.001Z</time></trkpt><trkpt lat="45.14089218582256" lon="11.3557783032201"><ele>8.5</ele><time>2026-04-19T07:39:33.001Z</time></trkpt><trkpt lat="45.14070824072986" lon="11.356075229005162"><ele>9.0</ele><time>2026-04-19T07:39:34.001Z</time></trkpt><trkpt lat="45.1405259389257" lon="11.356373407810914"><ele>9.0</ele><time>2026-04-19T07:39:35.001Z</time></trkpt><trkpt lat="45.140343683789084" lon="11.356670342699594"><ele>9.0</ele><time>2026-04-19T07:39:36.001Z</time></trkpt><trkpt lat="45.14015859973015" lon="11.356965825915125"><ele>9.0</ele><time>2026-04-19T07:39:37.001Z</time></trkpt><trkpt lat="45.13997092378171" lon="11.357260862408257"><ele>9.0</ele><time>2026-04-19T07:39:38.001Z</time></trkpt><trkpt lat="45.139785366261286" lon="11.357554667513176"><ele>8.5</ele><time>2026-04-19T07:39:39.001Z</time></trkpt><trkpt lat="45.13960101068938" lon="11.357846371323141"><ele>8.0</ele><time>2026-04-19T07:39:40.001Z</time></trkpt><trkpt lat="45.13941795225924" lon="11.35813814085154"><ele>8.0</ele><time>2026-04-19T07:39:41.001Z</time></trkpt><trkpt lat="45.139234727716435" lon="11.358426904090882"><ele>8.0</ele><time>2026-04-19T07:39:42.001Z</time></trkpt><trkpt lat="45.13905064043074" lon="11.358718972108509"><ele>8.0</ele><time>2026-04-19T07:39:43.001Z</time></trkpt><trkpt lat="45.13886762000445" lon="11.35901143418786"><ele>8.0</ele><time>2026-04-19T07:39:44.001Z</time></trkpt><trkpt lat="45.13868567423554" lon="11.359307704000734"><ele>8.0</ele><time>2026-04-19T07:39:45.001Z</time></trkpt><trkpt lat="45.13850226725416" lon="11.359604745187335"><ele>8.0</ele><time>2026-04-19T07:39:46.001Z</time></trkpt><trkpt lat="45.13831660184563" lon="11.359901737576669"><ele>9.0</ele><time>2026-04-19T07:39:47.001Z</time></trkpt><trkpt lat="45.138132993985295" lon="11.360194998008666"><ele>10.0</ele><time>2026-04-19T07:39:48.001Z</time></trkpt><trkpt lat="45.13795413587004" lon="11.360488968536174"><ele>10.0</ele><time>2026-04-19T07:39:49.001Z</time></trkpt><trkpt lat="45.13777706025235" lon="11.36077527688681"><ele>10.0</ele><time>2026-04-19T07:39:50Z</time></trkpt><trkpt lat="45.13759898411903" lon="11.361058919572546"><ele>10.0</ele><time>2026-04-19T07:39:51Z</time></trkpt><trkpt lat="45.13741925867446" lon="11.361340296230908"><ele>10.0</ele><time>2026-04-19T07:39:52Z</time></trkpt><trkpt lat="45.13724016466864" lon="11.36161964704603"><ele>9.5</ele><time>2026-04-19T07:39:53Z</time></trkpt><trkpt lat="45.13706300584649" lon="11.361898980872441"><ele>9.0</ele><time>2026-04-19T07:39:54Z</time></trkpt><trkpt lat="45.136888782617504" lon="11.362176104848752"><ele>9.0</ele><time>2026-04-19T07:39:55Z</time></trkpt><trkpt lat="45.136710654628615" lon="11.362457001817546"><ele>9.0</ele><time>2026-04-19T07:39:56Z</time></trkpt><trkpt lat="45.13653312074998" lon="11.362741425674642"><ele>9.0</ele><time>2026-04-19T07:39:57Z</time></trkpt><trkpt lat="45.13635490724216" lon="11.363025184809846"><ele>9.0</ele><time>2026-04-19T07:39:58Z</time></trkpt><trkpt lat="45.13617988956199" lon="11.363310000969648"><ele>8.5</ele><time>2026-04-19T07:39:59Z</time></trkpt><trkpt lat="45.13600105295829" lon="11.363591828993988"><ele>8.0</ele><time>2026-04-19T07:40:00Z</time></trkpt><trkpt lat="45.135821697926026" lon="11.363872782826054"><ele>7.5</ele><time>2026-04-19T07:40:01Z</time></trkpt><trkpt lat="45.13563924609103" lon="11.364155370428794"><ele>7.0</ele><time>2026-04-19T07:40:02Z</time></trkpt><trkpt lat="45.13545967007689" lon="11.364442877969635"><ele>7.5</ele><time>2026-04-19T07:40:03Z</time></trkpt><trkpt lat="45.1352772297121" lon="11.364727554314273"><ele>8.0</ele><time>2026-04-19T07:40:04Z</time></trkpt><trkpt lat="45.135096607585" lon="11.365011670664238"><ele>8.0</ele><time>2026-04-19T07:40:05Z</time></trkpt><trkpt lat="45.13491458084869" lon="11.365299207818722"><ele>8.0</ele><time>2026-04-19T07:40:06Z</time></trkpt><trkpt lat="45.134732620584245" lon="11.365583123104004"><ele>7.0</ele><time>2026-04-19T07:40:07Z</time></trkpt><trkpt lat="45.1345485912138" lon="11.365869686750798"><ele>6.0</ele><time>2026-04-19T07:40:08Z</time></trkpt><trkpt lat="45.13436434532525" lon="11.366156326452538"><ele>7.0</ele><time>2026-04-19T07:40:09Z</time></trkpt><trkpt lat="45.134177908601416" lon="11.366445386247538"><ele>8.0</ele><time>2026-04-19T07:40:10Z</time></trkpt><trkpt lat="45.13399278207753" lon="11.366734788462013"><ele>8.0</ele><time>2026-04-19T07:40:11Z</time></trkpt><trkpt lat="45.13380676953054" lon="11.367025347733332"><ele>8.0</ele><time>2026-04-19T07:40:12Z</time></trkpt><trkpt lat="45.13362175238874" lon="11.367318304169817"><ele>8.0</ele><time>2026-04-19T07:40:13Z</time></trkpt><trkpt lat="45.13343608183631" lon="11.367611166606869"><ele>8.0</ele><time>2026-04-19T07:40:14Z</time></trkpt><trkpt lat="45.13324689399588" lon="11.367906337629956"><ele>7.5</ele><time>2026-04-19T07:40:15Z</time></trkpt><trkpt lat="45.13305323491996" lon="11.368208828618874"><ele>7.0</ele><time>2026-04-19T07:40:16Z</time></trkpt><trkpt lat="45.13286089149772" lon="11.368517166199943"><ele>7.0</ele><time>2026-04-19T07:40:17Z</time></trkpt><trkpt lat="45.13266573336674" lon="11.368819390099254"><ele>7.0</ele><time>2026-04-19T07:40:18Z</time></trkpt><trkpt lat="45.1324741401408" lon="11.369118764969674"><ele>7.0</ele><time>2026-04-19T07:40:19Z</time></trkpt><trkpt lat="45.132284855138835" lon="11.369415738429284"><ele>7.0</ele><time>2026-04-19T07:40:20Z</time></trkpt><trkpt lat="45.132096393471606" lon="11.369710944853304"><ele>7.0</ele><time>2026-04-19T07:40:21Z</time></trkpt><trkpt lat="45.13190806571473" lon="11.370004774445587"><ele>7.0</ele><time>2026-04-19T07:40:22Z</time></trkpt><trkpt lat="45.13171927255988" lon="11.370298515851875"><ele>6.5</ele><time>2026-04-19T07:40:23Z</time></trkpt><trkpt lat="45.13153036888693" lon="11.370591204596238"><ele>6.0</ele><time>2026-04-19T07:40:24Z</time></trkpt><trkpt lat="45.13134199056761" lon="11.370882673446264"><ele>6.0</ele><time>2026-04-19T07:40:25Z</time></trkpt><trkpt lat="45.13115500260493" lon="11.371170212404001"><ele>6.0</ele><time>2026-04-19T07:40:26Z</time></trkpt><trkpt lat="45.13096978958942" lon="11.371455323796928"><ele>6.0</ele><time>2026-04-19T07:40:27Z</time></trkpt><trkpt lat="45.130787746202806" lon="11.371736654564252"><ele>6.0</ele><time>2026-04-19T07:40:28Z</time></trkpt><trkpt lat="45.13060629136656" lon="11.3720179129997"><ele>6.0</ele><time>2026-04-19T07:40:29Z</time></trkpt><trkpt lat="45.13042605510177" lon="11.372298318684209"><ele>6.0</ele><time>2026-04-19T07:40:30Z</time></trkpt><trkpt lat="45.13024800366223" lon="11.372578297181306"><ele>6.0</ele><time>2026-04-19T07:40:31Z</time></trkpt><trkpt lat="45.130073749180696" lon="11.37285613990747"><ele>6.0</ele><time>2026-04-19T07:40:32Z</time></trkpt><trkpt lat="45.129899405762345" lon="11.373129773868143"><ele>7.0</ele><time>2026-04-19T07:40:33Z</time></trkpt><trkpt lat="45.12972600741626" lon="11.373402787418595"><ele>8.0</ele><time>2026-04-19T07:40:34Z</time></trkpt><trkpt lat="45.12955092902052" lon="11.373676944041454"><ele>8.5</ele><time>2026-04-19T07:40:35Z</time></trkpt><trkpt lat="45.12937137858016" lon="11.373951688946143"><ele>9.0</ele><time>2026-04-19T07:40:36Z</time></trkpt><trkpt lat="45.12919484787275" lon="11.374228412973014"><ele>9.0</ele><time>2026-04-19T07:40:37Z</time></trkpt><trkpt lat="45.12901942483273" lon="11.374502902949498"><ele>9.0</ele><time>2026-04-19T07:40:38Z</time></trkpt><trkpt lat="45.12884463511463" lon="11.374778115866198"><ele>9.0</ele><time>2026-04-19T07:40:39Z</time></trkpt><trkpt lat="45.128667245104126" lon="11.375056194550416"><ele>9.0</ele><time>2026-04-19T07:40:40Z</time></trkpt><trkpt lat="45.128485508338024" lon="11.37534156181461"><ele>8.5</ele><time>2026-04-19T07:40:41Z</time></trkpt><trkpt lat="45.12830356365997" lon="11.375627251456208"><ele>8.0</ele><time>2026-04-19T07:40:42Z</time></trkpt><trkpt lat="45.128118208224045" lon="11.37591424157187"><ele>8.0</ele><time>2026-04-19T07:40:43Z</time></trkpt><trkpt lat="45.127927782279315" lon="11.376200060779674"><ele>8.0</ele><time>2026-04-19T07:40:44Z</time></trkpt><trkpt lat="45.12773366349063" lon="11.376484060796448"><ele>7.5</ele><time>2026-04-19T07:40:45Z</time></trkpt><trkpt lat="45.12753888177616" lon="11.376768089407195"><ele>7.0</ele><time>2026-04-19T07:40:46Z</time></trkpt><trkpt lat="45.127341825079085" lon="11.377051058176594"><ele>6.5</ele><time>2026-04-19T07:40:47Z</time></trkpt><trkpt lat="45.12714294076937" lon="11.377333924025436"><ele>6.0</ele><time>2026-04-19T07:40:48Z</time></trkpt><trkpt lat="45.126941679771804" lon="11.377615456324284"><ele>6.0</ele><time>2026-04-19T07:40:49Z</time></trkpt><trkpt lat="45.12673935707246" lon="11.37789406698859"><ele>6.0</ele><time>2026-04-19T07:40:50Z</time></trkpt><trkpt lat="45.126533870040575" lon="11.378173864640363"><ele>6.5</ele><time>2026-04-19T07:40:51Z</time></trkpt><trkpt lat="45.12632766063278" lon="11.378452554971398"><ele>7.0</ele><time>2026-04-19T07:40:52Z</time></trkpt><trkpt lat="45.126120807167624" lon="11.378727466846883"><ele>7.0</ele><time>2026-04-19T07:40:53Z</time></trkpt><trkpt lat="45.125915006384645" lon="11.378997575318527"><ele>7.0</ele><time>2026-04-19T07:40:54Z</time></trkpt><trkpt lat="45.1257074827985" lon="11.379266185185013"><ele>6.0</ele><time>2026-04-19T07:40:55Z</time></trkpt><trkpt lat="45.12549852009477" lon="11.379533834217408"><ele>5.0</ele><time>2026-04-19T07:40:56Z</time></trkpt><trkpt lat="45.12529021689876" lon="11.37980013736238"><ele>5.0</ele><time>2026-04-19T07:40:57Z</time></trkpt><trkpt lat="45.125080771248186" lon="11.38006756414811"><ele>5.0</ele><time>2026-04-19T07:40:58Z</time></trkpt><trkpt lat="45.12487517903297" lon="11.380333686775225"><ele>5.5</ele><time>2026-04-19T07:40:59Z</time></trkpt><trkpt lat="45.124672021557245" lon="11.38060043499416"><ele>6.0</ele><time>2026-04-19T07:41:00Z</time></trkpt><trkpt lat="45.12447033626309" lon="11.380866171584412"><ele>6.0</ele><time>2026-04-19T07:41:01Z</time></trkpt><trkpt lat="45.124267355487746" lon="11.381129499582311"><ele>6.0</ele><time>2026-04-19T07:41:02Z</time></trkpt><trkpt lat="45.12406738369877" lon="11.381386788764328"><ele>6.5</ele><time>2026-04-19T07:41:03Z</time></trkpt><trkpt lat="45.123866376205086" lon="11.381639470775431"><ele>7.0</ele><time>2026-04-19T07:41:04Z</time></trkpt><trkpt lat="45.123665327651764" lon="11.381890884346163"><ele>7.0</ele><time>2026-04-19T07:41:05Z</time></trkpt><trkpt lat="45.12346512971267" lon="11.382144464984572"><ele>7.0</ele><time>2026-04-19T07:41:06Z</time></trkpt><trkpt lat="45.1232666806438" lon="11.382400796002868"><ele>8.0</ele><time>2026-04-19T07:41:07Z</time></trkpt><trkpt lat="45.12306674023698" lon="11.382657716494135"><ele>9.0</ele><time>2026-04-19T07:41:08Z</time></trkpt><trkpt lat="45.12286456792756" lon="11.382918165109324"><ele>9.0</ele><time>2026-04-19T07:41:09Z</time></trkpt><trkpt lat="45.12266017194168" lon="11.383179691728056"><ele>9.0</ele><time>2026-04-19T07:41:10Z</time></trkpt><trkpt lat="45.12245190222452" lon="11.383447989201807"><ele>8.0</ele><time>2026-04-19T07:41:11Z</time></trkpt><trkpt lat="45.12224220490776" lon="11.383715639882237"><ele>7.0</ele><time>2026-04-19T07:41:12Z</time></trkpt><trkpt lat="45.12203470297029" lon="11.383984499244832"><ele>6.0</ele><time>2026-04-19T07:41:13.001Z</time></trkpt><trkpt lat="45.12182837238205" lon="11.384247560858245"><ele>5.0</ele><time>2026-04-19T07:41:14.001Z</time></trkpt><trkpt lat="45.121624508304556" lon="11.384509354573002"><ele>5.5</ele><time>2026-04-19T07:41:15.001Z</time></trkpt><trkpt lat="45.12142075811052" lon="11.384770064399529"><ele>6.0</ele><time>2026-04-19T07:41:16.001Z</time></trkpt><trkpt lat="45.121219142275876" lon="11.385030239360507"><ele>6.0</ele><time>2026-04-19T07:41:17.001Z</time></trkpt><trkpt lat="45.12101611554579" lon="11.385289917817179"><ele>6.0</ele><time>2026-04-19T07:41:18.001Z</time></trkpt><trkpt lat="45.120813620539565" lon="11.385548539296153"><ele>5.5</ele><time>2026-04-19T07:41:19.001Z</time></trkpt><trkpt lat="45.120611999183204" lon="11.385808295147475"><ele>5.0</ele><time>2026-04-19T07:41:20.001Z</time></trkpt><trkpt lat="45.120412234146826" lon="11.386066545576373"><ele>5.0</ele><time>2026-04-19T07:41:21.001Z</time></trkpt><trkpt lat="45.12021101335198" lon="11.386324824992501"><ele>5.0</ele><time>2026-04-19T07:41:22.001Z</time></trkpt><trkpt lat="45.12001190170831" lon="11.386581541779279"><ele>5.5</ele><time>2026-04-19T07:41:23.001Z</time></trkpt><trkpt lat="45.11981214520238" lon="11.386838538932397"><ele>6.0</ele><time>2026-04-19T07:41:24.001Z</time></trkpt><trkpt lat="45.11960963390245" lon="11.387094810653082"><ele>6.5</ele><time>2026-04-19T07:41:25.001Z</time></trkpt><trkpt lat="45.11940667185184" lon="11.38735332857485"><ele>7.0</ele><time>2026-04-19T07:41:26.001Z</time></trkpt><trkpt lat="45.119205722581626" lon="11.387609933286582"><ele>7.0</ele><time>2026-04-19T07:41:27.001Z</time></trkpt><trkpt lat="45.11900551484107" lon="11.387865836568947"><ele>7.0</ele><time>2026-04-19T07:41:28.001Z</time></trkpt><trkpt lat="45.118806738386475" lon="11.388123080612397"><ele>7.5</ele><time>2026-04-19T07:41:29.001Z</time></trkpt><trkpt lat="45.11860614643352" lon="11.388380530971597"><ele>8.0</ele><time>2026-04-19T07:41:30.001Z</time></trkpt><trkpt lat="45.11840527939581" lon="11.388637959018068"><ele>8.0</ele><time>2026-04-19T07:41:31.001Z</time></trkpt><trkpt lat="45.118200897704945" lon="11.388900481406058"><ele>8.0</ele><time>2026-04-19T07:41:32.001Z</time></trkpt><trkpt lat="45.11799997833299" lon="11.389160024554725"><ele>8.0</ele><time>2026-04-19T07:41:33.001Z</time></trkpt><trkpt lat="45.117799475583574" lon="11.389418668785066"><ele>8.0</ele><time>2026-04-19T07:41:34.001Z</time></trkpt><trkpt lat="45.11759835037703" lon="11.389677026296438"><ele>7.5</ele><time>2026-04-19T07:41:35.001Z</time></trkpt><trkpt lat="45.117394780320225" lon="11.389936729151577"><ele>7.0</ele><time>2026-04-19T07:41:36.001Z</time></trkpt><trkpt lat="45.11718994161798" lon="11.390197575570872"><ele>7.0</ele><time>2026-04-19T07:41:37.001Z</time></trkpt><trkpt lat="45.116984988222825" lon="11.390460066837385"><ele>7.0</ele><time>2026-04-19T07:41:38.001Z</time></trkpt><trkpt lat="45.116779208178905" lon="11.390725482219874"><ele>7.5</ele><time>2026-04-19T07:41:39.001Z</time></trkpt><trkpt lat="45.11657549577301" lon="11.390990232320886"><ele>8.0</ele><time>2026-04-19T07:41:40.001Z</time></trkpt><trkpt lat="45.116372099375624" lon="11.391251504773855"><ele>9.0</ele><time>2026-04-19T07:41:41.001Z</time></trkpt><trkpt lat="45.11616845203777" lon="11.391511649817495"><ele>10.0</ele><time>2026-04-19T07:41:42.001Z</time></trkpt><trkpt lat="45.11596133304546" lon="11.391775975295195"><ele>10.0</ele><time>2026-04-19T07:41:43.001Z</time></trkpt><trkpt lat="45.115751554751924" lon="11.392041651061522"><ele>10.0</ele><time>2026-04-19T07:41:44.001Z</time></trkpt><trkpt lat="45.11554433981309" lon="11.392307704926747"><ele>10.0</ele><time>2026-04-19T07:41:45.001Z</time></trkpt><trkpt lat="45.11533995129674" lon="11.3925706520751"><ele>10.0</ele><time>2026-04-19T07:41:46.001Z</time></trkpt><trkpt lat="45.11513597109357" lon="11.392828370401567"><ele>9.0</ele><time>2026-04-19T07:41:47.001Z</time></trkpt><trkpt lat="45.11493384409995" lon="11.393083335998664"><ele>8.0</ele><time>2026-04-19T07:41:48.001Z</time></trkpt><trkpt lat="45.11473348244089" lon="11.39333696773006"><ele>8.0</ele><time>2026-04-19T07:41:49.001Z</time></trkpt><trkpt lat="45.11453317024405" lon="11.393593518289508"><ele>8.0</ele><time>2026-04-19T07:41:50.001Z</time></trkpt><trkpt lat="45.11433405510515" lon="11.393848787049464"><ele>8.0</ele><time>2026-04-19T07:41:51.001Z</time></trkpt><trkpt lat="45.114137362115805" lon="11.394103810728916"><ele>8.0</ele><time>2026-04-19T07:41:52.001Z</time></trkpt><trkpt lat="45.11394177300404" lon="11.39435691080875"><ele>8.0</ele><time>2026-04-19T07:41:53.001Z</time></trkpt><trkpt lat="45.113741166050616" lon="11.394607823521115"><ele>8.0</ele><time>2026-04-19T07:41:54.001Z</time></trkpt><trkpt lat="45.11354012647163" lon="11.394865461188493"><ele>8.0</ele><time>2026-04-19T07:41:55.001Z</time></trkpt><trkpt lat="45.1133408998013" lon="11.395124222611939"><ele>8.0</ele><time>2026-04-19T07:41:56Z</time></trkpt><trkpt lat="45.113144924469054" lon="11.395382023289574"><ele>8.0</ele><time>2026-04-19T07:41:57Z</time></trkpt><trkpt lat="45.11294862756733" lon="11.395641078492794"><ele>8.0</ele><time>2026-04-19T07:41:58Z</time></trkpt><trkpt lat="45.11275156944041" lon="11.395898343273513"><ele>8.0</ele><time>2026-04-19T07:41:59Z</time></trkpt><trkpt lat="45.11255389521758" lon="11.39615929225882"><ele>8.0</ele><time>2026-04-19T07:42:00Z</time></trkpt><trkpt lat="45.11235529029376" lon="11.396427971305803"><ele>7.0</ele><time>2026-04-19T07:42:01Z</time></trkpt><trkpt lat="45.112160818916145" lon="11.396699569119333"><ele>6.0</ele><time>2026-04-19T07:42:02Z</time></trkpt><trkpt lat="45.111968653245285" lon="11.396975689559032"><ele>7.0</ele><time>2026-04-19T07:42:03Z</time></trkpt><trkpt lat="45.11177744210905" lon="11.39725241140533"><ele>8.0</ele><time>2026-04-19T07:42:04Z</time></trkpt><trkpt lat="45.111591148360525" lon="11.397528679445825"><ele>8.0</ele><time>2026-04-19T07:42:05Z</time></trkpt><trkpt lat="45.111403631258874" lon="11.397810712100823"><ele>8.0</ele><time>2026-04-19T07:42:06Z</time></trkpt><trkpt lat="45.1112183544865" lon="11.398098735303849"><ele>7.5</ele><time>2026-04-19T07:42:07Z</time></trkpt><trkpt lat="45.111032772693754" lon="11.398390528877503"><ele>7.0</ele><time>2026-04-19T07:42:08Z</time></trkpt><trkpt lat="45.11084832223183" lon="11.39868753060186"><ele>8.0</ele><time>2026-04-19T07:42:09Z</time></trkpt><trkpt lat="45.11066478653706" lon="11.398990081670878"><ele>9.0</ele><time>2026-04-19T07:42:10Z</time></trkpt><trkpt lat="45.11048322174847" lon="11.399294333060517"><ele>9.0</ele><time>2026-04-19T07:42:11Z</time></trkpt><trkpt lat="45.110305769421615" lon="11.39959790033614"><ele>9.0</ele><time>2026-04-19T07:42:12Z</time></trkpt><trkpt lat="45.11013107594784" lon="11.399900352797193"><ele>8.5</ele><time>2026-04-19T07:42:13Z</time></trkpt><trkpt lat="45.10996044982234" lon="11.400200912406579"><ele>8.0</ele><time>2026-04-19T07:42:14Z</time></trkpt><trkpt lat="45.109792715996726" lon="11.400502123198807"><ele>8.0</ele><time>2026-04-19T07:42:15Z</time></trkpt><trkpt lat="45.10962736999885" lon="11.400806782768376"><ele>8.0</ele><time>2026-04-19T07:42:16Z</time></trkpt><trkpt lat="45.10946210545903" lon="11.401113825442012"><ele>8.5</ele><time>2026-04-19T07:42:17Z</time></trkpt><trkpt lat="45.10929655584174" lon="11.401420001620517"><ele>9.0</ele><time>2026-04-19T07:42:18Z</time></trkpt><trkpt lat="45.1091329522131" lon="11.401727108420948"><ele>8.0</ele><time>2026-04-19T07:42:19Z</time></trkpt><trkpt lat="45.10897141700554" lon="11.402031307438563"><ele>7.0</ele><time>2026-04-19T07:42:20Z</time></trkpt><trkpt lat="45.108814782386446" lon="11.402330269701816"><ele>7.0</ele><time>2026-04-19T07:42:21Z</time></trkpt><trkpt lat="45.108655227733614" lon="11.402627527561025"><ele>7.0</ele><time>2026-04-19T07:42:22Z</time></trkpt><trkpt lat="45.10849557737717" lon="11.402923089206098"><ele>7.0</ele><time>2026-04-19T07:42:23Z</time></trkpt><trkpt lat="45.108332211314675" lon="11.403223847079863"><ele>7.0</ele><time>2026-04-19T07:42:24Z</time></trkpt><trkpt lat="45.108169162463746" lon="11.403527069051904"><ele>7.0</ele><time>2026-04-19T07:42:25Z</time></trkpt><trkpt lat="45.108001851741875" lon="11.403833933509802"><ele>7.0</ele><time>2026-04-19T07:42:26Z</time></trkpt><trkpt lat="45.10783254423154" lon="11.404144557143555"><ele>7.0</ele><time>2026-04-19T07:42:27Z</time></trkpt><trkpt lat="45.10766692138201" lon="11.404456116258126"><ele>7.0</ele><time>2026-04-19T07:42:28Z</time></trkpt><trkpt lat="45.10750033415377" lon="11.404768390247817"><ele>7.0</ele><time>2026-04-19T07:42:29Z</time></trkpt><trkpt lat="45.107333059743034" lon="11.405080304944125"><ele>7.0</ele><time>2026-04-19T07:42:30Z</time></trkpt><trkpt lat="45.107166688357935" lon="11.405390796417478"><ele>7.5</ele><time>2026-04-19T07:42:31Z</time></trkpt><trkpt lat="45.10700123142437" lon="11.405697155409657"><ele>8.0</ele><time>2026-04-19T07:42:32Z</time></trkpt><trkpt lat="45.10683951296885" lon="11.40600308590302"><ele>8.0</ele><time>2026-04-19T07:42:33Z</time></trkpt><trkpt lat="45.10667704082323" lon="11.406305771984231"><ele>8.0</ele><time>2026-04-19T07:42:34Z</time></trkpt><trkpt lat="45.1065142271498" lon="11.406607138806242"><ele>8.0</ele><time>2026-04-19T07:42:35Z</time></trkpt><trkpt lat="45.106351389993144" lon="11.406913051087711"><ele>8.0</ele><time>2026-04-19T07:42:36Z</time></trkpt><trkpt lat="45.10618659613953" lon="11.407221207339758"><ele>8.0</ele><time>2026-04-19T07:42:37Z</time></trkpt><trkpt lat="45.106019491741726" lon="11.407529494581643"><ele>8.0</ele><time>2026-04-19T07:42:38Z</time></trkpt><trkpt lat="45.10584971793617" lon="11.407838538567203"><ele>8.0</ele><time>2026-04-19T07:42:39Z</time></trkpt><trkpt lat="45.10567968388692" lon="11.408149274872805"><ele>8.0</ele><time>2026-04-19T07:42:40Z</time></trkpt><trkpt lat="45.10551325306323" lon="11.408456281736285"><ele>8.0</ele><time>2026-04-19T07:42:41Z</time></trkpt><trkpt lat="45.10535219297274" lon="11.408759258593099"><ele>8.0</ele><time>2026-04-19T07:42:42Z</time></trkpt><trkpt lat="45.10519010591982" lon="11.409061538187007"><ele>8.5</ele><time>2026-04-19T07:42:43Z</time></trkpt><trkpt lat="45.105026073379804" lon="11.409367402099697"><ele>9.0</ele><time>2026-04-19T07:42:44Z</time></trkpt><trkpt lat="45.10486031794563" lon="11.409677162514607"><ele>9.0</ele><time>2026-04-19T07:42:45Z</time></trkpt><trkpt lat="45.104693371152045" lon="11.409990549100144"><ele>9.0</ele><time>2026-04-19T07:42:46Z</time></trkpt><trkpt lat="45.10452468029046" lon="11.410306815808573"><ele>9.0</ele><time>2026-04-19T07:42:47.001Z</time></trkpt><trkpt lat="45.10435327536366" lon="11.410625003301655"><ele>9.0</ele><time>2026-04-19T07:42:48.001Z</time></trkpt><trkpt lat="45.10418267483328" lon="11.410943642861639"><ele>8.5</ele><time>2026-04-19T07:42:49.001Z</time></trkpt><trkpt lat="45.10401060227492" lon="11.411261958499978"><ele>8.0</ele><time>2026-04-19T07:42:50.001Z</time></trkpt><trkpt lat="45.10383842227904" lon="11.411582290769374"><ele>8.0</ele><time>2026-04-19T07:42:51.001Z</time></trkpt><trkpt lat="45.10366431830198" lon="11.411904082946027"><ele>8.0</ele><time>2026-04-19T07:42:52.001Z</time></trkpt><trkpt lat="45.103491699444874" lon="11.41222473808786"><ele>8.0</ele><time>2026-04-19T07:42:53.001Z</time></trkpt><trkpt lat="45.103322182247" lon="11.41254013856223"><ele>8.0</ele><time>2026-04-19T07:42:54.001Z</time></trkpt><trkpt lat="45.10315320769527" lon="11.412853422610562"><ele>8.5</ele><time>2026-04-19T07:42:55.001Z</time></trkpt><trkpt lat="45.102983529760714" lon="11.413166275662054"><ele>9.0</ele><time>2026-04-19T07:42:56.001Z</time></trkpt><trkpt lat="45.10281312217054" lon="11.413480632625904"><ele>9.0</ele><time>2026-04-19T07:42:57.001Z</time></trkpt><trkpt lat="45.102642985116155" lon="11.413791116007271"><ele>9.0</ele><time>2026-04-19T07:42:58.001Z</time></trkpt><trkpt lat="45.10247479824183" lon="11.414105443941866"><ele>8.5</ele><time>2026-04-19T07:42:59.001Z</time></trkpt><trkpt lat="45.102304525742966" lon="11.414418201158233"><ele>8.0</ele><time>2026-04-19T07:43:00.001Z</time></trkpt><trkpt lat="45.10213771505945" lon="11.414729134176378"><ele>7.5</ele><time>2026-04-19T07:43:01.001Z</time></trkpt><trkpt lat="45.101969904089046" lon="11.415040674256069"><ele>7.0</ele><time>2026-04-19T07:43:02.001Z</time></trkpt><trkpt lat="45.10180217449987" lon="11.415354038357842"><ele>6.5</ele><time>2026-04-19T07:43:03.001Z</time></trkpt><trkpt lat="45.1016331282777" lon="11.415667817585762"><ele>6.0</ele><time>2026-04-19T07:43:04.001Z</time></trkpt><trkpt lat="45.10146554114117" lon="11.415979481955874"><ele>6.5</ele><time>2026-04-19T07:43:05.001Z</time></trkpt><trkpt lat="45.101299537346165" lon="11.416291535841061"><ele>7.0</ele><time>2026-04-19T07:43:06.001Z</time></trkpt><trkpt lat="45.10113207676382" lon="11.416601693300889"><ele>7.0</ele><time>2026-04-19T07:43:07.001Z</time></trkpt><trkpt lat="45.10096649811155" lon="11.416908382744845"><ele>7.0</ele><time>2026-04-19T07:43:08.001Z</time></trkpt><trkpt lat="45.10080132904033" lon="11.417214997365695"><ele>7.5</ele><time>2026-04-19T07:43:09.001Z</time></trkpt><trkpt lat="45.10063401043546" lon="11.417523421466676"><ele>8.0</ele><time>2026-04-19T07:43:10.001Z</time></trkpt><trkpt lat="45.100468797627805" lon="11.417830904042917"><ele>8.0</ele><time>2026-04-19T07:43:11.001Z</time></trkpt><trkpt lat="45.10030456391213" lon="11.418137302598078"><ele>8.0</ele><time>2026-04-19T07:43:12.001Z</time></trkpt><trkpt lat="45.10013713358193" lon="11.418444525484135"><ele>8.0</ele><time>2026-04-19T07:43:13.001Z</time></trkpt><trkpt lat="45.09997329505697" lon="11.418746547311303"><ele>8.0</ele><time>2026-04-19T07:43:14.001Z</time></trkpt><trkpt lat="45.099818687837875" lon="11.419032118021892"><ele>7.5</ele><time>2026-04-19T07:43:15.001Z</time></trkpt><trkpt lat="45.099664911473326" lon="11.419313933704231"><ele>7.0</ele><time>2026-04-19T07:43:16.001Z</time></trkpt><trkpt lat="45.099512664794666" lon="11.419596735155858"><ele>7.0</ele><time>2026-04-19T07:43:17.001Z</time></trkpt><trkpt lat="45.09935546298575" lon="11.419886751370239"><ele>7.0</ele><time>2026-04-19T07:43:18.001Z</time></trkpt><trkpt lat="45.09919474023665" lon="11.420184927034308"><ele>7.0</ele><time>2026-04-19T07:43:19.001Z</time></trkpt><trkpt lat="45.0990292722549" lon="11.420495562919301"><ele>7.0</ele><time>2026-04-19T07:43:20.001Z</time></trkpt><trkpt lat="45.09886337081862" lon="11.42081134573791"><ele>7.0</ele><time>2026-04-19T07:43:21.001Z</time></trkpt><trkpt lat="45.0986974168492" lon="11.421121568431568"><ele>7.0</ele><time>2026-04-19T07:43:22.001Z</time></trkpt><trkpt lat="45.09852713705906" lon="11.421430794953984"><ele>7.0</ele><time>2026-04-19T07:43:23.001Z</time></trkpt><trkpt lat="45.0983564650701" lon="11.421743015414425"><ele>7.0</ele><time>2026-04-19T07:43:24.001Z</time></trkpt><trkpt lat="45.09818927606631" lon="11.422057249405158"><ele>7.5</ele><time>2026-04-19T07:43:25.001Z</time></trkpt><trkpt lat="45.09802207957053" lon="11.422377483689846"><ele>8.0</ele><time>2026-04-19T07:43:26.001Z</time></trkpt><trkpt lat="45.097858698294665" lon="11.422702210228863"><ele>8.0</ele><time>2026-04-19T07:43:27.001Z</time></trkpt><trkpt lat="45.097696453848265" lon="11.423034921703309"><ele>8.0</ele><time>2026-04-19T07:43:28.001Z</time></trkpt><trkpt lat="45.097534787930755" lon="11.42337840008938"><ele>8.0</ele><time>2026-04-19T07:43:29.001Z</time></trkpt><trkpt lat="45.097380883745345" lon="11.423723222903433"><ele>8.0</ele><time>2026-04-19T07:43:30.001Z</time></trkpt><trkpt lat="45.09723309349049" lon="11.424064964593327"><ele>8.0</ele><time>2026-04-19T07:43:31.001Z</time></trkpt><trkpt lat="45.0970969678492" lon="11.424394056549332"><ele>8.0</ele><time>2026-04-19T07:43:32.001Z</time></trkpt><trkpt lat="45.09696738393726" lon="11.424720388844909"><ele>7.0</ele><time>2026-04-19T07:43:33.001Z</time></trkpt><trkpt lat="45.09684151407294" lon="11.425052857762227"><ele>6.0</ele><time>2026-04-19T07:43:34.001Z</time></trkpt><trkpt lat="45.09672234703194" lon="11.42538642295312"><ele>6.5</ele><time>2026-04-19T07:43:35.001Z</time></trkpt><trkpt lat="45.09660821815119" lon="11.425723651155494"><ele>7.0</ele><time>2026-04-19T07:43:36.001Z</time></trkpt><trkpt lat="45.09649748552434" lon="11.426070335858496"><ele>7.5</ele><time>2026-04-19T07:43:37.001Z</time></trkpt><trkpt lat="45.09639132618143" lon="11.42641706517436"><ele>8.0</ele><time>2026-04-19T07:43:38.001Z</time></trkpt><trkpt lat="45.096292717254634" lon="11.426762657276406"><ele>8.0</ele><time>2026-04-19T07:43:39.001Z</time></trkpt><trkpt lat="45.09619945244072" lon="11.427105929079035"><ele>8.0</ele><time>2026-04-19T07:43:40.001Z</time></trkpt><trkpt lat="45.096112268062654" lon="11.4274513015875"><ele>8.0</ele><time>2026-04-19T07:43:41.001Z</time></trkpt><trkpt lat="45.0960285357141" lon="11.42780001631742"><ele>8.0</ele><time>2026-04-19T07:43:42.001Z</time></trkpt><trkpt lat="45.0959489446864" lon="11.428156904457955"><ele>8.5</ele><time>2026-04-19T07:43:43.001Z</time></trkpt><trkpt lat="45.095874042381105" lon="11.428517460453715"><ele>9.0</ele><time>2026-04-19T07:43:44.001Z</time></trkpt><trkpt lat="45.09580365315893" lon="11.428877388250536"><ele>9.0</ele><time>2026-04-19T07:43:45.001Z</time></trkpt><trkpt lat="45.09573880994004" lon="11.429227467657388"><ele>9.0</ele><time>2026-04-19T07:43:46.001Z</time></trkpt><trkpt lat="45.095676804546734" lon="11.429576412761975"><ele>9.0</ele><time>2026-04-19T07:43:47.001Z</time></trkpt><trkpt lat="45.09561754595012" lon="11.42993099395409"><ele>9.0</ele><time>2026-04-19T07:43:48.001Z</time></trkpt><trkpt lat="45.09556148915163" lon="11.430287144955154"><ele>9.5</ele><time>2026-04-19T07:43:49.001Z</time></trkpt><trkpt lat="45.09550398510785" lon="11.430647104427578"><ele>10.0</ele><time>2026-04-19T07:43:50.001Z</time></trkpt><trkpt lat="45.09544548314267" lon="11.431003772031005"><ele>10.0</ele><time>2026-04-19T07:43:51.001Z</time></trkpt><trkpt lat="45.09538791961583" lon="11.431357869065014"><ele>10.0</ele><time>2026-04-19T07:43:52.001Z</time></trkpt><trkpt lat="45.09532958784314" lon="11.431712979282052"><ele>10.0</ele><time>2026-04-19T07:43:53.001Z</time></trkpt><trkpt lat="45.09527267631431" lon="11.432065245016421"><ele>10.0</ele><time>2026-04-19T07:43:54.001Z</time></trkpt><trkpt lat="45.095214057518824" lon="11.432420650956258"><ele>10.5</ele><time>2026-04-19T07:43:55.001Z</time></trkpt><trkpt lat="45.09515431947482" lon="11.432781753704848"><ele>11.0</ele><time>2026-04-19T07:43:56.001Z</time></trkpt><trkpt lat="45.095092971854356" lon="11.43314982755914"><ele>11.0</ele><time>2026-04-19T07:43:57.001Z</time></trkpt><trkpt lat="45.09503390479792" lon="11.433517228104945"><ele>11.0</ele><time>2026-04-19T07:43:58.001Z</time></trkpt><trkpt lat="45.09497086670407" lon="11.433889650198806"><ele>9.5</ele><time>2026-04-19T07:43:59.001Z</time></trkpt><trkpt lat="45.09490709271534" lon="11.434265602673339"><ele>8.0</ele><time>2026-04-19T07:44:00.001Z</time></trkpt><trkpt lat="45.094844816163594" lon="11.434644932437353"><ele>8.0</ele><time>2026-04-19T07:44:01.001Z</time></trkpt><trkpt lat="45.0947808720805" lon="11.435024076676383"><ele>8.0</ele><time>2026-04-19T07:44:02Z</time></trkpt><trkpt lat="45.094717932268836" lon="11.435403734118635"><ele>8.5</ele><time>2026-04-19T07:44:03Z</time></trkpt><trkpt lat="45.094656156449524" lon="11.435791090591408"><ele>9.0</ele><time>2026-04-19T07:44:04Z</time></trkpt><trkpt lat="45.09459593426788" lon="11.436181725782882"><ele>9.0</ele><time>2026-04-19T07:44:05Z</time></trkpt><trkpt lat="45.09453021209153" lon="11.436577547575569"><ele>9.0</ele><time>2026-04-19T07:44:06Z</time></trkpt><trkpt lat="45.09446354282552" lon="11.436977252780911"><ele>9.5</ele><time>2026-04-19T07:44:07Z</time></trkpt><trkpt lat="45.09439786220144" lon="11.437382639741388"><ele>10.0</ele><time>2026-04-19T07:44:08Z</time></trkpt><trkpt lat="45.0943277234659" lon="11.43778274859335"><ele>9.0</ele><time>2026-04-19T07:44:09Z</time></trkpt><trkpt lat="45.09426318728135" lon="11.438182251612911"><ele>8.0</ele><time>2026-04-19T07:44:10Z</time></trkpt><trkpt lat="45.09419827074536" lon="11.438579382052792"><ele>8.0</ele><time>2026-04-19T07:44:11Z</time></trkpt><trkpt lat="45.09413374401068" lon="11.438971456155459"><ele>8.0</ele><time>2026-04-19T07:44:12Z</time></trkpt><trkpt lat="45.09406973156493" lon="11.439355218989684"><ele>8.5</ele><time>2026-04-19T07:44:13Z</time></trkpt><trkpt lat="45.094009763276695" lon="11.439731046491078"><ele>9.0</ele><time>2026-04-19T07:44:14Z</time></trkpt><trkpt lat="45.09394958180831" lon="11.440104182630368"><ele>9.0</ele><time>2026-04-19T07:44:15Z</time></trkpt><trkpt lat="45.09389165643107" lon="11.44047509213678"><ele>9.0</ele><time>2026-04-19T07:44:16Z</time></trkpt><trkpt lat="45.0938298996273" lon="11.440836592404823"><ele>9.0</ele><time>2026-04-19T07:44:17Z</time></trkpt><trkpt lat="45.0937744511538" lon="11.441200116060962"><ele>9.0</ele><time>2026-04-19T07:44:18Z</time></trkpt><trkpt lat="45.09371831559229" lon="11.441561689339752"><ele>9.5</ele><time>2026-04-19T07:44:19Z</time></trkpt><trkpt lat="45.093660408660874" lon="11.441921381876632"><ele>10.0</ele><time>2026-04-19T07:44:20Z</time></trkpt><trkpt lat="45.093598523058134" lon="11.442277218839651"><ele>10.0</ele><time>2026-04-19T07:44:21Z</time></trkpt><trkpt lat="45.09353909992671" lon="11.442638401920002"><ele>10.0</ele><time>2026-04-19T07:44:22Z</time></trkpt><trkpt lat="45.0934812704675" lon="11.443003902027975"><ele>9.5</ele><time>2026-04-19T07:44:23Z</time></trkpt><trkpt lat="45.0934182412451" lon="11.443370268072286"><ele>9.0</ele><time>2026-04-19T07:44:24Z</time></trkpt><trkpt lat="45.09335590807397" lon="11.443744598595753"><ele>9.0</ele><time>2026-04-19T07:44:25Z</time></trkpt><trkpt lat="45.093295833195434" lon="11.4441225993693"><ele>9.0</ele><time>2026-04-19T07:44:26Z</time></trkpt><trkpt lat="45.093234099637584" lon="11.444499333533392"><ele>8.5</ele><time>2026-04-19T07:44:27Z</time></trkpt><trkpt lat="45.09317203872984" lon="11.444876539038159"><ele>8.0</ele><time>2026-04-19T07:44:28Z</time></trkpt><trkpt lat="45.09311363974773" lon="11.445257776532493"><ele>8.5</ele><time>2026-04-19T07:44:29Z</time></trkpt><trkpt lat="45.09305232390898" lon="11.445638539875626"><ele>9.0</ele><time>2026-04-19T07:44:30Z</time></trkpt><trkpt lat="45.092989897684554" lon="11.446020925212041"><ele>9.0</ele><time>2026-04-19T07:44:31Z</time></trkpt><trkpt lat="45.09292978810286" lon="11.446402576178484"><ele>9.0</ele><time>2026-04-19T07:44:32Z</time></trkpt><trkpt lat="45.09286959734511" lon="11.446791866997593"><ele>8.0</ele><time>2026-04-19T07:44:33Z</time></trkpt><trkpt lat="45.09280806658461" lon="11.447185822008395"><ele>7.0</ele><time>2026-04-19T07:44:34Z</time></trkpt><trkpt lat="45.0927434505006" lon="11.447584831308456"><ele>6.5</ele><time>2026-04-19T07:44:35Z</time></trkpt><trkpt lat="45.09266372545926" lon="11.447985186152971"><ele>6.0</ele><time>2026-04-19T07:44:36Z</time></trkpt><trkpt lat="45.09257719103412" lon="11.448383712388877"><ele>6.0</ele><time>2026-04-19T07:44:37Z</time></trkpt><trkpt lat="45.092477945476205" lon="11.448782602135015"><ele>6.0</ele><time>2026-04-19T07:44:38Z</time></trkpt><trkpt lat="45.09237164877269" lon="11.449156016111203"><ele>6.5</ele><time>2026-04-19T07:44:39Z</time></trkpt><trkpt lat="45.0922491989866" lon="11.44955559358404"><ele>7.0</ele><time>2026-04-19T07:44:40Z</time></trkpt><trkpt lat="45.09211689215781" lon="11.449928965762707"><ele>6.5</ele><time>2026-04-19T07:44:41.001Z</time></trkpt><trkpt lat="45.09197413026762" lon="11.450300998950729"><ele>6.0</ele><time>2026-04-19T07:44:42.001Z</time></trkpt><trkpt lat="45.09182840394845" lon="11.450670028987563"><ele>6.0</ele><time>2026-04-19T07:44:43.001Z</time></trkpt><trkpt lat="45.091679895197494" lon="11.451028274298592"><ele>6.0</ele><time>2026-04-19T07:44:44.001Z</time></trkpt><trkpt lat="45.09152746801743" lon="11.451365619649179"><ele>5.5</ele><time>2026-04-19T07:44:45.001Z</time></trkpt><trkpt lat="45.09137356508612" lon="11.451682170848567"><ele>5.0</ele><time>2026-04-19T07:44:46.001Z</time></trkpt><trkpt lat="45.09122006277158" lon="11.451980787548017"><ele>6.0</ele><time>2026-04-19T07:44:47.001Z</time></trkpt><trkpt lat="45.091060701159755" lon="11.452268671120963"><ele>7.0</ele><time>2026-04-19T07:44:48.001Z</time></trkpt><trkpt lat="45.09089520892622" lon="11.4525517038091"><ele>7.0</ele><time>2026-04-19T07:44:49.001Z</time></trkpt><trkpt lat="45.09072022722444" lon="11.45283444931935"><ele>7.0</ele><time>2026-04-19T07:44:50.001Z</time></trkpt><trkpt lat="45.09053632469654" lon="11.453118695570875"><ele>7.0</ele><time>2026-04-19T07:44:51.001Z</time></trkpt><trkpt lat="45.09034983481646" lon="11.45338953855221"><ele>7.0</ele><time>2026-04-19T07:44:52.001Z</time></trkpt><trkpt lat="45.090162229596366" lon="11.453644848205457"><ele>7.0</ele><time>2026-04-19T07:44:53.001Z</time></trkpt><trkpt lat="45.0899697471041" lon="11.453897423738944"><ele>7.0</ele><time>2026-04-19T07:44:54.001Z</time></trkpt><trkpt lat="45.08977663880502" lon="11.454145605952267"><ele>7.0</ele><time>2026-04-19T07:44:55.001Z</time></trkpt><trkpt lat="45.08958295459741" lon="11.454395167329547"><ele>7.0</ele><time>2026-04-19T07:44:56.001Z</time></trkpt><trkpt lat="45.089388262655035" lon="11.454644931969797"><ele>8.0</ele><time>2026-04-19T07:44:57.001Z</time></trkpt><trkpt lat="45.089194841480214" lon="11.454894931025095"><ele>9.0</ele><time>2026-04-19T07:44:58.001Z</time></trkpt><trkpt lat="45.08900352185883" lon="11.455148428258283"><ele>9.5</ele><time>2026-04-19T07:44:59.001Z</time></trkpt><trkpt lat="45.08881170036129" lon="11.45540199077337"><ele>10.0</ele><time>2026-04-19T07:45:00.001Z</time></trkpt><trkpt lat="45.08861766071827" lon="11.455655086349134"><ele>9.0</ele><time>2026-04-19T07:45:01.001Z</time></trkpt><trkpt lat="45.088423142934936" lon="11.455907608155595"><ele>8.0</ele><time>2026-04-19T07:45:02.001Z</time></trkpt><trkpt lat="45.088227331995924" lon="11.456164034074135"><ele>7.5</ele><time>2026-04-19T07:45:03.001Z</time></trkpt><trkpt lat="45.088028902819694" lon="11.45642284350354"><ele>7.0</ele><time>2026-04-19T07:45:04.001Z</time></trkpt><trkpt lat="45.08783257059056" lon="11.456681641321493"><ele>7.0</ele><time>2026-04-19T07:45:05.001Z</time></trkpt><trkpt lat="45.08763691909458" lon="11.456940208898196"><ele>7.0</ele><time>2026-04-19T07:45:06.001Z</time></trkpt><trkpt lat="45.08743817271535" lon="11.457201181335789"><ele>7.0</ele><time>2026-04-19T07:45:07.001Z</time></trkpt><trkpt lat="45.08723807349577" lon="11.457465531875544"><ele>7.0</ele><time>2026-04-19T07:45:08.001Z</time></trkpt><trkpt lat="45.087036604256795" lon="11.457739008354284"><ele>7.0</ele><time>2026-04-19T07:45:09.001Z</time></trkpt><trkpt lat="45.08683545976206" lon="11.458009513422326"><ele>7.0</ele><time>2026-04-19T07:45:10.001Z</time></trkpt><trkpt lat="45.086632571853485" lon="11.458288904503089"><ele>7.0</ele><time>2026-04-19T07:45:11.001Z</time></trkpt><trkpt lat="45.08642485335247" lon="11.458586252547148"><ele>7.0</ele><time>2026-04-19T07:45:12.001Z</time></trkpt><trkpt lat="45.08622016081693" lon="11.45888947608762"><ele>6.5</ele><time>2026-04-19T07:45:13.001Z</time></trkpt><trkpt lat="45.08602011874574" lon="11.459199683939488"><ele>6.0</ele><time>2026-04-19T07:45:14.001Z</time></trkpt><trkpt lat="45.08581943725014" lon="11.459511254540983"><ele>5.0</ele><time>2026-04-19T07:45:15.001Z</time></trkpt><trkpt lat="45.08562505898867" lon="11.459824061554798"><ele>4.0</ele><time>2026-04-19T07:45:16.001Z</time></trkpt><trkpt lat="45.08543481032311" lon="11.460133417394816"><ele>4.0</ele><time>2026-04-19T07:45:17.001Z</time></trkpt><trkpt lat="45.08524866358548" lon="11.460447490682094"><ele>4.0</ele><time>2026-04-19T07:45:18.001Z</time></trkpt><trkpt lat="45.08506622190233" lon="11.460760274369306"><ele>5.0</ele><time>2026-04-19T07:45:19.001Z</time></trkpt><trkpt lat="45.08488727158507" lon="11.46107277727148"><ele>6.0</ele><time>2026-04-19T07:45:20.001Z</time></trkpt><trkpt lat="45.08471134904812" lon="11.461384479400557"><ele>7.0</ele><time>2026-04-19T07:45:21.001Z</time></trkpt><trkpt lat="45.08453477907068" lon="11.461701133062725"><ele>8.0</ele><time>2026-04-19T07:45:22.001Z</time></trkpt><trkpt lat="45.08435981514181" lon="11.462023014785022"><ele>8.0</ele><time>2026-04-19T07:45:23.001Z</time></trkpt><trkpt lat="45.08418734587133" lon="11.462343955414589"><ele>8.0</ele><time>2026-04-19T07:45:24.001Z</time></trkpt><trkpt lat="45.08401580154977" lon="11.462663093148741"><ele>8.5</ele><time>2026-04-19T07:45:25.001Z</time></trkpt><trkpt lat="45.08384747690247" lon="11.462977741264075"><ele>9.0</ele><time>2026-04-19T07:45:26.001Z</time></trkpt><trkpt lat="45.08368604623485" lon="11.463277117557519"><ele>9.0</ele><time>2026-04-19T07:45:27.001Z</time></trkpt><trkpt lat="45.083529705912326" lon="11.463559527138852"><ele>9.0</ele><time>2026-04-19T07:45:28.001Z</time></trkpt><trkpt lat="45.0833822427391" lon="11.46382597888031"><ele>8.5</ele><time>2026-04-19T07:45:29.001Z</time></trkpt><trkpt lat="45.08323316763785" lon="11.464096181506099"><ele>8.0</ele><time>2026-04-19T07:45:30.001Z</time></trkpt><trkpt lat="45.08308695452128" lon="11.464368388419711"><ele>9.5</ele><time>2026-04-19T07:45:31.001Z</time></trkpt><trkpt lat="45.08294499730869" lon="11.464633610458097"><ele>11.0</ele><time>2026-04-19T07:45:32.001Z</time></trkpt><trkpt lat="45.08280178985177" lon="11.464903896051649"><ele>11.0</ele><time>2026-04-19T07:45:33.001Z</time></trkpt><trkpt lat="45.082654744243975" lon="11.465181111472363"><ele>11.0</ele><time>2026-04-19T07:45:34.001Z</time></trkpt><trkpt lat="45.082502984324584" lon="11.465465180705808"><ele>9.5</ele><time>2026-04-19T07:45:35.001Z</time></trkpt><trkpt lat="45.08234579405534" lon="11.465755446370828"><ele>8.0</ele><time>2026-04-19T07:45:36.001Z</time></trkpt><trkpt lat="45.082183867104675" lon="11.466051753213982"><ele>9.0</ele><time>2026-04-19T07:45:37.001Z</time></trkpt><trkpt lat="45.08201785967971" lon="11.466355816578858"><ele>10.0</ele><time>2026-04-19T07:45:38.001Z</time></trkpt><trkpt lat="45.08184894257853" lon="11.466664244126232"><ele>10.0</ele><time>2026-04-19T07:45:39.001Z</time></trkpt><trkpt lat="45.081677590997764" lon="11.466973250278839"><ele>10.0</ele><time>2026-04-19T07:45:40.001Z</time></trkpt><trkpt lat="45.081510832907455" lon="11.467276163906195"><ele>8.5</ele><time>2026-04-19T07:45:41.001Z</time></trkpt><trkpt lat="45.08134202593935" lon="11.46758483873868"><ele>7.0</ele><time>2026-04-19T07:45:42.001Z</time></trkpt><trkpt lat="45.081168459699896" lon="11.46789934316952"><ele>8.0</ele><time>2026-04-19T07:45:43.001Z</time></trkpt><trkpt lat="45.08099240817955" lon="11.468216560069967"><ele>9.0</ele><time>2026-04-19T07:45:44.001Z</time></trkpt><trkpt lat="45.080810313570964" lon="11.468545814689001"><ele>9.0</ele><time>2026-04-19T07:45:45.001Z</time></trkpt><trkpt lat="45.080625372626166" lon="11.468879900319974"><ele>9.0</ele><time>2026-04-19T07:45:46.001Z</time></trkpt><trkpt lat="45.08043507281987" lon="11.469223500841872"><ele>9.0</ele><time>2026-04-19T07:45:47.001Z</time></trkpt><trkpt lat="45.08024634461671" lon="11.469566302157357"><ele>9.0</ele><time>2026-04-19T07:45:48.001Z</time></trkpt><trkpt lat="45.08006767598735" lon="11.469881791553657"><ele>8.5</ele><time>2026-04-19T07:45:49.001Z</time></trkpt><trkpt lat="45.07989014920295" lon="11.470197660877714"><ele>8.0</ele><time>2026-04-19T07:45:50.001Z</time></trkpt><trkpt lat="45.07971225634097" lon="11.470514239589988"><ele>7.5</ele><time>2026-04-19T07:45:51.001Z</time></trkpt><trkpt lat="45.079535048729085" lon="11.470831024792453"><ele>7.0</ele><time>2026-04-19T07:45:52.001Z</time></trkpt><trkpt lat="45.079357917553345" lon="11.47114423789508"><ele>7.0</ele><time>2026-04-19T07:45:53.001Z</time></trkpt><trkpt lat="45.079181394153565" lon="11.471449721962323"><ele>7.0</ele><time>2026-04-19T07:45:54.001Z</time></trkpt><trkpt lat="45.07901136595996" lon="11.471752522233475"><ele>7.0</ele><time>2026-04-19T07:45:55.001Z</time></trkpt><trkpt lat="45.07884564685875" lon="11.472054016892692"><ele>7.0</ele><time>2026-04-19T07:45:56.001Z</time></trkpt><trkpt lat="45.078679466320104" lon="11.472360731005631"><ele>7.0</ele><time>2026-04-19T07:45:57.001Z</time></trkpt><trkpt lat="45.078509476408485" lon="11.472671020812438"><ele>7.0</ele><time>2026-04-19T07:45:58.001Z</time></trkpt><trkpt lat="45.078336729622094" lon="11.472980022962664"><ele>7.5</ele><time>2026-04-19T07:45:59.001Z</time></trkpt><trkpt lat="45.078169209887555" lon="11.473288382520256"><ele>8.0</ele><time>2026-04-19T07:46:00.001Z</time></trkpt><trkpt lat="45.07800746606142" lon="11.473589380593102"><ele>6.5</ele><time>2026-04-19T07:46:01.001Z</time></trkpt><trkpt lat="45.077850037182486" lon="11.473883763937666"><ele>5.0</ele><time>2026-04-19T07:46:02.001Z</time></trkpt><trkpt lat="45.07769111130917" lon="11.474175799407131"><ele>5.0</ele><time>2026-04-19T07:46:03.001Z</time></trkpt><trkpt lat="45.07752855870209" lon="11.47446567474529"><ele>5.0</ele><time>2026-04-19T07:46:04.001Z</time></trkpt><trkpt lat="45.07736565851717" lon="11.474758632100976"><ele>5.0</ele><time>2026-04-19T07:46:05.001Z</time></trkpt><trkpt lat="45.07720095815145" lon="11.475051200974367"><ele>5.0</ele><time>2026-04-19T07:46:06.001Z</time></trkpt><trkpt lat="45.077033883237334" lon="11.475349156868091"><ele>5.0</ele><time>2026-04-19T07:46:07.001Z</time></trkpt><trkpt lat="45.07686961473224" lon="11.475646917398986"><ele>5.0</ele><time>2026-04-19T07:46:08Z</time></trkpt><trkpt lat="45.07671281189253" lon="11.47594081112864"><ele>5.0</ele><time>2026-04-19T07:46:09Z</time></trkpt><trkpt lat="45.076549704971306" lon="11.476233617620847"><ele>5.0</ele><time>2026-04-19T07:46:10Z</time></trkpt><trkpt lat="45.07638728892787" lon="11.476537449686262"><ele>5.0</ele><time>2026-04-19T07:46:11Z</time></trkpt><trkpt lat="45.07622229179167" lon="11.476841593153189"><ele>5.0</ele><time>2026-04-19T07:46:12Z</time></trkpt><trkpt lat="45.0760550391239" lon="11.47714788981018"><ele>5.0</ele><time>2026-04-19T07:46:13Z</time></trkpt><trkpt lat="45.07588908233019" lon="11.477454359080912"><ele>5.0</ele><time>2026-04-19T07:46:14Z</time></trkpt><trkpt lat="45.07572249798708" lon="11.47775637975785"><ele>5.0</ele><time>2026-04-19T07:46:15Z</time></trkpt><trkpt lat="45.07555715437049" lon="11.478055993482727"><ele>5.0</ele><time>2026-04-19T07:46:16Z</time></trkpt><trkpt lat="45.075391942422876" lon="11.478353700558666"><ele>5.0</ele><time>2026-04-19T07:46:17Z</time></trkpt><trkpt lat="45.07523218491472" lon="11.4786556641565"><ele>5.0</ele><time>2026-04-19T07:46:18Z</time></trkpt><trkpt lat="45.07507505102964" lon="11.478957723575451"><ele>5.0</ele><time>2026-04-19T07:46:19Z</time></trkpt><trkpt lat="45.074916373792874" lon="11.479266349090011"><ele>5.0</ele><time>2026-04-19T07:46:20Z</time></trkpt><trkpt lat="45.07475425595025" lon="11.479590149674229"><ele>5.5</ele><time>2026-04-19T07:46:21Z</time></trkpt><trkpt lat="45.07460616366165" lon="11.479891134311455"><ele>6.0</ele><time>2026-04-19T07:46:22Z</time></trkpt><trkpt lat="45.074468263105146" lon="11.480187478738184"><ele>6.5</ele><time>2026-04-19T07:46:23Z</time></trkpt><trkpt lat="45.07433075598637" lon="11.480489835490312"><ele>7.0</ele><time>2026-04-19T07:46:24Z</time></trkpt><trkpt lat="45.074191394428205" lon="11.48080262564197"><ele>5.5</ele><time>2026-04-19T07:46:25Z</time></trkpt><trkpt lat="45.074046521866144" lon="11.48112215551415"><ele>4.0</ele><time>2026-04-19T07:46:26Z</time></trkpt><trkpt lat="45.073899898122036" lon="11.481457475987016"><ele>4.0</ele><time>2026-04-19T07:46:27Z</time></trkpt><trkpt lat="45.07374927199816" lon="11.481801262785345"><ele>4.0</ele><time>2026-04-19T07:46:28Z</time></trkpt><trkpt lat="45.07359872198881" lon="11.482155404101979"><ele>5.0</ele><time>2026-04-19T07:46:29Z</time></trkpt><trkpt lat="45.07345051481126" lon="11.48250815189457"><ele>6.0</ele><time>2026-04-19T07:46:30Z</time></trkpt><trkpt lat="45.07330467710395" lon="11.482856806131881"><ele>5.5</ele><time>2026-04-19T07:46:31Z</time></trkpt><trkpt lat="45.07315577319489" lon="11.483203302509677"><ele>5.0</ele><time>2026-04-19T07:46:32Z</time></trkpt><trkpt lat="45.073003970214494" lon="11.483542770072354"><ele>5.5</ele><time>2026-04-19T07:46:33Z</time></trkpt><trkpt lat="45.07285729226204" lon="11.483884606284175"><ele>6.0</ele><time>2026-04-19T07:46:34Z</time></trkpt><trkpt lat="45.07271818119954" lon="11.484226553820982"><ele>6.0</ele><time>2026-04-19T07:46:35Z</time></trkpt><trkpt lat="45.07257959090246" lon="11.484566509366452"><ele>6.0</ele><time>2026-04-19T07:46:36Z</time></trkpt><trkpt lat="45.07244503371378" lon="11.4848985790875"><ele>6.0</ele><time>2026-04-19T07:46:37Z</time></trkpt><trkpt lat="45.07231353857882" lon="11.485218149813704"><ele>6.0</ele><time>2026-04-19T07:46:38Z</time></trkpt><trkpt lat="45.072179924307385" lon="11.485530231323514"><ele>5.5</ele><time>2026-04-19T07:46:39Z</time></trkpt><trkpt lat="45.07204479899277" lon="11.48584676501459"><ele>5.0</ele><time>2026-04-19T07:46:40Z</time></trkpt><trkpt lat="45.071909620232134" lon="11.486167580510138"><ele>6.0</ele><time>2026-04-19T07:46:41Z</time></trkpt><trkpt lat="45.07177430383287" lon="11.486494194070396"><ele>7.0</ele><time>2026-04-19T07:46:42Z</time></trkpt><trkpt lat="45.07163890186763" lon="11.48682525005727"><ele>7.0</ele><time>2026-04-19T07:46:43Z</time></trkpt><trkpt lat="45.071501120747115" lon="11.487161438525291"><ele>7.0</ele><time>2026-04-19T07:46:44Z</time></trkpt><trkpt lat="45.0713582608473" lon="11.4875068639449"><ele>7.0</ele><time>2026-04-19T07:46:45Z</time></trkpt><trkpt lat="45.07121074728697" lon="11.487862704252123"><ele>7.0</ele><time>2026-04-19T07:46:46Z</time></trkpt><trkpt lat="45.07105975871848" lon="11.48822388909917"><ele>7.0</ele><time>2026-04-19T07:46:47Z</time></trkpt><trkpt lat="45.07090350025239" lon="11.48858638319204"><ele>7.0</ele><time>2026-04-19T07:46:48Z</time></trkpt><trkpt lat="45.07075168601681" lon="11.488937081713924"><ele>7.0</ele><time>2026-04-19T07:46:49Z</time></trkpt><trkpt lat="45.07059704790089" lon="11.489271646823147"><ele>7.0</ele><time>2026-04-19T07:46:50.001Z</time></trkpt><trkpt lat="45.070440163141434" lon="11.489601586698159"><ele>7.0</ele><time>2026-04-19T07:46:51.001Z</time></trkpt><trkpt lat="45.07028329969295" lon="11.489924951230254"><ele>7.0</ele><time>2026-04-19T07:46:52.001Z</time></trkpt><trkpt lat="45.070126697923115" lon="11.490244866611576"><ele>6.5</ele><time>2026-04-19T07:46:53.001Z</time></trkpt><trkpt lat="45.06997004869317" lon="11.490561114047175"><ele>6.0</ele><time>2026-04-19T07:46:54.001Z</time></trkpt><trkpt lat="45.069810292013734" lon="11.490878329350453"><ele>6.0</ele><time>2026-04-19T07:46:55.001Z</time></trkpt><trkpt lat="45.06965138277046" lon="11.491187370594938"><ele>6.0</ele><time>2026-04-19T07:46:56.001Z</time></trkpt><trkpt lat="45.06948583172839" lon="11.491494785981061"><ele>7.0</ele><time>2026-04-19T07:46:57.001Z</time></trkpt><trkpt lat="45.0693174589989" lon="11.491801407732098"><ele>8.0</ele><time>2026-04-19T07:46:58.001Z</time></trkpt><trkpt lat="45.069143902351264" lon="11.492108237051903"><ele>6.5</ele><time>2026-04-19T07:46:59.001Z</time></trkpt><trkpt lat="45.0689674650815" lon="11.492413486574552"><ele>5.0</ele><time>2026-04-19T07:47:00.001Z</time></trkpt><trkpt lat="45.06879419913557" lon="11.492719977485445"><ele>4.5</ele><time>2026-04-19T07:47:01.001Z</time></trkpt><trkpt lat="45.068623356485226" lon="11.49302388887642"><ele>4.0</ele><time>2026-04-19T07:47:02.001Z</time></trkpt><trkpt lat="45.06845238003461" lon="11.493326853208954"><ele>4.0</ele><time>2026-04-19T07:47:03.001Z</time></trkpt><trkpt lat="45.068279804528004" lon="11.493632407515912"><ele>4.0</ele><time>2026-04-19T07:47:04.001Z</time></trkpt><trkpt lat="45.068109902974044" lon="11.493937082684816"><ele>5.0</ele><time>2026-04-19T07:47:05.001Z</time></trkpt><trkpt lat="45.06793729335292" lon="11.49424845283198"><ele>6.0</ele><time>2026-04-19T07:47:06.001Z</time></trkpt><trkpt lat="45.067768473759145" lon="11.49455306230028"><ele>6.5</ele><time>2026-04-19T07:47:07.001Z</time></trkpt><trkpt lat="45.06759769644012" lon="11.494857513620095"><ele>7.0</ele><time>2026-04-19T07:47:08.001Z</time></trkpt><trkpt lat="45.06742623788992" lon="11.495161833629446"><ele>6.0</ele><time>2026-04-19T07:47:09.001Z</time></trkpt><trkpt lat="45.06725467187358" lon="11.495466160378653"><ele>5.0</ele><time>2026-04-19T07:47:10.001Z</time></trkpt><trkpt lat="45.06708435645334" lon="11.495768037660847"><ele>5.0</ele><time>2026-04-19T07:47:11.001Z</time></trkpt><trkpt lat="45.06691999852256" lon="11.49606270812743"><ele>5.0</ele><time>2026-04-19T07:47:12.001Z</time></trkpt><trkpt lat="45.06675819245374" lon="11.496354221085413"><ele>5.5</ele><time>2026-04-19T07:47:13.001Z</time></trkpt><trkpt lat="45.066593503497856" lon="11.496649075513355"><ele>6.0</ele><time>2026-04-19T07:47:14.001Z</time></trkpt><trkpt lat="45.06642660866402" lon="11.496942457691373"><ele>6.5</ele><time>2026-04-19T07:47:15.001Z</time></trkpt><trkpt lat="45.06626013874663" lon="11.497236935553865"><ele>7.0</ele><time>2026-04-19T07:47:16.001Z</time></trkpt><trkpt lat="45.06609442501815" lon="11.497534804648424"><ele>7.0</ele><time>2026-04-19T07:47:17.001Z</time></trkpt><trkpt lat="45.06592529181319" lon="11.497831525447769"><ele>7.0</ele><time>2026-04-19T07:47:18.001Z</time></trkpt><trkpt lat="45.065761884234746" lon="11.49813301877924"><ele>6.0</ele><time>2026-04-19T07:47:19.001Z</time></trkpt><trkpt lat="45.065596026332756" lon="11.498429498209962"><ele>5.0</ele><time>2026-04-19T07:47:20.001Z</time></trkpt><trkpt lat="45.06543391270158" lon="11.498718730612602"><ele>5.0</ele><time>2026-04-19T07:47:21.001Z</time></trkpt><trkpt lat="45.065269169646875" lon="11.499010551830011"><ele>5.0</ele><time>2026-04-19T07:47:22.001Z</time></trkpt><trkpt lat="45.06510402257004" lon="11.499302567367334"><ele>5.0</ele><time>2026-04-19T07:47:23.001Z</time></trkpt><trkpt lat="45.06494233470792" lon="11.499591610931923"><ele>5.0</ele><time>2026-04-19T07:47:24.001Z</time></trkpt><trkpt lat="45.06477888945175" lon="11.499887398826582"><ele>5.0</ele><time>2026-04-19T07:47:25.001Z</time></trkpt><trkpt lat="45.06461598809072" lon="11.500181554453604"><ele>5.0</ele><time>2026-04-19T07:47:26.001Z</time></trkpt><trkpt lat="45.06445324023955" lon="11.500475394293044"><ele>4.5</ele><time>2026-04-19T07:47:27.001Z</time></trkpt><trkpt lat="45.06428938210588" lon="11.500765652799831"><ele>4.0</ele><time>2026-04-19T07:47:28.001Z</time></trkpt><trkpt lat="45.06412662011963" lon="11.501050075107168"><ele>4.0</ele><time>2026-04-19T07:47:29.001Z</time></trkpt><trkpt lat="45.063964510188526" lon="11.50133945471915"><ele>4.0</ele><time>2026-04-19T07:47:30.001Z</time></trkpt><trkpt lat="45.06380542056055" lon="11.501626086034946"><ele>4.0</ele><time>2026-04-19T07:47:31.001Z</time></trkpt><trkpt lat="45.06364143314214" lon="11.501908735969153"><ele>4.0</ele><time>2026-04-19T07:47:32.001Z</time></trkpt><trkpt lat="45.06348279834625" lon="11.502190554604757"><ele>4.0</ele><time>2026-04-19T07:47:33.001Z</time></trkpt><trkpt lat="45.06332697976425" lon="11.502468359451909"><ele>4.0</ele><time>2026-04-19T07:47:34.001Z</time></trkpt><trkpt lat="45.0631658904179" lon="11.5027568717516"><ele>4.0</ele><time>2026-04-19T07:47:35.001Z</time></trkpt><trkpt lat="45.06300249165077" lon="11.503049836663537"><ele>4.0</ele><time>2026-04-19T07:47:36.001Z</time></trkpt><trkpt lat="45.06283010660043" lon="11.503357337629843"><ele>4.0</ele><time>2026-04-19T07:47:37.001Z</time></trkpt><trkpt lat="45.06264955231526" lon="11.503680073259147"><ele>4.0</ele><time>2026-04-19T07:47:38.001Z</time></trkpt><trkpt lat="45.062454684344374" lon="11.50403156572666"><ele>3.5</ele><time>2026-04-19T07:47:39.001Z</time></trkpt><trkpt lat="45.06226332779684" lon="11.504374882553355"><ele>3.0</ele><time>2026-04-19T07:47:40.001Z</time></trkpt><trkpt lat="45.06208899785484" lon="11.504689984440448"><ele>4.0</ele><time>2026-04-19T07:47:41.001Z</time></trkpt><trkpt lat="45.061916994128076" lon="11.504990099209348"><ele>5.0</ele><time>2026-04-19T07:47:42.001Z</time></trkpt><trkpt lat="45.06175358703595" lon="11.505278919450719"><ele>3.5</ele><time>2026-04-19T07:47:43.001Z</time></trkpt><trkpt lat="45.061588585799775" lon="11.505573681933093"><ele>2.0</ele><time>2026-04-19T07:47:44.001Z</time></trkpt><trkpt lat="45.06142626554148" lon="11.505864257369486"><ele>2.0</ele><time>2026-04-19T07:47:45.001Z</time></trkpt><trkpt lat="45.06126098557165" lon="11.506161093123517"><ele>2.0</ele><time>2026-04-19T07:47:46.001Z</time></trkpt><trkpt lat="45.06109780363775" lon="11.50645239241791"><ele>2.5</ele><time>2026-04-19T07:47:47.001Z</time></trkpt><trkpt lat="45.060930228843475" lon="11.506751021831127"><ele>3.0</ele><time>2026-04-19T07:47:48.001Z</time></trkpt><trkpt lat="45.06076464959521" lon="11.507046133628837"><ele>3.0</ele><time>2026-04-19T07:47:49.001Z</time></trkpt><trkpt lat="45.06059539961633" lon="11.507347964831245"><ele>3.0</ele><time>2026-04-19T07:47:50.001Z</time></trkpt><trkpt lat="45.060425858388825" lon="11.507646907820034"><ele>4.0</ele><time>2026-04-19T07:47:51.001Z</time></trkpt><trkpt lat="45.06025714363536" lon="11.507948308370999"><ele>5.0</ele><time>2026-04-19T07:47:52.001Z</time></trkpt><trkpt lat="45.060086285665854" lon="11.5082547202778"><ele>5.0</ele><time>2026-04-19T07:47:53.001Z</time></trkpt><trkpt lat="45.05991617818506" lon="11.508562133563686"><ele>5.0</ele><time>2026-04-19T07:47:54.001Z</time></trkpt><trkpt lat="45.05974767914103" lon="11.508864950026739"><ele>4.5</ele><time>2026-04-19T07:47:55.001Z</time></trkpt><trkpt lat="45.0595777674427" lon="11.509172312449031"><ele>4.0</ele><time>2026-04-19T07:47:56.001Z</time></trkpt><trkpt lat="45.05940488867605" lon="11.50947761434484"><ele>4.0</ele><time>2026-04-19T07:47:57.001Z</time></trkpt><trkpt lat="45.05923379864877" lon="11.50978437994232"><ele>4.0</ele><time>2026-04-19T07:47:58.001Z</time></trkpt><trkpt lat="45.05906161021031" lon="11.510093778992031"><ele>4.0</ele><time>2026-04-19T07:47:59.001Z</time></trkpt><trkpt lat="45.05888882246204" lon="11.51040270608923"><ele>4.0</ele><time>2026-04-19T07:48:00.001Z</time></trkpt><trkpt lat="45.058717282337746" lon="11.51071130305216"><ele>4.0</ele><time>2026-04-19T07:48:01.001Z</time></trkpt><trkpt lat="45.05854503073521" lon="11.511018103554354"><ele>4.0</ele><time>2026-04-19T07:48:02.001Z</time></trkpt><trkpt lat="45.05837538526783" lon="11.511324874364183"><ele>2.5</ele><time>2026-04-19T07:48:03.001Z</time></trkpt><trkpt lat="45.0582066524822" lon="11.511627985430643"><ele>1.0</ele><time>2026-04-19T07:48:04.001Z</time></trkpt><trkpt lat="45.05803924675712" lon="11.511927387639286"><ele>1.5</ele><time>2026-04-19T07:48:05.001Z</time></trkpt><trkpt lat="45.0578704176704" lon="11.512227709358351"><ele>2.0</ele><time>2026-04-19T07:48:06.001Z</time></trkpt><trkpt lat="45.05770000309587" lon="11.512526568902151"><ele>2.0</ele><time>2026-04-19T07:48:07.001Z</time></trkpt><trkpt lat="45.05752950173656" lon="11.512827495384474"><ele>2.0</ele><time>2026-04-19T07:48:08.001Z</time></trkpt><trkpt lat="45.05736417648932" lon="11.51312858253599"><ele>2.5</ele><time>2026-04-19T07:48:09.001Z</time></trkpt><trkpt lat="45.05719562989325" lon="11.513428176989464"><ele>3.0</ele><time>2026-04-19T07:48:10.001Z</time></trkpt><trkpt lat="45.05702663114476" lon="11.513730592782393"><ele>2.5</ele><time>2026-04-19T07:48:11.001Z</time></trkpt><trkpt lat="45.05685635195273" lon="11.514034430879912"><ele>2.0</ele><time>2026-04-19T07:48:12.001Z</time></trkpt><trkpt lat="45.056686244483274" lon="11.514339549703656"><ele>2.5</ele><time>2026-04-19T07:48:13.001Z</time></trkpt><trkpt lat="45.05651313033539" lon="11.514650340415557"><ele>3.0</ele><time>2026-04-19T07:48:14Z</time></trkpt><trkpt lat="45.05633750776885" lon="11.514964996151964"><ele>3.0</ele><time>2026-04-19T07:48:15Z</time></trkpt><trkpt lat="45.05615947957637" lon="11.515279110644547"><ele>3.0</ele><time>2026-04-19T07:48:16Z</time></trkpt><trkpt lat="45.05598433931466" lon="11.515600304727297"><ele>3.0</ele><time>2026-04-19T07:48:17Z</time></trkpt><trkpt lat="45.05580735008254" lon="11.51592736358644"><ele>3.0</ele><time>2026-04-19T07:48:18Z</time></trkpt><trkpt lat="45.05563330361276" lon="11.516258897053662"><ele>4.0</ele><time>2026-04-19T07:48:19Z</time></trkpt><trkpt lat="45.05545516534255" lon="11.516602713992123"><ele>5.0</ele><time>2026-04-19T07:48:20Z</time></trkpt><trkpt lat="45.05527347696728" lon="11.516955414611635"><ele>5.0</ele><time>2026-04-19T07:48:21Z</time></trkpt><trkpt lat="45.05509157392669" lon="11.51729594749671"><ele>5.0</ele><time>2026-04-19T07:48:22Z</time></trkpt><trkpt lat="45.05491610347135" lon="11.51763861868408"><ele>5.0</ele><time>2026-04-19T07:48:23Z</time></trkpt><trkpt lat="45.05473878524023" lon="11.51797471229385"><ele>5.0</ele><time>2026-04-19T07:48:24Z</time></trkpt><trkpt lat="45.054563495464194" lon="11.518309369291025"><ele>5.0</ele><time>2026-04-19T07:48:25Z</time></trkpt><trkpt lat="45.05439142427289" lon="11.518633488524667"><ele>5.0</ele><time>2026-04-19T07:48:26Z</time></trkpt><trkpt lat="45.05422021834654" lon="11.518957887507952"><ele>4.0</ele><time>2026-04-19T07:48:27Z</time></trkpt><trkpt lat="45.05404962270942" lon="11.519277620819988"><ele>3.0</ele><time>2026-04-19T07:48:28Z</time></trkpt><trkpt lat="45.053883927587684" lon="11.519593336899048"><ele>3.0</ele><time>2026-04-19T07:48:29Z</time></trkpt><trkpt lat="45.053716072970914" lon="11.519909603697895"><ele>3.0</ele><time>2026-04-19T07:48:30Z</time></trkpt><trkpt lat="45.05355211016109" lon="11.520222182964638"><ele>3.0</ele><time>2026-04-19T07:48:31Z</time></trkpt><trkpt lat="45.05339204508331" lon="11.52052873681677"><ele>3.0</ele><time>2026-04-19T07:48:32Z</time></trkpt><trkpt lat="45.053236424119035" lon="11.52083213845364"><ele>3.5</ele><time>2026-04-19T07:48:33Z</time></trkpt><trkpt lat="45.05307495608628" lon="11.521138365909765"><ele>4.0</ele><time>2026-04-19T07:48:34Z</time></trkpt><trkpt lat="45.05291396344127" lon="11.52144211538708"><ele>3.0</ele><time>2026-04-19T07:48:35Z</time></trkpt><trkpt lat="45.05275351926108" lon="11.52174516971561"><ele>2.0</ele><time>2026-04-19T07:48:36Z</time></trkpt><trkpt lat="45.05258994355648" lon="11.52204644843675"><ele>2.5</ele><time>2026-04-19T07:48:37Z</time></trkpt><trkpt lat="45.052432494465876" lon="11.52234476652245"><ele>3.0</ele><time>2026-04-19T07:48:38Z</time></trkpt><trkpt lat="45.052278140696096" lon="11.522639089506956"><ele>3.0</ele><time>2026-04-19T07:48:39Z</time></trkpt><trkpt lat="45.0521217817414" lon="11.522934148944561"><ele>3.0</ele><time>2026-04-19T07:48:40Z</time></trkpt><trkpt lat="45.051968220301546" lon="11.52322522700819"><ele>3.0</ele><time>2026-04-19T07:48:41Z</time></trkpt><trkpt lat="45.05181684935818" lon="11.523513887740519"><ele>3.0</ele><time>2026-04-19T07:48:42Z</time></trkpt><trkpt lat="45.05166528505343" lon="11.523801788595424"><ele>3.0</ele><time>2026-04-19T07:48:43Z</time></trkpt><trkpt lat="45.05151413457381" lon="11.524091981247926"><ele>3.0</ele><time>2026-04-19T07:48:44Z</time></trkpt><trkpt lat="45.05136208008834" lon="11.52437741659163"><ele>3.5</ele><time>2026-04-19T07:48:45Z</time></trkpt><trkpt lat="45.0512100443896" lon="11.524666736138421"><ele>4.0</ele><time>2026-04-19T07:48:46Z</time></trkpt><trkpt lat="45.051053596770075" lon="11.524959675560359"><ele>4.0</ele><time>2026-04-19T07:48:47Z</time></trkpt><trkpt lat="45.050895353587734" lon="11.525255326328935"><ele>4.0</ele><time>2026-04-19T07:48:48Z</time></trkpt><trkpt lat="45.050740898858905" lon="11.525553564674704"><ele>3.5</ele><time>2026-04-19T07:48:49Z</time></trkpt><trkpt lat="45.0505835841134" lon="11.525851920024397"><ele>3.0</ele><time>2026-04-19T07:48:50Z</time></trkpt><trkpt lat="45.05042378416039" lon="11.526161279133316"><ele>3.5</ele><time>2026-04-19T07:48:51Z</time></trkpt><trkpt lat="45.050265241458966" lon="11.526463366207693"><ele>4.0</ele><time>2026-04-19T07:48:52Z</time></trkpt><trkpt lat="45.05010570174659" lon="11.526767219808558"><ele>3.0</ele><time>2026-04-19T07:48:53Z</time></trkpt><trkpt lat="45.049943606407226" lon="11.527069964803381"><ele>2.0</ele><time>2026-04-19T07:48:54.001Z</time></trkpt><trkpt lat="45.04977870069759" lon="11.52737647724667"><ele>2.0</ele><time>2026-04-19T07:48:55.001Z</time></trkpt><trkpt lat="45.049608993733955" lon="11.527690412178197"><ele>2.0</ele><time>2026-04-19T07:48:56.001Z</time></trkpt><trkpt lat="45.049441414285525" lon="11.528006634969465"><ele>2.0</ele><time>2026-04-19T07:48:57.001Z</time></trkpt><trkpt lat="45.04926739260393" lon="11.528328026106665"><ele>2.0</ele><time>2026-04-19T07:48:58.001Z</time></trkpt><trkpt lat="45.04909544275347" lon="11.528650970100106"><ele>2.5</ele><time>2026-04-19T07:48:59.001Z</time></trkpt><trkpt lat="45.04892210204482" lon="11.528978424119234"><ele>3.0</ele><time>2026-04-19T07:49:00.001Z</time></trkpt><trkpt lat="45.048744689484636" lon="11.529311626020544"><ele>3.5</ele><time>2026-04-19T07:49:01.001Z</time></trkpt><trkpt lat="45.048568780368676" lon="11.529645232189292"><ele>4.0</ele><time>2026-04-19T07:49:02.001Z</time></trkpt><trkpt lat="45.04839463461999" lon="11.52997280272266"><ele>3.5</ele><time>2026-04-19T07:49:03.001Z</time></trkpt><trkpt lat="45.0482254845045" lon="11.530286838107735"><ele>3.0</ele><time>2026-04-19T07:49:04.001Z</time></trkpt><trkpt lat="45.04806477741236" lon="11.53058828165572"><ele>3.0</ele><time>2026-04-19T07:49:05.001Z</time></trkpt><trkpt lat="45.047904596736565" lon="11.530891727851834"><ele>3.0</ele><time>2026-04-19T07:49:06.001Z</time></trkpt><trkpt lat="45.04774500882052" lon="11.53119441797507"><ele>3.5</ele><time>2026-04-19T07:49:07.001Z</time></trkpt><trkpt lat="45.04758714320024" lon="11.531493963766048"><ele>4.0</ele><time>2026-04-19T07:49:08.001Z</time></trkpt><trkpt lat="45.04742979143969" lon="11.531794811098953"><ele>3.5</ele><time>2026-04-19T07:49:09.001Z</time></trkpt><trkpt lat="45.04727313657895" lon="11.532094675818719"><ele>3.0</ele><time>2026-04-19T07:49:10.001Z</time></trkpt><trkpt lat="45.04711662161365" lon="11.532393719086956"><ele>3.0</ele><time>2026-04-19T07:49:11.001Z</time></trkpt><trkpt lat="45.04695963729389" lon="11.53268841523865"><ele>3.0</ele><time>2026-04-19T07:49:12.001Z</time></trkpt><trkpt lat="45.046807637973515" lon="11.532972513687042"><ele>3.0</ele><time>2026-04-19T07:49:13.001Z</time></trkpt><trkpt lat="45.04665744058817" lon="11.533253863298782"><ele>3.0</ele><time>2026-04-19T07:49:14.001Z</time></trkpt><trkpt lat="45.046505735850445" lon="11.533537247271495"><ele>3.5</ele><time>2026-04-19T07:49:15.001Z</time></trkpt><trkpt lat="45.04635200642171" lon="11.53382116695525"><ele>4.0</ele><time>2026-04-19T07:49:16.001Z</time></trkpt><trkpt lat="45.04619591588165" lon="11.534112854348999"><ele>4.0</ele><time>2026-04-19T07:49:17.001Z</time></trkpt><trkpt lat="45.04603337765553" lon="11.53441309545214"><ele>4.0</ele><time>2026-04-19T07:49:18.001Z</time></trkpt><trkpt lat="45.045870012790864" lon="11.53471696178604"><ele>3.0</ele><time>2026-04-19T07:49:19.001Z</time></trkpt><trkpt lat="45.045699798023755" lon="11.535035441862274"><ele>2.0</ele><time>2026-04-19T07:49:20.001Z</time></trkpt><trkpt lat="45.045536470340956" lon="11.53534821925126"><ele>2.5</ele><time>2026-04-19T07:49:21.001Z</time></trkpt><trkpt lat="45.045371400923024" lon="11.535658236374635"><ele>3.0</ele><time>2026-04-19T07:49:22.001Z</time></trkpt><trkpt lat="45.045207596278225" lon="11.53596939850243"><ele>3.0</ele><time>2026-04-19T07:49:23.001Z</time></trkpt><trkpt lat="45.04504351940834" lon="11.536280544332616"><ele>3.0</ele><time>2026-04-19T07:49:24.001Z</time></trkpt><trkpt lat="45.04487955261513" lon="11.536594015580395"><ele>3.0</ele><time>2026-04-19T07:49:25.001Z</time></trkpt><trkpt lat="45.04471019382546" lon="11.536912664929186"><ele>3.0</ele><time>2026-04-19T07:49:26.001Z</time></trkpt><trkpt lat="45.04454109155598" lon="11.537228494360303"><ele>3.0</ele><time>2026-04-19T07:49:27.001Z</time></trkpt><trkpt lat="45.04436902554756" lon="11.537548438832658"><ele>3.0</ele><time>2026-04-19T07:49:28.001Z</time></trkpt><trkpt lat="45.04419619590263" lon="11.537874455512469"><ele>2.5</ele><time>2026-04-19T07:49:29.001Z</time></trkpt><trkpt lat="45.04402221453178" lon="11.538202724143996"><ele>2.0</ele><time>2026-04-19T07:49:30.001Z</time></trkpt><trkpt lat="45.04384942136544" lon="11.538532918519097"><ele>2.5</ele><time>2026-04-19T07:49:31.001Z</time></trkpt><trkpt lat="45.043678361153276" lon="11.538856885837188"><ele>3.0</ele><time>2026-04-19T07:49:32.001Z</time></trkpt><trkpt lat="45.04350744584096" lon="11.53917448994037"><ele>3.0</ele><time>2026-04-19T07:49:33.001Z</time></trkpt><trkpt lat="45.04333618335565" lon="11.539484106028317"><ele>3.0</ele><time>2026-04-19T07:49:34.001Z</time></trkpt><trkpt lat="45.04316780846617" lon="11.53979258660321"><ele>3.5</ele><time>2026-04-19T07:49:35.001Z</time></trkpt><trkpt lat="45.04299881933631" lon="11.540104379514446"><ele>4.0</ele><time>2026-04-19T07:49:36.001Z</time></trkpt><trkpt lat="45.04283420862575" lon="11.540418579372886"><ele>4.0</ele><time>2026-04-19T07:49:37.001Z</time></trkpt><trkpt lat="45.04266900664505" lon="11.540734181801746"><ele>4.0</ele><time>2026-04-19T07:49:38.001Z</time></trkpt><trkpt lat="45.042503113613655" lon="11.54105196848063"><ele>3.0</ele><time>2026-04-19T07:49:39.001Z</time></trkpt><trkpt lat="45.04233584902723" lon="11.541366922421425"><ele>2.0</ele><time>2026-04-19T07:49:40.001Z</time></trkpt><trkpt lat="45.04216880941684" lon="11.541684831244348"><ele>2.0</ele><time>2026-04-19T07:49:41.001Z</time></trkpt><trkpt lat="45.041997947305724" lon="11.54200378320082"><ele>2.0</ele><time>2026-04-19T07:49:42.001Z</time></trkpt><trkpt lat="45.04183329326524" lon="11.54231581368223"><ele>2.5</ele><time>2026-04-19T07:49:43.001Z</time></trkpt><trkpt lat="45.04166805450333" lon="11.542629258453024"><ele>3.0</ele><time>2026-04-19T07:49:44.001Z</time></trkpt><trkpt lat="45.04150165740929" lon="11.542942756436474"><ele>3.5</ele><time>2026-04-19T07:49:45.001Z</time></trkpt><trkpt lat="45.04133082398907" lon="11.543256206603067"><ele>4.0</ele><time>2026-04-19T07:49:46.001Z</time></trkpt><trkpt lat="45.041161039384924" lon="11.543569368953298"><ele>4.0</ele><time>2026-04-19T07:49:47.001Z</time></trkpt><trkpt lat="45.04099440129116" lon="11.543885870977395"><ele>4.0</ele><time>2026-04-19T07:49:48.001Z</time></trkpt><trkpt lat="45.0408314526437" lon="11.544199735554301"><ele>4.0</ele><time>2026-04-19T07:49:49.001Z</time></trkpt><trkpt lat="45.04066084354927" lon="11.544514647835447"><ele>4.0</ele><time>2026-04-19T07:49:50.001Z</time></trkpt><trkpt lat="45.040494178019976" lon="11.544820292315965"><ele>3.5</ele><time>2026-04-19T07:49:51.001Z</time></trkpt><trkpt lat="45.040337523367015" lon="11.545130544908377"><ele>3.0</ele><time>2026-04-19T07:49:52.001Z</time></trkpt><trkpt lat="45.0401757280758" lon="11.545443502535967"><ele>3.0</ele><time>2026-04-19T07:49:53.001Z</time></trkpt><trkpt lat="45.040014447930105" lon="11.545764305230547"><ele>3.0</ele><time>2026-04-19T07:49:54.001Z</time></trkpt><trkpt lat="45.03985034938901" lon="11.54609916774967"><ele>2.0</ele><time>2026-04-19T07:49:55.001Z</time></trkpt><trkpt lat="45.03969498289314" lon="11.546428807265436"><ele>1.0</ele><time>2026-04-19T07:49:56.001Z</time></trkpt><trkpt lat="45.03954712666422" lon="11.546747964675639"><ele>1.0</ele><time>2026-04-19T07:49:57.001Z</time></trkpt><trkpt lat="45.03940048988675" lon="11.547075728457658"><ele>1.0</ele><time>2026-04-19T07:49:58.001Z</time></trkpt><trkpt lat="45.03925542314368" lon="11.54739726599986"><ele>1.5</ele><time>2026-04-19T07:49:59.001Z</time></trkpt><trkpt lat="45.03911277034285" lon="11.547722306313782"><ele>2.0</ele><time>2026-04-19T07:50:00.001Z</time></trkpt><trkpt lat="45.038967144849245" lon="11.548054373425297"><ele>2.5</ele><time>2026-04-19T07:50:01.001Z</time></trkpt><trkpt lat="45.038820667371006" lon="11.548390874987776"><ele>3.0</ele><time>2026-04-19T07:50:02.001Z</time></trkpt><trkpt lat="45.03867485693237" lon="11.548726161313803"><ele>2.0</ele><time>2026-04-19T07:50:03.001Z</time></trkpt><trkpt lat="45.03853548992137" lon="11.549063782245943"><ele>1.0</ele><time>2026-04-19T07:50:04.001Z</time></trkpt><trkpt lat="45.03839650404562" lon="11.549397562077516"><ele>1.5</ele><time>2026-04-19T07:50:05.001Z</time></trkpt><trkpt lat="45.0382593123068" lon="11.549732547495902"><ele>2.0</ele><time>2026-04-19T07:50:06.001Z</time></trkpt><trkpt lat="45.03812386372242" lon="11.55006252132501"><ele>2.5</ele><time>2026-04-19T07:50:07.001Z</time></trkpt><trkpt lat="45.03797943530856" lon="11.550387891932138"><ele>3.0</ele><time>2026-04-19T07:50:08.001Z</time></trkpt><trkpt lat="45.03784169018178" lon="11.550714668133274"><ele>3.0</ele><time>2026-04-19T07:50:09.001Z</time></trkpt><trkpt lat="45.037708575703604" lon="11.55103399214503"><ele>3.0</ele><time>2026-04-19T07:50:10.001Z</time></trkpt><trkpt lat="45.037587319940776" lon="11.551344674927233"><ele>3.0</ele><time>2026-04-19T07:50:11.001Z</time></trkpt><trkpt lat="45.03744756836681" lon="11.551658206076587"><ele>3.0</ele><time>2026-04-19T07:50:12.001Z</time></trkpt><trkpt lat="45.037320016219134" lon="11.551973239671817"><ele>3.5</ele><time>2026-04-19T07:50:13.001Z</time></trkpt><trkpt lat="45.037190759969654" lon="11.552287244886827"><ele>4.0</ele><time>2026-04-19T07:50:14.001Z</time></trkpt><trkpt lat="45.037046834555326" lon="11.552600034073206"><ele>3.5</ele><time>2026-04-19T07:50:15.001Z</time></trkpt><trkpt lat="45.03691253233277" lon="11.552922719770562"><ele>3.0</ele><time>2026-04-19T07:50:16.001Z</time></trkpt><trkpt lat="45.03678052306249" lon="11.553245620372628"><ele>3.0</ele><time>2026-04-19T07:50:17.001Z</time></trkpt><trkpt lat="45.03664478102571" lon="11.553563341681052"><ele>3.0</ele><time>2026-04-19T07:50:18.001Z</time></trkpt><trkpt lat="45.03651070048764" lon="11.55389073504627"><ele>3.5</ele><time>2026-04-19T07:50:19.001Z</time></trkpt><trkpt lat="45.036380367075175" lon="11.554212955104067"><ele>4.0</ele><time>2026-04-19T07:50:20.001Z</time></trkpt><trkpt lat="45.036247373383496" lon="11.554521893298332"><ele>5.0</ele><time>2026-04-19T07:50:21.001Z</time></trkpt><trkpt lat="45.03611419422089" lon="11.554837416115523"><ele>6.0</ele><time>2026-04-19T07:50:22.001Z</time></trkpt><trkpt lat="45.035983137903" lon="11.555153912462231"><ele>5.5</ele><time>2026-04-19T07:50:23.001Z</time></trkpt><trkpt lat="45.035860132399684" lon="11.555458592257514"><ele>5.0</ele><time>2026-04-19T07:50:24.001Z</time></trkpt><trkpt lat="45.035727810918324" lon="11.555766554212756"><ele>5.0</ele><time>2026-04-19T07:50:25.001Z</time></trkpt><trkpt lat="45.035593010466684" lon="11.556079730078462"><ele>5.0</ele><time>2026-04-19T07:50:26.001Z</time></trkpt><trkpt lat="45.03545405413586" lon="11.556410347446201"><ele>5.0</ele><time>2026-04-19T07:50:27.001Z</time></trkpt><trkpt lat="45.03531763822473" lon="11.556738746222264"><ele>5.0</ele><time>2026-04-19T07:50:28.001Z</time></trkpt><trkpt lat="45.035171594647046" lon="11.557074399555345"><ele>4.5</ele><time>2026-04-19T07:50:29.001Z</time></trkpt><trkpt lat="45.03503831193058" lon="11.557405834871377"><ele>4.0</ele><time>2026-04-19T07:50:30.001Z</time></trkpt><trkpt lat="45.0348991376497" lon="11.557739438152534"><ele>3.5</ele><time>2026-04-19T07:50:31.001Z</time></trkpt><trkpt lat="45.03475732446558" lon="11.558074576721301"><ele>3.0</ele><time>2026-04-19T07:50:32.001Z</time></trkpt><trkpt lat="45.03461306100467" lon="11.558403493704022"><ele>3.0</ele><time>2026-04-19T07:50:33.001Z</time></trkpt><trkpt lat="45.03447276504311" lon="11.558737951960943"><ele>3.0</ele><time>2026-04-19T07:50:34.001Z</time></trkpt><trkpt lat="45.03433360091335" lon="11.559072510734422"><ele>3.0</ele><time>2026-04-19T07:50:35.001Z</time></trkpt><trkpt lat="45.0341998942077" lon="11.559404162363581"><ele>3.0</ele><time>2026-04-19T07:50:36.001Z</time></trkpt><trkpt lat="45.034058925044" lon="11.55974135924598"><ele>3.5</ele><time>2026-04-19T07:50:37.001Z</time></trkpt><trkpt lat="45.03391195424686" lon="11.560085214131053"><ele>4.0</ele><time>2026-04-19T07:50:38.001Z</time></trkpt><trkpt lat="45.033767428714334" lon="11.560438470090043"><ele>4.0</ele><time>2026-04-19T07:50:39.001Z</time></trkpt><trkpt lat="45.033619367283016" lon="11.560797053883672"><ele>4.0</ele><time>2026-04-19T07:50:40.001Z</time></trkpt><trkpt lat="45.03347379914755" lon="11.561149634070466"><ele>4.5</ele><time>2026-04-19T07:50:41.001Z</time></trkpt><trkpt lat="45.033326728806884" lon="11.561500071964014"><ele>5.0</ele><time>2026-04-19T07:50:42.001Z</time></trkpt><trkpt lat="45.03317727903011" lon="11.561849307503453"><ele>5.0</ele><time>2026-04-19T07:50:43.001Z</time></trkpt><trkpt lat="45.033025032624955" lon="11.562206074575405"><ele>5.0</ele><time>2026-04-19T07:50:44.001Z</time></trkpt><trkpt lat="45.03287580231459" lon="11.56255673563859"><ele>4.5</ele><time>2026-04-19T07:50:45.001Z</time></trkpt><trkpt lat="45.032729128866485" lon="11.562906271077292"><ele>4.0</ele><time>2026-04-19T07:50:46.001Z</time></trkpt><trkpt lat="45.03257941298557" lon="11.563259298713612"><ele>4.0</ele><time>2026-04-19T07:50:47.001Z</time></trkpt><trkpt lat="45.03242906843767" lon="11.563609621302552"><ele>4.0</ele><time>2026-04-19T07:50:48.001Z</time></trkpt><trkpt lat="45.032284188979524" lon="11.56394849959405"><ele>4.0</ele><time>2026-04-19T07:50:49.001Z</time></trkpt><trkpt lat="45.032149273717714" lon="11.56427773302403"><ele>4.0</ele><time>2026-04-19T07:50:50.001Z</time></trkpt><trkpt lat="45.03201180710661" lon="11.564600462092319"><ele>4.0</ele><time>2026-04-19T07:50:51.001Z</time></trkpt><trkpt lat="45.03187743862954" lon="11.564920958069662"><ele>4.0</ele><time>2026-04-19T07:50:52.001Z</time></trkpt><trkpt lat="45.03174066355239" lon="11.565243779254597"><ele>4.5</ele><time>2026-04-19T07:50:53.001Z</time></trkpt><trkpt lat="45.03160605158155" lon="11.565568271065208"><ele>5.0</ele><time>2026-04-19T07:50:54.001Z</time></trkpt><trkpt lat="45.03147313719059" lon="11.565890957216894"><ele>4.5</ele><time>2026-04-19T07:50:55.001Z</time></trkpt><trkpt lat="45.03134237036733" lon="11.566203642273274"><ele>4.0</ele><time>2026-04-19T07:50:56.001Z</time></trkpt><trkpt lat="45.031208678459016" lon="11.566524570585713"><ele>4.0</ele><time>2026-04-19T07:50:57.001Z</time></trkpt><trkpt lat="45.031073432545476" lon="11.566846518535325"><ele>4.0</ele><time>2026-04-19T07:50:58.001Z</time></trkpt><trkpt lat="45.030935860092434" lon="11.567172431897271"><ele>4.0</ele><time>2026-04-19T07:50:59.001Z</time></trkpt><trkpt lat="45.03079799672894" lon="11.567499904251266"><ele>4.0</ele><time>2026-04-19T07:51:00.001Z</time></trkpt><trkpt lat="45.030657876338566" lon="11.567834027439979"><ele>4.5</ele><time>2026-04-19T07:51:01.001Z</time></trkpt><trkpt lat="45.0305157303496" lon="11.568173958452215"><ele>5.0</ele><time>2026-04-19T07:51:02.001Z</time></trkpt><trkpt lat="45.0303716212863" lon="11.568515645453495"><ele>5.0</ele><time>2026-04-19T07:51:03.001Z</time></trkpt><trkpt lat="45.03022615203511" lon="11.56886195508238"><ele>5.0</ele><time>2026-04-19T07:51:04.001Z</time></trkpt><trkpt lat="45.03008043626607" lon="11.56920620446818"><ele>5.5</ele><time>2026-04-19T07:51:05.001Z</time></trkpt><trkpt lat="45.02993446917203" lon="11.569552215189665"><ele>6.0</ele><time>2026-04-19T07:51:06.001Z</time></trkpt><trkpt lat="45.029792722116134" lon="11.569899771403428"><ele>6.0</ele><time>2026-04-19T07:51:07.001Z</time></trkpt><trkpt lat="45.029645112448186" lon="11.570243370389626"><ele>6.0</ele><time>2026-04-19T07:51:08.001Z</time></trkpt><trkpt lat="45.02950170796508" lon="11.570586427029523"><ele>5.0</ele><time>2026-04-19T07:51:09.001Z</time></trkpt><trkpt lat="45.02935938422295" lon="11.570924607007552"><ele>4.0</ele><time>2026-04-19T07:51:10.001Z</time></trkpt><trkpt lat="45.02921384402344" lon="11.571261288767355"><ele>3.5</ele><time>2026-04-19T07:51:11.001Z</time></trkpt><trkpt lat="45.02907180063706" lon="11.571598487202523"><ele>3.0</ele><time>2026-04-19T07:51:12.001Z</time></trkpt><trkpt lat="45.02893124348568" lon="11.571936367451407"><ele>3.5</ele><time>2026-04-19T07:51:13.001Z</time></trkpt><trkpt lat="45.028791248560815" lon="11.57227282884747"><ele>4.0</ele><time>2026-04-19T07:51:14.001Z</time></trkpt><trkpt lat="45.02865270297168" lon="11.57260666407864"><ele>4.0</ele><time>2026-04-19T07:51:15.001Z</time></trkpt><trkpt lat="45.028515480605435" lon="11.572940411215269"><ele>4.0</ele><time>2026-04-19T07:51:16.001Z</time></trkpt><trkpt lat="45.02837371461969" lon="11.573275054882153"><ele>3.5</ele><time>2026-04-19T07:51:17.001Z</time></trkpt><trkpt lat="45.02823587416625" lon="11.573608133993863"><ele>3.0</ele><time>2026-04-19T07:51:18.001Z</time></trkpt><trkpt lat="45.02810267658848" lon="11.573938484165167"><ele>3.0</ele><time>2026-04-19T07:51:19.001Z</time></trkpt><trkpt lat="45.02797596671519" lon="11.574266754021854"><ele>3.0</ele><time>2026-04-19T07:51:20.001Z</time></trkpt><trkpt lat="45.02785205033957" lon="11.574602008635974"><ele>3.5</ele><time>2026-04-19T07:51:21.001Z</time></trkpt><trkpt lat="45.027737476569605" lon="11.574937901692902"><ele>4.0</ele><time>2026-04-19T07:51:22.001Z</time></trkpt><trkpt lat="45.027623220064996" lon="11.575281959721414"><ele>4.0</ele><time>2026-04-19T07:51:23.001Z</time></trkpt><trkpt lat="45.02751431003621" lon="11.575625582647334"><ele>4.0</ele><time>2026-04-19T07:51:24.001Z</time></trkpt><trkpt lat="45.02741474263232" lon="11.575964764654774"><ele>4.0</ele><time>2026-04-19T07:51:25.001Z</time></trkpt><trkpt lat="45.02731917275861" lon="11.576315897985596"><ele>4.0</ele><time>2026-04-19T07:51:26.001Z</time></trkpt><trkpt lat="45.027230200664434" lon="11.576668923852248"><ele>4.0</ele><time>2026-04-19T07:51:27.001Z</time></trkpt><trkpt lat="45.02714185686209" lon="11.577026104769544"><ele>4.0</ele><time>2026-04-19T07:51:28.001Z</time></trkpt><trkpt lat="45.02705502253183" lon="11.577387996939297"><ele>4.0</ele><time>2026-04-19T07:51:29.001Z</time></trkpt><trkpt lat="45.026972444467056" lon="11.577761176806963"><ele>4.0</ele><time>2026-04-19T07:51:30.001Z</time></trkpt><trkpt lat="45.026892827883955" lon="11.578129918211102"><ele>4.5</ele><time>2026-04-19T07:51:31.001Z</time></trkpt><trkpt lat="45.026823134940216" lon="11.578502998999035"><ele>5.0</ele><time>2026-04-19T07:51:32.001Z</time></trkpt><trkpt lat="45.02675560799362" lon="11.578879649547597"><ele>5.0</ele><time>2026-04-19T07:51:33.001Z</time></trkpt><trkpt lat="45.02668865025338" lon="11.579248934561516"><ele>5.0</ele><time>2026-04-19T07:51:34.001Z</time></trkpt><trkpt lat="45.02662199343232" lon="11.579613400578495"><ele>4.5</ele><time>2026-04-19T07:51:35.001Z</time></trkpt><trkpt lat="45.026557117887705" lon="11.579968629077499"><ele>4.0</ele><time>2026-04-19T07:51:36.001Z</time></trkpt><trkpt lat="45.02649296992497" lon="11.580326031514584"><ele>4.0</ele><time>2026-04-19T07:51:37.001Z</time></trkpt><trkpt lat="45.02642811686164" lon="11.580685364050568"><ele>4.0</ele><time>2026-04-19T07:51:38.001Z</time></trkpt><trkpt lat="45.02636491334672" lon="11.58104206414206"><ele>3.5</ele><time>2026-04-19T07:51:39.001Z</time></trkpt><trkpt lat="45.026299740769836" lon="11.581388058270223"><ele>3.0</ele><time>2026-04-19T07:51:40.001Z</time></trkpt><trkpt lat="45.026234888229794" lon="11.581735555460812"><ele>3.0</ele><time>2026-04-19T07:51:41.001Z</time></trkpt><trkpt lat="45.02616907804827" lon="11.582082127902707"><ele>3.0</ele><time>2026-04-19T07:51:42.001Z</time></trkpt><trkpt lat="45.02610603693489" lon="11.582425118706901"><ele>3.0</ele><time>2026-04-19T07:51:43.001Z</time></trkpt><trkpt lat="45.02604522472983" lon="11.582764407709423"><ele>3.0</ele><time>2026-04-19T07:51:44.001Z</time></trkpt><trkpt lat="45.02598385364311" lon="11.583101220698685"><ele>3.0</ele><time>2026-04-19T07:51:45.001Z</time></trkpt><trkpt lat="45.02592453691309" lon="11.583428159632257"><ele>3.0</ele><time>2026-04-19T07:51:46.001Z</time></trkpt><trkpt lat="45.02586539655187" lon="11.583759476624905"><ele>3.0</ele><time>2026-04-19T07:51:47.001Z</time></trkpt><trkpt lat="45.02580340825783" lon="11.584089285113098"><ele>3.0</ele><time>2026-04-19T07:51:48.001Z</time></trkpt><trkpt lat="45.02574061286428" lon="11.584431602493158"><ele>3.0</ele><time>2026-04-19T07:51:49.001Z</time></trkpt><trkpt lat="45.02567591495985" lon="11.58478150241341"><ele>3.0</ele><time>2026-04-19T07:51:50.001Z</time></trkpt><trkpt lat="45.02561008374421" lon="11.585136577372172"><ele>3.0</ele><time>2026-04-19T07:51:51.001Z</time></trkpt><trkpt lat="45.025545137219" lon="11.58549118806254"><ele>3.0</ele><time>2026-04-19T07:51:52.001Z</time></trkpt><trkpt lat="45.025478767906726" lon="11.585848098191786"><ele>4.0</ele><time>2026-04-19T07:51:53.001Z</time></trkpt><trkpt lat="45.02541473478685" lon="11.586194012333387"><ele>5.0</ele><time>2026-04-19T07:51:54.001Z</time></trkpt><trkpt lat="45.02534971686314" lon="11.586544209735923"><ele>5.0</ele><time>2026-04-19T07:51:55.001Z</time></trkpt><trkpt lat="45.02528254905031" lon="11.586893188459504"><ele>5.0</ele><time>2026-04-19T07:51:56.001Z</time></trkpt><trkpt lat="45.025214911012014" lon="11.587247243121158"><ele>5.0</ele><time>2026-04-19T07:51:57.001Z</time></trkpt><trkpt lat="45.02514814780339" lon="11.587603858415788"><ele>5.0</ele><time>2026-04-19T07:51:58.001Z</time></trkpt><trkpt lat="45.02508157071666" lon="11.5879626577486"><ele>5.0</ele><time>2026-04-19T07:51:59.001Z</time></trkpt><trkpt lat="45.02501444684128" lon="11.588328481558577"><ele>5.0</ele><time>2026-04-19T07:52:00.001Z</time></trkpt><trkpt lat="45.02495051928689" lon="11.588688807317272"><ele>6.0</ele><time>2026-04-19T07:52:01.001Z</time></trkpt><trkpt lat="45.02488215298669" lon="11.589052854829076"><ele>7.0</ele><time>2026-04-19T07:52:02.001Z</time></trkpt><trkpt lat="45.024815704449665" lon="11.589423446979529"><ele>7.0</ele><time>2026-04-19T07:52:03.001Z</time></trkpt><trkpt lat="45.02474799477035" lon="11.589794351999506"><ele>7.0</ele><time>2026-04-19T07:52:04.001Z</time></trkpt><trkpt lat="45.02468290810794" lon="11.590166886970788"><ele>7.0</ele><time>2026-04-19T07:52:05.001Z</time></trkpt><trkpt lat="45.02461532250789" lon="11.590538977061469"><ele>7.0</ele><time>2026-04-19T07:52:06.001Z</time></trkpt><trkpt lat="45.02455442505465" lon="11.590907559513886"><ele>6.0</ele><time>2026-04-19T07:52:07.001Z</time></trkpt><trkpt lat="45.024493652779334" lon="11.59127861399585"><ele>5.0</ele><time>2026-04-19T07:52:08.001Z</time></trkpt><trkpt lat="45.02444186143212" lon="11.59163305982106"><ele>5.0</ele><time>2026-04-19T07:52:09.001Z</time></trkpt><trkpt lat="45.024395291246975" lon="11.591995830976659"><ele>5.0</ele><time>2026-04-19T07:52:10.001Z</time></trkpt><trkpt lat="45.02435197035608" lon="11.592369212274074"><ele>4.5</ele><time>2026-04-19T07:52:11.001Z</time></trkpt><trkpt lat="45.02431385417142" lon="11.592746393365156"><ele>4.0</ele><time>2026-04-19T07:52:12.001Z</time></trkpt><trkpt lat="45.02427805032266" lon="11.593127748800095"><ele>3.5</ele><time>2026-04-19T07:52:13.001Z</time></trkpt><trkpt lat="45.024250405805155" lon="11.593512244126128"><ele>3.0</ele><time>2026-04-19T07:52:14.001Z</time></trkpt><trkpt lat="45.02422839231732" lon="11.593899371086504"><ele>2.5</ele><time>2026-04-19T07:52:15.001Z</time></trkpt><trkpt lat="45.02421177205268" lon="11.594294845296028"><ele>2.0</ele><time>2026-04-19T07:52:16.001Z</time></trkpt><trkpt lat="45.02420147296015" lon="11.594687087076078"><ele>2.0</ele><time>2026-04-19T07:52:17.001Z</time></trkpt><trkpt lat="45.024197321219816" lon="11.595071567591658"><ele>2.0</ele><time>2026-04-19T07:52:18.001Z</time></trkpt><trkpt lat="45.024191597779" lon="11.595450642674365"><ele>2.5</ele><time>2026-04-19T07:52:19.001Z</time></trkpt><trkpt lat="45.02418240208214" lon="11.595833455953482"><ele>3.0</ele><time>2026-04-19T07:52:20.001Z</time></trkpt><trkpt lat="45.02417131679967" lon="11.59621649974229"><ele>3.0</ele><time>2026-04-19T07:52:21.001Z</time></trkpt><trkpt lat="45.024159503714195" lon="11.596601792215207"><ele>3.0</ele><time>2026-04-19T07:52:22.001Z</time></trkpt><trkpt lat="45.024148153727054" lon="11.596980617587688"><ele>3.0</ele><time>2026-04-19T07:52:23.001Z</time></trkpt><trkpt lat="45.02413796318585" lon="11.597356791344946"><ele>3.0</ele><time>2026-04-19T07:52:24.001Z</time></trkpt><trkpt lat="45.02412785737365" lon="11.59772826364433"><ele>4.0</ele><time>2026-04-19T07:52:25.001Z</time></trkpt><trkpt lat="45.02411665259936" lon="11.598095861226435"><ele>5.0</ele><time>2026-04-19T07:52:26.001Z</time></trkpt><trkpt lat="45.02410625735919" lon="11.59845212062882"><ele>4.5</ele><time>2026-04-19T07:52:27.001Z</time></trkpt><trkpt lat="45.024094139133645" lon="11.598804790649366"><ele>4.0</ele><time>2026-04-19T07:52:28.001Z</time></trkpt><trkpt lat="45.0240837364012" lon="11.599150592083559"><ele>4.0</ele><time>2026-04-19T07:52:29.001Z</time></trkpt><trkpt lat="45.02407126691394" lon="11.599492134784963"><ele>4.0</ele><time>2026-04-19T07:52:30.001Z</time></trkpt><trkpt lat="45.024058848418335" lon="11.59979891615842"><ele>4.0</ele><time>2026-04-19T07:52:31.001Z</time></trkpt><trkpt lat="45.0240560103108" lon="11.600100441336762"><ele>4.0</ele><time>2026-04-19T07:52:32.001Z</time></trkpt><trkpt lat="45.024041983933" lon="11.600405942351246"><ele>4.0</ele><time>2026-04-19T07:52:33.001Z</time></trkpt><trkpt lat="45.024027526772926" lon="11.600721699217557"><ele>4.0</ele><time>2026-04-19T07:52:34.001Z</time></trkpt><trkpt lat="45.02401819671673" lon="11.601041464403767"><ele>4.0</ele><time>2026-04-19T07:52:35.001Z</time></trkpt><trkpt lat="45.02400849967946" lon="11.601365952465937"><ele>3.5</ele><time>2026-04-19T07:52:36.001Z</time></trkpt><trkpt lat="45.023998983839654" lon="11.601700888688766"><ele>3.0</ele><time>2026-04-19T07:52:37.001Z</time></trkpt><trkpt lat="45.023989409788484" lon="11.602050903713867"><ele>2.5</ele><time>2026-04-19T07:52:38.001Z</time></trkpt><trkpt lat="45.0239791375896" lon="11.60240073412021"><ele>2.0</ele><time>2026-04-19T07:52:39.001Z</time></trkpt><trkpt lat="45.02396698804863" lon="11.602756664211725"><ele>2.0</ele><time>2026-04-19T07:52:40.001Z</time></trkpt><trkpt lat="45.02395676977856" lon="11.603112084132576"><ele>2.0</ele><time>2026-04-19T07:52:41.001Z</time></trkpt><trkpt lat="45.02394551051093" lon="11.603472239998188"><ele>1.5</ele><time>2026-04-19T07:52:42.001Z</time></trkpt><trkpt lat="45.023934743333996" lon="11.60383662349449"><ele>1.0</ele><time>2026-04-19T07:52:43.001Z</time></trkpt><trkpt lat="45.02392697756628" lon="11.604199731749478"><ele>1.5</ele><time>2026-04-19T07:52:44.001Z</time></trkpt><trkpt lat="45.02392150961179" lon="11.604567301726851"><ele>2.0</ele><time>2026-04-19T07:52:45.001Z</time></trkpt><trkpt lat="45.02391548745306" lon="11.604931881429364"><ele>2.0</ele><time>2026-04-19T07:52:46.001Z</time></trkpt><trkpt lat="45.02390909904215" lon="11.605294923703104"><ele>2.0</ele><time>2026-04-19T07:52:47.001Z</time></trkpt><trkpt lat="45.02389991235894" lon="11.605657806377552"><ele>2.5</ele><time>2026-04-19T07:52:48.001Z</time></trkpt><trkpt lat="45.02389455214137" lon="11.606016771339494"><ele>3.0</ele><time>2026-04-19T07:52:49.001Z</time></trkpt><trkpt lat="45.023883952172504" lon="11.606365382852056"><ele>3.0</ele><time>2026-04-19T07:52:50.001Z</time></trkpt><trkpt lat="45.023872098971644" lon="11.606720189600589"><ele>3.0</ele><time>2026-04-19T07:52:51.001Z</time></trkpt><trkpt lat="45.02386174417516" lon="11.607076059156386"><ele>3.0</ele><time>2026-04-19T07:52:52.001Z</time></trkpt><trkpt lat="45.023849896860995" lon="11.607433117548714"><ele>3.0</ele><time>2026-04-19T07:52:53.001Z</time></trkpt><trkpt lat="45.0238385907125" lon="11.607793970136514"><ele>3.5</ele><time>2026-04-19T07:52:54.001Z</time></trkpt><trkpt lat="45.02382621195205" lon="11.608154782005412"><ele>4.0</ele><time>2026-04-19T07:52:55.001Z</time></trkpt><trkpt lat="45.023814651367275" lon="11.60850913579949"><ele>4.0</ele><time>2026-04-19T07:52:56.001Z</time></trkpt><trkpt lat="45.02380254131126" lon="11.608868469469247"><ele>4.0</ele><time>2026-04-19T07:52:57.001Z</time></trkpt><trkpt lat="45.02378907451165" lon="11.60922977308481"><ele>4.0</ele><time>2026-04-19T07:52:58.001Z</time></trkpt><trkpt lat="45.02377425413959" lon="11.609593021909653"><ele>4.0</ele><time>2026-04-19T07:52:59.001Z</time></trkpt><trkpt lat="45.023760259327396" lon="11.609960529578425"><ele>4.0</ele><time>2026-04-19T07:53:00.001Z</time></trkpt><trkpt lat="45.023741969449944" lon="11.610331641840187"><ele>4.0</ele><time>2026-04-19T07:53:01.001Z</time></trkpt><trkpt lat="45.0237267891252" lon="11.610706405010447"><ele>4.0</ele><time>2026-04-19T07:53:02.001Z</time></trkpt><trkpt lat="45.02370859443942" lon="11.611086038647889"><ele>4.0</ele><time>2026-04-19T07:53:03.001Z</time></trkpt><trkpt lat="45.02368696200143" lon="11.611469123298344"><ele>3.5</ele><time>2026-04-19T07:53:04.001Z</time></trkpt><trkpt lat="45.023670215642625" lon="11.611846670610493"><ele>3.0</ele><time>2026-04-19T07:53:05.001Z</time></trkpt><trkpt lat="45.023655725463236" lon="11.612225482626478"><ele>3.0</ele><time>2026-04-19T07:53:06.001Z</time></trkpt><trkpt lat="45.023643299305064" lon="11.61259583814978"><ele>3.0</ele><time>2026-04-19T07:53:07.001Z</time></trkpt><trkpt lat="45.02363431881488" lon="11.612960153252043"><ele>3.0</ele><time>2026-04-19T07:53:08.001Z</time></trkpt><trkpt lat="45.023626555686924" lon="11.613329166723569"><ele>3.0</ele><time>2026-04-19T07:53:09.001Z</time></trkpt><trkpt lat="45.023617629200366" lon="11.613692103020352"><ele>3.5</ele><time>2026-04-19T07:53:10.001Z</time></trkpt><trkpt lat="45.02360874167489" lon="11.614053697014336"><ele>4.0</ele><time>2026-04-19T07:53:11.001Z</time></trkpt><trkpt lat="45.02359601414957" lon="11.61441529353311"><ele>3.5</ele><time>2026-04-19T07:53:12.001Z</time></trkpt><trkpt lat="45.02358407884981" lon="11.614782931801958"><ele>3.0</ele><time>2026-04-19T07:53:13.001Z</time></trkpt><trkpt lat="45.02357171523993" lon="11.615152059818989"><ele>3.0</ele><time>2026-04-19T07:53:14.001Z</time></trkpt><trkpt lat="45.02355995804532" lon="11.61551805497534"><ele>3.0</ele><time>2026-04-19T07:53:15.001Z</time></trkpt><trkpt lat="45.02354899421806" lon="11.615880652177639"><ele>3.0</ele><time>2026-04-19T07:53:16.001Z</time></trkpt><trkpt lat="45.023537472871205" lon="11.61624288905164"><ele>3.0</ele><time>2026-04-19T07:53:17.001Z</time></trkpt><trkpt lat="45.023526215359034" lon="11.616605131639766"><ele>3.0</ele><time>2026-04-19T07:53:18.001Z</time></trkpt><trkpt lat="45.02351374961268" lon="11.616959122943989"><ele>3.0</ele><time>2026-04-19T07:53:19.001Z</time></trkpt><trkpt lat="45.02350215731407" lon="11.617315748088897"><ele>3.0</ele><time>2026-04-19T07:53:20.001Z</time></trkpt><trkpt lat="45.0234917117402" lon="11.617666012045918"><ele>3.0</ele><time>2026-04-19T07:53:21.001Z</time></trkpt><trkpt lat="45.02347965440599" lon="11.61801235792817"><ele>3.0</ele><time>2026-04-19T07:53:22.001Z</time></trkpt><trkpt lat="45.02346853067836" lon="11.618354041712145"><ele>3.0</ele><time>2026-04-19T07:53:23.001Z</time></trkpt><trkpt lat="45.02345728186943" lon="11.618695786315842"><ele>3.0</ele><time>2026-04-19T07:53:24.001Z</time></trkpt><trkpt lat="45.02344500742213" lon="11.619044351826929"><ele>3.0</ele><time>2026-04-19T07:53:25.001Z</time></trkpt><trkpt lat="45.023433038079354" lon="11.61939147860477"><ele>3.0</ele><time>2026-04-19T07:53:26.001Z</time></trkpt><trkpt lat="45.02342344702275" lon="11.619743334133243"><ele>3.0</ele><time>2026-04-19T07:53:27.001Z</time></trkpt><trkpt lat="45.023410738912155" lon="11.620103503414775"><ele>3.0</ele><time>2026-04-19T07:53:28.001Z</time></trkpt><trkpt lat="45.02340006465203" lon="11.620458265341432"><ele>3.0</ele><time>2026-04-19T07:53:29.001Z</time></trkpt><trkpt lat="45.023391435660216" lon="11.620806777809921"><ele>3.5</ele><time>2026-04-19T07:53:30.001Z</time></trkpt><trkpt lat="45.0233811326192" lon="11.621154621936359"><ele>4.0</ele><time>2026-04-19T07:53:31.001Z</time></trkpt><trkpt lat="45.02336993611578" lon="11.621498432493738"><ele>4.0</ele><time>2026-04-19T07:53:32.001Z</time></trkpt><trkpt lat="45.02335948864082" lon="11.621846231679681"><ele>4.0</ele><time>2026-04-19T07:53:33.001Z</time></trkpt><trkpt lat="45.02334891617127" lon="11.62219115193065"><ele>4.0</ele><time>2026-04-19T07:53:34.001Z</time></trkpt><trkpt lat="45.02333866530205" lon="11.622539597413736"><ele>4.0</ele><time>2026-04-19T07:53:35.001Z</time></trkpt><trkpt lat="45.02332666636019" lon="11.62288364596883"><ele>4.0</ele><time>2026-04-19T07:53:36.001Z</time></trkpt><trkpt lat="45.02331481716513" lon="11.623231582392288"><ele>4.0</ele><time>2026-04-19T07:53:37.001Z</time></trkpt><trkpt lat="45.023303929836594" lon="11.623581157694995"><ele>3.5</ele><time>2026-04-19T07:53:38.001Z</time></trkpt><trkpt lat="45.02329295002402" lon="11.623936967896382"><ele>3.0</ele><time>2026-04-19T07:53:39.001Z</time></trkpt><trkpt lat="45.02328147911503" lon="11.624295865825037"><ele>3.0</ele><time>2026-04-19T07:53:40.001Z</time></trkpt><trkpt lat="45.02326766861188" lon="11.624658159699116"><ele>3.0</ele><time>2026-04-19T07:53:41.001Z</time></trkpt><trkpt lat="45.02325271554008" lon="11.625023607945181"><ele>3.5</ele><time>2026-04-19T07:53:42.001Z</time></trkpt><trkpt lat="45.02323681042607" lon="11.625387343649166"><ele>4.0</ele><time>2026-04-19T07:53:43.001Z</time></trkpt><trkpt lat="45.02321660486875" lon="11.625737057306504"><ele>4.0</ele><time>2026-04-19T07:53:44.001Z</time></trkpt><trkpt lat="45.02319479818005" lon="11.626082887324895"><ele>4.0</ele><time>2026-04-19T07:53:45.001Z</time></trkpt><trkpt lat="45.02316758403932" lon="11.62642814577598"><ele>4.0</ele><time>2026-04-19T07:53:46.001Z</time></trkpt><trkpt lat="45.023138676932824" lon="11.626779120820773"><ele>4.0</ele><time>2026-04-19T07:53:47.001Z</time></trkpt><trkpt lat="45.02310765208948" lon="11.627128619989767"><ele>4.0</ele><time>2026-04-19T07:53:48.001Z</time></trkpt><trkpt lat="45.02307724194499" lon="11.627488562607484"><ele>4.0</ele><time>2026-04-19T07:53:49.001Z</time></trkpt><trkpt lat="45.023043540762615" lon="11.627847188348857"><ele>4.0</ele><time>2026-04-19T07:53:50.001Z</time></trkpt><trkpt lat="45.023007150848024" lon="11.628205231468282"><ele>4.0</ele><time>2026-04-19T07:53:51.001Z</time></trkpt><trkpt lat="45.02296535633431" lon="11.62856524180722"><ele>4.0</ele><time>2026-04-19T07:53:52.001Z</time></trkpt><trkpt lat="45.02292289400989" lon="11.628926187948961"><ele>4.0</ele><time>2026-04-19T07:53:53.001Z</time></trkpt><trkpt lat="45.022875278807746" lon="11.629292327153433"><ele>3.5</ele><time>2026-04-19T07:53:54.001Z</time></trkpt><trkpt lat="45.022828764061884" lon="11.62965409866204"><ele>3.0</ele><time>2026-04-19T07:53:55.001Z</time></trkpt><trkpt lat="45.02277969361" lon="11.630018336881564"><ele>3.5</ele><time>2026-04-19T07:53:56.001Z</time></trkpt><trkpt lat="45.02273134094162" lon="11.630380913983029"><ele>4.0</ele><time>2026-04-19T07:53:57.001Z</time></trkpt><trkpt lat="45.02268207227581" lon="11.630743901312174"><ele>4.0</ele><time>2026-04-19T07:53:58.001Z</time></trkpt><trkpt lat="45.02263497137407" lon="11.63110827570828"><ele>4.0</ele><time>2026-04-19T07:53:59.001Z</time></trkpt><trkpt lat="45.022589386563396" lon="11.631464596895468"><ele>4.0</ele><time>2026-04-19T07:54:00.001Z</time></trkpt><trkpt lat="45.02254337144582" lon="11.631821254075524"><ele>4.0</ele><time>2026-04-19T07:54:01.001Z</time></trkpt><trkpt lat="45.02250097546586" lon="11.632173446155345"><ele>4.0</ele><time>2026-04-19T07:54:02.001Z</time></trkpt><trkpt lat="45.02245617983922" lon="11.6325286568019"><ele>4.0</ele><time>2026-04-19T07:54:03.001Z</time></trkpt><trkpt lat="45.02241030279356" lon="11.632881192012876"><ele>4.0</ele><time>2026-04-19T07:54:04.001Z</time></trkpt><trkpt lat="45.022364811229146" lon="11.633239898619063"><ele>4.0</ele><time>2026-04-19T07:54:05.001Z</time></trkpt><trkpt lat="45.02231809052061" lon="11.633596204813184"><ele>3.5</ele><time>2026-04-19T07:54:06.001Z</time></trkpt><trkpt lat="45.02227150546384" lon="11.633954252990739"><ele>3.0</ele><time>2026-04-19T07:54:07.001Z</time></trkpt><trkpt lat="45.022223138143495" lon="11.634313724092781"><ele>3.0</ele><time>2026-04-19T07:54:08.001Z</time></trkpt><trkpt lat="45.022175788263155" lon="11.634669731683806"><ele>3.0</ele><time>2026-04-19T07:54:09.001Z</time></trkpt><trkpt lat="45.02212812893959" lon="11.63502327018737"><ele>3.5</ele><time>2026-04-19T07:54:10.001Z</time></trkpt><trkpt lat="45.022082018516194" lon="11.635366090637241"><ele>4.0</ele><time>2026-04-19T07:54:11.001Z</time></trkpt><trkpt lat="45.02203385992874" lon="11.63570873292826"><ele>4.0</ele><time>2026-04-19T07:54:12.001Z</time></trkpt><trkpt lat="45.02198952212692" lon="11.63605191724775"><ele>4.0</ele><time>2026-04-19T07:54:13.001Z</time></trkpt><trkpt lat="45.021946263083485" lon="11.636391859194326"><ele>4.0</ele><time>2026-04-19T07:54:14.001Z</time></trkpt><trkpt lat="45.021902684752284" lon="11.636733583268562"><ele>4.0</ele><time>2026-04-19T07:54:15.001Z</time></trkpt><trkpt lat="45.02186045964244" lon="11.63706664707825"><ele>4.5</ele><time>2026-04-19T07:54:16.001Z</time></trkpt><trkpt lat="45.021821547505546" lon="11.637401386215407"><ele>5.0</ele><time>2026-04-19T07:54:17.001Z</time></trkpt><trkpt lat="45.021780319413956" lon="11.637735548670117"><ele>5.5</ele><time>2026-04-19T07:54:18.001Z</time></trkpt><trkpt lat="45.021741101264915" lon="11.638071777335764"><ele>6.0</ele><time>2026-04-19T07:54:19.001Z</time></trkpt><trkpt lat="45.02170119970851" lon="11.63840258274297"><ele>6.0</ele><time>2026-04-19T07:54:20.001Z</time></trkpt><trkpt lat="45.021663255627715" lon="11.638732264152273"><ele>6.0</ele><time>2026-04-19T07:54:21.001Z</time></trkpt><trkpt lat="45.021623615359545" lon="11.639059826680082"><ele>6.5</ele><time>2026-04-19T07:54:22.001Z</time></trkpt><trkpt lat="45.021586362296134" lon="11.639393676120815"><ele>7.0</ele><time>2026-04-19T07:54:23.001Z</time></trkpt><trkpt lat="45.02154021733748" lon="11.639733836975806"><ele>7.0</ele><time>2026-04-19T07:54:24.001Z</time></trkpt><trkpt lat="45.02149679162464" lon="11.64008157194688"><ele>7.0</ele><time>2026-04-19T07:54:25.001Z</time></trkpt><trkpt lat="45.02145208940804" lon="11.640440907438345"><ele>7.0</ele><time>2026-04-19T07:54:26.001Z</time></trkpt><trkpt lat="45.021406396003115" lon="11.640810858663025"><ele>7.0</ele><time>2026-04-19T07:54:27.001Z</time></trkpt><trkpt lat="45.02136059499933" lon="11.641185385682789"><ele>6.0</ele><time>2026-04-19T07:54:28.001Z</time></trkpt><trkpt lat="45.02131509987163" lon="11.641569888667805"><ele>5.0</ele><time>2026-04-19T07:54:29.001Z</time></trkpt><trkpt lat="45.02127161662689" lon="11.641963425528488"><ele>4.5</ele><time>2026-04-19T07:54:30.001Z</time></trkpt><trkpt lat="45.021226590554235" lon="11.642358335493704"><ele>4.0</ele><time>2026-04-19T07:54:31.001Z</time></trkpt><trkpt lat="45.02118988021972" lon="11.64274848526843"><ele>3.5</ele><time>2026-04-19T07:54:32.001Z</time></trkpt><trkpt lat="45.02115135458147" lon="11.643145548716577"><ele>3.0</ele><time>2026-04-19T07:54:33.001Z</time></trkpt><trkpt lat="45.02112548086692" lon="11.643545791166126"><ele>3.5</ele><time>2026-04-19T07:54:34.001Z</time></trkpt><trkpt lat="45.02110435523988" lon="11.643949876322019"><ele>4.0</ele><time>2026-04-19T07:54:35.001Z</time></trkpt><trkpt lat="45.02108626431309" lon="11.644355727711082"><ele>4.0</ele><time>2026-04-19T07:54:36.001Z</time></trkpt><trkpt lat="45.021071164798144" lon="11.644767042418385"><ele>4.0</ele><time>2026-04-19T07:54:37.001Z</time></trkpt><trkpt lat="45.02106107685046" lon="11.645183477047814"><ele>3.5</ele><time>2026-04-19T07:54:38.001Z</time></trkpt><trkpt lat="45.02105087602426" lon="11.645609334598166"><ele>3.0</ele><time>2026-04-19T07:54:39.001Z</time></trkpt><trkpt lat="45.02104762918205" lon="11.646027732643361"><ele>3.0</ele><time>2026-04-19T07:54:40.001Z</time></trkpt><trkpt lat="45.0210465442066" lon="11.646442351468737"><ele>3.0</ele><time>2026-04-19T07:54:41.001Z</time></trkpt><trkpt lat="45.02105049271903" lon="11.646858423025035"><ele>3.5</ele><time>2026-04-19T07:54:42.001Z</time></trkpt><trkpt lat="45.02105406800129" lon="11.64726802702787"><ele>4.0</ele><time>2026-04-19T07:54:43.001Z</time></trkpt><trkpt lat="45.021058352448826" lon="11.647675496786245"><ele>4.0</ele><time>2026-04-19T07:54:44.001Z</time></trkpt><trkpt lat="45.021062214026536" lon="11.648086755526508"><ele>4.0</ele><time>2026-04-19T07:54:45.001Z</time></trkpt><trkpt lat="45.021068224037464" lon="11.648494969284062"><ele>4.5</ele><time>2026-04-19T07:54:46.001Z</time></trkpt><trkpt lat="45.021071013292904" lon="11.648898070610842"><ele>5.0</ele><time>2026-04-19T07:54:47.001Z</time></trkpt><trkpt lat="45.021074514195064" lon="11.649298892116152"><ele>4.5</ele><time>2026-04-19T07:54:48.001Z</time></trkpt><trkpt lat="45.02107823844859" lon="11.649698609369622"><ele>4.0</ele><time>2026-04-19T07:54:49.001Z</time></trkpt><trkpt lat="45.021082840734465" lon="11.65009388901253"><ele>4.0</ele><time>2026-04-19T07:54:50.001Z</time></trkpt><trkpt lat="45.02108899492385" lon="11.650478757255971"><ele>4.0</ele><time>2026-04-19T07:54:51.001Z</time></trkpt><trkpt lat="45.021091773299155" lon="11.650848953526747"><ele>4.5</ele><time>2026-04-19T07:54:52.001Z</time></trkpt><trkpt lat="45.021094442144445" lon="11.65121496822125"><ele>5.0</ele><time>2026-04-19T07:54:53.001Z</time></trkpt><trkpt lat="45.021095911502506" lon="11.651579409705459"><ele>5.0</ele><time>2026-04-19T07:54:54.001Z</time></trkpt><trkpt lat="45.0210986142028" lon="11.651944564889618"><ele>5.0</ele><time>2026-04-19T07:54:55.001Z</time></trkpt><trkpt lat="45.02110102457943" lon="11.6523082552368"><ele>5.0</ele><time>2026-04-19T07:54:56.001Z</time></trkpt><trkpt lat="45.021102546418135" lon="11.65267413421839"><ele>5.0</ele><time>2026-04-19T07:54:57.001Z</time></trkpt><trkpt lat="45.0211034273973" lon="11.653044218953283"><ele>5.0</ele><time>2026-04-19T07:54:58.001Z</time></trkpt><trkpt lat="45.021106595389426" lon="11.653422046337674"><ele>5.0</ele><time>2026-04-19T07:54:59.001Z</time></trkpt><trkpt lat="45.021111080652105" lon="11.653805889818111"><ele>5.0</ele><time>2026-04-19T07:55:00.001Z</time></trkpt><trkpt lat="45.02111550595153" lon="11.654196323421967"><ele>5.0</ele><time>2026-04-19T07:55:01.001Z</time></trkpt><trkpt lat="45.02111896917277" lon="11.65459255052244"><ele>5.0</ele><time>2026-04-19T07:55:02.001Z</time></trkpt><trkpt lat="45.021121711809826" lon="11.654989630837903"><ele>5.0</ele><time>2026-04-19T07:55:03.001Z</time></trkpt><trkpt lat="45.02112616851846" lon="11.655389019810851"><ele>5.0</ele><time>2026-04-19T07:55:04.001Z</time></trkpt><trkpt lat="45.02112998071514" lon="11.655791649481552"><ele>5.0</ele><time>2026-04-19T07:55:05.001Z</time></trkpt><trkpt lat="45.021132614285925" lon="11.656191589975842"><ele>5.0</ele><time>2026-04-19T07:55:06.001Z</time></trkpt><trkpt lat="45.02113200061835" lon="11.656586181140975"><ele>5.0</ele><time>2026-04-19T07:55:07.001Z</time></trkpt><trkpt lat="45.02112909433588" lon="11.656975152342575"><ele>4.5</ele><time>2026-04-19T07:55:08.001Z</time></trkpt><trkpt lat="45.02112477013774" lon="11.657360586479351"><ele>4.0</ele><time>2026-04-19T07:55:09.001Z</time></trkpt><trkpt lat="45.0211212077137" lon="11.657742785723919"><ele>3.5</ele><time>2026-04-19T07:55:10.001Z</time></trkpt><trkpt lat="45.02112018115474" lon="11.658120815829935"><ele>3.0</ele><time>2026-04-19T07:55:11.001Z</time></trkpt><trkpt lat="45.021123194790015" lon="11.65849765880616"><ele>3.5</ele><time>2026-04-19T07:55:12.001Z</time></trkpt><trkpt lat="45.02112765415425" lon="11.658877859179015"><ele>4.0</ele><time>2026-04-19T07:55:13.001Z</time></trkpt><trkpt lat="45.02113321402793" lon="11.659261416861577"><ele>4.0</ele><time>2026-04-19T07:55:14.001Z</time></trkpt><trkpt lat="45.02113492839448" lon="11.659653337083682"><ele>4.0</ele><time>2026-04-19T07:55:15.001Z</time></trkpt><trkpt lat="45.02113751867062" lon="11.66004372511476"><ele>4.5</ele><time>2026-04-19T07:55:16.001Z</time></trkpt><trkpt lat="45.02114070129541" lon="11.660430874358736"><ele>5.0</ele><time>2026-04-19T07:55:17.001Z</time></trkpt><trkpt lat="45.02114433840247" lon="11.660817621936868"><ele>4.5</ele><time>2026-04-19T07:55:18.001Z</time></trkpt><trkpt lat="45.02114832354161" lon="11.66120627377248"><ele>4.0</ele><time>2026-04-19T07:55:19.001Z</time></trkpt><trkpt lat="45.02115063058104" lon="11.661601665113329"><ele>4.5</ele><time>2026-04-19T07:55:20.001Z</time></trkpt><trkpt lat="45.021153025711065" lon="11.661997917000548"><ele>5.0</ele><time>2026-04-19T07:55:21.001Z</time></trkpt><trkpt lat="45.02115588537512" lon="11.66239374733238"><ele>4.5</ele><time>2026-04-19T07:55:22.001Z</time></trkpt><trkpt lat="45.02115853494703" lon="11.662791476292712"><ele>4.0</ele><time>2026-04-19T07:55:23.001Z</time></trkpt><trkpt lat="45.02116143384621" lon="11.663197370504438"><ele>4.0</ele><time>2026-04-19T07:55:24.001Z</time></trkpt><trkpt lat="45.02116395454347" lon="11.663593933934559"><ele>4.0</ele><time>2026-04-19T07:55:25.001Z</time></trkpt><trkpt lat="45.02116541064882" lon="11.663994453984673"><ele>3.0</ele><time>2026-04-19T07:55:26.001Z</time></trkpt><trkpt lat="45.02116785731815" lon="11.664398351476672"><ele>2.0</ele><time>2026-04-19T07:55:27.001Z</time></trkpt><trkpt lat="45.021171893599465" lon="11.664805786254114"><ele>2.0</ele><time>2026-04-19T07:55:28.001Z</time></trkpt><trkpt lat="45.021177458232124" lon="11.665209859696883"><ele>2.0</ele><time>2026-04-19T07:55:29.001Z</time></trkpt><trkpt lat="45.02118192499612" lon="11.665614033069893"><ele>2.0</ele><time>2026-04-19T07:55:30.001Z</time></trkpt><trkpt lat="45.021184724065655" lon="11.666020576492478"><ele>2.0</ele><time>2026-04-19T07:55:31.001Z</time></trkpt><trkpt lat="45.02118770054786" lon="11.666432246248696"><ele>2.5</ele><time>2026-04-19T07:55:32.001Z</time></trkpt><trkpt lat="45.02118963286745" lon="11.66684101001162"><ele>3.0</ele><time>2026-04-19T07:55:33.001Z</time></trkpt><trkpt lat="45.02119249542523" lon="11.667251279478425"><ele>3.0</ele><time>2026-04-19T07:55:34.001Z</time></trkpt><trkpt lat="45.02119683111313" lon="11.66766374702075"><ele>3.0</ele><time>2026-04-19T07:55:35.001Z</time></trkpt><trkpt lat="45.02120264136785" lon="11.668076663418669"><ele>3.0</ele><time>2026-04-19T07:55:36.001Z</time></trkpt><trkpt lat="45.021208472856834" lon="11.66847949034838"><ele>3.0</ele><time>2026-04-19T07:55:37.001Z</time></trkpt><trkpt lat="45.0212108500421" lon="11.668871628704501"><ele>3.0</ele><time>2026-04-19T07:55:38.001Z</time></trkpt><trkpt lat="45.02121331806559" lon="11.66925828135612"><ele>3.0</ele><time>2026-04-19T07:55:39.001Z</time></trkpt><trkpt lat="45.021215692255744" lon="11.669640604889677"><ele>3.0</ele><time>2026-04-19T07:55:40.001Z</time></trkpt><trkpt lat="45.0212187148977" lon="11.670019052979635"><ele>3.0</ele><time>2026-04-19T07:55:41.001Z</time></trkpt><trkpt lat="45.02122252461993" lon="11.67039882421586"><ele>3.0</ele><time>2026-04-19T07:55:42.001Z</time></trkpt><trkpt lat="45.02122399971299" lon="11.670781170021195"><ele>3.0</ele><time>2026-04-19T07:55:43.001Z</time></trkpt><trkpt lat="45.02122652629228" lon="11.671163405801163"><ele>3.0</ele><time>2026-04-19T07:55:44.001Z</time></trkpt><trkpt lat="45.021230928554445" lon="11.671546412436047"><ele>3.0</ele><time>2026-04-19T07:55:45.001Z</time></trkpt><trkpt lat="45.02123681090057" lon="11.671929005614968"><ele>3.0</ele><time>2026-04-19T07:55:46.001Z</time></trkpt><trkpt lat="45.02124397940144" lon="11.67231651149058"><ele>3.0</ele><time>2026-04-19T07:55:47.001Z</time></trkpt><trkpt lat="45.021251429003534" lon="11.672707582486426"><ele>3.5</ele><time>2026-04-19T07:55:48.001Z</time></trkpt><trkpt lat="45.02125898022763" lon="11.67310129019257"><ele>4.0</ele><time>2026-04-19T07:55:49.001Z</time></trkpt><trkpt lat="45.02126590134214" lon="11.673504820735943"><ele>4.5</ele><time>2026-04-19T07:55:50.001Z</time></trkpt><trkpt lat="45.02127184531585" lon="11.673911134691124"><ele>5.0</ele><time>2026-04-19T07:55:51.001Z</time></trkpt><trkpt lat="45.021276319814454" lon="11.67432033731471"><ele>5.5</ele><time>2026-04-19T07:55:52.001Z</time></trkpt><trkpt lat="45.0212802741765" lon="11.674733731840451"><ele>6.0</ele><time>2026-04-19T07:55:53.001Z</time></trkpt><trkpt lat="45.02128558118202" lon="11.675150762711894"><ele>5.5</ele><time>2026-04-19T07:55:54.001Z</time></trkpt><trkpt lat="45.02128951950436" lon="11.675554106798584"><ele>5.0</ele><time>2026-04-19T07:55:55.001Z</time></trkpt><trkpt lat="45.021290444701194" lon="11.675953707128663"><ele>4.0</ele><time>2026-04-19T07:55:56.001Z</time></trkpt><trkpt lat="45.02129596901909" lon="11.67635559753879"><ele>3.0</ele><time>2026-04-19T07:55:57.001Z</time></trkpt><trkpt lat="45.021298174596865" lon="11.676775660079121"><ele>3.5</ele><time>2026-04-19T07:55:58.001Z</time></trkpt><trkpt lat="45.02130004428295" lon="11.677167142573214"><ele>4.0</ele><time>2026-04-19T07:55:59.001Z</time></trkpt><trkpt lat="45.02129955664696" lon="11.677548166716068"><ele>4.0</ele><time>2026-04-19T07:56:00.001Z</time></trkpt><trkpt lat="45.02129962506948" lon="11.677923985594921"><ele>4.0</ele><time>2026-04-19T07:56:01.001Z</time></trkpt><trkpt lat="45.02130074022082" lon="11.678295440476521"><ele>4.0</ele><time>2026-04-19T07:56:02.001Z</time></trkpt><trkpt lat="45.02130365931983" lon="11.678669194688238"><ele>4.0</ele><time>2026-04-19T07:56:03.001Z</time></trkpt><trkpt lat="45.02130563424443" lon="11.679041439218702"><ele>4.0</ele><time>2026-04-19T07:56:04.001Z</time></trkpt><trkpt lat="45.02130520749385" lon="11.6793971753376"><ele>4.0</ele><time>2026-04-19T07:56:05.001Z</time></trkpt><trkpt lat="45.021304207192365" lon="11.679739978758775"><ele>4.5</ele><time>2026-04-19T07:56:06.001Z</time></trkpt><trkpt lat="45.02130276108596" lon="11.680074453746752"><ele>5.0</ele><time>2026-04-19T07:56:07.001Z</time></trkpt><trkpt lat="45.02130241533855" lon="11.680407554902796"><ele>5.0</ele><time>2026-04-19T07:56:08.001Z</time></trkpt><trkpt lat="45.021304836800496" lon="11.68074382732811"><ele>5.0</ele><time>2026-04-19T07:56:09.001Z</time></trkpt><trkpt lat="45.021307337383185" lon="11.68108069134486"><ele>5.0</ele><time>2026-04-19T07:56:10.001Z</time></trkpt><trkpt lat="45.0213134205354" lon="11.681419094657599"><ele>5.0</ele><time>2026-04-19T07:56:11.001Z</time></trkpt><trkpt lat="45.021317050495064" lon="11.681760515160232"><ele>5.0</ele><time>2026-04-19T07:56:12.001Z</time></trkpt><trkpt lat="45.02131987336591" lon="11.68210608413176"><ele>5.0</ele><time>2026-04-19T07:56:13.001Z</time></trkpt><trkpt lat="45.021321958070246" lon="11.682461872325979"><ele>5.0</ele><time>2026-04-19T07:56:14.001Z</time></trkpt><trkpt lat="45.021324269138965" lon="11.682818109357303"><ele>5.0</ele><time>2026-04-19T07:56:15.001Z</time></trkpt><trkpt lat="45.021325866645235" lon="11.683177550268256"><ele>5.0</ele><time>2026-04-19T07:56:16.001Z</time></trkpt><trkpt lat="45.021328502345646" lon="11.683540197357239"><ele>5.0</ele><time>2026-04-19T07:56:17.001Z</time></trkpt><trkpt lat="45.021331278376366" lon="11.683906515745807"><ele>4.5</ele><time>2026-04-19T07:56:18.001Z</time></trkpt><trkpt lat="45.02133308224195" lon="11.684273546709619"><ele>4.0</ele><time>2026-04-19T07:56:19.001Z</time></trkpt><trkpt lat="45.02133381986126" lon="11.68464393001586"><ele>4.0</ele><time>2026-04-19T07:56:20.001Z</time></trkpt><trkpt lat="45.02133382105976" lon="11.685018944058035"><ele>4.0</ele><time>2026-04-19T07:56:21.001Z</time></trkpt><trkpt lat="45.021333127245136" lon="11.68539178158171"><ele>3.5</ele><time>2026-04-19T07:56:22.001Z</time></trkpt><trkpt lat="45.021328797483626" lon="11.685767243655254"><ele>3.0</ele><time>2026-04-19T07:56:23.001Z</time></trkpt><trkpt lat="45.02131961042008" lon="11.686144567949931"><ele>2.5</ele><time>2026-04-19T07:56:24.001Z</time></trkpt><trkpt lat="45.02130457207177" lon="11.686526853609188"><ele>2.0</ele><time>2026-04-19T07:56:25.001Z</time></trkpt><trkpt lat="45.021286321667574" lon="11.686907021213917"><ele>1.5</ele><time>2026-04-19T07:56:26.001Z</time></trkpt><trkpt lat="45.02126506404582" lon="11.687286309154208"><ele>1.0</ele><time>2026-04-19T07:56:27.001Z</time></trkpt><trkpt lat="45.0212402512334" lon="11.687665519102538"><ele>1.5</ele><time>2026-04-19T07:56:28.001Z</time></trkpt><trkpt lat="45.02121419445483" lon="11.688041148822101"><ele>2.0</ele><time>2026-04-19T07:56:29.001Z</time></trkpt><trkpt lat="45.021186860304915" lon="11.68841046377906"><ele>2.5</ele><time>2026-04-19T07:56:30.001Z</time></trkpt><trkpt lat="45.021155514184365" lon="11.688782705967746"><ele>3.0</ele><time>2026-04-19T07:56:31.001Z</time></trkpt><trkpt lat="45.02111885656766" lon="11.68915287873598"><ele>3.0</ele><time>2026-04-19T07:56:32.001Z</time></trkpt><trkpt lat="45.02107858152107" lon="11.689525724909132"><ele>3.0</ele><time>2026-04-19T07:56:33.001Z</time></trkpt><trkpt lat="45.02102977497902" lon="11.689894972032942"><ele>3.0</ele><time>2026-04-19T07:56:34.001Z</time></trkpt><trkpt lat="45.02097265939933" lon="11.690250018126019"><ele>3.0</ele><time>2026-04-19T07:56:35.001Z</time></trkpt><trkpt lat="45.02091326547278" lon="11.690598237738211"><ele>3.0</ele><time>2026-04-19T07:56:36.001Z</time></trkpt><trkpt lat="45.020850091987555" lon="11.690941167234492"><ele>3.0</ele><time>2026-04-19T07:56:37.001Z</time></trkpt><trkpt lat="45.020789981056055" lon="11.691284082621577"><ele>2.5</ele><time>2026-04-19T07:56:38Z</time></trkpt><trkpt lat="45.02073156135659" lon="11.69162979732736"><ele>2.0</ele><time>2026-04-19T07:56:39Z</time></trkpt><trkpt lat="45.02067223400883" lon="11.691979950869847"><ele>2.0</ele><time>2026-04-19T07:56:40Z</time></trkpt><trkpt lat="45.020612825953286" lon="11.692334316255744"><ele>2.0</ele><time>2026-04-19T07:56:41Z</time></trkpt><trkpt lat="45.02055259723872" lon="11.692699665830476"><ele>2.0</ele><time>2026-04-19T07:56:42Z</time></trkpt><trkpt lat="45.02048876711336" lon="11.693076345420494"><ele>2.0</ele><time>2026-04-19T07:56:43Z</time></trkpt><trkpt lat="45.020429792978675" lon="11.69343249774729"><ele>2.0</ele><time>2026-04-19T07:56:44Z</time></trkpt><trkpt lat="45.020369341892284" lon="11.69379616244308"><ele>2.0</ele><time>2026-04-19T07:56:45Z</time></trkpt><trkpt lat="45.02031005723758" lon="11.694148171222507"><ele>2.0</ele><time>2026-04-19T07:56:46Z</time></trkpt><trkpt lat="45.02025233295884" lon="11.694486373876785"><ele>2.0</ele><time>2026-04-19T07:56:47Z</time></trkpt><trkpt lat="45.02019539569777" lon="11.694827509051821"><ele>2.0</ele><time>2026-04-19T07:56:48Z</time></trkpt><trkpt lat="45.02013727406735" lon="11.695176529742149"><ele>2.0</ele><time>2026-04-19T07:56:49Z</time></trkpt><trkpt lat="45.02007994541192" lon="11.695528727848696"><ele>1.5</ele><time>2026-04-19T07:56:50Z</time></trkpt><trkpt lat="45.020023363158664" lon="11.695885528029757"><ele>1.0</ele><time>2026-04-19T07:56:51Z</time></trkpt><trkpt lat="45.01996743570572" lon="11.696243236359072"><ele>1.0</ele><time>2026-04-19T07:56:52Z</time></trkpt><trkpt lat="45.01991284944356" lon="11.696606840025547"><ele>1.0</ele><time>2026-04-19T07:56:53Z</time></trkpt><trkpt lat="45.01986204590731" lon="11.696975494271266"><ele>1.0</ele><time>2026-04-19T07:56:54Z</time></trkpt><trkpt lat="45.01981765588762" lon="11.697352309750608"><ele>1.0</ele><time>2026-04-19T07:56:55Z</time></trkpt><trkpt lat="45.0197830844627" lon="11.69773549350422"><ele>1.0</ele><time>2026-04-19T07:56:56Z</time></trkpt><trkpt lat="45.01975444555337" lon="11.698122187334567"><ele>1.0</ele><time>2026-04-19T07:56:57Z</time></trkpt><trkpt lat="45.01972667173303" lon="11.698503747818776"><ele>0.5</ele><time>2026-04-19T07:56:58Z</time></trkpt><trkpt lat="45.01970292659" lon="11.69887269986047"><ele>0.0</ele><time>2026-04-19T07:56:59Z</time></trkpt><trkpt lat="45.019681731263965" lon="11.699233392548297"><ele>0.5</ele><time>2026-04-19T07:57:00.001Z</time></trkpt><trkpt lat="45.019662243342026" lon="11.699592618700189"><ele>1.0</ele><time>2026-04-19T07:57:01.001Z</time></trkpt><trkpt lat="45.019646314744136" lon="11.699949588586692"><ele>1.5</ele><time>2026-04-19T07:57:02.001Z</time></trkpt><trkpt lat="45.019635194303476" lon="11.700305643097455"><ele>2.0</ele><time>2026-04-19T07:57:03.001Z</time></trkpt><trkpt lat="45.01962786009166" lon="11.700668995848085"><ele>2.0</ele><time>2026-04-19T07:57:04.001Z</time></trkpt><trkpt lat="45.019624970078475" lon="11.701034943785078"><ele>2.0</ele><time>2026-04-19T07:57:05.001Z</time></trkpt><trkpt lat="45.019624176094204" lon="11.701402145183222"><ele>2.5</ele><time>2026-04-19T07:57:06.001Z</time></trkpt><trkpt lat="45.01962403209408" lon="11.701768412791978"><ele>3.0</ele><time>2026-04-19T07:57:07.001Z</time></trkpt><trkpt lat="45.01962877268742" lon="11.70214147456671"><ele>3.5</ele><time>2026-04-19T07:57:08.001Z</time></trkpt><trkpt lat="45.01964061282713" lon="11.702514708563877"><ele>4.0</ele><time>2026-04-19T07:57:09.001Z</time></trkpt><trkpt lat="45.01965777467789" lon="11.702896616184926"><ele>3.0</ele><time>2026-04-19T07:57:10.001Z</time></trkpt><trkpt lat="45.019680269073845" lon="11.703276209974781"><ele>2.0</ele><time>2026-04-19T07:57:11.001Z</time></trkpt><trkpt lat="45.019709122788804" lon="11.703651473828101"><ele>1.0</ele><time>2026-04-19T07:57:12.001Z</time></trkpt><trkpt lat="45.019741167859955" lon="11.70401479557768"><ele>0.0</ele><time>2026-04-19T07:57:13.001Z</time></trkpt><trkpt lat="45.01977438406829" lon="11.704361566025966"><ele>0.0</ele><time>2026-04-19T07:57:14.001Z</time></trkpt><trkpt lat="45.01980711900933" lon="11.704711015379834"><ele>0.0</ele><time>2026-04-19T07:57:15.001Z</time></trkpt><trkpt lat="45.01984087392814" lon="11.705067457144851"><ele>0.0</ele><time>2026-04-19T07:57:16.001Z</time></trkpt><trkpt lat="45.01987630076753" lon="11.705431722184246"><ele>0.0</ele><time>2026-04-19T07:57:17.001Z</time></trkpt><trkpt lat="45.01991427886984" lon="11.705793058176027"><ele>0.5</ele><time>2026-04-19T07:57:18.001Z</time></trkpt><trkpt lat="45.01995443178839" lon="11.706161560161824"><ele>1.0</ele><time>2026-04-19T07:57:19.001Z</time></trkpt><trkpt lat="45.01999566688193" lon="11.706532908720302"><ele>1.0</ele><time>2026-04-19T07:57:20.001Z</time></trkpt><trkpt lat="45.020035766137546" lon="11.70689752074049"><ele>1.0</ele><time>2026-04-19T07:57:21.001Z</time></trkpt><trkpt lat="45.020075857803114" lon="11.707265623516184"><ele>1.5</ele><time>2026-04-19T07:57:22.001Z</time></trkpt><trkpt lat="45.0201142674513" lon="11.707629635434593"><ele>2.0</ele><time>2026-04-19T07:57:23.001Z</time></trkpt><trkpt lat="45.02015460090177" lon="11.70799181411619"><ele>2.0</ele><time>2026-04-19T07:57:24.001Z</time></trkpt><trkpt lat="45.020195257407885" lon="11.708355148055691"><ele>2.0</ele><time>2026-04-19T07:57:25.001Z</time></trkpt><trkpt lat="45.020235967654756" lon="11.708717368910161"><ele>2.0</ele><time>2026-04-19T07:57:26.001Z</time></trkpt><trkpt lat="45.02027666737145" lon="11.709080294486627"><ele>2.0</ele><time>2026-04-19T07:57:27.001Z</time></trkpt><trkpt lat="45.02031724696132" lon="11.709442830724749"><ele>2.0</ele><time>2026-04-19T07:57:28.001Z</time></trkpt><trkpt lat="45.02035659154818" lon="11.709805878234633"><ele>2.0</ele><time>2026-04-19T07:57:29.001Z</time></trkpt><trkpt lat="45.020395598171824" lon="11.710170382379516"><ele>2.0</ele><time>2026-04-19T07:57:30.001Z</time></trkpt><trkpt lat="45.0204358838938" lon="11.710536723287921"><ele>2.0</ele><time>2026-04-19T07:57:31.001Z</time></trkpt><trkpt lat="45.02047654756526" lon="11.710904198658632"><ele>1.5</ele><time>2026-04-19T07:57:32.001Z</time></trkpt><trkpt lat="45.02051822657222" lon="11.711274958465042"><ele>1.0</ele><time>2026-04-19T07:57:33.001Z</time></trkpt><trkpt lat="45.02055944185771" lon="11.711639210376733"><ele>0.5</ele><time>2026-04-19T07:57:34.001Z</time></trkpt><trkpt lat="45.02060063310963" lon="11.712009795215303"><ele>0.0</ele><time>2026-04-19T07:57:35.001Z</time></trkpt><trkpt lat="45.020642422931054" lon="11.712376938266116"><ele>0.5</ele><time>2026-04-19T07:57:36.001Z</time></trkpt><trkpt lat="45.02068459300881" lon="11.712752993081722"><ele>1.0</ele><time>2026-04-19T07:57:37.001Z</time></trkpt><trkpt lat="45.02072757579293" lon="11.713129572158756"><ele>1.0</ele><time>2026-04-19T07:57:38.001Z</time></trkpt><trkpt lat="45.0207684573869" lon="11.713507080680522"><ele>1.0</ele><time>2026-04-19T07:57:39.001Z</time></trkpt><trkpt lat="45.02080927115078" lon="11.713884136822033"><ele>1.5</ele><time>2026-04-19T07:57:40.001Z</time></trkpt><trkpt lat="45.02084960731574" lon="11.714258394364801"><ele>2.0</ele><time>2026-04-19T07:57:41.001Z</time></trkpt><trkpt lat="45.020890881007176" lon="11.714631862817956"><ele>2.0</ele><time>2026-04-19T07:57:42.001Z</time></trkpt><trkpt lat="45.020932705511704" lon="11.715005763025287"><ele>2.0</ele><time>2026-04-19T07:57:43.001Z</time></trkpt><trkpt lat="45.0209734194243" lon="11.715373492948466"><ele>2.0</ele><time>2026-04-19T07:57:44.001Z</time></trkpt><trkpt lat="45.02101347872377" lon="11.715737400478508"><ele>2.0</ele><time>2026-04-19T07:57:45.001Z</time></trkpt><trkpt lat="45.0210530359352" lon="11.716096904910453"><ele>1.5</ele><time>2026-04-19T07:57:46.001Z</time></trkpt><trkpt lat="45.02109340509621" lon="11.716449528793197"><ele>1.0</ele><time>2026-04-19T07:57:47.001Z</time></trkpt><trkpt lat="45.02113357692214" lon="11.71680237354161"><ele>1.0</ele><time>2026-04-19T07:57:48.001Z</time></trkpt><trkpt lat="45.021171314747114" lon="11.717159649679221"><ele>1.0</ele><time>2026-04-19T07:57:49.001Z</time></trkpt><trkpt lat="45.02120958654144" lon="11.717519221472031"><ele>2.0</ele><time>2026-04-19T07:57:50.001Z</time></trkpt><trkpt lat="45.021249798013635" lon="11.717882874793915"><ele>3.0</ele><time>2026-04-19T07:57:51.001Z</time></trkpt><trkpt lat="45.02129133756712" lon="11.718247561518712"><ele>3.5</ele><time>2026-04-19T07:57:52.001Z</time></trkpt><trkpt lat="45.02133180168183" lon="11.718610242621796"><ele>4.0</ele><time>2026-04-19T07:57:53.001Z</time></trkpt><trkpt lat="45.02137292140418" lon="11.718971503932384"><ele>4.0</ele><time>2026-04-19T07:57:54.001Z</time></trkpt><trkpt lat="45.02141413987933" lon="11.71933658341219"><ele>4.0</ele><time>2026-04-19T07:57:55.001Z</time></trkpt><trkpt lat="45.02145420962846" lon="11.719705652715271"><ele>3.5</ele><time>2026-04-19T07:57:56.001Z</time></trkpt><trkpt lat="45.02149434536479" lon="11.720078817346705"><ele>3.0</ele><time>2026-04-19T07:57:57.001Z</time></trkpt><trkpt lat="45.02153483196407" lon="11.720454310271657"><ele>3.0</ele><time>2026-04-19T07:57:58.001Z</time></trkpt><trkpt lat="45.02157867875033" lon="11.720836932093526"><ele>3.0</ele><time>2026-04-19T07:57:59.001Z</time></trkpt><trkpt lat="45.02162247668979" lon="11.721226656899336"><ele>3.0</ele><time>2026-04-19T07:58:00.001Z</time></trkpt><trkpt lat="45.021669386369865" lon="11.72162646835564"><ele>3.0</ele><time>2026-04-19T07:58:01.001Z</time></trkpt><trkpt lat="45.02172018743634" lon="11.722020485978879"><ele>2.5</ele><time>2026-04-19T07:58:02.001Z</time></trkpt><trkpt lat="45.021773867301945" lon="11.722415349212824"><ele>2.0</ele><time>2026-04-19T07:58:03.001Z</time></trkpt><trkpt lat="45.021828600951096" lon="11.722810872730843"><ele>2.0</ele><time>2026-04-19T07:58:04.001Z</time></trkpt><trkpt lat="45.02188283064079" lon="11.723193005710462"><ele>2.0</ele><time>2026-04-19T07:58:05.001Z</time></trkpt><trkpt lat="45.021931914416655" lon="11.723552921288297"><ele>3.0</ele><time>2026-04-19T07:58:06.001Z</time></trkpt><trkpt lat="45.021979664077165" lon="11.723908245923342"><ele>4.0</ele><time>2026-04-19T07:58:07.001Z</time></trkpt><trkpt lat="45.02202933259334" lon="11.724264696551963"><ele>3.0</ele><time>2026-04-19T07:58:08.001Z</time></trkpt><trkpt lat="45.02208430583585" lon="11.724621591852463"><ele>2.0</ele><time>2026-04-19T07:58:09.001Z</time></trkpt><trkpt lat="45.02214428620232" lon="11.724978109704727"><ele>2.5</ele><time>2026-04-19T07:58:10.001Z</time></trkpt><trkpt lat="45.022210622764824" lon="11.72533150356534"><ele>3.0</ele><time>2026-04-19T07:58:11.001Z</time></trkpt><trkpt lat="45.02228499139519" lon="11.725686236185481"><ele>3.0</ele><time>2026-04-19T07:58:12.001Z</time></trkpt><trkpt lat="45.02236538242301" lon="11.726040219736431"><ele>3.0</ele><time>2026-04-19T07:58:13.001Z</time></trkpt><trkpt lat="45.02245065469442" lon="11.726394987177718"><ele>3.0</ele><time>2026-04-19T07:58:14.001Z</time></trkpt><trkpt lat="45.022538673248285" lon="11.726749127519284"><ele>3.0</ele><time>2026-04-19T07:58:15.001Z</time></trkpt><trkpt lat="45.0226245482526" lon="11.727103660225408"><ele>3.0</ele><time>2026-04-19T07:58:16.001Z</time></trkpt><trkpt lat="45.02271067877618" lon="11.727453830428155"><ele>3.0</ele><time>2026-04-19T07:58:17.001Z</time></trkpt><trkpt lat="45.02280264800605" lon="11.727809743383391"><ele>3.0</ele><time>2026-04-19T07:58:18.001Z</time></trkpt><trkpt lat="45.02289648564743" lon="11.728169403098924"><ele>3.0</ele><time>2026-04-19T07:58:19.001Z</time></trkpt><trkpt lat="45.022993913674625" lon="11.728530870423137"><ele>3.0</ele><time>2026-04-19T07:58:20.001Z</time></trkpt><trkpt lat="45.02309329123471" lon="11.728897236781433"><ele>3.0</ele><time>2026-04-19T07:58:21.001Z</time></trkpt><trkpt lat="45.023194044748706" lon="11.729261888329786"><ele>3.0</ele><time>2026-04-19T07:58:22.001Z</time></trkpt><trkpt lat="45.0232960382668" lon="11.729626976646493"><ele>3.0</ele><time>2026-04-19T07:58:23.001Z</time></trkpt><trkpt lat="45.02339918939506" lon="11.729994482393371"><ele>3.0</ele><time>2026-04-19T07:58:24.001Z</time></trkpt><trkpt lat="45.02350537596555" lon="11.730371149704757"><ele>3.0</ele><time>2026-04-19T07:58:25.001Z</time></trkpt><trkpt lat="45.023611237998" lon="11.730750311508725"><ele>3.0</ele><time>2026-04-19T07:58:26.001Z</time></trkpt><trkpt lat="45.023717229087644" lon="11.731130109183354"><ele>3.0</ele><time>2026-04-19T07:58:27.001Z</time></trkpt><trkpt lat="45.02382318148065" lon="11.731510695636855"><ele>3.0</ele><time>2026-04-19T07:58:28.001Z</time></trkpt><trkpt lat="45.02392752275841" lon="11.731890779705346"><ele>3.0</ele><time>2026-04-19T07:58:29.001Z</time></trkpt><trkpt lat="45.02403024524606" lon="11.732269323625726"><ele>3.0</ele><time>2026-04-19T07:58:30.001Z</time></trkpt><trkpt lat="45.02413055189349" lon="11.73264830328678"><ele>3.0</ele><time>2026-04-19T07:58:31.001Z</time></trkpt><trkpt lat="45.02423165033237" lon="11.733030346133235"><ele>3.5</ele><time>2026-04-19T07:58:32.001Z</time></trkpt><trkpt lat="45.02433010688329" lon="11.733414545592142"><ele>4.0</ele><time>2026-04-19T07:58:33.001Z</time></trkpt><trkpt lat="45.02442749816656" lon="11.733789625720519"><ele>3.0</ele><time>2026-04-19T07:58:34.001Z</time></trkpt><trkpt lat="45.02452335634883" lon="11.734145456089665"><ele>2.0</ele><time>2026-04-19T07:58:35.001Z</time></trkpt><trkpt lat="45.02461662796751" lon="11.73448772847408"><ele>1.0</ele><time>2026-04-19T07:58:36.001Z</time></trkpt><trkpt lat="45.02470320092749" lon="11.73481672476619"><ele>0.0</ele><time>2026-04-19T07:58:37.001Z</time></trkpt><trkpt lat="45.02478769112766" lon="11.735135810120958"><ele>0.5</ele><time>2026-04-19T07:58:38.001Z</time></trkpt><trkpt lat="45.024874110010266" lon="11.735451725741253"><ele>1.0</ele><time>2026-04-19T07:58:39.001Z</time></trkpt><trkpt lat="45.024960474134616" lon="11.735767093829885"><ele>1.0</ele><time>2026-04-19T07:58:40.001Z</time></trkpt><trkpt lat="45.025044424921695" lon="11.736083400712284"><ele>1.0</ele><time>2026-04-19T07:58:41.001Z</time></trkpt><trkpt lat="45.025123738644254" lon="11.736401210254963"><ele>1.0</ele><time>2026-04-19T07:58:42.001Z</time></trkpt><trkpt lat="45.02519991567057" lon="11.736724502111722"><ele>1.0</ele><time>2026-04-19T07:58:43.001Z</time></trkpt><trkpt lat="45.02526972532346" lon="11.737055670742134"><ele>1.0</ele><time>2026-04-19T07:58:44Z</time></trkpt><trkpt lat="45.02533497513195" lon="11.737396536658737"><ele>1.0</ele><time>2026-04-19T07:58:45Z</time></trkpt><trkpt lat="45.02539634018384" lon="11.737743461181312"><ele>0.5</ele><time>2026-04-19T07:58:46Z</time></trkpt><trkpt lat="45.02545392187422" lon="11.7380978101442"><ele>0.0</ele><time>2026-04-19T07:58:47Z</time></trkpt><trkpt lat="45.02550745252704" lon="11.73845682358132"><ele>1.0</ele><time>2026-04-19T07:58:48Z</time></trkpt><trkpt lat="45.02555654956525" lon="11.738817431458022"><ele>2.0</ele><time>2026-04-19T07:58:49Z</time></trkpt><trkpt lat="45.02560046414661" lon="11.739178497659356"><ele>2.0</ele><time>2026-04-19T07:58:50Z</time></trkpt><trkpt lat="45.025639879690125" lon="11.739542503633036"><ele>2.0</ele><time>2026-04-19T07:58:51Z</time></trkpt><trkpt lat="45.02566961665098" lon="11.73991034749852"><ele>1.5</ele><time>2026-04-19T07:58:52Z</time></trkpt><trkpt lat="45.02569542254807" lon="11.740282152764713"><ele>1.0</ele><time>2026-04-19T07:58:53Z</time></trkpt><trkpt lat="45.025718503207834" lon="11.740655491324283"><ele>1.0</ele><time>2026-04-19T07:58:54Z</time></trkpt><trkpt lat="45.02573532175589" lon="11.741035999193189"><ele>1.0</ele><time>2026-04-19T07:58:55Z</time></trkpt><trkpt lat="45.02574076383067" lon="11.741418392451033"><ele>1.0</ele><time>2026-04-19T07:58:56Z</time></trkpt><trkpt lat="45.02574243304907" lon="11.741806232641125"><ele>1.0</ele><time>2026-04-19T07:58:57Z</time></trkpt><trkpt lat="45.025735538718486" lon="11.742197734976555"><ele>1.5</ele><time>2026-04-19T07:58:58Z</time></trkpt><trkpt lat="45.025723549687676" lon="11.74259544616107"><ele>2.0</ele><time>2026-04-19T07:58:59Z</time></trkpt><trkpt lat="45.02570099115311" lon="11.742996249117217"><ele>3.0</ele><time>2026-04-19T07:59:00Z</time></trkpt><trkpt lat="45.02567266785319" lon="11.743388459721688"><ele>4.0</ele><time>2026-04-19T07:59:01Z</time></trkpt><trkpt lat="45.02563680854788" lon="11.743779567786568"><ele>4.0</ele><time>2026-04-19T07:59:02Z</time></trkpt><trkpt lat="45.025598228598156" lon="11.744168012889409"><ele>4.0</ele><time>2026-04-19T07:59:03Z</time></trkpt><trkpt lat="45.02556263359867" lon="11.74455283311334"><ele>3.5</ele><time>2026-04-19T07:59:04Z</time></trkpt><trkpt lat="45.025523013853785" lon="11.744934888689697"><ele>3.0</ele><time>2026-04-19T07:59:05Z</time></trkpt><trkpt lat="45.02548811109718" lon="11.745315493364307"><ele>3.0</ele><time>2026-04-19T07:59:06Z</time></trkpt><trkpt lat="45.02545435799562" lon="11.745693715110143"><ele>3.0</ele><time>2026-04-19T07:59:07Z</time></trkpt><trkpt lat="45.025424038567344" lon="11.746077944516976"><ele>3.0</ele><time>2026-04-19T07:59:08Z</time></trkpt><trkpt lat="45.02539031726594" lon="11.746463798459315"><ele>3.0</ele><time>2026-04-19T07:59:09Z</time></trkpt><trkpt lat="45.02534505124848" lon="11.746852238635501"><ele>3.0</ele><time>2026-04-19T07:59:10Z</time></trkpt><trkpt lat="45.0253000970596" lon="11.747241192793124"><ele>3.0</ele><time>2026-04-19T07:59:11Z</time></trkpt><trkpt lat="45.025253326909635" lon="11.747632204847035"><ele>3.0</ele><time>2026-04-19T07:59:12Z</time></trkpt><trkpt lat="45.02521020659959" lon="11.748018867777375"><ele>3.0</ele><time>2026-04-19T07:59:13Z</time></trkpt><trkpt lat="45.025172173791645" lon="11.748409285567888"><ele>2.5</ele><time>2026-04-19T07:59:14Z</time></trkpt><trkpt lat="45.025142953196394" lon="11.748797537579241"><ele>2.0</ele><time>2026-04-19T07:59:15Z</time></trkpt><trkpt lat="45.025118023179346" lon="11.74919267280688"><ele>2.0</ele><time>2026-04-19T07:59:16Z</time></trkpt><trkpt lat="45.02509557411106" lon="11.74958593612725"><ele>2.0</ele><time>2026-04-19T07:59:17Z</time></trkpt><trkpt lat="45.02507746762688" lon="11.749983258131218"><ele>2.5</ele><time>2026-04-19T07:59:18.001Z</time></trkpt><trkpt lat="45.02506488084689" lon="11.750384550821625"><ele>3.0</ele><time>2026-04-19T07:59:19.001Z</time></trkpt><trkpt lat="45.02505317822782" lon="11.750789111628041"><ele>3.0</ele><time>2026-04-19T07:59:20.001Z</time></trkpt><trkpt lat="45.025047616528845" lon="11.751197068560359"><ele>3.0</ele><time>2026-04-19T07:59:21.001Z</time></trkpt><trkpt lat="45.02504462372967" lon="11.751595237639128"><ele>2.5</ele><time>2026-04-19T07:59:22.001Z</time></trkpt><trkpt lat="45.02504315290019" lon="11.751983453081177"><ele>2.0</ele><time>2026-04-19T07:59:23.001Z</time></trkpt><trkpt lat="45.02504917757191" lon="11.75237038177163"><ele>3.0</ele><time>2026-04-19T07:59:24.001Z</time></trkpt><trkpt lat="45.0250592699775" lon="11.752763062784506"><ele>4.0</ele><time>2026-04-19T07:59:25.001Z</time></trkpt><trkpt lat="45.02507038891826" lon="11.753158710685362"><ele>4.0</ele><time>2026-04-19T07:59:26.001Z</time></trkpt><trkpt lat="45.02507860896259" lon="11.753557227023908"><ele>4.0</ele><time>2026-04-19T07:59:27.001Z</time></trkpt><trkpt lat="45.02508885341379" lon="11.7539538618297"><ele>4.0</ele><time>2026-04-19T07:59:28.001Z</time></trkpt><trkpt lat="45.02509740500566" lon="11.754345688009698"><ele>4.0</ele><time>2026-04-19T07:59:29.001Z</time></trkpt><trkpt lat="45.02510234464529" lon="11.754723599667878"><ele>4.0</ele><time>2026-04-19T07:59:30.001Z</time></trkpt><trkpt lat="45.0251073911563" lon="11.755081260267065"><ele>4.0</ele><time>2026-04-19T07:59:31.001Z</time></trkpt><trkpt lat="45.02511235955436" lon="11.755422202437051"><ele>4.0</ele><time>2026-04-19T07:59:32.001Z</time></trkpt><trkpt lat="45.02511742419274" lon="11.75575619884366"><ele>4.0</ele><time>2026-04-19T07:59:33.001Z</time></trkpt><trkpt lat="45.02512083991224" lon="11.756079529026877"><ele>3.0</ele><time>2026-04-19T07:59:34.001Z</time></trkpt><trkpt lat="45.02512540109332" lon="11.7564048238969"><ele>2.0</ele><time>2026-04-19T07:59:35.001Z</time></trkpt><trkpt lat="45.02513023981167" lon="11.756741279880238"><ele>3.0</ele><time>2026-04-19T07:59:36.001Z</time></trkpt><trkpt lat="45.025134912065354" lon="11.757081967726576"><ele>4.0</ele><time>2026-04-19T07:59:37.001Z</time></trkpt><trkpt lat="45.025143189498976" lon="11.757421848265412"><ele>4.0</ele><time>2026-04-19T07:59:38.001Z</time></trkpt><trkpt lat="45.02515019571159" lon="11.757772334761809"><ele>4.0</ele><time>2026-04-19T07:59:39.001Z</time></trkpt><trkpt lat="45.025155247540596" lon="11.75812976599485"><ele>4.0</ele><time>2026-04-19T07:59:40.001Z</time></trkpt><trkpt lat="45.02515828515744" lon="11.758500215742512"><ele>4.0</ele><time>2026-04-19T07:59:41.001Z</time></trkpt><trkpt lat="45.02516650299229" lon="11.758877867187065"><ele>4.0</ele><time>2026-04-19T07:59:42.001Z</time></trkpt><trkpt lat="45.02516925868647" lon="11.759261832447688"><ele>4.0</ele><time>2026-04-19T07:59:43.001Z</time></trkpt><trkpt lat="45.02517129492672" lon="11.75964587417628"><ele>4.0</ele><time>2026-04-19T07:59:44.001Z</time></trkpt><trkpt lat="45.025175514715876" lon="11.760031886175106"><ele>4.0</ele><time>2026-04-19T07:59:45.001Z</time></trkpt><trkpt lat="45.02517899911054" lon="11.760423856789084"><ele>4.0</ele><time>2026-04-19T07:59:46.001Z</time></trkpt><trkpt lat="45.02518568672328" lon="11.760824401206627"><ele>4.0</ele><time>2026-04-19T07:59:47.001Z</time></trkpt><trkpt lat="45.0251914907581" lon="11.761232724392325"><ele>4.0</ele><time>2026-04-19T07:59:48.001Z</time></trkpt><trkpt lat="45.025197405774115" lon="11.761647385284899"><ele>4.0</ele><time>2026-04-19T07:59:49.001Z</time></trkpt><trkpt lat="45.02520713044633" lon="11.762064989890357"><ele>4.0</ele><time>2026-04-19T07:59:50.001Z</time></trkpt><trkpt lat="45.02521462632665" lon="11.76248909973583"><ele>4.0</ele><time>2026-04-19T07:59:51.001Z</time></trkpt><trkpt lat="45.02522109619729" lon="11.762909123920245"><ele>3.5</ele><time>2026-04-19T07:59:52.001Z</time></trkpt><trkpt lat="45.025225194483646" lon="11.763346842039148"><ele>3.0</ele><time>2026-04-19T07:59:53.001Z</time></trkpt><trkpt lat="45.02523026901138" lon="11.76379983117453"><ele>2.5</ele><time>2026-04-19T07:59:54.001Z</time></trkpt><trkpt lat="45.02523054678209" lon="11.764247648970908"><ele>2.0</ele><time>2026-04-19T07:59:55.001Z</time></trkpt><trkpt lat="45.025224335412204" lon="11.76467453783154"><ele>2.0</ele><time>2026-04-19T07:59:56.001Z</time></trkpt><trkpt lat="45.02521126299302" lon="11.765088311740582"><ele>2.0</ele><time>2026-04-19T07:59:57.001Z</time></trkpt><trkpt lat="45.02525328946599" lon="11.76538474877684"><ele>1.5</ele><time>2026-04-19T07:59:58.001Z</time></trkpt><trkpt lat="45.025248222481835" lon="11.76574448038935"><ele>1.0</ele><time>2026-04-19T07:59:59.001Z</time></trkpt><trkpt lat="45.025248537070155" lon="11.7660966474257"><ele>1.0</ele><time>2026-04-19T08:00:00.001Z</time></trkpt><trkpt lat="45.02524997456306" lon="11.766421813911212"><ele>1.0</ele><time>2026-04-19T08:00:01.001Z</time></trkpt><trkpt lat="45.02525763984769" lon="11.76672475615205"><ele>1.0</ele><time>2026-04-19T08:00:02.001Z</time></trkpt><trkpt lat="45.025268705779425" lon="11.767007705986002"><ele>1.3333333333333333</ele><time>2026-04-19T08:00:03.001Z</time></trkpt><trkpt lat="45.02528403432023" lon="11.767278328566341"><ele>1.6666666666666665</ele><time>2026-04-19T08:00:04.001Z</time></trkpt><trkpt lat="45.025300749796365" lon="11.767542345078429"><ele>2.0</ele><time>2026-04-19T08:00:05.001Z</time></trkpt><trkpt lat="45.02531901088171" lon="11.767814788719262"><ele>2.0</ele><time>2026-04-19T08:00:06.001Z</time></trkpt><trkpt lat="45.0253383098806" lon="11.768084712295114"><ele>2.0</ele><time>2026-04-19T08:00:07.001Z</time></trkpt><trkpt lat="45.02536349891283" lon="11.76835187499873"><ele>2.0</ele><time>2026-04-19T08:00:08.001Z</time></trkpt><trkpt lat="45.025387272360334" lon="11.768623669816812"><ele>1.6666666666666665</ele><time>2026-04-19T08:00:09.001Z</time></trkpt><trkpt lat="45.02541256951752" lon="11.768898671828211"><ele>1.3333333333333333</ele><time>2026-04-19T08:00:10.001Z</time></trkpt><trkpt lat="45.025440548489584" lon="11.769175324431833"><ele>1.0</ele><time>2026-04-19T08:00:11.001Z</time></trkpt><trkpt lat="45.02547323868162" lon="11.76944524805185"><ele>1.0</ele><time>2026-04-19T08:00:12.001Z</time></trkpt><trkpt lat="45.02550602977246" lon="11.769703730593909"><ele>1.0</ele><time>2026-04-19T08:00:13.001Z</time></trkpt><trkpt lat="45.02554047680185" lon="11.769943297031581"><ele>1.0</ele><time>2026-04-19T08:00:14.001Z</time></trkpt><trkpt lat="45.025572046082345" lon="11.770168128719416"><ele>1.0</ele><time>2026-04-19T08:00:15.001Z</time></trkpt><trkpt lat="45.02560482857384" lon="11.77038412994047"><ele>1.0</ele><time>2026-04-19T08:00:16.001Z</time></trkpt><trkpt lat="45.025634556089926" lon="11.770582092036975"><ele>1.0</ele><time>2026-04-19T08:00:17.001Z</time></trkpt><trkpt lat="45.02566568638571" lon="11.770773962621227"><ele>1.0</ele><time>2026-04-19T08:00:18.001Z</time></trkpt><trkpt lat="45.025692759519934" lon="11.770951589414008"><ele>1.25</ele><time>2026-04-19T08:00:19.001Z</time></trkpt><trkpt lat="45.02571917476444" lon="11.771120985810557"><ele>1.5</ele><time>2026-04-19T08:00:20.001Z</time></trkpt><trkpt lat="45.02574528952305" lon="11.771281415938253"><ele>1.75</ele><time>2026-04-19T08:00:21.001Z</time></trkpt><trkpt lat="45.02575237469941" lon="11.77142855328796"><ele>2.0</ele><time>2026-04-19T08:00:22.001Z</time></trkpt><trkpt lat="45.02574329356175" lon="11.771591388221164"><ele>2.0</ele><time>2026-04-19T08:00:23.001Z</time></trkpt><trkpt lat="45.025712392457415" lon="11.771755630143913"><ele>2.0</ele><time>2026-04-19T08:00:24.001Z</time></trkpt><trkpt lat="45.02566006312351" lon="11.771912197976091"><ele>2.0</ele><time>2026-04-19T08:00:25.001Z</time></trkpt><trkpt lat="45.025582689848754" lon="11.772048595102834"><ele>2.0</ele><time>2026-04-19T08:00:26.001Z</time></trkpt><trkpt lat="45.02548977846053" lon="11.772166168663055"><ele>2.25</ele><time>2026-04-19T08:00:27.001Z</time></trkpt><trkpt lat="45.0253792084872" lon="11.772259017663043"><ele>2.5</ele><time>2026-04-19T08:00:28.001Z</time></trkpt><trkpt lat="45.02525943616526" lon="11.77233042742895"><ele>2.75</ele><time>2026-04-19T08:00:29.001Z</time></trkpt><trkpt lat="45.02513451849236" lon="11.772393035244438"><ele>3.0</ele><time>2026-04-19T08:00:30.001Z</time></trkpt><trkpt lat="45.02499773286475" lon="11.772467861930268"><ele>2.6666666666666665</ele><time>2026-04-19T08:00:31.001Z</time></trkpt><trkpt lat="45.02485113726414" lon="11.772558866870384"><ele>2.333333333333333</ele><time>2026-04-19T08:00:32.001Z</time></trkpt><trkpt lat="45.02470895478656" lon="11.772653294554882"><ele>2.0</ele><time>2026-04-19T08:00:33.001Z</time></trkpt><trkpt lat="45.024579480890985" lon="11.77272989870907"><ele>2.0</ele><time>2026-04-19T08:00:34.001Z</time></trkpt><trkpt lat="45.02446036961689" lon="11.772793480983815"><ele>2.0</ele><time>2026-04-19T08:00:35.001Z</time></trkpt><trkpt lat="45.02433707305967" lon="11.772858408799411"><ele>2.0</ele><time>2026-04-19T08:00:36.001Z</time></trkpt><trkpt lat="45.024204058247356" lon="11.772931337146462"><ele>2.0</ele><time>2026-04-19T08:00:37.001Z</time></trkpt><trkpt lat="45.02406460233325" lon="11.773002947142151"><ele>1.75</ele><time>2026-04-19T08:00:38.001Z</time></trkpt><trkpt lat="45.02392832654792" lon="11.773062908640279"><ele>1.5</ele><time>2026-04-19T08:00:39.001Z</time></trkpt><trkpt lat="45.023803476519795" lon="11.773100944463948"><ele>1.25</ele><time>2026-04-19T08:00:40.001Z</time></trkpt><trkpt lat="45.02367397977491" lon="11.773127249715236"><ele>1.0</ele><time>2026-04-19T08:00:41.001Z</time></trkpt><trkpt lat="45.02354488049362" lon="11.773133861226716"><ele>1.0</ele><time>2026-04-19T08:00:42.001Z</time></trkpt><trkpt lat="45.02341857612838" lon="11.773123062220103"><ele>1.0</ele><time>2026-04-19T08:00:43.001Z</time></trkpt><trkpt lat="45.02328899005558" lon="11.773101982163656"><ele>1.0</ele><time>2026-04-19T08:00:44.001Z</time></trkpt><trkpt lat="45.02314876655989" lon="11.773067575343998"><ele>1.0</ele><time>2026-04-19T08:00:45.001Z</time></trkpt><trkpt lat="45.02300304012141" lon="11.773016695885946"><ele>1.0</ele><time>2026-04-19T08:00:46.001Z</time></trkpt><trkpt lat="45.02285760746638" lon="11.772957118955087"><ele>1.0</ele><time>2026-04-19T08:00:47.001Z</time></trkpt><trkpt lat="45.02271408443428" lon="11.772891630872328"><ele>1.0</ele><time>2026-04-19T08:00:48.001Z</time></trkpt><trkpt lat="45.02256759459511" lon="11.772814459273027"><ele>0.6666666666666666</ele><time>2026-04-19T08:00:49.001Z</time></trkpt><trkpt lat="45.022413746885576" lon="11.772733408373936"><ele>0.3333333333333333</ele><time>2026-04-19T08:00:50Z</time></trkpt><trkpt lat="45.02226695882939" lon="11.77265722368441"><ele>0.0</ele><time>2026-04-19T08:00:51Z</time></trkpt><trkpt lat="45.02212451811671" lon="11.772582997186056"><ele>0.6666666666666666</ele><time>2026-04-19T08:00:52Z</time></trkpt><trkpt lat="45.0219727978682" lon="11.772504237671207"><ele>1.3333333333333333</ele><time>2026-04-19T08:00:53Z</time></trkpt><trkpt lat="45.02181448679925" lon="11.772422918432051"><ele>2.0</ele><time>2026-04-19T08:00:54Z</time></trkpt><trkpt lat="45.02165428273176" lon="11.77234147765731"><ele>2.0</ele><time>2026-04-19T08:00:55Z</time></trkpt><trkpt lat="45.02149319490793" lon="11.772258750668009"><ele>2.0</ele><time>2026-04-19T08:00:56Z</time></trkpt><trkpt lat="45.02133103154341" lon="11.772175172705749"><ele>2.0</ele><time>2026-04-19T08:00:57Z</time></trkpt><trkpt lat="45.0211632305083" lon="11.772088844773348"><ele>2.0</ele><time>2026-04-19T08:00:58Z</time></trkpt><trkpt lat="45.02099289689017" lon="11.772001969265713"><ele>2.0</ele><time>2026-04-19T08:00:59Z</time></trkpt><trkpt lat="45.02081139150896" lon="11.771907019880738"><ele>2.0</ele><time>2026-04-19T08:01:00Z</time></trkpt><trkpt lat="45.02062751326062" lon="11.7718129573069"><ele>2.0</ele><time>2026-04-19T08:01:01Z</time></trkpt><trkpt lat="45.020437940661985" lon="11.771718730313923"><ele>2.0</ele><time>2026-04-19T08:01:02Z</time></trkpt><trkpt lat="45.02025053446663" lon="11.771619383122223"><ele>2.0</ele><time>2026-04-19T08:01:03Z</time></trkpt><trkpt lat="45.020051574902084" lon="11.771518006557113"><ele>2.0</ele><time>2026-04-19T08:01:04Z</time></trkpt><trkpt lat="45.01986774395916" lon="11.77142117147003"><ele>2.0</ele><time>2026-04-19T08:01:05Z</time></trkpt><trkpt lat="45.01968419824034" lon="11.771326120629347"><ele>2.0</ele><time>2026-04-19T08:01:06Z</time></trkpt><trkpt lat="45.01950946173578" lon="11.771237052009308"><ele>2.0</ele><time>2026-04-19T08:01:07Z</time></trkpt><trkpt lat="45.01933184416258" lon="11.771143663657545"><ele>2.0</ele><time>2026-04-19T08:01:08Z</time></trkpt><trkpt lat="45.01915383844351" lon="11.77105146901256"><ele>2.0</ele><time>2026-04-19T08:01:09Z</time></trkpt><trkpt lat="45.018970453496365" lon="11.770954704797141"><ele>2.333333333333333</ele><time>2026-04-19T08:01:10Z</time></trkpt><trkpt lat="45.018788672726444" lon="11.77086177906922"><ele>2.6666666666666665</ele><time>2026-04-19T08:01:11Z</time></trkpt><trkpt lat="45.01861069206508" lon="11.770772126242974"><ele>3.0</ele><time>2026-04-19T08:01:12Z</time></trkpt><trkpt lat="45.01843398481249" lon="11.770681052860875"><ele>2.6666666666666665</ele><time>2026-04-19T08:01:13Z</time></trkpt><trkpt lat="45.0182567142954" lon="11.770589901254036"><ele>2.333333333333333</ele><time>2026-04-19T08:01:14Z</time></trkpt><trkpt lat="45.01807893245655" lon="11.770497987212465"><ele>2.0</ele><time>2026-04-19T08:01:15Z</time></trkpt><trkpt lat="45.017900703774636" lon="11.770408395887092"><ele>2.0</ele><time>2026-04-19T08:01:16Z</time></trkpt><trkpt lat="45.017719949264766" lon="11.770315599616325"><ele>2.0</ele><time>2026-04-19T08:01:17Z</time></trkpt><trkpt lat="45.017537377247706" lon="11.770222404699279"><ele>2.0</ele><time>2026-04-19T08:01:18Z</time></trkpt><trkpt lat="45.01735353596778" lon="11.77012748573913"><ele>2.0</ele><time>2026-04-19T08:01:19Z</time></trkpt><trkpt lat="45.017167882209975" lon="11.770032724957016"><ele>2.0</ele><time>2026-04-19T08:01:20Z</time></trkpt><trkpt lat="45.01698082901303" lon="11.76993615370641"><ele>2.0</ele><time>2026-04-19T08:01:21Z</time></trkpt><trkpt lat="45.01679397309467" lon="11.769838410880125"><ele>1.6666666666666665</ele><time>2026-04-19T08:01:22Z</time></trkpt><trkpt lat="45.016603959525725" lon="11.769741296781586"><ele>1.3333333333333333</ele><time>2026-04-19T08:01:23Z</time></trkpt><trkpt lat="45.01640984980434" lon="11.7696457562969"><ele>1.0</ele><time>2026-04-19T08:01:24Z</time></trkpt><trkpt lat="45.01621823469027" lon="11.769546000032097"><ele>1.0</ele><time>2026-04-19T08:01:25Z</time></trkpt><trkpt lat="45.016030120868656" lon="11.769447903345064"><ele>1.0</ele><time>2026-04-19T08:01:26Z</time></trkpt><trkpt lat="45.01584183069057" lon="11.76935308432919"><ele>1.0</ele><time>2026-04-19T08:01:27Z</time></trkpt><trkpt lat="45.01565235879299" lon="11.769257847170763"><ele>1.0</ele><time>2026-04-19T08:01:28Z</time></trkpt><trkpt lat="45.01546567381044" lon="11.769162607016844"><ele>1.0</ele><time>2026-04-19T08:01:29Z</time></trkpt><trkpt lat="45.015283486342874" lon="11.769064803575006"><ele>1.0</ele><time>2026-04-19T08:01:30Z</time></trkpt><trkpt lat="45.015093389442896" lon="11.768964084530378"><ele>1.0</ele><time>2026-04-19T08:01:31Z</time></trkpt><trkpt lat="45.0148997423876" lon="11.768861034096773"><ele>1.0</ele><time>2026-04-19T08:01:32Z</time></trkpt><trkpt lat="45.01470744203765" lon="11.76876010772777"><ele>1.0</ele><time>2026-04-19T08:01:33Z</time></trkpt><trkpt lat="45.014516041137725" lon="11.768658441501142"><ele>1.0</ele><time>2026-04-19T08:01:34Z</time></trkpt><trkpt lat="45.01432600506233" lon="11.768560129726827"><ele>1.0</ele><time>2026-04-19T08:01:35Z</time></trkpt><trkpt lat="45.01413870635001" lon="11.768463709624783"><ele>1.0</ele><time>2026-04-19T08:01:36Z</time></trkpt><trkpt lat="45.01395475713189" lon="11.768371056372237"><ele>2.0</ele><time>2026-04-19T08:01:37Z</time></trkpt><trkpt lat="45.01377729740955" lon="11.768280713193942"><ele>3.0</ele><time>2026-04-19T08:01:38Z</time></trkpt><trkpt lat="45.013601902819524" lon="11.76819203894419"><ele>4.0</ele><time>2026-04-19T08:01:39Z</time></trkpt><trkpt lat="45.013426500338326" lon="11.768102673384028"><ele>3.0</ele><time>2026-04-19T08:01:40Z</time></trkpt><trkpt lat="45.0132575138312" lon="11.768015839103489"><ele>2.0</ele><time>2026-04-19T08:01:41Z</time></trkpt><trkpt lat="45.013093894042385" lon="11.767929455557276"><ele>1.0</ele><time>2026-04-19T08:01:42Z</time></trkpt><trkpt lat="45.01294109431399" lon="11.767850703089394"><ele>1.0</ele><time>2026-04-19T08:01:43Z</time></trkpt><trkpt lat="45.01279516674974" lon="11.767774710279182"><ele>1.0</ele><time>2026-04-19T08:01:44Z</time></trkpt><trkpt lat="45.01265565284315" lon="11.76770395649011"><ele>1.0</ele><time>2026-04-19T08:01:45Z</time></trkpt><trkpt lat="45.01251870096053" lon="11.767633887661828"><ele>1.0</ele><time>2026-04-19T08:01:46.001Z</time></trkpt><trkpt lat="45.01239049986472" lon="11.767568435957594"><ele>1.5</ele><time>2026-04-19T08:01:47.001Z</time></trkpt><trkpt lat="45.01226456924381" lon="11.767499289397383"><ele>2.0</ele><time>2026-04-19T08:01:48.001Z</time></trkpt><trkpt lat="45.0121364480414" lon="11.767432383033334"><ele>2.5</ele><time>2026-04-19T08:01:49.001Z</time></trkpt><trkpt lat="45.01200594663419" lon="11.767367375224437"><ele>3.0</ele><time>2026-04-19T08:01:50.001Z</time></trkpt><trkpt lat="45.011868249524575" lon="11.767299177660057"><ele>3.0</ele><time>2026-04-19T08:01:51.001Z</time></trkpt><trkpt lat="45.01172825662481" lon="11.7672306412882"><ele>3.0</ele><time>2026-04-19T08:01:52.001Z</time></trkpt><trkpt lat="45.01159242493026" lon="11.76716232957752"><ele>3.0</ele><time>2026-04-19T08:01:53.001Z</time></trkpt><trkpt lat="45.01146742863147" lon="11.767097080266522"><ele>3.0</ele><time>2026-04-19T08:01:54.001Z</time></trkpt><trkpt lat="45.011345527409055" lon="11.767035088740142"><ele>3.0</ele><time>2026-04-19T08:01:55.001Z</time></trkpt><trkpt lat="45.01123420101462" lon="11.76697823194083"><ele>3.0</ele><time>2026-04-19T08:01:56.001Z</time></trkpt><trkpt lat="45.01113001190125" lon="11.766926803180912"><ele>3.0</ele><time>2026-04-19T08:01:57.001Z</time></trkpt><trkpt lat="45.0110335511553" lon="11.766877209469547"><ele>3.0</ele><time>2026-04-19T08:01:58.001Z</time></trkpt><trkpt lat="45.0109407073876" lon="11.766830186581736"><ele>3.0</ele><time>2026-04-19T08:01:59.001Z</time></trkpt><trkpt lat="45.0108526653731" lon="11.766785136401765"><ele>3.1666666666666665</ele><time>2026-04-19T08:02:00.001Z</time></trkpt><trkpt lat="45.01076638144999" lon="11.766743622808924"><ele>3.333333333333333</ele><time>2026-04-19T08:02:01.001Z</time></trkpt><trkpt lat="45.010688462860365" lon="11.7667049058652"><ele>3.5</ele><time>2026-04-19T08:02:02.001Z</time></trkpt><trkpt lat="45.0106166927903" lon="11.766670111153177"><ele>3.6666666666666665</ele><time>2026-04-19T08:02:03.001Z</time></trkpt><trkpt lat="45.01055238078624" lon="11.766638821838727"><ele>3.833333333333333</ele><time>2026-04-19T08:02:04.001Z</time></trkpt><trkpt lat="45.01044882943631" lon="11.766560612286671"><ele>4.0</ele><time>2026-04-19T08:02:06.001Z</time></trkpt><trkpt lat="45.010360382838385" lon="11.766514299000788"><ele>3.9999999999999996</ele><time>2026-04-19T08:02:08.001Z</time></trkpt><trkpt lat="45.01028377712628" lon="11.766504464500992"><ele>4.0</ele><time>2026-04-19T08:02:10.001Z</time></trkpt><trkpt lat="45.01020568476422" lon="11.766467130285937"><ele>4.0</ele><time>2026-04-19T08:02:12.001Z</time></trkpt><trkpt lat="45.01011586746992" lon="11.766421587816286"><ele>4.0</ele><time>2026-04-19T08:02:14.001Z</time></trkpt><trkpt lat="45.01005436304784" lon="11.766386808189063"><ele>3.9999999999999996</ele><time>2026-04-19T08:02:16.001Z</time></trkpt><trkpt lat="45.0099848826029" lon="11.766361403881671"><ele>4.0</ele><time>2026-04-19T08:02:19.001Z</time></trkpt><trkpt lat="45.009924253578625" lon="11.766291026874155"><ele>3.6666666666666665</ele><time>2026-04-19T08:02:22.001Z</time></trkpt><trkpt lat="45.00987874135768" lon="11.766411604175572"><ele>3.333333333333333</ele><time>2026-04-19T08:02:23.001Z</time></trkpt><trkpt lat="45.00986163915815" lon="11.766502057744791"><ele>3.0</ele><time>2026-04-19T08:02:25.001Z</time></trkpt><trkpt lat="45.00983778986792" lon="11.766596395627603"><ele>2.6666666666666665</ele><time>2026-04-19T08:02:27.001Z</time></trkpt><trkpt lat="45.0098092065948" lon="11.766683541573421"><ele>2.333333333333333</ele><time>2026-04-19T08:02:29.001Z</time></trkpt><trkpt lat="45.009806437019584" lon="11.766783658217765"><ele>2.0</ele><time>2026-04-19T08:02:32.001Z</time></trkpt><trkpt lat="45.00991675484207" lon="11.76672714144982"><ele>2.333333333333333</ele><time>2026-04-19T08:04:08.001Z</time></trkpt><trkpt lat="45.01000094844204" lon="11.766766154094638"><ele>2.6666666666666665</ele><time>2026-04-19T08:04:10.001Z</time></trkpt><trkpt lat="45.01008964203503" lon="11.766825860962632"><ele>3.0</ele><time>2026-04-19T08:04:12.001Z</time></trkpt><trkpt lat="45.01016205159531" lon="11.766844144972001"><ele>3.333333333333333</ele><time>2026-04-19T08:04:14.001Z</time></trkpt><trkpt lat="45.01024219357748" lon="11.766760594075581"><ele>3.6666666666666665</ele><time>2026-04-19T08:04:16.001Z</time></trkpt><trkpt lat="45.010264831456126" lon="11.766663085045959"><ele>4.0</ele><time>2026-04-19T08:04:19.001Z</time></trkpt><trkpt lat="45.010285168491535" lon="11.766575487513695"><ele>4.0</ele><time>2026-04-19T08:04:44.001Z</time></trkpt><trkpt lat="45.01029391291585" lon="11.766486685247317"><ele>4.0</ele><time>2026-04-19T08:04:59.001Z</time></trkpt><trkpt lat="45.010149469831724" lon="11.766389303080281"><ele>4.0</ele><time>2026-04-19T08:05:00.001Z</time></trkpt><trkpt lat="45.010070755460966" lon="11.766334791524514"><ele>4.0</ele><time>2026-04-19T08:05:01Z</time></trkpt><trkpt lat="45.0099970569475" lon="11.766296487503245"><ele>4.0</ele><time>2026-04-19T08:05:02Z</time></trkpt><trkpt lat="45.0099182255943" lon="11.766257252907542"><ele>3.8000000000000003</ele><time>2026-04-19T08:05:03Z</time></trkpt><trkpt lat="45.009833262803376" lon="11.766218923573755"><ele>3.6000000000000005</ele><time>2026-04-19T08:05:04Z</time></trkpt><trkpt lat="45.00974466300535" lon="11.766174798384505"><ele>3.4</ele><time>2026-04-19T08:05:05Z</time></trkpt><trkpt lat="45.009650591222844" lon="11.76612554648119"><ele>3.2</ele><time>2026-04-19T08:05:06Z</time></trkpt><trkpt lat="45.00955207867726" lon="11.766076232729137"><ele>3.0</ele><time>2026-04-19T08:05:07Z</time></trkpt><trkpt lat="45.00945263909981" lon="11.766027939463108"><ele>3.0</ele><time>2026-04-19T08:05:08Z</time></trkpt><trkpt lat="45.00935520845351" lon="11.76597748544751"><ele>3.0</ele><time>2026-04-19T08:05:09Z</time></trkpt><trkpt lat="45.0092556442302" lon="11.76592639598323"><ele>3.0</ele><time>2026-04-19T08:05:10Z</time></trkpt><trkpt lat="45.009147233153385" lon="11.765872598040911"><ele>3.0</ele><time>2026-04-19T08:05:11Z</time></trkpt><trkpt lat="45.00903854770493" lon="11.76581708059848"><ele>3.0</ele><time>2026-04-19T08:05:12Z</time></trkpt><trkpt lat="45.008933678498835" lon="11.765761410779684"><ele>3.25</ele><time>2026-04-19T08:05:13Z</time></trkpt><trkpt lat="45.00882341263653" lon="11.765705090612254"><ele>3.5</ele><time>2026-04-19T08:05:14Z</time></trkpt><trkpt lat="45.00871637723319" lon="11.765650503685356"><ele>3.75</ele><time>2026-04-19T08:05:15Z</time></trkpt><trkpt lat="45.00861174053575" lon="11.765599493762195"><ele>4.0</ele><time>2026-04-19T08:05:16Z</time></trkpt><trkpt lat="45.00850852944502" lon="11.765548247650978"><ele>4.0</ele><time>2026-04-19T08:05:17Z</time></trkpt><trkpt lat="45.00840194322395" lon="11.765494402742826"><ele>4.0</ele><time>2026-04-19T08:05:18Z</time></trkpt><trkpt lat="45.008292800779834" lon="11.76544129063216"><ele>4.0</ele><time>2026-04-19T08:05:19Z</time></trkpt><trkpt lat="45.00818226674721" lon="11.765384017675506"><ele>4.0</ele><time>2026-04-19T08:05:20Z</time></trkpt><trkpt lat="45.00806997964057" lon="11.76532499906962"><ele>4.0</ele><time>2026-04-19T08:05:21Z</time></trkpt><trkpt lat="45.00796036461722" lon="11.765266025519342"><ele>4.0</ele><time>2026-04-19T08:05:22Z</time></trkpt><trkpt lat="45.00784664393149" lon="11.76520695349396"><ele>4.0</ele><time>2026-04-19T08:05:23Z</time></trkpt><trkpt lat="45.00773153876527" lon="11.765147615885965"><ele>4.0</ele><time>2026-04-19T08:05:24Z</time></trkpt><trkpt lat="45.007620408666156" lon="11.76508958249574"><ele>4.0</ele><time>2026-04-19T08:05:25Z</time></trkpt><trkpt lat="45.00750738901269" lon="11.765030984497576"><ele>4.0</ele><time>2026-04-19T08:05:26Z</time></trkpt><trkpt lat="45.00739382493854" lon="11.764972935431679"><ele>4.0</ele><time>2026-04-19T08:05:27Z</time></trkpt><trkpt lat="45.00727964362025" lon="11.7649142613207"><ele>4.0</ele><time>2026-04-19T08:05:28Z</time></trkpt><trkpt lat="45.00716385466531" lon="11.764856002369553"><ele>3.75</ele><time>2026-04-19T08:05:29Z</time></trkpt><trkpt lat="45.00703922971078" lon="11.7647976540092"><ele>3.5</ele><time>2026-04-19T08:05:30Z</time></trkpt><trkpt lat="45.00691186531496" lon="11.764738645211086"><ele>3.25</ele><time>2026-04-19T08:05:31Z</time></trkpt><trkpt lat="45.00678514243979" lon="11.764681939581129"><ele>3.0</ele><time>2026-04-19T08:05:32Z</time></trkpt><trkpt lat="45.00665927737166" lon="11.764624821322"><ele>2.5</ele><time>2026-04-19T08:05:33Z</time></trkpt><trkpt lat="45.006532547161626" lon="11.764573814949244"><ele>2.0</ele><time>2026-04-19T08:05:34Z</time></trkpt><trkpt lat="45.006409832283616" lon="11.764534310472998"><ele>1.5</ele><time>2026-04-19T08:05:35Z</time></trkpt><trkpt lat="45.006288794164576" lon="11.764503290806475"><ele>1.0</ele><time>2026-04-19T08:05:36Z</time></trkpt><trkpt lat="45.006160456601386" lon="11.7644748423391"><ele>1.0</ele><time>2026-04-19T08:05:37Z</time></trkpt><trkpt lat="45.006026617313715" lon="11.76444651058711"><ele>1.0</ele><time>2026-04-19T08:05:38Z</time></trkpt><trkpt lat="45.00589397443024" lon="11.764417216553152"><ele>1.0</ele><time>2026-04-19T08:05:39Z</time></trkpt><trkpt lat="45.00576853590025" lon="11.764389023509796"><ele>1.0</ele><time>2026-04-19T08:05:40Z</time></trkpt><trkpt lat="45.005649306523075" lon="11.764360348842377"><ele>1.0</ele><time>2026-04-19T08:05:41Z</time></trkpt><trkpt lat="45.005527762575284" lon="11.764329152775929"><ele>1.0</ele><time>2026-04-19T08:05:42Z</time></trkpt><trkpt lat="45.00540691203149" lon="11.764299500563885"><ele>1.0</ele><time>2026-04-19T08:05:43Z</time></trkpt><trkpt lat="45.00528333694401" lon="11.76426849863955"><ele>1.0</ele><time>2026-04-19T08:05:44Z</time></trkpt><trkpt lat="45.00516133686703" lon="11.764237095465056"><ele>1.0</ele><time>2026-04-19T08:05:45Z</time></trkpt><trkpt lat="45.005042981504154" lon="11.764207333520046"><ele>1.0</ele><time>2026-04-19T08:05:46Z</time></trkpt><trkpt lat="45.00493071263702" lon="11.76418108310533"><ele>1.0</ele><time>2026-04-19T08:05:47Z</time></trkpt><trkpt lat="45.00482213294563" lon="11.764156912155318"><ele>1.0</ele><time>2026-04-19T08:05:48Z</time></trkpt><trkpt lat="45.004718446088454" lon="11.7641372860539"><ele>1.0</ele><time>2026-04-19T08:05:49Z</time></trkpt><trkpt lat="45.00461942628337" lon="11.764118097171018"><ele>1.2000000000000002</ele><time>2026-04-19T08:05:50Z</time></trkpt><trkpt lat="45.004522939732325" lon="11.764098010069315"><ele>1.4000000000000001</ele><time>2026-04-19T08:05:51Z</time></trkpt><trkpt lat="45.004426501326456" lon="11.764077830640508"><ele>1.6</ele><time>2026-04-19T08:05:52Z</time></trkpt><trkpt lat="45.004336137642724" lon="11.764061825266277"><ele>1.8</ele><time>2026-04-19T08:05:53Z</time></trkpt><trkpt lat="45.00424239966622" lon="11.764044440395185"><ele>2.0</ele><time>2026-04-19T08:05:54Z</time></trkpt><trkpt lat="45.00414352035204" lon="11.764025150980538"><ele>2.4000000000000004</ele><time>2026-04-19T08:05:55.001Z</time></trkpt><trkpt lat="45.00404199126623" lon="11.76400402698227"><ele>2.8000000000000003</ele><time>2026-04-19T08:05:56.001Z</time></trkpt><trkpt lat="45.0039324886857" lon="11.763982036271502"><ele>3.2</ele><time>2026-04-19T08:05:57.001Z</time></trkpt><trkpt lat="45.003819435591986" lon="11.763959782486772"><ele>3.6</ele><time>2026-04-19T08:05:58.001Z</time></trkpt><trkpt lat="45.00370352051043" lon="11.763937093259065"><ele>4.0</ele><time>2026-04-19T08:05:59.001Z</time></trkpt><trkpt lat="45.00359318896614" lon="11.763918560297737"><ele>4.0</ele><time>2026-04-19T08:06:00.001Z</time></trkpt><trkpt lat="45.00349282940569" lon="11.763905244068647"><ele>4.0</ele><time>2026-04-19T08:06:01.001Z</time></trkpt><trkpt lat="45.00340152878552" lon="11.76387037250455"><ele>4.0</ele><time>2026-04-19T08:06:02.001Z</time></trkpt><trkpt lat="45.00331277733936" lon="11.763852061216092"><ele>4.0</ele><time>2026-04-19T08:06:03.001Z</time></trkpt><trkpt lat="45.003228237236115" lon="11.7638348386295"><ele>4.0</ele><time>2026-04-19T08:06:04.001Z</time></trkpt><trkpt lat="45.00314795007973" lon="11.76381848245388"><ele>3.714285714285714</ele><time>2026-04-19T08:06:05.001Z</time></trkpt><trkpt lat="45.003074311090906" lon="11.763803480652879"><ele>3.428571428571428</ele><time>2026-04-19T08:06:06.001Z</time></trkpt><trkpt lat="45.00300303043571" lon="11.763788959337088"><ele>3.142857142857143</ele><time>2026-04-19T08:06:07.001Z</time></trkpt><trkpt lat="45.00292587120962" lon="11.763772865797712"><ele>2.8571428571428568</ele><time>2026-04-19T08:06:08.001Z</time></trkpt><trkpt lat="45.00285422821714" lon="11.763757822023651"><ele>2.571428571428571</ele><time>2026-04-19T08:06:09.001Z</time></trkpt><trkpt lat="45.002788543573196" lon="11.763743824359043"><ele>2.2857142857142856</ele><time>2026-04-19T08:06:10.001Z</time></trkpt><trkpt lat="45.00272130889594" lon="11.7637294963712"><ele>2.0</ele><time>2026-04-19T08:06:11.001Z</time></trkpt><trkpt lat="45.00265151539069" lon="11.763714623087841"><ele>1.9999999999999998</ele><time>2026-04-19T08:06:12.001Z</time></trkpt><trkpt lat="45.00257489719345" lon="11.76369834059822"><ele>2.0</ele><time>2026-04-19T08:06:13.001Z</time></trkpt><trkpt lat="45.002493730555415" lon="11.763681504238413"><ele>2.0</ele><time>2026-04-19T08:06:14.001Z</time></trkpt><trkpt lat="45.002408388212544" lon="11.763663801712983"><ele>2.0</ele><time>2026-04-19T08:06:15.001Z</time></trkpt><trkpt lat="45.002318381059" lon="11.763645131564981"><ele>1.9999999999999998</ele><time>2026-04-19T08:06:16.001Z</time></trkpt><trkpt lat="45.00222771105687" lon="11.763626323917366"><ele>2.0</ele><time>2026-04-19T08:06:17.001Z</time></trkpt><trkpt lat="45.00213573756782" lon="11.763607629524728"><ele>2.2</ele><time>2026-04-19T08:06:18.001Z</time></trkpt><trkpt lat="45.00204015122484" lon="11.763588600309038"><ele>2.4000000000000004</ele><time>2026-04-19T08:06:19.001Z</time></trkpt><trkpt lat="45.00193476813459" lon="11.763567620822435"><ele>2.5999999999999996</ele><time>2026-04-19T08:06:20.001Z</time></trkpt><trkpt lat="45.00182598857589" lon="11.763564871184531"><ele>2.8</ele><time>2026-04-19T08:06:21.001Z</time></trkpt><trkpt lat="45.00171322761028" lon="11.76351821518708"><ele>3.0</ele><time>2026-04-19T08:06:22.001Z</time></trkpt><trkpt lat="45.001591907845594" lon="11.763476749017931"><ele>3.4</ele><time>2026-04-19T08:06:23.001Z</time></trkpt><trkpt lat="45.0014779071956" lon="11.763442023496943"><ele>3.8</ele><time>2026-04-19T08:06:24.001Z</time></trkpt><trkpt lat="45.00136465026561" lon="11.763422959423343"><ele>4.2</ele><time>2026-04-19T08:06:25.001Z</time></trkpt><trkpt lat="45.00125690012875" lon="11.76340449402396"><ele>4.6</ele><time>2026-04-19T08:06:26.001Z</time></trkpt><trkpt lat="45.00115262693046" lon="11.763387105060485"><ele>5.0</ele><time>2026-04-19T08:06:27.001Z</time></trkpt><trkpt lat="45.001049546439674" lon="11.763368898642824"><ele>5.0</ele><time>2026-04-19T08:06:28.001Z</time></trkpt><trkpt lat="45.000950064371686" lon="11.763348338159686"><ele>5.0</ele><time>2026-04-19T08:06:29.001Z</time></trkpt><trkpt lat="45.000859783578235" lon="11.763330119298816"><ele>5.0</ele><time>2026-04-19T08:06:30.001Z</time></trkpt><trkpt lat="45.000765541251454" lon="11.76331026666995"><ele>5.0</ele><time>2026-04-19T08:06:31.001Z</time></trkpt><trkpt lat="45.000672128091615" lon="11.76329342571879"><ele>5.0</ele><time>2026-04-19T08:06:32.001Z</time></trkpt><trkpt lat="45.00057987442066" lon="11.763275649067971"><ele>4.8</ele><time>2026-04-19T08:06:33.001Z</time></trkpt><trkpt lat="45.00049205951492" lon="11.763258800261887"><ele>4.6</ele><time>2026-04-19T08:06:34.001Z</time></trkpt><trkpt lat="45.000403039126134" lon="11.7632403905461"><ele>4.4</ele><time>2026-04-19T08:06:35.001Z</time></trkpt><trkpt lat="45.0003126621564" lon="11.763222041027696"><ele>4.2</ele><time>2026-04-19T08:06:36.001Z</time></trkpt><trkpt lat="45.0002192889341" lon="11.763202819330365"><ele>4.0</ele><time>2026-04-19T08:06:37.001Z</time></trkpt><trkpt lat="45.00012419435022" lon="11.76318192531458"><ele>4.0</ele><time>2026-04-19T08:06:38.001Z</time></trkpt><trkpt lat="45.00002676858549" lon="11.763160966072313"><ele>4.0</ele><time>2026-04-19T08:06:39.001Z</time></trkpt><trkpt lat="44.99992489564542" lon="11.763139965015958"><ele>4.0</ele><time>2026-04-19T08:06:40.001Z</time></trkpt><trkpt lat="44.999820734128825" lon="11.76312051595462"><ele>4.0</ele><time>2026-04-19T08:06:41.001Z</time></trkpt><trkpt lat="44.99971377256304" lon="11.76309849099259"><ele>4.0</ele><time>2026-04-19T08:06:42.001Z</time></trkpt><trkpt lat="44.9996050774809" lon="11.763073934136502"><ele>4.0</ele><time>2026-04-19T08:06:43.001Z</time></trkpt><trkpt lat="44.999496298989406" lon="11.76305062681237"><ele>4.0</ele><time>2026-04-19T08:06:44.001Z</time></trkpt><trkpt lat="44.999384628210336" lon="11.763027133463618"><ele>4.0</ele><time>2026-04-19T08:06:45.001Z</time></trkpt><trkpt lat="44.999272478599785" lon="11.763002347408412"><ele>4.0</ele><time>2026-04-19T08:06:46.001Z</time></trkpt><trkpt lat="44.99916470855585" lon="11.762980676542567"><ele>4.0</ele><time>2026-04-19T08:06:47.001Z</time></trkpt><trkpt lat="44.99905640600009" lon="11.762961680904894"><ele>3.8000000000000003</ele><time>2026-04-19T08:06:48.001Z</time></trkpt><trkpt lat="44.99894841541478" lon="11.762941819919451"><ele>3.6000000000000005</ele><time>2026-04-19T08:06:49.001Z</time></trkpt><trkpt lat="44.998837996434155" lon="11.762920131327123"><ele>3.4</ele><time>2026-04-19T08:06:50.001Z</time></trkpt><trkpt lat="44.99872781843196" lon="11.762895355970933"><ele>3.2</ele><time>2026-04-19T08:06:51.001Z</time></trkpt><trkpt lat="44.99862476766496" lon="11.762872233364675"><ele>3.0</ele><time>2026-04-19T08:06:52.001Z</time></trkpt><trkpt lat="44.99851591446723" lon="11.762848241234396"><ele>3.0</ele><time>2026-04-19T08:06:53.001Z</time></trkpt><trkpt lat="44.99840060556835" lon="11.762822980527732"><ele>3.0</ele><time>2026-04-19T08:06:54.001Z</time></trkpt><trkpt lat="44.998279004689955" lon="11.762796578086775"><ele>3.0</ele><time>2026-04-19T08:06:55.001Z</time></trkpt><trkpt lat="44.99815183660308" lon="11.762769614706887"><ele>3.0</ele><time>2026-04-19T08:06:56.001Z</time></trkpt><trkpt lat="44.99802760563015" lon="11.762746031328371"><ele>2.75</ele><time>2026-04-19T08:06:57.001Z</time></trkpt><trkpt lat="44.99791372790821" lon="11.762722889823912"><ele>2.5</ele><time>2026-04-19T08:06:58.001Z</time></trkpt><trkpt lat="44.99780256574141" lon="11.762700178732127"><ele>2.25</ele><time>2026-04-19T08:06:59.001Z</time></trkpt><trkpt lat="44.9976909433043" lon="11.762676993742117"><ele>2.0</ele><time>2026-04-19T08:07:00.001Z</time></trkpt><trkpt lat="44.99757656119674" lon="11.76265166426282"><ele>2.25</ele><time>2026-04-19T08:07:01.001Z</time></trkpt><trkpt lat="44.99745201923332" lon="11.762623446760683"><ele>2.5</ele><time>2026-04-19T08:07:02.001Z</time></trkpt><trkpt lat="44.99731868593998" lon="11.762594692097501"><ele>2.75</ele><time>2026-04-19T08:07:03.001Z</time></trkpt><trkpt lat="44.997181732782344" lon="11.762562834781306"><ele>3.0</ele><time>2026-04-19T08:07:04.001Z</time></trkpt><trkpt lat="44.99705137601568" lon="11.762532827667119"><ele>3.0</ele><time>2026-04-19T08:07:05.001Z</time></trkpt><trkpt lat="44.99692910558983" lon="11.762507309033538"><ele>3.0</ele><time>2026-04-19T08:07:06.001Z</time></trkpt><trkpt lat="44.996807511588536" lon="11.762481793802662"><ele>3.0</ele><time>2026-04-19T08:07:07Z</time></trkpt><trkpt lat="44.99668182172396" lon="11.762456271066991"><ele>3.0</ele><time>2026-04-19T08:07:08Z</time></trkpt><trkpt lat="44.99654926912167" lon="11.762428939866306"><ele>2.75</ele><time>2026-04-19T08:07:09Z</time></trkpt><trkpt lat="44.996429313482096" lon="11.762404666043302"><ele>2.5</ele><time>2026-04-19T08:07:10Z</time></trkpt><trkpt lat="44.99630951687455" lon="11.762377187683928"><ele>2.25</ele><time>2026-04-19T08:07:11Z</time></trkpt><trkpt lat="44.99618934168892" lon="11.7623475306096"><ele>2.0</ele><time>2026-04-19T08:07:12Z</time></trkpt><trkpt lat="44.9960648595675" lon="11.762319099587907"><ele>2.0</ele><time>2026-04-19T08:07:13Z</time></trkpt><trkpt lat="44.99594069287753" lon="11.762292065852488"><ele>2.0</ele><time>2026-04-19T08:07:14Z</time></trkpt><trkpt lat="44.99581481413325" lon="11.762265011284445"><ele>2.0</ele><time>2026-04-19T08:07:15Z</time></trkpt><trkpt lat="44.99569337573278" lon="11.762242434644174"><ele>2.0</ele><time>2026-04-19T08:07:16Z</time></trkpt><trkpt lat="44.995571659841474" lon="11.762219813033953"><ele>2.25</ele><time>2026-04-19T08:07:17Z</time></trkpt><trkpt lat="44.99545041775955" lon="11.762196766677153"><ele>2.5</ele><time>2026-04-19T08:07:18Z</time></trkpt><trkpt lat="44.995330037788925" lon="11.762172038713986"><ele>2.75</ele><time>2026-04-19T08:07:19Z</time></trkpt><trkpt lat="44.99521287234639" lon="11.762148618688931"><ele>3.0</ele><time>2026-04-19T08:07:20Z</time></trkpt><trkpt lat="44.99509448024374" lon="11.762123712180632"><ele>3.0</ele><time>2026-04-19T08:07:21Z</time></trkpt><trkpt lat="44.99497310356109" lon="11.762098408936358"><ele>3.0</ele><time>2026-04-19T08:07:22Z</time></trkpt><trkpt lat="44.99485558960353" lon="11.762075476069565"><ele>3.0</ele><time>2026-04-19T08:07:23Z</time></trkpt><trkpt lat="44.99474238320343" lon="11.762053248791718"><ele>3.0</ele><time>2026-04-19T08:07:24Z</time></trkpt><trkpt lat="44.994627673586784" lon="11.762029681104028"><ele>3.0</ele><time>2026-04-19T08:07:25Z</time></trkpt><trkpt lat="44.99451193364226" lon="11.762005475027948"><ele>3.0</ele><time>2026-04-19T08:07:26Z</time></trkpt><trkpt lat="44.994391720524106" lon="11.761980264206708"><ele>3.0</ele><time>2026-04-19T08:07:27Z</time></trkpt><trkpt lat="44.99427107075707" lon="11.761950912605558"><ele>3.0</ele><time>2026-04-19T08:07:28Z</time></trkpt><trkpt lat="44.99414989134861" lon="11.761920296534319"><ele>2.75</ele><time>2026-04-19T08:07:29Z</time></trkpt><trkpt lat="44.99401988976207" lon="11.761888411428371"><ele>2.5</ele><time>2026-04-19T08:07:30Z</time></trkpt><trkpt lat="44.99389830498493" lon="11.7618641985246"><ele>2.25</ele><time>2026-04-19T08:07:31Z</time></trkpt><trkpt lat="44.99378208067598" lon="11.761840600004197"><ele>2.0</ele><time>2026-04-19T08:07:32Z</time></trkpt><trkpt lat="44.99366648650112" lon="11.761818140739797"><ele>2.0</ele><time>2026-04-19T08:07:33Z</time></trkpt><trkpt lat="44.99354761051943" lon="11.761794182350222"><ele>2.0</ele><time>2026-04-19T08:07:34Z</time></trkpt><trkpt lat="44.99342427543989" lon="11.76176934786521"><ele>2.0</ele><time>2026-04-19T08:07:35Z</time></trkpt><trkpt lat="44.99329375760178" lon="11.761743822040017"><ele>2.0</ele><time>2026-04-19T08:07:36Z</time></trkpt><trkpt lat="44.99315879811929" lon="11.76171605077699"><ele>2.25</ele><time>2026-04-19T08:07:37Z</time></trkpt><trkpt lat="44.99301904517403" lon="11.761686548584665"><ele>2.5</ele><time>2026-04-19T08:07:38Z</time></trkpt><trkpt lat="44.99287645492225" lon="11.761656687636115"><ele>2.75</ele><time>2026-04-19T08:07:39Z</time></trkpt><trkpt lat="44.992733439373595" lon="11.761627213860084"><ele>3.0</ele><time>2026-04-19T08:07:40Z</time></trkpt><trkpt lat="44.9925900507127" lon="11.761596380112566"><ele>3.0</ele><time>2026-04-19T08:07:41Z</time></trkpt><trkpt lat="44.992447580212314" lon="11.761566001754746"><ele>3.0</ele><time>2026-04-19T08:07:42Z</time></trkpt><trkpt lat="44.99230624252263" lon="11.761537563940932"><ele>3.0</ele><time>2026-04-19T08:07:43Z</time></trkpt><trkpt lat="44.99216441003236" lon="11.761507410299696"><ele>3.0</ele><time>2026-04-19T08:07:44Z</time></trkpt><trkpt lat="44.992025616585266" lon="11.761476047767573"><ele>3.0</ele><time>2026-04-19T08:07:45Z</time></trkpt><trkpt lat="44.9918914950853" lon="11.761447814960862"><ele>3.0</ele><time>2026-04-19T08:07:46Z</time></trkpt><trkpt lat="44.99176153267675" lon="11.761420436423888"><ele>3.0</ele><time>2026-04-19T08:07:47Z</time></trkpt><trkpt lat="44.99163470284489" lon="11.761394821622064"><ele>3.0</ele><time>2026-04-19T08:07:48Z</time></trkpt><trkpt lat="44.991506745750435" lon="11.76136916786027"><ele>3.0</ele><time>2026-04-19T08:07:49Z</time></trkpt><trkpt lat="44.99137673223171" lon="11.761344519665435"><ele>3.0</ele><time>2026-04-19T08:07:50Z</time></trkpt><trkpt lat="44.991249249121836" lon="11.761319415791858"><ele>3.0</ele><time>2026-04-19T08:07:51Z</time></trkpt><trkpt lat="44.99112076966677" lon="11.761293294078275"><ele>3.0</ele><time>2026-04-19T08:07:52Z</time></trkpt><trkpt lat="44.99099397084295" lon="11.761267602813032"><ele>3.0</ele><time>2026-04-19T08:07:53Z</time></trkpt><trkpt lat="44.99086997547005" lon="11.76124343822416"><ele>3.0</ele><time>2026-04-19T08:07:54Z</time></trkpt><trkpt lat="44.99074403683553" lon="11.761215962625718"><ele>3.0</ele><time>2026-04-19T08:07:55Z</time></trkpt><trkpt lat="44.99061840353783" lon="11.761187424800362"><ele>3.0</ele><time>2026-04-19T08:07:56Z</time></trkpt><trkpt lat="44.99048794413645" lon="11.761159667027155"><ele>3.0</ele><time>2026-04-19T08:07:57Z</time></trkpt><trkpt lat="44.99035272259833" lon="11.761131634703942"><ele>3.0</ele><time>2026-04-19T08:07:58Z</time></trkpt><trkpt lat="44.99021689944187" lon="11.761102053212127"><ele>3.0</ele><time>2026-04-19T08:07:59Z</time></trkpt><trkpt lat="44.9900785790598" lon="11.76107087555006"><ele>3.0</ele><time>2026-04-19T08:08:00Z</time></trkpt><trkpt lat="44.98994455670502" lon="11.761039459201985"><ele>2.25</ele><time>2026-04-19T08:08:01Z</time></trkpt><trkpt lat="44.98981316795884" lon="11.761009946326793"><ele>1.5</ele><time>2026-04-19T08:08:02Z</time></trkpt><trkpt lat="44.98968328623646" lon="11.760982433171703"><ele>0.75</ele><time>2026-04-19T08:08:03Z</time></trkpt><trkpt lat="44.989549342508134" lon="11.76095811613205"><ele>0.0</ele><time>2026-04-19T08:08:04Z</time></trkpt><trkpt lat="44.98941238428849" lon="11.760933957479393"><ele>0.0</ele><time>2026-04-19T08:08:05Z</time></trkpt><trkpt lat="44.989268241505535" lon="11.760907990640774"><ele>0.0</ele><time>2026-04-19T08:08:06.001Z</time></trkpt><trkpt lat="44.98911431569714" lon="11.760879911960904"><ele>0.0</ele><time>2026-04-19T08:08:07.001Z</time></trkpt><trkpt lat="44.98895229489333" lon="11.760848599909629"><ele>0.0</ele><time>2026-04-19T08:08:08.001Z</time></trkpt><trkpt lat="44.9887895695459" lon="11.760814167503732"><ele>0.0</ele><time>2026-04-19T08:08:09.001Z</time></trkpt><trkpt lat="44.988636517985626" lon="11.760783011120393"><ele>0.0</ele><time>2026-04-19T08:08:10.001Z</time></trkpt><trkpt lat="44.988487896657674" lon="11.76074696406566"><ele>-0.3333333333333333</ele><time>2026-04-19T08:08:11.001Z</time></trkpt><trkpt lat="44.98833990006865" lon="11.76070630853151"><ele>-0.6666666666666666</ele><time>2026-04-19T08:08:12.001Z</time></trkpt><trkpt lat="44.98818910091256" lon="11.76066559256786"><ele>-1.0</ele><time>2026-04-19T08:08:13.001Z</time></trkpt><trkpt lat="44.988036790470446" lon="11.760630236598418"><ele>-1.0</ele><time>2026-04-19T08:08:14.001Z</time></trkpt><trkpt lat="44.98788716210612" lon="11.76059941119512"><ele>-1.0</ele><time>2026-04-19T08:08:15.001Z</time></trkpt><trkpt lat="44.98774145371979" lon="11.760571888291771"><ele>-1.0</ele><time>2026-04-19T08:08:16.001Z</time></trkpt><trkpt lat="44.98759553836872" lon="11.760544013413734"><ele>-1.0</ele><time>2026-04-19T08:08:17.001Z</time></trkpt><trkpt lat="44.987452950825556" lon="11.760516607691988"><ele>-0.75</ele><time>2026-04-19T08:08:18.001Z</time></trkpt><trkpt lat="44.98731087456037" lon="11.760488291173749"><ele>-0.5</ele><time>2026-04-19T08:08:19.001Z</time></trkpt><trkpt lat="44.987165025132505" lon="11.760460587826595"><ele>-0.25</ele><time>2026-04-19T08:08:20.001Z</time></trkpt><trkpt lat="44.98702934966437" lon="11.760432447017484"><ele>0.0</ele><time>2026-04-19T08:08:21.001Z</time></trkpt><trkpt lat="44.98689426534696" lon="11.760403718946064"><ele>0.0</ele><time>2026-04-19T08:08:22.001Z</time></trkpt><trkpt lat="44.98675733032147" lon="11.760373618667114"><ele>0.0</ele><time>2026-04-19T08:08:23.001Z</time></trkpt><trkpt lat="44.986615951880474" lon="11.760343545778335"><ele>0.0</ele><time>2026-04-19T08:08:24.001Z</time></trkpt><trkpt lat="44.986473538617396" lon="11.760313714684074"><ele>0.0</ele><time>2026-04-19T08:08:25.001Z</time></trkpt><trkpt lat="44.98633417137104" lon="11.760284567095217"><ele>0.0</ele><time>2026-04-19T08:08:26.001Z</time></trkpt><trkpt lat="44.98620110421257" lon="11.760256134180997"><ele>0.0</ele><time>2026-04-19T08:08:27.001Z</time></trkpt><trkpt lat="44.98606976658449" lon="11.760227300065774"><ele>0.0</ele><time>2026-04-19T08:08:28.001Z</time></trkpt><trkpt lat="44.98593426820009" lon="11.76019781002506"><ele>0.0</ele><time>2026-04-19T08:08:29.001Z</time></trkpt><trkpt lat="44.98579049569811" lon="11.760169307184084"><ele>0.0</ele><time>2026-04-19T08:08:30.001Z</time></trkpt><trkpt lat="44.985647714721864" lon="11.76014012846854"><ele>0.0</ele><time>2026-04-19T08:08:31.001Z</time></trkpt><trkpt lat="44.985508306749246" lon="11.760110781933983"><ele>0.0</ele><time>2026-04-19T08:08:32.001Z</time></trkpt><trkpt lat="44.985370774226084" lon="11.760079524846288"><ele>0.0</ele><time>2026-04-19T08:08:33.001Z</time></trkpt><trkpt lat="44.98522773036809" lon="11.760047157129765"><ele>0.0</ele><time>2026-04-19T08:08:34.001Z</time></trkpt><trkpt lat="44.985088476895314" lon="11.760016996711128"><ele>0.0</ele><time>2026-04-19T08:08:35.001Z</time></trkpt><trkpt lat="44.984952271119965" lon="11.759990175391575"><ele>0.0</ele><time>2026-04-19T08:08:36.001Z</time></trkpt><trkpt lat="44.984816783460445" lon="11.759964008161225"><ele>0.0</ele><time>2026-04-19T08:08:37.001Z</time></trkpt><trkpt lat="44.98468194679045" lon="11.759937170987504"><ele>0.0</ele><time>2026-04-19T08:08:38.001Z</time></trkpt><trkpt lat="44.98454805098909" lon="11.759910026141295"><ele>0.0</ele><time>2026-04-19T08:08:39.001Z</time></trkpt><trkpt lat="44.98441011806076" lon="11.75988181198241"><ele>0.0</ele><time>2026-04-19T08:08:40.001Z</time></trkpt><trkpt lat="44.98427017009858" lon="11.75985407004384"><ele>0.0</ele><time>2026-04-19T08:08:41.001Z</time></trkpt><trkpt lat="44.98412883641336" lon="11.759826518175089"><ele>0.25</ele><time>2026-04-19T08:08:42.001Z</time></trkpt><trkpt lat="44.9839892169894" lon="11.75980285520462"><ele>0.5</ele><time>2026-04-19T08:08:43.001Z</time></trkpt><trkpt lat="44.983850395847114" lon="11.759780506858794"><ele>0.75</ele><time>2026-04-19T08:08:44.001Z</time></trkpt><trkpt lat="44.983717028041944" lon="11.759728547713683"><ele>1.0</ele><time>2026-04-19T08:08:45.001Z</time></trkpt><trkpt lat="44.98358433594969" lon="11.759700817444697"><ele>1.0</ele><time>2026-04-19T08:08:46.001Z</time></trkpt><trkpt lat="44.98345040789656" lon="11.759676439801202"><ele>1.0</ele><time>2026-04-19T08:08:47.001Z</time></trkpt><trkpt lat="44.98331548847853" lon="11.759655160469872"><ele>1.0</ele><time>2026-04-19T08:08:48.001Z</time></trkpt><trkpt lat="44.983181527985096" lon="11.75963377424785"><ele>1.0</ele><time>2026-04-19T08:08:49.001Z</time></trkpt><trkpt lat="44.9830454785293" lon="11.7596089710178"><ele>0.6666666666666666</ele><time>2026-04-19T08:08:50.001Z</time></trkpt><trkpt lat="44.98289167463577" lon="11.759576937140876"><ele>0.3333333333333333</ele><time>2026-04-19T08:08:51.001Z</time></trkpt><trkpt lat="44.982729419707155" lon="11.75954258639251"><ele>0.0</ele><time>2026-04-19T08:08:52.001Z</time></trkpt><trkpt lat="44.98257407622451" lon="11.759507918755727"><ele>0.0</ele><time>2026-04-19T08:08:53.001Z</time></trkpt><trkpt lat="44.98244519054444" lon="11.759479155652775"><ele>0.0</ele><time>2026-04-19T08:08:54.001Z</time></trkpt><trkpt lat="44.98234177100815" lon="11.759456075744746"><ele>0.0</ele><time>2026-04-19T08:08:55.001Z</time></trkpt><trkpt lat="44.98225874022369" lon="11.759437545955914"><ele>0.0</ele><time>2026-04-19T08:08:56.001Z</time></trkpt><trkpt lat="44.98218909950024" lon="11.759422004285897"><ele>0.0</ele><time>2026-04-19T08:08:57.001Z</time></trkpt><trkpt lat="44.98210488436331" lon="11.759730730268297"><ele>0.0</ele><time>2026-04-19T08:08:59.001Z</time></trkpt><trkpt lat="44.98209511618196" lon="11.75988354138052"><ele>0.0</ele><time>2026-04-19T08:09:00.001Z</time></trkpt><trkpt lat="44.982087030533535" lon="11.760052859003178"><ele>0.0</ele><time>2026-04-19T08:09:01.001Z</time></trkpt><trkpt lat="44.98207977996427" lon="11.760226651117659"><ele>0.0</ele><time>2026-04-19T08:09:02.001Z</time></trkpt><trkpt lat="44.982069780973184" lon="11.760404848054446"><ele>0.5</ele><time>2026-04-19T08:09:03.001Z</time></trkpt><trkpt lat="44.98205630610445" lon="11.760591895053162"><ele>1.0</ele><time>2026-04-19T08:09:04.001Z</time></trkpt><trkpt lat="44.98204641866373" lon="11.760772678073796"><ele>1.5</ele><time>2026-04-19T08:09:05.001Z</time></trkpt><trkpt lat="44.9820405078739" lon="11.760943021008583"><ele>2.0</ele><time>2026-04-19T08:09:06.001Z</time></trkpt><trkpt lat="44.98203301227911" lon="11.76111093196487"><ele>2.25</ele><time>2026-04-19T08:09:07.001Z</time></trkpt><trkpt lat="44.982020984152534" lon="11.761281755760468"><ele>2.5</ele><time>2026-04-19T08:09:08.001Z</time></trkpt><trkpt lat="44.982009228216064" lon="11.761456631076493"><ele>2.75</ele><time>2026-04-19T08:09:09.001Z</time></trkpt><trkpt lat="44.98199822764926" lon="11.761635449289537"><ele>3.0</ele><time>2026-04-19T08:09:10.001Z</time></trkpt><trkpt lat="44.981988266806226" lon="11.761813973003674"><ele>3.0</ele><time>2026-04-19T08:09:11.001Z</time></trkpt><trkpt lat="44.981978555581186" lon="11.76200361684766"><ele>3.0</ele><time>2026-04-19T08:09:12.001Z</time></trkpt><trkpt lat="44.98196869343635" lon="11.762205203549996"><ele>3.0</ele><time>2026-04-19T08:09:13Z</time></trkpt><trkpt lat="44.98195753839492" lon="11.762415130230243"><ele>3.0</ele><time>2026-04-19T08:09:14Z</time></trkpt><trkpt lat="44.98194428835464" lon="11.762627732683079"><ele>2.6666666666666665</ele><time>2026-04-19T08:09:15Z</time></trkpt><trkpt lat="44.98193116165192" lon="11.762836184129913"><ele>2.333333333333333</ele><time>2026-04-19T08:09:16Z</time></trkpt><trkpt lat="44.98191917234795" lon="11.763052857756591"><ele>2.0</ele><time>2026-04-19T08:09:17Z</time></trkpt><trkpt lat="44.98190696010566" lon="11.763271975873497"><ele>2.0</ele><time>2026-04-19T08:09:18Z</time></trkpt><trkpt lat="44.981895735939865" lon="11.76348368374549"><ele>2.0</ele><time>2026-04-19T08:09:19Z</time></trkpt><trkpt lat="44.98188442997597" lon="11.763694408290288"><ele>2.0</ele><time>2026-04-19T08:09:20Z</time></trkpt><trkpt lat="44.9818717323923" lon="11.763910566469596"><ele>1.6666666666666665</ele><time>2026-04-19T08:09:21Z</time></trkpt><trkpt lat="44.98185891777514" lon="11.764128692967665"><ele>1.3333333333333333</ele><time>2026-04-19T08:09:22Z</time></trkpt><trkpt lat="44.98184502675762" lon="11.764351177692793"><ele>1.0</ele><time>2026-04-19T08:09:23Z</time></trkpt><trkpt lat="44.98183212260335" lon="11.764576340246007"><ele>0.3333333333333333</ele><time>2026-04-19T08:09:24Z</time></trkpt><trkpt lat="44.98181878339698" lon="11.76480274017255"><ele>-0.3333333333333333</ele><time>2026-04-19T08:09:25Z</time></trkpt><trkpt lat="44.98180514025809" lon="11.765029512020961"><ele>-1.0</ele><time>2026-04-19T08:09:26Z</time></trkpt><trkpt lat="44.98179243121254" lon="11.765250359180955"><ele>-1.3333333333333333</ele><time>2026-04-19T08:09:27Z</time></trkpt><trkpt lat="44.981776706877056" lon="11.765475130157805"><ele>-1.6666666666666665</ele><time>2026-04-19T08:09:28Z</time></trkpt><trkpt lat="44.981757559698146" lon="11.765710203478205"><ele>-2.0</ele><time>2026-04-19T08:09:29Z</time></trkpt><trkpt lat="44.981737357304745" lon="11.765956909366569"><ele>-2.0</ele><time>2026-04-19T08:09:30Z</time></trkpt><trkpt lat="44.981715875784964" lon="11.766216144917497"><ele>-2.0</ele><time>2026-04-19T08:09:31Z</time></trkpt><trkpt lat="44.98172420837843" lon="11.766347770394562"><ele>-2.0</ele><time>2026-04-19T08:09:32Z</time></trkpt><trkpt lat="44.98171069471286" lon="11.766576045259164"><ele>-2.0</ele><time>2026-04-19T08:09:33Z</time></trkpt><trkpt lat="44.98169779595112" lon="11.766810404794285"><ele>-1.6666666666666665</ele><time>2026-04-19T08:09:34Z</time></trkpt><trkpt lat="44.98168352741798" lon="11.767050426687874"><ele>-1.3333333333333333</ele><time>2026-04-19T08:09:35Z</time></trkpt><trkpt lat="44.98166957284854" lon="11.767293548864222"><ele>-1.0</ele><time>2026-04-19T08:09:36Z</time></trkpt><trkpt lat="44.98165396792143" lon="11.767540056650795"><ele>-1.3333333333333333</ele><time>2026-04-19T08:09:37Z</time></trkpt><trkpt lat="44.98163991404909" lon="11.767795543682496"><ele>-1.6666666666666665</ele><time>2026-04-19T08:09:38Z</time></trkpt><trkpt lat="44.98162474184035" lon="11.768083786931893"><ele>-2.0</ele><time>2026-04-19T08:09:39Z</time></trkpt><trkpt lat="44.981609457720715" lon="11.768351876477382"><ele>-1.3333333333333333</ele><time>2026-04-19T08:09:40Z</time></trkpt><trkpt lat="44.98159496150218" lon="11.768624321520772"><ele>-0.6666666666666666</ele><time>2026-04-19T08:09:41Z</time></trkpt><trkpt lat="44.981580850973785" lon="11.768886032947167"><ele>0.0</ele><time>2026-04-19T08:09:42Z</time></trkpt><trkpt lat="44.981565615898184" lon="11.769143786213247"><ele>0.0</ele><time>2026-04-19T08:09:43Z</time></trkpt><trkpt lat="44.98154883631383" lon="11.769401056490254"><ele>0.0</ele><time>2026-04-19T08:09:44Z</time></trkpt><trkpt lat="44.98153403452215" lon="11.769657398099445"><ele>0.0</ele><time>2026-04-19T08:09:45Z</time></trkpt><trkpt lat="44.98151944709305" lon="11.769913549173523"><ele>0.0</ele><time>2026-04-19T08:09:46Z</time></trkpt><trkpt lat="44.98150368145678" lon="11.770170845529222"><ele>0.0</ele><time>2026-04-19T08:09:47Z</time></trkpt><trkpt lat="44.981483849717975" lon="11.770427246499377"><ele>0.0</ele><time>2026-04-19T08:09:48Z</time></trkpt><trkpt lat="44.981468036244685" lon="11.770683148426746"><ele>0.0</ele><time>2026-04-19T08:09:49Z</time></trkpt><trkpt lat="44.98145371937214" lon="11.770941417736424"><ele>0.0</ele><time>2026-04-19T08:09:50Z</time></trkpt><trkpt lat="44.981436840469485" lon="11.771199768627351"><ele>0.0</ele><time>2026-04-19T08:09:51Z</time></trkpt><trkpt lat="44.98142160429958" lon="11.771457495685006"><ele>0.0</ele><time>2026-04-19T08:09:52Z</time></trkpt><trkpt lat="44.98140452603557" lon="11.771714776171782"><ele>0.0</ele><time>2026-04-19T08:09:53Z</time></trkpt><trkpt lat="44.98139222485751" lon="11.771965218165416"><ele>0.0</ele><time>2026-04-19T08:09:54Z</time></trkpt><trkpt lat="44.981378741324576" lon="11.772219012223976"><ele>-0.3333333333333333</ele><time>2026-04-19T08:09:55Z</time></trkpt><trkpt lat="44.98136546928744" lon="11.77248040472121"><ele>-0.6666666666666666</ele><time>2026-04-19T08:09:56Z</time></trkpt><trkpt lat="44.98135334374084" lon="11.772741889932895"><ele>-1.0</ele><time>2026-04-19T08:09:57Z</time></trkpt><trkpt lat="44.981338507243365" lon="11.773007665391367"><ele>-0.3333333333333333</ele><time>2026-04-19T08:09:58Z</time></trkpt><trkpt lat="44.98132215811483" lon="11.773277324410484"><ele>0.3333333333333333</ele><time>2026-04-19T08:09:59Z</time></trkpt><trkpt lat="44.98130558805947" lon="11.77354265702103"><ele>1.0</ele><time>2026-04-19T08:10:00Z</time></trkpt><trkpt lat="44.981291543355866" lon="11.773813881120917"><ele>1.0</ele><time>2026-04-19T08:10:01Z</time></trkpt><trkpt lat="44.98127419134947" lon="11.774080934390451"><ele>1.0</ele><time>2026-04-19T08:10:02Z</time></trkpt><trkpt lat="44.98125851510352" lon="11.774350757820722"><ele>1.0</ele><time>2026-04-19T08:10:03Z</time></trkpt><trkpt lat="44.981244230922094" lon="11.774619896909147"><ele>1.0</ele><time>2026-04-19T08:10:04Z</time></trkpt><trkpt lat="44.981231741137215" lon="11.774888395370803"><ele>1.0</ele><time>2026-04-19T08:10:05Z</time></trkpt><trkpt lat="44.98122343927786" lon="11.77515284488317"><ele>1.0</ele><time>2026-04-19T08:10:06Z</time></trkpt><trkpt lat="44.981212695090434" lon="11.775423503397615"><ele>0.6666666666666666</ele><time>2026-04-19T08:10:07Z</time></trkpt><trkpt lat="44.98120376164239" lon="11.775684131195147"><ele>0.3333333333333333</ele><time>2026-04-19T08:10:08Z</time></trkpt><trkpt lat="44.981194207615935" lon="11.775940604366683"><ele>0.0</ele><time>2026-04-19T08:10:09Z</time></trkpt><trkpt lat="44.98118348419317" lon="11.77620139799785"><ele>0.6666666666666666</ele><time>2026-04-19T08:10:10Z</time></trkpt><trkpt lat="44.98117054143751" lon="11.776458495457625"><ele>1.3333333333333333</ele><time>2026-04-19T08:10:11Z</time></trkpt><trkpt lat="44.98115893210659" lon="11.776723213672808"><ele>2.0</ele><time>2026-04-19T08:10:12Z</time></trkpt><trkpt lat="44.981147237673774" lon="11.77698457752132"><ele>2.0</ele><time>2026-04-19T08:10:13Z</time></trkpt><trkpt lat="44.98113577206977" lon="11.777248336177864"><ele>2.0</ele><time>2026-04-19T08:10:14.001Z</time></trkpt><trkpt lat="44.98112272163976" lon="11.777519010763793"><ele>2.0</ele><time>2026-04-19T08:10:15.001Z</time></trkpt><trkpt lat="44.981109191537584" lon="11.777787375123589"><ele>2.0</ele><time>2026-04-19T08:10:16.001Z</time></trkpt><trkpt lat="44.981093938841354" lon="11.778058550420365"><ele>2.0</ele><time>2026-04-19T08:10:17.001Z</time></trkpt><trkpt lat="44.981079583936776" lon="11.778322377031218"><ele>2.0</ele><time>2026-04-19T08:10:18.001Z</time></trkpt><trkpt lat="44.98106976611844" lon="11.77858799398904"><ele>2.0</ele><time>2026-04-19T08:10:19.001Z</time></trkpt><trkpt lat="44.981058849372204" lon="11.778855209549143"><ele>2.0</ele><time>2026-04-19T08:10:20.001Z</time></trkpt><trkpt lat="44.98104670403136" lon="11.779121277714072"><ele>2.0</ele><time>2026-04-19T08:10:21.001Z</time></trkpt><trkpt lat="44.98103465480371" lon="11.779391892883917"><ele>1.6666666666666665</ele><time>2026-04-19T08:10:22.001Z</time></trkpt><trkpt lat="44.98102168104393" lon="11.779663706690148"><ele>1.3333333333333333</ele><time>2026-04-19T08:10:23.001Z</time></trkpt><trkpt lat="44.98100792613463" lon="11.779930924861509"><ele>1.0</ele><time>2026-04-19T08:10:24.001Z</time></trkpt><trkpt lat="44.98099232526818" lon="11.780201012355038"><ele>1.0</ele><time>2026-04-19T08:10:25.001Z</time></trkpt><trkpt lat="44.98097753350176" lon="11.780474646459655"><ele>1.0</ele><time>2026-04-19T08:10:26.001Z</time></trkpt><trkpt lat="44.980959560050195" lon="11.780733586233723"><ele>1.0</ele><time>2026-04-19T08:10:27.001Z</time></trkpt><trkpt lat="44.980944038795535" lon="11.780993271932235"><ele>0.3333333333333333</ele><time>2026-04-19T08:10:28.001Z</time></trkpt><trkpt lat="44.98092837633076" lon="11.781255400628083"><ele>-0.3333333333333333</ele><time>2026-04-19T08:10:29.001Z</time></trkpt><trkpt lat="44.98091235506905" lon="11.781521582129027"><ele>-1.0</ele><time>2026-04-19T08:10:30.001Z</time></trkpt><trkpt lat="44.98089408715469" lon="11.781784083071871"><ele>-1.0</ele><time>2026-04-19T08:10:31.001Z</time></trkpt><trkpt lat="44.98087882972499" lon="11.782046278934441"><ele>-1.0</ele><time>2026-04-19T08:10:32.001Z</time></trkpt><trkpt lat="44.9808631966591" lon="11.782314572100088"><ele>-1.0</ele><time>2026-04-19T08:10:33.001Z</time></trkpt><trkpt lat="44.98084772167047" lon="11.78258450285574"><ele>-0.3333333333333333</ele><time>2026-04-19T08:10:34.001Z</time></trkpt><trkpt lat="44.98083350382634" lon="11.78284986993429"><ele>0.3333333333333333</ele><time>2026-04-19T08:10:35.001Z</time></trkpt><trkpt lat="44.98081787744306" lon="11.783115586908366"><ele>1.0</ele><time>2026-04-19T08:10:36.001Z</time></trkpt><trkpt lat="44.98080259506283" lon="11.783387646944144"><ele>1.0</ele><time>2026-04-19T08:10:37.001Z</time></trkpt><trkpt lat="44.98078736616717" lon="11.783656043805188"><ele>1.0</ele><time>2026-04-19T08:10:38.001Z</time></trkpt><trkpt lat="44.98077009928568" lon="11.783927475756812"><ele>1.0</ele><time>2026-04-19T08:10:39.001Z</time></trkpt><trkpt lat="44.98075367726829" lon="11.78419701910636"><ele>1.6666666666666665</ele><time>2026-04-19T08:10:40.001Z</time></trkpt><trkpt lat="44.98073631713584" lon="11.78447220631704"><ele>2.3333333333333335</ele><time>2026-04-19T08:10:41.001Z</time></trkpt><trkpt lat="44.9807193176745" lon="11.784749679093247"><ele>3.0</ele><time>2026-04-19T08:10:42.001Z</time></trkpt><trkpt lat="44.980701615119585" lon="11.785032238256822"><ele>2.6666666666666665</ele><time>2026-04-19T08:10:43.001Z</time></trkpt><trkpt lat="44.980685882425654" lon="11.785317926317393"><ele>2.333333333333333</ele><time>2026-04-19T08:10:44.001Z</time></trkpt><trkpt lat="44.98067029920795" lon="11.785607286211892"><ele>2.0</ele><time>2026-04-19T08:10:45.001Z</time></trkpt><trkpt lat="44.9806551518931" lon="11.785895824554578"><ele>1.6666666666666665</ele><time>2026-04-19T08:10:46.001Z</time></trkpt><trkpt lat="44.98064024088065" lon="11.78619033386418"><ele>1.3333333333333333</ele><time>2026-04-19T08:10:47.001Z</time></trkpt><trkpt lat="44.98062411667451" lon="11.786489482515329"><ele>1.0</ele><time>2026-04-19T08:10:48.001Z</time></trkpt><trkpt lat="44.9806067128899" lon="11.786792607479422"><ele>0.6666666666666666</ele><time>2026-04-19T08:10:49.001Z</time></trkpt><trkpt lat="44.98058802382099" lon="11.787100312364847"><ele>0.3333333333333333</ele><time>2026-04-19T08:10:50.001Z</time></trkpt><trkpt lat="44.98057094987035" lon="11.787385944687827"><ele>0.0</ele><time>2026-04-19T08:10:51.001Z</time></trkpt><trkpt lat="44.98055177069406" lon="11.78767369442265"><ele>0.0</ele><time>2026-04-19T08:10:52.001Z</time></trkpt><trkpt lat="44.98053211249975" lon="11.787958832648268"><ele>0.0</ele><time>2026-04-19T08:10:53.001Z</time></trkpt><trkpt lat="44.98051268942145" lon="11.788244590111612"><ele>0.0</ele><time>2026-04-19T08:10:54.001Z</time></trkpt><trkpt lat="44.98049447739414" lon="11.788529294245473"><ele>0.3333333333333333</ele><time>2026-04-19T08:10:55.001Z</time></trkpt><trkpt lat="44.98048028612708" lon="11.788820680559024"><ele>0.6666666666666666</ele><time>2026-04-19T08:10:56.001Z</time></trkpt><trkpt lat="44.98046237506562" lon="11.78911780907048"><ele>1.0</ele><time>2026-04-19T08:10:57.001Z</time></trkpt><trkpt lat="44.9804461720587" lon="11.789405751830097"><ele>1.0</ele><time>2026-04-19T08:10:58.001Z</time></trkpt><trkpt lat="44.98043062245255" lon="11.789690935630405"><ele>1.0</ele><time>2026-04-19T08:10:59.001Z</time></trkpt><trkpt lat="44.98041451578129" lon="11.78997830829393"><ele>1.0</ele><time>2026-04-19T08:11:00.001Z</time></trkpt><trkpt lat="44.98039747128337" lon="11.790259530834186"><ele>1.0</ele><time>2026-04-19T08:11:01.001Z</time></trkpt><trkpt lat="44.98038320057355" lon="11.790542460689146"><ele>1.0</ele><time>2026-04-19T08:11:02.001Z</time></trkpt><trkpt lat="44.980367079205685" lon="11.79082014001786"><ele>1.0</ele><time>2026-04-19T08:11:03.001Z</time></trkpt><trkpt lat="44.980353140411346" lon="11.79109525271816"><ele>1.0</ele><time>2026-04-19T08:11:04.001Z</time></trkpt><trkpt lat="44.980334996313715" lon="11.791369526117952"><ele>1.0</ele><time>2026-04-19T08:11:05.001Z</time></trkpt><trkpt lat="44.980319749354045" lon="11.791640269230246"><ele>1.0</ele><time>2026-04-19T08:11:06.001Z</time></trkpt><trkpt lat="44.980304973215816" lon="11.791907535481716"><ele>1.0</ele><time>2026-04-19T08:11:07.001Z</time></trkpt><trkpt lat="44.98028984594155" lon="11.792170969111021"><ele>1.0</ele><time>2026-04-19T08:11:08.001Z</time></trkpt><trkpt lat="44.98027592003968" lon="11.792426205034957"><ele>1.0</ele><time>2026-04-19T08:11:09.001Z</time></trkpt><trkpt lat="44.98026243012786" lon="11.79268575716011"><ele>1.3333333333333333</ele><time>2026-04-19T08:11:10.001Z</time></trkpt><trkpt lat="44.98024505706958" lon="11.792944171891733"><ele>1.6666666666666665</ele><time>2026-04-19T08:11:11.001Z</time></trkpt><trkpt lat="44.9802295224605" lon="11.793202341456492"><ele>2.0</ele><time>2026-04-19T08:11:12.001Z</time></trkpt><trkpt lat="44.98021375644059" lon="11.79346034749411"><ele>1.6666666666666665</ele><time>2026-04-19T08:11:13.001Z</time></trkpt><trkpt lat="44.98019905680702" lon="11.793717193728979"><ele>1.3333333333333333</ele><time>2026-04-19T08:11:14.001Z</time></trkpt><trkpt lat="44.98018258902943" lon="11.793972824276116"><ele>1.0</ele><time>2026-04-19T08:11:15.001Z</time></trkpt><trkpt lat="44.98016590250917" lon="11.794224954274634"><ele>1.0</ele><time>2026-04-19T08:11:16.001Z</time></trkpt><trkpt lat="44.98015000093575" lon="11.794479771400434"><ele>1.0</ele><time>2026-04-19T08:11:17.001Z</time></trkpt><trkpt lat="44.980136492539465" lon="11.794725875974542"><ele>1.0</ele><time>2026-04-19T08:11:18.001Z</time></trkpt><trkpt lat="44.98012178135907" lon="11.794967263314117"><ele>1.0</ele><time>2026-04-19T08:11:19Z</time></trkpt><trkpt lat="44.9801069326186" lon="11.795204072145548"><ele>1.0</ele><time>2026-04-19T08:11:20Z</time></trkpt><trkpt lat="44.98009170209468" lon="11.795445024494265"><ele>1.0</ele><time>2026-04-19T08:11:21Z</time></trkpt><trkpt lat="44.980079270704216" lon="11.79567049329439"><ele>1.0</ele><time>2026-04-19T08:11:22Z</time></trkpt><trkpt lat="44.98006693681829" lon="11.795882442585311"><ele>1.0</ele><time>2026-04-19T08:11:23Z</time></trkpt><trkpt lat="44.980055268912444" lon="11.796092721469062"><ele>1.0</ele><time>2026-04-19T08:11:24Z</time></trkpt><trkpt lat="44.98004620744353" lon="11.796294714478126"><ele>1.0</ele><time>2026-04-19T08:11:25Z</time></trkpt><trkpt lat="44.98004205084125" lon="11.796484078577773"><ele>1.25</ele><time>2026-04-19T08:11:26Z</time></trkpt><trkpt lat="44.98004415741244" lon="11.7966713061678"><ele>1.5</ele><time>2026-04-19T08:11:27Z</time></trkpt><trkpt lat="44.980051818469995" lon="11.796861537411015"><ele>1.75</ele><time>2026-04-19T08:11:28Z</time></trkpt><trkpt lat="44.98006319498336" lon="11.797053883971026"><ele>2.0</ele><time>2026-04-19T08:11:29Z</time></trkpt><trkpt lat="44.980066269501016" lon="11.797228636619968"><ele>2.2</ele><time>2026-04-19T08:11:30Z</time></trkpt><trkpt lat="44.9800518034451" lon="11.79738302284054"><ele>2.4000000000000004</ele><time>2026-04-19T08:11:31Z</time></trkpt><trkpt lat="44.98002584785181" lon="11.797529787068234"><ele>2.5999999999999996</ele><time>2026-04-19T08:11:32Z</time></trkpt><trkpt lat="44.979995540746785" lon="11.79768455036215"><ele>2.8</ele><time>2026-04-19T08:11:33Z</time></trkpt><trkpt lat="44.97996428080173" lon="11.797837608263118"><ele>3.0</ele><time>2026-04-19T08:11:34Z</time></trkpt><trkpt lat="44.97993386197059" lon="11.797992080580412"><ele>3.0</ele><time>2026-04-19T08:11:35Z</time></trkpt><trkpt lat="44.979907248394824" lon="11.798143371026635"><ele>3.0</ele><time>2026-04-19T08:11:36Z</time></trkpt><trkpt lat="44.9798883561372" lon="11.798288394379393"><ele>3.0</ele><time>2026-04-19T08:11:37Z</time></trkpt><trkpt lat="44.97987405640889" lon="11.798425309323259"><ele>3.0</ele><time>2026-04-19T08:11:38Z</time></trkpt><trkpt lat="44.97986446646507" lon="11.798541992951506"><ele>3.0</ele><time>2026-04-19T08:11:39Z</time></trkpt><trkpt lat="44.97985902804233" lon="11.798666967818008"><ele>3.0</ele><time>2026-04-19T08:11:40Z</time></trkpt><trkpt lat="44.97985712673617" lon="11.798787435885986"><ele>3.0</ele><time>2026-04-19T08:11:41Z</time></trkpt><trkpt lat="44.9798561636532" lon="11.798910700920748"><ele>3.0</ele><time>2026-04-19T08:11:42Z</time></trkpt><trkpt lat="44.979852648243224" lon="11.79904888882897"><ele>3.0</ele><time>2026-04-19T08:11:43Z</time></trkpt><trkpt lat="44.97984844175039" lon="11.799191126530497"><ele>3.0</ele><time>2026-04-19T08:11:44Z</time></trkpt><trkpt lat="44.97984091825009" lon="11.799334596356204"><ele>3.2</ele><time>2026-04-19T08:11:45Z</time></trkpt><trkpt lat="44.97982922839394" lon="11.799484736954513"><ele>3.4</ele><time>2026-04-19T08:11:46Z</time></trkpt><trkpt lat="44.979820507047194" lon="11.799633187098237"><ele>3.6000000000000005</ele><time>2026-04-19T08:11:47Z</time></trkpt><trkpt lat="44.97980806824332" lon="11.799784470891378"><ele>3.8000000000000003</ele><time>2026-04-19T08:11:48Z</time></trkpt><trkpt lat="44.97979497935587" lon="11.799942324041757"><ele>4.0</ele><time>2026-04-19T08:11:49Z</time></trkpt><trkpt lat="44.979786258396125" lon="11.8000912724257"><ele>4.0</ele><time>2026-04-19T08:11:50Z</time></trkpt><trkpt lat="44.979777600691406" lon="11.800231418832706"><ele>4.0</ele><time>2026-04-19T08:11:51Z</time></trkpt><trkpt lat="44.9797702880808" lon="11.800380896867084"><ele>4.0</ele><time>2026-04-19T08:11:52Z</time></trkpt><trkpt lat="44.97976387715324" lon="11.800531665569657"><ele>4.0</ele><time>2026-04-19T08:11:53Z</time></trkpt><trkpt lat="44.97975765600845" lon="11.800675649953746"><ele>4.0</ele><time>2026-04-19T08:11:54Z</time></trkpt><trkpt lat="44.97974868417895" lon="11.80081627456306"><ele>4.0</ele><time>2026-04-19T08:11:55Z</time></trkpt><trkpt lat="44.97974275475125" lon="11.800951245121322"><ele>4.0</ele><time>2026-04-19T08:11:56Z</time></trkpt><trkpt lat="44.97973546693528" lon="11.80108329143341"><ele>4.0</ele><time>2026-04-19T08:11:57Z</time></trkpt><trkpt lat="44.979728158861455" lon="11.801214044193381"><ele>4.0</ele><time>2026-04-19T08:11:58Z</time></trkpt><trkpt lat="44.979720033187476" lon="11.801344335458662"><ele>4.0</ele><time>2026-04-19T08:11:59Z</time></trkpt><trkpt lat="44.979710924005346" lon="11.80147826977975"><ele>4.0</ele><time>2026-04-19T08:12:00Z</time></trkpt><trkpt lat="44.979702319709766" lon="11.80162284586403"><ele>4.0</ele><time>2026-04-19T08:12:01Z</time></trkpt><trkpt lat="44.97969216743744" lon="11.801767220017107"><ele>4.0</ele><time>2026-04-19T08:12:02Z</time></trkpt><trkpt lat="44.979680731376185" lon="11.80192159418261"><ele>4.0</ele><time>2026-04-19T08:12:03Z</time></trkpt><trkpt lat="44.979669139818036" lon="11.802074101295252"><ele>4.0</ele><time>2026-04-19T08:12:04Z</time></trkpt><trkpt lat="44.979659761116224" lon="11.802218408806139"><ele>3.9999999999999996</ele><time>2026-04-19T08:12:05Z</time></trkpt><trkpt lat="44.979654664879284" lon="11.802347961171272"><ele>4.0</ele><time>2026-04-19T08:12:06Z</time></trkpt><trkpt lat="44.9796476174302" lon="11.802460814415184"><ele>4.0</ele><time>2026-04-19T08:12:07Z</time></trkpt><trkpt lat="44.979642579265125" lon="11.802556316362942"><ele>4.0</ele><time>2026-04-19T08:12:08Z</time></trkpt><trkpt lat="44.979632577474305" lon="11.80270301260898"><ele>3.9999999999999996</ele><time>2026-04-19T08:12:10Z</time></trkpt><trkpt lat="44.97960245331468" lon="11.802785444171496"><ele>4.0</ele><time>2026-04-19T08:12:12Z</time></trkpt><trkpt lat="44.979467357504596" lon="11.802825153759766"><ele>4.2</ele><time>2026-04-19T08:12:18Z</time></trkpt><trkpt lat="44.979357784239475" lon="11.802831583630356"><ele>4.4</ele><time>2026-04-19T08:12:20.001Z</time></trkpt><trkpt lat="44.979280052514504" lon="11.802819161307978"><ele>4.6</ele><time>2026-04-19T08:12:22.001Z</time></trkpt><trkpt lat="44.97921623673375" lon="11.802823475323835"><ele>4.8</ele><time>2026-04-19T08:12:25.001Z</time></trkpt><trkpt lat="44.979233999839856" lon="11.802989699700401"><ele>5.0</ele><time>2026-04-19T08:12:26.001Z</time></trkpt><trkpt lat="44.9792764980992" lon="11.803152307665306"><ele>5.0</ele><time>2026-04-19T08:12:28.001Z</time></trkpt><trkpt lat="44.97930786468693" lon="11.80328957515473"><ele>5.0</ele><time>2026-04-19T08:12:29.001Z</time></trkpt><trkpt lat="44.97934356689269" lon="11.80341815078249"><ele>5.0</ele><time>2026-04-19T08:12:30.001Z</time></trkpt><trkpt lat="44.979380751370655" lon="11.803554866253592"><ele>5.0</ele><time>2026-04-19T08:12:31.001Z</time></trkpt><trkpt lat="44.9793950859305" lon="11.803688725575492"><ele>5.0</ele><time>2026-04-19T08:12:32.001Z</time></trkpt><trkpt lat="44.97943938542143" lon="11.803809661646186"><ele>4.833333333333334</ele><time>2026-04-19T08:12:33.001Z</time></trkpt><trkpt lat="44.979461352368574" lon="11.803924707625798"><ele>4.666666666666667</ele><time>2026-04-19T08:12:34.001Z</time></trkpt><trkpt lat="44.979484906502854" lon="11.804034778751815"><ele>4.5</ele><time>2026-04-19T08:12:35.001Z</time></trkpt><trkpt lat="44.97950786529536" lon="11.804152457728103"><ele>4.333333333333333</ele><time>2026-04-19T08:12:36.001Z</time></trkpt><trkpt lat="44.97952669435776" lon="11.80427687732701"><ele>4.166666666666666</ele><time>2026-04-19T08:12:37.001Z</time></trkpt><trkpt lat="44.97954379861534" lon="11.804405401824376"><ele>4.0</ele><time>2026-04-19T08:12:38.001Z</time></trkpt><trkpt lat="44.97956147124847" lon="11.804532637525186"><ele>3.9999999999999996</ele><time>2026-04-19T08:12:39.001Z</time></trkpt><trkpt lat="44.9795754558727" lon="11.804659522255447"><ele>4.0</ele><time>2026-04-19T08:12:40.001Z</time></trkpt><trkpt lat="44.97958859562961" lon="11.804784532329839"><ele>4.0</ele><time>2026-04-19T08:12:41.001Z</time></trkpt><trkpt lat="44.97960265589791" lon="11.80490208016446"><ele>4.0</ele><time>2026-04-19T08:12:42.001Z</time></trkpt><trkpt lat="44.97961965021449" lon="11.805025929866387"><ele>3.9999999999999996</ele><time>2026-04-19T08:12:43.001Z</time></trkpt><trkpt lat="44.97963755205449" lon="11.80515185455275"><ele>4.0</ele><time>2026-04-19T08:12:44.001Z</time></trkpt><trkpt lat="44.979652855353265" lon="11.805262405471607"><ele>4.0</ele><time>2026-04-19T08:12:45.001Z</time></trkpt><trkpt lat="44.97966800101302" lon="11.80541820811312"><ele>4.0</ele><time>2026-04-19T08:12:47.001Z</time></trkpt><trkpt lat="44.97967045051662" lon="11.805540812415684"><ele>4.0</ele><time>2026-04-19T08:12:49.001Z</time></trkpt><trkpt lat="44.9796314148956" lon="11.805682737194303"><ele>4.0</ele><time>2026-04-19T08:12:51.001Z</time></trkpt><trkpt lat="44.979704313229114" lon="11.805818762177642"><ele>4.0</ele><time>2026-04-19T08:12:52.001Z</time></trkpt><trkpt lat="44.97973181809576" lon="11.805942143796939"><ele>4.25</ele><time>2026-04-19T08:12:53.001Z</time></trkpt><trkpt lat="44.97976956944062" lon="11.806085803546502"><ele>4.5</ele><time>2026-04-19T08:12:54.001Z</time></trkpt><trkpt lat="44.979807723599976" lon="11.80622436907537"><ele>4.75</ele><time>2026-04-19T08:12:55.001Z</time></trkpt><trkpt lat="44.9798504287628" lon="11.806376216587825"><ele>5.0</ele><time>2026-04-19T08:12:56.001Z</time></trkpt><trkpt lat="44.979895172627415" lon="11.806542354561294"><ele>5.0</ele><time>2026-04-19T08:12:57.001Z</time></trkpt><trkpt lat="44.97994719166049" lon="11.806733984079829"><ele>5.0</ele><time>2026-04-19T08:12:58.001Z</time></trkpt><trkpt lat="44.97999184382902" lon="11.80692236763393"><ele>5.0</ele><time>2026-04-19T08:12:59.001Z</time></trkpt><trkpt lat="44.980031724503895" lon="11.807112563961333"><ele>5.0</ele><time>2026-04-19T08:13:00.001Z</time></trkpt><trkpt lat="44.98005914162355" lon="11.807303980741352"><ele>4.5</ele><time>2026-04-19T08:13:01.001Z</time></trkpt><trkpt lat="44.98007021982826" lon="11.807499781455478"><ele>4.0</ele><time>2026-04-19T08:13:02.001Z</time></trkpt><trkpt lat="44.98006752977472" lon="11.807691858136778"><ele>3.5</ele><time>2026-04-19T08:13:03.001Z</time></trkpt><trkpt lat="44.980055707296145" lon="11.807875949552402"><ele>3.0</ele><time>2026-04-19T08:13:04.001Z</time></trkpt><trkpt lat="44.98004359657054" lon="11.808066136112952"><ele>2.6666666666666665</ele><time>2026-04-19T08:13:05.001Z</time></trkpt><trkpt lat="44.98003456452547" lon="11.80826273832494"><ele>2.333333333333333</ele><time>2026-04-19T08:13:06.001Z</time></trkpt><trkpt lat="44.98002991497903" lon="11.80848043904237"><ele>2.0</ele><time>2026-04-19T08:13:07.001Z</time></trkpt><trkpt lat="44.98002220216282" lon="11.808710121074148"><ele>2.333333333333333</ele><time>2026-04-19T08:13:08.001Z</time></trkpt><trkpt lat="44.98000065029853" lon="11.808946791686598"><ele>2.6666666666666665</ele><time>2026-04-19T08:13:09.001Z</time></trkpt><trkpt lat="44.979972452248276" lon="11.809183862677903"><ele>3.0</ele><time>2026-04-19T08:13:10.001Z</time></trkpt><trkpt lat="44.97995695024337" lon="11.809426529556548"><ele>3.0</ele><time>2026-04-19T08:13:11.001Z</time></trkpt><trkpt lat="44.97994512190571" lon="11.809675425316167"><ele>3.0</ele><time>2026-04-19T08:13:12.001Z</time></trkpt><trkpt lat="44.97993041045765" lon="11.809919597288474"><ele>3.0</ele><time>2026-04-19T08:13:13.001Z</time></trkpt><trkpt lat="44.97991457874391" lon="11.810161396347347"><ele>3.0</ele><time>2026-04-19T08:13:14.001Z</time></trkpt><trkpt lat="44.97989859288424" lon="11.810399971532725"><ele>3.0</ele><time>2026-04-19T08:13:15.001Z</time></trkpt><trkpt lat="44.979883327037" lon="11.81063968186508"><ele>3.0</ele><time>2026-04-19T08:13:16.001Z</time></trkpt><trkpt lat="44.97986801989363" lon="11.810879683123371"><ele>2.6666666666666665</ele><time>2026-04-19T08:13:17.001Z</time></trkpt><trkpt lat="44.97985274728647" lon="11.81111881795579"><ele>2.333333333333333</ele><time>2026-04-19T08:13:18.001Z</time></trkpt><trkpt lat="44.97983698929854" lon="11.81135606900549"><ele>2.0</ele><time>2026-04-19T08:13:19.001Z</time></trkpt><trkpt lat="44.979821727520076" lon="11.811587409714065"><ele>2.0</ele><time>2026-04-19T08:13:20.001Z</time></trkpt><trkpt lat="44.97980781199288" lon="11.811801787302175"><ele>2.0</ele><time>2026-04-19T08:13:21.001Z</time></trkpt><trkpt lat="44.97979417595098" lon="11.81201537834554"><ele>2.0</ele><time>2026-04-19T08:13:22.001Z</time></trkpt><trkpt lat="44.9797813034298" lon="11.812227582498586"><ele>2.5</ele><time>2026-04-19T08:13:23.001Z</time></trkpt><trkpt lat="44.9797688413325" lon="11.812438130196226"><ele>3.0</ele><time>2026-04-19T08:13:24.001Z</time></trkpt><trkpt lat="44.9797555203465" lon="11.812644745119709"><ele>3.5</ele><time>2026-04-19T08:13:25Z</time></trkpt><trkpt lat="44.97974187646088" lon="11.81284217563231"><ele>4.0</ele><time>2026-04-19T08:13:26Z</time></trkpt><trkpt lat="44.97972889565837" lon="11.813033824965176"><ele>4.0</ele><time>2026-04-19T08:13:27Z</time></trkpt><trkpt lat="44.97970724522235" lon="11.81337196573494"><ele>4.0</ele><time>2026-04-19T08:13:28Z</time></trkpt><trkpt lat="44.979691848658234" lon="11.81359397774283"><ele>4.0</ele><time>2026-04-19T08:13:29Z</time></trkpt><trkpt lat="44.97967711273255" lon="11.81381598608704"><ele>3.333333333333333</ele><time>2026-04-19T08:13:30Z</time></trkpt><trkpt lat="44.97966095902071" lon="11.814039201765643"><ele>2.6666666666666665</ele><time>2026-04-19T08:13:31Z</time></trkpt><trkpt lat="44.97964524994952" lon="11.814260443581434"><ele>2.0</ele><time>2026-04-19T08:13:32Z</time></trkpt><trkpt lat="44.97962647273388" lon="11.814480983165724"><ele>1.6666666666666665</ele><time>2026-04-19T08:13:33Z</time></trkpt><trkpt lat="44.979603407674304" lon="11.81470377860641"><ele>1.3333333333333333</ele><time>2026-04-19T08:13:34Z</time></trkpt><trkpt lat="44.97958158957011" lon="11.814922388238383"><ele>1.0</ele><time>2026-04-19T08:13:35Z</time></trkpt><trkpt lat="44.97955540143154" lon="11.815136156968311"><ele>1.3333333333333333</ele><time>2026-04-19T08:13:36Z</time></trkpt><trkpt lat="44.97952630925436" lon="11.815350058673049"><ele>1.6666666666666665</ele><time>2026-04-19T08:13:37Z</time></trkpt><trkpt lat="44.979496308969786" lon="11.815563209981248"><ele>2.0</ele><time>2026-04-19T08:13:38Z</time></trkpt><trkpt lat="44.97946361614054" lon="11.815774183097046"><ele>2.0</ele><time>2026-04-19T08:13:39Z</time></trkpt><trkpt lat="44.97943186393468" lon="11.815986214112534"><ele>2.0</ele><time>2026-04-19T08:13:40Z</time></trkpt><trkpt lat="44.97939783431243" lon="11.816192305162465"><ele>2.0</ele><time>2026-04-19T08:13:41Z</time></trkpt><trkpt lat="44.97936371359877" lon="11.816390195742285"><ele>2.0</ele><time>2026-04-19T08:13:42Z</time></trkpt><trkpt lat="44.979329936209446" lon="11.816581431136296"><ele>1.75</ele><time>2026-04-19T08:13:43Z</time></trkpt><trkpt lat="44.97929383717524" lon="11.81678011728112"><ele>1.5</ele><time>2026-04-19T08:13:44Z</time></trkpt><trkpt lat="44.979253802672" lon="11.816983655225131"><ele>1.25</ele><time>2026-04-19T08:13:45Z</time></trkpt><trkpt lat="44.97921127540011" lon="11.817192416916296"><ele>1.0</ele><time>2026-04-19T08:13:46Z</time></trkpt><trkpt lat="44.979165175552914" lon="11.817404625291504"><ele>1.0</ele><time>2026-04-19T08:13:47Z</time></trkpt><trkpt lat="44.979114235405056" lon="11.817621922854334"><ele>1.0</ele><time>2026-04-19T08:13:48Z</time></trkpt><trkpt lat="44.97905952761802" lon="11.817836623736335"><ele>1.0</ele><time>2026-04-19T08:13:49Z</time></trkpt><trkpt lat="44.97899042529178" lon="11.818052002326251"><ele>0.6666666666666666</ele><time>2026-04-19T08:13:50Z</time></trkpt><trkpt lat="44.97892275236867" lon="11.818265465942346"><ele>0.3333333333333333</ele><time>2026-04-19T08:13:51Z</time></trkpt><trkpt lat="44.97885277009172" lon="11.818479714302386"><ele>0.0</ele><time>2026-04-19T08:13:52Z</time></trkpt><trkpt lat="44.97876868719764" lon="11.818682464372317"><ele>0.0</ele><time>2026-04-19T08:13:53Z</time></trkpt><trkpt lat="44.97869209700564" lon="11.81889320296081"><ele>0.0</ele><time>2026-04-19T08:13:54Z</time></trkpt><trkpt lat="44.978609429165964" lon="11.81912044519587"><ele>0.0</ele><time>2026-04-19T08:13:55Z</time></trkpt><trkpt lat="44.978541039758085" lon="11.8193590628833"><ele>0.3333333333333333</ele><time>2026-04-19T08:13:56Z</time></trkpt><trkpt lat="44.978450695658886" lon="11.819579583320815"><ele>0.6666666666666666</ele><time>2026-04-19T08:13:57Z</time></trkpt><trkpt lat="44.97836557601969" lon="11.81980047741989"><ele>1.0</ele><time>2026-04-19T08:13:58Z</time></trkpt><trkpt lat="44.978285511297905" lon="11.820029838955506"><ele>1.6666666666666665</ele><time>2026-04-19T08:13:59Z</time></trkpt><trkpt lat="44.9782164684761" lon="11.820248578063266"><ele>2.3333333333333335</ele><time>2026-04-19T08:14:00Z</time></trkpt><trkpt lat="44.978151631734214" lon="11.820464428770816"><ele>3.0</ele><time>2026-04-19T08:14:01Z</time></trkpt><trkpt lat="44.97808969820567" lon="11.82068164768944"><ele>3.0</ele><time>2026-04-19T08:14:02Z</time></trkpt><trkpt lat="44.97803401391133" lon="11.820908392272692"><ele>3.0</ele><time>2026-04-19T08:14:03Z</time></trkpt><trkpt lat="44.977986536909945" lon="11.821149577663101"><ele>3.0</ele><time>2026-04-19T08:14:04Z</time></trkpt><trkpt lat="44.97794604972474" lon="11.821398519341253"><ele>3.0</ele><time>2026-04-19T08:14:05Z</time></trkpt><trkpt lat="44.97791326119013" lon="11.821646592904731"><ele>3.0</ele><time>2026-04-19T08:14:06Z</time></trkpt><trkpt lat="44.97788962265469" lon="11.821893875134666"><ele>3.0</ele><time>2026-04-19T08:14:07Z</time></trkpt><trkpt lat="44.97787517242346" lon="11.822144523719336"><ele>4.0</ele><time>2026-04-19T08:14:08Z</time></trkpt><trkpt lat="44.97787165697519" lon="11.822396922905991"><ele>5.0</ele><time>2026-04-19T08:14:09Z</time></trkpt><trkpt lat="44.97788121754212" lon="11.82264025781757"><ele>6.0</ele><time>2026-04-19T08:14:10Z</time></trkpt><trkpt lat="44.97789538552783" lon="11.82287196674819"><ele>6.0</ele><time>2026-04-19T08:14:11.001Z</time></trkpt><trkpt lat="44.9779068364083" lon="11.823101097114314"><ele>6.0</ele><time>2026-04-19T08:14:12.001Z</time></trkpt><trkpt lat="44.97791152444534" lon="11.823329578104758"><ele>6.0</ele><time>2026-04-19T08:14:13.001Z</time></trkpt><trkpt lat="44.97791121175322" lon="11.823564399680206"><ele>5.333333333333333</ele><time>2026-04-19T08:14:14.001Z</time></trkpt><trkpt lat="44.97790655874579" lon="11.82380198768292"><ele>4.666666666666666</ele><time>2026-04-19T08:14:15.001Z</time></trkpt><trkpt lat="44.97789666636961" lon="11.824039993222636"><ele>4.0</ele><time>2026-04-19T08:14:16.001Z</time></trkpt><trkpt lat="44.977881986912735" lon="11.82427684455655"><ele>3.333333333333333</ele><time>2026-04-19T08:14:17.001Z</time></trkpt><trkpt lat="44.97786653253902" lon="11.824508247220816"><ele>2.6666666666666665</ele><time>2026-04-19T08:14:18.001Z</time></trkpt><trkpt lat="44.97785154820125" lon="11.82474462607388"><ele>2.0</ele><time>2026-04-19T08:14:19.001Z</time></trkpt><trkpt lat="44.97783891937285" lon="11.824980802401052"><ele>2.0</ele><time>2026-04-19T08:14:20.001Z</time></trkpt><trkpt lat="44.97782569972454" lon="11.825216575569835"><ele>2.0</ele><time>2026-04-19T08:14:21.001Z</time></trkpt><trkpt lat="44.97780987312539" lon="11.825458359777883"><ele>2.0</ele><time>2026-04-19T08:14:22.001Z</time></trkpt><trkpt lat="44.977792414594276" lon="11.825700938027541"><ele>2.0</ele><time>2026-04-19T08:14:23.001Z</time></trkpt><trkpt lat="44.97777061027795" lon="11.825945602593164"><ele>2.0</ele><time>2026-04-19T08:14:24.001Z</time></trkpt><trkpt lat="44.97774256139327" lon="11.826190911755056"><ele>2.0</ele><time>2026-04-19T08:14:25.001Z</time></trkpt><trkpt lat="44.97771123079763" lon="11.826437119662236"><ele>2.0</ele><time>2026-04-19T08:14:26.001Z</time></trkpt><trkpt lat="44.97766877468312" lon="11.82668527090195"><ele>2.0</ele><time>2026-04-19T08:14:27.001Z</time></trkpt><trkpt lat="44.97761936396791" lon="11.826932460851149"><ele>2.0</ele><time>2026-04-19T08:14:28.001Z</time></trkpt><trkpt lat="44.97756963503127" lon="11.827182983170546"><ele>2.0</ele><time>2026-04-19T08:14:29.001Z</time></trkpt><trkpt lat="44.97751926130475" lon="11.827435549726912"><ele>2.0</ele><time>2026-04-19T08:14:30.001Z</time></trkpt><trkpt lat="44.977470709422555" lon="11.827689901098504"><ele>2.0</ele><time>2026-04-19T08:14:31.001Z</time></trkpt><trkpt lat="44.9774226966174" lon="11.827942157342935"><ele>2.6666666666666665</ele><time>2026-04-19T08:14:32.001Z</time></trkpt><trkpt lat="44.97737252890922" lon="11.828196002792676"><ele>3.333333333333333</ele><time>2026-04-19T08:14:33.001Z</time></trkpt><trkpt lat="44.977321026108164" lon="11.8284538192667"><ele>4.0</ele><time>2026-04-19T08:14:34.001Z</time></trkpt><trkpt lat="44.97726967559161" lon="11.828709841375344"><ele>4.0</ele><time>2026-04-19T08:14:35.001Z</time></trkpt><trkpt lat="44.97721532110397" lon="11.82896849733666"><ele>4.0</ele><time>2026-04-19T08:14:36.001Z</time></trkpt><trkpt lat="44.977161913755666" lon="11.82922828728257"><ele>4.0</ele><time>2026-04-19T08:14:37.001Z</time></trkpt><trkpt lat="44.97710797050272" lon="11.829487311070222"><ele>4.0</ele><time>2026-04-19T08:14:38.001Z</time></trkpt><trkpt lat="44.97705415776956" lon="11.82975015019981"><ele>4.0</ele><time>2026-04-19T08:14:39.001Z</time></trkpt><trkpt lat="44.97700098582186" lon="11.830009668466785"><ele>4.0</ele><time>2026-04-19T08:14:40.001Z</time></trkpt><trkpt lat="44.97695253741539" lon="11.830263697258639"><ele>3.333333333333333</ele><time>2026-04-19T08:14:41.001Z</time></trkpt><trkpt lat="44.97690526577941" lon="11.83051969435401"><ele>2.6666666666666665</ele><time>2026-04-19T08:14:42.001Z</time></trkpt><trkpt lat="44.97686001407132" lon="11.830772270097667"><ele>2.0</ele><time>2026-04-19T08:14:43.001Z</time></trkpt><trkpt lat="44.97681682044123" lon="11.831021307143942"><ele>2.0</ele><time>2026-04-19T08:14:44.001Z</time></trkpt><trkpt lat="44.9767719871947" lon="11.83127798777272"><ele>2.0</ele><time>2026-04-19T08:14:45.001Z</time></trkpt><trkpt lat="44.97672698351741" lon="11.831532887407716"><ele>2.0</ele><time>2026-04-19T08:14:46.001Z</time></trkpt><trkpt lat="44.976683168885735" lon="11.831781482978643"><ele>3.333333333333333</ele><time>2026-04-19T08:14:47.001Z</time></trkpt><trkpt lat="44.97663908056352" lon="11.832031924208147"><ele>4.666666666666667</ele><time>2026-04-19T08:14:48.001Z</time></trkpt><trkpt lat="44.976599277183595" lon="11.832288318754996"><ele>6.0</ele><time>2026-04-19T08:14:49.001Z</time></trkpt><trkpt lat="44.97656325454447" lon="11.83254636680299"><ele>6.333333333333334</ele><time>2026-04-19T08:14:50.001Z</time></trkpt><trkpt lat="44.976530051941666" lon="11.832810866467153"><ele>6.666666666666667</ele><time>2026-04-19T08:14:51.001Z</time></trkpt><trkpt lat="44.976499121411415" lon="11.833074863434959"><ele>7.0</ele><time>2026-04-19T08:14:52.001Z</time></trkpt><trkpt lat="44.97646871011961" lon="11.833340339740484"><ele>6.333333333333334</ele><time>2026-04-19T08:14:53.001Z</time></trkpt><trkpt lat="44.97643961338767" lon="11.833603759207556"><ele>5.666666666666667</ele><time>2026-04-19T08:14:54.001Z</time></trkpt><trkpt lat="44.976408720278314" lon="11.833863834141003"><ele>5.0</ele><time>2026-04-19T08:14:55.001Z</time></trkpt><trkpt lat="44.97637969219159" lon="11.834114906352884"><ele>4.666666666666667</ele><time>2026-04-19T08:14:56.001Z</time></trkpt><trkpt lat="44.976346562989" lon="11.834373930747162"><ele>4.333333333333333</ele><time>2026-04-19T08:14:57.001Z</time></trkpt><trkpt lat="44.976311831736005" lon="11.834630113471931"><ele>4.0</ele><time>2026-04-19T08:14:58.001Z</time></trkpt><trkpt lat="44.97626490277085" lon="11.834901900807518"><ele>4.0</ele><time>2026-04-19T08:14:59.001Z</time></trkpt><trkpt lat="44.97621805030655" lon="11.835133524310134"><ele>4.0</ele><time>2026-04-19T08:15:00.001Z</time></trkpt><trkpt lat="44.976158112962764" lon="11.835375818183055"><ele>4.0</ele><time>2026-04-19T08:15:01.001Z</time></trkpt><trkpt lat="44.97609099133894" lon="11.835616222604724"><ele>3.6666666666666665</ele><time>2026-04-19T08:15:02.001Z</time></trkpt><trkpt lat="44.97601154633764" lon="11.835847005422531"><ele>3.333333333333333</ele><time>2026-04-19T08:15:03.001Z</time></trkpt><trkpt lat="44.97592532734201" lon="11.836068225583999"><ele>3.0</ele><time>2026-04-19T08:15:04.001Z</time></trkpt><trkpt lat="44.97583025478978" lon="11.836287070713569"><ele>3.0</ele><time>2026-04-19T08:15:05.001Z</time></trkpt><trkpt lat="44.97573384821165" lon="11.836501072628069"><ele>3.0</ele><time>2026-04-19T08:15:06.001Z</time></trkpt><trkpt lat="44.97563452650063" lon="11.836721721500998"><ele>3.0</ele><time>2026-04-19T08:15:07.001Z</time></trkpt><trkpt lat="44.97554121486432" lon="11.836941363499395"><ele>2.3333333333333335</ele><time>2026-04-19T08:15:08.001Z</time></trkpt><trkpt lat="44.97545196447416" lon="11.837168753682677"><ele>1.6666666666666665</ele><time>2026-04-19T08:15:09.001Z</time></trkpt><trkpt lat="44.97537116353975" lon="11.837401029393002"><ele>1.0</ele><time>2026-04-19T08:15:10.001Z</time></trkpt><trkpt lat="44.97530379356768" lon="11.8376358425186"><ele>1.0</ele><time>2026-04-19T08:15:11.001Z</time></trkpt><trkpt lat="44.97525292071793" lon="11.837878934974679"><ele>1.0</ele><time>2026-04-19T08:15:12.001Z</time></trkpt><trkpt lat="44.975208536629815" lon="11.838120641733719"><ele>1.0</ele><time>2026-04-19T08:15:13.001Z</time></trkpt><trkpt lat="44.97517614035899" lon="11.838357359224648"><ele>1.0</ele><time>2026-04-19T08:15:14.001Z</time></trkpt><trkpt lat="44.97515690264643" lon="11.838596353964178"><ele>1.0</ele><time>2026-04-19T08:15:15.001Z</time></trkpt><trkpt lat="44.97514695326495" lon="11.83884056137529"><ele>1.0</ele><time>2026-04-19T08:15:16.001Z</time></trkpt><trkpt lat="44.97513962117023" lon="11.839088754070922"><ele>1.0</ele><time>2026-04-19T08:15:17.001Z</time></trkpt><trkpt lat="44.97513595937177" lon="11.839344859055599"><ele>1.0</ele><time>2026-04-19T08:15:18.001Z</time></trkpt><trkpt lat="44.975138808768804" lon="11.839607377629042"><ele>1.0</ele><time>2026-04-19T08:15:19.001Z</time></trkpt><trkpt lat="44.975146685955046" lon="11.839873431584543"><ele>1.3333333333333333</ele><time>2026-04-19T08:15:20.001Z</time></trkpt><trkpt lat="44.9751587196113" lon="11.840146748740061"><ele>1.6666666666666665</ele><time>2026-04-19T08:15:21.001Z</time></trkpt><trkpt lat="44.975175948193076" lon="11.840424676466059"><ele>2.0</ele><time>2026-04-19T08:15:22.001Z</time></trkpt><trkpt lat="44.975203176762804" lon="11.840708271934215"><ele>2.6666666666666665</ele><time>2026-04-19T08:15:23.001Z</time></trkpt><trkpt lat="44.975236624571714" lon="11.840991988472515"><ele>3.333333333333333</ele><time>2026-04-19T08:15:24.001Z</time></trkpt><trkpt lat="44.97527039536533" lon="11.841262703734497"><ele>4.0</ele><time>2026-04-19T08:15:25.001Z</time></trkpt><trkpt lat="44.975305580433535" lon="11.841525555212048"><ele>4.0</ele><time>2026-04-19T08:15:26.001Z</time></trkpt><trkpt lat="44.97534148329583" lon="11.841781031559796"><ele>4.0</ele><time>2026-04-19T08:15:27.001Z</time></trkpt><trkpt lat="44.975381353871505" lon="11.842033437122266"><ele>4.0</ele><time>2026-04-19T08:15:28.001Z</time></trkpt><trkpt lat="44.97542735202143" lon="11.842289714662362"><ele>4.0</ele><time>2026-04-19T08:15:29.001Z</time></trkpt><trkpt lat="44.975479340088604" lon="11.842545341607389"><ele>4.0</ele><time>2026-04-19T08:15:30.001Z</time></trkpt><trkpt lat="44.97553847386221" lon="11.842799889014891"><ele>4.0</ele><time>2026-04-19T08:15:31Z</time></trkpt><trkpt lat="44.97559861958503" lon="11.843051702855057"><ele>4.0</ele><time>2026-04-19T08:15:32Z</time></trkpt><trkpt lat="44.97565735640007" lon="11.843306346859023"><ele>4.0</ele><time>2026-04-19T08:15:33Z</time></trkpt><trkpt lat="44.975715687671055" lon="11.843554338571517"><ele>4.0</ele><time>2026-04-19T08:15:34Z</time></trkpt><trkpt lat="44.9757737680772" lon="11.843799818512332"><ele>4.666666666666666</ele><time>2026-04-19T08:15:35Z</time></trkpt><trkpt lat="44.9758312566872" lon="11.844042562042928"><ele>5.333333333333333</ele><time>2026-04-19T08:15:36Z</time></trkpt><trkpt lat="44.97589022879692" lon="11.844284465408483"><ele>6.0</ele><time>2026-04-19T08:15:37Z</time></trkpt><trkpt lat="44.97594789636292" lon="11.844525119639934"><ele>5.0</ele><time>2026-04-19T08:15:38Z</time></trkpt><trkpt lat="44.97600820343099" lon="11.844766670539094"><ele>4.0</ele><time>2026-04-19T08:15:39Z</time></trkpt><trkpt lat="44.976068409766405" lon="11.845009007263734"><ele>3.0</ele><time>2026-04-19T08:15:40Z</time></trkpt><trkpt lat="44.9761270856098" lon="11.845249669016063"><ele>3.0</ele><time>2026-04-19T08:15:41Z</time></trkpt><trkpt lat="44.97618700846082" lon="11.845504303905518"><ele>3.0</ele><time>2026-04-19T08:15:42Z</time></trkpt><trkpt lat="44.97624674151041" lon="11.845752682130685"><ele>3.0</ele><time>2026-04-19T08:15:43Z</time></trkpt><trkpt lat="44.976303923517655" lon="11.84599430931342"><ele>3.666666666666667</ele><time>2026-04-19T08:15:44Z</time></trkpt><trkpt lat="44.97635950626583" lon="11.846240961585027"><ele>4.333333333333334</ele><time>2026-04-19T08:15:45Z</time></trkpt><trkpt lat="44.976410223296355" lon="11.846486097969107"><ele>5.0</ele><time>2026-04-19T08:15:46Z</time></trkpt><trkpt lat="44.97646117400808" lon="11.84673751895789"><ele>5.0</ele><time>2026-04-19T08:15:47Z</time></trkpt><trkpt lat="44.97650915879056" lon="11.84699091032919"><ele>5.0</ele><time>2026-04-19T08:15:48Z</time></trkpt><trkpt lat="44.9765562902839" lon="11.847251579786896"><ele>5.0</ele><time>2026-04-19T08:15:49Z</time></trkpt><trkpt lat="44.97660435913716" lon="11.84751127756002"><ele>5.333333333333334</ele><time>2026-04-19T08:15:50Z</time></trkpt><trkpt lat="44.97664974776279" lon="11.847768390936983"><ele>5.666666666666667</ele><time>2026-04-19T08:15:51Z</time></trkpt><trkpt lat="44.976691666679365" lon="11.848029625350817"><ele>6.0</ele><time>2026-04-19T08:15:52Z</time></trkpt><trkpt lat="44.97673537301322" lon="11.848292834873796"><ele>4.666666666666667</ele><time>2026-04-19T08:15:53Z</time></trkpt><trkpt lat="44.97677683061228" lon="11.8485620054512"><ele>3.333333333333333</ele><time>2026-04-19T08:15:54Z</time></trkpt><trkpt lat="44.97681516253247" lon="11.848830306933287"><ele>2.0</ele><time>2026-04-19T08:15:55Z</time></trkpt><trkpt lat="44.97685279694483" lon="11.849090266336269"><ele>2.0</ele><time>2026-04-19T08:15:56Z</time></trkpt><trkpt lat="44.97688786511906" lon="11.849350119422242"><ele>2.0</ele><time>2026-04-19T08:15:57Z</time></trkpt><trkpt lat="44.97692475363846" lon="11.849615864822587"><ele>2.0</ele><time>2026-04-19T08:15:58Z</time></trkpt><trkpt lat="44.976960720624" lon="11.849881960722932"><ele>2.0</ele><time>2026-04-19T08:15:59Z</time></trkpt><trkpt lat="44.976993457894736" lon="11.850147815707109"><ele>2.0</ele><time>2026-04-19T08:16:00Z</time></trkpt><trkpt lat="44.97702547795396" lon="11.850422057634026"><ele>2.0</ele><time>2026-04-19T08:16:01Z</time></trkpt><trkpt lat="44.97705644661212" lon="11.85069351335354"><ele>2.6666666666666665</ele><time>2026-04-19T08:16:02Z</time></trkpt><trkpt lat="44.97708884282" lon="11.85096628212773"><ele>3.333333333333333</ele><time>2026-04-19T08:16:03Z</time></trkpt><trkpt lat="44.97712162526909" lon="11.851238781986867"><ele>4.0</ele><time>2026-04-19T08:16:04Z</time></trkpt><trkpt lat="44.97715605241932" lon="11.85151727022646"><ele>3.6666666666666665</ele><time>2026-04-19T08:16:05Z</time></trkpt><trkpt lat="44.977190554546105" lon="11.851797565431562"><ele>3.333333333333333</ele><time>2026-04-19T08:16:06Z</time></trkpt><trkpt lat="44.97722444817496" lon="11.852080899590627"><ele>3.0</ele><time>2026-04-19T08:16:07Z</time></trkpt><trkpt lat="44.97725428321078" lon="11.852371697735718"><ele>3.333333333333333</ele><time>2026-04-19T08:16:08Z</time></trkpt><trkpt lat="44.97728083924683" lon="11.852666175482657"><ele>3.6666666666666665</ele><time>2026-04-19T08:16:09Z</time></trkpt><trkpt lat="44.97730423086226" lon="11.852957174351177"><ele>4.0</ele><time>2026-04-19T08:16:10Z</time></trkpt><trkpt lat="44.977323062715215" lon="11.85324445082522"><ele>4.666666666666666</ele><time>2026-04-19T08:16:11.001Z</time></trkpt><trkpt lat="44.977335081839136" lon="11.853525812804214"><ele>5.333333333333333</ele><time>2026-04-19T08:16:12.001Z</time></trkpt><trkpt lat="44.97734115293147" lon="11.853809505827169"><ele>6.0</ele><time>2026-04-19T08:16:13.001Z</time></trkpt><trkpt lat="44.97734096505856" lon="11.85409849123838"><ele>6.0</ele><time>2026-04-19T08:16:14.001Z</time></trkpt><trkpt lat="44.97733508619598" lon="11.854393959902636"><ele>6.0</ele><time>2026-04-19T08:16:15.001Z</time></trkpt><trkpt lat="44.97732333341985" lon="11.854691120015342"><ele>6.0</ele><time>2026-04-19T08:16:16.001Z</time></trkpt><trkpt lat="44.97730832017525" lon="11.854990310935685"><ele>5.333333333333333</ele><time>2026-04-19T08:16:17.001Z</time></trkpt><trkpt lat="44.9772919748294" lon="11.85529360816461"><ele>4.666666666666666</ele><time>2026-04-19T08:16:18.001Z</time></trkpt><trkpt lat="44.97727677341208" lon="11.855593490141315"><ele>4.0</ele><time>2026-04-19T08:16:19.001Z</time></trkpt><trkpt lat="44.97726135387206" lon="11.855883486635898"><ele>4.333333333333333</ele><time>2026-04-19T08:16:20.001Z</time></trkpt><trkpt lat="44.97724735564957" lon="11.856165062270634"><ele>4.666666666666667</ele><time>2026-04-19T08:16:21.001Z</time></trkpt><trkpt lat="44.977232202123616" lon="11.856450309653793"><ele>5.0</ele><time>2026-04-19T08:16:22.001Z</time></trkpt><trkpt lat="44.977217530106984" lon="11.856736089253182"><ele>4.333333333333334</ele><time>2026-04-19T08:16:23.001Z</time></trkpt><trkpt lat="44.97720415881942" lon="11.857023092804381"><ele>3.666666666666667</ele><time>2026-04-19T08:16:24.001Z</time></trkpt><trkpt lat="44.977191795002746" lon="11.85731252498433"><ele>3.0</ele><time>2026-04-19T08:16:25.001Z</time></trkpt><trkpt lat="44.97717709886594" lon="11.857599455785587"><ele>3.0</ele><time>2026-04-19T08:16:26.001Z</time></trkpt><trkpt lat="44.97715840657318" lon="11.857878485739546"><ele>3.0</ele><time>2026-04-19T08:16:27.001Z</time></trkpt><trkpt lat="44.977131073964905" lon="11.858157490601055"><ele>3.0</ele><time>2026-04-19T08:16:28.001Z</time></trkpt><trkpt lat="44.97709129173168" lon="11.85843230732964"><ele>3.666666666666667</ele><time>2026-04-19T08:16:29.001Z</time></trkpt><trkpt lat="44.97704694909195" lon="11.858700497173908"><ele>4.333333333333334</ele><time>2026-04-19T08:16:30.001Z</time></trkpt><trkpt lat="44.9770019083609" lon="11.858963869494735"><ele>5.0</ele><time>2026-04-19T08:16:31.001Z</time></trkpt><trkpt lat="44.97696116319183" lon="11.859213534596508"><ele>4.666666666666667</ele><time>2026-04-19T08:16:32.001Z</time></trkpt><trkpt lat="44.97693171276578" lon="11.85946008715194"><ele>4.333333333333333</ele><time>2026-04-19T08:16:33.001Z</time></trkpt><trkpt lat="44.97691413138532" lon="11.859716152154025"><ele>4.0</ele><time>2026-04-19T08:16:34.001Z</time></trkpt><trkpt lat="44.97690584306114" lon="11.859974316917722"><ele>3.6666666666666665</ele><time>2026-04-19T08:16:35.001Z</time></trkpt><trkpt lat="44.97690127216066" lon="11.860240653921345"><ele>3.333333333333333</ele><time>2026-04-19T08:16:36.001Z</time></trkpt><trkpt lat="44.97689676229168" lon="11.860508485658128"><ele>3.0</ele><time>2026-04-19T08:16:37.001Z</time></trkpt><trkpt lat="44.97689252732382" lon="11.860784466702395"><ele>3.333333333333333</ele><time>2026-04-19T08:16:38.001Z</time></trkpt><trkpt lat="44.97688994806323" lon="11.861059202575154"><ele>3.6666666666666665</ele><time>2026-04-19T08:16:39.001Z</time></trkpt><trkpt lat="44.976888965750476" lon="11.861333922292713"><ele>4.0</ele><time>2026-04-19T08:16:40.001Z</time></trkpt><trkpt lat="44.97688606127425" lon="11.861610284007982"><ele>4.0</ele><time>2026-04-19T08:16:41.001Z</time></trkpt><trkpt lat="44.976883385164136" lon="11.861889941277225"><ele>4.0</ele><time>2026-04-19T08:16:42.001Z</time></trkpt><trkpt lat="44.976881815209026" lon="11.862169543502056"><ele>4.0</ele><time>2026-04-19T08:16:43.001Z</time></trkpt><trkpt lat="44.97687970576201" lon="11.86245995153524"><ele>4.0</ele><time>2026-04-19T08:16:44.001Z</time></trkpt><trkpt lat="44.97687617899266" lon="11.862757558727877"><ele>4.0</ele><time>2026-04-19T08:16:45.001Z</time></trkpt><trkpt lat="44.97687238656046" lon="11.86305239518936"><ele>4.0</ele><time>2026-04-19T08:16:46.001Z</time></trkpt><trkpt lat="44.97686803217743" lon="11.863345941534638"><ele>4.0</ele><time>2026-04-19T08:16:47.001Z</time></trkpt><trkpt lat="44.976864800727526" lon="11.86364011548853"><ele>4.0</ele><time>2026-04-19T08:16:48.001Z</time></trkpt><trkpt lat="44.9768617426844" lon="11.863931893908516"><ele>4.0</ele><time>2026-04-19T08:16:49.001Z</time></trkpt><trkpt lat="44.97685921189179" lon="11.864224487983286"><ele>4.0</ele><time>2026-04-19T08:16:50.001Z</time></trkpt><trkpt lat="44.97685735819972" lon="11.864518104806093"><ele>4.0</ele><time>2026-04-19T08:16:51.001Z</time></trkpt><trkpt lat="44.976856174121615" lon="11.864806455515449"><ele>4.0</ele><time>2026-04-19T08:16:52.001Z</time></trkpt><trkpt lat="44.97685658472239" lon="11.865099909960207"><ele>4.333333333333333</ele><time>2026-04-19T08:16:53.001Z</time></trkpt><trkpt lat="44.97685896159225" lon="11.865387476098764"><ele>4.666666666666667</ele><time>2026-04-19T08:16:54.001Z</time></trkpt><trkpt lat="44.976862894591555" lon="11.865677866306893"><ele>5.0</ele><time>2026-04-19T08:16:55.001Z</time></trkpt><trkpt lat="44.976867336817364" lon="11.865962372288443"><ele>4.333333333333334</ele><time>2026-04-19T08:16:56.001Z</time></trkpt><trkpt lat="44.97687048805167" lon="11.866249812201811"><ele>3.666666666666667</ele><time>2026-04-19T08:16:57.001Z</time></trkpt><trkpt lat="44.976875554826684" lon="11.866535562381916"><ele>3.0</ele><time>2026-04-19T08:16:58.001Z</time></trkpt><trkpt lat="44.97688650094911" lon="11.866816133953701"><ele>3.0</ele><time>2026-04-19T08:16:59.001Z</time></trkpt><trkpt lat="44.97690478702631" lon="11.867087897737953"><ele>3.0</ele><time>2026-04-19T08:17:00.001Z</time></trkpt><trkpt lat="44.976930221173525" lon="11.867356057610316"><ele>3.0</ele><time>2026-04-19T08:17:01.001Z</time></trkpt><trkpt lat="44.976957626560726" lon="11.867626200083436"><ele>3.333333333333333</ele><time>2026-04-19T08:17:02.001Z</time></trkpt><trkpt lat="44.97697727084761" lon="11.867893361791838"><ele>3.6666666666666665</ele><time>2026-04-19T08:17:03.001Z</time></trkpt><trkpt lat="44.976983494539745" lon="11.868168348321898"><ele>4.0</ele><time>2026-04-19T08:17:04.001Z</time></trkpt><trkpt lat="44.97697452734456" lon="11.868442655793158"><ele>3.0</ele><time>2026-04-19T08:17:05.001Z</time></trkpt><trkpt lat="44.97695045229453" lon="11.868713835013045"><ele>2.0</ele><time>2026-04-19T08:17:06.001Z</time></trkpt><trkpt lat="44.97692364616408" lon="11.8689782842082"><ele>1.0</ele><time>2026-04-19T08:17:07.001Z</time></trkpt><trkpt lat="44.97689821386471" lon="11.869231677875842"><ele>1.0</ele><time>2026-04-19T08:17:08.001Z</time></trkpt><trkpt lat="44.97687239135229" lon="11.869482991109203"><ele>1.0</ele><time>2026-04-19T08:17:09.001Z</time></trkpt><trkpt lat="44.97684663708066" lon="11.869722285570067"><ele>1.0</ele><time>2026-04-19T08:17:10.001Z</time></trkpt><trkpt lat="44.97682300485203" lon="11.869948192341635"><ele>1.6666666666666665</ele><time>2026-04-19T08:17:11.001Z</time></trkpt><trkpt lat="44.97680046352872" lon="11.870167733949273"><ele>2.3333333333333335</ele><time>2026-04-19T08:17:12.001Z</time></trkpt><trkpt lat="44.976779647119656" lon="11.870384985504215"><ele>3.0</ele><time>2026-04-19T08:17:13.001Z</time></trkpt><trkpt lat="44.97675587012361" lon="11.870604654911851"><ele>3.0</ele><time>2026-04-19T08:17:14.001Z</time></trkpt><trkpt lat="44.97673350955635" lon="11.870822783855708"><ele>3.0</ele><time>2026-04-19T08:17:15.001Z</time></trkpt><trkpt lat="44.97671103012018" lon="11.87103695915325"><ele>3.0</ele><time>2026-04-19T08:17:16.001Z</time></trkpt><trkpt lat="44.97668855032872" lon="11.871248575993043"><ele>3.0</ele><time>2026-04-19T08:17:17.001Z</time></trkpt><trkpt lat="44.97666624297267" lon="11.871467404411792"><ele>3.0</ele><time>2026-04-19T08:17:18.001Z</time></trkpt><trkpt lat="44.97664586467561" lon="11.871688037727518"><ele>3.0</ele><time>2026-04-19T08:17:19.001Z</time></trkpt><trkpt lat="44.9766260199411" lon="11.871902774084493"><ele>3.0</ele><time>2026-04-19T08:17:20.001Z</time></trkpt><trkpt lat="44.97660923401323" lon="11.87211622855139"><ele>3.0</ele><time>2026-04-19T08:17:21.001Z</time></trkpt><trkpt lat="44.97659203657337" lon="11.872332312761731"><ele>3.0</ele><time>2026-04-19T08:17:22.001Z</time></trkpt><trkpt lat="44.9765709530622" lon="11.872552752311124"><ele>3.666666666666667</ele><time>2026-04-19T08:17:23.001Z</time></trkpt><trkpt lat="44.97655089476682" lon="11.872773826702362"><ele>4.333333333333334</ele><time>2026-04-19T08:17:24.001Z</time></trkpt><trkpt lat="44.97653229753575" lon="11.872999322096502"><ele>5.0</ele><time>2026-04-19T08:17:25.001Z</time></trkpt><trkpt lat="44.97651419870761" lon="11.873226339352414"><ele>4.666666666666667</ele><time>2026-04-19T08:17:26.001Z</time></trkpt><trkpt lat="44.97649489767142" lon="11.87345659464965"><ele>4.333333333333333</ele><time>2026-04-19T08:17:27.001Z</time></trkpt><trkpt lat="44.976479462871374" lon="11.873684432579566"><ele>4.0</ele><time>2026-04-19T08:17:28.001Z</time></trkpt><trkpt lat="44.976468332048206" lon="11.87390982112556"><ele>4.0</ele><time>2026-04-19T08:17:29.001Z</time></trkpt><trkpt lat="44.976460572499306" lon="11.87412887424696"><ele>4.0</ele><time>2026-04-19T08:17:30.001Z</time></trkpt><trkpt lat="44.97645417038298" lon="11.874355614368184"><ele>4.0</ele><time>2026-04-19T08:17:31.001Z</time></trkpt><trkpt lat="44.97644907975513" lon="11.874587960208062"><ele>3.6666666666666665</ele><time>2026-04-19T08:17:32.001Z</time></trkpt><trkpt lat="44.976446272796146" lon="11.874829281566761"><ele>3.333333333333333</ele><time>2026-04-19T08:17:33.001Z</time></trkpt><trkpt lat="44.97644285555299" lon="11.875074163647797"><ele>3.0</ele><time>2026-04-19T08:17:34.001Z</time></trkpt><trkpt lat="44.976439867494435" lon="11.875322597068822"><ele>3.0</ele><time>2026-04-19T08:17:35.001Z</time></trkpt><trkpt lat="44.97643843071938" lon="11.875578470067305"><ele>3.0</ele><time>2026-04-19T08:17:36.001Z</time></trkpt><trkpt lat="44.97643780734966" lon="11.875802912715407"><ele>3.0</ele><time>2026-04-19T08:17:37Z</time></trkpt><trkpt lat="44.976435552900746" lon="11.876022303351164"><ele>2.6666666666666665</ele><time>2026-04-19T08:17:38Z</time></trkpt><trkpt lat="44.97643442008499" lon="11.876237647058845"><ele>2.333333333333333</ele><time>2026-04-19T08:17:39Z</time></trkpt><trkpt lat="44.97643093739832" lon="11.876472575927073"><ele>2.0</ele><time>2026-04-19T08:17:40Z</time></trkpt><trkpt lat="44.97642901929593" lon="11.87672263929596"><ele>2.0</ele><time>2026-04-19T08:17:41Z</time></trkpt><trkpt lat="44.97643003989136" lon="11.876978695299348"><ele>2.0</ele><time>2026-04-19T08:17:42Z</time></trkpt><trkpt lat="44.97644773534" lon="11.877122652744893"><ele>2.0</ele><time>2026-04-19T08:17:43Z</time></trkpt><trkpt lat="44.97646879004944" lon="11.877357815116904"><ele>2.0</ele><time>2026-04-19T08:17:44Z</time></trkpt><trkpt lat="44.976508117854856" lon="11.87759266795269"><ele>2.0</ele><time>2026-04-19T08:17:45Z</time></trkpt><trkpt lat="44.97655178076557" lon="11.877828502124508"><ele>2.0</ele><time>2026-04-19T08:17:46Z</time></trkpt><trkpt lat="44.976595388125794" lon="11.878068529534358"><ele>2.0</ele><time>2026-04-19T08:17:47Z</time></trkpt><trkpt lat="44.97664819605575" lon="11.878307762095634"><ele>2.0</ele><time>2026-04-19T08:17:48Z</time></trkpt><trkpt lat="44.976701083651044" lon="11.878539731480874"><ele>2.0</ele><time>2026-04-19T08:17:49Z</time></trkpt><trkpt lat="44.976752659219564" lon="11.878767256508672"><ele>2.0</ele><time>2026-04-19T08:17:50Z</time></trkpt><trkpt lat="44.976805110994654" lon="11.878996107859122"><ele>2.0</ele><time>2026-04-19T08:17:51Z</time></trkpt><trkpt lat="44.976861003742336" lon="11.879226475282582"><ele>2.0</ele><time>2026-04-19T08:17:52Z</time></trkpt><trkpt lat="44.9769219892294" lon="11.879455014142469"><ele>2.0</ele><time>2026-04-19T08:17:53Z</time></trkpt><trkpt lat="44.9769837617759" lon="11.879675987337354"><ele>2.0</ele><time>2026-04-19T08:17:54Z</time></trkpt><trkpt lat="44.97704772046859" lon="11.879887788699925"><ele>2.0</ele><time>2026-04-19T08:17:55Z</time></trkpt><trkpt lat="44.977113205603764" lon="11.880095865272597"><ele>2.0</ele><time>2026-04-19T08:17:56Z</time></trkpt><trkpt lat="44.97717884599004" lon="11.880304949308469"><ele>2.0</ele><time>2026-04-19T08:17:57Z</time></trkpt><trkpt lat="44.97725811116746" lon="11.880507064598536"><ele>2.0</ele><time>2026-04-19T08:17:58Z</time></trkpt><trkpt lat="44.977341751680356" lon="11.88070283717328"><ele>2.0</ele><time>2026-04-19T08:17:59Z</time></trkpt><trkpt lat="44.977423574552525" lon="11.880884949097101"><ele>2.0</ele><time>2026-04-19T08:18:00Z</time></trkpt><trkpt lat="44.97751151390204" lon="11.881066806113674"><ele>2.0</ele><time>2026-04-19T08:18:01Z</time></trkpt><trkpt lat="44.97760551744655" lon="11.88124693762642"><ele>2.333333333333333</ele><time>2026-04-19T08:18:02Z</time></trkpt><trkpt lat="44.97770527362796" lon="11.88142440492317"><ele>2.6666666666666665</ele><time>2026-04-19T08:18:03Z</time></trkpt><trkpt lat="44.97780801654759" lon="11.881597758130289"><ele>3.0</ele><time>2026-04-19T08:18:04Z</time></trkpt><trkpt lat="44.97792264567315" lon="11.881759844962957"><ele>3.0</ele><time>2026-04-19T08:18:05Z</time></trkpt><trkpt lat="44.978028706834095" lon="11.88193028096197"><ele>3.0</ele><time>2026-04-19T08:18:06Z</time></trkpt><trkpt lat="44.97813780930093" lon="11.88209634344091"><ele>3.0</ele><time>2026-04-19T08:18:07Z</time></trkpt><trkpt lat="44.97825479382568" lon="11.882259606871834"><ele>3.25</ele><time>2026-04-19T08:18:08Z</time></trkpt><trkpt lat="44.97836847558359" lon="11.88241405756089"><ele>3.5</ele><time>2026-04-19T08:18:09Z</time></trkpt><trkpt lat="44.97847707727952" lon="11.882553326933046"><ele>3.75</ele><time>2026-04-19T08:18:10Z</time></trkpt><trkpt lat="44.97858161044644" lon="11.882682831664967"><ele>4.0</ele><time>2026-04-19T08:18:11Z</time></trkpt><trkpt lat="44.97868586714662" lon="11.882807974174497"><ele>4.25</ele><time>2026-04-19T08:18:12Z</time></trkpt><trkpt lat="44.97879246718142" lon="11.882934526132871"><ele>4.5</ele><time>2026-04-19T08:18:13Z</time></trkpt><trkpt lat="44.978900792894066" lon="11.883064021758388"><ele>4.75</ele><time>2026-04-19T08:18:14Z</time></trkpt><trkpt lat="44.97900683732387" lon="11.883203505668844"><ele>5.0</ele><time>2026-04-19T08:18:15.001Z</time></trkpt><trkpt lat="44.97910971719092" lon="11.883353576520609"><ele>5.25</ele><time>2026-04-19T08:18:16.001Z</time></trkpt><trkpt lat="44.97920437830007" lon="11.883511159837811"><ele>5.5</ele><time>2026-04-19T08:18:17.001Z</time></trkpt><trkpt lat="44.97928360891055" lon="11.883673488433484"><ele>5.75</ele><time>2026-04-19T08:18:18.001Z</time></trkpt><trkpt lat="44.97935757228049" lon="11.883844314878987"><ele>6.0</ele><time>2026-04-19T08:18:19.001Z</time></trkpt><trkpt lat="44.97941898168027" lon="11.88402840292431"><ele>6.0</ele><time>2026-04-19T08:18:20.001Z</time></trkpt><trkpt lat="44.97947596192436" lon="11.884222797626872"><ele>6.0</ele><time>2026-04-19T08:18:21.001Z</time></trkpt><trkpt lat="44.97952472634416" lon="11.88442540460625"><ele>6.0</ele><time>2026-04-19T08:18:22.001Z</time></trkpt><trkpt lat="44.97956481174432" lon="11.88463520362687"><ele>5.5</ele><time>2026-04-19T08:18:23.001Z</time></trkpt><trkpt lat="44.97959564812374" lon="11.88483993413911"><ele>5.0</ele><time>2026-04-19T08:18:24.001Z</time></trkpt><trkpt lat="44.97962180679829" lon="11.885041684204943"><ele>4.5</ele><time>2026-04-19T08:18:25.001Z</time></trkpt><trkpt lat="44.97964975181202" lon="11.885244909286323"><ele>4.0</ele><time>2026-04-19T08:18:26.001Z</time></trkpt><trkpt lat="44.97967968997528" lon="11.885451129623291"><ele>4.0</ele><time>2026-04-19T08:18:27.001Z</time></trkpt><trkpt lat="44.979709765297805" lon="11.885639917984172"><ele>4.0</ele><time>2026-04-19T08:18:28.001Z</time></trkpt><trkpt lat="44.97973432941931" lon="11.885816839127147"><ele>4.0</ele><time>2026-04-19T08:18:29.001Z</time></trkpt><trkpt lat="44.979759474200854" lon="11.886000281518605"><ele>4.0</ele><time>2026-04-19T08:18:30.001Z</time></trkpt><trkpt lat="44.97978572952961" lon="11.886187697752938"><ele>4.25</ele><time>2026-04-19T08:18:31.001Z</time></trkpt><trkpt lat="44.97981294715838" lon="11.886376367997913"><ele>4.5</ele><time>2026-04-19T08:18:32.001Z</time></trkpt><trkpt lat="44.97983700803195" lon="11.886559929461159"><ele>4.75</ele><time>2026-04-19T08:18:33.001Z</time></trkpt><trkpt lat="44.97986221526616" lon="11.886745407755313"><ele>5.0</ele><time>2026-04-19T08:18:34.001Z</time></trkpt><trkpt lat="44.979886343737725" lon="11.886934510584158"><ele>5.0</ele><time>2026-04-19T08:18:35.001Z</time></trkpt><trkpt lat="44.97990262402706" lon="11.887126934264263"><ele>5.0</ele><time>2026-04-19T08:18:36.001Z</time></trkpt><trkpt lat="44.97991136038853" lon="11.887324328419744"><ele>5.0</ele><time>2026-04-19T08:18:37.001Z</time></trkpt><trkpt lat="44.979915099790134" lon="11.887528013344083"><ele>5.0</ele><time>2026-04-19T08:18:38.001Z</time></trkpt><trkpt lat="44.97991641534277" lon="11.8877296558658"><ele>5.0</ele><time>2026-04-19T08:18:39.001Z</time></trkpt><trkpt lat="44.979913179681084" lon="11.887926173281965"><ele>5.0</ele><time>2026-04-19T08:18:40.001Z</time></trkpt><trkpt lat="44.97990975966408" lon="11.888121646711545"><ele>5.0</ele><time>2026-04-19T08:18:41.001Z</time></trkpt><trkpt lat="44.979906999866614" lon="11.888323059740513"><ele>5.0</ele><time>2026-04-19T08:18:42.001Z</time></trkpt><trkpt lat="44.979909305379195" lon="11.888533732586174"><ele>5.333333333333334</ele><time>2026-04-19T08:18:43.001Z</time></trkpt><trkpt lat="44.97991571169678" lon="11.888752700200437"><ele>5.666666666666667</ele><time>2026-04-19T08:18:44.001Z</time></trkpt><trkpt lat="44.979923911870024" lon="11.888975997300832"><ele>6.0</ele><time>2026-04-19T08:18:45.001Z</time></trkpt><trkpt lat="44.979933585337974" lon="11.88919800288668"><ele>5.333333333333333</ele><time>2026-04-19T08:18:46.001Z</time></trkpt><trkpt lat="44.97994142353706" lon="11.889431086537652"><ele>4.666666666666666</ele><time>2026-04-19T08:18:47.001Z</time></trkpt><trkpt lat="44.97994893918817" lon="11.889656334832132"><ele>4.0</ele><time>2026-04-19T08:18:48.001Z</time></trkpt><trkpt lat="44.97995737489833" lon="11.889888297378667"><ele>3.333333333333333</ele><time>2026-04-19T08:18:49.001Z</time></trkpt><trkpt lat="44.979965166137156" lon="11.890118893563052"><ele>2.6666666666666665</ele><time>2026-04-19T08:18:50.001Z</time></trkpt><trkpt lat="44.9799737954822" lon="11.890340966779"><ele>2.0</ele><time>2026-04-19T08:18:51.001Z</time></trkpt><trkpt lat="44.97998384433593" lon="11.890562944031846"><ele>2.0</ele><time>2026-04-19T08:18:52.001Z</time></trkpt><trkpt lat="44.979992527811675" lon="11.89078664966341"><ele>2.0</ele><time>2026-04-19T08:18:53.001Z</time></trkpt><trkpt lat="44.98000025067263" lon="11.891014557756153"><ele>2.0</ele><time>2026-04-19T08:18:54.001Z</time></trkpt><trkpt lat="44.980009879119834" lon="11.891248341895272"><ele>1.6666666666666665</ele><time>2026-04-19T08:18:55.001Z</time></trkpt><trkpt lat="44.98001767563093" lon="11.891482142572931"><ele>1.3333333333333333</ele><time>2026-04-19T08:18:56.001Z</time></trkpt><trkpt lat="44.98002929398379" lon="11.891706255226286"><ele>1.0</ele><time>2026-04-19T08:18:57.001Z</time></trkpt><trkpt lat="44.98004049386561" lon="11.891935147205189"><ele>1.6666666666666665</ele><time>2026-04-19T08:18:58.001Z</time></trkpt><trkpt lat="44.9800536613061" lon="11.892164821318763"><ele>2.3333333333333335</ele><time>2026-04-19T08:18:59.001Z</time></trkpt><trkpt lat="44.98007495288108" lon="11.892403282061432"><ele>3.0</ele><time>2026-04-19T08:19:00.001Z</time></trkpt><trkpt lat="44.98010446309945" lon="11.892655030217187"><ele>3.0</ele><time>2026-04-19T08:19:01.001Z</time></trkpt><trkpt lat="44.98011616265498" lon="11.892913985647514"><ele>3.0</ele><time>2026-04-19T08:19:02.001Z</time></trkpt><trkpt lat="44.98014402211964" lon="11.893179425878069"><ele>3.0</ele><time>2026-04-19T08:19:03.001Z</time></trkpt><trkpt lat="44.98017227032804" lon="11.893446126602237"><ele>3.0</ele><time>2026-04-19T08:19:04.001Z</time></trkpt><trkpt lat="44.980200453609484" lon="11.89371221445526"><ele>3.0</ele><time>2026-04-19T08:19:05.001Z</time></trkpt><trkpt lat="44.98022789015885" lon="11.893978074127675"><ele>3.0</ele><time>2026-04-19T08:19:06.001Z</time></trkpt><trkpt lat="44.98025492804639" lon="11.894244976215186"><ele>3.333333333333333</ele><time>2026-04-19T08:19:07.001Z</time></trkpt><trkpt lat="44.980295750070255" lon="11.894510680490422"><ele>3.6666666666666665</ele><time>2026-04-19T08:19:08.001Z</time></trkpt><trkpt lat="44.98031949193216" lon="11.89477951439721"><ele>4.0</ele><time>2026-04-19T08:19:09.001Z</time></trkpt><trkpt lat="44.98034933306142" lon="11.895050996676426"><ele>4.0</ele><time>2026-04-19T08:19:10.001Z</time></trkpt><trkpt lat="44.980380643790724" lon="11.89532790965895"><ele>4.0</ele><time>2026-04-19T08:19:11.001Z</time></trkpt><trkpt lat="44.98041302006522" lon="11.895598907449484"><ele>4.0</ele><time>2026-04-19T08:19:12.001Z</time></trkpt><trkpt lat="44.98044184717127" lon="11.895859760544518"><ele>4.0</ele><time>2026-04-19T08:19:13.001Z</time></trkpt><trkpt lat="44.980471747958646" lon="11.896119067222717"><ele>4.0</ele><time>2026-04-19T08:19:14.001Z</time></trkpt><trkpt lat="44.980496965740834" lon="11.896373864129343"><ele>4.0</ele><time>2026-04-19T08:19:15.001Z</time></trkpt><trkpt lat="44.98051467460168" lon="11.896626898141184"><ele>4.0</ele><time>2026-04-19T08:19:16.001Z</time></trkpt><trkpt lat="44.98051645515634" lon="11.896889554520802"><ele>4.0</ele><time>2026-04-19T08:19:17.001Z</time></trkpt><trkpt lat="44.98050855763588" lon="11.897143471403664"><ele>4.0</ele><time>2026-04-19T08:19:18.001Z</time></trkpt><trkpt lat="44.980486719493726" lon="11.897386891354873"><ele>4.333333333333333</ele><time>2026-04-19T08:19:19.001Z</time></trkpt><trkpt lat="44.98045377404744" lon="11.897626949805028"><ele>4.666666666666667</ele><time>2026-04-19T08:19:20.001Z</time></trkpt><trkpt lat="44.98041120348304" lon="11.89787073825905"><ele>5.0</ele><time>2026-04-19T08:19:21.001Z</time></trkpt><trkpt lat="44.98036260028913" lon="11.898112923078278"><ele>5.0</ele><time>2026-04-19T08:19:22.001Z</time></trkpt><trkpt lat="44.980317734641744" lon="11.898349225087935"><ele>5.0</ele><time>2026-04-19T08:19:23.001Z</time></trkpt><trkpt lat="44.980268278384486" lon="11.898592705605195"><ele>5.0</ele><time>2026-04-19T08:19:24.001Z</time></trkpt><trkpt lat="44.98022093123828" lon="11.898827879418329"><ele>4.666666666666667</ele><time>2026-04-19T08:19:25.001Z</time></trkpt><trkpt lat="44.98017551902791" lon="11.899058686153484"><ele>4.333333333333333</ele><time>2026-04-19T08:19:26.001Z</time></trkpt><trkpt lat="44.98013045644564" lon="11.899288114128481"><ele>4.0</ele><time>2026-04-19T08:19:27.001Z</time></trkpt><trkpt lat="44.98008547156125" lon="11.899511689806069"><ele>3.6666666666666665</ele><time>2026-04-19T08:19:28.001Z</time></trkpt><trkpt lat="44.98003933417104" lon="11.899745375200919"><ele>3.333333333333333</ele><time>2026-04-19T08:19:29.001Z</time></trkpt><trkpt lat="44.97999146897349" lon="11.899983674768409"><ele>3.0</ele><time>2026-04-19T08:19:30.001Z</time></trkpt><trkpt lat="44.97994510890213" lon="11.90022168346116"><ele>3.0</ele><time>2026-04-19T08:19:31.001Z</time></trkpt><trkpt lat="44.979896426546695" lon="11.900468581541482"><ele>3.0</ele><time>2026-04-19T08:19:32.001Z</time></trkpt><trkpt lat="44.97984885374938" lon="11.900711058573691"><ele>3.0</ele><time>2026-04-19T08:19:33.001Z</time></trkpt><trkpt lat="44.979799444419" lon="11.900959444976012"><ele>3.0</ele><time>2026-04-19T08:19:34.001Z</time></trkpt><trkpt lat="44.97975042885924" lon="11.901204213138342"><ele>3.0</ele><time>2026-04-19T08:19:35.001Z</time></trkpt><trkpt lat="44.97969938656772" lon="11.901458244084786"><ele>3.0</ele><time>2026-04-19T08:19:36.001Z</time></trkpt><trkpt lat="44.97965047003462" lon="11.90170988407462"><ele>2.0</ele><time>2026-04-19T08:19:37.001Z</time></trkpt><trkpt lat="44.97959953226453" lon="11.90196861260216"><ele>1.0</ele><time>2026-04-19T08:19:38.001Z</time></trkpt><trkpt lat="44.97954728939385" lon="11.902231192443168"><ele>0.0</ele><time>2026-04-19T08:19:39.001Z</time></trkpt><trkpt lat="44.97949283889455" lon="11.902504443874491"><ele>-0.3333333333333333</ele><time>2026-04-19T08:19:40.001Z</time></trkpt><trkpt lat="44.97943729297056" lon="11.902779797225316"><ele>-0.6666666666666666</ele><time>2026-04-19T08:19:41.001Z</time></trkpt><trkpt lat="44.97938212630532" lon="11.903055683031388"><ele>-1.0</ele><time>2026-04-19T08:19:42.001Z</time></trkpt><trkpt lat="44.97932733744158" lon="11.903327125434982"><ele>-1.3333333333333333</ele><time>2026-04-19T08:19:43Z</time></trkpt><trkpt lat="44.97927506673867" lon="11.903594573655523"><ele>-1.6666666666666665</ele><time>2026-04-19T08:19:44Z</time></trkpt><trkpt lat="44.97921853981661" lon="11.903878936815456"><ele>-2.0</ele><time>2026-04-19T08:19:45Z</time></trkpt><trkpt lat="44.97916432197531" lon="11.904152927453245"><ele>-1.6666666666666665</ele><time>2026-04-19T08:19:46Z</time></trkpt><trkpt lat="44.9791092952623" lon="11.904434255974287"><ele>-1.3333333333333333</ele><time>2026-04-19T08:19:47Z</time></trkpt><trkpt lat="44.979054309874755" lon="11.904713687013937"><ele>-1.0</ele><time>2026-04-19T08:19:48Z</time></trkpt><trkpt lat="44.9790014895577" lon="11.904985979277319"><ele>0.0</ele><time>2026-04-19T08:19:49Z</time></trkpt><trkpt lat="44.97894807804059" lon="11.9052543441527"><ele>1.0</ele><time>2026-04-19T08:19:50Z</time></trkpt><trkpt lat="44.97889445681394" lon="11.905524399827184"><ele>2.0</ele><time>2026-04-19T08:19:51Z</time></trkpt><trkpt lat="44.97884206556536" lon="11.905797056035723"><ele>1.6666666666666665</ele><time>2026-04-19T08:19:52Z</time></trkpt><trkpt lat="44.97879014356892" lon="11.906057202532088"><ele>1.3333333333333333</ele><time>2026-04-19T08:19:53Z</time></trkpt><trkpt lat="44.978739644392626" lon="11.906316154191092"><ele>1.0</ele><time>2026-04-19T08:19:54Z</time></trkpt><trkpt lat="44.97869054634397" lon="11.906572213261832"><ele>0.6666666666666666</ele><time>2026-04-19T08:19:55Z</time></trkpt><trkpt lat="44.97863569065218" lon="11.906842824139419"><ele>0.3333333333333333</ele><time>2026-04-19T08:19:56Z</time></trkpt><trkpt lat="44.97858167803309" lon="11.907107539453229"><ele>0.0</ele><time>2026-04-19T08:19:57Z</time></trkpt><trkpt lat="44.978526962722874" lon="11.907378001023465"><ele>-0.6666666666666666</ele><time>2026-04-19T08:19:58Z</time></trkpt><trkpt lat="44.9784737713219" lon="11.907652568456886"><ele>-1.3333333333333333</ele><time>2026-04-19T08:19:59Z</time></trkpt><trkpt lat="44.97842078369961" lon="11.9079237611244"><ele>-2.0</ele><time>2026-04-19T08:20:00Z</time></trkpt><trkpt lat="44.978367011349214" lon="11.908192687665533"><ele>-1.6666666666666665</ele><time>2026-04-19T08:20:01Z</time></trkpt><trkpt lat="44.978309679612536" lon="11.908475904118545"><ele>-1.3333333333333333</ele><time>2026-04-19T08:20:02Z</time></trkpt><trkpt lat="44.97825123915503" lon="11.908758965375194"><ele>-1.0</ele><time>2026-04-19T08:20:03Z</time></trkpt><trkpt lat="44.97819625424265" lon="11.9090389167182"><ele>0.0</ele><time>2026-04-19T08:20:04Z</time></trkpt><trkpt lat="44.97814320877241" lon="11.909323000559377"><ele>1.0</ele><time>2026-04-19T08:20:05Z</time></trkpt><trkpt lat="44.97808996208055" lon="11.909611750381025"><ele>2.0</ele><time>2026-04-19T08:20:06Z</time></trkpt><trkpt lat="44.97803990308304" lon="11.909886959455466"><ele>2.0</ele><time>2026-04-19T08:20:07Z</time></trkpt><trkpt lat="44.977993586252346" lon="11.910147780100383"><ele>2.0</ele><time>2026-04-19T08:20:08Z</time></trkpt><trkpt lat="44.97794837917429" lon="11.91041142361856"><ele>2.0</ele><time>2026-04-19T08:20:09Z</time></trkpt><trkpt lat="44.977908557940935" lon="11.910674411447895"><ele>1.0</ele><time>2026-04-19T08:20:10.001Z</time></trkpt><trkpt lat="44.977867271764566" lon="11.910940690893762"><ele>0.0</ele><time>2026-04-19T08:20:11.001Z</time></trkpt><trkpt lat="44.97782753724051" lon="11.911205840029531"><ele>-1.0</ele><time>2026-04-19T08:20:12.001Z</time></trkpt><trkpt lat="44.977788566289135" lon="11.911465540351792"><ele>-1.0</ele><time>2026-04-19T08:20:13.001Z</time></trkpt><trkpt lat="44.9777506299253" lon="11.91172493602754"><ele>-1.0</ele><time>2026-04-19T08:20:14.001Z</time></trkpt><trkpt lat="44.97771325127064" lon="11.911982583212733"><ele>-1.0</ele><time>2026-04-19T08:20:15.001Z</time></trkpt><trkpt lat="44.97767884859469" lon="11.91222703087246"><ele>-1.3333333333333333</ele><time>2026-04-19T08:20:16.001Z</time></trkpt><trkpt lat="44.97764480498419" lon="11.912475210982482"><ele>-1.6666666666666665</ele><time>2026-04-19T08:20:17.001Z</time></trkpt><trkpt lat="44.97761377495625" lon="11.91271914744616"><ele>-2.0</ele><time>2026-04-19T08:20:18.001Z</time></trkpt><trkpt lat="44.97758310802072" lon="11.912968270462438"><ele>-2.0</ele><time>2026-04-19T08:20:19.001Z</time></trkpt><trkpt lat="44.97755293785457" lon="11.913217709371214"><ele>-2.0</ele><time>2026-04-19T08:20:20.001Z</time></trkpt><trkpt lat="44.97752191422512" lon="11.913473744638052"><ele>-2.0</ele><time>2026-04-19T08:20:21.001Z</time></trkpt><trkpt lat="44.97749138478065" lon="11.913728855446164"><ele>-1.3333333333333333</ele><time>2026-04-19T08:20:22.001Z</time></trkpt><trkpt lat="44.97746343801355" lon="11.913980917575572"><ele>-0.6666666666666666</ele><time>2026-04-19T08:20:23.001Z</time></trkpt><trkpt lat="44.97743472299912" lon="11.914230958684792"><ele>0.0</ele><time>2026-04-19T08:20:24.001Z</time></trkpt><trkpt lat="44.97740574941768" lon="11.91447888407407"><ele>0.0</ele><time>2026-04-19T08:20:25.001Z</time></trkpt><trkpt lat="44.97737813207792" lon="11.914728734690394"><ele>0.0</ele><time>2026-04-19T08:20:26.001Z</time></trkpt><trkpt lat="44.977348331806034" lon="11.914978720731769"><ele>0.0</ele><time>2026-04-19T08:20:27.001Z</time></trkpt><trkpt lat="44.977320510024484" lon="11.915211626702016"><ele>0.0</ele><time>2026-04-19T08:20:28.001Z</time></trkpt><trkpt lat="44.97729443454874" lon="11.915445498497059"><ele>0.0</ele><time>2026-04-19T08:20:29.001Z</time></trkpt><trkpt lat="44.9772692980776" lon="11.915675443368295"><ele>0.0</ele><time>2026-04-19T08:20:30.001Z</time></trkpt><trkpt lat="44.97724215653188" lon="11.915905221828776"><ele>0.0</ele><time>2026-04-19T08:20:31.001Z</time></trkpt><trkpt lat="44.97721646445122" lon="11.916136438215954"><ele>0.0</ele><time>2026-04-19T08:20:32.001Z</time></trkpt><trkpt lat="44.97719057831986" lon="11.91636747122417"><ele>0.0</ele><time>2026-04-19T08:20:33.001Z</time></trkpt><trkpt lat="44.97716434449987" lon="11.916608880689031"><ele>-0.6666666666666666</ele><time>2026-04-19T08:20:34.001Z</time></trkpt><trkpt lat="44.9771198709082" lon="11.916849489738953"><ele>-1.3333333333333333</ele><time>2026-04-19T08:20:35.001Z</time></trkpt><trkpt lat="44.977105225721225" lon="11.91709568367297"><ele>-2.0</ele><time>2026-04-19T08:20:36.001Z</time></trkpt><trkpt lat="44.97707235445681" lon="11.917339079778039"><ele>-1.6666666666666665</ele><time>2026-04-19T08:20:37.001Z</time></trkpt><trkpt lat="44.977040172378864" lon="11.917581975938367"><ele>-1.3333333333333333</ele><time>2026-04-19T08:20:38.001Z</time></trkpt><trkpt lat="44.97700692040414" lon="11.917819375982809"><ele>-1.0</ele><time>2026-04-19T08:20:39.001Z</time></trkpt><trkpt lat="44.97697799692361" lon="11.918060413568686"><ele>-1.0</ele><time>2026-04-19T08:20:40.001Z</time></trkpt><trkpt lat="44.97694856197822" lon="11.918296269474725"><ele>-1.0</ele><time>2026-04-19T08:20:41.001Z</time></trkpt><trkpt lat="44.97691772774739" lon="11.918531678792677"><ele>-1.0</ele><time>2026-04-19T08:20:42.001Z</time></trkpt><trkpt lat="44.97689189580453" lon="11.918766813193086"><ele>-0.6666666666666666</ele><time>2026-04-19T08:20:43.001Z</time></trkpt><trkpt lat="44.9768635934834" lon="11.91899926351788"><ele>-0.3333333333333333</ele><time>2026-04-19T08:20:44.001Z</time></trkpt><trkpt lat="44.97683306948795" lon="11.919233699167028"><ele>0.0</ele><time>2026-04-19T08:20:45.001Z</time></trkpt><trkpt lat="44.97680427967643" lon="11.919464748428629"><ele>0.0</ele><time>2026-04-19T08:20:46.001Z</time></trkpt><trkpt lat="44.976779950719866" lon="11.919702604875956"><ele>0.0</ele><time>2026-04-19T08:20:47.001Z</time></trkpt><trkpt lat="44.97675951120447" lon="11.919941426895747"><ele>0.0</ele><time>2026-04-19T08:20:48.001Z</time></trkpt><trkpt lat="44.97674548093745" lon="11.920170568832836"><ele>0.25</ele><time>2026-04-19T08:20:49.001Z</time></trkpt><trkpt lat="44.97673491594569" lon="11.920384602839384"><ele>0.5</ele><time>2026-04-19T08:20:50.001Z</time></trkpt><trkpt lat="44.97672868130048" lon="11.92058517660106"><ele>0.75</ele><time>2026-04-19T08:20:51.001Z</time></trkpt><trkpt lat="44.97672909389705" lon="11.920789885179335"><ele>1.0</ele><time>2026-04-19T08:20:52.001Z</time></trkpt><trkpt lat="44.97673065164611" lon="11.920982484369555"><ele>1.0</ele><time>2026-04-19T08:20:53.001Z</time></trkpt><trkpt lat="44.97673603860032" lon="11.921172115307854"><ele>1.0</ele><time>2026-04-19T08:20:54.001Z</time></trkpt><trkpt lat="44.976737526135075" lon="11.921363593581606"><ele>1.0</ele><time>2026-04-19T08:20:55.001Z</time></trkpt><trkpt lat="44.97673891301118" lon="11.92154306909307"><ele>1.0</ele><time>2026-04-19T08:20:56.001Z</time></trkpt><trkpt lat="44.97674259891631" lon="11.921717125658915"><ele>0.75</ele><time>2026-04-19T08:20:57.001Z</time></trkpt><trkpt lat="44.97674702631679" lon="11.921896605049763"><ele>0.5</ele><time>2026-04-19T08:20:58.001Z</time></trkpt><trkpt lat="44.97675456823914" lon="11.922092975804606"><ele>0.25</ele><time>2026-04-19T08:20:59.001Z</time></trkpt><trkpt lat="44.97676450312534" lon="11.92230078671421"><ele>0.0</ele><time>2026-04-19T08:21:00.001Z</time></trkpt><trkpt lat="44.97677663534119" lon="11.922523706658714"><ele>0.0</ele><time>2026-04-19T08:21:01.001Z</time></trkpt><trkpt lat="44.97679130961276" lon="11.922756018285751"><ele>0.0</ele><time>2026-04-19T08:21:02.001Z</time></trkpt><trkpt lat="44.97680613431094" lon="11.922991692747535"><ele>0.0</ele><time>2026-04-19T08:21:03.001Z</time></trkpt><trkpt lat="44.97682222933579" lon="11.92322676414338"><ele>0.3333333333333333</ele><time>2026-04-19T08:21:04.001Z</time></trkpt><trkpt lat="44.97683854389584" lon="11.923462987811952"><ele>0.6666666666666666</ele><time>2026-04-19T08:21:05.001Z</time></trkpt><trkpt lat="44.97685645364589" lon="11.923697314881288"><ele>1.0</ele><time>2026-04-19T08:21:06.001Z</time></trkpt><trkpt lat="44.976876559305175" lon="11.923932347295782"><ele>1.0</ele><time>2026-04-19T08:21:07.001Z</time></trkpt><trkpt lat="44.976903363571445" lon="11.924167149425873"><ele>1.0</ele><time>2026-04-19T08:21:08.001Z</time></trkpt><trkpt lat="44.976935286081975" lon="11.924396288871401"><ele>1.0</ele><time>2026-04-19T08:21:09.001Z</time></trkpt><trkpt lat="44.97697008077278" lon="11.92461989143326"><ele>0.6666666666666666</ele><time>2026-04-19T08:21:10.001Z</time></trkpt><trkpt lat="44.97701207255359" lon="11.92484549920615"><ele>0.3333333333333333</ele><time>2026-04-19T08:21:11.001Z</time></trkpt><trkpt lat="44.97706307477685" lon="11.925070553823312"><ele>0.0</ele><time>2026-04-19T08:21:12.001Z</time></trkpt><trkpt lat="44.97711292348451" lon="11.925294113389782"><ele>0.0</ele><time>2026-04-19T08:21:13.001Z</time></trkpt><trkpt lat="44.9771622403591" lon="11.925511695353896"><ele>0.0</ele><time>2026-04-19T08:21:14.001Z</time></trkpt><trkpt lat="44.9772131762057" lon="11.9257274602989"><ele>0.0</ele><time>2026-04-19T08:21:15.001Z</time></trkpt><trkpt lat="44.97726190793325" lon="11.925938663691253"><ele>-0.3333333333333333</ele><time>2026-04-19T08:21:16.001Z</time></trkpt><trkpt lat="44.97730976557273" lon="11.926140939478362"><ele>-0.6666666666666666</ele><time>2026-04-19T08:21:17.001Z</time></trkpt><trkpt lat="44.97736052113354" lon="11.926351430131708"><ele>-1.0</ele><time>2026-04-19T08:21:18.001Z</time></trkpt><trkpt lat="44.97741560997478" lon="11.926571270758647"><ele>-1.0</ele><time>2026-04-19T08:21:19.001Z</time></trkpt><trkpt lat="44.977471679848215" lon="11.92680059755637"><ele>-1.0</ele><time>2026-04-19T08:21:20.001Z</time></trkpt><trkpt lat="44.977528250813606" lon="11.927029414676651"><ele>-1.0</ele><time>2026-04-19T08:21:21.001Z</time></trkpt><trkpt lat="44.97758172966304" lon="11.92724947609382"><ele>-0.6666666666666666</ele><time>2026-04-19T08:21:22.001Z</time></trkpt><trkpt lat="44.97763565433282" lon="11.927477036363095"><ele>-0.3333333333333333</ele><time>2026-04-19T08:21:23.001Z</time></trkpt><trkpt lat="44.977692989716765" lon="11.927708970492093"><ele>0.0</ele><time>2026-04-19T08:21:24.001Z</time></trkpt><trkpt lat="44.97774611962158" lon="11.927935121267897"><ele>1.0</ele><time>2026-04-19T08:21:25.001Z</time></trkpt><trkpt lat="44.97780036848148" lon="11.928161562506066"><ele>2.0</ele><time>2026-04-19T08:21:26.001Z</time></trkpt><trkpt lat="44.97785538226266" lon="11.92838308261457"><ele>3.0</ele><time>2026-04-19T08:21:27.001Z</time></trkpt><trkpt lat="44.97790873591239" lon="11.928607822169008"><ele>3.333333333333333</ele><time>2026-04-19T08:21:28.001Z</time></trkpt><trkpt lat="44.977964752649044" lon="11.928829032657683"><ele>3.6666666666666665</ele><time>2026-04-19T08:21:29.001Z</time></trkpt><trkpt lat="44.97801785092345" lon="11.929045760832292"><ele>4.0</ele><time>2026-04-19T08:21:30.001Z</time></trkpt><trkpt lat="44.97807264182771" lon="11.929260093597984"><ele>4.666666666666666</ele><time>2026-04-19T08:21:31.001Z</time></trkpt><trkpt lat="44.97812787994016" lon="11.929472814617178"><ele>5.333333333333333</ele><time>2026-04-19T08:21:32.001Z</time></trkpt><trkpt lat="44.97818566812716" lon="11.929672397442939"><ele>6.0</ele><time>2026-04-19T08:21:33.001Z</time></trkpt><trkpt lat="44.97824566462976" lon="11.929878619342702"><ele>5.666666666666667</ele><time>2026-04-19T08:21:34.001Z</time></trkpt><trkpt lat="44.97830710239295" lon="11.930089496436164"><ele>5.333333333333334</ele><time>2026-04-19T08:21:35.001Z</time></trkpt><trkpt lat="44.97836565199006" lon="11.93030186850287"><ele>5.0</ele><time>2026-04-19T08:21:36.001Z</time></trkpt><trkpt lat="44.97842778081312" lon="11.930521709039368"><ele>4.666666666666667</ele><time>2026-04-19T08:21:37.001Z</time></trkpt><trkpt lat="44.978487130862995" lon="11.930744214609007"><ele>4.333333333333333</ele><time>2026-04-19T08:21:38.001Z</time></trkpt><trkpt lat="44.97854287676716" lon="11.930972592834317"><ele>4.0</ele><time>2026-04-19T08:21:39.001Z</time></trkpt><trkpt lat="44.97860049433279" lon="11.931206742862885"><ele>4.0</ele><time>2026-04-19T08:21:40.001Z</time></trkpt><trkpt lat="44.97865374049483" lon="11.931437728690518"><ele>4.0</ele><time>2026-04-19T08:21:41.001Z</time></trkpt><trkpt lat="44.9787065816483" lon="11.93167350083078"><ele>4.0</ele><time>2026-04-19T08:21:42.001Z</time></trkpt><trkpt lat="44.978757771092035" lon="11.931903475473689"><ele>4.0</ele><time>2026-04-19T08:21:43.001Z</time></trkpt><trkpt lat="44.97880943631328" lon="11.932127905797685"><ele>4.0</ele><time>2026-04-19T08:21:44.001Z</time></trkpt><trkpt lat="44.978862423614856" lon="11.932362910715485"><ele>4.0</ele><time>2026-04-19T08:21:45.001Z</time></trkpt><trkpt lat="44.97891037932632" lon="11.9325901183287"><ele>3.6666666666666665</ele><time>2026-04-19T08:21:46.001Z</time></trkpt><trkpt lat="44.97895554193261" lon="11.93281242779644"><ele>3.333333333333333</ele><time>2026-04-19T08:21:47.001Z</time></trkpt><trkpt lat="44.97899602738811" lon="11.933043859493742"><ele>3.0</ele><time>2026-04-19T08:21:48.001Z</time></trkpt><trkpt lat="44.97902889688635" lon="11.933279086675961"><ele>2.0</ele><time>2026-04-19T08:21:49Z</time></trkpt><trkpt lat="44.97905595063912" lon="11.933519366445067"><ele>1.0</ele><time>2026-04-19T08:21:50Z</time></trkpt><trkpt lat="44.9790754014619" lon="11.933769184819079"><ele>0.0</ele><time>2026-04-19T08:21:51Z</time></trkpt><trkpt lat="44.97909412221405" lon="11.934016063686675"><ele>0.0</ele><time>2026-04-19T08:21:52Z</time></trkpt><trkpt lat="44.97911037720957" lon="11.934265102101522"><ele>0.0</ele><time>2026-04-19T08:21:53Z</time></trkpt><trkpt lat="44.97913035338661" lon="11.934502075207675"><ele>0.0</ele><time>2026-04-19T08:21:54Z</time></trkpt><trkpt lat="44.97915658693515" lon="11.934744052679063"><ele>0.3333333333333333</ele><time>2026-04-19T08:21:55Z</time></trkpt><trkpt lat="44.97918795936135" lon="11.934987992984825"><ele>0.6666666666666666</ele><time>2026-04-19T08:21:56Z</time></trkpt><trkpt lat="44.979224286612485" lon="11.935234396413016"><ele>1.0</ele><time>2026-04-19T08:21:57Z</time></trkpt><trkpt lat="44.97926256855926" lon="11.935478435135105"><ele>0.6666666666666666</ele><time>2026-04-19T08:21:58Z</time></trkpt><trkpt lat="44.97929938353623" lon="11.935718966384833"><ele>0.3333333333333333</ele><time>2026-04-19T08:21:59Z</time></trkpt><trkpt lat="44.97933777621827" lon="11.935964260486776"><ele>0.0</ele><time>2026-04-19T08:22:00Z</time></trkpt><trkpt lat="44.979379967707466" lon="11.936201379413244"><ele>0.0</ele><time>2026-04-19T08:22:01Z</time></trkpt><trkpt lat="44.97942330795848" lon="11.936449740452057"><ele>0.0</ele><time>2026-04-19T08:22:02Z</time></trkpt><trkpt lat="44.97947235840773" lon="11.936693188697173"><ele>0.0</ele><time>2026-04-19T08:22:03Z</time></trkpt><trkpt lat="44.979523784410745" lon="11.936933223783441"><ele>0.0</ele><time>2026-04-19T08:22:04Z</time></trkpt><trkpt lat="44.97957836374101" lon="11.93717871883667"><ele>0.0</ele><time>2026-04-19T08:22:05Z</time></trkpt><trkpt lat="44.979633873260276" lon="11.93742395723811"><ele>0.0</ele><time>2026-04-19T08:22:06Z</time></trkpt><trkpt lat="44.97969305938369" lon="11.937670987352185"><ele>0.3333333333333333</ele><time>2026-04-19T08:22:07Z</time></trkpt><trkpt lat="44.97975434851808" lon="11.937912369857864"><ele>0.6666666666666666</ele><time>2026-04-19T08:22:08Z</time></trkpt><trkpt lat="44.97981819770138" lon="11.938152389017064"><ele>1.0</ele><time>2026-04-19T08:22:09Z</time></trkpt><trkpt lat="44.979884661038746" lon="11.938394739596768"><ele>0.6666666666666666</ele><time>2026-04-19T08:22:10Z</time></trkpt><trkpt lat="44.97995542407865" lon="11.938632077378957"><ele>0.3333333333333333</ele><time>2026-04-19T08:22:11Z</time></trkpt><trkpt lat="44.980032369402714" lon="11.938868108927498"><ele>0.0</ele><time>2026-04-19T08:22:12Z</time></trkpt><trkpt lat="44.98011985202717" lon="11.939102351728867"><ele>0.6666666666666666</ele><time>2026-04-19T08:22:13Z</time></trkpt><trkpt lat="44.980213161703325" lon="11.939330732199625"><ele>1.3333333333333333</ele><time>2026-04-19T08:22:14Z</time></trkpt><trkpt lat="44.98031586897933" lon="11.939554847002405"><ele>2.0</ele><time>2026-04-19T08:22:15Z</time></trkpt><trkpt lat="44.98042457677762" lon="11.939777095946681"><ele>2.0</ele><time>2026-04-19T08:22:16Z</time></trkpt><trkpt lat="44.9805399860107" lon="11.93999237576727"><ele>2.0</ele><time>2026-04-19T08:22:17Z</time></trkpt><trkpt lat="44.98065816954986" lon="11.94019795927136"><ele>2.0</ele><time>2026-04-19T08:22:18Z</time></trkpt><trkpt lat="44.98077833646565" lon="11.940399782302649"><ele>2.333333333333333</ele><time>2026-04-19T08:22:19.001Z</time></trkpt><trkpt lat="44.98089932476035" lon="11.940594478529134"><ele>2.6666666666666665</ele><time>2026-04-19T08:22:20.001Z</time></trkpt><trkpt lat="44.98102769188388" lon="11.940791433768783"><ele>3.0</ele><time>2026-04-19T08:22:21.001Z</time></trkpt><trkpt lat="44.98115825398814" lon="11.940982166458378"><ele>3.333333333333333</ele><time>2026-04-19T08:22:22.001Z</time></trkpt><trkpt lat="44.98129328075022" lon="11.941171502266025"><ele>3.6666666666666665</ele><time>2026-04-19T08:22:23.001Z</time></trkpt><trkpt lat="44.98143072479885" lon="11.941361612094592"><ele>4.0</ele><time>2026-04-19T08:22:24.001Z</time></trkpt><trkpt lat="44.98156706738819" lon="11.941541788196506"><ele>3.6666666666666665</ele><time>2026-04-19T08:22:25.001Z</time></trkpt><trkpt lat="44.98170942828069" lon="11.941723202974208"><ele>3.333333333333333</ele><time>2026-04-19T08:22:26.001Z</time></trkpt><trkpt lat="44.98185315779467" lon="11.941904946277376"><ele>3.0</ele><time>2026-04-19T08:22:27.001Z</time></trkpt><trkpt lat="44.981997664108945" lon="11.94208139755675"><ele>3.0</ele><time>2026-04-19T08:22:28.001Z</time></trkpt><trkpt lat="44.982146614547176" lon="11.942263952141243"><ele>3.0</ele><time>2026-04-19T08:22:29.001Z</time></trkpt><trkpt lat="44.98229962816735" lon="11.94244954488206"><ele>3.0</ele><time>2026-04-19T08:22:30.001Z</time></trkpt><trkpt lat="44.98244875282603" lon="11.942627059570277"><ele>3.333333333333333</ele><time>2026-04-19T08:22:31.001Z</time></trkpt><trkpt lat="44.98259440182593" lon="11.942802544330185"><ele>3.6666666666666665</ele><time>2026-04-19T08:22:32.001Z</time></trkpt><trkpt lat="44.98273762058768" lon="11.942977011771116"><ele>4.0</ele><time>2026-04-19T08:22:33.001Z</time></trkpt><trkpt lat="44.9828791601892" lon="11.94315039130729"><ele>4.0</ele><time>2026-04-19T08:22:34.001Z</time></trkpt><trkpt lat="44.98302455677116" lon="11.943327541917999"><ele>4.0</ele><time>2026-04-19T08:22:35.001Z</time></trkpt><trkpt lat="44.983169215704805" lon="11.943505299654687"><ele>4.0</ele><time>2026-04-19T08:22:36.001Z</time></trkpt><trkpt lat="44.983309838751104" lon="11.943675516829906"><ele>3.6666666666666665</ele><time>2026-04-19T08:22:37.001Z</time></trkpt><trkpt lat="44.98344939179185" lon="11.943842996722157"><ele>3.333333333333333</ele><time>2026-04-19T08:22:38.001Z</time></trkpt><trkpt lat="44.98359014346502" lon="11.944011919164213"><ele>3.0</ele><time>2026-04-19T08:22:39.001Z</time></trkpt><trkpt lat="44.98372859132729" lon="11.94417554774923"><ele>3.333333333333333</ele><time>2026-04-19T08:22:40.001Z</time></trkpt><trkpt lat="44.98385440835609" lon="11.944329285880091"><ele>3.6666666666666665</ele><time>2026-04-19T08:22:41.001Z</time></trkpt><trkpt lat="44.98397363385229" lon="11.944474388494367"><ele>4.0</ele><time>2026-04-19T08:22:42.001Z</time></trkpt><trkpt lat="44.98409336046021" lon="11.94462356875623"><ele>4.0</ele><time>2026-04-19T08:22:43.001Z</time></trkpt><trkpt lat="44.98420504121093" lon="11.944772249245833"><ele>4.0</ele><time>2026-04-19T08:22:44.001Z</time></trkpt><trkpt lat="44.98430841623336" lon="11.944921479190945"><ele>4.0</ele><time>2026-04-19T08:22:45.001Z</time></trkpt><trkpt lat="44.98439858252888" lon="11.945100525120434"><ele>4.333333333333333</ele><time>2026-04-19T08:22:46.001Z</time></trkpt><trkpt lat="44.98450149885731" lon="11.945279562377376"><ele>4.666666666666667</ele><time>2026-04-19T08:22:47.001Z</time></trkpt><trkpt lat="44.984619815496906" lon="11.945450092684638"><ele>5.0</ele><time>2026-04-19T08:22:48.001Z</time></trkpt><trkpt lat="44.984712700223845" lon="11.94565365947961"><ele>5.0</ele><time>2026-04-19T08:22:49.001Z</time></trkpt><trkpt lat="44.98482078509543" lon="11.945855148015266"><ele>5.0</ele><time>2026-04-19T08:22:50.001Z</time></trkpt><trkpt lat="44.9849246708457" lon="11.946051392507824"><ele>5.0</ele><time>2026-04-19T08:22:51.001Z</time></trkpt><trkpt lat="44.9850301825086" lon="11.946252351852928"><ele>4.0</ele><time>2026-04-19T08:22:52.001Z</time></trkpt><trkpt lat="44.98513847815453" lon="11.94645861345819"><ele>3.0</ele><time>2026-04-19T08:22:53.001Z</time></trkpt><trkpt lat="44.98524639971346" lon="11.946667715062715"><ele>2.0</ele><time>2026-04-19T08:22:54.001Z</time></trkpt><trkpt lat="44.98535251455714" lon="11.946872962191502"><ele>2.0</ele><time>2026-04-19T08:22:55.001Z</time></trkpt><trkpt lat="44.98547349655115" lon="11.9470645791966"><ele>2.0</ele><time>2026-04-19T08:22:56.001Z</time></trkpt><trkpt lat="44.98558408560855" lon="11.947268906076607"><ele>2.0</ele><time>2026-04-19T08:22:57.001Z</time></trkpt><trkpt lat="44.98569432749261" lon="11.947473205152216"><ele>2.0</ele><time>2026-04-19T08:22:58.001Z</time></trkpt><trkpt lat="44.98580145210617" lon="11.947665035441254"><ele>2.0</ele><time>2026-04-19T08:22:59.001Z</time></trkpt><trkpt lat="44.98590584942878" lon="11.947848356684894"><ele>2.0</ele><time>2026-04-19T08:23:00.001Z</time></trkpt><trkpt lat="44.98601452877063" lon="11.948030406900736"><ele>2.333333333333333</ele><time>2026-04-19T08:23:01.001Z</time></trkpt><trkpt lat="44.98612901446436" lon="11.948212526006442"><ele>2.6666666666666665</ele><time>2026-04-19T08:23:02.001Z</time></trkpt><trkpt lat="44.98625370059398" lon="11.948389287122113"><ele>3.0</ele><time>2026-04-19T08:23:03.001Z</time></trkpt><trkpt lat="44.98638246535427" lon="11.948558061364828"><ele>3.666666666666667</ele><time>2026-04-19T08:23:04.001Z</time></trkpt><trkpt lat="44.98652189347928" lon="11.948722057034939"><ele>4.333333333333334</ele><time>2026-04-19T08:23:05.001Z</time></trkpt><trkpt lat="44.98666770326133" lon="11.948880548085066"><ele>5.0</ele><time>2026-04-19T08:23:06.001Z</time></trkpt><trkpt lat="44.986820215237955" lon="11.949036426376038"><ele>5.0</ele><time>2026-04-19T08:23:07.001Z</time></trkpt><trkpt lat="44.98697312907025" lon="11.949198501534797"><ele>5.0</ele><time>2026-04-19T08:23:08.001Z</time></trkpt><trkpt lat="44.9871194349227" lon="11.949368173852259"><ele>5.0</ele><time>2026-04-19T08:23:09.001Z</time></trkpt><trkpt lat="44.98725768181573" lon="11.94954326832024"><ele>4.666666666666667</ele><time>2026-04-19T08:23:10.001Z</time></trkpt><trkpt lat="44.98738420588704" lon="11.949727099774757"><ele>4.333333333333333</ele><time>2026-04-19T08:23:11.001Z</time></trkpt><trkpt lat="44.98749882196438" lon="11.949922586538637"><ele>4.0</ele><time>2026-04-19T08:23:12.001Z</time></trkpt><trkpt lat="44.98760217975305" lon="11.950129920034593"><ele>3.0</ele><time>2026-04-19T08:23:13.001Z</time></trkpt><trkpt lat="44.9877018270244" lon="11.950339757482908"><ele>2.0</ele><time>2026-04-19T08:23:14.001Z</time></trkpt><trkpt lat="44.98780041997563" lon="11.950552900389734"><ele>1.0</ele><time>2026-04-19T08:23:15.001Z</time></trkpt><trkpt lat="44.98789762796767" lon="11.950773783024866"><ele>1.0</ele><time>2026-04-19T08:23:16.001Z</time></trkpt><trkpt lat="44.98799167220579" lon="11.95099247254025"><ele>1.0</ele><time>2026-04-19T08:23:17.001Z</time></trkpt><trkpt lat="44.988081568615726" lon="11.95121128178845"><ele>1.0</ele><time>2026-04-19T08:23:18.001Z</time></trkpt><trkpt lat="44.988168736951835" lon="11.951435484924774"><ele>1.0</ele><time>2026-04-19T08:23:19.001Z</time></trkpt><trkpt lat="44.98825341303038" lon="11.951663594160456"><ele>1.0</ele><time>2026-04-19T08:23:20.001Z</time></trkpt><trkpt lat="44.988333367788975" lon="11.951900065764994"><ele>1.0</ele><time>2026-04-19T08:23:21.001Z</time></trkpt><trkpt lat="44.98840770393608" lon="11.952144455507332"><ele>0.6666666666666666</ele><time>2026-04-19T08:23:22.001Z</time></trkpt><trkpt lat="44.988475649134074" lon="11.952396491790264"><ele>0.3333333333333333</ele><time>2026-04-19T08:23:23.001Z</time></trkpt><trkpt lat="44.988536481075876" lon="11.952649481003895"><ele>0.0</ele><time>2026-04-19T08:23:24.001Z</time></trkpt><trkpt lat="44.98859235499672" lon="11.952909196694536"><ele>0.0</ele><time>2026-04-19T08:23:25.001Z</time></trkpt><trkpt lat="44.98864665825018" lon="11.953168530857747"><ele>0.0</ele><time>2026-04-19T08:23:26.001Z</time></trkpt><trkpt lat="44.98870134341666" lon="11.953424553721916"><ele>0.0</ele><time>2026-04-19T08:23:27.001Z</time></trkpt><trkpt lat="44.9887547354381" lon="11.95367734615876"><ele>0.3333333333333333</ele><time>2026-04-19T08:23:28.001Z</time></trkpt><trkpt lat="44.988808413661786" lon="11.953926135611772"><ele>0.6666666666666666</ele><time>2026-04-19T08:23:29.001Z</time></trkpt><trkpt lat="44.9888624943275" lon="11.954173330207238"><ele>1.0</ele><time>2026-04-19T08:23:30.001Z</time></trkpt><trkpt lat="44.988916047503636" lon="11.954413246369828"><ele>1.3333333333333333</ele><time>2026-04-19T08:23:31.001Z</time></trkpt><trkpt lat="44.98896739878484" lon="11.954647712349459"><ele>1.6666666666666665</ele><time>2026-04-19T08:23:32.001Z</time></trkpt><trkpt lat="44.98901777973215" lon="11.954885005942852"><ele>2.0</ele><time>2026-04-19T08:23:33.001Z</time></trkpt><trkpt lat="44.98907028825943" lon="11.955119548893537"><ele>2.0</ele><time>2026-04-19T08:23:34.001Z</time></trkpt><trkpt lat="44.989121963769" lon="11.955353897497462"><ele>2.0</ele><time>2026-04-19T08:23:35.001Z</time></trkpt><trkpt lat="44.98917280530762" lon="11.955589042474102"><ele>2.0</ele><time>2026-04-19T08:23:36.001Z</time></trkpt><trkpt lat="44.9892246303536" lon="11.955827290121498"><ele>2.0</ele><time>2026-04-19T08:23:37.001Z</time></trkpt><trkpt lat="44.9892761700558" lon="11.956068548007048"><ele>2.0</ele><time>2026-04-19T08:23:38.001Z</time></trkpt><trkpt lat="44.98932929931629" lon="11.956310011952114"><ele>2.0</ele><time>2026-04-19T08:23:39.001Z</time></trkpt><trkpt lat="44.98938053737836" lon="11.956549082995725"><ele>2.0</ele><time>2026-04-19T08:23:40.001Z</time></trkpt><trkpt lat="44.989430241172265" lon="11.956777760420724"><ele>2.0</ele><time>2026-04-19T08:23:41.001Z</time></trkpt><trkpt lat="44.9894768018904" lon="11.95699757006847"><ele>2.0</ele><time>2026-04-19T08:23:42.001Z</time></trkpt><trkpt lat="44.98952223002314" lon="11.957219957853788"><ele>2.0</ele><time>2026-04-19T08:23:43.001Z</time></trkpt><trkpt lat="44.98956690526653" lon="11.957442353471126"><ele>2.0</ele><time>2026-04-19T08:23:44.001Z</time></trkpt><trkpt lat="44.98961084200164" lon="11.957665840746547"><ele>2.0</ele><time>2026-04-19T08:23:45.001Z</time></trkpt><trkpt lat="44.98965361777111" lon="11.957894155582261"><ele>2.0</ele><time>2026-04-19T08:23:46.001Z</time></trkpt><trkpt lat="44.98969547592592" lon="11.958123952268423"><ele>2.0</ele><time>2026-04-19T08:23:47.001Z</time></trkpt><trkpt lat="44.989736124395854" lon="11.958356786755488"><ele>2.0</ele><time>2026-04-19T08:23:48.001Z</time></trkpt><trkpt lat="44.98977277450026" lon="11.958593729674481"><ele>2.0</ele><time>2026-04-19T08:23:49.001Z</time></trkpt><trkpt lat="44.98980170426278" lon="11.958826347226173"><ele>2.0</ele><time>2026-04-19T08:23:50.001Z</time></trkpt><trkpt lat="44.989820378086286" lon="11.959057498154088"><ele>2.0</ele><time>2026-04-19T08:23:51.001Z</time></trkpt><trkpt lat="44.98983431500618" lon="11.95928470360334"><ele>2.0</ele><time>2026-04-19T08:23:52.001Z</time></trkpt><trkpt lat="44.989845937047754" lon="11.959509826360463"><ele>2.0</ele><time>2026-04-19T08:23:53.001Z</time></trkpt><trkpt lat="44.989856525784454" lon="11.95974001102943"><ele>2.0</ele><time>2026-04-19T08:23:54.001Z</time></trkpt><trkpt lat="44.98987343594812" lon="11.959975955547895"><ele>2.0</ele><time>2026-04-19T08:23:55Z</time></trkpt><trkpt lat="44.989897951139454" lon="11.96021354826921"><ele>2.0</ele><time>2026-04-19T08:23:56Z</time></trkpt><trkpt lat="44.98992394294388" lon="11.960449467770582"><ele>2.0</ele><time>2026-04-19T08:23:57Z</time></trkpt><trkpt lat="44.98994911802602" lon="11.960676373234643"><ele>2.5</ele><time>2026-04-19T08:23:58Z</time></trkpt><trkpt lat="44.98996915001289" lon="11.960885991979373"><ele>3.0</ele><time>2026-04-19T08:23:59Z</time></trkpt><trkpt lat="44.98998382094839" lon="11.961086306652206"><ele>3.5</ele><time>2026-04-19T08:24:00Z</time></trkpt><trkpt lat="44.98999174339598" lon="11.96128566973565"><ele>4.0</ele><time>2026-04-19T08:24:01Z</time></trkpt><trkpt lat="44.989992767455654" lon="11.961489592985512"><ele>3.333333333333333</ele><time>2026-04-19T08:24:02Z</time></trkpt><trkpt lat="44.98998462036352" lon="11.961700132170927"><ele>2.6666666666666665</ele><time>2026-04-19T08:24:03Z</time></trkpt><trkpt lat="44.98996833051085" lon="11.961924502222727"><ele>2.0</ele><time>2026-04-19T08:24:04Z</time></trkpt><trkpt lat="44.98994418009598" lon="11.962164525513991"><ele>2.0</ele><time>2026-04-19T08:24:05Z</time></trkpt><trkpt lat="44.98991564153189" lon="11.962392478803952"><ele>2.0</ele><time>2026-04-19T08:24:06Z</time></trkpt><trkpt lat="44.989880626241664" lon="11.962617148328613"><ele>2.0</ele><time>2026-04-19T08:24:07Z</time></trkpt><trkpt lat="44.98984137891622" lon="11.962841843744044"><ele>2.0</ele><time>2026-04-19T08:24:08Z</time></trkpt><trkpt lat="44.989798864006985" lon="11.963067850096524"><ele>2.0</ele><time>2026-04-19T08:24:09Z</time></trkpt><trkpt lat="44.98975480067967" lon="11.963299820527974"><ele>2.0</ele><time>2026-04-19T08:24:10Z</time></trkpt><trkpt lat="44.98971032691025" lon="11.963536710358897"><ele>2.0</ele><time>2026-04-19T08:24:11Z</time></trkpt><trkpt lat="44.9896669304509" lon="11.963772844761607"><ele>2.0</ele><time>2026-04-19T08:24:12Z</time></trkpt><trkpt lat="44.98962539533944" lon="11.964008884186477"><ele>2.0</ele><time>2026-04-19T08:24:13Z</time></trkpt><trkpt lat="44.98958578622487" lon="11.964241438009003"><ele>1.6666666666666665</ele><time>2026-04-19T08:24:14Z</time></trkpt><trkpt lat="44.989546746435984" lon="11.96446516911921"><ele>1.3333333333333333</ele><time>2026-04-19T08:24:15Z</time></trkpt><trkpt lat="44.989505641709584" lon="11.964686747343732"><ele>1.0</ele><time>2026-04-19T08:24:16Z</time></trkpt><trkpt lat="44.98946429406545" lon="11.964914124397488"><ele>0.3333333333333333</ele><time>2026-04-19T08:24:17Z</time></trkpt><trkpt lat="44.9894237461961" lon="11.965147474136769"><ele>-0.3333333333333333</ele><time>2026-04-19T08:24:18Z</time></trkpt><trkpt lat="44.98938493732583" lon="11.96538087073664"><ele>-1.0</ele><time>2026-04-19T08:24:19Z</time></trkpt><trkpt lat="44.989343647989166" lon="11.965617884948804"><ele>-1.0</ele><time>2026-04-19T08:24:20Z</time></trkpt><trkpt lat="44.989300626027195" lon="11.965853259064678"><ele>-1.0</ele><time>2026-04-19T08:24:21Z</time></trkpt><trkpt lat="44.98925661085619" lon="11.96608788706682"><ele>-1.0</ele><time>2026-04-19T08:24:22Z</time></trkpt><trkpt lat="44.989214271479334" lon="11.966325821475722"><ele>-0.6666666666666666</ele><time>2026-04-19T08:24:23Z</time></trkpt><trkpt lat="44.989173075463256" lon="11.96656362792108"><ele>-0.3333333333333333</ele><time>2026-04-19T08:24:24Z</time></trkpt><trkpt lat="44.98913382592193" lon="11.966804638452793"><ele>0.0</ele><time>2026-04-19T08:24:25Z</time></trkpt><trkpt lat="44.98909690032311" lon="11.967052519966437"><ele>0.6666666666666666</ele><time>2026-04-19T08:24:26Z</time></trkpt><trkpt lat="44.98906154960784" lon="11.967300622357593"><ele>1.3333333333333333</ele><time>2026-04-19T08:24:27Z</time></trkpt><trkpt lat="44.98902628603279" lon="11.967543443561604"><ele>2.0</ele><time>2026-04-19T08:24:28Z</time></trkpt><trkpt lat="44.98899010146587" lon="11.967790053203593"><ele>2.0</ele><time>2026-04-19T08:24:29.001Z</time></trkpt><trkpt lat="44.98895518374423" lon="11.968037375450965"><ele>2.0</ele><time>2026-04-19T08:24:30.001Z</time></trkpt><trkpt lat="44.98891967550017" lon="11.968282006707398"><ele>2.0</ele><time>2026-04-19T08:24:31.001Z</time></trkpt><trkpt lat="44.988881725599576" lon="11.968522764846822"><ele>1.3333333333333333</ele><time>2026-04-19T08:24:32.001Z</time></trkpt><trkpt lat="44.98884182568991" lon="11.968767155326693"><ele>0.6666666666666666</ele><time>2026-04-19T08:24:33.001Z</time></trkpt><trkpt lat="44.98880258097935" lon="11.969009273048151"><ele>0.0</ele><time>2026-04-19T08:24:34.001Z</time></trkpt><trkpt lat="44.988764442983666" lon="11.969252343052226"><ele>0.0</ele><time>2026-04-19T08:24:35.001Z</time></trkpt><trkpt lat="44.98872631568972" lon="11.969497272669695"><ele>0.0</ele><time>2026-04-19T08:24:36.001Z</time></trkpt><trkpt lat="44.98868742523071" lon="11.96974372310081"><ele>0.0</ele><time>2026-04-19T08:24:37.001Z</time></trkpt><trkpt lat="44.98864930291578" lon="11.969991275462819"><ele>-0.3333333333333333</ele><time>2026-04-19T08:24:38.001Z</time></trkpt><trkpt lat="44.98861271093383" lon="11.970235642347017"><ele>-0.6666666666666666</ele><time>2026-04-19T08:24:39.001Z</time></trkpt><trkpt lat="44.98857833049775" lon="11.97047613249002"><ele>-1.0</ele><time>2026-04-19T08:24:40.001Z</time></trkpt><trkpt lat="44.98854280440218" lon="11.970718821882134"><ele>-1.3333333333333333</ele><time>2026-04-19T08:24:41.001Z</time></trkpt><trkpt lat="44.98850603405326" lon="11.970962330708597"><ele>-1.6666666666666665</ele><time>2026-04-19T08:24:42.001Z</time></trkpt><trkpt lat="44.988466231045756" lon="11.971205815593297"><ele>-2.0</ele><time>2026-04-19T08:24:43.001Z</time></trkpt><trkpt lat="44.98842089878352" lon="11.971447087830352"><ele>-2.0</ele><time>2026-04-19T08:24:44.001Z</time></trkpt><trkpt lat="44.98836560935204" lon="11.971688276895033"><ele>-2.0</ele><time>2026-04-19T08:24:45.001Z</time></trkpt><trkpt lat="44.988305792449694" lon="11.971927168354624"><ele>-2.0</ele><time>2026-04-19T08:24:46.001Z</time></trkpt><trkpt lat="44.98824315371147" lon="11.97216396155093"><ele>-1.0</ele><time>2026-04-19T08:24:47.001Z</time></trkpt><trkpt lat="44.988180272168805" lon="11.972399857802602"><ele>0.0</ele><time>2026-04-19T08:24:48.001Z</time></trkpt><trkpt lat="44.988118222809234" lon="11.972637909997657"><ele>1.0</ele><time>2026-04-19T08:24:49.001Z</time></trkpt><trkpt lat="44.98805636981755" lon="11.972879459641202"><ele>1.0</ele><time>2026-04-19T08:24:50.001Z</time></trkpt><trkpt lat="44.987995186948126" lon="11.973123881443437"><ele>1.0</ele><time>2026-04-19T08:24:51.001Z</time></trkpt><trkpt lat="44.987934374846816" lon="11.973370231599441"><ele>1.0</ele><time>2026-04-19T08:24:52.001Z</time></trkpt><trkpt lat="44.98787476279085" lon="11.973615038507342"><ele>1.3333333333333333</ele><time>2026-04-19T08:24:53.001Z</time></trkpt><trkpt lat="44.98781936474425" lon="11.973856050226837"><ele>1.6666666666666665</ele><time>2026-04-19T08:24:54.001Z</time></trkpt><trkpt lat="44.987768670428785" lon="11.974093435219242"><ele>2.0</ele><time>2026-04-19T08:24:55.001Z</time></trkpt><trkpt lat="44.98771821692685" lon="11.974332974392832"><ele>2.0</ele><time>2026-04-19T08:24:56.001Z</time></trkpt><trkpt lat="44.98766806646415" lon="11.974577162967233"><ele>2.0</ele><time>2026-04-19T08:24:57.001Z</time></trkpt><trkpt lat="44.98762014028042" lon="11.974823241798891"><ele>2.0</ele><time>2026-04-19T08:24:58.001Z</time></trkpt><trkpt lat="44.98757382198493" lon="11.975069071293797"><ele>2.333333333333333</ele><time>2026-04-19T08:24:59.001Z</time></trkpt><trkpt lat="44.98752860970968" lon="11.975316707506865"><ele>2.6666666666666665</ele><time>2026-04-19T08:25:00.001Z</time></trkpt><trkpt lat="44.987483475681024" lon="11.975563868874067"><ele>3.0</ele><time>2026-04-19T08:25:01.001Z</time></trkpt><trkpt lat="44.98743827079574" lon="11.975809990392355"><ele>3.666666666666667</ele><time>2026-04-19T08:25:02.001Z</time></trkpt><trkpt lat="44.987393546996586" lon="11.976056469621287"><ele>4.333333333333334</ele><time>2026-04-19T08:25:03.001Z</time></trkpt><trkpt lat="44.987347950735675" lon="11.976300165287348"><ele>5.0</ele><time>2026-04-19T08:25:04.001Z</time></trkpt><trkpt lat="44.98730261506458" lon="11.976547884816036"><ele>5.333333333333334</ele><time>2026-04-19T08:25:05.001Z</time></trkpt><trkpt lat="44.9872589183284" lon="11.97679789647569"><ele>5.666666666666667</ele><time>2026-04-19T08:25:06.001Z</time></trkpt><trkpt lat="44.9872158655369" lon="11.97705074687992"><ele>6.0</ele><time>2026-04-19T08:25:07.001Z</time></trkpt><trkpt lat="44.98717362351434" lon="11.977301024644392"><ele>5.333333333333333</ele><time>2026-04-19T08:25:08.001Z</time></trkpt><trkpt lat="44.98712962933254" lon="11.977557763585487"><ele>4.666666666666666</ele><time>2026-04-19T08:25:09.001Z</time></trkpt><trkpt lat="44.98708515860608" lon="11.977813000464776"><ele>4.0</ele><time>2026-04-19T08:25:10.001Z</time></trkpt><trkpt lat="44.987041067578836" lon="11.978062145620461"><ele>4.0</ele><time>2026-04-19T08:25:11.001Z</time></trkpt><trkpt lat="44.98699916899483" lon="11.978307232066292"><ele>4.0</ele><time>2026-04-19T08:25:12.001Z</time></trkpt><trkpt lat="44.98695765547898" lon="11.978547162319419"><ele>4.0</ele><time>2026-04-19T08:25:13.001Z</time></trkpt><trkpt lat="44.9869159830263" lon="11.978789885609734"><ele>4.0</ele><time>2026-04-19T08:25:14.001Z</time></trkpt><trkpt lat="44.98687323475439" lon="11.979036547755209"><ele>4.0</ele><time>2026-04-19T08:25:15.001Z</time></trkpt><trkpt lat="44.98683014284121" lon="11.979286095391615"><ele>4.0</ele><time>2026-04-19T08:25:16.001Z</time></trkpt><trkpt lat="44.98678559420458" lon="11.979539363207465"><ele>3.333333333333333</ele><time>2026-04-19T08:25:17.001Z</time></trkpt><trkpt lat="44.98674083462434" lon="11.979795723125125"><ele>2.6666666666666665</ele><time>2026-04-19T08:25:18.001Z</time></trkpt><trkpt lat="44.98669580443072" lon="11.980052478824712"><ele>2.0</ele><time>2026-04-19T08:25:19.001Z</time></trkpt><trkpt lat="44.98665110689728" lon="11.980309174714701"><ele>1.6666666666666665</ele><time>2026-04-19T08:25:20.001Z</time></trkpt><trkpt lat="44.986610489348244" lon="11.980556376402173"><ele>1.3333333333333333</ele><time>2026-04-19T08:25:21.001Z</time></trkpt><trkpt lat="44.98657451362444" lon="11.980805686759247"><ele>1.0</ele><time>2026-04-19T08:25:22.001Z</time></trkpt><trkpt lat="44.986547658837544" lon="11.981056607068814"><ele>1.0</ele><time>2026-04-19T08:25:23.001Z</time></trkpt><trkpt lat="44.98652807486846" lon="11.981310993037942"><ele>1.0</ele><time>2026-04-19T08:25:24.001Z</time></trkpt><trkpt lat="44.986510781441424" lon="11.98156519961164"><ele>1.0</ele><time>2026-04-19T08:25:25.001Z</time></trkpt><trkpt lat="44.9864927761105" lon="11.981824565993637"><ele>1.0</ele><time>2026-04-19T08:25:26.001Z</time></trkpt><trkpt lat="44.98647404216424" lon="11.982083293434494"><ele>1.0</ele><time>2026-04-19T08:25:27.001Z</time></trkpt><trkpt lat="44.98645375428364" lon="11.982342993302174"><ele>1.0</ele><time>2026-04-19T08:25:28.001Z</time></trkpt><trkpt lat="44.986432074224176" lon="11.982602511664545"><ele>1.0</ele><time>2026-04-19T08:25:29.001Z</time></trkpt><trkpt lat="44.98640890467135" lon="11.982855300086259"><ele>1.0</ele><time>2026-04-19T08:25:30.001Z</time></trkpt><trkpt lat="44.98638377455459" lon="11.983105699001888"><ele>1.0</ele><time>2026-04-19T08:25:31.001Z</time></trkpt><trkpt lat="44.98635554083995" lon="11.983356126487822"><ele>1.0</ele><time>2026-04-19T08:25:32.001Z</time></trkpt><trkpt lat="44.98632532004022" lon="11.983606115018818"><ele>1.0</ele><time>2026-04-19T08:25:33.001Z</time></trkpt><trkpt lat="44.98629219723316" lon="11.98385800205687"><ele>1.0</ele><time>2026-04-19T08:25:34.001Z</time></trkpt><trkpt lat="44.98625660293624" lon="11.98410553570578"><ele>1.0</ele><time>2026-04-19T08:25:35.001Z</time></trkpt><trkpt lat="44.98622169864906" lon="11.984331927007732"><ele>1.0</ele><time>2026-04-19T08:25:36.001Z</time></trkpt><trkpt lat="44.986187955375264" lon="11.984549318466016"><ele>1.0</ele><time>2026-04-19T08:25:37.001Z</time></trkpt><trkpt lat="44.98615553717752" lon="11.984756743630397"><ele>1.0</ele><time>2026-04-19T08:25:38.001Z</time></trkpt><trkpt lat="44.98612297557275" lon="11.98496178729263"><ele>1.0</ele><time>2026-04-19T08:25:39.001Z</time></trkpt><trkpt lat="44.98608886715442" lon="11.985159264249729"><ele>1.0</ele><time>2026-04-19T08:25:40.001Z</time></trkpt><trkpt lat="44.98605092000089" lon="11.985346174860146"><ele>1.0</ele><time>2026-04-19T08:25:41.001Z</time></trkpt><trkpt lat="44.986006270698425" lon="11.985530096394532"><ele>0.6666666666666666</ele><time>2026-04-19T08:25:42.001Z</time></trkpt><trkpt lat="44.98593683001849" lon="11.98583903916691"><ele>0.3333333333333333</ele><time>2026-04-19T08:25:43.001Z</time></trkpt><trkpt lat="44.98587857137079" lon="11.986058399816987"><ele>0.0</ele><time>2026-04-19T08:25:44.001Z</time></trkpt><trkpt lat="44.98580568688072" lon="11.986271823786035"><ele>0.6666666666666666</ele><time>2026-04-19T08:25:45.001Z</time></trkpt><trkpt lat="44.985726971716694" lon="11.98649562084662"><ele>1.3333333333333333</ele><time>2026-04-19T08:25:46.001Z</time></trkpt><trkpt lat="44.985657612867996" lon="11.986658581771579"><ele>2.0</ele><time>2026-04-19T08:25:47.001Z</time></trkpt><trkpt lat="44.9855840788321" lon="11.986892513855139"><ele>2.0</ele><time>2026-04-19T08:25:48.001Z</time></trkpt><trkpt lat="44.98551074556157" lon="11.987123072420934"><ele>2.0</ele><time>2026-04-19T08:25:49.001Z</time></trkpt><trkpt lat="44.98544041290561" lon="11.987355647013333"><ele>2.0</ele><time>2026-04-19T08:25:50.001Z</time></trkpt><trkpt lat="44.98537477659934" lon="11.987590890517534"><ele>2.333333333333333</ele><time>2026-04-19T08:25:51.001Z</time></trkpt><trkpt lat="44.985315440847636" lon="11.98782986462934"><ele>2.6666666666666665</ele><time>2026-04-19T08:25:52.001Z</time></trkpt><trkpt lat="44.98526109916301" lon="11.988071572059805"><ele>3.0</ele><time>2026-04-19T08:25:53.001Z</time></trkpt><trkpt lat="44.9852111560258" lon="11.988311942530439"><ele>2.6666666666666665</ele><time>2026-04-19T08:25:54.001Z</time></trkpt><trkpt lat="44.9851663937246" lon="11.988552997549954"><ele>2.333333333333333</ele><time>2026-04-19T08:25:55.001Z</time></trkpt><trkpt lat="44.98512490516593" lon="11.988794278839046"><ele>2.0</ele><time>2026-04-19T08:25:56.001Z</time></trkpt><trkpt lat="44.98508294639564" lon="11.989032871625842"><ele>1.6666666666666665</ele><time>2026-04-19T08:25:57.001Z</time></trkpt><trkpt lat="44.985039004936674" lon="11.989268198331477"><ele>1.3333333333333333</ele><time>2026-04-19T08:25:58.001Z</time></trkpt><trkpt lat="44.984996395809475" lon="11.989501163241233"><ele>1.0</ele><time>2026-04-19T08:25:59.001Z</time></trkpt><trkpt lat="44.98495407660825" lon="11.989735629697964"><ele>0.6666666666666666</ele><time>2026-04-19T08:26:00.001Z</time></trkpt><trkpt lat="44.98491125492282" lon="11.98996834524941"><ele>0.3333333333333333</ele><time>2026-04-19T08:26:01Z</time></trkpt><trkpt lat="44.98486734420636" lon="11.990201790082986"><ele>0.0</ele><time>2026-04-19T08:26:02Z</time></trkpt><trkpt lat="44.984823144005425" lon="11.99043980636179"><ele>0.0</ele><time>2026-04-19T08:26:03Z</time></trkpt><trkpt lat="44.98477948187267" lon="11.990683732230973"><ele>0.0</ele><time>2026-04-19T08:26:04Z</time></trkpt><trkpt lat="44.984737357568015" lon="11.990926189984643"><ele>0.0</ele><time>2026-04-19T08:26:05Z</time></trkpt><trkpt lat="44.984695354561055" lon="11.991166268894561"><ele>-0.6666666666666666</ele><time>2026-04-19T08:26:06Z</time></trkpt><trkpt lat="44.98465346512482" lon="11.991405553013653"><ele>-1.3333333333333333</ele><time>2026-04-19T08:26:07Z</time></trkpt><trkpt lat="44.984611084324975" lon="11.991643475099721"><ele>-2.0</ele><time>2026-04-19T08:26:08Z</time></trkpt><trkpt lat="44.984568681455634" lon="11.991883971250129"><ele>-2.0</ele><time>2026-04-19T08:26:09Z</time></trkpt><trkpt lat="44.98452826477283" lon="11.992121663845289"><ele>-2.0</ele><time>2026-04-19T08:26:10Z</time></trkpt><trkpt lat="44.984489030733734" lon="11.992354247940536"><ele>-2.0</ele><time>2026-04-19T08:26:11Z</time></trkpt><trkpt lat="44.984449944064" lon="11.992582829347977"><ele>-1.0</ele><time>2026-04-19T08:26:12Z</time></trkpt><trkpt lat="44.984412241126776" lon="11.992807276614453"><ele>0.0</ele><time>2026-04-19T08:26:13Z</time></trkpt><trkpt lat="44.98437536398307" lon="11.993031055095152"><ele>1.0</ele><time>2026-04-19T08:26:14Z</time></trkpt><trkpt lat="44.98433266294722" lon="11.993254003004257"><ele>1.3333333333333333</ele><time>2026-04-19T08:26:15Z</time></trkpt><trkpt lat="44.98429285469935" lon="11.993484490142546"><ele>1.6666666666666665</ele><time>2026-04-19T08:26:16Z</time></trkpt><trkpt lat="44.98426079066247" lon="11.993722265000569"><ele>2.0</ele><time>2026-04-19T08:26:17Z</time></trkpt><trkpt lat="44.984244786941424" lon="11.993966205357909"><ele>1.3333333333333333</ele><time>2026-04-19T08:26:18Z</time></trkpt><trkpt lat="44.984241436599994" lon="11.994224091422392"><ele>0.6666666666666666</ele><time>2026-04-19T08:26:19Z</time></trkpt><trkpt lat="44.98424530586898" lon="11.994484324660283"><ele>0.0</ele><time>2026-04-19T08:26:20Z</time></trkpt><trkpt lat="44.98424893612846" lon="11.994739487267973"><ele>0.0</ele><time>2026-04-19T08:26:21Z</time></trkpt><trkpt lat="44.9842424953872" lon="11.994992135096586"><ele>0.0</ele><time>2026-04-19T08:26:22Z</time></trkpt><trkpt lat="44.98422130336671" lon="11.995235855456102"><ele>0.0</ele><time>2026-04-19T08:26:23Z</time></trkpt><trkpt lat="44.98419025297689" lon="11.995471870551496"><ele>0.0</ele><time>2026-04-19T08:26:24Z</time></trkpt><trkpt lat="44.984154086912845" lon="11.995703779414542"><ele>0.0</ele><time>2026-04-19T08:26:25Z</time></trkpt><trkpt lat="44.98411001712163" lon="11.995934685381473"><ele>0.0</ele><time>2026-04-19T08:26:26Z</time></trkpt><trkpt lat="44.984056221084806" lon="11.996166096780719"><ele>0.0</ele><time>2026-04-19T08:26:27Z</time></trkpt><trkpt lat="44.98400011012114" lon="11.996398945493166"><ele>0.0</ele><time>2026-04-19T08:26:28Z</time></trkpt><trkpt lat="44.98394303679343" lon="11.99663632439059"><ele>0.0</ele><time>2026-04-19T08:26:29Z</time></trkpt><trkpt lat="44.983884458459954" lon="11.996882193803001"><ele>-0.3333333333333333</ele><time>2026-04-19T08:26:30Z</time></trkpt><trkpt lat="44.983826220213864" lon="11.997131776819087"><ele>-0.6666666666666666</ele><time>2026-04-19T08:26:31Z</time></trkpt><trkpt lat="44.98376911306697" lon="11.997382416600706"><ele>-1.0</ele><time>2026-04-19T08:26:32Z</time></trkpt><trkpt lat="44.9837146236147" lon="11.997634386738001"><ele>-0.6666666666666666</ele><time>2026-04-19T08:26:33Z</time></trkpt><trkpt lat="44.98366216797383" lon="11.997891281023469"><ele>-0.3333333333333333</ele><time>2026-04-19T08:26:34Z</time></trkpt><trkpt lat="44.98361470756905" lon="11.998151448770589"><ele>0.0</ele><time>2026-04-19T08:26:35Z</time></trkpt><trkpt lat="44.983570672809705" lon="11.998415011003454"><ele>0.0</ele><time>2026-04-19T08:26:36Z</time></trkpt><trkpt lat="44.983530474018266" lon="11.998687537011516"><ele>0.0</ele><time>2026-04-19T08:26:37.001Z</time></trkpt><trkpt lat="44.98349629298276" lon="11.998957169079045"><ele>0.0</ele><time>2026-04-19T08:26:38.001Z</time></trkpt><trkpt lat="44.98346876165325" lon="11.999233084901006"><ele>0.0</ele><time>2026-04-19T08:26:39.001Z</time></trkpt><trkpt lat="44.98344818788766" lon="11.999504868755045"><ele>0.0</ele><time>2026-04-19T08:26:40.001Z</time></trkpt><trkpt lat="44.983433381199724" lon="11.999775922381998"><ele>0.0</ele><time>2026-04-19T08:26:41.001Z</time></trkpt><trkpt lat="44.98342072880944" lon="12.000045658907775"><ele>0.0</ele><time>2026-04-19T08:26:42.001Z</time></trkpt><trkpt lat="44.983409930452865" lon="12.00031026200978"><ele>0.0</ele><time>2026-04-19T08:26:43.001Z</time></trkpt><trkpt lat="44.9833992754484" lon="12.000571414247828"><ele>0.0</ele><time>2026-04-19T08:26:44.001Z</time></trkpt><trkpt lat="44.98338847333347" lon="12.00082675703452"><ele>0.0</ele><time>2026-04-19T08:26:45.001Z</time></trkpt><trkpt lat="44.98337727763034" lon="12.001075506879607"><ele>0.0</ele><time>2026-04-19T08:26:46.001Z</time></trkpt><trkpt lat="44.98336717717184" lon="12.001322476441928"><ele>0.0</ele><time>2026-04-19T08:26:47.001Z</time></trkpt><trkpt lat="44.983356525516186" lon="12.001568133874592"><ele>0.0</ele><time>2026-04-19T08:26:48.001Z</time></trkpt><trkpt lat="44.983347069130446" lon="12.001814860127203"><ele>0.0</ele><time>2026-04-19T08:26:49.001Z</time></trkpt><trkpt lat="44.98333844042312" lon="12.00205954921515"><ele>0.0</ele><time>2026-04-19T08:26:50.001Z</time></trkpt><trkpt lat="44.983329939910476" lon="12.002294432078557"><ele>0.0</ele><time>2026-04-19T08:26:51.001Z</time></trkpt><trkpt lat="44.9833205330541" lon="12.002530379987519"><ele>0.0</ele><time>2026-04-19T08:26:52.001Z</time></trkpt><trkpt lat="44.983310370348846" lon="12.002772564438958"><ele>0.0</ele><time>2026-04-19T08:26:53.001Z</time></trkpt><trkpt lat="44.98330121663899" lon="12.003018035169179"><ele>0.0</ele><time>2026-04-19T08:26:54.001Z</time></trkpt><trkpt lat="44.98329321346628" lon="12.003271075188877"><ele>0.0</ele><time>2026-04-19T08:26:55.001Z</time></trkpt><trkpt lat="44.98328558834712" lon="12.003521055549282"><ele>0.0</ele><time>2026-04-19T08:26:56.001Z</time></trkpt><trkpt lat="44.98327892239366" lon="12.003764988024415"><ele>-0.3333333333333333</ele><time>2026-04-19T08:26:57.001Z</time></trkpt><trkpt lat="44.983271318236184" lon="12.004005783253895"><ele>-0.6666666666666666</ele><time>2026-04-19T08:26:58.001Z</time></trkpt><trkpt lat="44.98326282271067" lon="12.00424451017389"><ele>-1.0</ele><time>2026-04-19T08:26:59.001Z</time></trkpt><trkpt lat="44.98325569432526" lon="12.004485983339103"><ele>-1.0</ele><time>2026-04-19T08:27:00.001Z</time></trkpt><trkpt lat="44.98325131089448" lon="12.004731987717257"><ele>-1.0</ele><time>2026-04-19T08:27:01.001Z</time></trkpt><trkpt lat="44.98325321736451" lon="12.004980239601752"><ele>-1.0</ele><time>2026-04-19T08:27:02.001Z</time></trkpt><trkpt lat="44.983261373485306" lon="12.005229039076386"><ele>-1.0</ele><time>2026-04-19T08:27:03.001Z</time></trkpt><trkpt lat="44.983270112573614" lon="12.005476290505998"><ele>-1.0</ele><time>2026-04-19T08:27:04.001Z</time></trkpt><trkpt lat="44.983272903066464" lon="12.005722900337114"><ele>-1.0</ele><time>2026-04-19T08:27:05.001Z</time></trkpt><trkpt lat="44.983257541039684" lon="12.005972674663319"><ele>0.0</ele><time>2026-04-19T08:27:06.001Z</time></trkpt><trkpt lat="44.98323450762786" lon="12.006224045451843"><ele>1.0</ele><time>2026-04-19T08:27:07.001Z</time></trkpt><trkpt lat="44.98320736328259" lon="12.006474481334598"><ele>2.0</ele><time>2026-04-19T08:27:08.001Z</time></trkpt><trkpt lat="44.98317973286851" lon="12.006727263994131"><ele>2.333333333333333</ele><time>2026-04-19T08:27:09.001Z</time></trkpt><trkpt lat="44.98315743166655" lon="12.0069693292181"><ele>2.6666666666666665</ele><time>2026-04-19T08:27:10.001Z</time></trkpt><trkpt lat="44.98313833828497" lon="12.007204407811864"><ele>3.0</ele><time>2026-04-19T08:27:11.001Z</time></trkpt><trkpt lat="44.983121569212656" lon="12.007446353902084"><ele>2.6666666666666665</ele><time>2026-04-19T08:27:12.001Z</time></trkpt><trkpt lat="44.98311354901537" lon="12.007697718999498"><ele>2.333333333333333</ele><time>2026-04-19T08:27:13.001Z</time></trkpt><trkpt lat="44.98311651509994" lon="12.007954735371898"><ele>2.0</ele><time>2026-04-19T08:27:14.001Z</time></trkpt><trkpt lat="44.98312378174482" lon="12.008215708569624"><ele>2.6666666666666665</ele><time>2026-04-19T08:27:15.001Z</time></trkpt><trkpt lat="44.98313285973433" lon="12.008477667348505"><ele>3.333333333333333</ele><time>2026-04-19T08:27:16.001Z</time></trkpt><trkpt lat="44.98313719729176" lon="12.00872104745716"><ele>4.0</ele><time>2026-04-19T08:27:17.001Z</time></trkpt><trkpt lat="44.98313984175278" lon="12.008955460135596"><ele>4.333333333333333</ele><time>2026-04-19T08:27:18.001Z</time></trkpt><trkpt lat="44.98314501922084" lon="12.009190038189793"><ele>4.666666666666667</ele><time>2026-04-19T08:27:19.001Z</time></trkpt><trkpt lat="44.983150350699354" lon="12.0094224717836"><ele>5.0</ele><time>2026-04-19T08:27:20.001Z</time></trkpt><trkpt lat="44.98315723106769" lon="12.009657895101709"><ele>5.0</ele><time>2026-04-19T08:27:21.001Z</time></trkpt><trkpt lat="44.98317941513644" lon="12.009897507379579"><ele>5.0</ele><time>2026-04-19T08:27:22.001Z</time></trkpt><trkpt lat="44.98322015491302" lon="12.0101498698151"><ele>5.0</ele><time>2026-04-19T08:27:23.001Z</time></trkpt><trkpt lat="44.98327579288605" lon="12.010425172451447"><ele>4.666666666666667</ele><time>2026-04-19T08:27:24.001Z</time></trkpt><trkpt lat="44.98332750977434" lon="12.010683857589282"><ele>4.333333333333333</ele><time>2026-04-19T08:27:25.001Z</time></trkpt><trkpt lat="44.98337941242357" lon="12.010939066669431"><ele>4.0</ele><time>2026-04-19T08:27:26.001Z</time></trkpt><trkpt lat="44.98342948945345" lon="12.01119114628653"><ele>2.333333333333333</ele><time>2026-04-19T08:27:27.001Z</time></trkpt><trkpt lat="44.9834787943794" lon="12.011444864126375"><ele>0.6666666666666666</ele><time>2026-04-19T08:27:28.001Z</time></trkpt><trkpt lat="44.98352606343238" lon="12.011691395246007"><ele>-1.0</ele><time>2026-04-19T08:27:29.001Z</time></trkpt><trkpt lat="44.98357166658764" lon="12.011934044996922"><ele>-1.0</ele><time>2026-04-19T08:27:30.001Z</time></trkpt><trkpt lat="44.98361798857154" lon="12.012174828322882"><ele>-1.0</ele><time>2026-04-19T08:27:31.001Z</time></trkpt><trkpt lat="44.98366520337404" lon="12.012416807218928"><ele>-1.0</ele><time>2026-04-19T08:27:32.001Z</time></trkpt><trkpt lat="44.983713465713336" lon="12.012667964681029"><ele>-0.6666666666666666</ele><time>2026-04-19T08:27:33.001Z</time></trkpt><trkpt lat="44.983759286633344" lon="12.012908112401279"><ele>-0.3333333333333333</ele><time>2026-04-19T08:27:34.001Z</time></trkpt><trkpt lat="44.98380155034571" lon="12.013127847588674"><ele>0.0</ele><time>2026-04-19T08:27:35.001Z</time></trkpt><trkpt lat="44.983841394167094" lon="12.01332833394738"><ele>0.0</ele><time>2026-04-19T08:27:36.001Z</time></trkpt><trkpt lat="44.9838772352213" lon="12.013517967283354"><ele>0.0</ele><time>2026-04-19T08:27:37.001Z</time></trkpt><trkpt lat="44.983910755651515" lon="12.01370090574489"><ele>0.0</ele><time>2026-04-19T08:27:38.001Z</time></trkpt><trkpt lat="44.983945869253105" lon="12.013893712528123"><ele>0.0</ele><time>2026-04-19T08:27:39.001Z</time></trkpt><trkpt lat="44.98398606688455" lon="12.014115190938144"><ele>1.0</ele><time>2026-04-19T08:27:40.001Z</time></trkpt><trkpt lat="44.98402790611923" lon="12.014360104474104"><ele>2.0</ele><time>2026-04-19T08:27:41.001Z</time></trkpt><trkpt lat="44.98407303731473" lon="12.014616900313955"><ele>3.0</ele><time>2026-04-19T08:27:42.001Z</time></trkpt><trkpt lat="44.984115728660775" lon="12.014878209409236"><ele>3.666666666666667</ele><time>2026-04-19T08:27:43.001Z</time></trkpt><trkpt lat="44.9841496801132" lon="12.015132455767295"><ele>4.333333333333334</ele><time>2026-04-19T08:27:44.001Z</time></trkpt><trkpt lat="44.9841748175772" lon="12.01538357559195"><ele>5.0</ele><time>2026-04-19T08:27:45.001Z</time></trkpt><trkpt lat="44.9841974512004" lon="12.015634105538743"><ele>4.333333333333334</ele><time>2026-04-19T08:27:46.001Z</time></trkpt><trkpt lat="44.98421988658744" lon="12.015881987844846"><ele>3.666666666666667</ele><time>2026-04-19T08:27:47.001Z</time></trkpt><trkpt lat="44.984223955731906" lon="12.016132515887818"><ele>3.0</ele><time>2026-04-19T08:27:48.001Z</time></trkpt><trkpt lat="44.98425808479868" lon="12.016376078612184"><ele>3.0</ele><time>2026-04-19T08:27:49.001Z</time></trkpt><trkpt lat="44.9842710463767" lon="12.016602947000921"><ele>3.0</ele><time>2026-04-19T08:27:50.001Z</time></trkpt><trkpt lat="44.98428681965667" lon="12.01683961211863"><ele>3.0</ele><time>2026-04-19T08:27:51.001Z</time></trkpt><trkpt lat="44.98430579426263" lon="12.017087773787889"><ele>3.333333333333333</ele><time>2026-04-19T08:27:52.001Z</time></trkpt><trkpt lat="44.98432465221283" lon="12.017347444890321"><ele>3.6666666666666665</ele><time>2026-04-19T08:27:53.001Z</time></trkpt><trkpt lat="44.984344254313086" lon="12.017607525523614"><ele>4.0</ele><time>2026-04-19T08:27:54.001Z</time></trkpt><trkpt lat="44.98436398757277" lon="12.017862040914263"><ele>3.0</ele><time>2026-04-19T08:27:55.001Z</time></trkpt><trkpt lat="44.98438236898525" lon="12.018094010710954"><ele>2.0</ele><time>2026-04-19T08:27:56.001Z</time></trkpt><trkpt lat="44.98439949923876" lon="12.018314049057322"><ele>1.0</ele><time>2026-04-19T08:27:57.001Z</time></trkpt><trkpt lat="44.98441495549995" lon="12.018530057221893"><ele>1.0</ele><time>2026-04-19T08:27:58.001Z</time></trkpt><trkpt lat="44.98443229711682" lon="12.018754275518711"><ele>1.0</ele><time>2026-04-19T08:27:59.001Z</time></trkpt><trkpt lat="44.984451173205436" lon="12.018977880538248"><ele>1.0</ele><time>2026-04-19T08:28:00.001Z</time></trkpt><trkpt lat="44.984473487577475" lon="12.01921271671209"><ele>1.6666666666666665</ele><time>2026-04-19T08:28:01.001Z</time></trkpt><trkpt lat="44.9844999002785" lon="12.019455321860029"><ele>2.3333333333333335</ele><time>2026-04-19T08:28:02.001Z</time></trkpt><trkpt lat="44.984531265621605" lon="12.019693801516185"><ele>3.0</ele><time>2026-04-19T08:28:03.001Z</time></trkpt><trkpt lat="44.984571341987" lon="12.019932969256645"><ele>3.0</ele><time>2026-04-19T08:28:04.001Z</time></trkpt><trkpt lat="44.984622644166976" lon="12.020170251631097"><ele>3.0</ele><time>2026-04-19T08:28:05.001Z</time></trkpt><trkpt lat="44.98468314553083" lon="12.020398150610982"><ele>3.0</ele><time>2026-04-19T08:28:06.001Z</time></trkpt><trkpt lat="44.984751494778656" lon="12.02061958447492"><ele>3.333333333333333</ele><time>2026-04-19T08:28:07Z</time></trkpt><trkpt lat="44.9848255821077" lon="12.020836340571416"><ele>3.6666666666666665</ele><time>2026-04-19T08:28:08Z</time></trkpt><trkpt lat="44.98488783996288" lon="12.021064144007186"><ele>4.0</ele><time>2026-04-19T08:28:09Z</time></trkpt><trkpt lat="44.984973586848824" lon="12.0212590932654"><ele>3.5</ele><time>2026-04-19T08:28:10Z</time></trkpt><trkpt lat="44.98503026002137" lon="12.021453951745436"><ele>3.0</ele><time>2026-04-19T08:28:11Z</time></trkpt><trkpt lat="44.985070455393284" lon="12.02165131024969"><ele>2.5</ele><time>2026-04-19T08:28:12Z</time></trkpt><trkpt lat="44.98505697727387" lon="12.021862380252339"><ele>2.0</ele><time>2026-04-19T08:28:13Z</time></trkpt><trkpt lat="44.985034879402015" lon="12.022083982862968"><ele>2.0</ele><time>2026-04-19T08:28:14Z</time></trkpt><trkpt lat="44.985020303751156" lon="12.022319677806777"><ele>2.0</ele><time>2026-04-19T08:28:15Z</time></trkpt><trkpt lat="44.98498990404769" lon="12.02256026183693"><ele>2.0</ele><time>2026-04-19T08:28:16Z</time></trkpt><trkpt lat="44.98496024720374" lon="12.02281607313401"><ele>2.0</ele><time>2026-04-19T08:28:17Z</time></trkpt><trkpt lat="44.98492750893314" lon="12.023072947663302"><ele>2.0</ele><time>2026-04-19T08:28:18Z</time></trkpt><trkpt lat="44.984896306947306" lon="12.023320414229044"><ele>2.0</ele><time>2026-04-19T08:28:19Z</time></trkpt><trkpt lat="44.984868039512854" lon="12.023552265481959"><ele>2.0</ele><time>2026-04-19T08:28:20Z</time></trkpt><trkpt lat="44.98484072230759" lon="12.023780766476428"><ele>2.0</ele><time>2026-04-19T08:28:21Z</time></trkpt><trkpt lat="44.98481231989533" lon="12.02401519665907"><ele>2.0</ele><time>2026-04-19T08:28:22Z</time></trkpt><trkpt lat="44.984781299903474" lon="12.02425880955161"><ele>2.0</ele><time>2026-04-19T08:28:23Z</time></trkpt><trkpt lat="44.98474952228603" lon="12.024510486504333"><ele>2.0</ele><time>2026-04-19T08:28:24Z</time></trkpt><trkpt lat="44.98471699904525" lon="12.024764151554068"><ele>2.0</ele><time>2026-04-19T08:28:25Z</time></trkpt><trkpt lat="44.9846886512531" lon="12.025006057538477"><ele>2.0</ele><time>2026-04-19T08:28:26.001Z</time></trkpt><trkpt lat="44.9846630698502" lon="12.025253078005251"><ele>2.0</ele><time>2026-04-19T08:28:27.001Z</time></trkpt><trkpt lat="44.98463701881999" lon="12.02549602798545"><ele>2.0</ele><time>2026-04-19T08:28:28.001Z</time></trkpt><trkpt lat="44.98461187043321" lon="12.025737440585639"><ele>2.0</ele><time>2026-04-19T08:28:29.001Z</time></trkpt><trkpt lat="44.98459091878594" lon="12.025978309774029"><ele>2.0</ele><time>2026-04-19T08:28:30.001Z</time></trkpt><trkpt lat="44.98457974524895" lon="12.02621954457768"><ele>2.0</ele><time>2026-04-19T08:28:31.001Z</time></trkpt><trkpt lat="44.98458677244865" lon="12.026462360536826"><ele>2.0</ele><time>2026-04-19T08:28:32.001Z</time></trkpt><trkpt lat="44.984612195379896" lon="12.026706875860748"><ele>2.0</ele><time>2026-04-19T08:28:33.001Z</time></trkpt><trkpt lat="44.9846378795938" lon="12.026956931565275"><ele>2.0</ele><time>2026-04-19T08:28:34.001Z</time></trkpt><trkpt lat="44.98466220695718" lon="12.02720948735607"><ele>2.0</ele><time>2026-04-19T08:28:35.001Z</time></trkpt><trkpt lat="44.98468414760078" lon="12.027457986523757"><ele>2.0</ele><time>2026-04-19T08:28:36.001Z</time></trkpt><trkpt lat="44.984698940920566" lon="12.027699719913926"><ele>2.0</ele><time>2026-04-19T08:28:37.001Z</time></trkpt><trkpt lat="44.98470553271581" lon="12.027939965278383"><ele>2.333333333333333</ele><time>2026-04-19T08:28:38.001Z</time></trkpt><trkpt lat="44.98469931948507" lon="12.0281767568638"><ele>2.6666666666666665</ele><time>2026-04-19T08:28:39.001Z</time></trkpt><trkpt lat="44.984672217462204" lon="12.028408411928213"><ele>3.0</ele><time>2026-04-19T08:28:40.001Z</time></trkpt><trkpt lat="44.984629163331086" lon="12.028644318665622"><ele>3.0</ele><time>2026-04-19T08:28:41.001Z</time></trkpt><trkpt lat="44.984576127417505" lon="12.02888607847163"><ele>3.0</ele><time>2026-04-19T08:28:42.001Z</time></trkpt><trkpt lat="44.98452418809941" lon="12.029137776810629"><ele>3.0</ele><time>2026-04-19T08:28:43.001Z</time></trkpt><trkpt lat="44.98447441941602" lon="12.029387062095804"><ele>3.0</ele><time>2026-04-19T08:28:44.001Z</time></trkpt><trkpt lat="44.98442418824885" lon="12.029614445816188"><ele>3.0</ele><time>2026-04-19T08:28:45.001Z</time></trkpt><trkpt lat="44.984368706345926" lon="12.029820831810097"><ele>3.0</ele><time>2026-04-19T08:28:46.001Z</time></trkpt><trkpt lat="44.98430394921406" lon="12.030010624368547"><ele>3.0</ele><time>2026-04-19T08:28:47.001Z</time></trkpt><trkpt lat="44.984221898632896" lon="12.03018410912628"><ele>3.0</ele><time>2026-04-19T08:28:48.001Z</time></trkpt><trkpt lat="44.98412319986957" lon="12.030349237750393"><ele>3.0</ele><time>2026-04-19T08:28:49.001Z</time></trkpt><trkpt lat="44.98400467731169" lon="12.030514888271389"><ele>3.666666666666667</ele><time>2026-04-19T08:28:50.001Z</time></trkpt><trkpt lat="44.98387819719386" lon="12.030681581218424"><ele>4.333333333333334</ele><time>2026-04-19T08:28:51.001Z</time></trkpt><trkpt lat="44.98375388931057" lon="12.030845251471641"><ele>5.0</ele><time>2026-04-19T08:28:52.001Z</time></trkpt><trkpt lat="44.983632187396786" lon="12.030995609650782"><ele>5.0</ele><time>2026-04-19T08:28:53.001Z</time></trkpt><trkpt lat="44.98351142488382" lon="12.031144414512614"><ele>5.0</ele><time>2026-04-19T08:28:54.001Z</time></trkpt><trkpt lat="44.98338646504208" lon="12.031305045093914"><ele>5.0</ele><time>2026-04-19T08:28:55.001Z</time></trkpt><trkpt lat="44.983251575574045" lon="12.031472109325824"><ele>4.333333333333334</ele><time>2026-04-19T08:28:56.001Z</time></trkpt><trkpt lat="44.98309998637866" lon="12.031656679472832"><ele>3.666666666666667</ele><time>2026-04-19T08:28:57.001Z</time></trkpt><trkpt lat="44.98295233588349" lon="12.031833338686976"><ele>3.0</ele><time>2026-04-19T08:28:58.001Z</time></trkpt><trkpt lat="44.98281342071071" lon="12.031994923775713"><ele>3.0</ele><time>2026-04-19T08:28:59.001Z</time></trkpt><trkpt lat="44.982680597740455" lon="12.032144966320173"><ele>3.0</ele><time>2026-04-19T08:29:00.001Z</time></trkpt><trkpt lat="44.98254509534335" lon="12.032296874742418"><ele>3.0</ele><time>2026-04-19T08:29:01.001Z</time></trkpt><trkpt lat="44.98241216325507" lon="12.032447961740498"><ele>3.666666666666667</ele><time>2026-04-19T08:29:02.001Z</time></trkpt><trkpt lat="44.982285925033516" lon="12.03259187933996"><ele>4.333333333333334</ele><time>2026-04-19T08:29:03.001Z</time></trkpt><trkpt lat="44.98215800518645" lon="12.032735455315782"><ele>5.0</ele><time>2026-04-19T08:29:04.001Z</time></trkpt><trkpt lat="44.98202913877822" lon="12.032878681325986"><ele>5.0</ele><time>2026-04-19T08:29:05.001Z</time></trkpt><trkpt lat="44.98190683145775" lon="12.033016324915856"><ele>5.0</ele><time>2026-04-19T08:29:06.001Z</time></trkpt><trkpt lat="44.981787289037754" lon="12.033150746088557"><ele>5.0</ele><time>2026-04-19T08:29:07.001Z</time></trkpt><trkpt lat="44.98166221402357" lon="12.033290579782058"><ele>5.0</ele><time>2026-04-19T08:29:08.001Z</time></trkpt><trkpt lat="44.9815363264783" lon="12.033431391184285"><ele>5.0</ele><time>2026-04-19T08:29:09.001Z</time></trkpt><trkpt lat="44.981413362812724" lon="12.033569480197134"><ele>5.0</ele><time>2026-04-19T08:29:10.001Z</time></trkpt><trkpt lat="44.98129256746994" lon="12.033705656505825"><ele>5.0</ele><time>2026-04-19T08:29:11.001Z</time></trkpt><trkpt lat="44.981169857103936" lon="12.033833250555166"><ele>5.0</ele><time>2026-04-19T08:29:12.001Z</time></trkpt><trkpt lat="44.98103383907965" lon="12.033944315021763"><ele>5.0</ele><time>2026-04-19T08:29:13.001Z</time></trkpt><trkpt lat="44.98088233760532" lon="12.034035852279361"><ele>4.333333333333334</ele><time>2026-04-19T08:29:14.001Z</time></trkpt><trkpt lat="44.9807196025003" lon="12.03411013498738"><ele>3.666666666666667</ele><time>2026-04-19T08:29:15.001Z</time></trkpt><trkpt lat="44.98055620137932" lon="12.034165300307647"><ele>3.0</ele><time>2026-04-19T08:29:16.001Z</time></trkpt><trkpt lat="44.980392950461784" lon="12.034224116476496"><ele>3.0</ele><time>2026-04-19T08:29:17.001Z</time></trkpt><trkpt lat="44.98022886032534" lon="12.034292818960175"><ele>3.0</ele><time>2026-04-19T08:29:18.001Z</time></trkpt><trkpt lat="44.98006821599729" lon="12.03436041408201"><ele>3.0</ele><time>2026-04-19T08:29:19.001Z</time></trkpt><trkpt lat="44.979918227015794" lon="12.034424804758892"><ele>3.25</ele><time>2026-04-19T08:29:20.001Z</time></trkpt><trkpt lat="44.97977630176397" lon="12.034493954090335"><ele>3.5</ele><time>2026-04-19T08:29:21.001Z</time></trkpt><trkpt lat="44.979639808024906" lon="12.03457738697477"><ele>3.75</ele><time>2026-04-19T08:29:22.001Z</time></trkpt><trkpt lat="44.97950905814591" lon="12.034680755686157"><ele>4.0</ele><time>2026-04-19T08:29:23.001Z</time></trkpt><trkpt lat="44.979392519886204" lon="12.034814404785681"><ele>3.0</ele><time>2026-04-19T08:29:24.001Z</time></trkpt><trkpt lat="44.97928703208156" lon="12.034975709913088"><ele>2.0</ele><time>2026-04-19T08:29:25.001Z</time></trkpt><trkpt lat="44.97919806394097" lon="12.035153896919542"><ele>1.0</ele><time>2026-04-19T08:29:26.001Z</time></trkpt><trkpt lat="44.97912324043423" lon="12.035355381342747"><ele>1.0</ele><time>2026-04-19T08:29:27.001Z</time></trkpt><trkpt lat="44.97905324285257" lon="12.035586322964079"><ele>1.0</ele><time>2026-04-19T08:29:28.001Z</time></trkpt><trkpt lat="44.97899271766593" lon="12.035819887942758"><ele>1.0</ele><time>2026-04-19T08:29:29.001Z</time></trkpt><trkpt lat="44.978940667076664" lon="12.036066229701294"><ele>1.0</ele><time>2026-04-19T08:29:30.001Z</time></trkpt><trkpt lat="44.97889376136633" lon="12.036325723010311"><ele>1.0</ele><time>2026-04-19T08:29:31.001Z</time></trkpt><trkpt lat="44.97885235558276" lon="12.036572350869022"><ele>1.0</ele><time>2026-04-19T08:29:32.001Z</time></trkpt><trkpt lat="44.97881410752151" lon="12.036816971822812"><ele>1.0</ele><time>2026-04-19T08:29:33.001Z</time></trkpt><trkpt lat="44.978778743978076" lon="12.03706970984612"><ele>1.0</ele><time>2026-04-19T08:29:34.001Z</time></trkpt><trkpt lat="44.97874606702603" lon="12.037315590080631"><ele>1.0</ele><time>2026-04-19T08:29:35.001Z</time></trkpt><trkpt lat="44.978714271831564" lon="12.037553960358789"><ele>1.0</ele><time>2026-04-19T08:29:36.001Z</time></trkpt><trkpt lat="44.97868670562446" lon="12.037789148789626"><ele>1.0</ele><time>2026-04-19T08:29:37.001Z</time></trkpt><trkpt lat="44.97865966000561" lon="12.038022716279055"><ele>1.0</ele><time>2026-04-19T08:29:38.001Z</time></trkpt><trkpt lat="44.97862854008492" lon="12.03825253225841"><ele>0.6666666666666666</ele><time>2026-04-19T08:29:39.001Z</time></trkpt><trkpt lat="44.97859909784551" lon="12.038478568103333"><ele>0.3333333333333333</ele><time>2026-04-19T08:29:40.001Z</time></trkpt><trkpt lat="44.978565529300866" lon="12.038703292686495"><ele>0.0</ele><time>2026-04-19T08:29:41.001Z</time></trkpt><trkpt lat="44.97853205893935" lon="12.038930011061067"><ele>0.0</ele><time>2026-04-19T08:29:42.001Z</time></trkpt><trkpt lat="44.97849904785937" lon="12.039157757810752"><ele>0.0</ele><time>2026-04-19T08:29:43.001Z</time></trkpt><trkpt lat="44.97846875778908" lon="12.039392964237292"><ele>0.0</ele><time>2026-04-19T08:29:44.001Z</time></trkpt><trkpt lat="44.97843675099059" lon="12.039636234069912"><ele>0.0</ele><time>2026-04-19T08:29:45.001Z</time></trkpt><trkpt lat="44.97840441812932" lon="12.039881484333844"><ele>0.0</ele><time>2026-04-19T08:29:46.001Z</time></trkpt><trkpt lat="44.978374917913236" lon="12.040130037280058"><ele>0.0</ele><time>2026-04-19T08:29:47.001Z</time></trkpt><trkpt lat="44.97834770250108" lon="12.040373976918177"><ele>0.3333333333333333</ele><time>2026-04-19T08:29:48.001Z</time></trkpt><trkpt lat="44.97832276941936" lon="12.04062287101655"><ele>0.6666666666666666</ele><time>2026-04-19T08:29:49.001Z</time></trkpt><trkpt lat="44.97829989074219" lon="12.040879425636462"><ele>1.0</ele><time>2026-04-19T08:29:50.001Z</time></trkpt><trkpt lat="44.9782812177891" lon="12.041129849394936"><ele>1.0</ele><time>2026-04-19T08:29:51.001Z</time></trkpt><trkpt lat="44.97826434145888" lon="12.041379641537826"><ele>1.0</ele><time>2026-04-19T08:29:52.001Z</time></trkpt><trkpt lat="44.97825682792878" lon="12.041635798151546"><ele>1.0</ele><time>2026-04-19T08:29:53.001Z</time></trkpt><trkpt lat="44.97825071224914" lon="12.04189491856337"><ele>0.6666666666666666</ele><time>2026-04-19T08:29:54.001Z</time></trkpt><trkpt lat="44.9782455331851" lon="12.042143404280354"><ele>0.3333333333333333</ele><time>2026-04-19T08:29:55.001Z</time></trkpt><trkpt lat="44.97824290691869" lon="12.042396579511475"><ele>0.0</ele><time>2026-04-19T08:29:56.001Z</time></trkpt><trkpt lat="44.97824354425493" lon="12.042646978328818"><ele>0.0</ele><time>2026-04-19T08:29:57.001Z</time></trkpt><trkpt lat="44.978246557325804" lon="12.042897503419518"><ele>0.0</ele><time>2026-04-19T08:29:58.001Z</time></trkpt><trkpt lat="44.978251624769186" lon="12.043142236827675"><ele>0.0</ele><time>2026-04-19T08:29:59.001Z</time></trkpt><trkpt lat="44.97825518678977" lon="12.043379661299666"><ele>-0.3333333333333333</ele><time>2026-04-19T08:30:00.001Z</time></trkpt><trkpt lat="44.978264376227735" lon="12.043611253293127"><ele>-0.6666666666666666</ele><time>2026-04-19T08:30:01.001Z</time></trkpt><trkpt lat="44.97827819883964" lon="12.043858341066542"><ele>-1.0</ele><time>2026-04-19T08:30:02.001Z</time></trkpt><trkpt lat="44.97829616146204" lon="12.044115805492032"><ele>-1.0</ele><time>2026-04-19T08:30:03.001Z</time></trkpt><trkpt lat="44.97831691635116" lon="12.044364541496993"><ele>-1.0</ele><time>2026-04-19T08:30:04.001Z</time></trkpt><trkpt lat="44.97834077720984" lon="12.044618036624888"><ele>-1.0</ele><time>2026-04-19T08:30:05.001Z</time></trkpt><trkpt lat="44.97836530028477" lon="12.044863032167"><ele>-1.3333333333333333</ele><time>2026-04-19T08:30:06.001Z</time></trkpt><trkpt lat="44.97839032307546" lon="12.045101872345128"><ele>-1.6666666666666665</ele><time>2026-04-19T08:30:07.001Z</time></trkpt><trkpt lat="44.97841829785735" lon="12.045328863188503"><ele>-2.0</ele><time>2026-04-19T08:30:08.001Z</time></trkpt><trkpt lat="44.978454386693215" lon="12.045545503078284"><ele>-2.0</ele><time>2026-04-19T08:30:09.001Z</time></trkpt><trkpt lat="44.978510434166644" lon="12.04575638220813"><ele>-2.0</ele><time>2026-04-19T08:30:10.001Z</time></trkpt><trkpt lat="44.97857488001991" lon="12.045983333695037"><ele>-2.0</ele><time>2026-04-19T08:30:11.001Z</time></trkpt><trkpt lat="44.978646278719566" lon="12.046220498615495"><ele>-2.0</ele><time>2026-04-19T08:30:12.001Z</time></trkpt><trkpt lat="44.978715829262796" lon="12.046464223787765"><ele>-2.0</ele><time>2026-04-19T08:30:13.001Z</time></trkpt><trkpt lat="44.9787711809106" lon="12.046707353791245"><ele>-2.0</ele><time>2026-04-19T08:30:14.001Z</time></trkpt><trkpt lat="44.978816103032536" lon="12.046941663993184"><ele>-1.6666666666666665</ele><time>2026-04-19T08:30:15.001Z</time></trkpt><trkpt lat="44.97883783525378" lon="12.047183685980146"><ele>-1.3333333333333333</ele><time>2026-04-19T08:30:16.001Z</time></trkpt><trkpt lat="44.97888694635876" lon="12.04742193363234"><ele>-1.0</ele><time>2026-04-19T08:30:17.001Z</time></trkpt><trkpt lat="44.97891717256982" lon="12.047669817210696"><ele>-0.6666666666666666</ele><time>2026-04-19T08:30:18.001Z</time></trkpt><trkpt lat="44.97894166720173" lon="12.04791977760843"><ele>-0.3333333333333333</ele><time>2026-04-19T08:30:19.001Z</time></trkpt><trkpt lat="44.97896216181864" lon="12.048172033753179"><ele>0.0</ele><time>2026-04-19T08:30:20.001Z</time></trkpt><trkpt lat="44.978975636398225" lon="12.048419768791247"><ele>0.0</ele><time>2026-04-19T08:30:21.001Z</time></trkpt><trkpt lat="44.97898737623329" lon="12.048662723816493"><ele>0.0</ele><time>2026-04-19T08:30:22.001Z</time></trkpt><trkpt lat="44.9789999279562" lon="12.04890780356012"><ele>0.0</ele><time>2026-04-19T08:30:23.001Z</time></trkpt><trkpt lat="44.97901496308476" lon="12.049158204968696"><ele>0.0</ele><time>2026-04-19T08:30:24.001Z</time></trkpt><trkpt lat="44.979033221099975" lon="12.049404277655032"><ele>0.0</ele><time>2026-04-19T08:30:25.001Z</time></trkpt><trkpt lat="44.97905564473636" lon="12.049650359257006"><ele>0.0</ele><time>2026-04-19T08:30:26.001Z</time></trkpt><trkpt lat="44.97907925092253" lon="12.049896172518709"><ele>0.3333333333333333</ele><time>2026-04-19T08:30:27.001Z</time></trkpt><trkpt lat="44.979103424551546" lon="12.050144354455446"><ele>0.6666666666666666</ele><time>2026-04-19T08:30:28.001Z</time></trkpt><trkpt lat="44.979125592107074" lon="12.050390390313039"><ele>1.0</ele><time>2026-04-19T08:30:29.001Z</time></trkpt><trkpt lat="44.97914341109664" lon="12.05063481564097"><ele>1.0</ele><time>2026-04-19T08:30:30.001Z</time></trkpt><trkpt lat="44.97915717563522" lon="12.050881571070166"><ele>1.0</ele><time>2026-04-19T08:30:31.001Z</time></trkpt><trkpt lat="44.97917057634629" lon="12.051129583106682"><ele>1.0</ele><time>2026-04-19T08:30:32.001Z</time></trkpt><trkpt lat="44.979183266952035" lon="12.051381457107347"><ele>0.6666666666666666</ele><time>2026-04-19T08:30:33.001Z</time></trkpt><trkpt lat="44.97919229494002" lon="12.05162394773557"><ele>0.3333333333333333</ele><time>2026-04-19T08:30:34.001Z</time></trkpt><trkpt lat="44.979200118807164" lon="12.051861912148313"><ele>0.0</ele><time>2026-04-19T08:30:35.001Z</time></trkpt><trkpt lat="44.97920885169122" lon="12.052098424642235"><ele>0.0</ele><time>2026-04-19T08:30:36.001Z</time></trkpt><trkpt lat="44.97921783470935" lon="12.052339650853312"><ele>0.0</ele><time>2026-04-19T08:30:37.001Z</time></trkpt><trkpt lat="44.979228336390996" lon="12.052586605487193"><ele>0.0</ele><time>2026-04-19T08:30:38.001Z</time></trkpt><trkpt lat="44.979239887565846" lon="12.052825224860179"><ele>-0.6666666666666666</ele><time>2026-04-19T08:30:39.001Z</time></trkpt><trkpt lat="44.979249318967675" lon="12.053064741143297"><ele>-1.3333333333333333</ele><time>2026-04-19T08:30:40.001Z</time></trkpt><trkpt lat="44.97925895948518" lon="12.053297816242402"><ele>-2.0</ele><time>2026-04-19T08:30:41.001Z</time></trkpt><trkpt lat="44.979268030274056" lon="12.05352916638926"><ele>-2.0</ele><time>2026-04-19T08:30:42.001Z</time></trkpt><trkpt lat="44.979275818602794" lon="12.05376756767704"><ele>-2.0</ele><time>2026-04-19T08:30:43.001Z</time></trkpt><trkpt lat="44.97928179708089" lon="12.054013729810142"><ele>-2.0</ele><time>2026-04-19T08:30:44.001Z</time></trkpt><trkpt lat="44.979283338021965" lon="12.054267399916526"><ele>-1.6666666666666665</ele><time>2026-04-19T08:30:45.001Z</time></trkpt><trkpt lat="44.979277972458405" lon="12.054516992876959"><ele>-1.3333333333333333</ele><time>2026-04-19T08:30:46.001Z</time></trkpt><trkpt lat="44.97926850934851" lon="12.054766053147628"><ele>-1.0</ele><time>2026-04-19T08:30:47.001Z</time></trkpt><trkpt lat="44.97925737712526" lon="12.055007358841177"><ele>-1.6666666666666665</ele><time>2026-04-19T08:30:48.001Z</time></trkpt><trkpt lat="44.97924610500074" lon="12.05525337457662"><ele>-2.3333333333333335</ele><time>2026-04-19T08:30:49.001Z</time></trkpt><trkpt lat="44.979235159897115" lon="12.05549613074512"><ele>-3.0</ele><time>2026-04-19T08:30:50.001Z</time></trkpt><trkpt lat="44.97922547283003" lon="12.055740946905892"><ele>-3.0</ele><time>2026-04-19T08:30:51.001Z</time></trkpt><trkpt lat="44.979214241610315" lon="12.055991616605775"><ele>-3.0</ele><time>2026-04-19T08:30:52.001Z</time></trkpt><trkpt lat="44.97920329525284" lon="12.056243859517553"><ele>-3.0</ele><time>2026-04-19T08:30:53.001Z</time></trkpt><trkpt lat="44.979194166841204" lon="12.05649340006059"><ele>-3.333333333333333</ele><time>2026-04-19T08:30:54.001Z</time></trkpt><trkpt lat="44.97918832614402" lon="12.056736586271755"><ele>-3.6666666666666665</ele><time>2026-04-19T08:30:55.001Z</time></trkpt><trkpt lat="44.97918850531731" lon="12.05697773452441"><ele>-4.0</ele><time>2026-04-19T08:30:56.001Z</time></trkpt><trkpt lat="44.97919635984641" lon="12.057223767747642"><ele>-4.0</ele><time>2026-04-19T08:30:57.001Z</time></trkpt><trkpt lat="44.979212575841835" lon="12.057471585342132"><ele>-4.0</ele><time>2026-04-19T08:30:58.001Z</time></trkpt><trkpt lat="44.97923869752651" lon="12.057719975304067"><ele>-4.0</ele><time>2026-04-19T08:30:59.001Z</time></trkpt><trkpt lat="44.979270037526625" lon="12.057973637065363"><ele>-4.0</ele><time>2026-04-19T08:31:00.001Z</time></trkpt><trkpt lat="44.97930257339612" lon="12.058213099594035"><ele>-4.0</ele><time>2026-04-19T08:31:01.001Z</time></trkpt><trkpt lat="44.97933260836166" lon="12.058445558431425"><ele>-4.0</ele><time>2026-04-19T08:31:02.001Z</time></trkpt><trkpt lat="44.97935918500375" lon="12.058674287031701"><ele>-4.0</ele><time>2026-04-19T08:31:03.001Z</time></trkpt><trkpt lat="44.97938278055075" lon="12.058897477956755"><ele>-4.0</ele><time>2026-04-19T08:31:04.001Z</time></trkpt><trkpt lat="44.979402946616254" lon="12.059127548714132"><ele>-4.0</ele><time>2026-04-19T08:31:05.001Z</time></trkpt><trkpt lat="44.97942005276362" lon="12.059361549656431"><ele>-3.6666666666666665</ele><time>2026-04-19T08:31:06.001Z</time></trkpt><trkpt lat="44.97943639046703" lon="12.059594412133738"><ele>-3.333333333333333</ele><time>2026-04-19T08:31:07.001Z</time></trkpt><trkpt lat="44.979452701697305" lon="12.059812758357168"><ele>-3.0</ele><time>2026-04-19T08:31:08.001Z</time></trkpt><trkpt lat="44.97946729609573" lon="12.060021831760194"><ele>-2.6666666666666665</ele><time>2026-04-19T08:31:09.001Z</time></trkpt><trkpt lat="44.979480398611784" lon="12.060232363462116"><ele>-2.333333333333333</ele><time>2026-04-19T08:31:10.001Z</time></trkpt><trkpt lat="44.97949165895689" lon="12.060446921432169"><ele>-2.0</ele><time>2026-04-19T08:31:11.001Z</time></trkpt><trkpt lat="44.97950457415116" lon="12.060668071920697"><ele>-2.0</ele><time>2026-04-19T08:31:12.001Z</time></trkpt><trkpt lat="44.97951889080043" lon="12.060896200271348"><ele>-2.0</ele><time>2026-04-19T08:31:13.001Z</time></trkpt><trkpt lat="44.97953466637893" lon="12.06112156693666"><ele>-2.0</ele><time>2026-04-19T08:31:14.001Z</time></trkpt><trkpt lat="44.97955045714657" lon="12.061344394566843"><ele>-2.0</ele><time>2026-04-19T08:31:15.001Z</time></trkpt><trkpt lat="44.97956701243862" lon="12.061566746908706"><ele>-2.0</ele><time>2026-04-19T08:31:16.001Z</time></trkpt><trkpt lat="44.9795834356296" lon="12.061787400269488"><ele>-2.0</ele><time>2026-04-19T08:31:17.001Z</time></trkpt><trkpt lat="44.97959816154717" lon="12.062008829146599"><ele>-1.75</ele><time>2026-04-19T08:31:18.001Z</time></trkpt><trkpt lat="44.97961346249246" lon="12.062225000167503"><ele>-1.5</ele><time>2026-04-19T08:31:19.001Z</time></trkpt><trkpt lat="44.97962731035684" lon="12.06242937893794"><ele>-1.25</ele><time>2026-04-19T08:31:20.001Z</time></trkpt><trkpt lat="44.9796398116276" lon="12.062631536949233"><ele>-1.0</ele><time>2026-04-19T08:31:21.001Z</time></trkpt><trkpt lat="44.97965224752396" lon="12.062840635076968"><ele>-0.75</ele><time>2026-04-19T08:31:22.001Z</time></trkpt><trkpt lat="44.979663990292295" lon="12.063051616418141"><ele>-0.5</ele><time>2026-04-19T08:31:23.001Z</time></trkpt><trkpt lat="44.979671747369586" lon="12.063252934392578"><ele>-0.25</ele><time>2026-04-19T08:31:24.001Z</time></trkpt><trkpt lat="44.97967300598656" lon="12.063453447256844"><ele>0.0</ele><time>2026-04-19T08:31:25.001Z</time></trkpt><trkpt lat="44.979670666010946" lon="12.063660686615627"><ele>0.0</ele><time>2026-04-19T08:31:26.001Z</time></trkpt><trkpt lat="44.97966785183534" lon="12.063866977513246"><ele>0.0</ele><time>2026-04-19T08:31:27.001Z</time></trkpt><trkpt lat="44.97966433079571" lon="12.064067352637567"><ele>0.0</ele><time>2026-04-19T08:31:28.001Z</time></trkpt><trkpt lat="44.97966117187209" lon="12.064270165113053"><ele>0.0</ele><time>2026-04-19T08:31:29.001Z</time></trkpt><trkpt lat="44.97965917331949" lon="12.064470754839782"><ele>0.0</ele><time>2026-04-19T08:31:30.001Z</time></trkpt><trkpt lat="44.97965823357924" lon="12.064670378601253"><ele>0.0</ele><time>2026-04-19T08:31:31.001Z</time></trkpt><trkpt lat="44.97965703909657" lon="12.064863284487654"><ele>0.0</ele><time>2026-04-19T08:31:32.001Z</time></trkpt><trkpt lat="44.979656402901" lon="12.065047884506724"><ele>0.0</ele><time>2026-04-19T08:31:33.001Z</time></trkpt><trkpt lat="44.97965499212531" lon="12.065229970398553"><ele>-0.25</ele><time>2026-04-19T08:31:34.001Z</time></trkpt><trkpt lat="44.97965263487376" lon="12.065415185101493"><ele>-0.5</ele><time>2026-04-19T08:31:35.001Z</time></trkpt><trkpt lat="44.97965140124941" lon="12.065605855248544"><ele>-0.75</ele><time>2026-04-19T08:31:36.001Z</time></trkpt><trkpt lat="44.9796509922342" lon="12.06579658366332"><ele>-1.0</ele><time>2026-04-19T08:31:37.001Z</time></trkpt><trkpt lat="44.97965158314073" lon="12.065981301847671"><ele>-1.0</ele><time>2026-04-19T08:31:38.001Z</time></trkpt><trkpt lat="44.97965838875977" lon="12.066155548610537"><ele>-1.0</ele><time>2026-04-19T08:31:39.001Z</time></trkpt><trkpt lat="44.97966824456024" lon="12.06632318594444"><ele>-1.0</ele><time>2026-04-19T08:31:40.001Z</time></trkpt><trkpt lat="44.979680649815954" lon="12.066489340300675"><ele>-1.0</ele><time>2026-04-19T08:31:41.001Z</time></trkpt><trkpt lat="44.97969394744264" lon="12.066653553725574"><ele>-0.75</ele><time>2026-04-19T08:31:42.001Z</time></trkpt><trkpt lat="44.979708679865716" lon="12.066823571527054"><ele>-0.5</ele><time>2026-04-19T08:31:43.001Z</time></trkpt><trkpt lat="44.979726054124555" lon="12.066997624774016"><ele>-0.25</ele><time>2026-04-19T08:31:44.001Z</time></trkpt><trkpt lat="44.97974593221448" lon="12.067174928399231"><ele>0.0</ele><time>2026-04-19T08:31:45.001Z</time></trkpt><trkpt lat="44.979764913265086" lon="12.067347646103473"><ele>0.0</ele><time>2026-04-19T08:31:46.001Z</time></trkpt><trkpt lat="44.979780818528035" lon="12.067509503205605"><ele>0.0</ele><time>2026-04-19T08:31:47.001Z</time></trkpt><trkpt lat="44.97979740053787" lon="12.067662762178509"><ele>0.0</ele><time>2026-04-19T08:31:48.001Z</time></trkpt><trkpt lat="44.97979620084437" lon="12.067808278280886"><ele>0.0</ele><time>2026-04-19T08:31:49.001Z</time></trkpt><trkpt lat="44.97980757194443" lon="12.067937026499605"><ele>0.0</ele><time>2026-04-19T08:31:50.001Z</time></trkpt><trkpt lat="44.97981829085508" lon="12.06805846313003"><ele>0.0</ele><time>2026-04-19T08:31:51.001Z</time></trkpt><trkpt lat="44.97983088379996" lon="12.06818455383042"><ele>0.0</ele><time>2026-04-19T08:31:52.001Z</time></trkpt><trkpt lat="44.97992896693382" lon="12.068287499381556"><ele>0.0</ele><time>2026-04-19T08:31:53.001Z</time></trkpt><trkpt lat="44.97995645603165" lon="12.068404538198061"><ele>0.0</ele><time>2026-04-19T08:31:54.001Z</time></trkpt><trkpt lat="44.97998494178254" lon="12.068523293228314"><ele>0.0</ele><time>2026-04-19T08:31:55.001Z</time></trkpt><trkpt lat="44.98001748913177" lon="12.068637738441334"><ele>0.0</ele><time>2026-04-19T08:31:56.001Z</time></trkpt><trkpt lat="44.98005818973559" lon="12.068750372629225"><ele>0.0</ele><time>2026-04-19T08:31:57.001Z</time></trkpt><trkpt lat="44.980105998665074" lon="12.068862206248248"><ele>0.0</ele><time>2026-04-19T08:31:58.001Z</time></trkpt><trkpt lat="44.980152636869875" lon="12.068973973053033"><ele>0.0</ele><time>2026-04-19T08:31:59.001Z</time></trkpt><trkpt lat="44.980202465166066" lon="12.069091500589607"><ele>0.0</ele><time>2026-04-19T08:32:00.001Z</time></trkpt><trkpt lat="44.98025122487027" lon="12.069218407735711"><ele>0.0</ele><time>2026-04-19T08:32:01.001Z</time></trkpt><trkpt lat="44.980303236558086" lon="12.06935198405506"><ele>0.0</ele><time>2026-04-19T08:32:02.001Z</time></trkpt><trkpt lat="44.980356492496426" lon="12.069486722071298"><ele>0.0</ele><time>2026-04-19T08:32:03.001Z</time></trkpt><trkpt lat="44.98040921434301" lon="12.069622207490637"><ele>0.0</ele><time>2026-04-19T08:32:04.001Z</time></trkpt><trkpt lat="44.98045935255416" lon="12.069759458711221"><ele>0.0</ele><time>2026-04-19T08:32:05.001Z</time></trkpt><trkpt lat="44.980510155469865" lon="12.069899402071263"><ele>0.2</ele><time>2026-04-19T08:32:06.001Z</time></trkpt><trkpt lat="44.98056138053984" lon="12.070037960465166"><ele>0.4</ele><time>2026-04-19T08:32:07.001Z</time></trkpt><trkpt lat="44.98061241125785" lon="12.07017597384725"><ele>0.6000000000000001</ele><time>2026-04-19T08:32:08.001Z</time></trkpt><trkpt lat="44.98066039822866" lon="12.070309420844051"><ele>0.8</ele><time>2026-04-19T08:32:09.001Z</time></trkpt><trkpt lat="44.980709277603935" lon="12.070421611726768"><ele>1.0</ele><time>2026-04-19T08:32:10.001Z</time></trkpt><trkpt lat="44.980773411733765" lon="12.07051547112551"><ele>1.0</ele><time>2026-04-19T08:32:11.001Z</time></trkpt><trkpt lat="44.9808586386126" lon="12.070558592857191"><ele>1.0</ele><time>2026-04-19T08:32:12.001Z</time></trkpt><trkpt lat="44.98095304001665" lon="12.070570504034137"><ele>1.0</ele><time>2026-04-19T08:32:13.001Z</time></trkpt><trkpt lat="44.98105271911203" lon="12.070578916071002"><ele>1.0</ele><time>2026-04-19T08:32:14.001Z</time></trkpt><trkpt lat="44.981152950954154" lon="12.070600486626066"><ele>1.0</ele><time>2026-04-19T08:32:15.001Z</time></trkpt><trkpt lat="44.98125530992796" lon="12.070619982594222"><ele>1.0</ele><time>2026-04-19T08:32:16.001Z</time></trkpt><trkpt lat="44.98135629470356" lon="12.070629147505665"><ele>1.0</ele><time>2026-04-19T08:32:17.001Z</time></trkpt><trkpt lat="44.98145726829776" lon="12.070634453901707"><ele>1.0</ele><time>2026-04-19T08:32:18.001Z</time></trkpt><trkpt lat="44.981557131793856" lon="12.070630220942437"><ele>1.0</ele><time>2026-04-19T08:32:19.001Z</time></trkpt><trkpt lat="44.98165864185454" lon="12.070625873677063"><ele>1.0</ele><time>2026-04-19T08:32:20.001Z</time></trkpt><trkpt lat="44.981767584607915" lon="12.070624116122541"><ele>0.75</ele><time>2026-04-19T08:32:21.001Z</time></trkpt><trkpt lat="44.98188237222023" lon="12.070618157004178"><ele>0.5</ele><time>2026-04-19T08:32:22.001Z</time></trkpt><trkpt lat="44.98199947411263" lon="12.070613450285952"><ele>0.25</ele><time>2026-04-19T08:32:23.001Z</time></trkpt><trkpt lat="44.98211372185033" lon="12.070607743385368"><ele>0.0</ele><time>2026-04-19T08:32:24.001Z</time></trkpt><trkpt lat="44.98221907556007" lon="12.070602858072233"><ele>0.0</ele><time>2026-04-19T08:32:25.001Z</time></trkpt><trkpt lat="44.98232308118948" lon="12.070600883575757"><ele>0.0</ele><time>2026-04-19T08:32:26.001Z</time></trkpt><trkpt lat="44.98242279048366" lon="12.070600845383744"><ele>0.0</ele><time>2026-04-19T08:32:27.001Z</time></trkpt><trkpt lat="44.982522181447216" lon="12.070599942009768"><ele>0.0</ele><time>2026-04-19T08:32:28.001Z</time></trkpt><trkpt lat="44.98262185356833" lon="12.070597936541503"><ele>0.0</ele><time>2026-04-19T08:32:29.001Z</time></trkpt><trkpt lat="44.98272586511576" lon="12.070590780371056"><ele>-0.4</ele><time>2026-04-19T08:32:30.001Z</time></trkpt><trkpt lat="44.98283437699021" lon="12.070582506729737"><ele>-0.8</ele><time>2026-04-19T08:32:31.001Z</time></trkpt><trkpt lat="44.9829444709492" lon="12.070571416702078"><ele>-1.2000000000000002</ele><time>2026-04-19T08:32:32.001Z</time></trkpt><trkpt lat="44.98305323121994" lon="12.070563121611182"><ele>-1.6</ele><time>2026-04-19T08:32:33.001Z</time></trkpt><trkpt lat="44.983160230318084" lon="12.070522073037377"><ele>-2.0</ele><time>2026-04-19T08:32:34.001Z</time></trkpt><trkpt lat="44.98326987218234" lon="12.070488010760586"><ele>-1.8</ele><time>2026-04-19T08:32:35.001Z</time></trkpt><trkpt lat="44.98338433975454" lon="12.07047234879501"><ele>-1.6</ele><time>2026-04-19T08:32:36.001Z</time></trkpt><trkpt lat="44.98349418216272" lon="12.070435266158164"><ele>-1.4000000000000001</ele><time>2026-04-19T08:32:37.001Z</time></trkpt><trkpt lat="44.9835900271831" lon="12.070378097817223"><ele>-1.2000000000000002</ele><time>2026-04-19T08:32:38.001Z</time></trkpt><trkpt lat="44.983690410724904" lon="12.07034256779433"><ele>-1.0</ele><time>2026-04-19T08:32:39.001Z</time></trkpt><trkpt lat="44.98379822840361" lon="12.070335323904937"><ele>-1.0</ele><time>2026-04-19T08:32:40.001Z</time></trkpt><trkpt lat="44.98391242737117" lon="12.070336551440903"><ele>-1.0</ele><time>2026-04-19T08:32:41.001Z</time></trkpt><trkpt lat="44.9840320406456" lon="12.07035104838524"><ele>-1.0</ele><time>2026-04-19T08:32:42.001Z</time></trkpt><trkpt lat="44.984154553683084" lon="12.070368181258159"><ele>-1.0</ele><time>2026-04-19T08:32:43.001Z</time></trkpt><trkpt lat="44.984272323362546" lon="12.07038784231737"><ele>-1.25</ele><time>2026-04-19T08:32:44.001Z</time></trkpt><trkpt lat="44.984388469983664" lon="12.070407296291636"><ele>-1.5</ele><time>2026-04-19T08:32:45.001Z</time></trkpt><trkpt lat="44.98450745053962" lon="12.070428071824038"><ele>-1.75</ele><time>2026-04-19T08:32:46.001Z</time></trkpt><trkpt lat="44.98462952309762" lon="12.070454736982933"><ele>-2.0</ele><time>2026-04-19T08:32:47.001Z</time></trkpt><trkpt lat="44.984748856096196" lon="12.070480368638917"><ele>-2.0</ele><time>2026-04-19T08:32:48.001Z</time></trkpt><trkpt lat="44.984865121395735" lon="12.070504491803923"><ele>-2.0</ele><time>2026-04-19T08:32:49.001Z</time></trkpt><trkpt lat="44.98497909694937" lon="12.070525311640127"><ele>-2.0</ele><time>2026-04-19T08:32:50.001Z</time></trkpt><trkpt lat="44.98509166897059" lon="12.070543656734088"><ele>-2.0</ele><time>2026-04-19T08:32:51.001Z</time></trkpt><trkpt lat="44.985204416216945" lon="12.070553211886745"><ele>-2.25</ele><time>2026-04-19T08:32:52.001Z</time></trkpt><trkpt lat="44.98532034139895" lon="12.070559139982274"><ele>-2.5</ele><time>2026-04-19T08:32:53.001Z</time></trkpt><trkpt lat="44.9854384697607" lon="12.070563259221851"><ele>-2.75</ele><time>2026-04-19T08:32:54.001Z</time></trkpt><trkpt lat="44.98555744961065" lon="12.070558369723924"><ele>-3.0</ele><time>2026-04-19T08:32:55.001Z</time></trkpt><trkpt lat="44.98567527449693" lon="12.070549198254458"><ele>-3.0</ele><time>2026-04-19T08:32:56.001Z</time></trkpt><trkpt lat="44.98579602770389" lon="12.070537162794306"><ele>-3.0</ele><time>2026-04-19T08:32:57.001Z</time></trkpt><trkpt lat="44.985914272353035" lon="12.070522959082036"><ele>-3.0</ele><time>2026-04-19T08:32:58.001Z</time></trkpt><trkpt lat="44.986033718738305" lon="12.070533526908799"><ele>-3.0</ele><time>2026-04-19T08:32:59.001Z</time></trkpt><trkpt lat="44.98615279777133" lon="12.070497220301522"><ele>-2.5</ele><time>2026-04-19T08:33:00.001Z</time></trkpt><trkpt lat="44.98627618244445" lon="12.070472486810804"><ele>-2.0</ele><time>2026-04-19T08:33:01.001Z</time></trkpt><trkpt lat="44.98640283700017" lon="12.07044160521808"><ele>-1.5</ele><time>2026-04-19T08:33:02.001Z</time></trkpt><trkpt lat="44.98653023056566" lon="12.070407755295346"><ele>-1.0</ele><time>2026-04-19T08:33:03.001Z</time></trkpt><trkpt lat="44.98665346992442" lon="12.070371336689254"><ele>-0.75</ele><time>2026-04-19T08:33:04.001Z</time></trkpt><trkpt lat="44.986766449616084" lon="12.070329665943488"><ele>-0.5</ele><time>2026-04-19T08:33:05.001Z</time></trkpt><trkpt lat="44.986880167462616" lon="12.070291338727952"><ele>-0.25</ele><time>2026-04-19T08:33:06.001Z</time></trkpt><trkpt lat="44.986994822508336" lon="12.070255924859733"><ele>0.0</ele><time>2026-04-19T08:33:07.001Z</time></trkpt><trkpt lat="44.98710888778216" lon="12.070226358870245"><ele>0.0</ele><time>2026-04-19T08:33:08.001Z</time></trkpt><trkpt lat="44.987226216827814" lon="12.070203125648186"><ele>0.0</ele><time>2026-04-19T08:33:09.001Z</time></trkpt><trkpt lat="44.98734144476583" lon="12.070186928907969"><ele>0.0</ele><time>2026-04-19T08:33:10.001Z</time></trkpt><trkpt lat="44.98745138774225" lon="12.070176876126464"><ele>0.0</ele><time>2026-04-19T08:33:11.001Z</time></trkpt><trkpt lat="44.98755936699655" lon="12.070170690930158"><ele>0.0</ele><time>2026-04-19T08:33:12.001Z</time></trkpt><trkpt lat="44.987667118978955" lon="12.070166957783112"><ele>0.0</ele><time>2026-04-19T08:33:13.001Z</time></trkpt><trkpt lat="44.987764432510254" lon="12.070165002524181"><ele>0.0</ele><time>2026-04-19T08:33:14.001Z</time></trkpt><trkpt lat="44.98785720533021" lon="12.070156865834884"><ele>0.0</ele><time>2026-04-19T08:33:15.001Z</time></trkpt><trkpt lat="44.98794235164992" lon="12.070128556927846"><ele>0.0</ele><time>2026-04-19T08:33:16.001Z</time></trkpt><trkpt lat="44.988033785956695" lon="12.070093410332497"><ele>0.0</ele><time>2026-04-19T08:33:17.001Z</time></trkpt><trkpt lat="44.98810211778172" lon="12.069969559463011"><ele>0.0</ele><time>2026-04-19T08:33:18.001Z</time></trkpt><trkpt lat="44.988178205647955" lon="12.069843286594503"><ele>0.0</ele><time>2026-04-19T08:33:19.001Z</time></trkpt><trkpt lat="44.988246894302186" lon="12.069710524670574"><ele>0.0</ele><time>2026-04-19T08:33:20.001Z</time></trkpt><trkpt lat="44.98830765604793" lon="12.069591876350927"><ele>0.0</ele><time>2026-04-19T08:33:21.001Z</time></trkpt><trkpt lat="44.98837456333132" lon="12.069480652932858"><ele>0.0</ele><time>2026-04-19T08:33:22.001Z</time></trkpt><trkpt lat="44.98845127173092" lon="12.069369186855141"><ele>0.0</ele><time>2026-04-19T08:33:23.001Z</time></trkpt><trkpt lat="44.988552977133665" lon="12.069288487057651"><ele>0.0</ele><time>2026-04-19T08:33:24.001Z</time></trkpt><trkpt lat="44.98865829504371" lon="12.069208304101569"><ele>0.0</ele><time>2026-04-19T08:33:25.001Z</time></trkpt><trkpt lat="44.98877084085124" lon="12.069134926724637"><ele>0.0</ele><time>2026-04-19T08:33:26.001Z</time></trkpt><trkpt lat="44.98887896499705" lon="12.069043410335661"><ele>0.0</ele><time>2026-04-19T08:33:27.001Z</time></trkpt><trkpt lat="44.989001752057916" lon="12.068976574706467"><ele>0.0</ele><time>2026-04-19T08:33:28.001Z</time></trkpt><trkpt lat="44.989128017576334" lon="12.068905816844513"><ele>0.0</ele><time>2026-04-19T08:33:29.001Z</time></trkpt><trkpt lat="44.989261451391236" lon="12.068858302349378"><ele>0.0</ele><time>2026-04-19T08:33:30.001Z</time></trkpt><trkpt lat="44.98938462500444" lon="12.068792179421996"><ele>0.0</ele><time>2026-04-19T08:33:31.001Z</time></trkpt><trkpt lat="44.9894998640209" lon="12.068728255565944"><ele>0.0</ele><time>2026-04-19T08:33:32.001Z</time></trkpt><trkpt lat="44.98961758135108" lon="12.068662118004246"><ele>0.0</ele><time>2026-04-19T08:33:33.001Z</time></trkpt><trkpt lat="44.98973886396268" lon="12.068586435748633"><ele>0.0</ele><time>2026-04-19T08:33:34.001Z</time></trkpt><trkpt lat="44.98985890442462" lon="12.068508534056644"><ele>0.0</ele><time>2026-04-19T08:33:35.001Z</time></trkpt><trkpt lat="44.98997035513886" lon="12.06841695552788"><ele>0.0</ele><time>2026-04-19T08:33:36.001Z</time></trkpt><trkpt lat="44.99008409074693" lon="12.068349644751072"><ele>0.0</ele><time>2026-04-19T08:33:37.001Z</time></trkpt><trkpt lat="44.99019215259306" lon="12.068284428115318"><ele>-0.25</ele><time>2026-04-19T08:33:38.001Z</time></trkpt><trkpt lat="44.9903020484865" lon="12.068218636720507"><ele>-0.5</ele><time>2026-04-19T08:33:39.001Z</time></trkpt><trkpt lat="44.99041382028062" lon="12.068152312933748"><ele>-0.75</ele><time>2026-04-19T08:33:40.001Z</time></trkpt><trkpt lat="44.99053073013719" lon="12.068084971416788"><ele>-1.0</ele><time>2026-04-19T08:33:41.001Z</time></trkpt><trkpt lat="44.990649178895616" lon="12.068015242393843"><ele>-1.0</ele><time>2026-04-19T08:33:42.001Z</time></trkpt><trkpt lat="44.99076523792698" lon="12.067944357429692"><ele>-1.0</ele><time>2026-04-19T08:33:43.001Z</time></trkpt><trkpt lat="44.990879175711854" lon="12.06787146485722"><ele>-1.0</ele><time>2026-04-19T08:33:44.001Z</time></trkpt><trkpt lat="44.99099278607124" lon="12.067794287100764"><ele>-1.0</ele><time>2026-04-19T08:33:45.001Z</time></trkpt><trkpt lat="44.99110757038892" lon="12.06771085736062"><ele>-0.75</ele><time>2026-04-19T08:33:46.001Z</time></trkpt><trkpt lat="44.99122207220408" lon="12.06762422255028"><ele>-0.5</ele><time>2026-04-19T08:33:47.001Z</time></trkpt><trkpt lat="44.99133093091749" lon="12.067547402124314"><ele>-0.25</ele><time>2026-04-19T08:33:48.001Z</time></trkpt><trkpt lat="44.99143791007196" lon="12.067479122506104"><ele>0.0</ele><time>2026-04-19T08:33:49.001Z</time></trkpt><trkpt lat="44.991546706947325" lon="12.06742443992355"><ele>-0.2</ele><time>2026-04-19T08:33:50.001Z</time></trkpt><trkpt lat="44.991660543502235" lon="12.067379929184238"><ele>-0.4</ele><time>2026-04-19T08:33:51.001Z</time></trkpt><trkpt lat="44.991772090651565" lon="12.067349908034142"><ele>-0.6000000000000001</ele><time>2026-04-19T08:33:52.001Z</time></trkpt><trkpt lat="44.99187649332597" lon="12.06732799018911"><ele>-0.8</ele><time>2026-04-19T08:33:53.001Z</time></trkpt><trkpt lat="44.99197286217734" lon="12.06730781566438"><ele>-1.0</ele><time>2026-04-19T08:33:54.001Z</time></trkpt><trkpt lat="44.99206488582325" lon="12.06729051784933"><ele>-1.0</ele><time>2026-04-19T08:33:55.001Z</time></trkpt><trkpt lat="44.99216360149775" lon="12.067298122677053"><ele>-1.0</ele><time>2026-04-19T08:33:56.001Z</time></trkpt><trkpt lat="44.99226355239968" lon="12.067286312905175"><ele>-1.0</ele><time>2026-04-19T08:33:57.001Z</time></trkpt><trkpt lat="44.992364710036284" lon="12.067274713023407"><ele>-1.0</ele><time>2026-04-19T08:33:58.001Z</time></trkpt><trkpt lat="44.99247323095615" lon="12.067267115826978"><ele>-1.0</ele><time>2026-04-19T08:33:59.001Z</time></trkpt><trkpt lat="44.99258633989032" lon="12.067267374890342"><ele>-1.25</ele><time>2026-04-19T08:34:00.001Z</time></trkpt><trkpt lat="44.99270031244511" lon="12.067262774249775"><ele>-1.5</ele><time>2026-04-19T08:34:01.001Z</time></trkpt><trkpt lat="44.99280976030179" lon="12.067320805662005"><ele>-1.75</ele><time>2026-04-19T08:34:02.001Z</time></trkpt><trkpt lat="44.9929220586541" lon="12.067360765904777"><ele>-2.0</ele><time>2026-04-19T08:34:03.001Z</time></trkpt><trkpt lat="44.99303615238174" lon="12.067401364938476"><ele>-2.0</ele><time>2026-04-19T08:34:04.001Z</time></trkpt><trkpt lat="44.99315232222217" lon="12.067442702817184"><ele>-2.0</ele><time>2026-04-19T08:34:05.001Z</time></trkpt><trkpt lat="44.99326561953869" lon="12.067483949760367"><ele>-2.0</ele><time>2026-04-19T08:34:06.001Z</time></trkpt><trkpt lat="44.993386899768154" lon="12.067512028242973"><ele>-2.0</ele><time>2026-04-19T08:34:07.001Z</time></trkpt><trkpt lat="44.99350340020123" lon="12.067561257358337"><ele>-1.5</ele><time>2026-04-19T08:34:08.001Z</time></trkpt><trkpt lat="44.99362010547173" lon="12.067613088803279"><ele>-1.0</ele><time>2026-04-19T08:34:09.001Z</time></trkpt><trkpt lat="44.99373571595813" lon="12.06766619819854"><ele>-0.5</ele><time>2026-04-19T08:34:10.002Z</time></trkpt><trkpt lat="44.99384843640698" lon="12.06772452944157"><ele>0.0</ele><time>2026-04-19T08:34:11.002Z</time></trkpt><trkpt lat="44.99395568148282" lon="12.067790775842154"><ele>0.0</ele><time>2026-04-19T08:34:12.002Z</time></trkpt><trkpt lat="44.99406099677393" lon="12.067862139202768"><ele>0.0</ele><time>2026-04-19T08:34:13.002Z</time></trkpt><trkpt lat="44.99416636105461" lon="12.06793832110597"><ele>0.0</ele><time>2026-04-19T08:34:14.002Z</time></trkpt><trkpt lat="44.99426893893938" lon="12.068017595948687"><ele>0.0</ele><time>2026-04-19T08:34:15.002Z</time></trkpt><trkpt lat="44.9943673957099" lon="12.068098935112646"><ele>0.25</ele><time>2026-04-19T08:34:16.002Z</time></trkpt><trkpt lat="44.994465813764116" lon="12.068181996763158"><ele>0.5</ele><time>2026-04-19T08:34:17.002Z</time></trkpt><trkpt lat="44.99456367442787" lon="12.06826518410916"><ele>0.75</ele><time>2026-04-19T08:34:18.002Z</time></trkpt><trkpt lat="44.99466309935214" lon="12.068351739269863"><ele>1.0</ele><time>2026-04-19T08:34:19.002Z</time></trkpt><trkpt lat="44.99476202430525" lon="12.06844132241992"><ele>1.0</ele><time>2026-04-19T08:34:20.002Z</time></trkpt><trkpt lat="44.994853472910016" lon="12.068526618501176"><ele>1.0</ele><time>2026-04-19T08:34:21.002Z</time></trkpt><trkpt lat="44.9949392970703" lon="12.068601897298118"><ele>1.0</ele><time>2026-04-19T08:34:22.002Z</time></trkpt><trkpt lat="44.995022892204574" lon="12.068665006389507"><ele>1.0</ele><time>2026-04-19T08:34:23.002Z</time></trkpt><trkpt lat="44.99511366292531" lon="12.068721937832354"><ele>1.0</ele><time>2026-04-19T08:34:24.002Z</time></trkpt><trkpt lat="44.99520665187072" lon="12.068762304441151"><ele>1.0</ele><time>2026-04-19T08:34:25Z</time></trkpt><trkpt lat="44.99530372846609" lon="12.068790590166161"><ele>1.0</ele><time>2026-04-19T08:34:26Z</time></trkpt><trkpt lat="44.99539719094315" lon="12.06880008882087"><ele>1.0</ele><time>2026-04-19T08:34:27Z</time></trkpt><trkpt lat="44.995497483896266" lon="12.068807383770753"><ele>1.0</ele><time>2026-04-19T08:34:28Z</time></trkpt><trkpt lat="44.99559758946015" lon="12.06881120603354"><ele>1.0</ele><time>2026-04-19T08:34:29Z</time></trkpt><trkpt lat="44.99569505171623" lon="12.068820394623138"><ele>1.0</ele><time>2026-04-19T08:34:30Z</time></trkpt><trkpt lat="44.99578990273517" lon="12.068831943318415"><ele>1.0</ele><time>2026-04-19T08:34:31Z</time></trkpt><trkpt lat="44.9958807208726" lon="12.068839721192248"><ele>1.0</ele><time>2026-04-19T08:34:32Z</time></trkpt><trkpt lat="44.99597907495099" lon="12.068850829593327"><ele>1.0</ele><time>2026-04-19T08:34:33Z</time></trkpt><trkpt lat="44.99607909903863" lon="12.06887103010622"><ele>1.0</ele><time>2026-04-19T08:34:34Z</time></trkpt><trkpt lat="44.99618602867726" lon="12.06888720269609"><ele>0.6000000000000001</ele><time>2026-04-19T08:34:35Z</time></trkpt><trkpt lat="44.99629072711368" lon="12.068900913174664"><ele>0.20000000000000007</ele><time>2026-04-19T08:34:36Z</time></trkpt><trkpt lat="44.99639127353194" lon="12.068908379349327"><ele>-0.20000000000000007</ele><time>2026-04-19T08:34:37Z</time></trkpt><trkpt lat="44.996490501807706" lon="12.068913873287793"><ele>-0.6000000000000001</ele><time>2026-04-19T08:34:38Z</time></trkpt><trkpt lat="44.99658949612922" lon="12.068906263736508"><ele>-1.0</ele><time>2026-04-19T08:34:39Z</time></trkpt><trkpt lat="44.99668810126698" lon="12.068898067253313"><ele>-1.0</ele><time>2026-04-19T08:34:40Z</time></trkpt><trkpt lat="44.9967889724445" lon="12.068891707294572"><ele>-1.0</ele><time>2026-04-19T08:34:41Z</time></trkpt><trkpt lat="44.996889602675836" lon="12.068884881084074"><ele>-1.0</ele><time>2026-04-19T08:34:42Z</time></trkpt><trkpt lat="44.99699088076797" lon="12.068876877171325"><ele>-1.0</ele><time>2026-04-19T08:34:43Z</time></trkpt><trkpt lat="44.99709019407815" lon="12.068867542197047"><ele>-1.0</ele><time>2026-04-19T08:34:44Z</time></trkpt><trkpt lat="44.99718693436461" lon="12.068849423742702"><ele>-1.0</ele><time>2026-04-19T08:34:45Z</time></trkpt><trkpt lat="44.99728090250491" lon="12.068812423123465"><ele>-1.0</ele><time>2026-04-19T08:34:46Z</time></trkpt><trkpt lat="44.9973751447076" lon="12.068754473147163"><ele>-1.0</ele><time>2026-04-19T08:34:47Z</time></trkpt><trkpt lat="44.997462464794445" lon="12.068671204140623"><ele>-1.0</ele><time>2026-04-19T08:34:48Z</time></trkpt><trkpt lat="44.997545905334576" lon="12.06856374053138"><ele>-1.0</ele><time>2026-04-19T08:34:49.001Z</time></trkpt><trkpt lat="44.99762662121088" lon="12.068424400485757"><ele>0.0</ele><time>2026-04-19T08:34:50.001Z</time></trkpt><trkpt lat="44.99770230543846" lon="12.068291861936912"><ele>1.0</ele><time>2026-04-19T08:34:51.001Z</time></trkpt><trkpt lat="44.99777597822731" lon="12.068165383793962"><ele>2.0</ele><time>2026-04-19T08:34:52.001Z</time></trkpt><trkpt lat="44.997849519147074" lon="12.06804233856782"><ele>3.0</ele><time>2026-04-19T08:34:53.001Z</time></trkpt><trkpt lat="44.99792142587691" lon="12.0679257178548"><ele>3.0</ele><time>2026-04-19T08:34:54.001Z</time></trkpt><trkpt lat="44.99799270897356" lon="12.067812352728085"><ele>3.0</ele><time>2026-04-19T08:34:55.001Z</time></trkpt><trkpt lat="44.9980659369305" lon="12.067698752969608"><ele>3.0</ele><time>2026-04-19T08:34:56.001Z</time></trkpt><trkpt lat="44.998143947235" lon="12.067584537088013"><ele>3.0</ele><time>2026-04-19T08:34:57.001Z</time></trkpt><trkpt lat="44.998223814110716" lon="12.067469920988934"><ele>3.0</ele><time>2026-04-19T08:34:58.001Z</time></trkpt><trkpt lat="44.998303852773255" lon="12.067352053200787"><ele>3.0</ele><time>2026-04-19T08:34:59.001Z</time></trkpt><trkpt lat="44.99838486815944" lon="12.067232256042312"><ele>3.0</ele><time>2026-04-19T08:35:00.001Z</time></trkpt><trkpt lat="44.99846234240533" lon="12.067115021561353"><ele>3.0</ele><time>2026-04-19T08:35:01.001Z</time></trkpt><trkpt lat="44.99853781696603" lon="12.067006983769094"><ele>3.0</ele><time>2026-04-19T08:35:02.001Z</time></trkpt><trkpt lat="44.99860470099516" lon="12.066903827266378"><ele>3.0</ele><time>2026-04-19T08:35:03.001Z</time></trkpt><trkpt lat="44.998665033586995" lon="12.06680306117655"><ele>2.9999999999999996</ele><time>2026-04-19T08:35:04.001Z</time></trkpt><trkpt lat="44.99873299318374" lon="12.0667316470946"><ele>3.0</ele><time>2026-04-19T08:35:05.001Z</time></trkpt><trkpt lat="44.998786282485064" lon="12.06666600718439"><ele>3.0</ele><time>2026-04-19T08:35:06.001Z</time></trkpt><trkpt lat="44.9988363318821" lon="12.066609346318549"><ele>3.0</ele><time>2026-04-19T08:35:07.001Z</time></trkpt><trkpt lat="44.9988785433769" lon="12.066543071018971"><ele>3.0</ele><time>2026-04-19T08:35:08.001Z</time></trkpt><trkpt lat="44.998939473542166" lon="12.066505595232643"><ele>2.9999999999999996</ele><time>2026-04-19T08:35:09.001Z</time></trkpt><trkpt lat="44.99900869918348" lon="12.066481130375097"><ele>3.0</ele><time>2026-04-19T08:35:10.001Z</time></trkpt><trkpt lat="44.99909383264242" lon="12.0664881970715"><ele>3.0</ele><time>2026-04-19T08:35:11.001Z</time></trkpt><trkpt lat="44.999194023229826" lon="12.066439523762252"><ele>3.0</ele><time>2026-04-19T08:35:12.001Z</time></trkpt><trkpt lat="44.99928378102649" lon="12.066372541688146"><ele>3.0</ele><time>2026-04-19T08:35:13.001Z</time></trkpt><trkpt lat="44.99934071685971" lon="12.066331579642261"><ele>3.0</ele><time>2026-04-19T08:35:14.001Z</time></trkpt><trkpt lat="44.999412851521136" lon="12.066287772539495"><ele>3.0</ele><time>2026-04-19T08:35:15.001Z</time></trkpt><trkpt lat="44.99948533579552" lon="12.066240380773653"><ele>3.0</ele><time>2026-04-19T08:35:16.001Z</time></trkpt><trkpt lat="44.999558229974475" lon="12.066190964052184"><ele>3.0</ele><time>2026-04-19T08:35:17.001Z</time></trkpt><trkpt lat="44.99963435015096" lon="12.066142489249836"><ele>3.0</ele><time>2026-04-19T08:35:18.001Z</time></trkpt><trkpt lat="44.999714665166046" lon="12.066088230993632"><ele>3.0</ele><time>2026-04-19T08:35:19.001Z</time></trkpt><trkpt lat="44.99980049750374" lon="12.066032964997815"><ele>3.0</ele><time>2026-04-19T08:35:20.001Z</time></trkpt><trkpt lat="44.999897476970695" lon="12.065969618143999"><ele>3.0</ele><time>2026-04-19T08:35:21.001Z</time></trkpt><trkpt lat="45.00000441143329" lon="12.065898976666197"><ele>3.0</ele><time>2026-04-19T08:35:22.001Z</time></trkpt><trkpt lat="45.00011881306375" lon="12.065827742776492"><ele>3.0</ele><time>2026-04-19T08:35:23.001Z</time></trkpt><trkpt lat="45.0002381236881" lon="12.065756142413465"><ele>3.0</ele><time>2026-04-19T08:35:24.001Z</time></trkpt><trkpt lat="45.00035991066998" lon="12.065682073081398"><ele>3.0</ele><time>2026-04-19T08:35:25.001Z</time></trkpt><trkpt lat="45.00047658448597" lon="12.065610058925522"><ele>2.5</ele><time>2026-04-19T08:35:26.001Z</time></trkpt><trkpt lat="45.00059579124967" lon="12.065534000488936"><ele>2.0</ele><time>2026-04-19T08:35:27.001Z</time></trkpt><trkpt lat="45.00071271801008" lon="12.065461071133491"><ele>1.5</ele><time>2026-04-19T08:35:28.001Z</time></trkpt><trkpt lat="45.00082591846502" lon="12.0653921380715"><ele>1.0</ele><time>2026-04-19T08:35:29.001Z</time></trkpt><trkpt lat="45.000940979322486" lon="12.065331908016928"><ele>1.0</ele><time>2026-04-19T08:35:30.001Z</time></trkpt><trkpt lat="45.00105902561253" lon="12.06528197523083"><ele>1.0</ele><time>2026-04-19T08:35:31.001Z</time></trkpt><trkpt lat="45.00118539531904" lon="12.065232841248207"><ele>1.0</ele><time>2026-04-19T08:35:32.001Z</time></trkpt><trkpt lat="45.00131997025113" lon="12.065192777779124"><ele>1.0</ele><time>2026-04-19T08:35:33.001Z</time></trkpt><trkpt lat="45.00145869083039" lon="12.065150369101826"><ele>1.0</ele><time>2026-04-19T08:35:34.001Z</time></trkpt><trkpt lat="45.001599704284125" lon="12.065111101934264"><ele>1.0</ele><time>2026-04-19T08:35:35.001Z</time></trkpt><trkpt lat="45.00173783469933" lon="12.065079343795906"><ele>1.0</ele><time>2026-04-19T08:35:36.001Z</time></trkpt><trkpt lat="45.00188110493328" lon="12.065048112654367"><ele>1.0</ele><time>2026-04-19T08:35:37.001Z</time></trkpt><trkpt lat="45.0020269042267" lon="12.065020158463899"><ele>1.3333333333333333</ele><time>2026-04-19T08:35:38.001Z</time></trkpt><trkpt lat="45.00217475488558" lon="12.064995274805227"><ele>1.6666666666666665</ele><time>2026-04-19T08:35:39.001Z</time></trkpt><trkpt lat="45.0023277811884" lon="12.064972861539532"><ele>2.0</ele><time>2026-04-19T08:35:40.001Z</time></trkpt><trkpt lat="45.002476155493376" lon="12.064954938864357"><ele>0.6666666666666666</ele><time>2026-04-19T08:35:41.001Z</time></trkpt><trkpt lat="45.00262848366726" lon="12.064936230702225"><ele>-0.6666666666666666</ele><time>2026-04-19T08:35:42.001Z</time></trkpt><trkpt lat="45.00278417505476" lon="12.06491902365882"><ele>-2.0</ele><time>2026-04-19T08:35:43.001Z</time></trkpt><trkpt lat="45.00294323281958" lon="12.064898754815879"><ele>-2.0</ele><time>2026-04-19T08:35:44.001Z</time></trkpt><trkpt lat="45.00310897145343" lon="12.064877297265562"><ele>-2.0</ele><time>2026-04-19T08:35:45.001Z</time></trkpt><trkpt lat="45.00328275934544" lon="12.064882074777442"><ele>-2.0</ele><time>2026-04-19T08:35:46.001Z</time></trkpt><trkpt lat="45.003456735717066" lon="12.06486380665404"><ele>-2.0</ele><time>2026-04-19T08:35:47.001Z</time></trkpt><trkpt lat="45.00362112191177" lon="12.06482430393508"><ele>-2.0</ele><time>2026-04-19T08:35:48.001Z</time></trkpt><trkpt lat="45.00378693260202" lon="12.064808927597518"><ele>-2.0</ele><time>2026-04-19T08:35:49.001Z</time></trkpt><trkpt lat="45.003954585298324" lon="12.064794100325113"><ele>-2.0</ele><time>2026-04-19T08:35:50.001Z</time></trkpt><trkpt lat="45.00412557125786" lon="12.064779802522244"><ele>-2.0</ele><time>2026-04-19T08:35:51.001Z</time></trkpt><trkpt lat="45.0042991332256" lon="12.06476199443305"><ele>-2.0</ele><time>2026-04-19T08:35:52.001Z</time></trkpt><trkpt lat="45.004473810348834" lon="12.064737101746593"><ele>-1.3333333333333333</ele><time>2026-04-19T08:35:53.001Z</time></trkpt><trkpt lat="45.004648818553655" lon="12.064707891358328"><ele>-0.6666666666666666</ele><time>2026-04-19T08:35:54.001Z</time></trkpt><trkpt lat="45.00482064651237" lon="12.064679639543618"><ele>0.0</ele><time>2026-04-19T08:35:55.001Z</time></trkpt><trkpt lat="45.00498848937166" lon="12.064650051541117"><ele>0.0</ele><time>2026-04-19T08:35:56.001Z</time></trkpt><trkpt lat="45.00515212121415" lon="12.064619851866757"><ele>0.0</ele><time>2026-04-19T08:35:57.001Z</time></trkpt><trkpt lat="45.00531640320376" lon="12.064590406543372"><ele>0.0</ele><time>2026-04-19T08:35:58.001Z</time></trkpt><trkpt lat="45.00548206355643" lon="12.064560116868751"><ele>0.0</ele><time>2026-04-19T08:35:59.001Z</time></trkpt><trkpt lat="45.00565215310851" lon="12.064556257007556"><ele>0.0</ele><time>2026-04-19T08:36:00.001Z</time></trkpt><trkpt lat="45.00582740198659" lon="12.0645321869463"><ele>0.0</ele><time>2026-04-19T08:36:01.001Z</time></trkpt><trkpt lat="45.006005381165565" lon="12.06450983331581"><ele>0.0</ele><time>2026-04-19T08:36:02.001Z</time></trkpt><trkpt lat="45.00618140653122" lon="12.064469833900196"><ele>0.0</ele><time>2026-04-19T08:36:03.001Z</time></trkpt><trkpt lat="45.00635854969281" lon="12.064454724059296"><ele>0.0</ele><time>2026-04-19T08:36:04.001Z</time></trkpt><trkpt lat="45.00653532302654" lon="12.064436386548424"><ele>0.3333333333333333</ele><time>2026-04-19T08:36:05.001Z</time></trkpt><trkpt lat="45.00671378828014" lon="12.064415942781427"><ele>0.6666666666666666</ele><time>2026-04-19T08:36:06.001Z</time></trkpt><trkpt lat="45.006889048353834" lon="12.0643957273695"><ele>1.0</ele><time>2026-04-19T08:36:07.001Z</time></trkpt><trkpt lat="45.007061394275325" lon="12.064376069804867"><ele>1.0</ele><time>2026-04-19T08:36:08.001Z</time></trkpt><trkpt lat="45.00723057781525" lon="12.064355386308709"><ele>1.0</ele><time>2026-04-19T08:36:09.001Z</time></trkpt><trkpt lat="45.00739909041932" lon="12.064331791927504"><ele>1.0</ele><time>2026-04-19T08:36:10.001Z</time></trkpt><trkpt lat="45.00756609609828" lon="12.064311718548801"><ele>0.6666666666666666</ele><time>2026-04-19T08:36:11.001Z</time></trkpt><trkpt lat="45.007736917203125" lon="12.06429186291588"><ele>0.3333333333333333</ele><time>2026-04-19T08:36:12.001Z</time></trkpt><trkpt lat="45.00790750257966" lon="12.064270882272796"><ele>0.0</ele><time>2026-04-19T08:36:13.001Z</time></trkpt><trkpt lat="45.00807952651367" lon="12.064252592497011"><ele>0.0</ele><time>2026-04-19T08:36:14.001Z</time></trkpt><trkpt lat="45.00825466379" lon="12.064236162757544"><ele>0.0</ele><time>2026-04-19T08:36:15.001Z</time></trkpt><trkpt lat="45.008431221683196" lon="12.064218061236037"><ele>0.0</ele><time>2026-04-19T08:36:16.001Z</time></trkpt><trkpt lat="45.00861077916633" lon="12.064196537863296"><ele>0.6666666666666666</ele><time>2026-04-19T08:36:17.001Z</time></trkpt><trkpt lat="45.0087923473153" lon="12.064173521280171"><ele>1.3333333333333333</ele><time>2026-04-19T08:36:18.001Z</time></trkpt><trkpt lat="45.008973149048735" lon="12.064151846346968"><ele>2.0</ele><time>2026-04-19T08:36:19.001Z</time></trkpt><trkpt lat="45.009150201482676" lon="12.064131771042574"><ele>1.3333333333333333</ele><time>2026-04-19T08:36:20.001Z</time></trkpt><trkpt lat="45.009326728848045" lon="12.064111695784256"><ele>0.6666666666666666</ele><time>2026-04-19T08:36:21.001Z</time></trkpt><trkpt lat="45.00949987817179" lon="12.064092451221198"><ele>0.0</ele><time>2026-04-19T08:36:22.001Z</time></trkpt><trkpt lat="45.00967237733341" lon="12.06407144404712"><ele>0.0</ele><time>2026-04-19T08:36:23.001Z</time></trkpt><trkpt lat="45.00984512741753" lon="12.06404885385469"><ele>0.0</ele><time>2026-04-19T08:36:24.001Z</time></trkpt><trkpt lat="45.01001517955268" lon="12.064026104156698"><ele>0.0</ele><time>2026-04-19T08:36:25.001Z</time></trkpt><trkpt lat="45.01018565697736" lon="12.064002662012506"><ele>0.0</ele><time>2026-04-19T08:36:26.001Z</time></trkpt><trkpt lat="45.01035725728401" lon="12.063983858521947"><ele>0.0</ele><time>2026-04-19T08:36:27.001Z</time></trkpt><trkpt lat="45.01053027420845" lon="12.063964452947312"><ele>0.0</ele><time>2026-04-19T08:36:28.001Z</time></trkpt><trkpt lat="45.010705876007414" lon="12.0639480729562"><ele>0.0</ele><time>2026-04-19T08:36:29.001Z</time></trkpt><trkpt lat="45.01088514609702" lon="12.063931580884724"><ele>0.0</ele><time>2026-04-19T08:36:30.001Z</time></trkpt><trkpt lat="45.01106505214392" lon="12.063917069571016"><ele>0.0</ele><time>2026-04-19T08:36:31Z</time></trkpt><trkpt lat="45.01124441850016" lon="12.063905793045619"><ele>0.0</ele><time>2026-04-19T08:36:32Z</time></trkpt><trkpt lat="45.01142568156448" lon="12.06389401798527"><ele>0.0</ele><time>2026-04-19T08:36:33Z</time></trkpt><trkpt lat="45.011608790339544" lon="12.06388364071126"><ele>0.0</ele><time>2026-04-19T08:36:34Z</time></trkpt><trkpt lat="45.01178997817095" lon="12.06387599766697"><ele>0.0</ele><time>2026-04-19T08:36:35Z</time></trkpt><trkpt lat="45.011974401573156" lon="12.063871055224173"><ele>0.0</ele><time>2026-04-19T08:36:36Z</time></trkpt><trkpt lat="45.01216031993692" lon="12.06386905671395"><ele>0.0</ele><time>2026-04-19T08:36:37Z</time></trkpt><trkpt lat="45.01234792188615" lon="12.063870126990343"><ele>0.3333333333333333</ele><time>2026-04-19T08:36:38Z</time></trkpt><trkpt lat="45.01253716360079" lon="12.06387368702378"><ele>0.6666666666666666</ele><time>2026-04-19T08:36:39Z</time></trkpt><trkpt lat="45.01272518130173" lon="12.063881486783847"><ele>1.0</ele><time>2026-04-19T08:36:40Z</time></trkpt><trkpt lat="45.012913212884136" lon="12.063893558879553"><ele>1.0</ele><time>2026-04-19T08:36:41Z</time></trkpt><trkpt lat="45.01310038189652" lon="12.063915195621567"><ele>1.0</ele><time>2026-04-19T08:36:42Z</time></trkpt><trkpt lat="45.013280448866404" lon="12.063946439608268"><ele>1.0</ele><time>2026-04-19T08:36:43Z</time></trkpt><trkpt lat="45.01346094850048" lon="12.063980905315514"><ele>1.0</ele><time>2026-04-19T08:36:44Z</time></trkpt><trkpt lat="45.013639889642505" lon="12.064022508672632"><ele>1.0</ele><time>2026-04-19T08:36:45Z</time></trkpt><trkpt lat="45.013820263508116" lon="12.064075270098611"><ele>1.0</ele><time>2026-04-19T08:36:46Z</time></trkpt><trkpt lat="45.01400211597136" lon="12.064140259210353"><ele>2.0</ele><time>2026-04-19T08:36:47Z</time></trkpt><trkpt lat="45.0141847584115" lon="12.06422061155654"><ele>3.0</ele><time>2026-04-19T08:36:48Z</time></trkpt><trkpt lat="45.01436669340911" lon="12.064315400363514"><ele>4.0</ele><time>2026-04-19T08:36:49Z</time></trkpt><trkpt lat="45.01454798748452" lon="12.064420777610396"><ele>4.0</ele><time>2026-04-19T08:36:50Z</time></trkpt><trkpt lat="45.014729551233806" lon="12.06453537423545"><ele>4.0</ele><time>2026-04-19T08:36:51Z</time></trkpt><trkpt lat="45.01490703726312" lon="12.064662587579392"><ele>4.0</ele><time>2026-04-19T08:36:52Z</time></trkpt><trkpt lat="45.015074147378876" lon="12.064803090189073"><ele>3.6666666666666665</ele><time>2026-04-19T08:36:53Z</time></trkpt><trkpt lat="45.0152255466183" lon="12.064961415051732"><ele>3.333333333333333</ele><time>2026-04-19T08:36:54Z</time></trkpt><trkpt lat="45.015366422420506" lon="12.065137662945572"><ele>3.0</ele><time>2026-04-19T08:36:55Z</time></trkpt><trkpt lat="45.015495509434146" lon="12.065329090042198"><ele>3.0</ele><time>2026-04-19T08:36:56Z</time></trkpt><trkpt lat="45.01561683709446" lon="12.065532506828895"><ele>3.0</ele><time>2026-04-19T08:36:57Z</time></trkpt><trkpt lat="45.01573732831091" lon="12.0657421697299"><ele>3.0</ele><time>2026-04-19T08:36:58Z</time></trkpt><trkpt lat="45.01585724786473" lon="12.065953696468092"><ele>2.6666666666666665</ele><time>2026-04-19T08:36:59Z</time></trkpt><trkpt lat="45.01597913513997" lon="12.06616275630323"><ele>2.333333333333333</ele><time>2026-04-19T08:37:00Z</time></trkpt><trkpt lat="45.01609870256434" lon="12.06637071900476"><ele>2.0</ele><time>2026-04-19T08:37:01Z</time></trkpt><trkpt lat="45.016214775227624" lon="12.066578701149059"><ele>1.6666666666666665</ele><time>2026-04-19T08:37:02Z</time></trkpt><trkpt lat="45.016327522529664" lon="12.066783548173587"><ele>1.3333333333333333</ele><time>2026-04-19T08:37:03Z</time></trkpt><trkpt lat="45.01643811658742" lon="12.066980805120702"><ele>1.0</ele><time>2026-04-19T08:37:04Z</time></trkpt><trkpt lat="45.01655047210118" lon="12.067175720962046"><ele>1.0</ele><time>2026-04-19T08:37:05Z</time></trkpt><trkpt lat="45.01665975216556" lon="12.067367963909469"><ele>1.0</ele><time>2026-04-19T08:37:06Z</time></trkpt><trkpt lat="45.01675983975686" lon="12.067555478526227"><ele>1.0</ele><time>2026-04-19T08:37:07Z</time></trkpt><trkpt lat="45.016852800133144" lon="12.067732591472275"><ele>1.3333333333333333</ele><time>2026-04-19T08:37:08Z</time></trkpt><trkpt lat="45.016952713114335" lon="12.067910882276905"><ele>1.6666666666666665</ele><time>2026-04-19T08:37:09Z</time></trkpt><trkpt lat="45.01704915822644" lon="12.06809342544646"><ele>2.0</ele><time>2026-04-19T08:37:10Z</time></trkpt><trkpt lat="45.01713746608288" lon="12.068270227846305"><ele>1.75</ele><time>2026-04-19T08:37:11Z</time></trkpt><trkpt lat="45.017216401819546" lon="12.068436860733618"><ele>1.5</ele><time>2026-04-19T08:37:12Z</time></trkpt><trkpt lat="45.01728937758725" lon="12.06859875000089"><ele>1.25</ele><time>2026-04-19T08:37:13Z</time></trkpt><trkpt lat="45.01735841571135" lon="12.068758026655674"><ele>1.0</ele><time>2026-04-19T08:37:14Z</time></trkpt><trkpt lat="45.01742817822178" lon="12.068918007250117"><ele>1.0</ele><time>2026-04-19T08:37:15Z</time></trkpt><trkpt lat="45.017500957622126" lon="12.069079952096358"><ele>1.0</ele><time>2026-04-19T08:37:16Z</time></trkpt><trkpt lat="45.01757504745633" lon="12.069242763580975"><ele>1.0</ele><time>2026-04-19T08:37:17Z</time></trkpt><trkpt lat="45.017651573546836" lon="12.069406320086888"><ele>1.0</ele><time>2026-04-19T08:37:18Z</time></trkpt><trkpt lat="45.01772430999352" lon="12.069570124209017"><ele>1.0</ele><time>2026-04-19T08:37:19Z</time></trkpt><trkpt lat="45.01779146187102" lon="12.069733575879512"><ele>1.0</ele><time>2026-04-19T08:37:20Z</time></trkpt><trkpt lat="45.01785783992467" lon="12.069890310198701"><ele>1.0</ele><time>2026-04-19T08:37:21Z</time></trkpt><trkpt lat="45.01792309200514" lon="12.070041626104974"><ele>1.0</ele><time>2026-04-19T08:37:22.001Z</time></trkpt><trkpt lat="45.01798763680447" lon="12.07019942968921"><ele>1.0</ele><time>2026-04-19T08:37:23.001Z</time></trkpt><trkpt lat="45.01805326409" lon="12.07036485605187"><ele>1.0</ele><time>2026-04-19T08:37:24.001Z</time></trkpt><trkpt lat="45.018120952806505" lon="12.070532437861495"><ele>1.0</ele><time>2026-04-19T08:37:25.001Z</time></trkpt><trkpt lat="45.01818838089343" lon="12.070700611252008"><ele>1.0</ele><time>2026-04-19T08:37:26.001Z</time></trkpt><trkpt lat="45.0182583233207" lon="12.070866737422264"><ele>1.25</ele><time>2026-04-19T08:37:27.001Z</time></trkpt><trkpt lat="45.018335435134105" lon="12.071025301746507"><ele>1.5</ele><time>2026-04-19T08:37:28.001Z</time></trkpt><trkpt lat="45.01842342591367" lon="12.071160773904404"><ele>1.75</ele><time>2026-04-19T08:37:29.001Z</time></trkpt><trkpt lat="45.018509470087785" lon="12.07130117973846"><ele>2.0</ele><time>2026-04-19T08:37:30.001Z</time></trkpt><trkpt lat="45.018583387338715" lon="12.071459727492728"><ele>2.0</ele><time>2026-04-19T08:37:31.001Z</time></trkpt><trkpt lat="45.01865452382538" lon="12.071627937448632"><ele>2.0</ele><time>2026-04-19T08:37:32.001Z</time></trkpt><trkpt lat="45.01873822387241" lon="12.071786141270724"><ele>2.0</ele><time>2026-04-19T08:37:33.001Z</time></trkpt><trkpt lat="45.01880396901604" lon="12.071951456564014"><ele>2.0</ele><time>2026-04-19T08:37:34.001Z</time></trkpt><trkpt lat="45.018925857000994" lon="12.072047987117887"><ele>2.0</ele><time>2026-04-19T08:37:35.001Z</time></trkpt><trkpt lat="45.01899989658264" lon="12.072200925919397"><ele>2.0</ele><time>2026-04-19T08:37:36.001Z</time></trkpt><trkpt lat="45.01906020988201" lon="12.072386029259057"><ele>2.0</ele><time>2026-04-19T08:37:37.001Z</time></trkpt><trkpt lat="45.01910710849131" lon="12.072601636655788"><ele>2.0</ele><time>2026-04-19T08:37:38.001Z</time></trkpt><trkpt lat="45.019163346331595" lon="12.072810921531428"><ele>2.333333333333333</ele><time>2026-04-19T08:37:39.001Z</time></trkpt><trkpt lat="45.01922105758445" lon="12.073021784305459"><ele>2.6666666666666665</ele><time>2026-04-19T08:37:40.001Z</time></trkpt><trkpt lat="45.019282154967264" lon="12.073239296839063"><ele>3.0</ele><time>2026-04-19T08:37:41.001Z</time></trkpt><trkpt lat="45.01935325685555" lon="12.073451612497704"><ele>3.0</ele><time>2026-04-19T08:37:42.001Z</time></trkpt><trkpt lat="45.019431314099165" lon="12.073665990967406"><ele>3.0</ele><time>2026-04-19T08:37:43.001Z</time></trkpt><trkpt lat="45.01951618775167" lon="12.073879258211745"><ele>3.0</ele><time>2026-04-19T08:37:44.001Z</time></trkpt><trkpt lat="45.01960706632302" lon="12.074091040476421"><ele>2.6666666666666665</ele><time>2026-04-19T08:37:45.001Z</time></trkpt><trkpt lat="45.019698665807624" lon="12.074306922655879"><ele>2.333333333333333</ele><time>2026-04-19T08:37:46.001Z</time></trkpt><trkpt lat="45.01978774941053" lon="12.074522200076407"><ele>2.0</ele><time>2026-04-19T08:37:47.001Z</time></trkpt><trkpt lat="45.01987022639151" lon="12.074729531951341"><ele>2.0</ele><time>2026-04-19T08:37:48.001Z</time></trkpt><trkpt lat="45.0199492861358" lon="12.074920237571217"><ele>2.0</ele><time>2026-04-19T08:37:49.001Z</time></trkpt><trkpt lat="45.02002711794739" lon="12.075106272080303"><ele>2.0</ele><time>2026-04-19T08:37:50.001Z</time></trkpt><trkpt lat="45.02010281666788" lon="12.07528898205091"><ele>2.0</ele><time>2026-04-19T08:37:51.001Z</time></trkpt><trkpt lat="45.020178446265014" lon="12.0754762461076"><ele>2.0</ele><time>2026-04-19T08:37:52.001Z</time></trkpt><trkpt lat="45.02025469177834" lon="12.075669816918937"><ele>2.0</ele><time>2026-04-19T08:37:53.001Z</time></trkpt><trkpt lat="45.020332392383146" lon="12.075870199885715"><ele>2.0</ele><time>2026-04-19T08:37:54.001Z</time></trkpt><trkpt lat="45.02040973914456" lon="12.076076577460762"><ele>2.0</ele><time>2026-04-19T08:37:55.001Z</time></trkpt><trkpt lat="45.020483070002165" lon="12.076281862529589"><ele>2.0</ele><time>2026-04-19T08:37:56.001Z</time></trkpt><trkpt lat="45.02055096873298" lon="12.076480235723578"><ele>1.6666666666666665</ele><time>2026-04-19T08:37:57.001Z</time></trkpt><trkpt lat="45.02061449361103" lon="12.076676995652408"><ele>1.3333333333333333</ele><time>2026-04-19T08:37:58.001Z</time></trkpt><trkpt lat="45.02067501145601" lon="12.07687864955062"><ele>1.0</ele><time>2026-04-19T08:37:59.001Z</time></trkpt><trkpt lat="45.020732333737136" lon="12.077079989256829"><ele>1.0</ele><time>2026-04-19T08:38:00.001Z</time></trkpt><trkpt lat="45.020788247041715" lon="12.077279582059855"><ele>1.0</ele><time>2026-04-19T08:38:01.001Z</time></trkpt><trkpt lat="45.02084240490168" lon="12.07747517775987"><ele>1.0</ele><time>2026-04-19T08:38:02.001Z</time></trkpt><trkpt lat="45.02089584263114" lon="12.077666405388312"><ele>1.0</ele><time>2026-04-19T08:38:03.001Z</time></trkpt><trkpt lat="45.020948025074716" lon="12.07785621203782"><ele>1.0</ele><time>2026-04-19T08:38:04.001Z</time></trkpt><trkpt lat="45.02099745391306" lon="12.078043087104112"><ele>1.0</ele><time>2026-04-19T08:38:05.001Z</time></trkpt><trkpt lat="45.02104629840457" lon="12.07823241694788"><ele>1.0</ele><time>2026-04-19T08:38:06.001Z</time></trkpt><trkpt lat="45.021092830711986" lon="12.078430624045525"><ele>1.0</ele><time>2026-04-19T08:38:07.001Z</time></trkpt><trkpt lat="45.02113316611724" lon="12.078622916599295"><ele>1.0</ele><time>2026-04-19T08:38:08.001Z</time></trkpt><trkpt lat="45.02117109803316" lon="12.078825596740124"><ele>1.0</ele><time>2026-04-19T08:38:09.001Z</time></trkpt><trkpt lat="45.02120957871902" lon="12.079029327723113"><ele>1.0</ele><time>2026-04-19T08:38:10.001Z</time></trkpt><trkpt lat="45.02125124095332" lon="12.07923520565925"><ele>1.0</ele><time>2026-04-19T08:38:11.001Z</time></trkpt><trkpt lat="45.02129476309028" lon="12.079446028681165"><ele>1.0</ele><time>2026-04-19T08:38:12.001Z</time></trkpt><trkpt lat="45.02133972178422" lon="12.079660254829635"><ele>1.0</ele><time>2026-04-19T08:38:13.001Z</time></trkpt><trkpt lat="45.02138481177601" lon="12.079875064110249"><ele>1.0</ele><time>2026-04-19T08:38:14.001Z</time></trkpt><trkpt lat="45.02142990057244" lon="12.080091425342628"><ele>1.0</ele><time>2026-04-19T08:38:15.001Z</time></trkpt><trkpt lat="45.02147493916646" lon="12.080308020129763"><ele>1.0</ele><time>2026-04-19T08:38:16.001Z</time></trkpt><trkpt lat="45.021520237747666" lon="12.080522416001903"><ele>1.0</ele><time>2026-04-19T08:38:17.001Z</time></trkpt><trkpt lat="45.02156574189052" lon="12.080731473544516"><ele>1.0</ele><time>2026-04-19T08:38:18.001Z</time></trkpt><trkpt lat="45.021611337126046" lon="12.080935893103803"><ele>1.0</ele><time>2026-04-19T08:38:19.001Z</time></trkpt><trkpt lat="45.02165757202362" lon="12.081143438004029"><ele>1.0</ele><time>2026-04-19T08:38:20.001Z</time></trkpt><trkpt lat="45.02170402152406" lon="12.08135768063001"><ele>0.0</ele><time>2026-04-19T08:38:21.001Z</time></trkpt><trkpt lat="45.02174970869424" lon="12.081571409095853"><ele>-1.0</ele><time>2026-04-19T08:38:22.001Z</time></trkpt><trkpt lat="45.02179455274551" lon="12.081783973516934"><ele>-2.0</ele><time>2026-04-19T08:38:23.001Z</time></trkpt><trkpt lat="45.02183952310666" lon="12.081990612650236"><ele>-2.0</ele><time>2026-04-19T08:38:24.001Z</time></trkpt><trkpt lat="45.0218868859279" lon="12.082199839884597"><ele>-2.0</ele><time>2026-04-19T08:38:25.001Z</time></trkpt><trkpt lat="45.02193549502845" lon="12.082413547556467"><ele>-2.0</ele><time>2026-04-19T08:38:26.001Z</time></trkpt><trkpt lat="45.02198517809925" lon="12.082629176281909"><ele>-2.0</ele><time>2026-04-19T08:38:27.001Z</time></trkpt><trkpt lat="45.0220348162784" lon="12.082846844724648"><ele>-2.0</ele><time>2026-04-19T08:38:28.001Z</time></trkpt><trkpt lat="45.022084613376634" lon="12.083061622628353"><ele>-2.0</ele><time>2026-04-19T08:38:29.001Z</time></trkpt><trkpt lat="45.022132203436556" lon="12.083267689229581"><ele>-2.0</ele><time>2026-04-19T08:38:30.001Z</time></trkpt><trkpt lat="45.02217892273457" lon="12.08346788533814"><ele>-2.0</ele><time>2026-04-19T08:38:31.001Z</time></trkpt><trkpt lat="45.02222637519278" lon="12.083671076550868"><ele>-2.0</ele><time>2026-04-19T08:38:32.001Z</time></trkpt><trkpt lat="45.02227554993932" lon="12.083878381449637"><ele>-2.0</ele><time>2026-04-19T08:38:33.001Z</time></trkpt><trkpt lat="45.02232803042163" lon="12.084090164246055"><ele>-2.0</ele><time>2026-04-19T08:38:34.001Z</time></trkpt><trkpt lat="45.02238301700307" lon="12.084300710246348"><ele>-2.0</ele><time>2026-04-19T08:38:35.001Z</time></trkpt><trkpt lat="45.022445242292044" lon="12.08450671773943"><ele>-1.0</ele><time>2026-04-19T08:38:36Z</time></trkpt><trkpt lat="45.02251092639202" lon="12.08470800506928"><ele>0.0</ele><time>2026-04-19T08:38:37Z</time></trkpt><trkpt lat="45.022581438151995" lon="12.084910378524873"><ele>1.0</ele><time>2026-04-19T08:38:38Z</time></trkpt><trkpt lat="45.022651409598375" lon="12.085107948682234"><ele>1.0</ele><time>2026-04-19T08:38:39Z</time></trkpt><trkpt lat="45.02272712682625" lon="12.085305226925536"><ele>1.0</ele><time>2026-04-19T08:38:40Z</time></trkpt><trkpt lat="45.02280755545178" lon="12.085500398954553"><ele>1.0</ele><time>2026-04-19T08:38:41Z</time></trkpt><trkpt lat="45.02289331931926" lon="12.08569480360339"><ele>1.0</ele><time>2026-04-19T08:38:42Z</time></trkpt><trkpt lat="45.02298582715456" lon="12.085886055734267"><ele>1.0</ele><time>2026-04-19T08:38:43Z</time></trkpt><trkpt lat="45.0230869451417" lon="12.08607161534126"><ele>1.0</ele><time>2026-04-19T08:38:44Z</time></trkpt><trkpt lat="45.023198985293874" lon="12.086253132124135"><ele>1.0</ele><time>2026-04-19T08:38:45Z</time></trkpt><trkpt lat="45.02332052917766" lon="12.086432784147936"><ele>1.0</ele><time>2026-04-19T08:38:46Z</time></trkpt><trkpt lat="45.02345745224455" lon="12.086614758907055"><ele>1.0</ele><time>2026-04-19T08:38:47Z</time></trkpt><trkpt lat="45.02358500761855" lon="12.086786264977368"><ele>1.3333333333333333</ele><time>2026-04-19T08:38:48Z</time></trkpt><trkpt lat="45.0237038276285" lon="12.086949980454204"><ele>1.6666666666666665</ele><time>2026-04-19T08:38:49Z</time></trkpt><trkpt lat="45.023818386464164" lon="12.087119103419715"><ele>2.0</ele><time>2026-04-19T08:38:50Z</time></trkpt><trkpt lat="45.02392008465106" lon="12.087291967200718"><ele>1.6666666666666665</ele><time>2026-04-19T08:38:51Z</time></trkpt><trkpt lat="45.02400993693228" lon="12.087480671220499"><ele>1.3333333333333333</ele><time>2026-04-19T08:38:52Z</time></trkpt><trkpt lat="45.02409139709795" lon="12.087679606764748"><ele>1.0</ele><time>2026-04-19T08:38:53Z</time></trkpt><trkpt lat="45.024168068029425" lon="12.087888332936888"><ele>1.0</ele><time>2026-04-19T08:38:54Z</time></trkpt><trkpt lat="45.02422975234906" lon="12.088108998150425"><ele>1.0</ele><time>2026-04-19T08:38:55Z</time></trkpt><trkpt lat="45.02427527434511" lon="12.08834271552089"><ele>1.0</ele><time>2026-04-19T08:38:56Z</time></trkpt><trkpt lat="45.0243056131277" lon="12.088592079158957"><ele>1.0</ele><time>2026-04-19T08:38:57Z</time></trkpt><trkpt lat="45.0243226780229" lon="12.088852957537842"><ele>1.0</ele><time>2026-04-19T08:38:58Z</time></trkpt><trkpt lat="45.02432918021965" lon="12.089131972650527"><ele>1.0</ele><time>2026-04-19T08:38:59Z</time></trkpt><trkpt lat="45.02433523432314" lon="12.08942045986325"><ele>1.3333333333333333</ele><time>2026-04-19T08:39:00Z</time></trkpt><trkpt lat="45.02434624422082" lon="12.089714813196746"><ele>1.6666666666666665</ele><time>2026-04-19T08:39:01Z</time></trkpt><trkpt lat="45.02436315754268" lon="12.090000429946278"><ele>2.0</ele><time>2026-04-19T08:39:02Z</time></trkpt><trkpt lat="45.02438498617132" lon="12.090293019701868"><ele>2.0</ele><time>2026-04-19T08:39:03Z</time></trkpt><trkpt lat="45.024412060911885" lon="12.090584632556443"><ele>2.0</ele><time>2026-04-19T08:39:04Z</time></trkpt><trkpt lat="45.02444032773333" lon="12.090877313834637"><ele>2.0</ele><time>2026-04-19T08:39:05Z</time></trkpt><trkpt lat="45.024465154121955" lon="12.091167095499534"><ele>1.6666666666666665</ele><time>2026-04-19T08:39:06Z</time></trkpt><trkpt lat="45.02448777507732" lon="12.09145927465666"><ele>1.3333333333333333</ele><time>2026-04-19T08:39:07Z</time></trkpt><trkpt lat="45.02451015588055" lon="12.09175368487375"><ele>1.0</ele><time>2026-04-19T08:39:08Z</time></trkpt><trkpt lat="45.02453157173156" lon="12.092044675439674"><ele>1.0</ele><time>2026-04-19T08:39:09Z</time></trkpt><trkpt lat="45.024551121023144" lon="12.092327198282925"><ele>1.0</ele><time>2026-04-19T08:39:10Z</time></trkpt><trkpt lat="45.02457050802773" lon="12.092607694028352"><ele>1.0</ele><time>2026-04-19T08:39:11Z</time></trkpt><trkpt lat="45.02458436606912" lon="12.092865260720014"><ele>1.3333333333333333</ele><time>2026-04-19T08:39:12Z</time></trkpt><trkpt lat="45.024594491399476" lon="12.093109466460714"><ele>1.6666666666666665</ele><time>2026-04-19T08:39:13Z</time></trkpt><trkpt lat="45.02460146926031" lon="12.093349471187041"><ele>2.0</ele><time>2026-04-19T08:39:14Z</time></trkpt><trkpt lat="45.024605215118505" lon="12.093595320823184"><ele>1.3333333333333333</ele><time>2026-04-19T08:39:15Z</time></trkpt><trkpt lat="45.02460832422917" lon="12.093847887582394"><ele>0.6666666666666666</ele><time>2026-04-19T08:39:16Z</time></trkpt><trkpt lat="45.02460990072766" lon="12.0941011088991"><ele>0.0</ele><time>2026-04-19T08:39:17Z</time></trkpt><trkpt lat="45.02460800650647" lon="12.09434990857142"><ele>0.0</ele><time>2026-04-19T08:39:18Z</time></trkpt><trkpt lat="45.02460735309275" lon="12.094583837147983"><ele>0.0</ele><time>2026-04-19T08:39:19Z</time></trkpt><trkpt lat="45.02460873723649" lon="12.09480094128604"><ele>0.0</ele><time>2026-04-19T08:39:20Z</time></trkpt><trkpt lat="45.02461056802654" lon="12.09501655889801"><ele>0.0</ele><time>2026-04-19T08:39:21Z</time></trkpt><trkpt lat="45.024613228985466" lon="12.095229077995116"><ele>0.0</ele><time>2026-04-19T08:39:22Z</time></trkpt><trkpt lat="45.024615248151626" lon="12.095439517850153"><ele>0.0</ele><time>2026-04-19T08:39:23Z</time></trkpt><trkpt lat="45.02461341806719" lon="12.095645675847251"><ele>0.0</ele><time>2026-04-19T08:39:24.001Z</time></trkpt><trkpt lat="45.02460549808213" lon="12.0958472492068"><ele>-0.25</ele><time>2026-04-19T08:39:25.001Z</time></trkpt><trkpt lat="45.02459424821303" lon="12.096042284561438"><ele>-0.5</ele><time>2026-04-19T08:39:26.001Z</time></trkpt><trkpt lat="45.02458242669247" lon="12.096222555524996"><ele>-0.75</ele><time>2026-04-19T08:39:27.001Z</time></trkpt><trkpt lat="45.02457079412" lon="12.096400361629913"><ele>-1.0</ele><time>2026-04-19T08:39:28.001Z</time></trkpt><trkpt lat="45.024557401173745" lon="12.09658464654092"><ele>-0.5</ele><time>2026-04-19T08:39:29.001Z</time></trkpt><trkpt lat="45.02454069138663" lon="12.096778584617363"><ele>0.0</ele><time>2026-04-19T08:39:30.001Z</time></trkpt><trkpt lat="45.024526265389206" lon="12.096979560022714"><ele>0.5</ele><time>2026-04-19T08:39:31.001Z</time></trkpt><trkpt lat="45.02452007620844" lon="12.097190712949121"><ele>1.0</ele><time>2026-04-19T08:39:32.001Z</time></trkpt><trkpt lat="45.02452674487054" lon="12.097399105918605"><ele>1.3333333333333333</ele><time>2026-04-19T08:39:33.001Z</time></trkpt><trkpt lat="45.024549899556426" lon="12.097605838440868"><ele>1.6666666666666665</ele><time>2026-04-19T08:39:34.001Z</time></trkpt><trkpt lat="45.02458803711674" lon="12.097819281069462"><ele>2.0</ele><time>2026-04-19T08:39:35.001Z</time></trkpt><trkpt lat="45.024633129019094" lon="12.098037045228805"><ele>1.3333333333333333</ele><time>2026-04-19T08:39:36.001Z</time></trkpt><trkpt lat="45.0246731947888" lon="12.098258248638178"><ele>0.6666666666666666</ele><time>2026-04-19T08:39:37.001Z</time></trkpt><trkpt lat="45.02470203026561" lon="12.09849473871556"><ele>0.0</ele><time>2026-04-19T08:39:38.001Z</time></trkpt><trkpt lat="45.02471779558792" lon="12.09874417637063"><ele>0.0</ele><time>2026-04-19T08:39:39.001Z</time></trkpt><trkpt lat="45.02471842679797" lon="12.099004644313876"><ele>0.0</ele><time>2026-04-19T08:39:40.001Z</time></trkpt><trkpt lat="45.02470425034801" lon="12.099273887469526"><ele>0.0</ele><time>2026-04-19T08:39:41.001Z</time></trkpt><trkpt lat="45.02468739541371" lon="12.099555465078017"><ele>0.0</ele><time>2026-04-19T08:39:42.001Z</time></trkpt><trkpt lat="45.024665085037164" lon="12.099849718459136"><ele>0.0</ele><time>2026-04-19T08:39:43.001Z</time></trkpt><trkpt lat="45.02464383676136" lon="12.100144507433647"><ele>0.0</ele><time>2026-04-19T08:39:44.001Z</time></trkpt><trkpt lat="45.02461460724944" lon="12.100436225024012"><ele>0.0</ele><time>2026-04-19T08:39:45.001Z</time></trkpt><trkpt lat="45.02458094228336" lon="12.100724590494469"><ele>0.0</ele><time>2026-04-19T08:39:46.001Z</time></trkpt><trkpt lat="45.024542089111165" lon="12.101004024582183"><ele>0.0</ele><time>2026-04-19T08:39:47.001Z</time></trkpt><trkpt lat="45.02450063625079" lon="12.101253369450262"><ele>0.3333333333333333</ele><time>2026-04-19T08:39:48.001Z</time></trkpt><trkpt lat="45.02446682339706" lon="12.10149589856009"><ele>0.6666666666666666</ele><time>2026-04-19T08:39:49.001Z</time></trkpt><trkpt lat="45.02443755299777" lon="12.101725203297189"><ele>1.0</ele><time>2026-04-19T08:39:50.001Z</time></trkpt><trkpt lat="45.0244076029554" lon="12.101935477704146"><ele>1.5</ele><time>2026-04-19T08:39:51.001Z</time></trkpt><trkpt lat="45.02438125450315" lon="12.10212258887639"><ele>2.0</ele><time>2026-04-19T08:39:52.001Z</time></trkpt><trkpt lat="45.0243549257562" lon="12.102310935715353"><ele>2.5</ele><time>2026-04-19T08:39:53.001Z</time></trkpt><trkpt lat="45.02432768877369" lon="12.10250905474844"><ele>3.0</ele><time>2026-04-19T08:39:54.001Z</time></trkpt><trkpt lat="45.02430167929462" lon="12.102718121816391"><ele>3.0</ele><time>2026-04-19T08:39:55.001Z</time></trkpt><trkpt lat="45.02427837483986" lon="12.102938359982058"><ele>3.0</ele><time>2026-04-19T08:39:56.001Z</time></trkpt><trkpt lat="45.02426265923649" lon="12.103164641173061"><ele>3.0</ele><time>2026-04-19T08:39:57.001Z</time></trkpt><trkpt lat="45.02425394213747" lon="12.10339633969516"><ele>3.0</ele><time>2026-04-19T08:39:58.001Z</time></trkpt><trkpt lat="45.02424407847829" lon="12.10362709426335"><ele>3.0</ele><time>2026-04-19T08:39:59.001Z</time></trkpt><trkpt lat="45.024233667076146" lon="12.103853723025823"><ele>3.0</ele><time>2026-04-19T08:40:00.001Z</time></trkpt><trkpt lat="45.02422584905221" lon="12.104074281431192"><ele>3.333333333333333</ele><time>2026-04-19T08:40:01.001Z</time></trkpt><trkpt lat="45.0242164020121" lon="12.104291410550212"><ele>3.6666666666666665</ele><time>2026-04-19T08:40:02.001Z</time></trkpt><trkpt lat="45.02420526915318" lon="12.104506737379529"><ele>4.0</ele><time>2026-04-19T08:40:03.001Z</time></trkpt><trkpt lat="45.02419610099626" lon="12.104724648142795"><ele>3.333333333333333</ele><time>2026-04-19T08:40:04.001Z</time></trkpt><trkpt lat="45.0241895671728" lon="12.104939722375587"><ele>2.6666666666666665</ele><time>2026-04-19T08:40:05.001Z</time></trkpt><trkpt lat="45.024184235225135" lon="12.105158971114934"><ele>2.0</ele><time>2026-04-19T08:40:06.001Z</time></trkpt><trkpt lat="45.02417617025931" lon="12.10538409466954"><ele>2.0</ele><time>2026-04-19T08:40:07.001Z</time></trkpt><trkpt lat="45.024165270679475" lon="12.105613249747098"><ele>2.0</ele><time>2026-04-19T08:40:08.001Z</time></trkpt><trkpt lat="45.02415593405715" lon="12.10584134765989"><ele>2.0</ele><time>2026-04-19T08:40:09.001Z</time></trkpt><trkpt lat="45.02414710407539" lon="12.106067968093756"><ele>1.3333333333333333</ele><time>2026-04-19T08:40:10.001Z</time></trkpt><trkpt lat="45.02413928752898" lon="12.106300915677487"><ele>0.6666666666666666</ele><time>2026-04-19T08:40:11.001Z</time></trkpt><trkpt lat="45.02413030669213" lon="12.106540473714725"><ele>0.0</ele><time>2026-04-19T08:40:12.001Z</time></trkpt><trkpt lat="45.0241211202192" lon="12.106784237769903"><ele>0.0</ele><time>2026-04-19T08:40:13.001Z</time></trkpt><trkpt lat="45.02411232227273" lon="12.1070265115546"><ele>0.0</ele><time>2026-04-19T08:40:14.001Z</time></trkpt><trkpt lat="45.02410321500089" lon="12.10726369702627"><ele>0.0</ele><time>2026-04-19T08:40:15.001Z</time></trkpt><trkpt lat="45.02409258379165" lon="12.107506670581781"><ele>0.0</ele><time>2026-04-19T08:40:16.001Z</time></trkpt><trkpt lat="45.02408044883232" lon="12.107752793997522"><ele>0.0</ele><time>2026-04-19T08:40:17.001Z</time></trkpt><trkpt lat="45.02406838383896" lon="12.107998854735502"><ele>0.0</ele><time>2026-04-19T08:40:18.001Z</time></trkpt><trkpt lat="45.02405719537132" lon="12.108240060226045"><ele>0.3333333333333333</ele><time>2026-04-19T08:40:19.001Z</time></trkpt><trkpt lat="45.02404596359078" lon="12.108473460408007"><ele>0.6666666666666666</ele><time>2026-04-19T08:40:20.001Z</time></trkpt><trkpt lat="45.02403405165673" lon="12.108703832650146"><ele>1.0</ele><time>2026-04-19T08:40:21.001Z</time></trkpt><trkpt lat="45.02402090188726" lon="12.108933740736044"><ele>1.0</ele><time>2026-04-19T08:40:22.001Z</time></trkpt><trkpt lat="45.02400596217163" lon="12.10916630349014"><ele>1.0</ele><time>2026-04-19T08:40:23.001Z</time></trkpt><trkpt lat="45.02398943165872" lon="12.109405239938132"><ele>1.0</ele><time>2026-04-19T08:40:24.001Z</time></trkpt><trkpt lat="45.02397143687772" lon="12.109642869021139"><ele>1.0</ele><time>2026-04-19T08:40:25.001Z</time></trkpt><trkpt lat="45.02395053324948" lon="12.109879064978854"><ele>1.0</ele><time>2026-04-19T08:40:26.001Z</time></trkpt><trkpt lat="45.02392708334388" lon="12.110117824236815"><ele>1.0</ele><time>2026-04-19T08:40:27.001Z</time></trkpt><trkpt lat="45.02389974781413" lon="12.110356168070911"><ele>1.3333333333333333</ele><time>2026-04-19T08:40:28.001Z</time></trkpt><trkpt lat="45.0238699428173" lon="12.110600123274587"><ele>1.6666666666666665</ele><time>2026-04-19T08:40:29.001Z</time></trkpt><trkpt lat="45.02383558285612" lon="12.110845205878123"><ele>2.0</ele><time>2026-04-19T08:40:30.001Z</time></trkpt><trkpt lat="45.02379603298366" lon="12.111089876938403"><ele>2.0</ele><time>2026-04-19T08:40:31.001Z</time></trkpt><trkpt lat="45.02375154358155" lon="12.111334510956375"><ele>2.0</ele><time>2026-04-19T08:40:32.001Z</time></trkpt><trkpt lat="45.02370236765223" lon="12.111566636763156"><ele>2.0</ele><time>2026-04-19T08:40:33.001Z</time></trkpt><trkpt lat="45.02364879065853" lon="12.111794160545738"><ele>1.3333333333333333</ele><time>2026-04-19T08:40:34.001Z</time></trkpt><trkpt lat="45.02359224268898" lon="12.112014470457241"><ele>0.6666666666666666</ele><time>2026-04-19T08:40:35.001Z</time></trkpt><trkpt lat="45.02352943132551" lon="12.112230501687133"><ele>0.0</ele><time>2026-04-19T08:40:36.001Z</time></trkpt><trkpt lat="45.02345790920664" lon="12.11244093574664"><ele>0.0</ele><time>2026-04-19T08:40:37.001Z</time></trkpt><trkpt lat="45.02337841861915" lon="12.112654468550963"><ele>0.0</ele><time>2026-04-19T08:40:38.001Z</time></trkpt><trkpt lat="45.02328999093136" lon="12.11286893044772"><ele>0.0</ele><time>2026-04-19T08:40:39.001Z</time></trkpt><trkpt lat="45.02319868096225" lon="12.113086466767873"><ele>-0.6666666666666666</ele><time>2026-04-19T08:40:40.001Z</time></trkpt><trkpt lat="45.02310524613296" lon="12.113304860041605"><ele>-1.3333333333333333</ele><time>2026-04-19T08:40:41.001Z</time></trkpt><trkpt lat="45.02301168836346" lon="12.113525845796056"><ele>-2.0</ele><time>2026-04-19T08:40:42Z</time></trkpt><trkpt lat="45.022919830189004" lon="12.11374436209872"><ele>-2.0</ele><time>2026-04-19T08:40:43Z</time></trkpt><trkpt lat="45.022830943378075" lon="12.113952451148359"><ele>-2.0</ele><time>2026-04-19T08:40:44Z</time></trkpt><trkpt lat="45.02274070522882" lon="12.114156741199732"><ele>-2.0</ele><time>2026-04-19T08:40:45Z</time></trkpt><trkpt lat="45.02265224942109" lon="12.114361559971911"><ele>-1.6666666666666665</ele><time>2026-04-19T08:40:46Z</time></trkpt><trkpt lat="45.02256332242675" lon="12.114577310123403"><ele>-1.3333333333333333</ele><time>2026-04-19T08:40:47Z</time></trkpt><trkpt lat="45.02247361955172" lon="12.114794950599798"><ele>-1.0</ele><time>2026-04-19T08:40:48Z</time></trkpt><trkpt lat="45.02238264397625" lon="12.115018376109623"><ele>-1.0</ele><time>2026-04-19T08:40:49Z</time></trkpt><trkpt lat="45.022290405231985" lon="12.115238134091262"><ele>-1.0</ele><time>2026-04-19T08:40:50Z</time></trkpt><trkpt lat="45.02219472003149" lon="12.11546195478769"><ele>-1.0</ele><time>2026-04-19T08:40:51Z</time></trkpt><trkpt lat="45.02209748334389" lon="12.115685983229199"><ele>-0.3333333333333333</ele><time>2026-04-19T08:40:52Z</time></trkpt><trkpt lat="45.02200052867116" lon="12.115912625845807"><ele>0.3333333333333333</ele><time>2026-04-19T08:40:53Z</time></trkpt><trkpt lat="45.021903689805704" lon="12.116141344646374"><ele>1.0</ele><time>2026-04-19T08:40:54Z</time></trkpt><trkpt lat="45.02180560774638" lon="12.116371718288029"><ele>1.0</ele><time>2026-04-19T08:40:55Z</time></trkpt><trkpt lat="45.02170882211626" lon="12.116600269640253"><ele>1.0</ele><time>2026-04-19T08:40:56Z</time></trkpt><trkpt lat="45.02161382989481" lon="12.116829798639968"><ele>1.0</ele><time>2026-04-19T08:40:57Z</time></trkpt><trkpt lat="45.021521548903046" lon="12.117063269229533"><ele>0.6666666666666666</ele><time>2026-04-19T08:40:58Z</time></trkpt><trkpt lat="45.02143412615459" lon="12.11730070114004"><ele>0.3333333333333333</ele><time>2026-04-19T08:40:59Z</time></trkpt><trkpt lat="45.02134718648916" lon="12.11754543227839"><ele>0.0</ele><time>2026-04-19T08:41:00Z</time></trkpt><trkpt lat="45.021263302854855" lon="12.117792459815456"><ele>0.0</ele><time>2026-04-19T08:41:01Z</time></trkpt><trkpt lat="45.021185134541966" lon="12.118042486020434"><ele>0.0</ele><time>2026-04-19T08:41:02Z</time></trkpt><trkpt lat="45.02111481171028" lon="12.118293088644046"><ele>0.0</ele><time>2026-04-19T08:41:03Z</time></trkpt><trkpt lat="45.021050873088626" lon="12.11854017468631"><ele>0.3333333333333333</ele><time>2026-04-19T08:41:04Z</time></trkpt><trkpt lat="45.020991422352694" lon="12.11878521024952"><ele>0.6666666666666666</ele><time>2026-04-19T08:41:05Z</time></trkpt><trkpt lat="45.02093665507909" lon="12.119026886728447"><ele>1.0</ele><time>2026-04-19T08:41:06Z</time></trkpt><trkpt lat="45.0208873330255" lon="12.119271080264344"><ele>1.0</ele><time>2026-04-19T08:41:07Z</time></trkpt><trkpt lat="45.020843096465015" lon="12.119514047828819"><ele>1.0</ele><time>2026-04-19T08:41:08Z</time></trkpt><trkpt lat="45.02080028628461" lon="12.119753335680985"><ele>1.0</ele><time>2026-04-19T08:41:09Z</time></trkpt><trkpt lat="45.020757553454246" lon="12.120007911525711"><ele>0.6666666666666666</ele><time>2026-04-19T08:41:10Z</time></trkpt><trkpt lat="45.020720397786675" lon="12.120263120553505"><ele>0.3333333333333333</ele><time>2026-04-19T08:41:11Z</time></trkpt><trkpt lat="45.020691097652886" lon="12.120521279039357"><ele>0.0</ele><time>2026-04-19T08:41:12Z</time></trkpt><trkpt lat="45.020667000401126" lon="12.120785671292577"><ele>-0.3333333333333333</ele><time>2026-04-19T08:41:13Z</time></trkpt><trkpt lat="45.02064908024421" lon="12.12105818944702"><ele>-0.6666666666666666</ele><time>2026-04-19T08:41:14Z</time></trkpt><trkpt lat="45.020635922323564" lon="12.121329968495349"><ele>-1.0</ele><time>2026-04-19T08:41:15Z</time></trkpt><trkpt lat="45.02062747487834" lon="12.121597199297465"><ele>-1.3333333333333333</ele><time>2026-04-19T08:41:16Z</time></trkpt><trkpt lat="45.02062541394952" lon="12.121862511707025"><ele>-1.6666666666666665</ele><time>2026-04-19T08:41:17Z</time></trkpt><trkpt lat="45.020629586538895" lon="12.122118702252616"><ele>-2.0</ele><time>2026-04-19T08:41:18Z</time></trkpt><trkpt lat="45.02063924828911" lon="12.122362813568877"><ele>-1.3333333333333333</ele><time>2026-04-19T08:41:19.001Z</time></trkpt><trkpt lat="45.02064999613948" lon="12.122608793987261"><ele>-0.6666666666666666</ele><time>2026-04-19T08:41:20.001Z</time></trkpt><trkpt lat="45.020667239288805" lon="12.122857327714003"><ele>0.0</ele><time>2026-04-19T08:41:21.001Z</time></trkpt><trkpt lat="45.02068933841131" lon="12.123115742813198"><ele>0.3333333333333333</ele><time>2026-04-19T08:41:22.001Z</time></trkpt><trkpt lat="45.020715042827035" lon="12.123375822246501"><ele>0.6666666666666666</ele><time>2026-04-19T08:41:23.001Z</time></trkpt><trkpt lat="45.02074464445578" lon="12.123640615653109"><ele>1.0</ele><time>2026-04-19T08:41:24.001Z</time></trkpt><trkpt lat="45.02077827759106" lon="12.123906776257527"><ele>1.0</ele><time>2026-04-19T08:41:25.001Z</time></trkpt><trkpt lat="45.02082016417589" lon="12.124173634528558"><ele>1.0</ele><time>2026-04-19T08:41:26.001Z</time></trkpt><trkpt lat="45.02086720474927" lon="12.124435266627792"><ele>1.0</ele><time>2026-04-19T08:41:27.001Z</time></trkpt><trkpt lat="45.02091692465622" lon="12.124691774756933"><ele>1.0</ele><time>2026-04-19T08:41:28.001Z</time></trkpt><trkpt lat="45.02097135018212" lon="12.124941525943413"><ele>1.0</ele><time>2026-04-19T08:41:29.001Z</time></trkpt><trkpt lat="45.02102917381959" lon="12.125189688645168"><ele>1.0</ele><time>2026-04-19T08:41:30.001Z</time></trkpt><trkpt lat="45.021089148249935" lon="12.125438775602865"><ele>1.0</ele><time>2026-04-19T08:41:31.001Z</time></trkpt><trkpt lat="45.021151369230395" lon="12.125690267608405"><ele>1.0</ele><time>2026-04-19T08:41:32.001Z</time></trkpt><trkpt lat="45.02121551956908" lon="12.125941709382202"><ele>1.0</ele><time>2026-04-19T08:41:33.001Z</time></trkpt><trkpt lat="45.02127872069126" lon="12.126190349386246"><ele>0.6666666666666666</ele><time>2026-04-19T08:41:34.001Z</time></trkpt><trkpt lat="45.02133911010079" lon="12.126430227270008"><ele>0.3333333333333333</ele><time>2026-04-19T08:41:35.001Z</time></trkpt><trkpt lat="45.02139375934448" lon="12.126664237457597"><ele>0.0</ele><time>2026-04-19T08:41:36.001Z</time></trkpt><trkpt lat="45.02144625688724" lon="12.126911459669634"><ele>0.0</ele><time>2026-04-19T08:41:37.001Z</time></trkpt><trkpt lat="45.02149444423801" lon="12.127163277710611"><ele>0.0</ele><time>2026-04-19T08:41:38.001Z</time></trkpt><trkpt lat="45.021534547791354" lon="12.127420738909427"><ele>0.0</ele><time>2026-04-19T08:41:39.001Z</time></trkpt><trkpt lat="45.02157210964004" lon="12.127682394972203"><ele>-0.3333333333333333</ele><time>2026-04-19T08:41:40.001Z</time></trkpt><trkpt lat="45.02160878232448" lon="12.127949914830976"><ele>-0.6666666666666666</ele><time>2026-04-19T08:41:41.001Z</time></trkpt><trkpt lat="45.02164361362752" lon="12.128221646998625"><ele>-1.0</ele><time>2026-04-19T08:41:42.001Z</time></trkpt><trkpt lat="45.02167558247438" lon="12.128480538603231"><ele>0.0</ele><time>2026-04-19T08:41:43.001Z</time></trkpt><trkpt lat="45.021702700897784" lon="12.128732100101239"><ele>1.0</ele><time>2026-04-19T08:41:44.001Z</time></trkpt><trkpt lat="45.02172308125953" lon="12.12898664699185"><ele>2.0</ele><time>2026-04-19T08:41:45.001Z</time></trkpt><trkpt lat="45.02173666861695" lon="12.129245673686208"><ele>2.0</ele><time>2026-04-19T08:41:46.001Z</time></trkpt><trkpt lat="45.02174221605554" lon="12.12950712043651"><ele>2.0</ele><time>2026-04-19T08:41:47.001Z</time></trkpt><trkpt lat="45.02174542823788" lon="12.129773982591763"><ele>2.0</ele><time>2026-04-19T08:41:48.001Z</time></trkpt><trkpt lat="45.021748794898095" lon="12.130052135292805"><ele>1.3333333333333333</ele><time>2026-04-19T08:41:49.001Z</time></trkpt><trkpt lat="45.02175336232502" lon="12.13034301899509"><ele>0.6666666666666666</ele><time>2026-04-19T08:41:50.001Z</time></trkpt><trkpt lat="45.02175591780236" lon="12.130622125829447"><ele>0.0</ele><time>2026-04-19T08:41:51.001Z</time></trkpt><trkpt lat="45.021760918619776" lon="12.130899941679198"><ele>0.0</ele><time>2026-04-19T08:41:52.001Z</time></trkpt><trkpt lat="45.021766772533496" lon="12.131182105758674"><ele>0.0</ele><time>2026-04-19T08:41:53.001Z</time></trkpt><trkpt lat="45.02177223818584" lon="12.131464738550642"><ele>0.0</ele><time>2026-04-19T08:41:54.001Z</time></trkpt><trkpt lat="45.02177803634202" lon="12.131748648448871"><ele>0.3333333333333333</ele><time>2026-04-19T08:41:55.001Z</time></trkpt><trkpt lat="45.02178469528996" lon="12.132031036758347"><ele>0.6666666666666666</ele><time>2026-04-19T08:41:56.001Z</time></trkpt><trkpt lat="45.021795030221924" lon="12.132303615473587"><ele>1.0</ele><time>2026-04-19T08:41:57.001Z</time></trkpt><trkpt lat="45.021812797362024" lon="12.132573920355812"><ele>1.0</ele><time>2026-04-19T08:41:58.001Z</time></trkpt><trkpt lat="45.02184183874757" lon="12.132843967831258"><ele>1.0</ele><time>2026-04-19T08:41:59.001Z</time></trkpt><trkpt lat="45.02188578108995" lon="12.133113867414835"><ele>1.0</ele><time>2026-04-19T08:42:00.001Z</time></trkpt><trkpt lat="45.021943391856844" lon="12.133384593770428"><ele>0.6666666666666666</ele><time>2026-04-19T08:42:01.001Z</time></trkpt><trkpt lat="45.022006189610075" lon="12.133659203909456"><ele>0.3333333333333333</ele><time>2026-04-19T08:42:02.001Z</time></trkpt><trkpt lat="45.022075875972845" lon="12.133932567077913"><ele>0.0</ele><time>2026-04-19T08:42:03.001Z</time></trkpt><trkpt lat="45.022154579506775" lon="12.134203812720955"><ele>0.0</ele><time>2026-04-19T08:42:04.001Z</time></trkpt><trkpt lat="45.022245601947944" lon="12.134468738194903"><ele>0.0</ele><time>2026-04-19T08:42:05.001Z</time></trkpt><trkpt lat="45.02234801148506" lon="12.134728426063662"><ele>0.0</ele><time>2026-04-19T08:42:06.001Z</time></trkpt><trkpt lat="45.022458827660174" lon="12.134983496924184"><ele>0.3333333333333333</ele><time>2026-04-19T08:42:07.001Z</time></trkpt><trkpt lat="45.022569398073415" lon="12.135241853470998"><ele>0.6666666666666666</ele><time>2026-04-19T08:42:08.001Z</time></trkpt><trkpt lat="45.02267885820252" lon="12.135502567353974"><ele>1.0</ele><time>2026-04-19T08:42:09.001Z</time></trkpt><trkpt lat="45.02278925189137" lon="12.13575888769809"><ele>1.0</ele><time>2026-04-19T08:42:10.001Z</time></trkpt><trkpt lat="45.02290312530576" lon="12.136025695556187"><ele>1.0</ele><time>2026-04-19T08:42:11.001Z</time></trkpt><trkpt lat="45.02301443624245" lon="12.136293877482332"><ele>1.0</ele><time>2026-04-19T08:42:12.001Z</time></trkpt><trkpt lat="45.023118713930046" lon="12.136550881739506"><ele>1.0</ele><time>2026-04-19T08:42:13.001Z</time></trkpt><trkpt lat="45.02322384031066" lon="12.136814699903333"><ele>1.0</ele><time>2026-04-19T08:42:14.001Z</time></trkpt><trkpt lat="45.02331581968629" lon="12.13709532342769"><ele>1.0</ele><time>2026-04-19T08:42:15.001Z</time></trkpt><trkpt lat="45.023438397189615" lon="12.137362799409065"><ele>1.0</ele><time>2026-04-19T08:42:16.001Z</time></trkpt><trkpt lat="45.02355086500177" lon="12.137653959362208"><ele>1.0</ele><time>2026-04-19T08:42:17.001Z</time></trkpt><trkpt lat="45.02367340010986" lon="12.137964791830465"><ele>0.5</ele><time>2026-04-19T08:42:18.001Z</time></trkpt><trkpt lat="45.02379919896898" lon="12.138271938597622"><ele>0.0</ele><time>2026-04-19T08:42:19.001Z</time></trkpt><trkpt lat="45.02391945595858" lon="12.13856201565648"><ele>0.0</ele><time>2026-04-19T08:42:20.001Z</time></trkpt><trkpt lat="45.024043405957414" lon="12.138862179377453"><ele>0.0</ele><time>2026-04-19T08:42:21.001Z</time></trkpt><trkpt lat="45.0241669182249" lon="12.139159912358055"><ele>0.0</ele><time>2026-04-19T08:42:22.001Z</time></trkpt><trkpt lat="45.02429108554773" lon="12.139454351245144"><ele>0.0</ele><time>2026-04-19T08:42:23.001Z</time></trkpt><trkpt lat="45.024417712398275" lon="12.13974595209944"><ele>-1.0</ele><time>2026-04-19T08:42:24.001Z</time></trkpt><trkpt lat="45.02454687256669" lon="12.140031284822014"><ele>-2.0</ele><time>2026-04-19T08:42:25.001Z</time></trkpt><trkpt lat="45.02467258427998" lon="12.140304621799523"><ele>-2.0</ele><time>2026-04-19T08:42:26.001Z</time></trkpt><trkpt lat="45.02478711241085" lon="12.140572305619735"><ele>-2.0</ele><time>2026-04-19T08:42:27.001Z</time></trkpt><trkpt lat="45.024894210401925" lon="12.140841499984116"><ele>-2.0</ele><time>2026-04-19T08:42:28.001Z</time></trkpt><trkpt lat="45.024991377496" lon="12.14111875464148"><ele>-2.0</ele><time>2026-04-19T08:42:29.001Z</time></trkpt><trkpt lat="45.025090369872956" lon="12.141397349639151"><ele>-2.0</ele><time>2026-04-19T08:42:30.001Z</time></trkpt><trkpt lat="45.02517856917167" lon="12.141695474115416"><ele>-2.0</ele><time>2026-04-19T08:42:31.001Z</time></trkpt><trkpt lat="45.02529867934758" lon="12.141976401754379"><ele>-1.0</ele><time>2026-04-19T08:42:32.001Z</time></trkpt><trkpt lat="45.02540648865454" lon="12.142272926393586"><ele>0.0</ele><time>2026-04-19T08:42:33.001Z</time></trkpt><trkpt lat="45.02551732646537" lon="12.14257335221633"><ele>0.5</ele><time>2026-04-19T08:42:34.001Z</time></trkpt><trkpt lat="45.02562854720367" lon="12.142871007064226"><ele>1.0</ele><time>2026-04-19T08:42:35.001Z</time></trkpt><trkpt lat="45.0257411002197" lon="12.14316872391746"><ele>-0.5</ele><time>2026-04-19T08:42:36.001Z</time></trkpt><trkpt lat="45.02585671051323" lon="12.14346446474753"><ele>-2.0</ele><time>2026-04-19T08:42:37.001Z</time></trkpt><trkpt lat="45.0259778273885" lon="12.143754426281468"><ele>-2.0</ele><time>2026-04-19T08:42:38.001Z</time></trkpt><trkpt lat="45.02610675583182" lon="12.144038032083445"><ele>-2.0</ele><time>2026-04-19T08:42:39.001Z</time></trkpt><trkpt lat="45.02623408201951" lon="12.14430090210728"><ele>-1.3333333333333333</ele><time>2026-04-19T08:42:40.001Z</time></trkpt><trkpt lat="45.026352759594" lon="12.144544034530046"><ele>-0.6666666666666666</ele><time>2026-04-19T08:42:41.001Z</time></trkpt><trkpt lat="45.026471797504385" lon="12.14478421856181"><ele>0.0</ele><time>2026-04-19T08:42:42.001Z</time></trkpt><trkpt lat="45.026587518382506" lon="12.145018455194803"><ele>0.6666666666666666</ele><time>2026-04-19T08:42:43.001Z</time></trkpt><trkpt lat="45.026697853862466" lon="12.145253478763358"><ele>1.3333333333333333</ele><time>2026-04-19T08:42:44.001Z</time></trkpt><trkpt lat="45.02679791018165" lon="12.145500616211448"><ele>2.0</ele><time>2026-04-19T08:42:45.001Z</time></trkpt><trkpt lat="45.02688516113414" lon="12.145758524920137"><ele>2.0</ele><time>2026-04-19T08:42:46.001Z</time></trkpt><trkpt lat="45.026975037827356" lon="12.14602653308111"><ele>2.0</ele><time>2026-04-19T08:42:47.001Z</time></trkpt><trkpt lat="45.02707115281186" lon="12.146295961881878"><ele>2.0</ele><time>2026-04-19T08:42:48.001Z</time></trkpt><trkpt lat="45.02717074478571" lon="12.146563010433324"><ele>2.333333333333333</ele><time>2026-04-19T08:42:49.001Z</time></trkpt><trkpt lat="45.02727148384954" lon="12.14681569612978"><ele>2.6666666666666665</ele><time>2026-04-19T08:42:50.001Z</time></trkpt><trkpt lat="45.02736749411804" lon="12.14705139895592"><ele>3.0</ele><time>2026-04-19T08:42:51.001Z</time></trkpt><trkpt lat="45.02746006187159" lon="12.147273910644383"><ele>2.6666666666666665</ele><time>2026-04-19T08:42:52.001Z</time></trkpt><trkpt lat="45.02755503074897" lon="12.147501583122711"><ele>2.333333333333333</ele><time>2026-04-19T08:42:53.001Z</time></trkpt><trkpt lat="45.027652965497396" lon="12.147730401063347"><ele>2.0</ele><time>2026-04-19T08:42:54.001Z</time></trkpt><trkpt lat="45.02775200291808" lon="12.147958389035761"><ele>2.0</ele><time>2026-04-19T08:42:55.001Z</time></trkpt><trkpt lat="45.02785019316217" lon="12.148186885232374"><ele>2.0</ele><time>2026-04-19T08:42:56.001Z</time></trkpt><trkpt lat="45.0279426665503" lon="12.148417740702753"><ele>2.0</ele><time>2026-04-19T08:42:57.001Z</time></trkpt><trkpt lat="45.02803168944877" lon="12.14864966255475"><ele>2.0</ele><time>2026-04-19T08:42:58.001Z</time></trkpt><trkpt lat="45.02812506751045" lon="12.148888696962624"><ele>2.0</ele><time>2026-04-19T08:42:59.001Z</time></trkpt><trkpt lat="45.02822063477489" lon="12.149133790750701"><ele>2.0</ele><time>2026-04-19T08:43:00.001Z</time></trkpt><trkpt lat="45.02831495544003" lon="12.149383935849196"><ele>2.0</ele><time>2026-04-19T08:43:01.001Z</time></trkpt><trkpt lat="45.02840443623628" lon="12.149627330119621"><ele>2.0</ele><time>2026-04-19T08:43:02.001Z</time></trkpt><trkpt lat="45.028492827665666" lon="12.149867035017683"><ele>2.0</ele><time>2026-04-19T08:43:03.001Z</time></trkpt><trkpt lat="45.028583948492255" lon="12.150107065774327"><ele>2.0</ele><time>2026-04-19T08:43:04.001Z</time></trkpt><trkpt lat="45.02867444675535" lon="12.150347168671889"><ele>2.0</ele><time>2026-04-19T08:43:05.001Z</time></trkpt><trkpt lat="45.028760884819604" lon="12.150584360199133"><ele>2.0</ele><time>2026-04-19T08:43:06.001Z</time></trkpt><trkpt lat="45.02884647656573" lon="12.150820921110862"><ele>2.333333333333333</ele><time>2026-04-19T08:43:07.001Z</time></trkpt><trkpt lat="45.02893294475956" lon="12.151055967521918"><ele>2.6666666666666665</ele><time>2026-04-19T08:43:08.001Z</time></trkpt><trkpt lat="45.02902045332788" lon="12.151291830244752"><ele>3.0</ele><time>2026-04-19T08:43:09.001Z</time></trkpt><trkpt lat="45.02910832954727" lon="12.151533446158018"><ele>2.6666666666666665</ele><time>2026-04-19T08:43:10.001Z</time></trkpt><trkpt lat="45.02918580866856" lon="12.151781885976698"><ele>2.333333333333333</ele><time>2026-04-19T08:43:11.001Z</time></trkpt><trkpt lat="45.02925287311842" lon="12.152030504692164"><ele>2.0</ele><time>2026-04-19T08:43:12.001Z</time></trkpt><trkpt lat="45.02931651501994" lon="12.15228258521302"><ele>2.333333333333333</ele><time>2026-04-19T08:43:13.001Z</time></trkpt><trkpt lat="45.029375079356136" lon="12.152534946116042"><ele>2.6666666666666665</ele><time>2026-04-19T08:43:14.001Z</time></trkpt><trkpt lat="45.029429386038736" lon="12.152768485730284"><ele>3.0</ele><time>2026-04-19T08:43:15.001Z</time></trkpt><trkpt lat="45.02948600925829" lon="12.153011300796429"><ele>2.6666666666666665</ele><time>2026-04-19T08:43:16.001Z</time></trkpt><trkpt lat="45.02953841522223" lon="12.153255045314676"><ele>2.333333333333333</ele><time>2026-04-19T08:43:17.001Z</time></trkpt><trkpt lat="45.0295809110707" lon="12.153503866282703"><ele>2.0</ele><time>2026-04-19T08:43:18.001Z</time></trkpt><trkpt lat="45.02961440087803" lon="12.153763830487966"><ele>2.0</ele><time>2026-04-19T08:43:19.001Z</time></trkpt><trkpt lat="45.02964208755274" lon="12.154032319376531"><ele>2.0</ele><time>2026-04-19T08:43:20.001Z</time></trkpt><trkpt lat="45.029662725919565" lon="12.154297728363881"><ele>2.0</ele><time>2026-04-19T08:43:21.001Z</time></trkpt><trkpt lat="45.02968514461393" lon="12.154554235121534"><ele>1.6666666666666665</ele><time>2026-04-19T08:43:22.001Z</time></trkpt><trkpt lat="45.02970984864972" lon="12.154796562782924"><ele>1.3333333333333333</ele><time>2026-04-19T08:43:23.001Z</time></trkpt><trkpt lat="45.02973568934159" lon="12.15502768726721"><ele>1.0</ele><time>2026-04-19T08:43:24.001Z</time></trkpt><trkpt lat="45.02976324362929" lon="12.155257929465753"><ele>0.6666666666666666</ele><time>2026-04-19T08:43:25.001Z</time></trkpt><trkpt lat="45.0297946179436" lon="12.155487790385603"><ele>0.3333333333333333</ele><time>2026-04-19T08:43:26.001Z</time></trkpt><trkpt lat="45.02982760171378" lon="12.155719749635116"><ele>0.0</ele><time>2026-04-19T08:43:27.001Z</time></trkpt><trkpt lat="45.029860395758966" lon="12.155953451887529"><ele>-0.6666666666666666</ele><time>2026-04-19T08:43:28.001Z</time></trkpt><trkpt lat="45.02989345754969" lon="12.156189801792092"><ele>-1.3333333333333333</ele><time>2026-04-19T08:43:29.001Z</time></trkpt><trkpt lat="45.02992702792369" lon="12.156429312761128"><ele>-2.0</ele><time>2026-04-19T08:43:30.001Z</time></trkpt><trkpt lat="45.02996150080879" lon="12.15667380245293"><ele>-1.6666666666666665</ele><time>2026-04-19T08:43:31.001Z</time></trkpt><trkpt lat="45.02999630039715" lon="12.15691784857546"><ele>-1.3333333333333333</ele><time>2026-04-19T08:43:32.001Z</time></trkpt><trkpt lat="45.03002959031611" lon="12.157151429851469"><ele>-1.0</ele><time>2026-04-19T08:43:33.001Z</time></trkpt><trkpt lat="45.03006135652993" lon="12.157378115577616"><ele>-0.6666666666666666</ele><time>2026-04-19T08:43:34.001Z</time></trkpt><trkpt lat="45.03009256465928" lon="12.157608182622722"><ele>-0.3333333333333333</ele><time>2026-04-19T08:43:35.001Z</time></trkpt><trkpt lat="45.030121408118056" lon="12.157845953193444"><ele>0.0</ele><time>2026-04-19T08:43:36.001Z</time></trkpt><trkpt lat="45.030143288711" lon="12.158093398879213"><ele>-0.3333333333333333</ele><time>2026-04-19T08:43:37.001Z</time></trkpt><trkpt lat="45.03015410604835" lon="12.158344430748166"><ele>-0.6666666666666666</ele><time>2026-04-19T08:43:38.001Z</time></trkpt><trkpt lat="45.03015650709566" lon="12.15860286376038"><ele>-1.0</ele><time>2026-04-19T08:43:39.001Z</time></trkpt><trkpt lat="45.030155002649856" lon="12.158862752636702"><ele>-1.6666666666666665</ele><time>2026-04-19T08:43:40.001Z</time></trkpt><trkpt lat="45.030152198541394" lon="12.159123705957551"><ele>-2.3333333333333335</ele><time>2026-04-19T08:43:41.001Z</time></trkpt><trkpt lat="45.03015108750314" lon="12.159388790388778"><ele>-3.0</ele><time>2026-04-19T08:43:42.001Z</time></trkpt><trkpt lat="45.03014864824699" lon="12.159657263440307"><ele>-2.3333333333333335</ele><time>2026-04-19T08:43:43.001Z</time></trkpt><trkpt lat="45.03014263703589" lon="12.15993021830061"><ele>-1.6666666666666665</ele><time>2026-04-19T08:43:44.001Z</time></trkpt><trkpt lat="45.030133068068245" lon="12.160209120437761"><ele>-1.0</ele><time>2026-04-19T08:43:45.001Z</time></trkpt><trkpt lat="45.03012077740491" lon="12.160488593111157"><ele>-0.6666666666666666</ele><time>2026-04-19T08:43:46.001Z</time></trkpt><trkpt lat="45.03010351892035" lon="12.160771978851407"><ele>-0.3333333333333333</ele><time>2026-04-19T08:43:47.001Z</time></trkpt><trkpt lat="45.030085499893566" lon="12.161054662122027"><ele>0.0</ele><time>2026-04-19T08:43:48.001Z</time></trkpt><trkpt lat="45.03006366480737" lon="12.161337232067337"><ele>-0.3333333333333333</ele><time>2026-04-19T08:43:49.001Z</time></trkpt><trkpt lat="45.03004308313122" lon="12.16162077008947"><ele>-0.6666666666666666</ele><time>2026-04-19T08:43:50.001Z</time></trkpt><trkpt lat="45.030027188683995" lon="12.161905805196737"><ele>-1.0</ele><time>2026-04-19T08:43:51.001Z</time></trkpt><trkpt lat="45.03002152734456" lon="12.162187057659638"><ele>-1.0</ele><time>2026-04-19T08:43:52.001Z</time></trkpt><trkpt lat="45.030024632023945" lon="12.162471520951783"><ele>-1.0</ele><time>2026-04-19T08:43:53.001Z</time></trkpt><trkpt lat="45.03003394358651" lon="12.162755314301553"><ele>-1.0</ele><time>2026-04-19T08:43:54.001Z</time></trkpt><trkpt lat="45.030044593964405" lon="12.16304129361453"><ele>-1.0</ele><time>2026-04-19T08:43:55.001Z</time></trkpt><trkpt lat="45.030053851312964" lon="12.163329639443226"><ele>-1.0</ele><time>2026-04-19T08:43:56.001Z</time></trkpt><trkpt lat="45.0300593810947" lon="12.16362091313695"><ele>-1.0</ele><time>2026-04-19T08:43:57.001Z</time></trkpt><trkpt lat="45.03006211197974" lon="12.163914878890598"><ele>-0.6666666666666666</ele><time>2026-04-19T08:43:58.001Z</time></trkpt><trkpt lat="45.030057493189304" lon="12.164208281010625"><ele>-0.3333333333333333</ele><time>2026-04-19T08:43:59.001Z</time></trkpt><trkpt lat="45.03004774118182" lon="12.164491802933119"><ele>0.0</ele><time>2026-04-19T08:44:00.001Z</time></trkpt><trkpt lat="45.030029343039665" lon="12.164776248509376"><ele>0.0</ele><time>2026-04-19T08:44:01.001Z</time></trkpt><trkpt lat="45.02999634697722" lon="12.165064249541876"><ele>0.0</ele><time>2026-04-19T08:44:02.001Z</time></trkpt><trkpt lat="45.029951245888014" lon="12.16535140927349"><ele>0.0</ele><time>2026-04-19T08:44:03.001Z</time></trkpt><trkpt lat="45.029898893314375" lon="12.16563400616714"><ele>0.0</ele><time>2026-04-19T08:44:04.001Z</time></trkpt><trkpt lat="45.02984649725851" lon="12.165918941179843"><ele>0.0</ele><time>2026-04-19T08:44:05.001Z</time></trkpt><trkpt lat="45.02980033343001" lon="12.16620979386025"><ele>0.0</ele><time>2026-04-19T08:44:06.001Z</time></trkpt><trkpt lat="45.0297547096711" lon="12.16652682857647"><ele>0.0</ele><time>2026-04-19T08:44:07.001Z</time></trkpt><trkpt lat="45.02970965353794" lon="12.166861036240595"><ele>0.0</ele><time>2026-04-19T08:44:08.001Z</time></trkpt><trkpt lat="45.029666481925666" lon="12.167195936948163"><ele>0.0</ele><time>2026-04-19T08:44:09.001Z</time></trkpt><trkpt lat="45.02962497439464" lon="12.167522500927864"><ele>0.0</ele><time>2026-04-19T08:44:10.001Z</time></trkpt><trkpt lat="45.02958420568666" lon="12.16784952232614"><ele>0.0</ele><time>2026-04-19T08:44:11.001Z</time></trkpt><trkpt lat="45.029545943411286" lon="12.168174131165452"><ele>0.0</ele><time>2026-04-19T08:44:12.001Z</time></trkpt><trkpt lat="45.02951351756321" lon="12.16848995150578"><ele>0.0</ele><time>2026-04-19T08:44:13.001Z</time></trkpt><trkpt lat="45.02948585517186" lon="12.168799825693654"><ele>0.0</ele><time>2026-04-19T08:44:14.001Z</time></trkpt><trkpt lat="45.029457839494874" lon="12.169106503114532"><ele>0.0</ele><time>2026-04-19T08:44:15.001Z</time></trkpt><trkpt lat="45.0294280537007" lon="12.169405297888654"><ele>0.0</ele><time>2026-04-19T08:44:16.001Z</time></trkpt><trkpt lat="45.02939653519121" lon="12.169695728609643"><ele>0.0</ele><time>2026-04-19T08:44:17.001Z</time></trkpt><trkpt lat="45.029362687411485" lon="12.169987931866663"><ele>0.0</ele><time>2026-04-19T08:44:18.001Z</time></trkpt><trkpt lat="45.029327721342085" lon="12.1702818547919"><ele>0.3333333333333333</ele><time>2026-04-19T08:44:19.001Z</time></trkpt><trkpt lat="45.029292251465925" lon="12.170583247430905"><ele>0.6666666666666666</ele><time>2026-04-19T08:44:20.001Z</time></trkpt><trkpt lat="45.02925873206439" lon="12.170876853699426"><ele>1.0</ele><time>2026-04-19T08:44:21.001Z</time></trkpt><trkpt lat="45.02922499993923" lon="12.171159799844451"><ele>0.6666666666666666</ele><time>2026-04-19T08:44:22.001Z</time></trkpt><trkpt lat="45.02919052980371" lon="12.171439788980349"><ele>0.3333333333333333</ele><time>2026-04-19T08:44:23.001Z</time></trkpt><trkpt lat="45.029155442323905" lon="12.171718158262795"><ele>0.0</ele><time>2026-04-19T08:44:24.001Z</time></trkpt><trkpt lat="45.02911921130412" lon="12.171992469235128"><ele>0.0</ele><time>2026-04-19T08:44:25.001Z</time></trkpt><trkpt lat="45.02907942973365" lon="12.172258248121205"><ele>0.0</ele><time>2026-04-19T08:44:26.001Z</time></trkpt><trkpt lat="45.02903442681287" lon="12.172518034116958"><ele>0.0</ele><time>2026-04-19T08:44:27.001Z</time></trkpt><trkpt lat="45.028984836742524" lon="12.17277234888534"><ele>0.0</ele><time>2026-04-19T08:44:28.001Z</time></trkpt><trkpt lat="45.02893509499226" lon="12.173024980650455"><ele>0.0</ele><time>2026-04-19T08:44:29.001Z</time></trkpt><trkpt lat="45.02888560118049" lon="12.173274792559496"><ele>0.0</ele><time>2026-04-19T08:44:30.001Z</time></trkpt><trkpt lat="45.02883293493895" lon="12.173528152170814"><ele>0.0</ele><time>2026-04-19T08:44:31.001Z</time></trkpt><trkpt lat="45.028778333153305" lon="12.173785902266928"><ele>0.0</ele><time>2026-04-19T08:44:32.001Z</time></trkpt><trkpt lat="45.028726687451496" lon="12.17403383639775"><ele>0.0</ele><time>2026-04-19T08:44:33.001Z</time></trkpt><trkpt lat="45.028675586942626" lon="12.174279155170638"><ele>-0.3333333333333333</ele><time>2026-04-19T08:44:34.001Z</time></trkpt><trkpt lat="45.028625175060604" lon="12.17452447802822"><ele>-0.6666666666666666</ele><time>2026-04-19T08:44:35.001Z</time></trkpt><trkpt lat="45.02857500136708" lon="12.17477166583984"><ele>-1.0</ele><time>2026-04-19T08:44:36.001Z</time></trkpt><trkpt lat="45.02852420246815" lon="12.175019838992558"><ele>-1.3333333333333333</ele><time>2026-04-19T08:44:37.001Z</time></trkpt><trkpt lat="45.0284752393789" lon="12.175263490478804"><ele>-1.6666666666666665</ele><time>2026-04-19T08:44:38.001Z</time></trkpt><trkpt lat="45.028426701181054" lon="12.175503180883679"><ele>-2.0</ele><time>2026-04-19T08:44:39.001Z</time></trkpt><trkpt lat="45.02837975027507" lon="12.17573750493276"><ele>-2.6666666666666665</ele><time>2026-04-19T08:44:40.001Z</time></trkpt><trkpt lat="45.028328927780656" lon="12.175973449801255"><ele>-3.333333333333333</ele><time>2026-04-19T08:44:41.001Z</time></trkpt><trkpt lat="45.0282755527667" lon="12.17621066813006"><ele>-4.0</ele><time>2026-04-19T08:44:42.001Z</time></trkpt><trkpt lat="45.028219293479175" lon="12.17644838025067"><ele>-2.6666666666666665</ele><time>2026-04-19T08:44:43.001Z</time></trkpt><trkpt lat="45.028159528255166" lon="12.176679677219704"><ele>-1.3333333333333333</ele><time>2026-04-19T08:44:44.001Z</time></trkpt><trkpt lat="45.02809744493288" lon="12.176905688540275"><ele>0.0</ele><time>2026-04-19T08:44:45.001Z</time></trkpt><trkpt lat="45.028031730998805" lon="12.177125238324416"><ele>0.0</ele><time>2026-04-19T08:44:46.001Z</time></trkpt><trkpt lat="45.02796537506825" lon="12.177344835577651"><ele>0.0</ele><time>2026-04-19T08:44:47.001Z</time></trkpt><trkpt lat="45.02789733494651" lon="12.177564857928523"><ele>0.0</ele><time>2026-04-19T08:44:48.001Z</time></trkpt><trkpt lat="45.027825925000656" lon="12.177790018704727"><ele>0.0</ele><time>2026-04-19T08:44:49.002Z</time></trkpt><trkpt lat="45.02775578450997" lon="12.17801545744997"><ele>0.0</ele><time>2026-04-19T08:44:50.002Z</time></trkpt><trkpt lat="45.02768452555262" lon="12.178240441775023"><ele>0.0</ele><time>2026-04-19T08:44:51.002Z</time></trkpt><trkpt lat="45.027612002384664" lon="12.178459605291444"><ele>0.0</ele><time>2026-04-19T08:44:52.002Z</time></trkpt><trkpt lat="45.027535131838334" lon="12.178681040294514"><ele>0.0</ele><time>2026-04-19T08:44:53.002Z</time></trkpt><trkpt lat="45.02745838024773" lon="12.178908275790768"><ele>0.0</ele><time>2026-04-19T08:44:54.001Z</time></trkpt><trkpt lat="45.02737861378784" lon="12.17913481566382"><ele>0.0</ele><time>2026-04-19T08:44:55.001Z</time></trkpt><trkpt lat="45.02729964226008" lon="12.179356119292105"><ele>0.0</ele><time>2026-04-19T08:44:56.001Z</time></trkpt><trkpt lat="45.02722169042221" lon="12.179570248847982"><ele>0.0</ele><time>2026-04-19T08:44:57.001Z</time></trkpt><trkpt lat="45.027145218530485" lon="12.179780430017454"><ele>0.3333333333333333</ele><time>2026-04-19T08:44:58.001Z</time></trkpt><trkpt lat="45.02706765777038" lon="12.179986918868588"><ele>0.6666666666666666</ele><time>2026-04-19T08:44:59.001Z</time></trkpt><trkpt lat="45.02699053856661" lon="12.180193813697404"><ele>1.0</ele><time>2026-04-19T08:45:00.001Z</time></trkpt><trkpt lat="45.02691282846181" lon="12.180397193852484"><ele>1.0</ele><time>2026-04-19T08:45:01.001Z</time></trkpt><trkpt lat="45.0268394107975" lon="12.180598411617794"><ele>1.0</ele><time>2026-04-19T08:45:02.001Z</time></trkpt><trkpt lat="45.02676702751674" lon="12.18079969125014"><ele>1.0</ele><time>2026-04-19T08:45:03.001Z</time></trkpt><trkpt lat="45.02669418780702" lon="12.181005117945155"><ele>1.0</ele><time>2026-04-19T08:45:04.001Z</time></trkpt><trkpt lat="45.026621631397106" lon="12.181209119329782"><ele>1.0</ele><time>2026-04-19T08:45:05.001Z</time></trkpt><trkpt lat="45.02654693408716" lon="12.181409721477685"><ele>1.0</ele><time>2026-04-19T08:45:06.001Z</time></trkpt><trkpt lat="45.026472682196534" lon="12.181605308950724"><ele>1.0</ele><time>2026-04-19T08:45:07.001Z</time></trkpt><trkpt lat="45.026401860786855" lon="12.181800283370228"><ele>1.0</ele><time>2026-04-19T08:45:08.001Z</time></trkpt><trkpt lat="45.02632744399677" lon="12.181999346931521"><ele>1.0</ele><time>2026-04-19T08:45:09.001Z</time></trkpt><trkpt lat="45.0262534185965" lon="12.18220046020767"><ele>0.3333333333333333</ele><time>2026-04-19T08:45:10.001Z</time></trkpt><trkpt lat="45.02618152041943" lon="12.182404081652383"><ele>-0.3333333333333333</ele><time>2026-04-19T08:45:11.001Z</time></trkpt><trkpt lat="45.026104675368664" lon="12.182602227570571"><ele>-1.0</ele><time>2026-04-19T08:45:12.001Z</time></trkpt><trkpt lat="45.02602564750862" lon="12.182807156336354"><ele>-1.0</ele><time>2026-04-19T08:45:13.001Z</time></trkpt><trkpt lat="45.02594673340171" lon="12.183007123669697"><ele>-1.0</ele><time>2026-04-19T08:45:14.001Z</time></trkpt><trkpt lat="45.025865127681485" lon="12.183203590532994"><ele>-1.0</ele><time>2026-04-19T08:45:15.001Z</time></trkpt><trkpt lat="45.02577739388757" lon="12.18340622064335"><ele>-0.6666666666666666</ele><time>2026-04-19T08:45:16.001Z</time></trkpt><trkpt lat="45.02568925485322" lon="12.183607991284223"><ele>-0.3333333333333333</ele><time>2026-04-19T08:45:17.001Z</time></trkpt><trkpt lat="45.025598445292545" lon="12.183802649193362"><ele>0.0</ele><time>2026-04-19T08:45:18.001Z</time></trkpt><trkpt lat="45.025508452679404" lon="12.183995842036635"><ele>0.0</ele><time>2026-04-19T08:45:19.001Z</time></trkpt><trkpt lat="45.02542517233234" lon="12.18419024775038"><ele>0.0</ele><time>2026-04-19T08:45:20.001Z</time></trkpt><trkpt lat="45.02534674962296" lon="12.184389698538803"><ele>0.0</ele><time>2026-04-19T08:45:21.001Z</time></trkpt><trkpt lat="45.02527406140184" lon="12.184589586854159"><ele>0.0</ele><time>2026-04-19T08:45:22.001Z</time></trkpt><trkpt lat="45.025206712894025" lon="12.184790603771482"><ele>0.0</ele><time>2026-04-19T08:45:23.001Z</time></trkpt><trkpt lat="45.025155305683626" lon="12.18499663192259"><ele>0.0</ele><time>2026-04-19T08:45:24.001Z</time></trkpt><trkpt lat="45.025117660277665" lon="12.185200853981048"><ele>-1.0</ele><time>2026-04-19T08:45:25.001Z</time></trkpt><trkpt lat="45.025093161979285" lon="12.18540022828996"><ele>-2.0</ele><time>2026-04-19T08:45:26.001Z</time></trkpt><trkpt lat="45.0250757940165" lon="12.185589777798649"><ele>-3.0</ele><time>2026-04-19T08:45:27.001Z</time></trkpt><trkpt lat="45.02509740455708" lon="12.185775560078193"><ele>-4.0</ele><time>2026-04-19T08:45:28.001Z</time></trkpt><trkpt lat="45.0251338788761" lon="12.185953044839437"><ele>-4.0</ele><time>2026-04-19T08:45:29.001Z</time></trkpt><trkpt lat="45.0251942979265" lon="12.18611649199212"><ele>-4.0</ele><time>2026-04-19T08:45:30.001Z</time></trkpt><trkpt lat="45.025274453473685" lon="12.186260288092434"><ele>-4.0</ele><time>2026-04-19T08:45:31.001Z</time></trkpt><trkpt lat="45.02536430619146" lon="12.186386130221296"><ele>-4.0</ele><time>2026-04-19T08:45:32.001Z</time></trkpt><trkpt lat="45.02546644966579" lon="12.18648579466622"><ele>-3.5</ele><time>2026-04-19T08:45:33.001Z</time></trkpt><trkpt lat="45.02558211663142" lon="12.186558642979067"><ele>-3.0</ele><time>2026-04-19T08:45:34.001Z</time></trkpt><trkpt lat="45.02570565668138" lon="12.186614720672791"><ele>-2.5</ele><time>2026-04-19T08:45:35.001Z</time></trkpt><trkpt lat="45.025834196047455" lon="12.186671335550937"><ele>-2.0</ele><time>2026-04-19T08:45:36.001Z</time></trkpt><trkpt lat="45.025962983605176" lon="12.186734190555423"><ele>-2.0</ele><time>2026-04-19T08:45:37.001Z</time></trkpt><trkpt lat="45.02609263492339" lon="12.18680159587361"><ele>-2.0</ele><time>2026-04-19T08:45:38.001Z</time></trkpt><trkpt lat="45.02622682885681" lon="12.186866530749521"><ele>-2.0</ele><time>2026-04-19T08:45:39.001Z</time></trkpt><trkpt lat="45.02636596909926" lon="12.186929176291306"><ele>-2.0</ele><time>2026-04-19T08:45:40.001Z</time></trkpt><trkpt lat="45.026500300622125" lon="12.186991245837962"><ele>-2.0</ele><time>2026-04-19T08:45:41.001Z</time></trkpt><trkpt lat="45.026628931533686" lon="12.187053755753592"><ele>-2.0</ele><time>2026-04-19T08:45:42.001Z</time></trkpt><trkpt lat="45.02675564421512" lon="12.187115260253549"><ele>-2.0</ele><time>2026-04-19T08:45:43.001Z</time></trkpt><trkpt lat="45.026883775003526" lon="12.187178561091542"><ele>-2.0</ele><time>2026-04-19T08:45:44.001Z</time></trkpt><trkpt lat="45.027013166523" lon="12.187241847942209"><ele>-2.5</ele><time>2026-04-19T08:45:45.001Z</time></trkpt><trkpt lat="45.02714293515986" lon="12.187304781058309"><ele>-3.0</ele><time>2026-04-19T08:45:46.001Z</time></trkpt><trkpt lat="45.02726442068971" lon="12.187361937060887"><ele>-3.5</ele><time>2026-04-19T08:45:47.001Z</time></trkpt><trkpt lat="45.02738093081306" lon="12.187417059369325"><ele>-4.0</ele><time>2026-04-19T08:45:48.001Z</time></trkpt><trkpt lat="45.02749225206581" lon="12.187471345606"><ele>-4.0</ele><time>2026-04-19T08:45:49.001Z</time></trkpt><trkpt lat="45.027600395335504" lon="12.187525916023436"><ele>-4.0</ele><time>2026-04-19T08:45:50.001Z</time></trkpt><trkpt lat="45.0277056689269" lon="12.187577821555422"><ele>-4.0</ele><time>2026-04-19T08:45:51.001Z</time></trkpt><trkpt lat="45.02779744313598" lon="12.187642724756062"><ele>-4.0</ele><time>2026-04-19T08:45:52.001Z</time></trkpt><trkpt lat="45.0278619464015" lon="12.187737284578931"><ele>-4.0</ele><time>2026-04-19T08:45:53.001Z</time></trkpt><trkpt lat="45.02790376644198" lon="12.187860293439204"><ele>-3.9999999999999996</ele><time>2026-04-19T08:45:54.001Z</time></trkpt><trkpt lat="45.02792492819941" lon="12.188000256936785"><ele>-4.0</ele><time>2026-04-19T08:45:55.001Z</time></trkpt><trkpt lat="45.02792501058907" lon="12.18813818599111"><ele>-4.0</ele><time>2026-04-19T08:45:56.001Z</time></trkpt><trkpt lat="45.02790220598723" lon="12.18826669761188"><ele>-4.0</ele><time>2026-04-19T08:45:57.001Z</time></trkpt><trkpt lat="45.02787562534256" lon="12.188361119325577"><ele>-3.9999999999999996</ele><time>2026-04-19T08:45:58.001Z</time></trkpt><trkpt lat="45.02785020130897" lon="12.188449168228765"><ele>-4.0</ele><time>2026-04-19T08:45:59.001Z</time></trkpt><trkpt lat="45.02782592582324" lon="12.188541769362331"><ele>-3.6666666666666665</ele><time>2026-04-19T08:46:00.001Z</time></trkpt><trkpt lat="45.02780062687436" lon="12.188643297069083"><ele>-3.333333333333333</ele><time>2026-04-19T08:46:01.001Z</time></trkpt><trkpt lat="45.02777262140795" lon="12.18874700186793"><ele>-3.0</ele><time>2026-04-19T08:46:02.001Z</time></trkpt><trkpt lat="45.027745870004765" lon="12.188847872916222"><ele>-2.6666666666666665</ele><time>2026-04-19T08:46:03.001Z</time></trkpt><trkpt lat="45.027717047044334" lon="12.188950610598326"><ele>-2.333333333333333</ele><time>2026-04-19T08:46:04.001Z</time></trkpt><trkpt lat="45.02768041058039" lon="12.189050965423842"><ele>-2.0</ele><time>2026-04-19T08:46:05.001Z</time></trkpt><trkpt lat="45.02763369016771" lon="12.189148934312609"><ele>-1.6666666666666665</ele><time>2026-04-19T08:46:06.001Z</time></trkpt><trkpt lat="45.02758528941533" lon="12.189244074666748"><ele>-1.3333333333333333</ele><time>2026-04-19T08:46:07.001Z</time></trkpt><trkpt lat="45.02753924603656" lon="12.18934041423469"><ele>-1.0</ele><time>2026-04-19T08:46:08.001Z</time></trkpt><trkpt lat="45.02749234644822" lon="12.189430650348639"><ele>-0.6666666666666666</ele><time>2026-04-19T08:46:09.001Z</time></trkpt><trkpt lat="45.027456489097034" lon="12.189506285761228"><ele>-0.3333333333333333</ele><time>2026-04-19T08:46:10.001Z</time></trkpt><trkpt lat="45.02739094152521" lon="12.18960307587183"><ele>0.0</ele><time>2026-04-19T08:46:12.001Z</time></trkpt><trkpt lat="45.02732142280292" lon="12.189614478202106"><ele>0.0</ele><time>2026-04-19T08:46:14.001Z</time></trkpt><trkpt lat="45.02729056865278" lon="12.189698604797705"><ele>0.0</ele><time>2026-04-19T08:46:17.001Z</time></trkpt><trkpt lat="45.0272785259435" lon="12.189789555852332"><ele>0.0</ele><time>2026-04-19T08:46:22.001Z</time></trkpt><trkpt lat="45.027280277455006" lon="12.189924357704804"><ele>0.0</ele><time>2026-04-19T08:49:08.001Z</time></trkpt><trkpt lat="45.02722506315683" lon="12.190019757344656"><ele>0.0</ele><time>2026-04-19T08:49:09.001Z</time></trkpt><trkpt lat="45.027152727803994" lon="12.190129422743377"><ele>0.0</ele><time>2026-04-19T08:49:10.001Z</time></trkpt><trkpt lat="45.02709371707008" lon="12.190266433968448"><ele>0.0</ele><time>2026-04-19T08:49:11.001Z</time></trkpt><trkpt lat="45.027030348458446" lon="12.190383508676659"><ele>0.0</ele><time>2026-04-19T08:49:12.001Z</time></trkpt><trkpt lat="45.02697022292589" lon="12.190507981519055"><ele>0.0</ele><time>2026-04-19T08:49:13.001Z</time></trkpt><trkpt lat="45.02691122746451" lon="12.190632068788506"><ele>0.0</ele><time>2026-04-19T08:49:14.001Z</time></trkpt><trkpt lat="45.02684809998104" lon="12.190743500629464"><ele>0.0</ele><time>2026-04-19T08:49:15.001Z</time></trkpt><trkpt lat="45.02677887598133" lon="12.190839420563412"><ele>0.0</ele><time>2026-04-19T08:49:16.001Z</time></trkpt><trkpt lat="45.026683103558184" lon="12.19090608743308"><ele>0.0</ele><time>2026-04-19T08:49:17.001Z</time></trkpt><trkpt lat="45.026563393250676" lon="12.190927040686969"><ele>0.0</ele><time>2026-04-19T08:49:18.001Z</time></trkpt><trkpt lat="45.0264389610914" lon="12.190854360570897"><ele>0.0</ele><time>2026-04-19T08:49:19.001Z</time></trkpt><trkpt lat="45.026285131575015" lon="12.190783855742685"><ele>0.0</ele><time>2026-04-19T08:49:20.001Z</time></trkpt><trkpt lat="45.02615046725486" lon="12.190646583590867"><ele>0.0</ele><time>2026-04-19T08:49:21.001Z</time></trkpt><trkpt lat="45.026027980121434" lon="12.190529507277896"><ele>0.0</ele><time>2026-04-19T08:49:22.001Z</time></trkpt><trkpt lat="45.0258966129277" lon="12.190416023879408"><ele>0.6666666666666666</ele><time>2026-04-19T08:49:23.001Z</time></trkpt><trkpt lat="45.0257670661846" lon="12.190297851565765"><ele>1.3333333333333333</ele><time>2026-04-19T08:49:24.001Z</time></trkpt><trkpt lat="45.0256342897214" lon="12.19017852754551"><ele>2.0</ele><time>2026-04-19T08:49:25.001Z</time></trkpt><trkpt lat="45.025501638860824" lon="12.190064973190545"><ele>2.0</ele><time>2026-04-19T08:49:26.001Z</time></trkpt><trkpt lat="45.025368587893645" lon="12.18995229309955"><ele>2.0</ele><time>2026-04-19T08:49:27.001Z</time></trkpt><trkpt lat="45.02523214988357" lon="12.189837156730949"><ele>2.0</ele><time>2026-04-19T08:49:28.001Z</time></trkpt><trkpt lat="45.025082952267574" lon="12.189714051889602"><ele>1.3333333333333333</ele><time>2026-04-19T08:49:29.001Z</time></trkpt><trkpt lat="45.02492806234607" lon="12.18958574622837"><ele>0.6666666666666666</ele><time>2026-04-19T08:49:30.001Z</time></trkpt><trkpt lat="45.02478923968561" lon="12.18946493486079"><ele>0.0</ele><time>2026-04-19T08:49:31.001Z</time></trkpt><trkpt lat="45.024654909709774" lon="12.189351751362212"><ele>0.0</ele><time>2026-04-19T08:49:32.001Z</time></trkpt><trkpt lat="45.0245191801284" lon="12.189238379723792"><ele>0.0</ele><time>2026-04-19T08:49:33.001Z</time></trkpt><trkpt lat="45.02438441038561" lon="12.189122406375706"><ele>0.0</ele><time>2026-04-19T08:49:34.001Z</time></trkpt><trkpt lat="45.02424622152604" lon="12.189005323297081"><ele>-0.3333333333333333</ele><time>2026-04-19T08:49:35.001Z</time></trkpt><trkpt lat="45.024101524060264" lon="12.188894917793341"><ele>-0.6666666666666666</ele><time>2026-04-19T08:49:36.001Z</time></trkpt><trkpt lat="45.02394643846363" lon="12.188816761420316"><ele>-1.0</ele><time>2026-04-19T08:49:37.001Z</time></trkpt><trkpt lat="45.02377410037563" lon="12.188757603711357"><ele>-1.0</ele><time>2026-04-19T08:49:38.001Z</time></trkpt><trkpt lat="45.02358722752731" lon="12.188726853824388"><ele>-1.0</ele><time>2026-04-19T08:49:39.001Z</time></trkpt><trkpt lat="45.02339868877338" lon="12.188735145727051"><ele>-1.0</ele><time>2026-04-19T08:49:40.001Z</time></trkpt><trkpt lat="45.02321384427051" lon="12.188768426786494"><ele>-0.6666666666666666</ele><time>2026-04-19T08:49:41.001Z</time></trkpt><trkpt lat="45.0230310190043" lon="12.188837987565114"><ele>-0.3333333333333333</ele><time>2026-04-19T08:49:42.001Z</time></trkpt><trkpt lat="45.022843203277716" lon="12.18896838718457"><ele>0.0</ele><time>2026-04-19T08:49:43.001Z</time></trkpt><trkpt lat="45.02264672052315" lon="12.189147500546289"><ele>0.0</ele><time>2026-04-19T08:49:44.001Z</time></trkpt><trkpt lat="45.022456797562015" lon="12.189378201205"><ele>0.0</ele><time>2026-04-19T08:49:45.001Z</time></trkpt><trkpt lat="45.022266802447234" lon="12.189637519592003"><ele>0.0</ele><time>2026-04-19T08:49:46.001Z</time></trkpt><trkpt lat="45.0220884571794" lon="12.189881551177056"><ele>0.0</ele><time>2026-04-19T08:49:47.001Z</time></trkpt><trkpt lat="45.02191633647823" lon="12.190118254968711"><ele>0.0</ele><time>2026-04-19T08:49:48.001Z</time></trkpt><trkpt lat="45.02175381629099" lon="12.190344931616892"><ele>0.0</ele><time>2026-04-19T08:49:49.001Z</time></trkpt><trkpt lat="45.021591497254576" lon="12.190573268071956"><ele>0.0</ele><time>2026-04-19T08:49:50.001Z</time></trkpt><trkpt lat="45.02143978219054" lon="12.190782507573742"><ele>0.0</ele><time>2026-04-19T08:49:51.001Z</time></trkpt><trkpt lat="45.021288102405265" lon="12.190997551220539"><ele>0.0</ele><time>2026-04-19T08:49:52.001Z</time></trkpt><trkpt lat="45.02114460049702" lon="12.191219732258501"><ele>0.0</ele><time>2026-04-19T08:49:53.001Z</time></trkpt><trkpt lat="45.021011124669236" lon="12.19145331347285"><ele>0.0</ele><time>2026-04-19T08:49:54.001Z</time></trkpt><trkpt lat="45.02088662964607" lon="12.191684539953792"><ele>0.0</ele><time>2026-04-19T08:49:55.001Z</time></trkpt><trkpt lat="45.02077312949446" lon="12.191906794320033"><ele>0.0</ele><time>2026-04-19T08:49:56.001Z</time></trkpt><trkpt lat="45.020666347841804" lon="12.19213541714437"><ele>0.0</ele><time>2026-04-19T08:49:57.001Z</time></trkpt><trkpt lat="45.020566443706024" lon="12.192381312344928"><ele>0.0</ele><time>2026-04-19T08:49:58.001Z</time></trkpt><trkpt lat="45.02046188907484" lon="12.192676049811594"><ele>0.0</ele><time>2026-04-19T08:49:59.001Z</time></trkpt><trkpt lat="45.020371971150425" lon="12.192965328292482"><ele>0.0</ele><time>2026-04-19T08:50:00.001Z</time></trkpt><trkpt lat="45.020296777273" lon="12.193231085717334"><ele>0.0</ele><time>2026-04-19T08:50:01.001Z</time></trkpt><trkpt lat="45.02023056712842" lon="12.193490726786685"><ele>0.0</ele><time>2026-04-19T08:50:02.001Z</time></trkpt><trkpt lat="45.020169763851285" lon="12.193761559385017"><ele>0.0</ele><time>2026-04-19T08:50:03.001Z</time></trkpt><trkpt lat="45.02011359284567" lon="12.194039523027861"><ele>0.0</ele><time>2026-04-19T08:50:04.001Z</time></trkpt><trkpt lat="45.02006426694259" lon="12.194325104425378"><ele>0.3333333333333333</ele><time>2026-04-19T08:50:05.001Z</time></trkpt><trkpt lat="45.02002336921793" lon="12.194619981375785"><ele>0.6666666666666666</ele><time>2026-04-19T08:50:06.001Z</time></trkpt><trkpt lat="45.01998449151265" lon="12.194922635242886"><ele>1.0</ele><time>2026-04-19T08:50:07.001Z</time></trkpt><trkpt lat="45.01994243555769" lon="12.195219541803503"><ele>1.3333333333333333</ele><time>2026-04-19T08:50:08.001Z</time></trkpt><trkpt lat="45.01990072194797" lon="12.195517376677344"><ele>1.6666666666666665</ele><time>2026-04-19T08:50:09.001Z</time></trkpt><trkpt lat="45.01986029918596" lon="12.195814462776067"><ele>2.0</ele><time>2026-04-19T08:50:10.001Z</time></trkpt><trkpt lat="45.019820132257045" lon="12.196107697606474"><ele>2.0</ele><time>2026-04-19T08:50:11.001Z</time></trkpt><trkpt lat="45.019779699680974" lon="12.19639218452882"><ele>2.0</ele><time>2026-04-19T08:50:12.001Z</time></trkpt><trkpt lat="45.01973999499744" lon="12.196674302333136"><ele>2.0</ele><time>2026-04-19T08:50:13.001Z</time></trkpt><trkpt lat="45.01970040509727" lon="12.196954428278845"><ele>2.0</ele><time>2026-04-19T08:50:14.001Z</time></trkpt><trkpt lat="45.01965907832593" lon="12.197237196635486"><ele>2.0</ele><time>2026-04-19T08:50:15.001Z</time></trkpt><trkpt lat="45.01961623025291" lon="12.197513703481354"><ele>2.0</ele><time>2026-04-19T08:50:16.001Z</time></trkpt><trkpt lat="45.01957609091996" lon="12.197779770131408"><ele>2.0</ele><time>2026-04-19T08:50:17.001Z</time></trkpt><trkpt lat="45.019534526123714" lon="12.198035520898415"><ele>2.0</ele><time>2026-04-19T08:50:18.001Z</time></trkpt><trkpt lat="45.01948709149381" lon="12.19829341551758"><ele>2.0</ele><time>2026-04-19T08:50:19.001Z</time></trkpt><trkpt lat="45.019436208550324" lon="12.198557700420194"><ele>2.333333333333333</ele><time>2026-04-19T08:50:20.001Z</time></trkpt><trkpt lat="45.01938449175793" lon="12.198821015796698"><ele>2.6666666666666665</ele><time>2026-04-19T08:50:21.001Z</time></trkpt><trkpt lat="45.01933262988985" lon="12.199087165203757"><ele>3.0</ele><time>2026-04-19T08:50:22.001Z</time></trkpt><trkpt lat="45.01928293486647" lon="12.19935357493999"><ele>2.3333333333333335</ele><time>2026-04-19T08:50:23.001Z</time></trkpt><trkpt lat="45.01923494996701" lon="12.199619780856604"><ele>1.6666666666666665</ele><time>2026-04-19T08:50:24.001Z</time></trkpt><trkpt lat="45.019184532994004" lon="12.199880916428354"><ele>1.0</ele><time>2026-04-19T08:50:25.001Z</time></trkpt><trkpt lat="45.01913376247348" lon="12.200142692593205"><ele>1.0</ele><time>2026-04-19T08:50:26.001Z</time></trkpt><trkpt lat="45.01908520375002" lon="12.200406641606742"><ele>1.0</ele><time>2026-04-19T08:50:27.001Z</time></trkpt><trkpt lat="45.019036267738734" lon="12.200664254610542"><ele>1.0</ele><time>2026-04-19T08:50:28.001Z</time></trkpt><trkpt lat="45.01898625675266" lon="12.200918559804947"><ele>1.6666666666666665</ele><time>2026-04-19T08:50:29.001Z</time></trkpt><trkpt lat="45.01894035174262" lon="12.201173437800254"><ele>2.3333333333333335</ele><time>2026-04-19T08:50:30.001Z</time></trkpt><trkpt lat="45.01889390044501" lon="12.201424125842072"><ele>3.0</ele><time>2026-04-19T08:50:31.001Z</time></trkpt><trkpt lat="45.0188443548807" lon="12.201672250846837"><ele>3.0</ele><time>2026-04-19T08:50:32.001Z</time></trkpt><trkpt lat="45.018786438931684" lon="12.201920630431335"><ele>3.0</ele><time>2026-04-19T08:50:33.001Z</time></trkpt><trkpt lat="45.01871431207709" lon="12.202160758209992"><ele>3.0</ele><time>2026-04-19T08:50:34.001Z</time></trkpt><trkpt lat="45.018620225315566" lon="12.202393594931907"><ele>2.6666666666666665</ele><time>2026-04-19T08:50:35.001Z</time></trkpt><trkpt lat="45.01850576393706" lon="12.20262889466107"><ele>2.333333333333333</ele><time>2026-04-19T08:50:36.001Z</time></trkpt><trkpt lat="45.0183824567274" lon="12.202848111624862"><ele>2.0</ele><time>2026-04-19T08:50:37.001Z</time></trkpt><trkpt lat="45.01826819210097" lon="12.203050749483983"><ele>3.0</ele><time>2026-04-19T08:50:38.001Z</time></trkpt><trkpt lat="45.01816414318434" lon="12.203258554253495"><ele>4.0</ele><time>2026-04-19T08:50:39.001Z</time></trkpt><trkpt lat="45.01807084694893" lon="12.203479176307082"><ele>5.0</ele><time>2026-04-19T08:50:40.001Z</time></trkpt><trkpt lat="45.01798915700106" lon="12.203705144618539"><ele>5.0</ele><time>2026-04-19T08:50:41.001Z</time></trkpt><trkpt lat="45.01791558097237" lon="12.203928451320706"><ele>5.0</ele><time>2026-04-19T08:50:42.001Z</time></trkpt><trkpt lat="45.017851185630036" lon="12.204162120191702"><ele>5.0</ele><time>2026-04-19T08:50:43.001Z</time></trkpt><trkpt lat="45.017799258010115" lon="12.204407073389362"><ele>4.666666666666667</ele><time>2026-04-19T08:50:44.001Z</time></trkpt><trkpt lat="45.01776002137757" lon="12.204658743095981"><ele>4.333333333333333</ele><time>2026-04-19T08:50:45.001Z</time></trkpt><trkpt lat="45.01772792716544" lon="12.20490967962868"><ele>4.0</ele><time>2026-04-19T08:50:46.001Z</time></trkpt><trkpt lat="45.01770128246455" lon="12.205143465817752"><ele>4.0</ele><time>2026-04-19T08:50:47.001Z</time></trkpt><trkpt lat="45.01767921649523" lon="12.20537502311633"><ele>4.0</ele><time>2026-04-19T08:50:48.001Z</time></trkpt><trkpt lat="45.01766323470636" lon="12.205610872323177"><ele>4.0</ele><time>2026-04-19T08:50:49.001Z</time></trkpt><trkpt lat="45.017651174238466" lon="12.205847791980618"><ele>4.0</ele><time>2026-04-19T08:50:50.001Z</time></trkpt><trkpt lat="45.01764143195696" lon="12.206079074694232"><ele>4.0</ele><time>2026-04-19T08:50:51.001Z</time></trkpt><trkpt lat="45.01763624326551" lon="12.206297650083533"><ele>4.0</ele><time>2026-04-19T08:50:52.001Z</time></trkpt><trkpt lat="45.0176357631675" lon="12.206520117856472"><ele>3.333333333333333</ele><time>2026-04-19T08:50:53.001Z</time></trkpt><trkpt lat="45.01763793493851" lon="12.206741627497893"><ele>2.6666666666666665</ele><time>2026-04-19T08:50:54.001Z</time></trkpt><trkpt lat="45.01764474735408" lon="12.206960604894004"><ele>2.0</ele><time>2026-04-19T08:50:55.001Z</time></trkpt><trkpt lat="45.01765537602702" lon="12.207178222015367"><ele>1.75</ele><time>2026-04-19T08:50:56.001Z</time></trkpt><trkpt lat="45.01766973717305" lon="12.207388318187947"><ele>1.5</ele><time>2026-04-19T08:50:57.001Z</time></trkpt><trkpt lat="45.01768334294314" lon="12.207595477965894"><ele>1.25</ele><time>2026-04-19T08:50:58.001Z</time></trkpt><trkpt lat="45.017691765710595" lon="12.207802877363012"><ele>1.0</ele><time>2026-04-19T08:50:59.001Z</time></trkpt><trkpt lat="45.01769554704728" lon="12.208007951752244"><ele>1.0</ele><time>2026-04-19T08:51:00.001Z</time></trkpt><trkpt lat="45.01769729920144" lon="12.208204620722388"><ele>1.0</ele><time>2026-04-19T08:51:01.001Z</time></trkpt><trkpt lat="45.01769908033094" lon="12.208392575288196"><ele>1.0</ele><time>2026-04-19T08:51:02.001Z</time></trkpt><trkpt lat="45.017697471535726" lon="12.20858379569002"><ele>1.0</ele><time>2026-04-19T08:51:03.001Z</time></trkpt><trkpt lat="45.01769471914921" lon="12.208783147150632"><ele>1.0</ele><time>2026-04-19T08:51:04.001Z</time></trkpt><trkpt lat="45.01769387091636" lon="12.20898828531461"><ele>1.0</ele><time>2026-04-19T08:51:05.001Z</time></trkpt><trkpt lat="45.017697217325974" lon="12.209200911755872"><ele>1.0</ele><time>2026-04-19T08:51:06.001Z</time></trkpt><trkpt lat="45.01770418082312" lon="12.209420546614886"><ele>1.0</ele><time>2026-04-19T08:51:07.001Z</time></trkpt><trkpt lat="45.0177117505474" lon="12.20964180265317"><ele>1.0</ele><time>2026-04-19T08:51:08.001Z</time></trkpt><trkpt lat="45.01771819813486" lon="12.209868444479861"><ele>1.0</ele><time>2026-04-19T08:51:09.001Z</time></trkpt><trkpt lat="45.01772550850794" lon="12.210096591572768"><ele>1.0</ele><time>2026-04-19T08:51:10.001Z</time></trkpt><trkpt lat="45.0177321949643" lon="12.21031679467898"><ele>1.0</ele><time>2026-04-19T08:51:11.001Z</time></trkpt><trkpt lat="45.01773952998434" lon="12.210531156573861"><ele>1.0</ele><time>2026-04-19T08:51:12Z</time></trkpt><trkpt lat="45.01774645879599" lon="12.21074624367952"><ele>1.3333333333333333</ele><time>2026-04-19T08:51:13Z</time></trkpt><trkpt lat="45.01775560218673" lon="12.210960174400025"><ele>1.6666666666666665</ele><time>2026-04-19T08:51:14Z</time></trkpt><trkpt lat="45.0177648722888" lon="12.211173582304607"><ele>2.0</ele><time>2026-04-19T08:51:15Z</time></trkpt><trkpt lat="45.01777169477866" lon="12.211390813426899"><ele>2.0</ele><time>2026-04-19T08:51:16Z</time></trkpt><trkpt lat="45.01777579497585" lon="12.211605994754812"><ele>2.0</ele><time>2026-04-19T08:51:17Z</time></trkpt><trkpt lat="45.01778133918103" lon="12.211832680784108"><ele>2.0</ele><time>2026-04-19T08:51:18Z</time></trkpt><trkpt lat="45.01778953536086" lon="12.21205390868338"><ele>2.0</ele><time>2026-04-19T08:51:19Z</time></trkpt><trkpt lat="45.01779835199332" lon="12.212268895499694"><ele>2.0</ele><time>2026-04-19T08:51:20Z</time></trkpt><trkpt lat="45.01780610025967" lon="12.212479913587886"><ele>2.0</ele><time>2026-04-19T08:51:21Z</time></trkpt><trkpt lat="45.017812201059314" lon="12.212691953920828"><ele>1.25</ele><time>2026-04-19T08:51:22Z</time></trkpt><trkpt lat="45.01781589073581" lon="12.212899523150984"><ele>0.5</ele><time>2026-04-19T08:51:23Z</time></trkpt><trkpt lat="45.01781968119746" lon="12.213077893976049"><ele>-0.25</ele><time>2026-04-19T08:51:24Z</time></trkpt><trkpt lat="45.01782294539573" lon="12.213239858074232"><ele>-1.0</ele><time>2026-04-19T08:51:25Z</time></trkpt><trkpt lat="45.01782661714879" lon="12.213391957005317"><ele>-1.0</ele><time>2026-04-19T08:51:26Z</time></trkpt><trkpt lat="45.017829610556696" lon="12.213534661170492"><ele>-1.0</ele><time>2026-04-19T08:51:27Z</time></trkpt><trkpt lat="45.01783212276377" lon="12.213669852974933"><ele>-1.0</ele><time>2026-04-19T08:51:28Z</time></trkpt><trkpt lat="45.01783930106325" lon="12.213795588809543"><ele>-1.0</ele><time>2026-04-19T08:51:29Z</time></trkpt><trkpt lat="45.017832553174586" lon="12.213922830278166"><ele>-1.0</ele><time>2026-04-19T08:51:30Z</time></trkpt><trkpt lat="45.01782801849779" lon="12.214053453869688"><ele>-1.0</ele><time>2026-04-19T08:51:31Z</time></trkpt><trkpt lat="45.017820852623906" lon="12.214184148734539"><ele>-1.0</ele><time>2026-04-19T08:51:32Z</time></trkpt><trkpt lat="45.017811033223076" lon="12.214299942556533"><ele>-1.0</ele><time>2026-04-19T08:51:33Z</time></trkpt><trkpt lat="45.017895752121944" lon="12.214436983778509"><ele>-1.0</ele><time>2026-04-19T08:51:34Z</time></trkpt><trkpt lat="45.01788873238924" lon="12.214557289931642"><ele>-1.0</ele><time>2026-04-19T08:51:35Z</time></trkpt><trkpt lat="45.01788009753382" lon="12.214673076749392"><ele>-0.9999999999999999</ele><time>2026-04-19T08:51:36Z</time></trkpt><trkpt lat="45.01786466167329" lon="12.214786329341772"><ele>-1.0</ele><time>2026-04-19T08:51:37Z</time></trkpt><trkpt lat="45.01785245594493" lon="12.214897743735618"><ele>-1.0</ele><time>2026-04-19T08:51:38Z</time></trkpt><trkpt lat="45.01785829871697" lon="12.215009570666217"><ele>-1.0</ele><time>2026-04-19T08:51:39Z</time></trkpt><trkpt lat="45.017896858309186" lon="12.215115569901103"><ele>-0.9999999999999999</ele><time>2026-04-19T08:51:40Z</time></trkpt><trkpt lat="45.01796336066935" lon="12.215199493662867"><ele>-1.0</ele><time>2026-04-19T08:51:41Z</time></trkpt><trkpt lat="45.01805271835833" lon="12.2152474044696"><ele>-1.0</ele><time>2026-04-19T08:51:42Z</time></trkpt><trkpt lat="45.01814761767724" lon="12.215263802721848"><ele>-1.0</ele><time>2026-04-19T08:51:43Z</time></trkpt><trkpt lat="45.01824208726708" lon="12.215297777761258"><ele>-1.0</ele><time>2026-04-19T08:51:44Z</time></trkpt><trkpt lat="45.01833133520026" lon="12.215362634564649"><ele>-1.0</ele><time>2026-04-19T08:51:45Z</time></trkpt><trkpt lat="45.01840401682858" lon="12.215456080616084"><ele>-1.0</ele><time>2026-04-19T08:51:46.001Z</time></trkpt><trkpt lat="45.01844698556209" lon="12.215579253271839"><ele>-0.6666666666666666</ele><time>2026-04-19T08:51:47.001Z</time></trkpt><trkpt lat="45.018462256740115" lon="12.215700784677292"><ele>-0.3333333333333333</ele><time>2026-04-19T08:51:48.001Z</time></trkpt><trkpt lat="45.01846652997314" lon="12.215810027401176"><ele>0.0</ele><time>2026-04-19T08:51:49.001Z</time></trkpt><trkpt lat="45.01846280383149" lon="12.215900072316904"><ele>0.3333333333333333</ele><time>2026-04-19T08:51:50.001Z</time></trkpt><trkpt lat="45.01843937278961" lon="12.21605691523345"><ele>0.6666666666666666</ele><time>2026-04-19T08:51:52.001Z</time></trkpt><trkpt lat="45.01840891650373" lon="12.21620126332686"><ele>1.0</ele><time>2026-04-19T08:51:54.001Z</time></trkpt><trkpt lat="45.018393469147654" lon="12.216327697583923"><ele>0.9999999999999999</ele><time>2026-04-19T08:51:56.001Z</time></trkpt><trkpt lat="45.01838712423206" lon="12.216427189996356"><ele>1.0</ele><time>2026-04-19T08:51:58.001Z</time></trkpt><trkpt lat="45.018369235699005" lon="12.216516439077123"><ele>1.0</ele><time>2026-04-19T08:52:00.001Z</time></trkpt><trkpt lat="45.018349833466345" lon="12.21662890426352"><ele>1.0</ele><time>2026-04-19T08:52:02.001Z</time></trkpt><trkpt lat="45.018343714234426" lon="12.216804070888717"><ele>0.9999999999999999</ele><time>2026-04-19T08:52:04.001Z</time></trkpt><trkpt lat="45.018337590209846" lon="12.216915107327358"><ele>1.0</ele><time>2026-04-19T08:52:05.001Z</time></trkpt><trkpt lat="45.018325707974036" lon="12.21705028866463"><ele>0.9999999999999999</ele><time>2026-04-19T08:52:06.001Z</time></trkpt><trkpt lat="45.018309723228654" lon="12.217179646310983"><ele>1.0</ele><time>2026-04-19T08:52:07.001Z</time></trkpt><trkpt lat="45.01829063565851" lon="12.217294620372709"><ele>1.0</ele><time>2026-04-19T08:52:08.001Z</time></trkpt><trkpt lat="45.018270116194415" lon="12.217405452660508"><ele>1.0</ele><time>2026-04-19T08:52:09.001Z</time></trkpt><trkpt lat="45.01824792510506" lon="12.217514748720287"><ele>0.9999999999999999</ele><time>2026-04-19T08:52:10.001Z</time></trkpt><trkpt lat="45.01822904834906" lon="12.21762092065161"><ele>1.0</ele><time>2026-04-19T08:52:11.001Z</time></trkpt><trkpt lat="45.01821099446321" lon="12.21773021312289"><ele>1.0</ele><time>2026-04-19T08:52:12.001Z</time></trkpt><trkpt lat="45.01819216399336" lon="12.217849886749292"><ele>1.0</ele><time>2026-04-19T08:52:13.001Z</time></trkpt><trkpt lat="45.01817000628434" lon="12.217985438819625"><ele>1.0</ele><time>2026-04-19T08:52:14.001Z</time></trkpt><trkpt lat="45.018144662549446" lon="12.21813882550403"><ele>1.0</ele><time>2026-04-19T08:52:15.001Z</time></trkpt><trkpt lat="45.01812033494121" lon="12.218285871570476"><ele>1.0</ele><time>2026-04-19T08:52:16.001Z</time></trkpt><trkpt lat="45.0180985055762" lon="12.218422025207389"><ele>1.0</ele><time>2026-04-19T08:52:17.001Z</time></trkpt><trkpt lat="45.018076590683954" lon="12.218559300934919"><ele>1.0</ele><time>2026-04-19T08:52:18.001Z</time></trkpt><trkpt lat="45.01805549564552" lon="12.218696800260279"><ele>1.0</ele><time>2026-04-19T08:52:19.001Z</time></trkpt><trkpt lat="45.01803259551048" lon="12.218829017567925"><ele>1.0</ele><time>2026-04-19T08:52:20.001Z</time></trkpt><trkpt lat="45.01800899603717" lon="12.218959145160339"><ele>1.0</ele><time>2026-04-19T08:52:21.001Z</time></trkpt><trkpt lat="45.01798543795486" lon="12.219085466264646"><ele>0.8</ele><time>2026-04-19T08:52:22.001Z</time></trkpt><trkpt lat="45.01796130614823" lon="12.219210299807905"><ele>0.6000000000000001</ele><time>2026-04-19T08:52:23.001Z</time></trkpt><trkpt lat="45.01793571793519" lon="12.219340748080105"><ele>0.4</ele><time>2026-04-19T08:52:24.001Z</time></trkpt><trkpt lat="45.01790913295848" lon="12.219473981691756"><ele>0.2</ele><time>2026-04-19T08:52:25.001Z</time></trkpt><trkpt lat="45.01788137881973" lon="12.219610619607932"><ele>0.0</ele><time>2026-04-19T08:52:26.001Z</time></trkpt><trkpt lat="45.01785575426336" lon="12.219747260329639"><ele>0.0</ele><time>2026-04-19T08:52:27.001Z</time></trkpt><trkpt lat="45.01782918676228" lon="12.219889229468599"><ele>0.0</ele><time>2026-04-19T08:52:28.001Z</time></trkpt><trkpt lat="45.01779982393591" lon="12.220039384651152"><ele>0.0</ele><time>2026-04-19T08:52:29.001Z</time></trkpt><trkpt lat="45.017767674668434" lon="12.220193348740338"><ele>0.0</ele><time>2026-04-19T08:52:30.001Z</time></trkpt><trkpt lat="45.01773651357708" lon="12.220343280080712"><ele>0.0</ele><time>2026-04-19T08:52:31.001Z</time></trkpt><trkpt lat="45.017705400740994" lon="12.220491874999349"><ele>0.0</ele><time>2026-04-19T08:52:32.001Z</time></trkpt><trkpt lat="45.01767577492458" lon="12.220637049286914"><ele>0.0</ele><time>2026-04-19T08:52:33.001Z</time></trkpt><trkpt lat="45.017649566568295" lon="12.22078102510096"><ele>0.0</ele><time>2026-04-19T08:52:34.001Z</time></trkpt><trkpt lat="45.01764217324652" lon="12.220918582687805"><ele>0.0</ele><time>2026-04-19T08:52:35.001Z</time></trkpt><trkpt lat="45.017657339596695" lon="12.221049611854664"><ele>0.0</ele><time>2026-04-19T08:52:36.001Z</time></trkpt><trkpt lat="45.017706904255114" lon="12.221166585803845"><ele>0.0</ele><time>2026-04-19T08:52:37.001Z</time></trkpt><trkpt lat="45.01779511210244" lon="12.22125013664259"><ele>0.0</ele><time>2026-04-19T08:52:38.001Z</time></trkpt><trkpt lat="45.01790774677043" lon="12.22131191766332"><ele>0.0</ele><time>2026-04-19T08:52:39.001Z</time></trkpt><trkpt lat="45.01800434175011" lon="12.221363625256854"><ele>0.0</ele><time>2026-04-19T08:52:40.001Z</time></trkpt><trkpt lat="45.01809220783878" lon="12.221423186749274"><ele>0.0</ele><time>2026-04-19T08:52:41.001Z</time></trkpt><trkpt lat="45.01816867015528" lon="12.221503638469226"><ele>0.0</ele><time>2026-04-19T08:52:42.001Z</time></trkpt><trkpt lat="45.018214758489954" lon="12.22162728027453"><ele>0.0</ele><time>2026-04-19T08:52:43.001Z</time></trkpt><trkpt lat="45.01822212793708" lon="12.221780512771797"><ele>0.0</ele><time>2026-04-19T08:52:44.001Z</time></trkpt><trkpt lat="45.01820629775752" lon="12.221944715386076"><ele>0.0</ele><time>2026-04-19T08:52:45.001Z</time></trkpt><trkpt lat="45.01819003285048" lon="12.222113210273644"><ele>0.0</ele><time>2026-04-19T08:52:46.001Z</time></trkpt><trkpt lat="45.01817919131784" lon="12.222271777295084"><ele>-0.25</ele><time>2026-04-19T08:52:47.001Z</time></trkpt><trkpt lat="45.01816703736334" lon="12.222428134105227"><ele>-0.5</ele><time>2026-04-19T08:52:48.001Z</time></trkpt><trkpt lat="45.01815415726977" lon="12.222592714334732"><ele>-0.75</ele><time>2026-04-19T08:52:49.001Z</time></trkpt><trkpt lat="45.01814039224721" lon="12.222762421365474"><ele>-1.0</ele><time>2026-04-19T08:52:50.001Z</time></trkpt><trkpt lat="45.01812699187637" lon="12.22293085819534"><ele>-1.0</ele><time>2026-04-19T08:52:51.001Z</time></trkpt><trkpt lat="45.01811500130023" lon="12.22310319418719"><ele>-1.0</ele><time>2026-04-19T08:52:52.001Z</time></trkpt><trkpt lat="45.018101615473824" lon="12.22328293572231"><ele>-1.0</ele><time>2026-04-19T08:52:53.001Z</time></trkpt><trkpt lat="45.01808854952488" lon="12.223469286958615"><ele>-1.0</ele><time>2026-04-19T08:52:54.001Z</time></trkpt><trkpt lat="45.01807483072528" lon="12.223648585570192"><ele>-1.0</ele><time>2026-04-19T08:52:55.001Z</time></trkpt><trkpt lat="45.01806125869574" lon="12.223822587736043"><ele>-1.0</ele><time>2026-04-19T08:52:56.001Z</time></trkpt><trkpt lat="45.01804983838163" lon="12.224000047827131"><ele>-1.0</ele><time>2026-04-19T08:52:57.001Z</time></trkpt><trkpt lat="45.0180389591154" lon="12.224187363173408"><ele>-1.0</ele><time>2026-04-19T08:52:58.001Z</time></trkpt><trkpt lat="45.01802832436184" lon="12.224375870877191"><ele>-1.0</ele><time>2026-04-19T08:52:59.001Z</time></trkpt><trkpt lat="45.01801707346803" lon="12.224556416511888"><ele>-1.0</ele><time>2026-04-19T08:53:00.001Z</time></trkpt><trkpt lat="45.01800425867474" lon="12.22473412896274"><ele>-1.0</ele><time>2026-04-19T08:53:01.001Z</time></trkpt><trkpt lat="45.017989602126406" lon="12.2249125199807"><ele>-1.0</ele><time>2026-04-19T08:53:02.001Z</time></trkpt><trkpt lat="45.01797521944168" lon="12.225089082621894"><ele>-0.75</ele><time>2026-04-19T08:53:03.001Z</time></trkpt><trkpt lat="45.017959857420436" lon="12.225263418678898"><ele>-0.5</ele><time>2026-04-19T08:53:04.001Z</time></trkpt><trkpt lat="45.01794068946932" lon="12.225440969628881"><ele>-0.25</ele><time>2026-04-19T08:53:05.001Z</time></trkpt><trkpt lat="45.0179177228357" lon="12.225615522232545"><ele>0.0</ele><time>2026-04-19T08:53:06.001Z</time></trkpt><trkpt lat="45.0178895145628" lon="12.225782919418664"><ele>0.0</ele><time>2026-04-19T08:53:07.001Z</time></trkpt><trkpt lat="45.01785452437977" lon="12.225944455285891"><ele>0.0</ele><time>2026-04-19T08:53:08.001Z</time></trkpt><trkpt lat="45.017811410596146" lon="12.226101584822743"><ele>0.0</ele><time>2026-04-19T08:53:09.001Z</time></trkpt><trkpt lat="45.017762585597666" lon="12.226260485263145"><ele>0.0</ele><time>2026-04-19T08:53:10.001Z</time></trkpt><trkpt lat="45.01771372992975" lon="12.226426948116751"><ele>0.0</ele><time>2026-04-19T08:53:11.001Z</time></trkpt><trkpt lat="45.01766517997825" lon="12.226596268653394"><ele>0.0</ele><time>2026-04-19T08:53:12.001Z</time></trkpt><trkpt lat="45.01762030002244" lon="12.226756794973648"><ele>0.0</ele><time>2026-04-19T08:53:13.001Z</time></trkpt><trkpt lat="45.01757937633823" lon="12.226903105249097"><ele>0.0</ele><time>2026-04-19T08:53:14.001Z</time></trkpt><trkpt lat="45.017538045946" lon="12.227048615205904"><ele>0.0</ele><time>2026-04-19T08:53:15.001Z</time></trkpt><trkpt lat="45.01749501548275" lon="12.227194320703914"><ele>0.0</ele><time>2026-04-19T08:53:16.001Z</time></trkpt><trkpt lat="45.01744939251784" lon="12.227344222722932"><ele>0.0</ele><time>2026-04-19T08:53:17.001Z</time></trkpt><trkpt lat="45.017400120768514" lon="12.227504821510902"><ele>0.0</ele><time>2026-04-19T08:53:18Z</time></trkpt><trkpt lat="45.017349167579084" lon="12.227671333976978"><ele>0.0</ele><time>2026-04-19T08:53:19Z</time></trkpt><trkpt lat="45.0173019608386" lon="12.22783352055623"><ele>0.0</ele><time>2026-04-19T08:53:20Z</time></trkpt><trkpt lat="45.01725655310629" lon="12.227990703596982"><ele>0.0</ele><time>2026-04-19T08:53:21Z</time></trkpt><trkpt lat="45.01721366812404" lon="12.228133621647775"><ele>0.0</ele><time>2026-04-19T08:53:22Z</time></trkpt><trkpt lat="45.017177853093045" lon="12.228266578200314"><ele>0.0</ele><time>2026-04-19T08:53:23Z</time></trkpt><trkpt lat="45.01714539812227" lon="12.228395081238206"><ele>0.0</ele><time>2026-04-19T08:53:24Z</time></trkpt><trkpt lat="45.01711479667634" lon="12.22852114959089"><ele>0.0</ele><time>2026-04-19T08:53:25Z</time></trkpt><trkpt lat="45.0170864524726" lon="12.228642238319615"><ele>0.0</ele><time>2026-04-19T08:53:26Z</time></trkpt><trkpt lat="45.01706314449199" lon="12.228757132578767"><ele>0.0</ele><time>2026-04-19T08:53:27Z</time></trkpt><trkpt lat="45.01706599443927" lon="12.228867369044723"><ele>0.0</ele><time>2026-04-19T08:53:28Z</time></trkpt><trkpt lat="45.017103498784834" lon="12.22896163995742"><ele>-0.16666666666666666</ele><time>2026-04-19T08:53:29Z</time></trkpt><trkpt lat="45.01717050685748" lon="12.229028784870573"><ele>-0.3333333333333333</ele><time>2026-04-19T08:53:30Z</time></trkpt><trkpt lat="45.01725264324545" lon="12.229070819279281"><ele>-0.5</ele><time>2026-04-19T08:53:31Z</time></trkpt><trkpt lat="45.01733808588639" lon="12.229105221604842"><ele>-0.6666666666666666</ele><time>2026-04-19T08:53:32Z</time></trkpt><trkpt lat="45.01741651971603" lon="12.22912637049737"><ele>-0.8333333333333333</ele><time>2026-04-19T08:53:33Z</time></trkpt><trkpt lat="45.0174889155786" lon="12.229130919787503"><ele>-1.0</ele><time>2026-04-19T08:53:34Z</time></trkpt><trkpt lat="45.01755881379096" lon="12.229132854651986"><ele>-1.1666666666666665</ele><time>2026-04-19T08:53:35Z</time></trkpt><trkpt lat="45.01762956628098" lon="12.22913794308817"><ele>-1.3333333333333333</ele><time>2026-04-19T08:53:36Z</time></trkpt><trkpt lat="45.0177057436885" lon="12.229150346026689"><ele>-1.5</ele><time>2026-04-19T08:53:37Z</time></trkpt><trkpt lat="45.01778235109624" lon="12.229170604924265"><ele>-1.6666666666666665</ele><time>2026-04-19T08:53:38Z</time></trkpt><trkpt lat="45.017861676729" lon="12.22919246352911"><ele>-1.8333333333333333</ele><time>2026-04-19T08:53:39Z</time></trkpt><trkpt lat="45.01794271823333" lon="12.229216409100783"><ele>-2.0</ele><time>2026-04-19T08:53:40Z</time></trkpt><trkpt lat="45.01802102447625" lon="12.22924404127776"><ele>-1.9999999999999998</ele><time>2026-04-19T08:53:41Z</time></trkpt><trkpt lat="45.01810046837263" lon="12.22927387423455"><ele>-2.0</ele><time>2026-04-19T08:53:42Z</time></trkpt><trkpt lat="45.018179575598694" lon="12.229306089178477"><ele>-2.0</ele><time>2026-04-19T08:53:43Z</time></trkpt><trkpt lat="45.018255889043544" lon="12.229342955312681"><ele>-2.0</ele><time>2026-04-19T08:53:44Z</time></trkpt><trkpt lat="45.01832824355729" lon="12.22937894339253"><ele>-1.9999999999999998</ele><time>2026-04-19T08:53:45Z</time></trkpt><trkpt lat="45.01839512269891" lon="12.229422138037522"><ele>-2.0</ele><time>2026-04-19T08:53:46Z</time></trkpt><trkpt lat="45.018463517022184" lon="12.229468802759506"><ele>-2.1666666666666665</ele><time>2026-04-19T08:53:47Z</time></trkpt><trkpt lat="45.0185316818157" lon="12.229514983212898"><ele>-2.333333333333333</ele><time>2026-04-19T08:53:48Z</time></trkpt><trkpt lat="45.01860215998534" lon="12.22956120794201"><ele>-2.5</ele><time>2026-04-19T08:53:49Z</time></trkpt><trkpt lat="45.01867242578773" lon="12.229604335524238"><ele>-2.6666666666666665</ele><time>2026-04-19T08:53:50Z</time></trkpt><trkpt lat="45.01874639443054" lon="12.229643260779492"><ele>-2.8333333333333335</ele><time>2026-04-19T08:53:51Z</time></trkpt><trkpt lat="45.01882948845391" lon="12.229675525783094"><ele>-3.0</ele><time>2026-04-19T08:53:52Z</time></trkpt><trkpt lat="45.01891936812225" lon="12.229694379185545"><ele>-3.0</ele><time>2026-04-19T08:53:53Z</time></trkpt><trkpt lat="45.019011979664185" lon="12.229713336645052"><ele>-3.0</ele><time>2026-04-19T08:53:54Z</time></trkpt><trkpt lat="45.01910714661646" lon="12.229736277771792"><ele>-3.0</ele><time>2026-04-19T08:53:55Z</time></trkpt><trkpt lat="45.01920824873979" lon="12.22975562656879"><ele>-3.0</ele><time>2026-04-19T08:53:56Z</time></trkpt><trkpt lat="45.01931534905536" lon="12.22977109470546"><ele>-3.0</ele><time>2026-04-19T08:53:57Z</time></trkpt><trkpt lat="45.01942519614173" lon="12.229789983815506"><ele>-2.25</ele><time>2026-04-19T08:53:58Z</time></trkpt><trkpt lat="45.01953748546077" lon="12.229815933341108"><ele>-1.5</ele><time>2026-04-19T08:53:59Z</time></trkpt><trkpt lat="45.019649969594944" lon="12.229842862986796"><ele>-0.75</ele><time>2026-04-19T08:54:00Z</time></trkpt><trkpt lat="45.0197665807916" lon="12.229867635607528"><ele>0.0</ele><time>2026-04-19T08:54:01Z</time></trkpt><trkpt lat="45.01987778210102" lon="12.229893108337498"><ele>-0.75</ele><time>2026-04-19T08:54:02Z</time></trkpt><trkpt lat="45.01998507127099" lon="12.229913916625542"><ele>-1.5</ele><time>2026-04-19T08:54:03Z</time></trkpt><trkpt lat="45.020095178129345" lon="12.22993814975665"><ele>-2.25</ele><time>2026-04-19T08:54:04Z</time></trkpt><trkpt lat="45.02020626425949" lon="12.22996616067649"><ele>-3.0</ele><time>2026-04-19T08:54:05Z</time></trkpt><trkpt lat="45.02032383337854" lon="12.22999515238159"><ele>-3.0</ele><time>2026-04-19T08:54:06Z</time></trkpt><trkpt lat="45.02044953138398" lon="12.230030497011152"><ele>-3.0</ele><time>2026-04-19T08:54:07Z</time></trkpt><trkpt lat="45.020575108982946" lon="12.230077653534323"><ele>-3.0</ele><time>2026-04-19T08:54:08Z</time></trkpt><trkpt lat="45.02068566796109" lon="12.230140437251464"><ele>-3.0</ele><time>2026-04-19T08:54:09Z</time></trkpt><trkpt lat="45.02078782597448" lon="12.230231174364746"><ele>-3.0</ele><time>2026-04-19T08:54:10Z</time></trkpt><trkpt lat="45.02087803310222" lon="12.230347552567615"><ele>-3.0</ele><time>2026-04-19T08:54:11Z</time></trkpt><trkpt lat="45.020950667032764" lon="12.230486348636322"><ele>-3.0</ele><time>2026-04-19T08:54:12Z</time></trkpt><trkpt lat="45.02100951634702" lon="12.230641660041732"><ele>-3.0</ele><time>2026-04-19T08:54:13.001Z</time></trkpt><trkpt lat="45.02106431944487" lon="12.23080107896544"><ele>-3.0</ele><time>2026-04-19T08:54:14.001Z</time></trkpt><trkpt lat="45.021120100688094" lon="12.230957999713615"><ele>-3.0</ele><time>2026-04-19T08:54:15.001Z</time></trkpt><trkpt lat="45.02117355811513" lon="12.231109930324969"><ele>-3.0</ele><time>2026-04-19T08:54:16.001Z</time></trkpt><trkpt lat="45.02122861602597" lon="12.231268491400419"><ele>-3.0</ele><time>2026-04-19T08:54:17.001Z</time></trkpt><trkpt lat="45.02128500400412" lon="12.231429733561303"><ele>-3.0</ele><time>2026-04-19T08:54:18.001Z</time></trkpt><trkpt lat="45.0213399831743" lon="12.231583413679015"><ele>-3.0</ele><time>2026-04-19T08:54:19.001Z</time></trkpt><trkpt lat="45.02139132464829" lon="12.23172849818467"><ele>-3.0</ele><time>2026-04-19T08:54:20.001Z</time></trkpt><trkpt lat="45.021440636759" lon="12.231866682213294"><ele>-3.0</ele><time>2026-04-19T08:54:21.001Z</time></trkpt><trkpt lat="45.021489076282194" lon="12.232001126794351"><ele>-3.0</ele><time>2026-04-19T08:54:22.001Z</time></trkpt><trkpt lat="45.02153704867023" lon="12.2321290598415"><ele>-3.0</ele><time>2026-04-19T08:54:23.001Z</time></trkpt><trkpt lat="45.02158408420231" lon="12.23225090329127"><ele>-3.0</ele><time>2026-04-19T08:54:24.001Z</time></trkpt><trkpt lat="45.02162954403853" lon="12.232369334021737"><ele>-3.0</ele><time>2026-04-19T08:54:25.001Z</time></trkpt><trkpt lat="45.021672238222465" lon="12.23248759169887"><ele>-3.0</ele><time>2026-04-19T08:54:26.001Z</time></trkpt><trkpt lat="45.02170918739248" lon="12.232599587782657"><ele>-3.0</ele><time>2026-04-19T08:54:27.001Z</time></trkpt><trkpt lat="45.02171945909589" lon="12.232716925962478"><ele>-3.0</ele><time>2026-04-19T08:54:28.001Z</time></trkpt><trkpt lat="45.02170581952948" lon="12.232825964221442"><ele>-3.0</ele><time>2026-04-19T08:54:29.001Z</time></trkpt><trkpt lat="45.02166031235061" lon="12.232904507835261"><ele>-3.0</ele><time>2026-04-19T08:54:30.001Z</time></trkpt><trkpt lat="45.021604078349256" lon="12.232970813467716"><ele>-3.0</ele><time>2026-04-19T08:54:31.001Z</time></trkpt><trkpt lat="45.02152797960219" lon="12.233007865704248"><ele>-3.0</ele><time>2026-04-19T08:54:32.001Z</time></trkpt><trkpt lat="45.02144633656168" lon="12.233007824596926"><ele>-3.0</ele><time>2026-04-19T08:54:33.001Z</time></trkpt><trkpt lat="45.021372930151195" lon="12.232989222636093"><ele>-3.0</ele><time>2026-04-19T08:54:34.001Z</time></trkpt><trkpt lat="45.021303870050815" lon="12.232957583026753"><ele>-3.0</ele><time>2026-04-19T08:54:35.001Z</time></trkpt><trkpt lat="45.02122860278511" lon="12.232991016882767"><ele>-3.0</ele><time>2026-04-19T08:54:36.001Z</time></trkpt><trkpt lat="45.021132845150106" lon="12.23288864537766"><ele>-3.0</ele><time>2026-04-19T08:54:37.001Z</time></trkpt><trkpt lat="45.02102281423617" lon="12.232838546702215"><ele>-3.0</ele><time>2026-04-19T08:54:38.001Z</time></trkpt><trkpt lat="45.0208928570272" lon="12.232777011954326"><ele>-3.0</ele><time>2026-04-19T08:54:39.001Z</time></trkpt><trkpt lat="45.020737410155384" lon="12.232706391328655"><ele>-3.0</ele><time>2026-04-19T08:54:40.001Z</time></trkpt><trkpt lat="45.0206027197011" lon="12.232646815728469"><ele>-3.0</ele><time>2026-04-19T08:54:41.001Z</time></trkpt><trkpt lat="45.02047156101303" lon="12.232588549480216"><ele>-3.0</ele><time>2026-04-19T08:54:42.001Z</time></trkpt><trkpt lat="45.020336125593744" lon="12.23252161361591"><ele>-3.0</ele><time>2026-04-19T08:54:43.001Z</time></trkpt><trkpt lat="45.020194200887495" lon="12.232455550162816"><ele>-3.0</ele><time>2026-04-19T08:54:44.001Z</time></trkpt><trkpt lat="45.02004796986456" lon="12.232394844717035"><ele>-3.0</ele><time>2026-04-19T08:54:45.001Z</time></trkpt><trkpt lat="45.019905581232955" lon="12.23233416507757"><ele>-2.6666666666666665</ele><time>2026-04-19T08:54:46.001Z</time></trkpt><trkpt lat="45.01976942425611" lon="12.23227488660546"><ele>-2.333333333333333</ele><time>2026-04-19T08:54:47.001Z</time></trkpt><trkpt lat="45.01962345831763" lon="12.232208924623697"><ele>-2.0</ele><time>2026-04-19T08:54:48.001Z</time></trkpt><trkpt lat="45.01946978490611" lon="12.232132622174047"><ele>-2.0</ele><time>2026-04-19T08:54:49.001Z</time></trkpt><trkpt lat="45.0193190784757" lon="12.23205733693217"><ele>-2.0</ele><time>2026-04-19T08:54:50.001Z</time></trkpt><trkpt lat="45.01917102922395" lon="12.231984730291758"><ele>-2.0</ele><time>2026-04-19T08:54:51.001Z</time></trkpt><trkpt lat="45.01900900466909" lon="12.231907309047852"><ele>-2.333333333333333</ele><time>2026-04-19T08:54:52.001Z</time></trkpt><trkpt lat="45.01885287396336" lon="12.231830958307409"><ele>-2.6666666666666665</ele><time>2026-04-19T08:54:53.001Z</time></trkpt><trkpt lat="45.01870743006454" lon="12.231762028035844"><ele>-3.0</ele><time>2026-04-19T08:54:54.001Z</time></trkpt><trkpt lat="45.0185630966752" lon="12.231700601306299"><ele>-3.0</ele><time>2026-04-19T08:54:55.001Z</time></trkpt><trkpt lat="45.01840940271793" lon="12.231631668028376"><ele>-3.0</ele><time>2026-04-19T08:54:56.001Z</time></trkpt><trkpt lat="45.01824729502363" lon="12.231554871417957"><ele>-3.0</ele><time>2026-04-19T08:54:57.001Z</time></trkpt><trkpt lat="45.01807629775751" lon="12.23147549689447"><ele>-2.3333333333333335</ele><time>2026-04-19T08:54:58.001Z</time></trkpt><trkpt lat="45.01790071121172" lon="12.231387033633432"><ele>-1.6666666666666665</ele><time>2026-04-19T08:54:59.001Z</time></trkpt><trkpt lat="45.01772453581309" lon="12.23130134992831"><ele>-1.0</ele><time>2026-04-19T08:55:00.001Z</time></trkpt><trkpt lat="45.017549470888696" lon="12.231214650744052"><ele>-0.3333333333333333</ele><time>2026-04-19T08:55:01.001Z</time></trkpt><trkpt lat="45.01738227427467" lon="12.231131950323713"><ele>0.3333333333333333</ele><time>2026-04-19T08:55:02.001Z</time></trkpt><trkpt lat="45.01721457144975" lon="12.231052990722615"><ele>1.0</ele><time>2026-04-19T08:55:03.001Z</time></trkpt><trkpt lat="45.01704857288166" lon="12.230975256151146"><ele>1.0</ele><time>2026-04-19T08:55:04.001Z</time></trkpt><trkpt lat="45.016880023911476" lon="12.230900631498672"><ele>1.0</ele><time>2026-04-19T08:55:05.001Z</time></trkpt><trkpt lat="45.01671146468952" lon="12.230822926510369"><ele>1.0</ele><time>2026-04-19T08:55:06.001Z</time></trkpt><trkpt lat="45.01654287423932" lon="12.230740958845443"><ele>2.0</ele><time>2026-04-19T08:55:07.001Z</time></trkpt><trkpt lat="45.01636985968657" lon="12.230657391332903"><ele>3.0</ele><time>2026-04-19T08:55:08.001Z</time></trkpt><trkpt lat="45.01620345447028" lon="12.230577063062638"><ele>4.0</ele><time>2026-04-19T08:55:09.001Z</time></trkpt><trkpt lat="45.01603359253357" lon="12.230494826357043"><ele>4.333333333333333</ele><time>2026-04-19T08:55:10.001Z</time></trkpt><trkpt lat="45.015857738050215" lon="12.23041337312898"><ele>4.666666666666667</ele><time>2026-04-19T08:55:11.001Z</time></trkpt><trkpt lat="45.01568059505675" lon="12.230332813511067"><ele>5.0</ele><time>2026-04-19T08:55:12.001Z</time></trkpt><trkpt lat="45.01551040383527" lon="12.230254465441197"><ele>5.333333333333334</ele><time>2026-04-19T08:55:13.001Z</time></trkpt><trkpt lat="45.01533807843811" lon="12.23017374762245"><ele>5.666666666666667</ele><time>2026-04-19T08:55:14.001Z</time></trkpt><trkpt lat="45.015168358188795" lon="12.230093751221707"><ele>6.0</ele><time>2026-04-19T08:55:15.001Z</time></trkpt><trkpt lat="45.014994619112585" lon="12.230012257983898"><ele>5.333333333333333</ele><time>2026-04-19T08:55:16.001Z</time></trkpt><trkpt lat="45.014822625673446" lon="12.229934733838986"><ele>4.666666666666666</ele><time>2026-04-19T08:55:17.001Z</time></trkpt><trkpt lat="45.01464819981363" lon="12.229850879770895"><ele>4.0</ele><time>2026-04-19T08:55:18.001Z</time></trkpt><trkpt lat="45.01447473511802" lon="12.229770482902145"><ele>3.333333333333333</ele><time>2026-04-19T08:55:19.001Z</time></trkpt><trkpt lat="45.01430063769675" lon="12.22968932364636"><ele>2.6666666666666665</ele><time>2026-04-19T08:55:20.001Z</time></trkpt><trkpt lat="45.01412716612506" lon="12.229606382925075"><ele>2.0</ele><time>2026-04-19T08:55:21.001Z</time></trkpt><trkpt lat="45.01395518171043" lon="12.229521439613821"><ele>1.6666666666666665</ele><time>2026-04-19T08:55:22.001Z</time></trkpt><trkpt lat="45.01378963088158" lon="12.229440330364673"><ele>1.3333333333333333</ele><time>2026-04-19T08:55:23.001Z</time></trkpt><trkpt lat="45.01361795950514" lon="12.229360325172571"><ele>1.0</ele><time>2026-04-19T08:55:24Z</time></trkpt><trkpt lat="45.01344926526521" lon="12.229279105411045"><ele>1.3333333333333333</ele><time>2026-04-19T08:55:25Z</time></trkpt><trkpt lat="45.01327721813089" lon="12.22919878024647"><ele>1.6666666666666665</ele><time>2026-04-19T08:55:26Z</time></trkpt><trkpt lat="45.0131019356453" lon="12.229116731950578"><ele>2.0</ele><time>2026-04-19T08:55:27Z</time></trkpt><trkpt lat="45.012926526916885" lon="12.229036801909983"><ele>2.0</ele><time>2026-04-19T08:55:28Z</time></trkpt><trkpt lat="45.01274892514744" lon="12.22895240233394"><ele>2.0</ele><time>2026-04-19T08:55:29Z</time></trkpt><trkpt lat="45.01257678893393" lon="12.22887173043099"><ele>2.0</ele><time>2026-04-19T08:55:30Z</time></trkpt><trkpt lat="45.01241185242818" lon="12.228791096827928"><ele>1.6666666666666665</ele><time>2026-04-19T08:55:31Z</time></trkpt><trkpt lat="45.01224896121104" lon="12.22871757346297"><ele>1.3333333333333333</ele><time>2026-04-19T08:55:32Z</time></trkpt><trkpt lat="45.0120809352122" lon="12.228636251231057"><ele>1.0</ele><time>2026-04-19T08:55:33Z</time></trkpt><trkpt lat="45.01191039610644" lon="12.22855523272321"><ele>1.0</ele><time>2026-04-19T08:55:34Z</time></trkpt><trkpt lat="45.011738283670155" lon="12.228475325134694"><ele>1.0</ele><time>2026-04-19T08:55:35Z</time></trkpt><trkpt lat="45.01156154246299" lon="12.228392121453746"><ele>1.0</ele><time>2026-04-19T08:55:36Z</time></trkpt><trkpt lat="45.01137607638666" lon="12.228304880574527"><ele>0.6666666666666666</ele><time>2026-04-19T08:55:37Z</time></trkpt><trkpt lat="45.01119528080016" lon="12.228222308638932"><ele>0.3333333333333333</ele><time>2026-04-19T08:55:38Z</time></trkpt><trkpt lat="45.01101796179815" lon="12.228135617165387"><ele>0.0</ele><time>2026-04-19T08:55:39Z</time></trkpt><trkpt lat="45.01083305999819" lon="12.22804462938535"><ele>0.0</ele><time>2026-04-19T08:55:40Z</time></trkpt><trkpt lat="45.01064671727124" lon="12.227959378270283"><ele>0.0</ele><time>2026-04-19T08:55:41Z</time></trkpt><trkpt lat="45.010463098511096" lon="12.227877029798949"><ele>0.0</ele><time>2026-04-19T08:55:42Z</time></trkpt><trkpt lat="45.01028435534835" lon="12.227793970931199"><ele>0.0</ele><time>2026-04-19T08:55:43Z</time></trkpt><trkpt lat="45.01010415397475" lon="12.227708356257821"><ele>0.0</ele><time>2026-04-19T08:55:44Z</time></trkpt><trkpt lat="45.009924078821385" lon="12.227622510750294"><ele>0.0</ele><time>2026-04-19T08:55:45Z</time></trkpt><trkpt lat="45.00974565880043" lon="12.227533939958873"><ele>0.0</ele><time>2026-04-19T08:55:46Z</time></trkpt><trkpt lat="45.00956869133515" lon="12.227448285014756"><ele>0.0</ele><time>2026-04-19T08:55:47Z</time></trkpt><trkpt lat="45.00939291446801" lon="12.227362627642474"><ele>0.0</ele><time>2026-04-19T08:55:48Z</time></trkpt><trkpt lat="45.00921428065433" lon="12.227277765570378"><ele>0.0</ele><time>2026-04-19T08:55:49Z</time></trkpt><trkpt lat="45.00903353146652" lon="12.227194661382093"><ele>0.0</ele><time>2026-04-19T08:55:50Z</time></trkpt><trkpt lat="45.008850223324515" lon="12.22710778754236"><ele>0.0</ele><time>2026-04-19T08:55:51Z</time></trkpt><trkpt lat="45.00866637060266" lon="12.227020779548747"><ele>0.0</ele><time>2026-04-19T08:55:52Z</time></trkpt><trkpt lat="45.00848593478209" lon="12.226935763450628"><ele>0.0</ele><time>2026-04-19T08:55:53Z</time></trkpt><trkpt lat="45.00830574808733" lon="12.22685217790852"><ele>0.0</ele><time>2026-04-19T08:55:54Z</time></trkpt><trkpt lat="45.008127102841065" lon="12.226766760478412"><ele>1.0</ele><time>2026-04-19T08:55:55Z</time></trkpt><trkpt lat="45.00795483123994" lon="12.226685223139881"><ele>2.0</ele><time>2026-04-19T08:55:56Z</time></trkpt><trkpt lat="45.007787021084006" lon="12.22660451351227"><ele>3.0</ele><time>2026-04-19T08:55:57Z</time></trkpt><trkpt lat="45.007620600982804" lon="12.226526618872327"><ele>2.6666666666666665</ele><time>2026-04-19T08:55:58Z</time></trkpt><trkpt lat="45.0074514962512" lon="12.226446204216957"><ele>2.333333333333333</ele><time>2026-04-19T08:55:59Z</time></trkpt><trkpt lat="45.00728281051095" lon="12.226363208443741"><ele>2.0</ele><time>2026-04-19T08:56:00Z</time></trkpt><trkpt lat="45.007113758316976" lon="12.226286277590363"><ele>2.0</ele><time>2026-04-19T08:56:01Z</time></trkpt><trkpt lat="45.006946761613634" lon="12.226205186451603"><ele>2.0</ele><time>2026-04-19T08:56:02Z</time></trkpt><trkpt lat="45.00678054929589" lon="12.226127513985665"><ele>2.0</ele><time>2026-04-19T08:56:03Z</time></trkpt><trkpt lat="45.00660803768452" lon="12.226049592533784"><ele>2.333333333333333</ele><time>2026-04-19T08:56:04Z</time></trkpt><trkpt lat="45.00643216568863" lon="12.225978892371671"><ele>2.6666666666666665</ele><time>2026-04-19T08:56:05Z</time></trkpt><trkpt lat="45.00626489980307" lon="12.225911497964017"><ele>3.0</ele><time>2026-04-19T08:56:06Z</time></trkpt><trkpt lat="45.00608932817875" lon="12.225844625379787"><ele>3.0</ele><time>2026-04-19T08:56:07Z</time></trkpt><trkpt lat="45.00590525691873" lon="12.225780848639513"><ele>3.0</ele><time>2026-04-19T08:56:08Z</time></trkpt><trkpt lat="45.005726411107254" lon="12.225716067121104"><ele>3.0</ele><time>2026-04-19T08:56:09Z</time></trkpt><trkpt lat="45.005548112640255" lon="12.225656962938999"><ele>2.0</ele><time>2026-04-19T08:56:10Z</time></trkpt><trkpt lat="45.0053695990269" lon="12.22559687951296"><ele>1.0</ele><time>2026-04-19T08:56:11Z</time></trkpt><trkpt lat="45.005188332478696" lon="12.225532836938081"><ele>0.0</ele><time>2026-04-19T08:56:12Z</time></trkpt><trkpt lat="45.005006688726354" lon="12.225468624577923"><ele>-0.3333333333333333</ele><time>2026-04-19T08:56:13Z</time></trkpt><trkpt lat="45.00482457468489" lon="12.225403323010685"><ele>-0.6666666666666666</ele><time>2026-04-19T08:56:14Z</time></trkpt><trkpt lat="45.004641755390956" lon="12.225340196155022"><ele>-1.0</ele><time>2026-04-19T08:56:15Z</time></trkpt><trkpt lat="45.00446000878624" lon="12.225274065744374"><ele>-1.0</ele><time>2026-04-19T08:56:16Z</time></trkpt><trkpt lat="45.00427441159337" lon="12.225207532655258"><ele>-1.0</ele><time>2026-04-19T08:56:17Z</time></trkpt><trkpt lat="45.00408854663434" lon="12.225145231679411"><ele>-1.0</ele><time>2026-04-19T08:56:18Z</time></trkpt><trkpt lat="45.003904326870256" lon="12.225081290572659"><ele>-1.3333333333333333</ele><time>2026-04-19T08:56:19Z</time></trkpt><trkpt lat="45.003720130248695" lon="12.225018300000064"><ele>-1.6666666666666665</ele><time>2026-04-19T08:56:20Z</time></trkpt><trkpt lat="45.003535365059506" lon="12.224948100604262"><ele>-2.0</ele><time>2026-04-19T08:56:21Z</time></trkpt><trkpt lat="45.00335374694927" lon="12.22488331748369"><ele>-2.333333333333333</ele><time>2026-04-19T08:56:22Z</time></trkpt><trkpt lat="45.003174958725296" lon="12.224817176314922"><ele>-2.6666666666666665</ele><time>2026-04-19T08:56:23Z</time></trkpt><trkpt lat="45.002996176037065" lon="12.224754632748711"><ele>-3.0</ele><time>2026-04-19T08:56:24Z</time></trkpt><trkpt lat="45.002816782541096" lon="12.224691245693695"><ele>-3.0</ele><time>2026-04-19T08:56:25Z</time></trkpt><trkpt lat="45.002634583144555" lon="12.224630265754248"><ele>-3.0</ele><time>2026-04-19T08:56:26Z</time></trkpt><trkpt lat="45.00245594345725" lon="12.224567476925621"><ele>-3.0</ele><time>2026-04-19T08:56:27Z</time></trkpt><trkpt lat="45.00227494805876" lon="12.224503782930357"><ele>-3.333333333333333</ele><time>2026-04-19T08:56:28Z</time></trkpt><trkpt lat="45.00209585850539" lon="12.224441266592581"><ele>-3.6666666666666665</ele><time>2026-04-19T08:56:29Z</time></trkpt><trkpt lat="45.001918217917165" lon="12.224378654604699"><ele>-4.0</ele><time>2026-04-19T08:56:30Z</time></trkpt><trkpt lat="45.001744279881805" lon="12.224314851505488"><ele>-3.333333333333333</ele><time>2026-04-19T08:56:31Z</time></trkpt><trkpt lat="45.001574832164586" lon="12.22425609867847"><ele>-2.6666666666666665</ele><time>2026-04-19T08:56:32Z</time></trkpt><trkpt lat="45.00139752483271" lon="12.224192589880303"><ele>-2.0</ele><time>2026-04-19T08:56:33.001Z</time></trkpt><trkpt lat="45.001221929612825" lon="12.224129699256972"><ele>-2.0</ele><time>2026-04-19T08:56:34.001Z</time></trkpt><trkpt lat="45.00104556380356" lon="12.22406581995512"><ele>-2.0</ele><time>2026-04-19T08:56:35.001Z</time></trkpt><trkpt lat="45.00086992591973" lon="12.224002933963861"><ele>-2.0</ele><time>2026-04-19T08:56:36.001Z</time></trkpt><trkpt lat="45.00069251210396" lon="12.223942617774926"><ele>-3.333333333333333</ele><time>2026-04-19T08:56:37.001Z</time></trkpt><trkpt lat="45.00052343982987" lon="12.223884791144725"><ele>-4.666666666666667</ele><time>2026-04-19T08:56:38.001Z</time></trkpt><trkpt lat="45.00034998076272" lon="12.22382179298063"><ele>-6.0</ele><time>2026-04-19T08:56:39.001Z</time></trkpt><trkpt lat="45.000174133312555" lon="12.223761747072722"><ele>-6.0</ele><time>2026-04-19T08:56:40.001Z</time></trkpt><trkpt lat="44.99999810086502" lon="12.223700110466602"><ele>-6.0</ele><time>2026-04-19T08:56:41.001Z</time></trkpt><trkpt lat="44.999822522416196" lon="12.22363989088789"><ele>-6.0</ele><time>2026-04-19T08:56:42.001Z</time></trkpt><trkpt lat="44.99965000860475" lon="12.223579154636155"><ele>-6.0</ele><time>2026-04-19T08:56:43.001Z</time></trkpt><trkpt lat="44.99947516594267" lon="12.223514586551735"><ele>-6.0</ele><time>2026-04-19T08:56:44.001Z</time></trkpt><trkpt lat="44.99930098894622" lon="12.2234495148476"><ele>-6.0</ele><time>2026-04-19T08:56:45.001Z</time></trkpt><trkpt lat="44.99912974263473" lon="12.223386903126082"><ele>-6.0</ele><time>2026-04-19T08:56:46.001Z</time></trkpt><trkpt lat="44.998963297602664" lon="12.223325602222863"><ele>-6.0</ele><time>2026-04-19T08:56:47.001Z</time></trkpt><trkpt lat="44.998792035157166" lon="12.223264381112294"><ele>-6.0</ele><time>2026-04-19T08:56:48.001Z</time></trkpt><trkpt lat="44.99862293928906" lon="12.2232045970321"><ele>-6.0</ele><time>2026-04-19T08:56:49.001Z</time></trkpt><trkpt lat="44.998457902837" lon="12.223147860687465"><ele>-6.0</ele><time>2026-04-19T08:56:50.001Z</time></trkpt><trkpt lat="44.998295665370605" lon="12.22309593687862"><ele>-6.0</ele><time>2026-04-19T08:56:51.001Z</time></trkpt><trkpt lat="44.998132195765265" lon="12.223042171360754"><ele>-5.666666666666667</ele><time>2026-04-19T08:56:52.001Z</time></trkpt><trkpt lat="44.99796767257865" lon="12.222988556707191"><ele>-5.333333333333334</ele><time>2026-04-19T08:56:53.001Z</time></trkpt><trkpt lat="44.99780347045315" lon="12.222933423549605"><ele>-5.0</ele><time>2026-04-19T08:56:54.001Z</time></trkpt><trkpt lat="44.99763646706529" lon="12.222876228182644"><ele>-4.0</ele><time>2026-04-19T08:56:55.001Z</time></trkpt><trkpt lat="44.99746325861262" lon="12.222814859675912"><ele>-3.0</ele><time>2026-04-19T08:56:56.001Z</time></trkpt><trkpt lat="44.99729127382788" lon="12.222750810442895"><ele>-2.0</ele><time>2026-04-19T08:56:57.001Z</time></trkpt><trkpt lat="44.997119870463415" lon="12.222685169119774"><ele>-2.0</ele><time>2026-04-19T08:56:58.001Z</time></trkpt><trkpt lat="44.99694446603125" lon="12.222620649988313"><ele>-2.0</ele><time>2026-04-19T08:56:59.001Z</time></trkpt><trkpt lat="44.99677874067505" lon="12.222560938202147"><ele>-2.0</ele><time>2026-04-19T08:57:00.001Z</time></trkpt><trkpt lat="44.99661516872277" lon="12.222499387803646"><ele>-2.0</ele><time>2026-04-19T08:57:01.001Z</time></trkpt><trkpt lat="44.99645484629415" lon="12.222439451434097"><ele>-2.0</ele><time>2026-04-19T08:57:02.001Z</time></trkpt><trkpt lat="44.99629412569822" lon="12.22238430156589"><ele>-2.0</ele><time>2026-04-19T08:57:03.001Z</time></trkpt><trkpt lat="44.99613506086937" lon="12.222328479109272"><ele>-2.0</ele><time>2026-04-19T08:57:04.001Z</time></trkpt><trkpt lat="44.995979726461876" lon="12.222274607628098"><ele>-2.0</ele><time>2026-04-19T08:57:05.001Z</time></trkpt><trkpt lat="44.995824018735775" lon="12.222222520144278"><ele>-2.0</ele><time>2026-04-19T08:57:06.001Z</time></trkpt><trkpt lat="44.995662957065484" lon="12.222162180251395"><ele>-2.0</ele><time>2026-04-19T08:57:07.001Z</time></trkpt><trkpt lat="44.995503666802605" lon="12.222105955760032"><ele>-2.0</ele><time>2026-04-19T08:57:08.001Z</time></trkpt><trkpt lat="44.995344826776275" lon="12.222051832327923"><ele>-2.0</ele><time>2026-04-19T08:57:09.001Z</time></trkpt><trkpt lat="44.99518032457717" lon="12.22201259935284"><ele>-2.0</ele><time>2026-04-19T08:57:10.001Z</time></trkpt><trkpt lat="44.99503229658131" lon="12.22195175532822"><ele>-2.0</ele><time>2026-04-19T08:57:11.001Z</time></trkpt><trkpt lat="44.994887938140565" lon="12.221898038519656"><ele>-2.0</ele><time>2026-04-19T08:57:12.001Z</time></trkpt><trkpt lat="44.99473393725992" lon="12.22184680062889"><ele>-2.0</ele><time>2026-04-19T08:57:13.001Z</time></trkpt><trkpt lat="44.99457849849697" lon="12.22179215235276"><ele>-2.0</ele><time>2026-04-19T08:57:14.001Z</time></trkpt><trkpt lat="44.99441948657421" lon="12.221736187420522"><ele>-2.0</ele><time>2026-04-19T08:57:15.001Z</time></trkpt><trkpt lat="44.994255699790905" lon="12.221676788075142"><ele>-2.333333333333333</ele><time>2026-04-19T08:57:16.001Z</time></trkpt><trkpt lat="44.99409098140658" lon="12.221616946548014"><ele>-2.6666666666666665</ele><time>2026-04-19T08:57:17.001Z</time></trkpt><trkpt lat="44.993922673488015" lon="12.22155184621031"><ele>-3.0</ele><time>2026-04-19T08:57:18.001Z</time></trkpt><trkpt lat="44.99375291534511" lon="12.221490883160484"><ele>-2.6666666666666665</ele><time>2026-04-19T08:57:19.001Z</time></trkpt><trkpt lat="44.9935825980339" lon="12.221427389443816"><ele>-2.333333333333333</ele><time>2026-04-19T08:57:20.001Z</time></trkpt><trkpt lat="44.99341612686914" lon="12.22136600315774"><ele>-2.0</ele><time>2026-04-19T08:57:21.001Z</time></trkpt><trkpt lat="44.99324795208695" lon="12.221303451616578"><ele>-2.0</ele><time>2026-04-19T08:57:22.001Z</time></trkpt><trkpt lat="44.993077657798054" lon="12.221242669545566"><ele>-2.0</ele><time>2026-04-19T08:57:23.001Z</time></trkpt><trkpt lat="44.99290353044219" lon="12.221182722046665"><ele>-2.0</ele><time>2026-04-19T08:57:24.001Z</time></trkpt><trkpt lat="44.99272769352959" lon="12.221125222028453"><ele>-2.0</ele><time>2026-04-19T08:57:25.001Z</time></trkpt><trkpt lat="44.99255826864831" lon="12.221067721300958"><ele>-2.0</ele><time>2026-04-19T08:57:26.001Z</time></trkpt><trkpt lat="44.99238878940596" lon="12.221015047714266"><ele>-2.0</ele><time>2026-04-19T08:57:27.001Z</time></trkpt><trkpt lat="44.992214836057066" lon="12.220964948819505"><ele>-1.3333333333333333</ele><time>2026-04-19T08:57:28.001Z</time></trkpt><trkpt lat="44.99203878675689" lon="12.22091647856651"><ele>-0.6666666666666666</ele><time>2026-04-19T08:57:29.001Z</time></trkpt><trkpt lat="44.99186577304688" lon="12.220874522427327"><ele>0.0</ele><time>2026-04-19T08:57:30Z</time></trkpt><trkpt lat="44.99169818713374" lon="12.220841568983255"><ele>-0.3333333333333333</ele><time>2026-04-19T08:57:31Z</time></trkpt><trkpt lat="44.99152569765523" lon="12.220812383311126"><ele>-0.6666666666666666</ele><time>2026-04-19T08:57:32Z</time></trkpt><trkpt lat="44.991351053442216" lon="12.220788482677513"><ele>-1.0</ele><time>2026-04-19T08:57:33Z</time></trkpt><trkpt lat="44.99117629949237" lon="12.22077053821306"><ele>-1.0</ele><time>2026-04-19T08:57:34Z</time></trkpt><trkpt lat="44.99100433872508" lon="12.220753479214032"><ele>-1.0</ele><time>2026-04-19T08:57:35Z</time></trkpt><trkpt lat="44.990839396460544" lon="12.220741289065456"><ele>-1.0</ele><time>2026-04-19T08:57:36Z</time></trkpt><trkpt lat="44.99068884261292" lon="12.220735751423561"><ele>-1.5</ele><time>2026-04-19T08:57:37Z</time></trkpt><trkpt lat="44.99054268921826" lon="12.22073376315895"><ele>-2.0</ele><time>2026-04-19T08:57:38Z</time></trkpt><trkpt lat="44.990401074501236" lon="12.220731476281262"><ele>-2.5</ele><time>2026-04-19T08:57:39Z</time></trkpt><trkpt lat="44.99025819228853" lon="12.22072797336021"><ele>-3.0</ele><time>2026-04-19T08:57:40Z</time></trkpt><trkpt lat="44.99011227299453" lon="12.220724028276802"><ele>-2.6666666666666665</ele><time>2026-04-19T08:57:41Z</time></trkpt><trkpt lat="44.98996300338267" lon="12.22072201447746"><ele>-2.333333333333333</ele><time>2026-04-19T08:57:42Z</time></trkpt><trkpt lat="44.989809972983245" lon="12.220720684003119"><ele>-2.0</ele><time>2026-04-19T08:57:43Z</time></trkpt><trkpt lat="44.98965349233125" lon="12.220719283834597"><ele>-2.0</ele><time>2026-04-19T08:57:44Z</time></trkpt><trkpt lat="44.989490296580755" lon="12.22071913253881"><ele>-2.0</ele><time>2026-04-19T08:57:45Z</time></trkpt><trkpt lat="44.989331782801635" lon="12.220724179650713"><ele>-2.0</ele><time>2026-04-19T08:57:46Z</time></trkpt><trkpt lat="44.98917491954207" lon="12.22072861504596"><ele>-2.0</ele><time>2026-04-19T08:57:47Z</time></trkpt><trkpt lat="44.989014466487774" lon="12.220732028896743"><ele>-2.0</ele><time>2026-04-19T08:57:48Z</time></trkpt><trkpt lat="44.988851343797776" lon="12.22073399073852"><ele>-2.0</ele><time>2026-04-19T08:57:49Z</time></trkpt><trkpt lat="44.98868671382191" lon="12.220735788184415"><ele>-2.0</ele><time>2026-04-19T08:57:50Z</time></trkpt><trkpt lat="44.98851562068735" lon="12.220738746496849"><ele>-2.0</ele><time>2026-04-19T08:57:51Z</time></trkpt><trkpt lat="44.98834351650536" lon="12.220740131951246"><ele>-2.0</ele><time>2026-04-19T08:57:52Z</time></trkpt><trkpt lat="44.98816855471736" lon="12.220739198411467"><ele>-2.0</ele><time>2026-04-19T08:57:53Z</time></trkpt><trkpt lat="44.98798873620108" lon="12.220738907814946"><ele>-2.0</ele><time>2026-04-19T08:57:54Z</time></trkpt><trkpt lat="44.987804864276534" lon="12.220737328836172"><ele>-2.0</ele><time>2026-04-19T08:57:55Z</time></trkpt><trkpt lat="44.987616414107876" lon="12.220735822735493"><ele>-2.0</ele><time>2026-04-19T08:57:56Z</time></trkpt><trkpt lat="44.98742755161961" lon="12.220734374572453"><ele>-2.0</ele><time>2026-04-19T08:57:57Z</time></trkpt><trkpt lat="44.98723660888312" lon="12.22073545822392"><ele>-2.0</ele><time>2026-04-19T08:57:58Z</time></trkpt><trkpt lat="44.98704820293992" lon="12.220736660229264"><ele>-2.0</ele><time>2026-04-19T08:57:59Z</time></trkpt><trkpt lat="44.986864781292134" lon="12.220737450594092"><ele>-2.0</ele><time>2026-04-19T08:58:00Z</time></trkpt><trkpt lat="44.986683639390435" lon="12.220738816331519"><ele>-2.0</ele><time>2026-04-19T08:58:01Z</time></trkpt><trkpt lat="44.98650073656307" lon="12.220741414446131"><ele>-0.33333333333333326</ele><time>2026-04-19T08:58:02Z</time></trkpt><trkpt lat="44.98631968397844" lon="12.220742197954992"><ele>1.3333333333333335</ele><time>2026-04-19T08:58:03Z</time></trkpt><trkpt lat="44.986133399796906" lon="12.220741263152883"><ele>3.0</ele><time>2026-04-19T08:58:04Z</time></trkpt><trkpt lat="44.98594724943314" lon="12.220740469024816"><ele>3.0</ele><time>2026-04-19T08:58:05Z</time></trkpt><trkpt lat="44.98582777820964" lon="12.22073925686948"><ele>3.0</ele><time>2026-04-19T08:58:06Z</time></trkpt><trkpt lat="44.9856800088863" lon="12.220740054825807"><ele>3.0</ele><time>2026-04-19T08:58:07Z</time></trkpt><trkpt lat="44.985528324931416" lon="12.220744518690578"><ele>3.0</ele><time>2026-04-19T08:58:08Z</time></trkpt><trkpt lat="44.98537100453835" lon="12.220743372941849"><ele>3.0</ele><time>2026-04-19T08:58:09Z</time></trkpt><trkpt lat="44.98520856395986" lon="12.220744161037015"><ele>3.0</ele><time>2026-04-19T08:58:10Z</time></trkpt><trkpt lat="44.985036173978976" lon="12.22074142633523"><ele>3.0</ele><time>2026-04-19T08:58:11Z</time></trkpt><trkpt lat="44.98486120412372" lon="12.220743159999728"><ele>1.6666666666666667</ele><time>2026-04-19T08:58:12Z</time></trkpt><trkpt lat="44.98468952900747" lon="12.220745869329079"><ele>0.33333333333333337</ele><time>2026-04-19T08:58:13Z</time></trkpt><trkpt lat="44.9845180048842" lon="12.220746580439386"><ele>-1.0</ele><time>2026-04-19T08:58:14Z</time></trkpt><trkpt lat="44.984346550497186" lon="12.220746859870069"><ele>-1.6666666666666665</ele><time>2026-04-19T08:58:15Z</time></trkpt><trkpt lat="44.98417871504125" lon="12.220748678836992"><ele>-2.3333333333333335</ele><time>2026-04-19T08:58:16Z</time></trkpt><trkpt lat="44.98401262846328" lon="12.220747092961496"><ele>-3.0</ele><time>2026-04-19T08:58:17Z</time></trkpt><trkpt lat="44.98385344451024" lon="12.220747407320662"><ele>-3.0</ele><time>2026-04-19T08:58:18Z</time></trkpt><trkpt lat="44.98369205308853" lon="12.220748257392184"><ele>-3.0</ele><time>2026-04-19T08:58:19Z</time></trkpt><trkpt lat="44.983530133705" lon="12.220749328562796"><ele>-3.0</ele><time>2026-04-19T08:58:20Z</time></trkpt><trkpt lat="44.98336599313835" lon="12.220749624355905"><ele>-3.0</ele><time>2026-04-19T08:58:21Z</time></trkpt><trkpt lat="44.98319959262452" lon="12.220749272990458"><ele>-3.0</ele><time>2026-04-19T08:58:22Z</time></trkpt><trkpt lat="44.98303176153061" lon="12.220748514626138"><ele>-3.0</ele><time>2026-04-19T08:58:23Z</time></trkpt><trkpt lat="44.98286202714049" lon="12.220750993122861"><ele>-3.0</ele><time>2026-04-19T08:58:24Z</time></trkpt><trkpt lat="44.982692332772174" lon="12.220755030187282"><ele>-3.0</ele><time>2026-04-19T08:58:25Z</time></trkpt><trkpt lat="44.98251896793062" lon="12.22075551714312"><ele>-3.0</ele><time>2026-04-19T08:58:26Z</time></trkpt><trkpt lat="44.98234356904299" lon="12.22075600112134"><ele>-3.0</ele><time>2026-04-19T08:58:27Z</time></trkpt><trkpt lat="44.982162887714395" lon="12.22075054573986"><ele>-3.0</ele><time>2026-04-19T08:58:28Z</time></trkpt><trkpt lat="44.981994791600066" lon="12.220749005665782"><ele>-3.0</ele><time>2026-04-19T08:58:29Z</time></trkpt><trkpt lat="44.98182544598385" lon="12.220751433752792"><ele>-3.333333333333333</ele><time>2026-04-19T08:58:30Z</time></trkpt><trkpt lat="44.981658375114144" lon="12.22074969038592"><ele>-3.6666666666666665</ele><time>2026-04-19T08:58:31.001Z</time></trkpt><trkpt lat="44.981492770462566" lon="12.220750717205187"><ele>-4.0</ele><time>2026-04-19T08:58:32.001Z</time></trkpt><trkpt lat="44.98132916620178" lon="12.220748780737496"><ele>-4.0</ele><time>2026-04-19T08:58:33.001Z</time></trkpt><trkpt lat="44.98117022122619" lon="12.220755916141657"><ele>-4.0</ele><time>2026-04-19T08:58:34.001Z</time></trkpt><trkpt lat="44.98100858622783" lon="12.22076100786154"><ele>-4.0</ele><time>2026-04-19T08:58:35.001Z</time></trkpt><trkpt lat="44.98084371605156" lon="12.220760793907273"><ele>-4.0</ele><time>2026-04-19T08:58:36.001Z</time></trkpt><trkpt lat="44.98068599599607" lon="12.2207540294712"><ele>-4.0</ele><time>2026-04-19T08:58:37.001Z</time></trkpt><trkpt lat="44.98052542076021" lon="12.220757888092821"><ele>-4.0</ele><time>2026-04-19T08:58:38.001Z</time></trkpt><trkpt lat="44.980353579810675" lon="12.220756423841502"><ele>-4.0</ele><time>2026-04-19T08:58:39.001Z</time></trkpt><trkpt lat="44.980186704792196" lon="12.220757343450538"><ele>-4.0</ele><time>2026-04-19T08:58:40.001Z</time></trkpt><trkpt lat="44.98001768775447" lon="12.220765404332003"><ele>-4.0</ele><time>2026-04-19T08:58:41.001Z</time></trkpt><trkpt lat="44.97984941581374" lon="12.220775552705064"><ele>-3.6666666666666665</ele><time>2026-04-19T08:58:42.001Z</time></trkpt><trkpt lat="44.979680018081716" lon="12.220789551167243"><ele>-3.333333333333333</ele><time>2026-04-19T08:58:43.001Z</time></trkpt><trkpt lat="44.97951051252835" lon="12.220811528209323"><ele>-3.0</ele><time>2026-04-19T08:58:44.001Z</time></trkpt><trkpt lat="44.97933981891008" lon="12.22084088318422"><ele>-2.6666666666666665</ele><time>2026-04-19T08:58:45.001Z</time></trkpt><trkpt lat="44.97916869264668" lon="12.220874617899518"><ele>-2.333333333333333</ele><time>2026-04-19T08:58:46.001Z</time></trkpt><trkpt lat="44.978998423390635" lon="12.220907314290539"><ele>-2.0</ele><time>2026-04-19T08:58:47.001Z</time></trkpt><trkpt lat="44.97882914711725" lon="12.220949529948848"><ele>-2.0</ele><time>2026-04-19T08:58:48.001Z</time></trkpt><trkpt lat="44.97866108257948" lon="12.22098604259435"><ele>-2.0</ele><time>2026-04-19T08:58:49.001Z</time></trkpt><trkpt lat="44.978495038473255" lon="12.221021289037715"><ele>-2.0</ele><time>2026-04-19T08:58:50.001Z</time></trkpt><trkpt lat="44.97833312747297" lon="12.2210599077068"><ele>-3.0</ele><time>2026-04-19T08:58:51.001Z</time></trkpt><trkpt lat="44.978171181886104" lon="12.221097933146888"><ele>-4.0</ele><time>2026-04-19T08:58:52.001Z</time></trkpt><trkpt lat="44.978007246573604" lon="12.221133357183325"><ele>-5.0</ele><time>2026-04-19T08:58:53.001Z</time></trkpt><trkpt lat="44.977848119429666" lon="12.221168673491627"><ele>-5.0</ele><time>2026-04-19T08:58:54.001Z</time></trkpt><trkpt lat="44.97769019888588" lon="12.22120732241413"><ele>-5.0</ele><time>2026-04-19T08:58:55.001Z</time></trkpt><trkpt lat="44.97753356020506" lon="12.221244270809922"><ele>-5.0</ele><time>2026-04-19T08:58:56.001Z</time></trkpt><trkpt lat="44.977378806134574" lon="12.221277890819687"><ele>-5.0</ele><time>2026-04-19T08:58:57.001Z</time></trkpt><trkpt lat="44.97722474634802" lon="12.221313078007555"><ele>-5.0</ele><time>2026-04-19T08:58:58.001Z</time></trkpt><trkpt lat="44.97707117104614" lon="12.221347524045086"><ele>-5.0</ele><time>2026-04-19T08:58:59.001Z</time></trkpt><trkpt lat="44.9769127843939" lon="12.221383825927134"><ele>-5.0</ele><time>2026-04-19T08:59:00.001Z</time></trkpt><trkpt lat="44.976753565803875" lon="12.22141827768751"><ele>-5.0</ele><time>2026-04-19T08:59:01.001Z</time></trkpt><trkpt lat="44.97660189484081" lon="12.221449611590224"><ele>-5.0</ele><time>2026-04-19T08:59:02.001Z</time></trkpt><trkpt lat="44.97645913666928" lon="12.22147937623926"><ele>-5.25</ele><time>2026-04-19T08:59:03.001Z</time></trkpt><trkpt lat="44.976320536354244" lon="12.221510535323166"><ele>-5.5</ele><time>2026-04-19T08:59:04.001Z</time></trkpt><trkpt lat="44.97618460031451" lon="12.221543543571197"><ele>-5.75</ele><time>2026-04-19T08:59:05.001Z</time></trkpt><trkpt lat="44.97604373581848" lon="12.221575253402897"><ele>-6.0</ele><time>2026-04-19T08:59:06.001Z</time></trkpt><trkpt lat="44.975906386181535" lon="12.221607543609846"><ele>-5.25</ele><time>2026-04-19T08:59:07.001Z</time></trkpt><trkpt lat="44.975765764797885" lon="12.221640885705161"><ele>-4.5</ele><time>2026-04-19T08:59:08.001Z</time></trkpt><trkpt lat="44.97562252024306" lon="12.221673822541248"><ele>-3.75</ele><time>2026-04-19T08:59:09.001Z</time></trkpt><trkpt lat="44.9754797656997" lon="12.221706110594688"><ele>-3.0</ele><time>2026-04-19T08:59:10.001Z</time></trkpt><trkpt lat="44.97533257007506" lon="12.221738491082954"><ele>-3.0</ele><time>2026-04-19T08:59:11.001Z</time></trkpt><trkpt lat="44.97517863973778" lon="12.221773546771328"><ele>-3.0</ele><time>2026-04-19T08:59:12.001Z</time></trkpt><trkpt lat="44.9750229408995" lon="12.22181075622676"><ele>-3.0</ele><time>2026-04-19T08:59:13.001Z</time></trkpt><trkpt lat="44.97486429788411" lon="12.221847171114518"><ele>-3.0</ele><time>2026-04-19T08:59:14.001Z</time></trkpt><trkpt lat="44.97470498493582" lon="12.221883796938302"><ele>-3.0</ele><time>2026-04-19T08:59:15.001Z</time></trkpt><trkpt lat="44.974549557114486" lon="12.221920477997747"><ele>-3.0</ele><time>2026-04-19T08:59:16.001Z</time></trkpt><trkpt lat="44.97439162586984" lon="12.221952891923534"><ele>-3.0</ele><time>2026-04-19T08:59:17.001Z</time></trkpt><trkpt lat="44.97423941832624" lon="12.22198811496952"><ele>-3.0</ele><time>2026-04-19T08:59:18.001Z</time></trkpt><trkpt lat="44.97408591460863" lon="12.222022738406508"><ele>-3.0</ele><time>2026-04-19T08:59:19.001Z</time></trkpt><trkpt lat="44.97393448423082" lon="12.22205933829218"><ele>-3.333333333333333</ele><time>2026-04-19T08:59:20.001Z</time></trkpt><trkpt lat="44.973785189220834" lon="12.2220894215766"><ele>-3.6666666666666665</ele><time>2026-04-19T08:59:21.001Z</time></trkpt><trkpt lat="44.973634162156614" lon="12.222124194021118"><ele>-4.0</ele><time>2026-04-19T08:59:22.001Z</time></trkpt><trkpt lat="44.97348474093774" lon="12.222158415570972"><ele>-3.6666666666666665</ele><time>2026-04-19T08:59:23.001Z</time></trkpt><trkpt lat="44.97333248924614" lon="12.22219212591195"><ele>-3.333333333333333</ele><time>2026-04-19T08:59:24.001Z</time></trkpt><trkpt lat="44.973181788037365" lon="12.222223843490235"><ele>-3.0</ele><time>2026-04-19T08:59:25.001Z</time></trkpt><trkpt lat="44.97303049489502" lon="12.222258654339287"><ele>-3.0</ele><time>2026-04-19T08:59:26.001Z</time></trkpt><trkpt lat="44.9728816435145" lon="12.22229350851247"><ele>-3.0</ele><time>2026-04-19T08:59:27.001Z</time></trkpt><trkpt lat="44.972730975993784" lon="12.222330209728716"><ele>-3.0</ele><time>2026-04-19T08:59:28.001Z</time></trkpt><trkpt lat="44.972581691846436" lon="12.222366414272724"><ele>-3.333333333333333</ele><time>2026-04-19T08:59:29.001Z</time></trkpt><trkpt lat="44.97242892078107" lon="12.222402036502327"><ele>-3.6666666666666665</ele><time>2026-04-19T08:59:30.001Z</time></trkpt><trkpt lat="44.97227944043544" lon="12.222436237390072"><ele>-4.0</ele><time>2026-04-19T08:59:31.001Z</time></trkpt><trkpt lat="44.9721284558988" lon="12.222472637898951"><ele>-4.0</ele><time>2026-04-19T08:59:32.001Z</time></trkpt><trkpt lat="44.97197823496412" lon="12.222507261643836"><ele>-4.0</ele><time>2026-04-19T08:59:33.001Z</time></trkpt><trkpt lat="44.97182915204792" lon="12.222540897881526"><ele>-4.0</ele><time>2026-04-19T08:59:34.001Z</time></trkpt><trkpt lat="44.97167086060175" lon="12.222577693448182"><ele>-3.6666666666666665</ele><time>2026-04-19T08:59:35.001Z</time></trkpt><trkpt lat="44.97151345598932" lon="12.222613801685362"><ele>-3.333333333333333</ele><time>2026-04-19T08:59:36Z</time></trkpt><trkpt lat="44.97134720518168" lon="12.22264868502734"><ele>-3.0</ele><time>2026-04-19T08:59:37Z</time></trkpt><trkpt lat="44.9711811763318" lon="12.222685054311965"><ele>-3.0</ele><time>2026-04-19T08:59:38Z</time></trkpt><trkpt lat="44.97101586049504" lon="12.222723645518894"><ele>-3.0</ele><time>2026-04-19T08:59:39Z</time></trkpt><trkpt lat="44.97084749664278" lon="12.222763150440176"><ele>-3.0</ele><time>2026-04-19T08:59:40Z</time></trkpt><trkpt lat="44.970682920518634" lon="12.222798297566243"><ele>-2.6666666666666665</ele><time>2026-04-19T08:59:41Z</time></trkpt><trkpt lat="44.970515311996905" lon="12.222832222709236"><ele>-2.333333333333333</ele><time>2026-04-19T08:59:42Z</time></trkpt><trkpt lat="44.970344233242166" lon="12.222865950817841"><ele>-2.0</ele><time>2026-04-19T08:59:43Z</time></trkpt><trkpt lat="44.970172579171795" lon="12.222904482493943"><ele>-2.6666666666666665</ele><time>2026-04-19T08:59:44Z</time></trkpt><trkpt lat="44.97000229998295" lon="12.222942565883"><ele>-3.333333333333333</ele><time>2026-04-19T08:59:45Z</time></trkpt><trkpt lat="44.969833648397284" lon="12.222981780942469"><ele>-4.0</ele><time>2026-04-19T08:59:46Z</time></trkpt><trkpt lat="44.96966052310821" lon="12.223023182930337"><ele>-4.0</ele><time>2026-04-19T08:59:47Z</time></trkpt><trkpt lat="44.96948795442022" lon="12.223065097805252"><ele>-4.0</ele><time>2026-04-19T08:59:48Z</time></trkpt><trkpt lat="44.969319353274045" lon="12.223105591704375"><ele>-4.0</ele><time>2026-04-19T08:59:49Z</time></trkpt><trkpt lat="44.96915676894215" lon="12.223144241074948"><ele>-4.0</ele><time>2026-04-19T08:59:50Z</time></trkpt><trkpt lat="44.96899691909581" lon="12.22318014320343"><ele>-4.0</ele><time>2026-04-19T08:59:51Z</time></trkpt><trkpt lat="44.968838500703306" lon="12.223217627800064"><ele>-4.0</ele><time>2026-04-19T08:59:52Z</time></trkpt><trkpt lat="44.968679630012325" lon="12.223254391610787"><ele>-4.0</ele><time>2026-04-19T08:59:53Z</time></trkpt><trkpt lat="44.96851624792403" lon="12.22328716558792"><ele>-4.0</ele><time>2026-04-19T08:59:54Z</time></trkpt><trkpt lat="44.96835191793489" lon="12.22332047372931"><ele>-4.0</ele><time>2026-04-19T08:59:55Z</time></trkpt><trkpt lat="44.96817881417662" lon="12.223357711647783"><ele>-4.333333333333333</ele><time>2026-04-19T08:59:56Z</time></trkpt><trkpt lat="44.968005565262644" lon="12.22339870685656"><ele>-4.666666666666667</ele><time>2026-04-19T08:59:57Z</time></trkpt><trkpt lat="44.96783416778951" lon="12.223438919086776"><ele>-5.0</ele><time>2026-04-19T08:59:58Z</time></trkpt><trkpt lat="44.96765903446199" lon="12.223477494529888"><ele>-5.333333333333334</ele><time>2026-04-19T08:59:59Z</time></trkpt><trkpt lat="44.96748761312517" lon="12.223516657001515"><ele>-5.666666666666667</ele><time>2026-04-19T09:00:00Z</time></trkpt><trkpt lat="44.96731109952583" lon="12.223556069442884"><ele>-6.0</ele><time>2026-04-19T09:00:01Z</time></trkpt><trkpt lat="44.96713919463903" lon="12.223597112611095"><ele>-6.0</ele><time>2026-04-19T09:00:02Z</time></trkpt><trkpt lat="44.966957875521814" lon="12.223639198298985"><ele>-6.0</ele><time>2026-04-19T09:00:03Z</time></trkpt><trkpt lat="44.96678042730135" lon="12.223681207102587"><ele>-6.0</ele><time>2026-04-19T09:00:04Z</time></trkpt><trkpt lat="44.96659889539101" lon="12.223722719847139"><ele>-5.333333333333333</ele><time>2026-04-19T09:00:05Z</time></trkpt><trkpt lat="44.96642059358102" lon="12.223763001933184"><ele>-4.666666666666666</ele><time>2026-04-19T09:00:06Z</time></trkpt><trkpt lat="44.966239296105755" lon="12.22380339244112"><ele>-4.0</ele><time>2026-04-19T09:00:07Z</time></trkpt><trkpt lat="44.966059868789614" lon="12.223843373826899"><ele>-4.0</ele><time>2026-04-19T09:00:08Z</time></trkpt><trkpt lat="44.96587937600124" lon="12.22388279100206"><ele>-4.0</ele><time>2026-04-19T09:00:09Z</time></trkpt><trkpt lat="44.96569959856302" lon="12.22391991775246"><ele>-4.0</ele><time>2026-04-19T09:00:10Z</time></trkpt><trkpt lat="44.96551986510941" lon="12.223959535436558"><ele>-4.0</ele><time>2026-04-19T09:00:11Z</time></trkpt><trkpt lat="44.96534116600774" lon="12.223999938042143"><ele>-4.0</ele><time>2026-04-19T09:00:12Z</time></trkpt><trkpt lat="44.965162618329394" lon="12.22404175381279"><ele>-4.0</ele><time>2026-04-19T09:00:13Z</time></trkpt><trkpt lat="44.964984218244744" lon="12.224082708221873"><ele>-4.333333333333333</ele><time>2026-04-19T09:00:14Z</time></trkpt><trkpt lat="44.964806868138524" lon="12.22412364578015"><ele>-4.666666666666667</ele><time>2026-04-19T09:00:15Z</time></trkpt><trkpt lat="44.96463183747687" lon="12.224165789413872"><ele>-5.0</ele><time>2026-04-19T09:00:16Z</time></trkpt><trkpt lat="44.96446197552602" lon="12.224203372208713"><ele>-5.0</ele><time>2026-04-19T09:00:17Z</time></trkpt><trkpt lat="44.96429263704059" lon="12.224243261021645"><ele>-5.0</ele><time>2026-04-19T09:00:18Z</time></trkpt><trkpt lat="44.96412025199659" lon="12.224283505333046"><ele>-5.0</ele><time>2026-04-19T09:00:19Z</time></trkpt><trkpt lat="44.96394725653942" lon="12.224322519886446"><ele>-4.666666666666667</ele><time>2026-04-19T09:00:20Z</time></trkpt><trkpt lat="44.96377250250117" lon="12.224362532245989"><ele>-4.333333333333333</ele><time>2026-04-19T09:00:21Z</time></trkpt><trkpt lat="44.96360095684831" lon="12.22440297962906"><ele>-4.0</ele><time>2026-04-19T09:00:22Z</time></trkpt><trkpt lat="44.96342796194174" lon="12.224443646979502"><ele>-4.0</ele><time>2026-04-19T09:00:23Z</time></trkpt><trkpt lat="44.963257263285655" lon="12.22448017943207"><ele>-4.0</ele><time>2026-04-19T09:00:24Z</time></trkpt><trkpt lat="44.96308671420565" lon="12.224517841102987"><ele>-4.0</ele><time>2026-04-19T09:00:25Z</time></trkpt><trkpt lat="44.962915429183894" lon="12.224556263376037"><ele>-4.0</ele><time>2026-04-19T09:00:26Z</time></trkpt><trkpt lat="44.96274624747632" lon="12.224594224666054"><ele>-4.0</ele><time>2026-04-19T09:00:27Z</time></trkpt><trkpt lat="44.96257465102798" lon="12.224632014679552"><ele>-4.0</ele><time>2026-04-19T09:00:28Z</time></trkpt><trkpt lat="44.96240311195024" lon="12.224671880981054"><ele>-4.0</ele><time>2026-04-19T09:00:29Z</time></trkpt><trkpt lat="44.96222942641612" lon="12.224711193325021"><ele>-4.0</ele><time>2026-04-19T09:00:30Z</time></trkpt><trkpt lat="44.96205247426616" lon="12.224750587128483"><ele>-4.0</ele><time>2026-04-19T09:00:31Z</time></trkpt><trkpt lat="44.96187763861188" lon="12.224789680805765"><ele>-4.0</ele><time>2026-04-19T09:00:32Z</time></trkpt><trkpt lat="44.96170487138459" lon="12.224826688807314"><ele>-4.0</ele><time>2026-04-19T09:00:33Z</time></trkpt><trkpt lat="44.96153319525134" lon="12.224866464860662"><ele>-4.0</ele><time>2026-04-19T09:00:34Z</time></trkpt><trkpt lat="44.96136181387706" lon="12.22490728991005"><ele>-4.0</ele><time>2026-04-19T09:00:35Z</time></trkpt><trkpt lat="44.96119057177663" lon="12.224946569780466"><ele>-4.0</ele><time>2026-04-19T09:00:36Z</time></trkpt><trkpt lat="44.96102339708036" lon="12.224983333470075"><ele>-4.0</ele><time>2026-04-19T09:00:37Z</time></trkpt><trkpt lat="44.960867553599215" lon="12.2250168230586"><ele>-4.0</ele><time>2026-04-19T09:00:38.001Z</time></trkpt><trkpt lat="44.96071557714839" lon="12.22504863027226"><ele>-4.0</ele><time>2026-04-19T09:00:39.001Z</time></trkpt><trkpt lat="44.960556946378546" lon="12.225087109013513"><ele>-4.0</ele><time>2026-04-19T09:00:40.001Z</time></trkpt><trkpt lat="44.96039801862584" lon="12.225126901015171"><ele>-4.0</ele><time>2026-04-19T09:00:41.001Z</time></trkpt><trkpt lat="44.96023459415564" lon="12.225166474855586"><ele>-4.0</ele><time>2026-04-19T09:00:42.001Z</time></trkpt><trkpt lat="44.96007098360057" lon="12.225203418212649"><ele>-4.0</ele><time>2026-04-19T09:00:43.001Z</time></trkpt><trkpt lat="44.95990450860407" lon="12.22524210934235"><ele>-4.0</ele><time>2026-04-19T09:00:44.001Z</time></trkpt><trkpt lat="44.95973525996768" lon="12.225280033028758"><ele>-4.0</ele><time>2026-04-19T09:00:45.001Z</time></trkpt><trkpt lat="44.959564070583596" lon="12.225317429924715"><ele>-4.0</ele><time>2026-04-19T09:00:46.001Z</time></trkpt><trkpt lat="44.959389764028906" lon="12.225356028812053"><ele>-4.0</ele><time>2026-04-19T09:00:47.001Z</time></trkpt><trkpt lat="44.9592136713858" lon="12.225393824279429"><ele>-4.0</ele><time>2026-04-19T09:00:48.001Z</time></trkpt><trkpt lat="44.959037350181376" lon="12.225434878045336"><ele>-4.0</ele><time>2026-04-19T09:00:49.001Z</time></trkpt><trkpt lat="44.958857373634125" lon="12.225476750762962"><ele>-3.6666666666666665</ele><time>2026-04-19T09:00:50.001Z</time></trkpt><trkpt lat="44.95868443564838" lon="12.225520239846459"><ele>-3.333333333333333</ele><time>2026-04-19T09:00:51.001Z</time></trkpt><trkpt lat="44.95850905529866" lon="12.225564129861878"><ele>-3.0</ele><time>2026-04-19T09:00:52.001Z</time></trkpt><trkpt lat="44.95833398834667" lon="12.225607135862594"><ele>-2.3333333333333335</ele><time>2026-04-19T09:00:53.001Z</time></trkpt><trkpt lat="44.95815391925773" lon="12.225648111255126"><ele>-1.6666666666666665</ele><time>2026-04-19T09:00:54.001Z</time></trkpt><trkpt lat="44.95798341969346" lon="12.22568924605736"><ele>-1.0</ele><time>2026-04-19T09:00:55.001Z</time></trkpt><trkpt lat="44.95780835726836" lon="12.22572377444829"><ele>-1.0</ele><time>2026-04-19T09:00:56.001Z</time></trkpt><trkpt lat="44.957632760148485" lon="12.225762060873183"><ele>-1.0</ele><time>2026-04-19T09:00:57.001Z</time></trkpt><trkpt lat="44.95745397690206" lon="12.225802028293527"><ele>-1.0</ele><time>2026-04-19T09:00:58.001Z</time></trkpt><trkpt lat="44.95727127266415" lon="12.225841885386476"><ele>-1.0</ele><time>2026-04-19T09:00:59.001Z</time></trkpt><trkpt lat="44.957087096299055" lon="12.225882255222665"><ele>-1.0</ele><time>2026-04-19T09:01:00.001Z</time></trkpt><trkpt lat="44.956906924821894" lon="12.225923525824198"><ele>-1.0</ele><time>2026-04-19T09:01:01.001Z</time></trkpt><trkpt lat="44.95672782264405" lon="12.225964565002569"><ele>-2.0</ele><time>2026-04-19T09:01:02.001Z</time></trkpt><trkpt lat="44.9565486853229" lon="12.22600661645555"><ele>-3.0</ele><time>2026-04-19T09:01:03.001Z</time></trkpt><trkpt lat="44.95636907546331" lon="12.226048585436711"><ele>-4.0</ele><time>2026-04-19T09:01:04.001Z</time></trkpt><trkpt lat="44.95618819792626" lon="12.22608981746003"><ele>-4.0</ele><time>2026-04-19T09:01:05.001Z</time></trkpt><trkpt lat="44.956008597266006" lon="12.226131181808357"><ele>-4.0</ele><time>2026-04-19T09:01:06.001Z</time></trkpt><trkpt lat="44.95583260798891" lon="12.226172241448738"><ele>-4.0</ele><time>2026-04-19T09:01:07.001Z</time></trkpt><trkpt lat="44.95565910161988" lon="12.226211623463787"><ele>-3.6666666666666665</ele><time>2026-04-19T09:01:08.001Z</time></trkpt><trkpt lat="44.9554847039829" lon="12.226249881040275"><ele>-3.333333333333333</ele><time>2026-04-19T09:01:09.001Z</time></trkpt><trkpt lat="44.9553113532551" lon="12.226288827423584"><ele>-3.0</ele><time>2026-04-19T09:01:10.001Z</time></trkpt><trkpt lat="44.955137581523104" lon="12.226328633756156"><ele>-3.333333333333333</ele><time>2026-04-19T09:01:11.001Z</time></trkpt><trkpt lat="44.95496066015624" lon="12.226370468797505"><ele>-3.6666666666666665</ele><time>2026-04-19T09:01:12.001Z</time></trkpt><trkpt lat="44.95478116694708" lon="12.226413773931759"><ele>-4.0</ele><time>2026-04-19T09:01:13.001Z</time></trkpt><trkpt lat="44.95460106817209" lon="12.226457726205748"><ele>-4.0</ele><time>2026-04-19T09:01:14.001Z</time></trkpt><trkpt lat="44.95441785628638" lon="12.22650065214025"><ele>-4.0</ele><time>2026-04-19T09:01:15.001Z</time></trkpt><trkpt lat="44.954239734233916" lon="12.226541314088363"><ele>-4.0</ele><time>2026-04-19T09:01:16.001Z</time></trkpt><trkpt lat="44.95406450286831" lon="12.22658010823739"><ele>-3.6666666666666665</ele><time>2026-04-19T09:01:17.001Z</time></trkpt><trkpt lat="44.953898115590995" lon="12.22661747033833"><ele>-3.333333333333333</ele><time>2026-04-19T09:01:18.001Z</time></trkpt><trkpt lat="44.95373713114716" lon="12.226651834002805"><ele>-3.0</ele><time>2026-04-19T09:01:19.001Z</time></trkpt><trkpt lat="44.95357436854708" lon="12.22668619527294"><ele>-3.0</ele><time>2026-04-19T09:01:20.001Z</time></trkpt><trkpt lat="44.95341172451385" lon="12.226723364315653"><ele>-3.0</ele><time>2026-04-19T09:01:21.001Z</time></trkpt><trkpt lat="44.95324682723306" lon="12.226761917693649"><ele>-3.0</ele><time>2026-04-19T09:01:22.001Z</time></trkpt><trkpt lat="44.95307936416109" lon="12.226801892409416"><ele>-3.0</ele><time>2026-04-19T09:01:23.001Z</time></trkpt><trkpt lat="44.95291540982875" lon="12.226840642760484"><ele>-3.0</ele><time>2026-04-19T09:01:24.001Z</time></trkpt><trkpt lat="44.952746837736726" lon="12.226878623485332"><ele>-3.0</ele><time>2026-04-19T09:01:25.001Z</time></trkpt><trkpt lat="44.9525781588155" lon="12.226914570460995"><ele>-2.3333333333333335</ele><time>2026-04-19T09:01:26.001Z</time></trkpt><trkpt lat="44.952405593348736" lon="12.226950410032483"><ele>-1.6666666666666665</ele><time>2026-04-19T09:01:27.001Z</time></trkpt><trkpt lat="44.95223159794276" lon="12.22698553933591"><ele>-1.0</ele><time>2026-04-19T09:01:28.001Z</time></trkpt><trkpt lat="44.952053868890836" lon="12.227020429368094"><ele>-1.0</ele><time>2026-04-19T09:01:29.001Z</time></trkpt><trkpt lat="44.9518734451776" lon="12.227054936344802"><ele>-1.0</ele><time>2026-04-19T09:01:30.001Z</time></trkpt><trkpt lat="44.95169171630689" lon="12.227086328508621"><ele>-1.0</ele><time>2026-04-19T09:01:31.001Z</time></trkpt><trkpt lat="44.95151199209609" lon="12.227111336816048"><ele>-1.0</ele><time>2026-04-19T09:01:32.001Z</time></trkpt><trkpt lat="44.95132851426491" lon="12.227132308278836"><ele>-1.0</ele><time>2026-04-19T09:01:33.001Z</time></trkpt><trkpt lat="44.951146244797556" lon="12.227147478827586"><ele>-1.0</ele><time>2026-04-19T09:01:34.001Z</time></trkpt><trkpt lat="44.95096240449273" lon="12.227151346833907"><ele>-2.0</ele><time>2026-04-19T09:01:35.001Z</time></trkpt><trkpt lat="44.950779065911355" lon="12.2271518689101"><ele>-3.0</ele><time>2026-04-19T09:01:36.001Z</time></trkpt><trkpt lat="44.950595474696144" lon="12.227150969145578"><ele>-4.0</ele><time>2026-04-19T09:01:37.001Z</time></trkpt><trkpt lat="44.95041166252092" lon="12.227144617330838"><ele>-4.0</ele><time>2026-04-19T09:01:38.001Z</time></trkpt><trkpt lat="44.95022909569422" lon="12.227136950660968"><ele>-4.0</ele><time>2026-04-19T09:01:39.001Z</time></trkpt><trkpt lat="44.95004465643339" lon="12.227129829376617"><ele>-4.0</ele><time>2026-04-19T09:01:40.001Z</time></trkpt><trkpt lat="44.94985917314987" lon="12.227122136640908"><ele>-3.6666666666666665</ele><time>2026-04-19T09:01:41.001Z</time></trkpt><trkpt lat="44.949673017165345" lon="12.227113905626892"><ele>-3.333333333333333</ele><time>2026-04-19T09:01:42Z</time></trkpt><trkpt lat="44.94948655906303" lon="12.227106517418296"><ele>-3.0</ele><time>2026-04-19T09:01:43Z</time></trkpt><trkpt lat="44.949299686352404" lon="12.227099686140285"><ele>-3.0</ele><time>2026-04-19T09:01:44Z</time></trkpt><trkpt lat="44.94910861428233" lon="12.227091082750924"><ele>-3.0</ele><time>2026-04-19T09:01:45Z</time></trkpt><trkpt lat="44.94891521567973" lon="12.227082818367474"><ele>-3.0</ele><time>2026-04-19T09:01:46Z</time></trkpt><trkpt lat="44.94872108681167" lon="12.227075264172575"><ele>-3.0</ele><time>2026-04-19T09:01:47Z</time></trkpt><trkpt lat="44.948525413179425" lon="12.227067724021362"><ele>-3.0</ele><time>2026-04-19T09:01:48Z</time></trkpt><trkpt lat="44.948326247276896" lon="12.227060477675206"><ele>-3.0</ele><time>2026-04-19T09:01:49Z</time></trkpt><trkpt lat="44.948132175835084" lon="12.22705490333083"><ele>-3.0</ele><time>2026-04-19T09:01:50Z</time></trkpt><trkpt lat="44.94794623874358" lon="12.22704948735115"><ele>-3.0</ele><time>2026-04-19T09:01:51Z</time></trkpt><trkpt lat="44.94777002640677" lon="12.227042879298304"><ele>-3.0</ele><time>2026-04-19T09:01:52Z</time></trkpt><trkpt lat="44.94759539760999" lon="12.227035876280652"><ele>-3.333333333333333</ele><time>2026-04-19T09:01:53Z</time></trkpt><trkpt lat="44.94741849428481" lon="12.227032948381343"><ele>-3.6666666666666665</ele><time>2026-04-19T09:01:54Z</time></trkpt><trkpt lat="44.9472359715617" lon="12.227029271975237"><ele>-4.0</ele><time>2026-04-19T09:01:55Z</time></trkpt><trkpt lat="44.94705155539596" lon="12.227025450705005"><ele>-4.0</ele><time>2026-04-19T09:01:56Z</time></trkpt><trkpt lat="44.946865269615785" lon="12.227019212887974"><ele>-4.0</ele><time>2026-04-19T09:01:57Z</time></trkpt><trkpt lat="44.946678838181384" lon="12.227014148674343"><ele>-4.0</ele><time>2026-04-19T09:01:58Z</time></trkpt><trkpt lat="44.946493803087634" lon="12.227009653892814"><ele>-3.6666666666666665</ele><time>2026-04-19T09:01:59Z</time></trkpt><trkpt lat="44.94630698762089" lon="12.227003134219112"><ele>-3.333333333333333</ele><time>2026-04-19T09:02:00Z</time></trkpt><trkpt lat="44.94611903410208" lon="12.22699579172476"><ele>-3.0</ele><time>2026-04-19T09:02:01Z</time></trkpt><trkpt lat="44.94593036209798" lon="12.226987740083715"><ele>-3.0</ele><time>2026-04-19T09:02:02Z</time></trkpt><trkpt lat="44.945737843257454" lon="12.226980353252893"><ele>-3.0</ele><time>2026-04-19T09:02:03Z</time></trkpt><trkpt lat="44.94554556059658" lon="12.226973382785308"><ele>-3.0</ele><time>2026-04-19T09:02:04Z</time></trkpt><trkpt lat="44.94535920688929" lon="12.226966141052989"><ele>-3.0</ele><time>2026-04-19T09:02:05Z</time></trkpt><trkpt lat="44.94517621444153" lon="12.226959981222684"><ele>-3.0</ele><time>2026-04-19T09:02:06Z</time></trkpt><trkpt lat="44.94499419840407" lon="12.226953828801127"><ele>-3.0</ele><time>2026-04-19T09:02:07Z</time></trkpt><trkpt lat="44.94481423563523" lon="12.226948506945586"><ele>-3.0</ele><time>2026-04-19T09:02:08Z</time></trkpt><trkpt lat="44.94463622234224" lon="12.226944050535844"><ele>-3.0</ele><time>2026-04-19T09:02:09Z</time></trkpt><trkpt lat="44.94445561571533" lon="12.226939855420168"><ele>-3.0</ele><time>2026-04-19T09:02:10Z</time></trkpt><trkpt lat="44.94427186351903" lon="12.226933330818314"><ele>-3.0</ele><time>2026-04-19T09:02:11Z</time></trkpt><trkpt lat="44.944083513713935" lon="12.226926280164681"><ele>-3.0</ele><time>2026-04-19T09:02:12Z</time></trkpt><trkpt lat="44.94389196419785" lon="12.22691947658702"><ele>-3.0</ele><time>2026-04-19T09:02:13Z</time></trkpt><trkpt lat="44.94369772391495" lon="12.226912235133305"><ele>-3.0</ele><time>2026-04-19T09:02:14Z</time></trkpt><trkpt lat="44.943503904045166" lon="12.226904089642995"><ele>-3.0</ele><time>2026-04-19T09:02:15Z</time></trkpt><trkpt lat="44.94331384916758" lon="12.226894171413624"><ele>-3.0</ele><time>2026-04-19T09:02:16Z</time></trkpt><trkpt lat="44.94312229663815" lon="12.22688714605115"><ele>-3.0</ele><time>2026-04-19T09:02:17Z</time></trkpt><trkpt lat="44.94293376311179" lon="12.226883162702622"><ele>-3.0</ele><time>2026-04-19T09:02:18Z</time></trkpt><trkpt lat="44.9427457877749" lon="12.226879487910962"><ele>-3.0</ele><time>2026-04-19T09:02:19Z</time></trkpt><trkpt lat="44.94255739911287" lon="12.226876198703167"><ele>-2.3333333333333335</ele><time>2026-04-19T09:02:20Z</time></trkpt><trkpt lat="44.942370179532055" lon="12.226869224733852"><ele>-1.6666666666666665</ele><time>2026-04-19T09:02:21.001Z</time></trkpt><trkpt lat="44.94218382630692" lon="12.226861946037953"><ele>-1.0</ele><time>2026-04-19T09:02:22.001Z</time></trkpt><trkpt lat="44.942000663738355" lon="12.226854274128057"><ele>-1.0</ele><time>2026-04-19T09:02:23.001Z</time></trkpt><trkpt lat="44.94181909094296" lon="12.226845684976364"><ele>-1.0</ele><time>2026-04-19T09:02:24.001Z</time></trkpt><trkpt lat="44.94163918053217" lon="12.226838614403585"><ele>-1.0</ele><time>2026-04-19T09:02:25.001Z</time></trkpt><trkpt lat="44.941459680624405" lon="12.226834303536599"><ele>-1.0</ele><time>2026-04-19T09:02:26.001Z</time></trkpt><trkpt lat="44.9412814550651" lon="12.226831346210599"><ele>-1.0</ele><time>2026-04-19T09:02:27.001Z</time></trkpt><trkpt lat="44.94111538229749" lon="12.226828259776061"><ele>-1.0</ele><time>2026-04-19T09:02:28.001Z</time></trkpt><trkpt lat="44.940955329854525" lon="12.226830769338969"><ele>-1.5</ele><time>2026-04-19T09:02:29.001Z</time></trkpt><trkpt lat="44.94080616338284" lon="12.226840829836522"><ele>-2.0</ele><time>2026-04-19T09:02:30.001Z</time></trkpt><trkpt lat="44.940663320418096" lon="12.226869664618611"><ele>-2.5</ele><time>2026-04-19T09:02:31.001Z</time></trkpt><trkpt lat="44.940530276206275" lon="12.226926247439941"><ele>-3.0</ele><time>2026-04-19T09:02:32.001Z</time></trkpt><trkpt lat="44.94041304807643" lon="12.227000109199771"><ele>-3.0</ele><time>2026-04-19T09:02:33.001Z</time></trkpt><trkpt lat="44.94030797928798" lon="12.227080445804342"><ele>-3.0</ele><time>2026-04-19T09:02:34.001Z</time></trkpt><trkpt lat="44.9402115767232" lon="12.22716301439231"><ele>-3.0</ele><time>2026-04-19T09:02:35.001Z</time></trkpt><trkpt lat="44.94011879649776" lon="12.227234317108532"><ele>-3.0</ele><time>2026-04-19T09:02:36.001Z</time></trkpt><trkpt lat="44.94002148060959" lon="12.22727728667045"><ele>-3.0</ele><time>2026-04-19T09:02:37.001Z</time></trkpt><trkpt lat="44.93992374683938" lon="12.227267860390157"><ele>-3.0</ele><time>2026-04-19T09:02:38.001Z</time></trkpt><trkpt lat="44.939828717165035" lon="12.227217741396247"><ele>-3.0</ele><time>2026-04-19T09:02:39.001Z</time></trkpt><trkpt lat="44.93974025764018" lon="12.227185964355765"><ele>-3.0</ele><time>2026-04-19T09:02:40.001Z</time></trkpt><trkpt lat="44.93965449189831" lon="12.227195974557802"><ele>-3.0</ele><time>2026-04-19T09:02:41.001Z</time></trkpt><trkpt lat="44.93958028095302" lon="12.227262985533061"><ele>-3.0</ele><time>2026-04-19T09:02:42.001Z</time></trkpt><trkpt lat="44.93952518178128" lon="12.227359764843369"><ele>-3.2</ele><time>2026-04-19T09:02:43.001Z</time></trkpt><trkpt lat="44.93949677150583" lon="12.227486257490396"><ele>-3.4</ele><time>2026-04-19T09:02:44.001Z</time></trkpt><trkpt lat="44.93950983181638" lon="12.227612397025304"><ele>-3.6000000000000005</ele><time>2026-04-19T09:02:45.001Z</time></trkpt><trkpt lat="44.93942736012693" lon="12.227729614344053"><ele>-3.8000000000000003</ele><time>2026-04-19T09:02:46.001Z</time></trkpt><trkpt lat="44.93936384801233" lon="12.227833849386847"><ele>-4.0</ele><time>2026-04-19T09:02:47.001Z</time></trkpt><trkpt lat="44.93930056834004" lon="12.227932740800732"><ele>-4.0</ele><time>2026-04-19T09:02:48.001Z</time></trkpt><trkpt lat="44.93924170589677" lon="12.228040444406655"><ele>-4.0</ele><time>2026-04-19T09:02:49.001Z</time></trkpt><trkpt lat="44.939196777493166" lon="12.228163760062648"><ele>-4.0</ele><time>2026-04-19T09:02:50.001Z</time></trkpt><trkpt lat="44.939178875786794" lon="12.228308239958393"><ele>-4.0</ele><time>2026-04-19T09:02:51.001Z</time></trkpt><trkpt lat="44.9391817645587" lon="12.228462099050246"><ele>-4.0</ele><time>2026-04-19T09:02:52.001Z</time></trkpt><trkpt lat="44.93920872151402" lon="12.228613136110251"><ele>-4.0</ele><time>2026-04-19T09:02:53.001Z</time></trkpt><trkpt lat="44.93926642567073" lon="12.22874994618864"><ele>-4.0</ele><time>2026-04-19T09:02:54.001Z</time></trkpt><trkpt lat="44.93934794680445" lon="12.228866786831269"><ele>-4.0</ele><time>2026-04-19T09:02:55.001Z</time></trkpt><trkpt lat="44.93943788476956" lon="12.228976743120967"><ele>-4.0</ele><time>2026-04-19T09:02:56.001Z</time></trkpt><trkpt lat="44.939533775446435" lon="12.229088683415874"><ele>-4.25</ele><time>2026-04-19T09:02:57.001Z</time></trkpt><trkpt lat="44.9396357651792" lon="12.229201921264615"><ele>-4.5</ele><time>2026-04-19T09:02:58.001Z</time></trkpt><trkpt lat="44.939737769043134" lon="12.229324401735552"><ele>-4.75</ele><time>2026-04-19T09:02:59.001Z</time></trkpt><trkpt lat="44.939843423986" lon="12.229450390125496"><ele>-5.0</ele><time>2026-04-19T09:03:00.001Z</time></trkpt><trkpt lat="44.93995697367144" lon="12.229579109121426"><ele>-5.0</ele><time>2026-04-19T09:03:01.001Z</time></trkpt><trkpt lat="44.94008151955914" lon="12.229722840997672"><ele>-5.0</ele><time>2026-04-19T09:03:02.001Z</time></trkpt><trkpt lat="44.94022130669525" lon="12.229887256708725"><ele>-5.0</ele><time>2026-04-19T09:03:03.001Z</time></trkpt><trkpt lat="44.940359334782066" lon="12.23004855670722"><ele>-5.0</ele><time>2026-04-19T09:03:04.001Z</time></trkpt><trkpt lat="44.940504393439525" lon="12.230221312368279"><ele>-5.0</ele><time>2026-04-19T09:03:05.001Z</time></trkpt><trkpt lat="44.9406477775228" lon="12.230390023326773"><ele>-5.0</ele><time>2026-04-19T09:03:06.001Z</time></trkpt><trkpt lat="44.940794886596684" lon="12.230561003679467"><ele>-4.666666666666667</ele><time>2026-04-19T09:03:07.001Z</time></trkpt><trkpt lat="44.94094510164542" lon="12.230733134554002"><ele>-4.333333333333333</ele><time>2026-04-19T09:03:08.001Z</time></trkpt><trkpt lat="44.94109499977079" lon="12.23090961189921"><ele>-4.0</ele><time>2026-04-19T09:03:09.001Z</time></trkpt><trkpt lat="44.94124756472864" lon="12.231089323540813"><ele>-4.0</ele><time>2026-04-19T09:03:10.001Z</time></trkpt><trkpt lat="44.94140218742299" lon="12.23126817063218"><ele>-4.0</ele><time>2026-04-19T09:03:11.001Z</time></trkpt><trkpt lat="44.94154998457828" lon="12.231442049179046"><ele>-4.0</ele><time>2026-04-19T09:03:12.001Z</time></trkpt><trkpt lat="44.94168887684692" lon="12.231603242437728"><ele>-4.0</ele><time>2026-04-19T09:03:13.001Z</time></trkpt><trkpt lat="44.94182523911306" lon="12.23175997901593"><ele>-4.0</ele><time>2026-04-19T09:03:14.001Z</time></trkpt><trkpt lat="44.9419645721065" lon="12.231918911302607"><ele>-4.0</ele><time>2026-04-19T09:03:15.001Z</time></trkpt><trkpt lat="44.94210322914949" lon="12.232076517199667"><ele>-4.0</ele><time>2026-04-19T09:03:16.001Z</time></trkpt><trkpt lat="44.94224404455514" lon="12.23223957019854"><ele>-4.0</ele><time>2026-04-19T09:03:17.001Z</time></trkpt><trkpt lat="44.94238666247482" lon="12.232411045581525"><ele>-4.0</ele><time>2026-04-19T09:03:18.001Z</time></trkpt><trkpt lat="44.94252737128551" lon="12.232591742706159"><ele>-4.0</ele><time>2026-04-19T09:03:19.001Z</time></trkpt><trkpt lat="44.94265212824361" lon="12.232781915538123"><ele>-4.0</ele><time>2026-04-19T09:03:20.001Z</time></trkpt><trkpt lat="44.9427536871021" lon="12.232988730898263"><ele>-4.0</ele><time>2026-04-19T09:03:21.001Z</time></trkpt><trkpt lat="44.94284295805415" lon="12.233211174415187"><ele>-4.0</ele><time>2026-04-19T09:03:22.001Z</time></trkpt><trkpt lat="44.94292193104063" lon="12.233447294144291"><ele>-4.0</ele><time>2026-04-19T09:03:23.001Z</time></trkpt><trkpt lat="44.94299113282967" lon="12.233693412392414"><ele>-4.0</ele><time>2026-04-19T09:03:24.001Z</time></trkpt><trkpt lat="44.94304827717531" lon="12.233949343351334"><ele>-4.0</ele><time>2026-04-19T09:03:25.001Z</time></trkpt><trkpt lat="44.94310047649104" lon="12.234224249384832"><ele>-4.0</ele><time>2026-04-19T09:03:26.001Z</time></trkpt><trkpt lat="44.94314881604173" lon="12.234517385086587"><ele>-4.0</ele><time>2026-04-19T09:03:27.001Z</time></trkpt><trkpt lat="44.943195506108474" lon="12.234821018044858"><ele>-4.0</ele><time>2026-04-19T09:03:28.001Z</time></trkpt><trkpt lat="44.94324459415304" lon="12.235129592929113"><ele>-4.0</ele><time>2026-04-19T09:03:29.001Z</time></trkpt><trkpt lat="44.94329566103144" lon="12.23543294735648"><ele>-4.0</ele><time>2026-04-19T09:03:30.001Z</time></trkpt><trkpt lat="44.943341435821026" lon="12.235718108991078"><ele>-4.333333333333333</ele><time>2026-04-19T09:03:31.001Z</time></trkpt><trkpt lat="44.9433858241339" lon="12.236002784355064"><ele>-4.666666666666667</ele><time>2026-04-19T09:03:32.001Z</time></trkpt><trkpt lat="44.94343163461761" lon="12.236290604627289"><ele>-5.0</ele><time>2026-04-19T09:03:33.001Z</time></trkpt><trkpt lat="44.94347881823908" lon="12.23658039738742"><ele>-5.0</ele><time>2026-04-19T09:03:34.001Z</time></trkpt><trkpt lat="44.9435263877813" lon="12.236870305528578"><ele>-5.0</ele><time>2026-04-19T09:03:35.001Z</time></trkpt><trkpt lat="44.94357403067153" lon="12.237156337872413"><ele>-5.0</ele><time>2026-04-19T09:03:36.001Z</time></trkpt><trkpt lat="44.9436204232239" lon="12.237441212715034"><ele>-5.0</ele><time>2026-04-19T09:03:37.001Z</time></trkpt><trkpt lat="44.943666248825366" lon="12.237727275846158"><ele>-5.0</ele><time>2026-04-19T09:03:38.001Z</time></trkpt><trkpt lat="44.94371090875001" lon="12.238013359922453"><ele>-5.0</ele><time>2026-04-19T09:03:39.001Z</time></trkpt><trkpt lat="44.94375563259979" lon="12.238296348049806"><ele>-5.0</ele><time>2026-04-19T09:03:40.001Z</time></trkpt><trkpt lat="44.94379997644687" lon="12.238574045389171"><ele>-5.0</ele><time>2026-04-19T09:03:41.001Z</time></trkpt><trkpt lat="44.94384578460847" lon="12.238852221087566"><ele>-5.0</ele><time>2026-04-19T09:03:42.001Z</time></trkpt><trkpt lat="44.943890899236806" lon="12.239130522807693"><ele>-4.666666666666667</ele><time>2026-04-19T09:03:43.001Z</time></trkpt><trkpt lat="44.943935734976876" lon="12.239409749618991"><ele>-4.333333333333333</ele><time>2026-04-19T09:03:44.001Z</time></trkpt><trkpt lat="44.943980196603604" lon="12.239686133277134"><ele>-4.0</ele><time>2026-04-19T09:03:45.001Z</time></trkpt><trkpt lat="44.94402548559436" lon="12.239957026306175"><ele>-3.6666666666666665</ele><time>2026-04-19T09:03:46.001Z</time></trkpt><trkpt lat="44.94407134245909" lon="12.240228139293057"><ele>-3.333333333333333</ele><time>2026-04-19T09:03:47.001Z</time></trkpt><trkpt lat="44.94411500851265" lon="12.240493347990173"><ele>-3.0</ele><time>2026-04-19T09:03:48Z</time></trkpt><trkpt lat="44.94415638779968" lon="12.240755258130314"><ele>-3.666666666666667</ele><time>2026-04-19T09:03:49Z</time></trkpt><trkpt lat="44.944196947560656" lon="12.241012998793803"><ele>-4.333333333333334</ele><time>2026-04-19T09:03:50Z</time></trkpt><trkpt lat="44.94425440107011" lon="12.24136135310589"><ele>-5.0</ele><time>2026-04-19T09:03:51Z</time></trkpt><trkpt lat="44.94429803412375" lon="12.241639149659921"><ele>-5.0</ele><time>2026-04-19T09:03:52Z</time></trkpt><trkpt lat="44.94434432884597" lon="12.241918569985865"><ele>-5.0</ele><time>2026-04-19T09:03:53Z</time></trkpt><trkpt lat="44.94439153723205" lon="12.242199089154894"><ele>-5.0</ele><time>2026-04-19T09:03:54Z</time></trkpt><trkpt lat="44.94443806082056" lon="12.242477729724666"><ele>-5.0</ele><time>2026-04-19T09:03:55Z</time></trkpt><trkpt lat="44.94448566473895" lon="12.242776334641599"><ele>-5.0</ele><time>2026-04-19T09:03:56Z</time></trkpt><trkpt lat="44.944537584010625" lon="12.243085492131145"><ele>-5.0</ele><time>2026-04-19T09:03:57Z</time></trkpt><trkpt lat="44.944582471012616" lon="12.243366817268278"><ele>-5.0</ele><time>2026-04-19T09:03:58Z</time></trkpt><trkpt lat="44.94462881624271" lon="12.243651518470687"><ele>-5.0</ele><time>2026-04-19T09:03:59Z</time></trkpt><trkpt lat="44.94467405186703" lon="12.24393485302081"><ele>-5.0</ele><time>2026-04-19T09:04:00Z</time></trkpt><trkpt lat="44.944719802046215" lon="12.244215319271149"><ele>-5.0</ele><time>2026-04-19T09:04:01Z</time></trkpt><trkpt lat="44.94476514754075" lon="12.244496675293634"><ele>-5.0</ele><time>2026-04-19T09:04:02Z</time></trkpt><trkpt lat="44.9448135169139" lon="12.244780596205763"><ele>-5.0</ele><time>2026-04-19T09:04:03Z</time></trkpt><trkpt lat="44.94485888009311" lon="12.245061149921936"><ele>-5.0</ele><time>2026-04-19T09:04:04Z</time></trkpt><trkpt lat="44.944905341569665" lon="12.245345560608126"><ele>-5.0</ele><time>2026-04-19T09:04:05Z</time></trkpt><trkpt lat="44.9449530366987" lon="12.24562885728453"><ele>-5.0</ele><time>2026-04-19T09:04:06Z</time></trkpt><trkpt lat="44.94499871583782" lon="12.245907439622322"><ele>-5.0</ele><time>2026-04-19T09:04:07Z</time></trkpt><trkpt lat="44.94504295530802" lon="12.246180164215353"><ele>-5.0</ele><time>2026-04-19T09:04:08.001Z</time></trkpt><trkpt lat="44.94508732966346" lon="12.24645089673488"><ele>-5.0</ele><time>2026-04-19T09:04:09.001Z</time></trkpt><trkpt lat="44.945131521264756" lon="12.246726647714961"><ele>-5.0</ele><time>2026-04-19T09:04:10.001Z</time></trkpt><trkpt lat="44.945177521084815" lon="12.247010081826208"><ele>-5.0</ele><time>2026-04-19T09:04:11.001Z</time></trkpt><trkpt lat="44.94522478178458" lon="12.247296109685744"><ele>-5.0</ele><time>2026-04-19T09:04:12.001Z</time></trkpt><trkpt lat="44.94527110562408" lon="12.247588054152697"><ele>-5.0</ele><time>2026-04-19T09:04:13.001Z</time></trkpt><trkpt lat="44.94531772278307" lon="12.247876476454572"><ele>-5.0</ele><time>2026-04-19T09:04:14.001Z</time></trkpt><trkpt lat="44.94536413273127" lon="12.248164679986894"><ele>-5.0</ele><time>2026-04-19T09:04:15.001Z</time></trkpt><trkpt lat="44.94541241500689" lon="12.248454775389387"><ele>-5.0</ele><time>2026-04-19T09:04:16.001Z</time></trkpt><trkpt lat="44.94546157894394" lon="12.248746755533562"><ele>-5.0</ele><time>2026-04-19T09:04:17.001Z</time></trkpt><trkpt lat="44.94550941124028" lon="12.249040750245596"><ele>-5.0</ele><time>2026-04-19T09:04:18.001Z</time></trkpt><trkpt lat="44.94555514455312" lon="12.249329121202381"><ele>-5.0</ele><time>2026-04-19T09:04:19.001Z</time></trkpt><trkpt lat="44.945599327183565" lon="12.249609377751842"><ele>-5.0</ele><time>2026-04-19T09:04:20.001Z</time></trkpt><trkpt lat="44.94564616908105" lon="12.249889322623803"><ele>-5.0</ele><time>2026-04-19T09:04:21.001Z</time></trkpt><trkpt lat="44.94569278846909" lon="12.25017323031614"><ele>-4.666666666666667</ele><time>2026-04-19T09:04:22.001Z</time></trkpt><trkpt lat="44.94573818420651" lon="12.250457648483184"><ele>-4.333333333333333</ele><time>2026-04-19T09:04:23.001Z</time></trkpt><trkpt lat="44.945785631452814" lon="12.250742555164356"><ele>-4.0</ele><time>2026-04-19T09:04:24.001Z</time></trkpt><trkpt lat="44.94583523599057" lon="12.251028033170105"><ele>-4.0</ele><time>2026-04-19T09:04:25.001Z</time></trkpt><trkpt lat="44.94588338636709" lon="12.25131648735188"><ele>-4.0</ele><time>2026-04-19T09:04:26.001Z</time></trkpt><trkpt lat="44.94593097700754" lon="12.251601945463303"><ele>-4.0</ele><time>2026-04-19T09:04:27.001Z</time></trkpt><trkpt lat="44.945978717627504" lon="12.251886766735847"><ele>-4.0</ele><time>2026-04-19T09:04:28.001Z</time></trkpt><trkpt lat="44.9460240774946" lon="12.252174469060382"><ele>-4.0</ele><time>2026-04-19T09:04:29.001Z</time></trkpt><trkpt lat="44.94606293300029" lon="12.252463626681653"><ele>-4.0</ele><time>2026-04-19T09:04:30.001Z</time></trkpt><trkpt lat="44.94609400230091" lon="12.252745232946296"><ele>-4.333333333333333</ele><time>2026-04-19T09:04:31.001Z</time></trkpt><trkpt lat="44.94612274218083" lon="12.253022427199776"><ele>-4.666666666666667</ele><time>2026-04-19T09:04:32.001Z</time></trkpt><trkpt lat="44.946152071686235" lon="12.253300009074268"><ele>-5.0</ele><time>2026-04-19T09:04:33.001Z</time></trkpt><trkpt lat="44.94618212778803" lon="12.253583859711053"><ele>-5.333333333333334</ele><time>2026-04-19T09:04:34.001Z</time></trkpt><trkpt lat="44.94621358201192" lon="12.253865157086784"><ele>-5.666666666666667</ele><time>2026-04-19T09:04:35.001Z</time></trkpt><trkpt lat="44.946244578190964" lon="12.25415002537773"><ele>-6.0</ele><time>2026-04-19T09:04:36.001Z</time></trkpt><trkpt lat="44.94627700844159" lon="12.254435869718362"><ele>-6.0</ele><time>2026-04-19T09:04:37.001Z</time></trkpt><trkpt lat="44.94630865701797" lon="12.254718525725037"><ele>-6.0</ele><time>2026-04-19T09:04:38.001Z</time></trkpt><trkpt lat="44.946337192100245" lon="12.25499624044392"><ele>-6.0</ele><time>2026-04-19T09:04:39.001Z</time></trkpt><trkpt lat="44.94636768908059" lon="12.255276211349647"><ele>-6.0</ele><time>2026-04-19T09:04:40.001Z</time></trkpt><trkpt lat="44.946397187643264" lon="12.255554885067045"><ele>-6.0</ele><time>2026-04-19T09:04:41.001Z</time></trkpt><trkpt lat="44.94642834426406" lon="12.255831325806637"><ele>-6.0</ele><time>2026-04-19T09:04:42.001Z</time></trkpt><trkpt lat="44.946458735810964" lon="12.256107241657974"><ele>-5.666666666666667</ele><time>2026-04-19T09:04:43.001Z</time></trkpt><trkpt lat="44.946490473103694" lon="12.256392367700311"><ele>-5.333333333333334</ele><time>2026-04-19T09:04:44.001Z</time></trkpt><trkpt lat="44.946524298415774" lon="12.256692626301646"><ele>-5.0</ele><time>2026-04-19T09:04:45.001Z</time></trkpt><trkpt lat="44.946559753796755" lon="12.257002165669896"><ele>-4.666666666666667</ele><time>2026-04-19T09:04:46.001Z</time></trkpt><trkpt lat="44.946593126703974" lon="12.25730930500139"><ele>-4.333333333333333</ele><time>2026-04-19T09:04:47.001Z</time></trkpt><trkpt lat="44.94662762707877" lon="12.257612635781802"><ele>-4.0</ele><time>2026-04-19T09:04:48.001Z</time></trkpt><trkpt lat="44.94665908563869" lon="12.257908998046215"><ele>-3.6666666666666665</ele><time>2026-04-19T09:04:49.001Z</time></trkpt><trkpt lat="44.946688304605594" lon="12.258191446133182"><ele>-3.333333333333333</ele><time>2026-04-19T09:04:50.001Z</time></trkpt><trkpt lat="44.94672011394433" lon="12.258470647408158"><ele>-3.0</ele><time>2026-04-19T09:04:51.001Z</time></trkpt><trkpt lat="44.94675524302878" lon="12.258751647442093"><ele>-2.3333333333333335</ele><time>2026-04-19T09:04:52.001Z</time></trkpt><trkpt lat="44.946787291303174" lon="12.259041490704869"><ele>-1.6666666666666665</ele><time>2026-04-19T09:04:53.001Z</time></trkpt><trkpt lat="44.946818834653655" lon="12.259327636733845"><ele>-1.0</ele><time>2026-04-19T09:04:54.001Z</time></trkpt><trkpt lat="44.94684936864724" lon="12.259614406667534"><ele>-1.6666666666666665</ele><time>2026-04-19T09:04:55.001Z</time></trkpt><trkpt lat="44.94688074071175" lon="12.259889547317357"><ele>-2.3333333333333335</ele><time>2026-04-19T09:04:56.001Z</time></trkpt><trkpt lat="44.946913762224035" lon="12.260162351326603"><ele>-3.0</ele><time>2026-04-19T09:04:57.001Z</time></trkpt><trkpt lat="44.94694421369504" lon="12.260417430217851"><ele>-3.666666666666667</ele><time>2026-04-19T09:04:58.001Z</time></trkpt><trkpt lat="44.94697523695895" lon="12.260664161987814"><ele>-4.333333333333334</ele><time>2026-04-19T09:04:59.001Z</time></trkpt><trkpt lat="44.947003255934405" lon="12.260889707449389"><ele>-5.0</ele><time>2026-04-19T09:05:00.001Z</time></trkpt><trkpt lat="44.94703335524389" lon="12.261100573008875"><ele>-5.0</ele><time>2026-04-19T09:05:01.001Z</time></trkpt><trkpt lat="44.94707894089446" lon="12.261286519612424"><ele>-5.0</ele><time>2026-04-19T09:05:02.001Z</time></trkpt><trkpt lat="44.947132702534844" lon="12.26146577039825"><ele>-5.0</ele><time>2026-04-19T09:05:03.001Z</time></trkpt><trkpt lat="44.94719994577202" lon="12.261625869567176"><ele>-5.0</ele><time>2026-04-19T09:05:04.001Z</time></trkpt><trkpt lat="44.947268398399274" lon="12.261759240562741"><ele>-5.0</ele><time>2026-04-19T09:05:05.001Z</time></trkpt><trkpt lat="44.94732193462099" lon="12.26183811125226"><ele>-5.0</ele><time>2026-04-19T09:05:06.001Z</time></trkpt><trkpt lat="44.94739738429093" lon="12.261938953459893"><ele>-5.0</ele><time>2026-04-19T09:05:08.001Z</time></trkpt><trkpt lat="44.947446530423015" lon="12.26202461194208"><ele>-5.0</ele><time>2026-04-19T09:05:10.001Z</time></trkpt><trkpt lat="44.947426049243774" lon="12.262164524428451"><ele>-5.0</ele><time>2026-04-19T09:05:12.001Z</time></trkpt><trkpt lat="44.94737798182733" lon="12.26226776464126"><ele>-5.0</ele><time>2026-04-19T09:05:13.001Z</time></trkpt><trkpt lat="44.947323927447805" lon="12.262377245504828"><ele>-5.0</ele><time>2026-04-19T09:05:14.001Z</time></trkpt><trkpt lat="44.94725220786021" lon="12.262532366236293"><ele>-5.0</ele><time>2026-04-19T09:05:15.001Z</time></trkpt><trkpt lat="44.94718602971039" lon="12.262706171402238"><ele>-5.0</ele><time>2026-04-19T09:05:16.001Z</time></trkpt><trkpt lat="44.94712036541565" lon="12.262894076958533"><ele>-5.0</ele><time>2026-04-19T09:05:17.001Z</time></trkpt><trkpt lat="44.94706473742412" lon="12.263079043902398"><ele>-5.0</ele><time>2026-04-19T09:05:18.001Z</time></trkpt><trkpt lat="44.9470215471476" lon="12.2632528812606"><ele>-5.0</ele><time>2026-04-19T09:05:19.001Z</time></trkpt><trkpt lat="44.94698000651849" lon="12.263443388640512"><ele>-5.0</ele><time>2026-04-19T09:05:20.001Z</time></trkpt><trkpt lat="44.94694264134096" lon="12.263645421627567"><ele>-5.0</ele><time>2026-04-19T09:05:21.001Z</time></trkpt><trkpt lat="44.94691269272652" lon="12.263844336290395"><ele>-5.0</ele><time>2026-04-19T09:05:22.001Z</time></trkpt><trkpt lat="44.946887559647266" lon="12.264042658229673"><ele>-5.0</ele><time>2026-04-19T09:05:23.001Z</time></trkpt><trkpt lat="44.94686055161527" lon="12.26424723677802"><ele>-5.0</ele><time>2026-04-19T09:05:24.001Z</time></trkpt><trkpt lat="44.946833198310976" lon="12.264454814500795"><ele>-5.0</ele><time>2026-04-19T09:05:25.001Z</time></trkpt><trkpt lat="44.94680501436711" lon="12.26467034091817"><ele>-4.666666666666667</ele><time>2026-04-19T09:05:26.001Z</time></trkpt><trkpt lat="44.94677709017315" lon="12.264898136920829"><ele>-4.333333333333333</ele><time>2026-04-19T09:05:27.001Z</time></trkpt><trkpt lat="44.946747398878486" lon="12.265130826492653"><ele>-4.0</ele><time>2026-04-19T09:05:28.001Z</time></trkpt><trkpt lat="44.94672025970172" lon="12.265358392945783"><ele>-4.333333333333333</ele><time>2026-04-19T09:05:29.001Z</time></trkpt><trkpt lat="44.94668985749304" lon="12.26557792485047"><ele>-4.666666666666667</ele><time>2026-04-19T09:05:30.001Z</time></trkpt><trkpt lat="44.9466604303764" lon="12.265800729739928"><ele>-5.0</ele><time>2026-04-19T09:05:31.001Z</time></trkpt><trkpt lat="44.946630465806564" lon="12.266028263986081"><ele>-4.333333333333334</ele><time>2026-04-19T09:05:32.001Z</time></trkpt><trkpt lat="44.94660378143208" lon="12.266247256918508"><ele>-3.666666666666667</ele><time>2026-04-19T09:05:33.001Z</time></trkpt><trkpt lat="44.94657600681307" lon="12.266474698227917"><ele>-3.0</ele><time>2026-04-19T09:05:34.001Z</time></trkpt><trkpt lat="44.94654863264111" lon="12.26669730688321"><ele>-3.0</ele><time>2026-04-19T09:05:35.001Z</time></trkpt><trkpt lat="44.94652070225412" lon="12.266917896820456"><ele>-3.0</ele><time>2026-04-19T09:05:36.001Z</time></trkpt><trkpt lat="44.9464941816316" lon="12.267139937606826"><ele>-3.0</ele><time>2026-04-19T09:05:37.001Z</time></trkpt><trkpt lat="44.94646667039768" lon="12.267367088023635"><ele>-3.333333333333333</ele><time>2026-04-19T09:05:38.001Z</time></trkpt><trkpt lat="44.9464386093389" lon="12.26759268306311"><ele>-3.6666666666666665</ele><time>2026-04-19T09:05:39.001Z</time></trkpt><trkpt lat="44.94641144883743" lon="12.267820694311865"><ele>-4.0</ele><time>2026-04-19T09:05:40.001Z</time></trkpt><trkpt lat="44.94638135692414" lon="12.268045060033657"><ele>-4.666666666666666</ele><time>2026-04-19T09:05:41.001Z</time></trkpt><trkpt lat="44.94635044087332" lon="12.26826912114871"><ele>-5.333333333333333</ele><time>2026-04-19T09:05:42.001Z</time></trkpt><trkpt lat="44.94632091594939" lon="12.268495194415172"><ele>-6.0</ele><time>2026-04-19T09:05:43.001Z</time></trkpt><trkpt lat="44.946290033600505" lon="12.268727336258651"><ele>-5.0</ele><time>2026-04-19T09:05:44.001Z</time></trkpt><trkpt lat="44.94625861014344" lon="12.268969701948773"><ele>-4.0</ele><time>2026-04-19T09:05:45.001Z</time></trkpt><trkpt lat="44.94622568011407" lon="12.269224252659798"><ele>-3.0</ele><time>2026-04-19T09:05:46.001Z</time></trkpt><trkpt lat="44.94619181489638" lon="12.269481367254397"><ele>-3.0</ele><time>2026-04-19T09:05:47.001Z</time></trkpt><trkpt lat="44.94616162847608" lon="12.269723987547334"><ele>-3.0</ele><time>2026-04-19T09:05:48.001Z</time></trkpt><trkpt lat="44.94612710408938" lon="12.269980674049783"><ele>-3.0</ele><time>2026-04-19T09:05:49.001Z</time></trkpt><trkpt lat="44.94609962465304" lon="12.270229764899112"><ele>-3.333333333333333</ele><time>2026-04-19T09:05:50.001Z</time></trkpt><trkpt lat="44.94608043515858" lon="12.270482901700793"><ele>-3.6666666666666665</ele><time>2026-04-19T09:05:51.001Z</time></trkpt><trkpt lat="44.94607022465314" lon="12.270740988583496"><ele>-4.0</ele><time>2026-04-19T09:05:52.002Z</time></trkpt><trkpt lat="44.94606547234766" lon="12.271004010585635"><ele>-4.333333333333333</ele><time>2026-04-19T09:05:53.002Z</time></trkpt><trkpt lat="44.94606840029576" lon="12.271271311029482"><ele>-4.666666666666667</ele><time>2026-04-19T09:05:54.001Z</time></trkpt><trkpt lat="44.94607681337092" lon="12.271549516260567"><ele>-5.0</ele><time>2026-04-19T09:05:55.001Z</time></trkpt><trkpt lat="44.94609723172196" lon="12.271844445006137"><ele>-5.0</ele><time>2026-04-19T09:05:56.001Z</time></trkpt><trkpt lat="44.94612612819178" lon="12.272141580167386"><ele>-5.0</ele><time>2026-04-19T09:05:57.001Z</time></trkpt><trkpt lat="44.94615611867395" lon="12.27244123737669"><ele>-5.0</ele><time>2026-04-19T09:05:58.001Z</time></trkpt><trkpt lat="44.94618944725359" lon="12.272717735471975"><ele>-5.0</ele><time>2026-04-19T09:05:59.001Z</time></trkpt><trkpt lat="44.946221724940905" lon="12.273007877250489"><ele>-5.0</ele><time>2026-04-19T09:06:00.001Z</time></trkpt><trkpt lat="44.94625776477147" lon="12.273305269657152"><ele>-5.0</ele><time>2026-04-19T09:06:01.001Z</time></trkpt><trkpt lat="44.946291736514944" lon="12.273608620007789"><ele>-5.0</ele><time>2026-04-19T09:06:02.001Z</time></trkpt><trkpt lat="44.946328724736155" lon="12.273914271733032"><ele>-5.0</ele><time>2026-04-19T09:06:03.001Z</time></trkpt><trkpt lat="44.946365375014935" lon="12.27421068430138"><ele>-5.0</ele><time>2026-04-19T09:06:04.001Z</time></trkpt><trkpt lat="44.94639910111869" lon="12.274504119283728"><ele>-5.0</ele><time>2026-04-19T09:06:05.001Z</time></trkpt><trkpt lat="44.94643404139402" lon="12.27479741578501"><ele>-5.0</ele><time>2026-04-19T09:06:06.001Z</time></trkpt><trkpt lat="44.94646934289295" lon="12.275085085848076"><ele>-5.0</ele><time>2026-04-19T09:06:07.001Z</time></trkpt><trkpt lat="44.946504900145" lon="12.275375004506754"><ele>-5.333333333333334</ele><time>2026-04-19T09:06:08.001Z</time></trkpt><trkpt lat="44.94654132120134" lon="12.275668876406648"><ele>-5.666666666666667</ele><time>2026-04-19T09:06:09.001Z</time></trkpt><trkpt lat="44.94657715078312" lon="12.27596311417038"><ele>-6.0</ele><time>2026-04-19T09:06:10.001Z</time></trkpt><trkpt lat="44.94661252775843" lon="12.276257010499691"><ele>-6.0</ele><time>2026-04-19T09:06:11.001Z</time></trkpt><trkpt lat="44.9466469225585" lon="12.276554903288801"><ele>-6.0</ele><time>2026-04-19T09:06:12.001Z</time></trkpt><trkpt lat="44.946680873116904" lon="12.276854089235641"><ele>-6.0</ele><time>2026-04-19T09:06:13.001Z</time></trkpt><trkpt lat="44.94671365056682" lon="12.27715601094403"><ele>-6.0</ele><time>2026-04-19T09:06:14.001Z</time></trkpt><trkpt lat="44.946747728670516" lon="12.27745888590641"><ele>-6.0</ele><time>2026-04-19T09:06:15.001Z</time></trkpt><trkpt lat="44.94678330530524" lon="12.277761660739921"><ele>-6.0</ele><time>2026-04-19T09:06:16.001Z</time></trkpt><trkpt lat="44.94682117682003" lon="12.27806598387829"><ele>-6.0</ele><time>2026-04-19T09:06:17.001Z</time></trkpt><trkpt lat="44.94685884156473" lon="12.27836706457776"><ele>-6.0</ele><time>2026-04-19T09:06:18.001Z</time></trkpt><trkpt lat="44.94689547245363" lon="12.278664726939116"><ele>-6.0</ele><time>2026-04-19T09:06:19.001Z</time></trkpt><trkpt lat="44.94693217529316" lon="12.278964415578182"><ele>-6.0</ele><time>2026-04-19T09:06:20.001Z</time></trkpt><trkpt lat="44.94696686944327" lon="12.27926469777909"><ele>-6.0</ele><time>2026-04-19T09:06:21.001Z</time></trkpt><trkpt lat="44.94700226745492" lon="12.279565444109222"><ele>-6.0</ele><time>2026-04-19T09:06:22.001Z</time></trkpt><trkpt lat="44.94703599500501" lon="12.279865888632713"><ele>-6.0</ele><time>2026-04-19T09:06:23.001Z</time></trkpt><trkpt lat="44.94706922542508" lon="12.280165552141819"><ele>-6.0</ele><time>2026-04-19T09:06:24.001Z</time></trkpt><trkpt lat="44.94710455258718" lon="12.28046588518148"><ele>-6.0</ele><time>2026-04-19T09:06:25.001Z</time></trkpt><trkpt lat="44.94714024414787" lon="12.280769892719267"><ele>-5.666666666666667</ele><time>2026-04-19T09:06:26.001Z</time></trkpt><trkpt lat="44.94717604746622" lon="12.28107239743934"><ele>-5.333333333333334</ele><time>2026-04-19T09:06:27.001Z</time></trkpt><trkpt lat="44.9472141445667" lon="12.281378438685524"><ele>-5.0</ele><time>2026-04-19T09:06:28.001Z</time></trkpt><trkpt lat="44.947251456883436" lon="12.281685522131546"><ele>-5.0</ele><time>2026-04-19T09:06:29.001Z</time></trkpt><trkpt lat="44.947287228221654" lon="12.281993111245997"><ele>-5.0</ele><time>2026-04-19T09:06:30.001Z</time></trkpt><trkpt lat="44.94732296833984" lon="12.282302038245343"><ele>-5.0</ele><time>2026-04-19T09:06:31.001Z</time></trkpt><trkpt lat="44.947358990274424" lon="12.282608914039608"><ele>-5.0</ele><time>2026-04-19T09:06:32.001Z</time></trkpt><trkpt lat="44.94739415765849" lon="12.282915257976768"><ele>-5.0</ele><time>2026-04-19T09:06:33.001Z</time></trkpt><trkpt lat="44.947429289578885" lon="12.283222121826512"><ele>-5.0</ele><time>2026-04-19T09:06:34.001Z</time></trkpt><trkpt lat="44.94746524339368" lon="12.28352893553042"><ele>-5.333333333333334</ele><time>2026-04-19T09:06:35.001Z</time></trkpt><trkpt lat="44.947501098568395" lon="12.28383448408249"><ele>-5.666666666666667</ele><time>2026-04-19T09:06:36.001Z</time></trkpt><trkpt lat="44.947536718387155" lon="12.284141492880986"><ele>-6.0</ele><time>2026-04-19T09:06:37.001Z</time></trkpt><trkpt lat="44.94757352956483" lon="12.284446511416169"><ele>-6.0</ele><time>2026-04-19T09:06:38.001Z</time></trkpt><trkpt lat="44.94761016614282" lon="12.284750892824977"><ele>-6.0</ele><time>2026-04-19T09:06:39.001Z</time></trkpt><trkpt lat="44.94764688865151" lon="12.285055377295237"><ele>-6.0</ele><time>2026-04-19T09:06:40.001Z</time></trkpt><trkpt lat="44.947682692156306" lon="12.28536254307741"><ele>-5.666666666666667</ele><time>2026-04-19T09:06:41.001Z</time></trkpt><trkpt lat="44.94771922825674" lon="12.285672211776415"><ele>-5.333333333333334</ele><time>2026-04-19T09:06:42.001Z</time></trkpt><trkpt lat="44.94775814514824" lon="12.285983770495164"><ele>-5.0</ele><time>2026-04-19T09:06:43.001Z</time></trkpt><trkpt lat="44.9477956958132" lon="12.286299170778943"><ele>-5.0</ele><time>2026-04-19T09:06:44.001Z</time></trkpt><trkpt lat="44.94783411421904" lon="12.286614301186491"><ele>-5.0</ele><time>2026-04-19T09:06:45.001Z</time></trkpt><trkpt lat="44.947871440092214" lon="12.28692837788842"><ele>-5.0</ele><time>2026-04-19T09:06:46.001Z</time></trkpt><trkpt lat="44.947907453556184" lon="12.287242169064978"><ele>-5.0</ele><time>2026-04-19T09:06:47.001Z</time></trkpt><trkpt lat="44.947942956203306" lon="12.287550849655661"><ele>-5.0</ele><time>2026-04-19T09:06:48.001Z</time></trkpt><trkpt lat="44.94797790186881" lon="12.287859670086494"><ele>-4.333333333333334</ele><time>2026-04-19T09:06:49.001Z</time></trkpt><trkpt lat="44.94801150787824" lon="12.288168278099334"><ele>-3.666666666666667</ele><time>2026-04-19T09:06:50.001Z</time></trkpt><trkpt lat="44.94804694156158" lon="12.288474893866868"><ele>-3.0</ele><time>2026-04-19T09:06:51.001Z</time></trkpt><trkpt lat="44.94808418430221" lon="12.28878475872751"><ele>-3.666666666666667</ele><time>2026-04-19T09:06:52.001Z</time></trkpt><trkpt lat="44.948122891493966" lon="12.289095035383339"><ele>-4.333333333333334</ele><time>2026-04-19T09:06:53.001Z</time></trkpt><trkpt lat="44.948159881825006" lon="12.289404943085401"><ele>-5.0</ele><time>2026-04-19T09:06:54.001Z</time></trkpt><trkpt lat="44.948197107108" lon="12.289716912935537"><ele>-4.5</ele><time>2026-04-19T09:06:55.001Z</time></trkpt><trkpt lat="44.94823371888713" lon="12.290035167507405"><ele>-4.0</ele><time>2026-04-19T09:06:56.001Z</time></trkpt><trkpt lat="44.94827430344249" lon="12.290363793412295"><ele>-3.6666666666666665</ele><time>2026-04-19T09:06:57.001Z</time></trkpt><trkpt lat="44.94830907209343" lon="12.29066375270704"><ele>-3.333333333333333</ele><time>2026-04-19T09:06:58.001Z</time></trkpt><trkpt lat="44.948343251488474" lon="12.290952990842271"><ele>-3.0</ele><time>2026-04-19T09:06:59.001Z</time></trkpt><trkpt lat="44.94837557672936" lon="12.29123937108257"><ele>-3.333333333333333</ele><time>2026-04-19T09:07:00.001Z</time></trkpt><trkpt lat="44.94840698417271" lon="12.291524160984826"><ele>-3.6666666666666665</ele><time>2026-04-19T09:07:01.001Z</time></trkpt><trkpt lat="44.94844005214869" lon="12.291806755883657"><ele>-4.0</ele><time>2026-04-19T09:07:02.001Z</time></trkpt><trkpt lat="44.94847307355059" lon="12.292083836789917"><ele>-4.333333333333333</ele><time>2026-04-19T09:07:03.001Z</time></trkpt><trkpt lat="44.94850519881586" lon="12.292356714599759"><ele>-4.666666666666667</ele><time>2026-04-19T09:07:04.001Z</time></trkpt><trkpt lat="44.948535449317184" lon="12.292631702871134"><ele>-5.0</ele><time>2026-04-19T09:07:05.001Z</time></trkpt><trkpt lat="44.948563121740655" lon="12.29291117569162"><ele>-5.0</ele><time>2026-04-19T09:07:06.001Z</time></trkpt><trkpt lat="44.948590886580284" lon="12.293188323420818"><ele>-5.0</ele><time>2026-04-19T09:07:07.001Z</time></trkpt><trkpt lat="44.94861346800647" lon="12.293462291955105"><ele>-5.0</ele><time>2026-04-19T09:07:08.001Z</time></trkpt><trkpt lat="44.948634847292624" lon="12.293736794578544"><ele>-5.0</ele><time>2026-04-19T09:07:09.001Z</time></trkpt><trkpt lat="44.94865483343523" lon="12.294014195863307"><ele>-5.0</ele><time>2026-04-19T09:07:10.001Z</time></trkpt><trkpt lat="44.9486753001528" lon="12.294291493478275"><ele>-5.0</ele><time>2026-04-19T09:07:11.001Z</time></trkpt><trkpt lat="44.948692942273226" lon="12.294571432717786"><ele>-4.666666666666667</ele><time>2026-04-19T09:07:12.001Z</time></trkpt><trkpt lat="44.948708431569365" lon="12.2948539810253"><ele>-4.333333333333333</ele><time>2026-04-19T09:07:13.001Z</time></trkpt><trkpt lat="44.94871417190037" lon="12.295138842149493"><ele>-4.0</ele><time>2026-04-19T09:07:14.001Z</time></trkpt><trkpt lat="44.94871655903176" lon="12.295424653383106"><ele>-4.0</ele><time>2026-04-19T09:07:15.001Z</time></trkpt><trkpt lat="44.948718789833215" lon="12.295711624314636"><ele>-4.0</ele><time>2026-04-19T09:07:16.001Z</time></trkpt><trkpt lat="44.94871987139259" lon="12.295995619732164"><ele>-4.0</ele><time>2026-04-19T09:07:17.001Z</time></trkpt><trkpt lat="44.94871638065938" lon="12.296275139912415"><ele>-3.6666666666666665</ele><time>2026-04-19T09:07:18.001Z</time></trkpt><trkpt lat="44.948706832544254" lon="12.296554069369167"><ele>-3.333333333333333</ele><time>2026-04-19T09:07:19.001Z</time></trkpt><trkpt lat="44.94868967019886" lon="12.296829475169321"><ele>-3.0</ele><time>2026-04-19T09:07:20.001Z</time></trkpt><trkpt lat="44.948670940197026" lon="12.297100988695535"><ele>-3.333333333333333</ele><time>2026-04-19T09:07:21.001Z</time></trkpt><trkpt lat="44.9486549855509" lon="12.297373115941975"><ele>-3.6666666666666665</ele><time>2026-04-19T09:07:22.001Z</time></trkpt><trkpt lat="44.948642237094745" lon="12.297651318610948"><ele>-4.0</ele><time>2026-04-19T09:07:23.001Z</time></trkpt><trkpt lat="44.94863017066164" lon="12.297929562269935"><ele>-4.0</ele><time>2026-04-19T09:07:24.001Z</time></trkpt><trkpt lat="44.94861838697234" lon="12.29820574441766"><ele>-4.0</ele><time>2026-04-19T09:07:25.001Z</time></trkpt><trkpt lat="44.94860708501044" lon="12.298474406934774"><ele>-4.0</ele><time>2026-04-19T09:07:26.001Z</time></trkpt><trkpt lat="44.94859669482532" lon="12.2987377231894"><ele>-3.333333333333333</ele><time>2026-04-19T09:07:27.001Z</time></trkpt><trkpt lat="44.948587522127475" lon="12.299000263506397"><ele>-2.6666666666666665</ele><time>2026-04-19T09:07:28.001Z</time></trkpt><trkpt lat="44.948576572717464" lon="12.299263202867461"><ele>-2.0</ele><time>2026-04-19T09:07:29.001Z</time></trkpt><trkpt lat="44.948565618574136" lon="12.29952274483407"><ele>-0.6666666666666666</ele><time>2026-04-19T09:07:30.001Z</time></trkpt><trkpt lat="44.94855423032318" lon="12.299774502786716"><ele>0.6666666666666666</ele><time>2026-04-19T09:07:31.001Z</time></trkpt><trkpt lat="44.94854263354889" lon="12.300027728477028"><ele>2.0</ele><time>2026-04-19T09:07:32.001Z</time></trkpt><trkpt lat="44.94853241068329" lon="12.300289172028164"><ele>2.0</ele><time>2026-04-19T09:07:33.001Z</time></trkpt><trkpt lat="44.948521369450354" lon="12.300555435522027"><ele>2.0</ele><time>2026-04-19T09:07:34.001Z</time></trkpt><trkpt lat="44.94850829105393" lon="12.300829864641202"><ele>2.0</ele><time>2026-04-19T09:07:35.001Z</time></trkpt><trkpt lat="44.94849503732671" lon="12.301105837246745"><ele>1.6666666666666665</ele><time>2026-04-19T09:07:36.001Z</time></trkpt><trkpt lat="44.94848089527477" lon="12.301381891223796"><ele>1.3333333333333333</ele><time>2026-04-19T09:07:37.001Z</time></trkpt><trkpt lat="44.94846941241798" lon="12.301651160217247"><ele>1.0</ele><time>2026-04-19T09:07:38.001Z</time></trkpt><trkpt lat="44.948458651032254" lon="12.301914463673494"><ele>0.6666666666666666</ele><time>2026-04-19T09:07:39.001Z</time></trkpt><trkpt lat="44.94845030061358" lon="12.302158370674565"><ele>0.3333333333333333</ele><time>2026-04-19T09:07:40.001Z</time></trkpt><trkpt lat="44.94844186824541" lon="12.302380275947776"><ele>0.0</ele><time>2026-04-19T09:07:41.001Z</time></trkpt><trkpt lat="44.94843305672099" lon="12.302588075244508"><ele>0.0</ele><time>2026-04-19T09:07:42.001Z</time></trkpt><trkpt lat="44.948423306803384" lon="12.302797022953225"><ele>0.0</ele><time>2026-04-19T09:07:43.001Z</time></trkpt><trkpt lat="44.94841368407717" lon="12.303006247400294"><ele>0.0</ele><time>2026-04-19T09:07:44.001Z</time></trkpt><trkpt lat="44.948403076861865" lon="12.303217951318183"><ele>0.0</ele><time>2026-04-19T09:07:45.001Z</time></trkpt><trkpt lat="44.94839414161191" lon="12.303432971486982"><ele>0.0</ele><time>2026-04-19T09:07:46.001Z</time></trkpt><trkpt lat="44.94838524046047" lon="12.303656068789692"><ele>0.0</ele><time>2026-04-19T09:07:47.001Z</time></trkpt><trkpt lat="44.948376776346834" lon="12.303877560119043"><ele>0.0</ele><time>2026-04-19T09:07:48.001Z</time></trkpt><trkpt lat="44.94836632341758" lon="12.30410300045949"><ele>-0.3333333333333333</ele><time>2026-04-19T09:07:49.001Z</time></trkpt><trkpt lat="44.94835521847575" lon="12.304327788348168"><ele>-0.6666666666666666</ele><time>2026-04-19T09:07:50.001Z</time></trkpt><trkpt lat="44.94834449261021" lon="12.3045579136515"><ele>-1.0</ele><time>2026-04-19T09:07:51.001Z</time></trkpt><trkpt lat="44.948334873422105" lon="12.30478619297934"><ele>-1.0</ele><time>2026-04-19T09:07:52.001Z</time></trkpt><trkpt lat="44.948326189942186" lon="12.305012370331022"><ele>-1.0</ele><time>2026-04-19T09:07:53.001Z</time></trkpt><trkpt lat="44.94831775893727" lon="12.305248504474905"><ele>-1.0</ele><time>2026-04-19T09:07:54.001Z</time></trkpt><trkpt lat="44.948307133235204" lon="12.305482874339315"><ele>-1.6666666666666665</ele><time>2026-04-19T09:07:55.001Z</time></trkpt><trkpt lat="44.94829628525139" lon="12.30571616621475"><ele>-2.3333333333333335</ele><time>2026-04-19T09:07:56.001Z</time></trkpt><trkpt lat="44.948285395207876" lon="12.305941501228547"><ele>-3.0</ele><time>2026-04-19T09:07:57.001Z</time></trkpt><trkpt lat="44.948274194393065" lon="12.30617340351964"><ele>-3.0</ele><time>2026-04-19T09:07:58.001Z</time></trkpt><trkpt lat="44.94826392593318" lon="12.306408543212994"><ele>-3.0</ele><time>2026-04-19T09:07:59.001Z</time></trkpt><trkpt lat="44.94825302670446" lon="12.30664769526304"><ele>-3.0</ele><time>2026-04-19T09:08:00.001Z</time></trkpt><trkpt lat="44.94824391585922" lon="12.306878726084852"><ele>-3.333333333333333</ele><time>2026-04-19T09:08:01.001Z</time></trkpt><trkpt lat="44.948235461644956" lon="12.307109907686632"><ele>-3.6666666666666665</ele><time>2026-04-19T09:08:02.001Z</time></trkpt><trkpt lat="44.948225661766806" lon="12.307343329282025"><ele>-4.0</ele><time>2026-04-19T09:08:03.001Z</time></trkpt><trkpt lat="44.94821684501891" lon="12.307574253712009"><ele>-4.0</ele><time>2026-04-19T09:08:04.001Z</time></trkpt><trkpt lat="44.94820691142713" lon="12.307798367497591"><ele>-4.0</ele><time>2026-04-19T09:08:05Z</time></trkpt><trkpt lat="44.948197288359616" lon="12.30801462542024"><ele>-4.0</ele><time>2026-04-19T09:08:06Z</time></trkpt><trkpt lat="44.94818635978443" lon="12.308226484547184"><ele>-4.0</ele><time>2026-04-19T09:08:07Z</time></trkpt><trkpt lat="44.948176626713334" lon="12.308445260431743"><ele>-4.0</ele><time>2026-04-19T09:08:08Z</time></trkpt><trkpt lat="44.94816457769191" lon="12.308667887293291"><ele>-4.0</ele><time>2026-04-19T09:08:09Z</time></trkpt><trkpt lat="44.94815406053817" lon="12.308892509102858"><ele>-4.0</ele><time>2026-04-19T09:08:10Z</time></trkpt><trkpt lat="44.948141367329654" lon="12.309118429492864"><ele>-4.0</ele><time>2026-04-19T09:08:11Z</time></trkpt><trkpt lat="44.94812589395573" lon="12.30934758922203"><ele>-4.0</ele><time>2026-04-19T09:08:12Z</time></trkpt><trkpt lat="44.948108085917134" lon="12.3095752199534"><ele>-4.0</ele><time>2026-04-19T09:08:13Z</time></trkpt><trkpt lat="44.94808631506918" lon="12.30980885334223"><ele>-4.0</ele><time>2026-04-19T09:08:14Z</time></trkpt><trkpt lat="44.94806131491714" lon="12.31004404538221"><ele>-4.0</ele><time>2026-04-19T09:08:15Z</time></trkpt><trkpt lat="44.94803489260991" lon="12.31027474634699"><ele>-4.0</ele><time>2026-04-19T09:08:16Z</time></trkpt><trkpt lat="44.948003715968476" lon="12.310507079907232"><ele>-4.0</ele><time>2026-04-19T09:08:17Z</time></trkpt><trkpt lat="44.9479696931452" lon="12.310735721510234"><ele>-4.0</ele><time>2026-04-19T09:08:18Z</time></trkpt><trkpt lat="44.947935953994296" lon="12.31095330145327"><ele>-4.0</ele><time>2026-04-19T09:08:19Z</time></trkpt><trkpt lat="44.94790031968762" lon="12.311171260440336"><ele>-4.0</ele><time>2026-04-19T09:08:20Z</time></trkpt><trkpt lat="44.94786624236412" lon="12.311379919404043"><ele>-4.0</ele><time>2026-04-19T09:08:21Z</time></trkpt><trkpt lat="44.94783057021241" lon="12.311580501326077"><ele>-4.0</ele><time>2026-04-19T09:08:22Z</time></trkpt><trkpt lat="44.94778961665691" lon="12.31177968950423"><ele>-4.0</ele><time>2026-04-19T09:08:23.001Z</time></trkpt><trkpt lat="44.947744497408394" lon="12.311974913105272"><ele>-4.0</ele><time>2026-04-19T09:08:24.001Z</time></trkpt><trkpt lat="44.947695124512045" lon="12.312173101337736"><ele>-4.0</ele><time>2026-04-19T09:08:25.001Z</time></trkpt><trkpt lat="44.947641217320914" lon="12.312375104270165"><ele>-4.0</ele><time>2026-04-19T09:08:26.001Z</time></trkpt><trkpt lat="44.947582461826684" lon="12.312586858987297"><ele>-4.0</ele><time>2026-04-19T09:08:27.001Z</time></trkpt><trkpt lat="44.94752095668083" lon="12.312793965359889"><ele>-4.0</ele><time>2026-04-19T09:08:28.001Z</time></trkpt><trkpt lat="44.947457087922814" lon="12.312999691674019"><ele>-3.6666666666666665</ele><time>2026-04-19T09:08:29.001Z</time></trkpt><trkpt lat="44.947391958953204" lon="12.31319734825753"><ele>-3.333333333333333</ele><time>2026-04-19T09:08:30.001Z</time></trkpt><trkpt lat="44.94732679612123" lon="12.3134008949439"><ele>-3.0</ele><time>2026-04-19T09:08:31.001Z</time></trkpt><trkpt lat="44.947257882601775" lon="12.313599436434103"><ele>-3.0</ele><time>2026-04-19T09:08:32.001Z</time></trkpt><trkpt lat="44.94718929005581" lon="12.31380121577722"><ele>-3.0</ele><time>2026-04-19T09:08:33.001Z</time></trkpt><trkpt lat="44.94711890851832" lon="12.314011687164323"><ele>-3.0</ele><time>2026-04-19T09:08:34.001Z</time></trkpt><trkpt lat="44.94705460411294" lon="12.31422088205575"><ele>-2.6666666666666665</ele><time>2026-04-19T09:08:35.001Z</time></trkpt><trkpt lat="44.94698803656303" lon="12.314426163991456"><ele>-2.333333333333333</ele><time>2026-04-19T09:08:36.001Z</time></trkpt><trkpt lat="44.946923266572256" lon="12.314624774696753"><ele>-2.0</ele><time>2026-04-19T09:08:37.001Z</time></trkpt><trkpt lat="44.94686007883328" lon="12.314817595935345"><ele>-2.6666666666666665</ele><time>2026-04-19T09:08:38.001Z</time></trkpt><trkpt lat="44.946796763971804" lon="12.315015303966325"><ele>-3.333333333333333</ele><time>2026-04-19T09:08:39.001Z</time></trkpt><trkpt lat="44.946732660617435" lon="12.3152115363547"><ele>-4.0</ele><time>2026-04-19T09:08:40.001Z</time></trkpt><trkpt lat="44.946665953548454" lon="12.315410573740035"><ele>-4.333333333333333</ele><time>2026-04-19T09:08:41.001Z</time></trkpt><trkpt lat="44.946595750877975" lon="12.315613561387465"><ele>-4.666666666666667</ele><time>2026-04-19T09:08:42.001Z</time></trkpt><trkpt lat="44.946518636441915" lon="12.315815228093603"><ele>-5.0</ele><time>2026-04-19T09:08:43.001Z</time></trkpt><trkpt lat="44.946435860659435" lon="12.316016637854066"><ele>-5.0</ele><time>2026-04-19T09:08:44.001Z</time></trkpt><trkpt lat="44.94634859127488" lon="12.316216488686916"><ele>-5.0</ele><time>2026-04-19T09:08:45.001Z</time></trkpt><trkpt lat="44.9462588050818" lon="12.316410048961563"><ele>-5.0</ele><time>2026-04-19T09:08:46.001Z</time></trkpt><trkpt lat="44.94616343545975" lon="12.316602722460791"><ele>-5.0</ele><time>2026-04-19T09:08:47.001Z</time></trkpt><trkpt lat="44.946061284068456" lon="12.31678864386698"><ele>-5.0</ele><time>2026-04-19T09:08:48.001Z</time></trkpt><trkpt lat="44.945952194844196" lon="12.316971547007462"><ele>-5.0</ele><time>2026-04-19T09:08:49.001Z</time></trkpt><trkpt lat="44.94584402604049" lon="12.317151328877152"><ele>-5.0</ele><time>2026-04-19T09:08:50.001Z</time></trkpt><trkpt lat="44.945739367525235" lon="12.317338140672407"><ele>-5.0</ele><time>2026-04-19T09:08:51.001Z</time></trkpt><trkpt lat="44.94563524775694" lon="12.317526510769973"><ele>-5.0</ele><time>2026-04-19T09:08:52.001Z</time></trkpt><trkpt lat="44.94552904645569" lon="12.317716661245392"><ele>-5.0</ele><time>2026-04-19T09:08:53.001Z</time></trkpt><trkpt lat="44.945425153246674" lon="12.31790649777825"><ele>-5.0</ele><time>2026-04-19T09:08:54.001Z</time></trkpt><trkpt lat="44.94532012331623" lon="12.318095973436563"><ele>-5.0</ele><time>2026-04-19T09:08:55.001Z</time></trkpt><trkpt lat="44.94521737564306" lon="12.318284145923528"><ele>-5.0</ele><time>2026-04-19T09:08:56.001Z</time></trkpt><trkpt lat="44.945117554154784" lon="12.318475549171312"><ele>-5.0</ele><time>2026-04-19T09:08:57.001Z</time></trkpt><trkpt lat="44.94501564724804" lon="12.31866825957825"><ele>-5.0</ele><time>2026-04-19T09:08:58.001Z</time></trkpt><trkpt lat="44.94491093588823" lon="12.31886102049202"><ele>-5.333333333333334</ele><time>2026-04-19T09:08:59.001Z</time></trkpt><trkpt lat="44.944805031674335" lon="12.319053229116529"><ele>-5.666666666666667</ele><time>2026-04-19T09:09:00.001Z</time></trkpt><trkpt lat="44.944699799734906" lon="12.319242012451324"><ele>-6.0</ele><time>2026-04-19T09:09:01.001Z</time></trkpt><trkpt lat="44.94459288997921" lon="12.31943250085439"><ele>-6.0</ele><time>2026-04-19T09:09:02.001Z</time></trkpt><trkpt lat="44.94448844763095" lon="12.319618564833926"><ele>-6.0</ele><time>2026-04-19T09:09:03.001Z</time></trkpt><trkpt lat="44.94438684310828" lon="12.319803421732624"><ele>-6.0</ele><time>2026-04-19T09:09:04.001Z</time></trkpt><trkpt lat="44.9442819237697" lon="12.31999152146304"><ele>-5.666666666666667</ele><time>2026-04-19T09:09:05.001Z</time></trkpt><trkpt lat="44.94417661400546" lon="12.320179261388253"><ele>-5.333333333333334</ele><time>2026-04-19T09:09:06.001Z</time></trkpt><trkpt lat="44.94407254460593" lon="12.32036829914288"><ele>-5.0</ele><time>2026-04-19T09:09:07.001Z</time></trkpt><trkpt lat="44.94396581808386" lon="12.320559371175285"><ele>-5.0</ele><time>2026-04-19T09:09:08.001Z</time></trkpt><trkpt lat="44.94386040896016" lon="12.320751694054753"><ele>-5.0</ele><time>2026-04-19T09:09:09.001Z</time></trkpt><trkpt lat="44.94375771238428" lon="12.320938259751404"><ele>-5.0</ele><time>2026-04-19T09:09:10.001Z</time></trkpt><trkpt lat="44.943657591884076" lon="12.32112125432848"><ele>-5.0</ele><time>2026-04-19T09:09:11.001Z</time></trkpt><trkpt lat="44.94356403392872" lon="12.321286516397102"><ele>-5.0</ele><time>2026-04-19T09:09:12.001Z</time></trkpt><trkpt lat="44.943475237147474" lon="12.321449645167132"><ele>-5.0</ele><time>2026-04-19T09:09:13.001Z</time></trkpt><trkpt lat="44.94337801547337" lon="12.321621655205794"><ele>-5.0</ele><time>2026-04-19T09:09:14.001Z</time></trkpt><trkpt lat="44.94328317825186" lon="12.321798852249483"><ele>-5.0</ele><time>2026-04-19T09:09:15.001Z</time></trkpt><trkpt lat="44.9431951955189" lon="12.321970656760826"><ele>-5.0</ele><time>2026-04-19T09:09:16.001Z</time></trkpt><trkpt lat="44.94312089907266" lon="12.322134537088228"><ele>-5.0</ele><time>2026-04-19T09:09:17.001Z</time></trkpt><trkpt lat="44.94305182892055" lon="12.322314994325904"><ele>-5.0</ele><time>2026-04-19T09:09:18.001Z</time></trkpt><trkpt lat="44.94300418992927" lon="12.322498247949738"><ele>-5.0</ele><time>2026-04-19T09:09:19.001Z</time></trkpt><trkpt lat="44.94297204567523" lon="12.32268316416419"><ele>-5.0</ele><time>2026-04-19T09:09:20.001Z</time></trkpt><trkpt lat="44.94295590578934" lon="12.3228554485581"><ele>-5.0</ele><time>2026-04-19T09:09:21.001Z</time></trkpt><trkpt lat="44.9429499188451" lon="12.323012183406929"><ele>-5.0</ele><time>2026-04-19T09:09:22.001Z</time></trkpt><trkpt lat="44.94295688452948" lon="12.323156297687335"><ele>-5.0</ele><time>2026-04-19T09:09:23.001Z</time></trkpt><trkpt lat="44.94296936997822" lon="12.323288825292998"><ele>-5.0</ele><time>2026-04-19T09:09:24.001Z</time></trkpt><trkpt lat="44.94297966163282" lon="12.323406545114603"><ele>-5.0</ele><time>2026-04-19T09:09:25.001Z</time></trkpt><trkpt lat="44.94297841182069" lon="12.323516770556008"><ele>-5.0</ele><time>2026-04-19T09:09:26.001Z</time></trkpt><trkpt lat="44.94295554717194" lon="12.323616584581234"><ele>-5.0</ele><time>2026-04-19T09:09:27.001Z</time></trkpt><trkpt lat="44.942906913698835" lon="12.323701077523443"><ele>-5.0</ele><time>2026-04-19T09:09:28.001Z</time></trkpt><trkpt lat="44.94284313201068" lon="12.323764323990927"><ele>-5.0</ele><time>2026-04-19T09:09:29.001Z</time></trkpt><trkpt lat="44.9427907762569" lon="12.323842876435439"><ele>-5.0</ele><time>2026-04-19T09:09:30.001Z</time></trkpt><trkpt lat="44.942671452414096" lon="12.323796150720112"><ele>-5.0</ele><time>2026-04-19T09:09:31.001Z</time></trkpt><trkpt lat="44.94257814593291" lon="12.323776578205447"><ele>-5.0</ele><time>2026-04-19T09:09:32.001Z</time></trkpt><trkpt lat="44.942481568280854" lon="12.323743860986504"><ele>-5.0</ele><time>2026-04-19T09:09:33.001Z</time></trkpt><trkpt lat="44.942391804332736" lon="12.323669042703113"><ele>-5.0</ele><time>2026-04-19T09:09:34.001Z</time></trkpt><trkpt lat="44.942293539791095" lon="12.323603813033435"><ele>-5.0</ele><time>2026-04-19T09:09:35.001Z</time></trkpt><trkpt lat="44.9421860345128" lon="12.323555624616981"><ele>-5.0</ele><time>2026-04-19T09:09:36.001Z</time></trkpt><trkpt lat="44.942092149420816" lon="12.323468351680038"><ele>-5.0</ele><time>2026-04-19T09:09:37.001Z</time></trkpt><trkpt lat="44.94197616490118" lon="12.323416590019367"><ele>-5.0</ele><time>2026-04-19T09:09:38.001Z</time></trkpt><trkpt lat="44.94186663118558" lon="12.323340910088586"><ele>-5.0</ele><time>2026-04-19T09:09:39.001Z</time></trkpt><trkpt lat="44.94175475638017" lon="12.323263839558223"><ele>-5.0</ele><time>2026-04-19T09:09:40.001Z</time></trkpt><trkpt lat="44.941639064573934" lon="12.323190307754203"><ele>-5.0</ele><time>2026-04-19T09:09:41.001Z</time></trkpt><trkpt lat="44.94152914537633" lon="12.32311718942102"><ele>-5.25</ele><time>2026-04-19T09:09:42.001Z</time></trkpt><trkpt lat="44.94142567391059" lon="12.323048510254514"><ele>-5.5</ele><time>2026-04-19T09:09:43.001Z</time></trkpt><trkpt lat="44.94131833857982" lon="12.32298086724625"><ele>-5.75</ele><time>2026-04-19T09:09:44.001Z</time></trkpt><trkpt lat="44.941209581923985" lon="12.322911135949727"><ele>-6.0</ele><time>2026-04-19T09:09:45.001Z</time></trkpt><trkpt lat="44.94110013239642" lon="12.322840659072616"><ele>-6.0</ele><time>2026-04-19T09:09:46.001Z</time></trkpt><trkpt lat="44.940990211381134" lon="12.322770560199288"><ele>-6.0</ele><time>2026-04-19T09:09:47.001Z</time></trkpt><trkpt lat="44.940880964885295" lon="12.322699638841257"><ele>-6.0</ele><time>2026-04-19T09:09:48.001Z</time></trkpt><trkpt lat="44.940772031244265" lon="12.32262805079512"><ele>-6.0</ele><time>2026-04-19T09:09:49.001Z</time></trkpt><trkpt lat="44.94066139808265" lon="12.322556702467587"><ele>-6.0</ele><time>2026-04-19T09:09:50.001Z</time></trkpt><trkpt lat="44.940555182568346" lon="12.322464270181834"><ele>-6.0</ele><time>2026-04-19T09:09:51.001Z</time></trkpt><trkpt lat="44.9404347327371" lon="12.322404455942344"><ele>-6.0</ele><time>2026-04-19T09:09:52.001Z</time></trkpt><trkpt lat="44.940314145444994" lon="12.322334129276818"><ele>-6.0</ele><time>2026-04-19T09:09:53.001Z</time></trkpt><trkpt lat="44.94019314310778" lon="12.322250449379412"><ele>-6.0</ele><time>2026-04-19T09:09:54.001Z</time></trkpt><trkpt lat="44.94006864480487" lon="12.322169659672381"><ele>-6.0</ele><time>2026-04-19T09:09:55.001Z</time></trkpt><trkpt lat="44.939941525401586" lon="12.322088062486545"><ele>-6.0</ele><time>2026-04-19T09:09:56.001Z</time></trkpt><trkpt lat="44.93980322422479" lon="12.321999339137252"><ele>-6.0</ele><time>2026-04-19T09:09:57.001Z</time></trkpt><trkpt lat="44.939673396067775" lon="12.321915295918531"><ele>-6.0</ele><time>2026-04-19T09:09:58.001Z</time></trkpt><trkpt lat="44.939536120987654" lon="12.321826729431287"><ele>-6.0</ele><time>2026-04-19T09:09:59.001Z</time></trkpt><trkpt lat="44.9393926091147" lon="12.321734254930497"><ele>-6.0</ele><time>2026-04-19T09:10:00.001Z</time></trkpt><trkpt lat="44.93924471164137" lon="12.321643169919147"><ele>-5.666666666666667</ele><time>2026-04-19T09:10:01.001Z</time></trkpt><trkpt lat="44.939093387167354" lon="12.3215490694412"><ele>-5.333333333333334</ele><time>2026-04-19T09:10:02.001Z</time></trkpt><trkpt lat="44.93894012187659" lon="12.321451599722405"><ele>-5.0</ele><time>2026-04-19T09:10:03.001Z</time></trkpt><trkpt lat="44.938786578889214" lon="12.32135240476322"><ele>-5.0</ele><time>2026-04-19T09:10:04.001Z</time></trkpt><trkpt lat="44.93864078079723" lon="12.321234410434304"><ele>-5.0</ele><time>2026-04-19T09:10:05.001Z</time></trkpt><trkpt lat="44.93849226947582" lon="12.321161963332663"><ele>-5.0</ele><time>2026-04-19T09:10:06.001Z</time></trkpt><trkpt lat="44.938351580357946" lon="12.321071970116876"><ele>-4.75</ele><time>2026-04-19T09:10:07.001Z</time></trkpt><trkpt lat="44.93821661146981" lon="12.320987903626765"><ele>-4.5</ele><time>2026-04-19T09:10:08.001Z</time></trkpt><trkpt lat="44.93809177612411" lon="12.320885599987497"><ele>-4.25</ele><time>2026-04-19T09:10:09.001Z</time></trkpt><trkpt lat="44.937955056273914" lon="12.32081954947475"><ele>-4.0</ele><time>2026-04-19T09:10:10.001Z</time></trkpt><trkpt lat="44.937830960801385" lon="12.320729129688631"><ele>-4.0</ele><time>2026-04-19T09:10:11.001Z</time></trkpt><trkpt lat="44.9377078176887" lon="12.32064992422712"><ele>-4.0</ele><time>2026-04-19T09:10:12.001Z</time></trkpt><trkpt lat="44.93759472469865" lon="12.320576665906406"><ele>-4.0</ele><time>2026-04-19T09:10:13.001Z</time></trkpt><trkpt lat="44.937485997515786" lon="12.320507707596182"><ele>-4.0</ele><time>2026-04-19T09:10:14.001Z</time></trkpt><trkpt lat="44.937385077756396" lon="12.32045032471582"><ele>-4.0</ele><time>2026-04-19T09:10:15.001Z</time></trkpt><trkpt lat="44.93728575650132" lon="12.320420105156453"><ele>-4.0</ele><time>2026-04-19T09:10:16.001Z</time></trkpt><trkpt lat="44.93719301720223" lon="12.320423850833077"><ele>-4.0</ele><time>2026-04-19T09:10:17.001Z</time></trkpt><trkpt lat="44.937096407173755" lon="12.320471655831057"><ele>-4.0</ele><time>2026-04-19T09:10:18.001Z</time></trkpt><trkpt lat="44.936992575094074" lon="12.32054911443085"><ele>-4.0</ele><time>2026-04-19T09:10:19.001Z</time></trkpt><trkpt lat="44.936883961849276" lon="12.320649525126067"><ele>-3.333333333333333</ele><time>2026-04-19T09:10:20.001Z</time></trkpt><trkpt lat="44.9367721984872" lon="12.320782191060506"><ele>-2.6666666666666665</ele><time>2026-04-19T09:10:21.001Z</time></trkpt><trkpt lat="44.936652131620605" lon="12.320941584808711"><ele>-2.0</ele><time>2026-04-19T09:10:22.001Z</time></trkpt><trkpt lat="44.93652509523661" lon="12.321114409588427"><ele>-1.6666666666666665</ele><time>2026-04-19T09:10:23.001Z</time></trkpt><trkpt lat="44.93640682705249" lon="12.321278452648563"><ele>-1.3333333333333333</ele><time>2026-04-19T09:10:24.001Z</time></trkpt><trkpt lat="44.936279978462956" lon="12.321455776980907"><ele>-1.0</ele><time>2026-04-19T09:10:25.001Z</time></trkpt><trkpt lat="44.93615578898295" lon="12.32162796365657"><ele>-0.6666666666666666</ele><time>2026-04-19T09:10:26.001Z</time></trkpt><trkpt lat="44.93603923890118" lon="12.321788702114208"><ele>-0.3333333333333333</ele><time>2026-04-19T09:10:27.001Z</time></trkpt><trkpt lat="44.93592204215443" lon="12.321949620540773"><ele>0.0</ele><time>2026-04-19T09:10:28.001Z</time></trkpt><trkpt lat="44.935804591040274" lon="12.322109992660335"><ele>-1.0</ele><time>2026-04-19T09:10:29.001Z</time></trkpt><trkpt lat="44.935683691011434" lon="12.322273031709276"><ele>-2.0</ele><time>2026-04-19T09:10:30.001Z</time></trkpt><trkpt lat="44.935561703936294" lon="12.32244036831327"><ele>-3.0</ele><time>2026-04-19T09:10:31.001Z</time></trkpt><trkpt lat="44.93544016301719" lon="12.322604994998311"><ele>-3.0</ele><time>2026-04-19T09:10:32.001Z</time></trkpt><trkpt lat="44.935322708948576" lon="12.32276492665333"><ele>-3.0</ele><time>2026-04-19T09:10:33.001Z</time></trkpt><trkpt lat="44.93520926132737" lon="12.322921657805084"><ele>-3.0</ele><time>2026-04-19T09:10:34.001Z</time></trkpt><trkpt lat="44.93510092117101" lon="12.323073219300086"><ele>-2.75</ele><time>2026-04-19T09:10:35.001Z</time></trkpt><trkpt lat="44.93499589940005" lon="12.323221292741227"><ele>-2.5</ele><time>2026-04-19T09:10:36.001Z</time></trkpt><trkpt lat="44.934894356078736" lon="12.3233758714327"><ele>-2.25</ele><time>2026-04-19T09:10:37.001Z</time></trkpt><trkpt lat="44.93479362747553" lon="12.323535361165133"><ele>-2.0</ele><time>2026-04-19T09:10:38.001Z</time></trkpt><trkpt lat="44.93469154295892" lon="12.323699645874287"><ele>-2.0</ele><time>2026-04-19T09:10:39.001Z</time></trkpt><trkpt lat="44.934587427847866" lon="12.32386763903272"><ele>-2.0</ele><time>2026-04-19T09:10:40.001Z</time></trkpt><trkpt lat="44.934481003159604" lon="12.324037297918757"><ele>-2.0</ele><time>2026-04-19T09:10:41.001Z</time></trkpt><trkpt lat="44.93436989463992" lon="12.324214154020845"><ele>-1.3333333333333333</ele><time>2026-04-19T09:10:42.001Z</time></trkpt><trkpt lat="44.9342593238244" lon="12.324393686183075"><ele>-0.6666666666666666</ele><time>2026-04-19T09:10:43.001Z</time></trkpt><trkpt lat="44.93414985840475" lon="12.324555569506899"><ele>0.0</ele><time>2026-04-19T09:10:44.001Z</time></trkpt><trkpt lat="44.93402610371004" lon="12.324690923924232"><ele>-0.6666666666666666</ele><time>2026-04-19T09:10:45.001Z</time></trkpt><trkpt lat="44.933888574061" lon="12.324810080448012"><ele>-1.3333333333333333</ele><time>2026-04-19T09:10:46.001Z</time></trkpt><trkpt lat="44.93373698074792" lon="12.324913970374178"><ele>-2.0</ele><time>2026-04-19T09:10:47.001Z</time></trkpt><trkpt lat="44.93357692875806" lon="12.325008887441683"><ele>-2.0</ele><time>2026-04-19T09:10:48.001Z</time></trkpt><trkpt lat="44.933412158675125" lon="12.325094584517345"><ele>-2.0</ele><time>2026-04-19T09:10:49.001Z</time></trkpt><trkpt lat="44.933245084087204" lon="12.325192598035024"><ele>-2.0</ele><time>2026-04-19T09:10:50.001Z</time></trkpt><trkpt lat="44.93308436864541" lon="12.325286111786069"><ele>-2.0</ele><time>2026-04-19T09:10:51.001Z</time></trkpt><trkpt lat="44.93293268657975" lon="12.325373585323518"><ele>-2.0</ele><time>2026-04-19T09:10:52.001Z</time></trkpt><trkpt lat="44.93278483251393" lon="12.325458707213151"><ele>-2.0</ele><time>2026-04-19T09:10:53.001Z</time></trkpt><trkpt lat="44.9326326557192" lon="12.325541785429877"><ele>-2.0</ele><time>2026-04-19T09:10:54.001Z</time></trkpt><trkpt lat="44.93247868404147" lon="12.325618006839388"><ele>-2.0</ele><time>2026-04-19T09:10:55.001Z</time></trkpt><trkpt lat="44.93232379012645" lon="12.325677259792862"><ele>-2.0</ele><time>2026-04-19T09:10:56.001Z</time></trkpt><trkpt lat="44.93216960916613" lon="12.325725119694283"><ele>-2.0</ele><time>2026-04-19T09:10:57.001Z</time></trkpt><trkpt lat="44.93202559530874" lon="12.32578088349247"><ele>-2.0</ele><time>2026-04-19T09:10:58.001Z</time></trkpt><trkpt lat="44.93188259105005" lon="12.325856393090056"><ele>-2.0</ele><time>2026-04-19T09:10:59.001Z</time></trkpt><trkpt lat="44.93174151824728" lon="12.325945458394422"><ele>-1.6666666666666665</ele><time>2026-04-19T09:11:00.001Z</time></trkpt><trkpt lat="44.93160165082928" lon="12.326034366635591"><ele>-1.3333333333333333</ele><time>2026-04-19T09:11:01.001Z</time></trkpt><trkpt lat="44.93146085286023" lon="12.326117544388193"><ele>-1.0</ele><time>2026-04-19T09:11:02.001Z</time></trkpt><trkpt lat="44.93131782232265" lon="12.3261946396253"><ele>-1.0</ele><time>2026-04-19T09:11:03.001Z</time></trkpt><trkpt lat="44.931177381817385" lon="12.326266061590285"><ele>-1.0</ele><time>2026-04-19T09:11:04.001Z</time></trkpt><trkpt lat="44.93104386351505" lon="12.326325266160522"><ele>-1.0</ele><time>2026-04-19T09:11:05.001Z</time></trkpt><trkpt lat="44.930907797929116" lon="12.32637292191651"><ele>-1.0</ele><time>2026-04-19T09:11:06.001Z</time></trkpt><trkpt lat="44.93076744496569" lon="12.326413825550949"><ele>-0.3333333333333333</ele><time>2026-04-19T09:11:07.001Z</time></trkpt><trkpt lat="44.9306219557356" lon="12.3264466402228"><ele>0.3333333333333333</ele><time>2026-04-19T09:11:08.001Z</time></trkpt><trkpt lat="44.93047280773974" lon="12.32646801427419"><ele>1.0</ele><time>2026-04-19T09:11:09.001Z</time></trkpt><trkpt lat="44.930316117910714" lon="12.326474261357994"><ele>1.0</ele><time>2026-04-19T09:11:10.001Z</time></trkpt><trkpt lat="44.930154106951456" lon="12.326466079184211"><ele>1.0</ele><time>2026-04-19T09:11:11.001Z</time></trkpt><trkpt lat="44.92998266957784" lon="12.326446156134297"><ele>1.0</ele><time>2026-04-19T09:11:12.001Z</time></trkpt><trkpt lat="44.929805484470506" lon="12.326423763258429"><ele>0.3333333333333333</ele><time>2026-04-19T09:11:13.001Z</time></trkpt><trkpt lat="44.92962650128602" lon="12.326397451578316"><ele>-0.3333333333333333</ele><time>2026-04-19T09:11:14.001Z</time></trkpt><trkpt lat="44.92945037566324" lon="12.326370678682304"><ele>-1.0</ele><time>2026-04-19T09:11:15.001Z</time></trkpt><trkpt lat="44.92927709222502" lon="12.326340585382024"><ele>-0.3333333333333333</ele><time>2026-04-19T09:11:16.001Z</time></trkpt><trkpt lat="44.92910352348792" lon="12.326311998112581"><ele>0.3333333333333333</ele><time>2026-04-19T09:11:17.001Z</time></trkpt><trkpt lat="44.92892817041765" lon="12.326282914381546"><ele>1.0</ele><time>2026-04-19T09:11:18.001Z</time></trkpt><trkpt lat="44.928751043574614" lon="12.326252915614946"><ele>1.0</ele><time>2026-04-19T09:11:19.001Z</time></trkpt><trkpt lat="44.92857559787039" lon="12.32622615151133"><ele>1.0</ele><time>2026-04-19T09:11:20.001Z</time></trkpt><trkpt lat="44.92839614614343" lon="12.326199835332934"><ele>1.0</ele><time>2026-04-19T09:11:21.001Z</time></trkpt><trkpt lat="44.92821360156781" lon="12.32617429794281"><ele>0.6666666666666666</ele><time>2026-04-19T09:11:22.001Z</time></trkpt><trkpt lat="44.92803376727446" lon="12.326148872463667"><ele>0.3333333333333333</ele><time>2026-04-19T09:11:23.001Z</time></trkpt><trkpt lat="44.927854804572405" lon="12.326124397146362"><ele>0.0</ele><time>2026-04-19T09:11:24.001Z</time></trkpt><trkpt lat="44.92767895551386" lon="12.326096846945221"><ele>-0.3333333333333333</ele><time>2026-04-19T09:11:25.001Z</time></trkpt><trkpt lat="44.92750325632674" lon="12.326069743911376"><ele>-0.6666666666666666</ele><time>2026-04-19T09:11:26.001Z</time></trkpt><trkpt lat="44.92732985906937" lon="12.326041291078024"><ele>-1.0</ele><time>2026-04-19T09:11:27.001Z</time></trkpt><trkpt lat="44.927157083730876" lon="12.326015092458148"><ele>-1.0</ele><time>2026-04-19T09:11:28.001Z</time></trkpt><trkpt lat="44.926992291285366" lon="12.325990492695407"><ele>-1.0</ele><time>2026-04-19T09:11:29.001Z</time></trkpt><trkpt lat="44.92684078730058" lon="12.325967811432424"><ele>-1.0</ele><time>2026-04-19T09:11:30.001Z</time></trkpt><trkpt lat="44.926697622408135" lon="12.325943001105452"><ele>-0.6666666666666666</ele><time>2026-04-19T09:11:31.001Z</time></trkpt><trkpt lat="44.92655083765246" lon="12.325907910013074"><ele>-0.3333333333333333</ele><time>2026-04-19T09:11:32.001Z</time></trkpt><trkpt lat="44.926401824116844" lon="12.325863180678539"><ele>0.0</ele><time>2026-04-19T09:11:33.001Z</time></trkpt><trkpt lat="44.926247133709175" lon="12.325796129366127"><ele>0.0</ele><time>2026-04-19T09:11:34.001Z</time></trkpt><trkpt lat="44.9261031947138" lon="12.32567246751382"><ele>0.0</ele><time>2026-04-19T09:11:35.001Z</time></trkpt><trkpt lat="44.92594339654019" lon="12.32555413395761"><ele>0.0</ele><time>2026-04-19T09:11:36.001Z</time></trkpt><trkpt lat="44.92579341024395" lon="12.325402425681219"><ele>0.3333333333333333</ele><time>2026-04-19T09:11:37.001Z</time></trkpt><trkpt lat="44.92563745259573" lon="12.325241911528176"><ele>0.6666666666666666</ele><time>2026-04-19T09:11:38.001Z</time></trkpt><trkpt lat="44.92547223526476" lon="12.325074614067011"><ele>1.0</ele><time>2026-04-19T09:11:39.001Z</time></trkpt><trkpt lat="44.92529357166979" lon="12.32489305574089"><ele>1.0</ele><time>2026-04-19T09:11:40.001Z</time></trkpt><trkpt lat="44.92512791947295" lon="12.324729883185055"><ele>1.0</ele><time>2026-04-19T09:11:41.001Z</time></trkpt><trkpt lat="44.92495893837995" lon="12.324561020740095"><ele>1.0</ele><time>2026-04-19T09:11:42.001Z</time></trkpt><trkpt lat="44.924792990214534" lon="12.324393955760076"><ele>1.6666666666666665</ele><time>2026-04-19T09:11:43.001Z</time></trkpt><trkpt lat="44.92462903070134" lon="12.324230265677514"><ele>2.3333333333333335</ele><time>2026-04-19T09:11:44.001Z</time></trkpt><trkpt lat="44.92446658510689" lon="12.324068433626174"><ele>3.0</ele><time>2026-04-19T09:11:45.001Z</time></trkpt><trkpt lat="44.924301732796586" lon="12.32390467563467"><ele>2.0</ele><time>2026-04-19T09:11:46.001Z</time></trkpt><trkpt lat="44.92413375689888" lon="12.323724541893958"><ele>1.0</ele><time>2026-04-19T09:11:47.001Z</time></trkpt><trkpt lat="44.92398257489397" lon="12.323566566249914"><ele>0.0</ele><time>2026-04-19T09:11:48.001Z</time></trkpt><trkpt lat="44.92382556675534" lon="12.323409397576924"><ele>0.0</ele><time>2026-04-19T09:11:49.001Z</time></trkpt><trkpt lat="44.92365674265459" lon="12.323268900836828"><ele>0.0</ele><time>2026-04-19T09:11:50.001Z</time></trkpt><trkpt lat="44.923497867007285" lon="12.323106433141673"><ele>0.0</ele><time>2026-04-19T09:11:51.001Z</time></trkpt><trkpt lat="44.923336945811506" lon="12.322944270765113"><ele>0.0</ele><time>2026-04-19T09:11:52.001Z</time></trkpt><trkpt lat="44.92317433408211" lon="12.322779368578797"><ele>0.0</ele><time>2026-04-19T09:11:53.001Z</time></trkpt><trkpt lat="44.923011721299574" lon="12.322613434582893"><ele>0.0</ele><time>2026-04-19T09:11:54.001Z</time></trkpt><trkpt lat="44.92284745242908" lon="12.322448200421995"><ele>0.0</ele><time>2026-04-19T09:11:55.001Z</time></trkpt><trkpt lat="44.92268319765912" lon="12.32228227392301"><ele>0.0</ele><time>2026-04-19T09:11:56.001Z</time></trkpt><trkpt lat="44.92252061318062" lon="12.322121426887275"><ele>0.0</ele><time>2026-04-19T09:11:57.001Z</time></trkpt><trkpt lat="44.92236035522448" lon="12.321960740980508"><ele>0.3333333333333333</ele><time>2026-04-19T09:11:58.001Z</time></trkpt><trkpt lat="44.92220253634253" lon="12.321795942215319"><ele>0.6666666666666666</ele><time>2026-04-19T09:11:59.001Z</time></trkpt><trkpt lat="44.92204526380601" lon="12.321639045549274"><ele>1.0</ele><time>2026-04-19T09:12:00.001Z</time></trkpt><trkpt lat="44.92190133997341" lon="12.32148874329967"><ele>0.6666666666666666</ele><time>2026-04-19T09:12:01.001Z</time></trkpt><trkpt lat="44.92175608804031" lon="12.321340902461511"><ele>0.3333333333333333</ele><time>2026-04-19T09:12:02.001Z</time></trkpt><trkpt lat="44.921595628718215" lon="12.321214445838425"><ele>0.0</ele><time>2026-04-19T09:12:03.001Z</time></trkpt><trkpt lat="44.921408115375826" lon="12.32113183682563"><ele>0.0</ele><time>2026-04-19T09:12:04.001Z</time></trkpt><trkpt lat="44.921199204710526" lon="12.321091029581932"><ele>0.0</ele><time>2026-04-19T09:12:05.001Z</time></trkpt><trkpt lat="44.92097325301761" lon="12.32107236575233"><ele>0.0</ele><time>2026-04-19T09:12:06.001Z</time></trkpt><trkpt lat="44.9207192539533" lon="12.321046241797031"><ele>-1.0</ele><time>2026-04-19T09:12:07.001Z</time></trkpt><trkpt lat="44.92044345496041" lon="12.321011763622556"><ele>-2.0</ele><time>2026-04-19T09:12:08.001Z</time></trkpt><trkpt lat="44.920157005841" lon="12.320973003694558"><ele>-2.5</ele><time>2026-04-19T09:12:09.001Z</time></trkpt><trkpt lat="44.91989876463809" lon="12.320935916504222"><ele>-3.0</ele><time>2026-04-19T09:12:10.001Z</time></trkpt><trkpt lat="44.91966134256562" lon="12.320902509200115"><ele>-3.0</ele><time>2026-04-19T09:12:11.001Z</time></trkpt><trkpt lat="44.91942631397233" lon="12.320869279551957"><ele>-3.0</ele><time>2026-04-19T09:12:12.001Z</time></trkpt><trkpt lat="44.9192006896563" lon="12.320839140932192"><ele>-3.0</ele><time>2026-04-19T09:12:13.001Z</time></trkpt><trkpt lat="44.918991023007145" lon="12.320812340221485"><ele>-3.0</ele><time>2026-04-19T09:12:14.001Z</time></trkpt><trkpt lat="44.918778494727775" lon="12.320757582967845"><ele>-3.0</ele><time>2026-04-19T09:12:15.001Z</time></trkpt><trkpt lat="44.91855952464273" lon="12.320724585795217"><ele>-2.6666666666666665</ele><time>2026-04-19T09:12:16.001Z</time></trkpt><trkpt lat="44.91835128538884" lon="12.320713961518729"><ele>-2.333333333333333</ele><time>2026-04-19T09:12:17.001Z</time></trkpt><trkpt lat="44.918152432041325" lon="12.320679980860573"><ele>-2.0</ele><time>2026-04-19T09:12:18.001Z</time></trkpt><trkpt lat="44.91794967353729" lon="12.320642913980867"><ele>-2.0</ele><time>2026-04-19T09:12:19.001Z</time></trkpt><trkpt lat="44.91774764752739" lon="12.32061253278437"><ele>-2.0</ele><time>2026-04-19T09:12:20.001Z</time></trkpt><trkpt lat="44.917548131409674" lon="12.320585477849656"><ele>-2.0</ele><time>2026-04-19T09:12:21.001Z</time></trkpt><trkpt lat="44.91734998136265" lon="12.32055774334378"><ele>-1.3333333333333333</ele><time>2026-04-19T09:12:22.001Z</time></trkpt><trkpt lat="44.917151176014805" lon="12.320530629189813"><ele>-0.6666666666666666</ele><time>2026-04-19T09:12:23.001Z</time></trkpt><trkpt lat="44.916953290995295" lon="12.320497715324134"><ele>0.0</ele><time>2026-04-19T09:12:24.001Z</time></trkpt><trkpt lat="44.916750421607794" lon="12.320465073674018"><ele>-0.3333333333333333</ele><time>2026-04-19T09:12:25.001Z</time></trkpt><trkpt lat="44.91654820856336" lon="12.32043267104216"><ele>-0.6666666666666666</ele><time>2026-04-19T09:12:26.001Z</time></trkpt><trkpt lat="44.916339286515495" lon="12.320398713253427"><ele>-1.0</ele><time>2026-04-19T09:12:27.001Z</time></trkpt><trkpt lat="44.916125070497756" lon="12.320368512190193"><ele>-1.0</ele><time>2026-04-19T09:12:28.001Z</time></trkpt><trkpt lat="44.91590554768258" lon="12.320338479109429"><ele>-1.0</ele><time>2026-04-19T09:12:29.001Z</time></trkpt><trkpt lat="44.91568700649756" lon="12.320306795649127"><ele>-1.0</ele><time>2026-04-19T09:12:30.001Z</time></trkpt><trkpt lat="44.915472384692265" lon="12.320272512362607"><ele>-1.3333333333333333</ele><time>2026-04-19T09:12:31.001Z</time></trkpt><trkpt lat="44.91526528708054" lon="12.320240658861469"><ele>-1.6666666666666665</ele><time>2026-04-19T09:12:32.001Z</time></trkpt><trkpt lat="44.91505938378356" lon="12.320217777684709"><ele>-2.0</ele><time>2026-04-19T09:12:33.001Z</time></trkpt><trkpt lat="44.914847944876705" lon="12.320212852467575"><ele>-2.0</ele><time>2026-04-19T09:12:34.001Z</time></trkpt><trkpt lat="44.914629321118625" lon="12.320217733807592"><ele>-2.0</ele><time>2026-04-19T09:12:35.001Z</time></trkpt><trkpt lat="44.91443005530015" lon="12.320231842427523"><ele>-2.0</ele><time>2026-04-19T09:12:36.001Z</time></trkpt><trkpt lat="44.914232055503156" lon="12.320230616276083"><ele>-1.6666666666666665</ele><time>2026-04-19T09:12:37.001Z</time></trkpt><trkpt lat="44.91403050943904" lon="12.320219179410657"><ele>-1.3333333333333333</ele><time>2026-04-19T09:12:38.001Z</time></trkpt><trkpt lat="44.913821257577325" lon="12.320187053304423"><ele>-1.0</ele><time>2026-04-19T09:12:39.001Z</time></trkpt><trkpt lat="44.913615741097665" lon="12.320104602088069"><ele>-1.0</ele><time>2026-04-19T09:12:40.001Z</time></trkpt><trkpt lat="44.91341501082008" lon="12.320005890294972"><ele>-1.0</ele><time>2026-04-19T09:12:41.001Z</time></trkpt><trkpt lat="44.913228106054525" lon="12.319891396702982"><ele>-1.0</ele><time>2026-04-19T09:12:42.001Z</time></trkpt><trkpt lat="44.9130419098682" lon="12.319761376829693"><ele>-1.0</ele><time>2026-04-19T09:12:43.001Z</time></trkpt><trkpt lat="44.91284981448096" lon="12.319641509112698"><ele>-1.0</ele><time>2026-04-19T09:12:44.001Z</time></trkpt><trkpt lat="44.91267050161144" lon="12.319496312508265"><ele>-1.0</ele><time>2026-04-19T09:12:45.001Z</time></trkpt><trkpt lat="44.91249188501933" lon="12.319355873781916"><ele>-1.0</ele><time>2026-04-19T09:12:46.001Z</time></trkpt><trkpt lat="44.912313424903935" lon="12.31921752739254"><ele>-1.0</ele><time>2026-04-19T09:12:47.001Z</time></trkpt><trkpt lat="44.91213825903238" lon="12.31907690485556"><ele>-1.0</ele><time>2026-04-19T09:12:48.001Z</time></trkpt><trkpt lat="44.91196513338819" lon="12.318931701309653"><ele>-0.3333333333333333</ele><time>2026-04-19T09:12:49.001Z</time></trkpt><trkpt lat="44.911792582071776" lon="12.318776317176738"><ele>0.3333333333333333</ele><time>2026-04-19T09:12:50.001Z</time></trkpt><trkpt lat="44.91162443372788" lon="12.318605683111874"><ele>1.0</ele><time>2026-04-19T09:12:51.001Z</time></trkpt><trkpt lat="44.91147660968219" lon="12.318403234946073"><ele>1.0</ele><time>2026-04-19T09:12:52.001Z</time></trkpt><trkpt lat="44.911314601788355" lon="12.318207048743732"><ele>1.0</ele><time>2026-04-19T09:12:53.001Z</time></trkpt><trkpt lat="44.911142111097526" lon="12.318027560357022"><ele>1.0</ele><time>2026-04-19T09:12:54.001Z</time></trkpt><trkpt lat="44.91098046175318" lon="12.317827936681603"><ele>1.0</ele><time>2026-04-19T09:12:55.001Z</time></trkpt><trkpt lat="44.910822463255464" lon="12.317633999423885"><ele>1.0</ele><time>2026-04-19T09:12:56.001Z</time></trkpt><trkpt lat="44.91066304318917" lon="12.317436823898097"><ele>1.0</ele><time>2026-04-19T09:12:57.001Z</time></trkpt><trkpt lat="44.910500847221726" lon="12.317232972277663"><ele>1.0</ele><time>2026-04-19T09:12:58.001Z</time></trkpt><trkpt lat="44.91033878588193" lon="12.317031532917916"><ele>1.0</ele><time>2026-04-19T09:12:59.001Z</time></trkpt><trkpt lat="44.91018438470924" lon="12.316846687133223"><ele>1.0</ele><time>2026-04-19T09:13:00.001Z</time></trkpt><trkpt lat="44.91004381383159" lon="12.316654027349857"><ele>1.0</ele><time>2026-04-19T09:13:01.001Z</time></trkpt><trkpt lat="44.90989289515546" lon="12.316473840136341"><ele>1.0</ele><time>2026-04-19T09:13:02.001Z</time></trkpt><trkpt lat="44.909684105802285" lon="12.316382885494841"><ele>1.0</ele><time>2026-04-19T09:13:03.001Z</time></trkpt><trkpt lat="44.90948264628071" lon="12.316271984985383"><ele>1.0</ele><time>2026-04-19T09:13:04.001Z</time></trkpt><trkpt lat="44.909281917990384" lon="12.316170926826242"><ele>1.0</ele><time>2026-04-19T09:13:05.001Z</time></trkpt><trkpt lat="44.90908886911676" lon="12.316064912628402"><ele>1.0</ele><time>2026-04-19T09:13:06.001Z</time></trkpt><trkpt lat="44.908909320122454" lon="12.315963410147065"><ele>1.3333333333333333</ele><time>2026-04-19T09:13:07.001Z</time></trkpt><trkpt lat="44.908733968142" lon="12.31586350704186"><ele>1.6666666666666665</ele><time>2026-04-19T09:13:08.001Z</time></trkpt><trkpt lat="44.90856487997434" lon="12.315767444105356"><ele>2.0</ele><time>2026-04-19T09:13:09.001Z</time></trkpt><trkpt lat="44.90840097637859" lon="12.315669088915435"><ele>2.333333333333333</ele><time>2026-04-19T09:13:10.001Z</time></trkpt><trkpt lat="44.90824654472902" lon="12.315576705092255"><ele>2.6666666666666665</ele><time>2026-04-19T09:13:11.001Z</time></trkpt><trkpt lat="44.90809835058439" lon="12.315491038871002"><ele>3.0</ele><time>2026-04-19T09:13:12.001Z</time></trkpt><trkpt lat="44.90795332264551" lon="12.315406720898086"><ele>3.0</ele><time>2026-04-19T09:13:13.001Z</time></trkpt><trkpt lat="44.90781363775735" lon="12.315329132856034"><ele>3.0</ele><time>2026-04-19T09:13:14.001Z</time></trkpt><trkpt lat="44.90766689043746" lon="12.315249277584721"><ele>3.0</ele><time>2026-04-19T09:13:15.001Z</time></trkpt><trkpt lat="44.907508244955956" lon="12.315180368395067"><ele>2.3333333333333335</ele><time>2026-04-19T09:13:16.001Z</time></trkpt><trkpt lat="44.9073475583018" lon="12.315123915901705"><ele>1.6666666666666665</ele><time>2026-04-19T09:13:17.001Z</time></trkpt><trkpt lat="44.90719819407162" lon="12.315081838486218"><ele>1.0</ele><time>2026-04-19T09:13:18.001Z</time></trkpt><trkpt lat="44.90704572959436" lon="12.315053136636278"><ele>1.0</ele><time>2026-04-19T09:13:19.001Z</time></trkpt><trkpt lat="44.90689076805719" lon="12.315036336524019"><ele>1.0</ele><time>2026-04-19T09:13:20.001Z</time></trkpt><trkpt lat="44.906730174799684" lon="12.315033315752991"><ele>1.0</ele><time>2026-04-19T09:13:21.001Z</time></trkpt><trkpt lat="44.90656325279857" lon="12.31505109359985"><ele>1.0</ele><time>2026-04-19T09:13:22.001Z</time></trkpt><trkpt lat="44.906386645906096" lon="12.315082990201908"><ele>1.0</ele><time>2026-04-19T09:13:23.001Z</time></trkpt><trkpt lat="44.9062040017557" lon="12.31512034771286"><ele>1.0</ele><time>2026-04-19T09:13:24.001Z</time></trkpt><trkpt lat="44.90601332828496" lon="12.315160564267051"><ele>1.3333333333333333</ele><time>2026-04-19T09:13:25.001Z</time></trkpt><trkpt lat="44.905815043563514" lon="12.315196856391804"><ele>1.6666666666666665</ele><time>2026-04-19T09:13:26.001Z</time></trkpt><trkpt lat="44.905611483865876" lon="12.315228432792319"><ele>2.0</ele><time>2026-04-19T09:13:27.001Z</time></trkpt><trkpt lat="44.90540913825559" lon="12.315267271457678"><ele>2.0</ele><time>2026-04-19T09:13:28.001Z</time></trkpt><trkpt lat="44.90521138474802" lon="12.31533086552629"><ele>2.0</ele><time>2026-04-19T09:13:29.001Z</time></trkpt><trkpt lat="44.905013711059034" lon="12.315432641035764"><ele>2.0</ele><time>2026-04-19T09:13:30.001Z</time></trkpt><trkpt lat="44.904838026715964" lon="12.315549083694002"><ele>0.6666666666666666</ele><time>2026-04-19T09:13:31.001Z</time></trkpt><trkpt lat="44.904678486987216" lon="12.315653222703101"><ele>-0.6666666666666666</ele><time>2026-04-19T09:13:32.001Z</time></trkpt><trkpt lat="44.90453167553503" lon="12.31574260860243"><ele>-2.0</ele><time>2026-04-19T09:13:33.001Z</time></trkpt><trkpt lat="44.90438913934818" lon="12.315824821295903"><ele>-2.0</ele><time>2026-04-19T09:13:34.001Z</time></trkpt><trkpt lat="44.904252609801766" lon="12.31590258572442"><ele>-2.0</ele><time>2026-04-19T09:13:35.001Z</time></trkpt><trkpt lat="44.90411818161671" lon="12.315977885632215"><ele>-2.0</ele><time>2026-04-19T09:13:36.001Z</time></trkpt><trkpt lat="44.903986586583486" lon="12.316049588453792"><ele>-2.0</ele><time>2026-04-19T09:13:37.001Z</time></trkpt><trkpt lat="44.90385157372806" lon="12.31612146149663"><ele>-2.0</ele><time>2026-04-19T09:13:38.001Z</time></trkpt><trkpt lat="44.903727090555506" lon="12.316188709639555"><ele>-2.0</ele><time>2026-04-19T09:13:39.001Z</time></trkpt><trkpt lat="44.90361286432751" lon="12.316254940195556"><ele>-2.0</ele><time>2026-04-19T09:13:40.001Z</time></trkpt><trkpt lat="44.90349506650569" lon="12.316326081096209"><ele>-2.0</ele><time>2026-04-19T09:13:41.001Z</time></trkpt><trkpt lat="44.903366639812035" lon="12.316418058389841"><ele>-2.0</ele><time>2026-04-19T09:13:42.001Z</time></trkpt><trkpt lat="44.90322745723561" lon="12.316537294513273"><ele>-2.0</ele><time>2026-04-19T09:13:43.001Z</time></trkpt><trkpt lat="44.90308307874636" lon="12.316695253305989"><ele>-2.0</ele><time>2026-04-19T09:13:44.001Z</time></trkpt><trkpt lat="44.90294993406511" lon="12.316888771751959"><ele>-2.0</ele><time>2026-04-19T09:13:45.001Z</time></trkpt><trkpt lat="44.902822289526725" lon="12.317102286143562"><ele>-2.0</ele><time>2026-04-19T09:13:46.001Z</time></trkpt><trkpt lat="44.902700168142395" lon="12.31729759277963"><ele>-2.0</ele><time>2026-04-19T09:13:47.001Z</time></trkpt><trkpt lat="44.90257839301932" lon="12.317490953987518"><ele>-2.0</ele><time>2026-04-19T09:13:48.001Z</time></trkpt><trkpt lat="44.902453768568726" lon="12.317686034565163"><ele>-2.0</ele><time>2026-04-19T09:13:49.001Z</time></trkpt><trkpt lat="44.902325008180625" lon="12.317882755231029"><ele>-2.0</ele><time>2026-04-19T09:13:50.001Z</time></trkpt><trkpt lat="44.902196253833935" lon="12.318081204184367"><ele>-2.0</ele><time>2026-04-19T09:13:51.001Z</time></trkpt><trkpt lat="44.902066428654784" lon="12.318282330688925"><ele>-2.0</ele><time>2026-04-19T09:13:52.001Z</time></trkpt><trkpt lat="44.901943893739244" lon="12.31847494032081"><ele>-2.0</ele><time>2026-04-19T09:13:53.001Z</time></trkpt><trkpt lat="44.90183467709892" lon="12.318660998079649"><ele>-1.6666666666666665</ele><time>2026-04-19T09:13:54.001Z</time></trkpt><trkpt lat="44.90172974774667" lon="12.318861402206185"><ele>-1.3333333333333333</ele><time>2026-04-19T09:13:55.001Z</time></trkpt><trkpt lat="44.90163974030524" lon="12.319090134975374"><ele>-1.0</ele><time>2026-04-19T09:13:56.001Z</time></trkpt><trkpt lat="44.90156284907943" lon="12.319342612725963"><ele>-1.0</ele><time>2026-04-19T09:13:57.001Z</time></trkpt><trkpt lat="44.90149766227754" lon="12.319603893250557"><ele>-1.0</ele><time>2026-04-19T09:13:58.001Z</time></trkpt><trkpt lat="44.90143302654276" lon="12.3198457009278"><ele>-1.0</ele><time>2026-04-19T09:13:59.001Z</time></trkpt><trkpt lat="44.90135705470561" lon="12.320062951176494"><ele>-1.0</ele><time>2026-04-19T09:14:00.001Z</time></trkpt><trkpt lat="44.90125684458673" lon="12.320266907862493"><ele>-1.0</ele><time>2026-04-19T09:14:01.001Z</time></trkpt><trkpt lat="44.90113206373365" lon="12.32046152262891"><ele>-1.0</ele><time>2026-04-19T09:14:02.001Z</time></trkpt><trkpt lat="44.90098975892662" lon="12.320654383054205"><ele>-0.6666666666666666</ele><time>2026-04-19T09:14:03.001Z</time></trkpt><trkpt lat="44.9008403680066" lon="12.320852869300388"><ele>-0.3333333333333333</ele><time>2026-04-19T09:14:04.001Z</time></trkpt><trkpt lat="44.90069414258216" lon="12.321040061324975"><ele>0.0</ele><time>2026-04-19T09:14:05.001Z</time></trkpt><trkpt lat="44.90055736538517" lon="12.32121534457432"><ele>0.0</ele><time>2026-04-19T09:14:06.001Z</time></trkpt><trkpt lat="44.90042563336627" lon="12.321387374469328"><ele>0.0</ele><time>2026-04-19T09:14:07.001Z</time></trkpt><trkpt lat="44.900293179979926" lon="12.321555383013221"><ele>0.0</ele><time>2026-04-19T09:14:08.001Z</time></trkpt><trkpt lat="44.90015661736795" lon="12.32172066365233"><ele>0.3333333333333333</ele><time>2026-04-19T09:14:09.001Z</time></trkpt><trkpt lat="44.90002131323453" lon="12.321880520611723"><ele>0.6666666666666666</ele><time>2026-04-19T09:14:10.001Z</time></trkpt><trkpt lat="44.89988767046711" lon="12.322037646355954"><ele>1.0</ele><time>2026-04-19T09:14:11.001Z</time></trkpt><trkpt lat="44.89975276346196" lon="12.322192733699673"><ele>0.3333333333333333</ele><time>2026-04-19T09:14:12.001Z</time></trkpt><trkpt lat="44.89961252736461" lon="12.322352808004073"><ele>-0.3333333333333333</ele><time>2026-04-19T09:14:13.001Z</time></trkpt><trkpt lat="44.899475125840354" lon="12.322511543780683"><ele>-1.0</ele><time>2026-04-19T09:14:14.001Z</time></trkpt><trkpt lat="44.89934068948293" lon="12.322670437841797"><ele>-0.3333333333333333</ele><time>2026-04-19T09:14:15.001Z</time></trkpt><trkpt lat="44.899211098293016" lon="12.322826418790022"><ele>0.3333333333333333</ele><time>2026-04-19T09:14:16Z</time></trkpt><trkpt lat="44.8990647636722" lon="12.32297397367301"><ele>1.0</ele><time>2026-04-19T09:14:17Z</time></trkpt><trkpt lat="44.89892067044653" lon="12.323140346288753"><ele>-0.33333333333333337</ele><time>2026-04-19T09:14:18Z</time></trkpt><trkpt lat="44.89877721440375" lon="12.323307988960085"><ele>-1.6666666666666667</ele><time>2026-04-19T09:14:19Z</time></trkpt><trkpt lat="44.89862739755697" lon="12.32348306483545"><ele>-3.0</ele><time>2026-04-19T09:14:20Z</time></trkpt><trkpt lat="44.898465466160744" lon="12.323669957301536"><ele>-2.3333333333333335</ele><time>2026-04-19T09:14:21Z</time></trkpt><trkpt lat="44.89831962348642" lon="12.32385021125991"><ele>-1.6666666666666665</ele><time>2026-04-19T09:14:22Z</time></trkpt><trkpt lat="44.89818136839658" lon="12.324014668809054"><ele>-1.0</ele><time>2026-04-19T09:14:23Z</time></trkpt><trkpt lat="44.89804684229089" lon="12.32416813626457"><ele>-1.0</ele><time>2026-04-19T09:14:24Z</time></trkpt><trkpt lat="44.897909870903106" lon="12.324322223143952"><ele>-1.0</ele><time>2026-04-19T09:14:25Z</time></trkpt><trkpt lat="44.89777078067801" lon="12.324484349122478"><ele>-1.0</ele><time>2026-04-19T09:14:26Z</time></trkpt><trkpt lat="44.89762943911857" lon="12.324661210002054"><ele>-0.6666666666666666</ele><time>2026-04-19T09:14:27Z</time></trkpt><trkpt lat="44.89748904103392" lon="12.324843111965771"><ele>-0.3333333333333333</ele><time>2026-04-19T09:14:28Z</time></trkpt><trkpt lat="44.89734924545963" lon="12.325023162859225"><ele>0.0</ele><time>2026-04-19T09:14:29Z</time></trkpt><trkpt lat="44.89720703365066" lon="12.325210661121181"><ele>0.0</ele><time>2026-04-19T09:14:30Z</time></trkpt><trkpt lat="44.897072007934625" lon="12.325390051343165"><ele>0.0</ele><time>2026-04-19T09:14:31Z</time></trkpt><trkpt lat="44.8969389237174" lon="12.325530097393802"><ele>0.0</ele><time>2026-04-19T09:14:32Z</time></trkpt><trkpt lat="44.896834944777694" lon="12.3256887262443"><ele>0.0</ele><time>2026-04-19T09:14:33Z</time></trkpt><trkpt lat="44.89671723480554" lon="12.325832989578284"><ele>0.0</ele><time>2026-04-19T09:14:34Z</time></trkpt><trkpt lat="44.896594152091765" lon="12.325983726046287"><ele>0.0</ele><time>2026-04-19T09:14:35Z</time></trkpt><trkpt lat="44.89646568324588" lon="12.326142356280396"><ele>0.0</ele><time>2026-04-19T09:14:36Z</time></trkpt><trkpt lat="44.896336142760525" lon="12.32630259599071"><ele>0.0</ele><time>2026-04-19T09:14:37Z</time></trkpt><trkpt lat="44.89621050716591" lon="12.326461368036528"><ele>0.0</ele><time>2026-04-19T09:14:38Z</time></trkpt><trkpt lat="44.896082857691454" lon="12.32661887458235"><ele>0.6666666666666666</ele><time>2026-04-19T09:14:39Z</time></trkpt><trkpt lat="44.8959506177012" lon="12.326780458021009"><ele>1.3333333333333333</ele><time>2026-04-19T09:14:40Z</time></trkpt><trkpt lat="44.89581160282799" lon="12.32693298106622"><ele>2.0</ele><time>2026-04-19T09:14:41Z</time></trkpt><trkpt lat="44.895669666047496" lon="12.327075622490597"><ele>2.0</ele><time>2026-04-19T09:14:42Z</time></trkpt><trkpt lat="44.89552378445509" lon="12.327218280062956"><ele>2.0</ele><time>2026-04-19T09:14:43Z</time></trkpt><trkpt lat="44.895373570110074" lon="12.327350534446255"><ele>2.0</ele><time>2026-04-19T09:14:44Z</time></trkpt><trkpt lat="44.895222193330895" lon="12.32747394268507"><ele>1.3333333333333333</ele><time>2026-04-19T09:14:45Z</time></trkpt><trkpt lat="44.89506532024505" lon="12.327587471184078"><ele>0.6666666666666666</ele><time>2026-04-19T09:14:46Z</time></trkpt><trkpt lat="44.89490752144809" lon="12.3276933067464"><ele>0.0</ele><time>2026-04-19T09:14:47Z</time></trkpt><trkpt lat="44.894748922325" lon="12.327796659621946"><ele>0.0</ele><time>2026-04-19T09:14:48Z</time></trkpt><trkpt lat="44.89459854237018" lon="12.327893777734023"><ele>0.0</ele><time>2026-04-19T09:14:49Z</time></trkpt><trkpt lat="44.8944705817715" lon="12.327984585022323"><ele>0.0</ele><time>2026-04-19T09:14:50Z</time></trkpt><trkpt lat="44.894347766349185" lon="12.328072449431032"><ele>0.0</ele><time>2026-04-19T09:14:51Z</time></trkpt><trkpt lat="44.894224027890836" lon="12.3281512128325"><ele>-0.5</ele><time>2026-04-19T09:14:52Z</time></trkpt><trkpt lat="44.894104756146774" lon="12.32822259416136"><ele>-1.0</ele><time>2026-04-19T09:14:53Z</time></trkpt><trkpt lat="44.89397959686508" lon="12.328292178682261"><ele>-1.5</ele><time>2026-04-19T09:14:54Z</time></trkpt><trkpt lat="44.893852052917694" lon="12.328363620969949"><ele>-2.0</ele><time>2026-04-19T09:14:55Z</time></trkpt><trkpt lat="44.893722590514685" lon="12.328437904882145"><ele>-2.0</ele><time>2026-04-19T09:14:56.001Z</time></trkpt><trkpt lat="44.89358979086271" lon="12.328509974497338"><ele>-2.0</ele><time>2026-04-19T09:14:57.001Z</time></trkpt><trkpt lat="44.89345234484311" lon="12.328576542756467"><ele>-2.0</ele><time>2026-04-19T09:14:58.001Z</time></trkpt><trkpt lat="44.893306788484054" lon="12.328635759365932"><ele>-2.0</ele><time>2026-04-19T09:14:59.001Z</time></trkpt><trkpt lat="44.89314271759303" lon="12.32866988184676"><ele>-1.3333333333333333</ele><time>2026-04-19T09:15:00.001Z</time></trkpt><trkpt lat="44.89296977629006" lon="12.328696970943437"><ele>-0.6666666666666666</ele><time>2026-04-19T09:15:01.001Z</time></trkpt><trkpt lat="44.89279228659515" lon="12.32870975908082"><ele>0.0</ele><time>2026-04-19T09:15:02.001Z</time></trkpt><trkpt lat="44.89261552707268" lon="12.328711462112027"><ele>0.3333333333333333</ele><time>2026-04-19T09:15:03.001Z</time></trkpt><trkpt lat="44.89243884120539" lon="12.328707551786886"><ele>0.6666666666666666</ele><time>2026-04-19T09:15:04.001Z</time></trkpt><trkpt lat="44.89226299764279" lon="12.328697178508934"><ele>1.0</ele><time>2026-04-19T09:15:05.001Z</time></trkpt><trkpt lat="44.892088932679975" lon="12.328687299391328"><ele>1.0</ele><time>2026-04-19T09:15:06.001Z</time></trkpt><trkpt lat="44.89191063763153" lon="12.328677679885214"><ele>1.0</ele><time>2026-04-19T09:15:07.001Z</time></trkpt><trkpt lat="44.89173050274707" lon="12.328666573610208"><ele>1.0</ele><time>2026-04-19T09:15:08.001Z</time></trkpt><trkpt lat="44.8915556310561" lon="12.3286503404103"><ele>1.0</ele><time>2026-04-19T09:15:09.001Z</time></trkpt><trkpt lat="44.89138800423166" lon="12.328632531193728"><ele>1.0</ele><time>2026-04-19T09:15:10.001Z</time></trkpt><trkpt lat="44.891213093289586" lon="12.328611952829606"><ele>1.0</ele><time>2026-04-19T09:15:11.001Z</time></trkpt><trkpt lat="44.89103820781155" lon="12.328598912499"><ele>0.6666666666666666</ele><time>2026-04-19T09:15:12.001Z</time></trkpt><trkpt lat="44.890864467833424" lon="12.328594482589699"><ele>0.3333333333333333</ele><time>2026-04-19T09:15:13.001Z</time></trkpt><trkpt lat="44.890684988840384" lon="12.328593134524743"><ele>0.0</ele><time>2026-04-19T09:15:14.001Z</time></trkpt><trkpt lat="44.89050350913131" lon="12.328589913480469"><ele>0.0</ele><time>2026-04-19T09:15:15.001Z</time></trkpt><trkpt lat="44.890318623039626" lon="12.328584535120164"><ele>0.0</ele><time>2026-04-19T09:15:16.001Z</time></trkpt><trkpt lat="44.89013116050658" lon="12.328573113397146"><ele>0.0</ele><time>2026-04-19T09:15:17.001Z</time></trkpt><trkpt lat="44.88994063167381" lon="12.328557232033814"><ele>-0.6666666666666666</ele><time>2026-04-19T09:15:18.001Z</time></trkpt><trkpt lat="44.889747061409295" lon="12.328533202991203"><ele>-1.3333333333333333</ele><time>2026-04-19T09:15:19.001Z</time></trkpt><trkpt lat="44.889551952642535" lon="12.32847023381428"><ele>-2.0</ele><time>2026-04-19T09:15:20.001Z</time></trkpt><trkpt lat="44.88934603895305" lon="12.328434455542254"><ele>-1.6666666666666665</ele><time>2026-04-19T09:15:21.001Z</time></trkpt><trkpt lat="44.88913985435259" lon="12.328368721780413"><ele>-1.3333333333333333</ele><time>2026-04-19T09:15:22.001Z</time></trkpt><trkpt lat="44.88893331841434" lon="12.328308626733792"><ele>-1.0</ele><time>2026-04-19T09:15:23.001Z</time></trkpt><trkpt lat="44.888727289864484" lon="12.328248447006121"><ele>-1.0</ele><time>2026-04-19T09:15:24.001Z</time></trkpt><trkpt lat="44.88853018818039" lon="12.328181302015516"><ele>-1.0</ele><time>2026-04-19T09:15:25.001Z</time></trkpt><trkpt lat="44.88834462429287" lon="12.328106872589181"><ele>-1.0</ele><time>2026-04-19T09:15:26.001Z</time></trkpt><trkpt lat="44.888156642988534" lon="12.328057106829243"><ele>-0.3333333333333333</ele><time>2026-04-19T09:15:27.001Z</time></trkpt><trkpt lat="44.88796103484369" lon="12.328038659375078"><ele>0.3333333333333333</ele><time>2026-04-19T09:15:28.001Z</time></trkpt><trkpt lat="44.88776719254256" lon="12.32806101272264"><ele>1.0</ele><time>2026-04-19T09:15:29.001Z</time></trkpt><trkpt lat="44.887553222008776" lon="12.328115739366797"><ele>1.5</ele><time>2026-04-19T09:15:30.001Z</time></trkpt><trkpt lat="44.887334602523666" lon="12.328168888246958"><ele>2.0</ele><time>2026-04-19T09:15:31.001Z</time></trkpt><trkpt lat="44.88710082235662" lon="12.32823328174983"><ele>2.0</ele><time>2026-04-19T09:15:32.001Z</time></trkpt><trkpt lat="44.88686487057685" lon="12.32830477356898"><ele>2.0</ele><time>2026-04-19T09:15:33.001Z</time></trkpt><trkpt lat="44.88663488227008" lon="12.328382313512003"><ele>2.0</ele><time>2026-04-19T09:15:34.001Z</time></trkpt><trkpt lat="44.88640871118524" lon="12.32846632692927"><ele>2.0</ele><time>2026-04-19T09:15:35.001Z</time></trkpt><trkpt lat="44.886185953814746" lon="12.328557329260832"><ele>2.0</ele><time>2026-04-19T09:15:36.001Z</time></trkpt><trkpt lat="44.88596625009577" lon="12.328661637810923"><ele>2.0</ele><time>2026-04-19T09:15:37.001Z</time></trkpt><trkpt lat="44.885750196425704" lon="12.328772623944136"><ele>1.5</ele><time>2026-04-19T09:15:38.001Z</time></trkpt><trkpt lat="44.88553466340068" lon="12.328888234880226"><ele>1.0</ele><time>2026-04-19T09:15:39.001Z</time></trkpt><trkpt lat="44.885324774657036" lon="12.32900260841523"><ele>1.0</ele><time>2026-04-19T09:15:40.001Z</time></trkpt><trkpt lat="44.885114622557396" lon="12.329116941625838"><ele>1.0</ele><time>2026-04-19T09:15:41.001Z</time></trkpt><trkpt lat="44.884901090643815" lon="12.329233574487112"><ele>1.0</ele><time>2026-04-19T09:15:42.001Z</time></trkpt><trkpt lat="44.884687515265256" lon="12.329347167603997"><ele>1.0</ele><time>2026-04-19T09:15:43.001Z</time></trkpt><trkpt lat="44.884474572446194" lon="12.329462075235368"><ele>1.0</ele><time>2026-04-19T09:15:44.001Z</time></trkpt><trkpt lat="44.88426340553754" lon="12.329579291412823"><ele>1.0</ele><time>2026-04-19T09:15:45.001Z</time></trkpt><trkpt lat="44.88405660035389" lon="12.329699367020705"><ele>0.0</ele><time>2026-04-19T09:15:46.001Z</time></trkpt><trkpt lat="44.883854611040036" lon="12.329836668332584"><ele>-1.0</ele><time>2026-04-19T09:15:47.001Z</time></trkpt><trkpt lat="44.88366243125104" lon="12.329995677212302"><ele>-2.0</ele><time>2026-04-19T09:15:48.001Z</time></trkpt><trkpt lat="44.88347564219845" lon="12.330171866555423"><ele>-1.6666666666666665</ele><time>2026-04-19T09:15:49.001Z</time></trkpt><trkpt lat="44.88329379960351" lon="12.330355842081193"><ele>-1.3333333333333333</ele><time>2026-04-19T09:15:50.001Z</time></trkpt><trkpt lat="44.88311775835739" lon="12.330541106234097"><ele>-1.0</ele><time>2026-04-19T09:15:51.001Z</time></trkpt><trkpt lat="44.88294389442482" lon="12.330720823826118"><ele>-1.0</ele><time>2026-04-19T09:15:52.001Z</time></trkpt><trkpt lat="44.882767920901145" lon="12.330898523322382"><ele>-1.0</ele><time>2026-04-19T09:15:53.001Z</time></trkpt><trkpt lat="44.88259265040496" lon="12.331077584788305"><ele>-1.0</ele><time>2026-04-19T09:15:54.001Z</time></trkpt><trkpt lat="44.88241799057021" lon="12.331259875877283"><ele>-1.0</ele><time>2026-04-19T09:15:55.001Z</time></trkpt><trkpt lat="44.88224145337548" lon="12.331447648126295"><ele>-1.0</ele><time>2026-04-19T09:15:56.001Z</time></trkpt><trkpt lat="44.882065101492316" lon="12.3316432168089"><ele>-1.0</ele><time>2026-04-19T09:15:57.001Z</time></trkpt><trkpt lat="44.88188865409289" lon="12.331846648881909"><ele>-0.5</ele><time>2026-04-19T09:15:58.001Z</time></trkpt><trkpt lat="44.88171772292708" lon="12.332056015956425"><ele>0.0</ele><time>2026-04-19T09:15:59.001Z</time></trkpt><trkpt lat="44.881553321803025" lon="12.33227274766169"><ele>-0.6666666666666666</ele><time>2026-04-19T09:16:00.001Z</time></trkpt><trkpt lat="44.88138893007608" lon="12.332488926093186"><ele>-1.3333333333333333</ele><time>2026-04-19T09:16:01.001Z</time></trkpt><trkpt lat="44.881225730002456" lon="12.332700963560107"><ele>-2.0</ele><time>2026-04-19T09:16:02.001Z</time></trkpt><trkpt lat="44.881059622878354" lon="12.332920313403685"><ele>-2.5</ele><time>2026-04-19T09:16:03.001Z</time></trkpt><trkpt lat="44.88089173633399" lon="12.333144162264407"><ele>-3.0</ele><time>2026-04-19T09:16:04.001Z</time></trkpt><trkpt lat="44.88072532657218" lon="12.33336634080806"><ele>-3.0</ele><time>2026-04-19T09:16:05.001Z</time></trkpt><trkpt lat="44.88055672744624" lon="12.333587168429363"><ele>-3.0</ele><time>2026-04-19T09:16:06.001Z</time></trkpt><trkpt lat="44.88038317544075" lon="12.333806115612443"><ele>-3.5</ele><time>2026-04-19T09:16:07.001Z</time></trkpt><trkpt lat="44.880205558911804" lon="12.334035287014734"><ele>-4.0</ele><time>2026-04-19T09:16:08.001Z</time></trkpt><trkpt lat="44.88003125524981" lon="12.334260548867277"><ele>-4.0</ele><time>2026-04-19T09:16:09.001Z</time></trkpt><trkpt lat="44.87985087909239" lon="12.334492664969854"><ele>-4.0</ele><time>2026-04-19T09:16:10.001Z</time></trkpt><trkpt lat="44.879659239467635" lon="12.33473748872781"><ele>-4.0</ele><time>2026-04-19T09:16:11.001Z</time></trkpt><trkpt lat="44.87947686233897" lon="12.334969144126116"><ele>-4.0</ele><time>2026-04-19T09:16:12.001Z</time></trkpt><trkpt lat="44.879309074280116" lon="12.33518699417229"><ele>-3.6666666666666665</ele><time>2026-04-19T09:16:13.001Z</time></trkpt><trkpt lat="44.879152241729805" lon="12.335392341851659"><ele>-3.333333333333333</ele><time>2026-04-19T09:16:14.001Z</time></trkpt><trkpt lat="44.878999939172786" lon="12.33559428411307"><ele>-3.0</ele><time>2026-04-19T09:16:15.001Z</time></trkpt><trkpt lat="44.87885381489739" lon="12.335791379989539"><ele>-3.0</ele><time>2026-04-19T09:16:16.001Z</time></trkpt><trkpt lat="44.87871241464985" lon="12.335998584170767"><ele>-3.0</ele><time>2026-04-19T09:16:17.001Z</time></trkpt><trkpt lat="44.87858047588293" lon="12.336211794677455"><ele>-3.0</ele><time>2026-04-19T09:16:18.001Z</time></trkpt><trkpt lat="44.878468244662606" lon="12.33645151507992"><ele>-2.0</ele><time>2026-04-19T09:16:19.001Z</time></trkpt><trkpt lat="44.87835255908241" lon="12.33669117030338"><ele>-1.0</ele><time>2026-04-19T09:16:20.001Z</time></trkpt><trkpt lat="44.87824148542056" lon="12.336934645027535"><ele>0.0</ele><time>2026-04-19T09:16:21.001Z</time></trkpt><trkpt lat="44.878128674955626" lon="12.33718319936369"><ele>-0.6666666666666666</ele><time>2026-04-19T09:16:22Z</time></trkpt><trkpt lat="44.878012859023904" lon="12.337434036331079"><ele>-1.3333333333333333</ele><time>2026-04-19T09:16:23Z</time></trkpt><trkpt lat="44.8778969051198" lon="12.337684385801577"><ele>-2.0</ele><time>2026-04-19T09:16:24Z</time></trkpt><trkpt lat="44.87777912920943" lon="12.337934644055043"><ele>-2.0</ele><time>2026-04-19T09:16:25Z</time></trkpt><trkpt lat="44.87766066615842" lon="12.338187472695271"><ele>-2.0</ele><time>2026-04-19T09:16:26Z</time></trkpt><trkpt lat="44.87754583485509" lon="12.338439630450436"><ele>-2.0</ele><time>2026-04-19T09:16:27Z</time></trkpt><trkpt lat="44.877428072725884" lon="12.338689909019283"><ele>-2.333333333333333</ele><time>2026-04-19T09:16:28Z</time></trkpt><trkpt lat="44.87730869597417" lon="12.338939632748415"><ele>-2.6666666666666665</ele><time>2026-04-19T09:16:29Z</time></trkpt><trkpt lat="44.8771904494853" lon="12.339192766153342"><ele>-3.0</ele><time>2026-04-19T09:16:30Z</time></trkpt><trkpt lat="44.87707357387757" lon="12.339452954198208"><ele>-3.0</ele><time>2026-04-19T09:16:31Z</time></trkpt><trkpt lat="44.87695685678092" lon="12.339711646863678"><ele>-3.0</ele><time>2026-04-19T09:16:32Z</time></trkpt><trkpt lat="44.87684116952647" lon="12.339973308420154"><ele>-3.0</ele><time>2026-04-19T09:16:33Z</time></trkpt><trkpt lat="44.87672740830517" lon="12.340239660282704"><ele>-3.0</ele><time>2026-04-19T09:16:34Z</time></trkpt><trkpt lat="44.876614727703874" lon="12.340506752805796"><ele>-3.0</ele><time>2026-04-19T09:16:35Z</time></trkpt><trkpt lat="44.876500393320185" lon="12.340774918624977"><ele>-3.0</ele><time>2026-04-19T09:16:36Z</time></trkpt><trkpt lat="44.8763860654352" lon="12.341044211673585"><ele>-3.0</ele><time>2026-04-19T09:16:37Z</time></trkpt><trkpt lat="44.876272464836944" lon="12.34131308219377"><ele>-3.0</ele><time>2026-04-19T09:16:38Z</time></trkpt><trkpt lat="44.87615995113192" lon="12.341585166058303"><ele>-3.0</ele><time>2026-04-19T09:16:39Z</time></trkpt><trkpt lat="44.876049212867855" lon="12.341854754255904"><ele>-2.3333333333333335</ele><time>2026-04-19T09:16:40Z</time></trkpt><trkpt lat="44.87594194148147" lon="12.342124147014658"><ele>-1.6666666666666665</ele><time>2026-04-19T09:16:41Z</time></trkpt><trkpt lat="44.87584134482433" lon="12.342396047880635"><ele>-1.0</ele><time>2026-04-19T09:16:42Z</time></trkpt><trkpt lat="44.87574545873988" lon="12.342671347795468"><ele>-1.6666666666666665</ele><time>2026-04-19T09:16:43Z</time></trkpt><trkpt lat="44.87564867779898" lon="12.342947908009496"><ele>-2.3333333333333335</ele><time>2026-04-19T09:16:44Z</time></trkpt><trkpt lat="44.87555237743627" lon="12.343222682257089"><ele>-3.0</ele><time>2026-04-19T09:16:45Z</time></trkpt><trkpt lat="44.87545532933051" lon="12.343498279646205"><ele>-3.0</ele><time>2026-04-19T09:16:46Z</time></trkpt><trkpt lat="44.875357841858744" lon="12.343771547886298"><ele>-3.0</ele><time>2026-04-19T09:16:47Z</time></trkpt><trkpt lat="44.875260564587556" lon="12.344043814728986"><ele>-3.0</ele><time>2026-04-19T09:16:48Z</time></trkpt><trkpt lat="44.87516388062129" lon="12.344317119400454"><ele>-2.3333333333333335</ele><time>2026-04-19T09:16:49Z</time></trkpt><trkpt lat="44.87506779354113" lon="12.344590482081315"><ele>-1.6666666666666665</ele><time>2026-04-19T09:16:50Z</time></trkpt><trkpt lat="44.87497045960206" lon="12.344863613260044"><ele>-1.0</ele><time>2026-04-19T09:16:51Z</time></trkpt><trkpt lat="44.874873145539595" lon="12.345138887080493"><ele>-1.0</ele><time>2026-04-19T09:16:52Z</time></trkpt><trkpt lat="44.874776154040404" lon="12.345414795587084"><ele>-1.0</ele><time>2026-04-19T09:16:53Z</time></trkpt><trkpt lat="44.87467522938747" lon="12.345691577855694"><ele>-1.0</ele><time>2026-04-19T09:16:54Z</time></trkpt><trkpt lat="44.874570929254276" lon="12.345966130566023"><ele>-0.3333333333333333</ele><time>2026-04-19T09:16:55Z</time></trkpt><trkpt lat="44.874463561235295" lon="12.346240234556099"><ele>0.3333333333333333</ele><time>2026-04-19T09:16:56Z</time></trkpt><trkpt lat="44.8743503900805" lon="12.346505481991157"><ele>1.0</ele><time>2026-04-19T09:16:57Z</time></trkpt><trkpt lat="44.874232036770046" lon="12.34676491324328"><ele>1.0</ele><time>2026-04-19T09:16:58Z</time></trkpt><trkpt lat="44.87411234891433" lon="12.34701991814295"><ele>1.0</ele><time>2026-04-19T09:16:59Z</time></trkpt><trkpt lat="44.873995142707656" lon="12.34727782706376"><ele>1.0</ele><time>2026-04-19T09:17:00Z</time></trkpt><trkpt lat="44.87387594078977" lon="12.347539014639535"><ele>-1.0</ele><time>2026-04-19T09:17:01Z</time></trkpt><trkpt lat="44.87375412432767" lon="12.347802435693813"><ele>-3.0</ele><time>2026-04-19T09:17:02Z</time></trkpt><trkpt lat="44.87362900003421" lon="12.348072598492744"><ele>-4.0</ele><time>2026-04-19T09:17:03Z</time></trkpt><trkpt lat="44.87349293393284" lon="12.34836406732542"><ele>-5.0</ele><time>2026-04-19T09:17:04Z</time></trkpt><trkpt lat="44.87335489617053" lon="12.348658735481715"><ele>-4.0</ele><time>2026-04-19T09:17:05Z</time></trkpt><trkpt lat="44.87322690929658" lon="12.348931494795284"><ele>-3.0</ele><time>2026-04-19T09:17:06Z</time></trkpt><trkpt lat="44.873103426400576" lon="12.34920079114614"><ele>-3.0</ele><time>2026-04-19T09:17:07Z</time></trkpt><trkpt lat="44.872981112812795" lon="12.34947787275118"><ele>-3.0</ele><time>2026-04-19T09:17:08Z</time></trkpt><trkpt lat="44.87285965971707" lon="12.349765609458014"><ele>-3.5</ele><time>2026-04-19T09:17:09Z</time></trkpt><trkpt lat="44.87274197745046" lon="12.350060789433195"><ele>-4.0</ele><time>2026-04-19T09:17:10Z</time></trkpt><trkpt lat="44.872628537734414" lon="12.350364700713175"><ele>-3.0</ele><time>2026-04-19T09:17:11Z</time></trkpt><trkpt lat="44.87251619664801" lon="12.350668775214238"><ele>-2.0</ele><time>2026-04-19T09:17:12Z</time></trkpt><trkpt lat="44.872406296168194" lon="12.350968202280974"><ele>-2.0</ele><time>2026-04-19T09:17:13Z</time></trkpt><trkpt lat="44.87230244568219" lon="12.351266165737718"><ele>-2.0</ele><time>2026-04-19T09:17:14Z</time></trkpt><trkpt lat="44.87220738851661" lon="12.351566376482188"><ele>-2.5</ele><time>2026-04-19T09:17:15Z</time></trkpt><trkpt lat="44.872116988859695" lon="12.351868584520696"><ele>-3.0</ele><time>2026-04-19T09:17:16Z</time></trkpt><trkpt lat="44.87203031011983" lon="12.352170073221586"><ele>-3.0</ele><time>2026-04-19T09:17:17Z</time></trkpt><trkpt lat="44.8719474753406" lon="12.352463532259998"><ele>-3.0</ele><time>2026-04-19T09:17:18Z</time></trkpt><trkpt lat="44.871865037145355" lon="12.352751124757486"><ele>-3.0</ele><time>2026-04-19T09:17:19Z</time></trkpt><trkpt lat="44.871784698564525" lon="12.353029745370645"><ele>-2.0</ele><time>2026-04-19T09:17:20Z</time></trkpt><trkpt lat="44.87170671021462" lon="12.353304262566956"><ele>-1.0</ele><time>2026-04-19T09:17:21Z</time></trkpt><trkpt lat="44.87162956423278" lon="12.353576427206105"><ele>0.0</ele><time>2026-04-19T09:17:22Z</time></trkpt><trkpt lat="44.87155312401578" lon="12.353845505793535"><ele>-0.6666666666666666</ele><time>2026-04-19T09:17:23Z</time></trkpt><trkpt lat="44.871476495179465" lon="12.354113865111376"><ele>-1.3333333333333333</ele><time>2026-04-19T09:17:24Z</time></trkpt><trkpt lat="44.871397508808265" lon="12.354380601939713"><ele>-2.0</ele><time>2026-04-19T09:17:25Z</time></trkpt><trkpt lat="44.87131620882012" lon="12.35464706340705"><ele>-2.333333333333333</ele><time>2026-04-19T09:17:26Z</time></trkpt><trkpt lat="44.87123547255737" lon="12.354905453950636"><ele>-2.6666666666666665</ele><time>2026-04-19T09:17:27Z</time></trkpt><trkpt lat="44.871156967018855" lon="12.355150519216126"><ele>-3.0</ele><time>2026-04-19T09:17:28Z</time></trkpt><trkpt lat="44.871075931351314" lon="12.355380549543025"><ele>-3.0</ele><time>2026-04-19T09:17:29Z</time></trkpt><trkpt lat="44.87099456296973" lon="12.355580451754758"><ele>-3.0</ele><time>2026-04-19T09:17:30.001Z</time></trkpt><trkpt lat="44.87091033422758" lon="12.355758566633796"><ele>-3.0</ele><time>2026-04-19T09:17:31.001Z</time></trkpt><trkpt lat="44.87080650584255" lon="12.355924373766172"><ele>-2.0</ele><time>2026-04-19T09:17:32.001Z</time></trkpt><trkpt lat="44.87069466593567" lon="12.356096591033351"><ele>-1.0</ele><time>2026-04-19T09:17:33.001Z</time></trkpt><trkpt lat="44.87057065891329" lon="12.356279568264414"><ele>0.0</ele><time>2026-04-19T09:17:34.001Z</time></trkpt><trkpt lat="44.87044357839412" lon="12.356467485820366"><ele>0.0</ele><time>2026-04-19T09:17:35.001Z</time></trkpt><trkpt lat="44.87031142084565" lon="12.35665659611132"><ele>0.0</ele><time>2026-04-19T09:17:36.001Z</time></trkpt><trkpt lat="44.870175521437375" lon="12.35684804843193"><ele>0.0</ele><time>2026-04-19T09:17:37.001Z</time></trkpt><trkpt lat="44.87003948801313" lon="12.35703929158834"><ele>-0.6666666666666666</ele><time>2026-04-19T09:17:38.001Z</time></trkpt><trkpt lat="44.86990712214467" lon="12.357230025783352"><ele>-1.3333333333333333</ele><time>2026-04-19T09:17:39.001Z</time></trkpt><trkpt lat="44.86977923755792" lon="12.35741815213659"><ele>-2.0</ele><time>2026-04-19T09:17:40.001Z</time></trkpt><trkpt lat="44.8696531386506" lon="12.357601921852483"><ele>-2.0</ele><time>2026-04-19T09:17:41.001Z</time></trkpt><trkpt lat="44.86952790904222" lon="12.35778313455604"><ele>-2.0</ele><time>2026-04-19T09:17:42.001Z</time></trkpt><trkpt lat="44.86939955992028" lon="12.357963472396989"><ele>-2.0</ele><time>2026-04-19T09:17:43.001Z</time></trkpt><trkpt lat="44.86926772861463" lon="12.358147649081541"><ele>-1.3333333333333333</ele><time>2026-04-19T09:17:44.001Z</time></trkpt><trkpt lat="44.86913478170569" lon="12.358333814422481"><ele>-0.6666666666666666</ele><time>2026-04-19T09:17:45.001Z</time></trkpt><trkpt lat="44.86899998626913" lon="12.358523837752163"><ele>0.0</ele><time>2026-04-19T09:17:46.001Z</time></trkpt><trkpt lat="44.86886227803507" lon="12.358717511350912"><ele>0.0</ele><time>2026-04-19T09:17:47.001Z</time></trkpt><trkpt lat="44.86872329081539" lon="12.358912287855887"><ele>0.0</ele><time>2026-04-19T09:17:48.001Z</time></trkpt><trkpt lat="44.86858046684585" lon="12.359104459119541"><ele>0.0</ele><time>2026-04-19T09:17:49.001Z</time></trkpt><trkpt lat="44.86843456972988" lon="12.359291675325123"><ele>0.0</ele><time>2026-04-19T09:17:50.001Z</time></trkpt><trkpt lat="44.86828466840058" lon="12.359481382650127"><ele>0.0</ele><time>2026-04-19T09:17:51.001Z</time></trkpt><trkpt lat="44.86813190953882" lon="12.359673399040492"><ele>0.0</ele><time>2026-04-19T09:17:52.001Z</time></trkpt><trkpt lat="44.86797674528568" lon="12.359859535997764"><ele>0.0</ele><time>2026-04-19T09:17:53.001Z</time></trkpt><trkpt lat="44.86781613333443" lon="12.360035194414749"><ele>0.0</ele><time>2026-04-19T09:17:54.001Z</time></trkpt><trkpt lat="44.86765155593375" lon="12.360201828301081"><ele>0.0</ele><time>2026-04-19T09:17:55.001Z</time></trkpt><trkpt lat="44.86748361075148" lon="12.360364734683293"><ele>0.0</ele><time>2026-04-19T09:17:56.001Z</time></trkpt><trkpt lat="44.86731492096149" lon="12.360527249540036"><ele>0.0</ele><time>2026-04-19T09:17:57.001Z</time></trkpt><trkpt lat="44.86715481481476" lon="12.360685544004967"><ele>0.0</ele><time>2026-04-19T09:17:58.001Z</time></trkpt><trkpt lat="44.86700268188807" lon="12.360833113910862"><ele>0.0</ele><time>2026-04-19T09:17:59.001Z</time></trkpt><trkpt lat="44.86685076381395" lon="12.360981292370317"><ele>0.0</ele><time>2026-04-19T09:18:00.001Z</time></trkpt><trkpt lat="44.86669889913127" lon="12.361131886904793"><ele>0.0</ele><time>2026-04-19T09:18:01.001Z</time></trkpt><trkpt lat="44.86654763776928" lon="12.361283469643142"><ele>-0.3333333333333333</ele><time>2026-04-19T09:18:02.001Z</time></trkpt><trkpt lat="44.86639382581251" lon="12.361435501091309"><ele>-0.6666666666666666</ele><time>2026-04-19T09:18:03.001Z</time></trkpt><trkpt lat="44.86623799346351" lon="12.36158556082394"><ele>-1.0</ele><time>2026-04-19T09:18:04.001Z</time></trkpt><trkpt lat="44.866082916249354" lon="12.361733327572"><ele>-0.3333333333333333</ele><time>2026-04-19T09:18:05.001Z</time></trkpt><trkpt lat="44.865929017385966" lon="12.36187599214861"><ele>0.3333333333333333</ele><time>2026-04-19T09:18:06.001Z</time></trkpt><trkpt lat="44.865774499976574" lon="12.3620146547814"><ele>1.0</ele><time>2026-04-19T09:18:07.001Z</time></trkpt><trkpt lat="44.86561855741611" lon="12.36215042616115"><ele>0.3333333333333333</ele><time>2026-04-19T09:18:08.001Z</time></trkpt><trkpt lat="44.86546501984042" lon="12.362276806037872"><ele>-0.3333333333333333</ele><time>2026-04-19T09:18:09.001Z</time></trkpt><trkpt lat="44.86531091269498" lon="12.362400257472295"><ele>-1.0</ele><time>2026-04-19T09:18:10.001Z</time></trkpt><trkpt lat="44.86515581281038" lon="12.362521927031507"><ele>-0.3333333333333333</ele><time>2026-04-19T09:18:11.001Z</time></trkpt><trkpt lat="44.864997742876845" lon="12.362643591789567"><ele>0.3333333333333333</ele><time>2026-04-19T09:18:12.001Z</time></trkpt><trkpt lat="44.86483800645126" lon="12.36276458411518"><ele>1.0</ele><time>2026-04-19T09:18:13.001Z</time></trkpt><trkpt lat="44.86467671650546" lon="12.362888127866286"><ele>1.0</ele><time>2026-04-19T09:18:14.001Z</time></trkpt><trkpt lat="44.864513582879844" lon="12.363014819148473"><ele>1.0</ele><time>2026-04-19T09:18:15.001Z</time></trkpt><trkpt lat="44.86435008591877" lon="12.363142446415063"><ele>1.0</ele><time>2026-04-19T09:18:16.001Z</time></trkpt><trkpt lat="44.864183215637" lon="12.363268381471903"><ele>0.3333333333333333</ele><time>2026-04-19T09:18:17.001Z</time></trkpt><trkpt lat="44.86401243484972" lon="12.3633873884848"><ele>-0.3333333333333333</ele><time>2026-04-19T09:18:18.001Z</time></trkpt><trkpt lat="44.86383757007534" lon="12.363500382347173"><ele>-1.0</ele><time>2026-04-19T09:18:19.001Z</time></trkpt><trkpt lat="44.8636587149787" lon="12.363603429833818"><ele>-1.0</ele><time>2026-04-19T09:18:20.001Z</time></trkpt><trkpt lat="44.863476150302134" lon="12.363699565468453"><ele>-1.0</ele><time>2026-04-19T09:18:21.001Z</time></trkpt><trkpt lat="44.863290833769916" lon="12.363780323950278"><ele>-1.0</ele><time>2026-04-19T09:18:22.001Z</time></trkpt><trkpt lat="44.86309844666195" lon="12.363853667127755"><ele>-1.0</ele><time>2026-04-19T09:18:23.001Z</time></trkpt><trkpt lat="44.86289822237913" lon="12.363928365421607"><ele>-1.0</ele><time>2026-04-19T09:18:24.001Z</time></trkpt><trkpt lat="44.862691836347224" lon="12.364010583993478"><ele>-1.0</ele><time>2026-04-19T09:18:25.001Z</time></trkpt><trkpt lat="44.86246369070826" lon="12.364102371809151"><ele>-1.0</ele><time>2026-04-19T09:18:26.001Z</time></trkpt><trkpt lat="44.862240685215966" lon="12.364191963603343"><ele>-1.0</ele><time>2026-04-19T09:18:27.001Z</time></trkpt><trkpt lat="44.862023527042645" lon="12.364280820146917"><ele>-1.0</ele><time>2026-04-19T09:18:28Z</time></trkpt><trkpt lat="44.861818653902155" lon="12.364364838230072"><ele>-1.0</ele><time>2026-04-19T09:18:29Z</time></trkpt><trkpt lat="44.86161555274981" lon="12.364449309870984"><ele>-1.0</ele><time>2026-04-19T09:18:30Z</time></trkpt><trkpt lat="44.8614148165325" lon="12.364531307259059"><ele>-1.0</ele><time>2026-04-19T09:18:31Z</time></trkpt><trkpt lat="44.86121718379879" lon="12.364614910393563"><ele>-1.0</ele><time>2026-04-19T09:18:32Z</time></trkpt><trkpt lat="44.86102307978972" lon="12.364704383446998"><ele>-1.0</ele><time>2026-04-19T09:18:33Z</time></trkpt><trkpt lat="44.860834266017854" lon="12.364801696396604"><ele>-1.0</ele><time>2026-04-19T09:18:34Z</time></trkpt><trkpt lat="44.86064823680089" lon="12.364904657762146"><ele>-1.0</ele><time>2026-04-19T09:18:35Z</time></trkpt><trkpt lat="44.86046113165564" lon="12.365012751264159"><ele>-1.0</ele><time>2026-04-19T09:18:36Z</time></trkpt><trkpt lat="44.86027106573107" lon="12.365123047260788"><ele>-0.3333333333333333</ele><time>2026-04-19T09:18:37Z</time></trkpt><trkpt lat="44.86008084786372" lon="12.365237540059075"><ele>0.3333333333333333</ele><time>2026-04-19T09:18:38Z</time></trkpt><trkpt lat="44.85989017953035" lon="12.365354850414702"><ele>1.0</ele><time>2026-04-19T09:18:39Z</time></trkpt><trkpt lat="44.85970002593463" lon="12.365475304065809"><ele>0.3333333333333333</ele><time>2026-04-19T09:18:40Z</time></trkpt><trkpt lat="44.859510376105156" lon="12.365601002256229"><ele>-0.3333333333333333</ele><time>2026-04-19T09:18:41Z</time></trkpt><trkpt lat="44.85932649964739" lon="12.365727478814916"><ele>-1.0</ele><time>2026-04-19T09:18:42Z</time></trkpt><trkpt lat="44.85914575215097" lon="12.365859951808988"><ele>-1.0</ele><time>2026-04-19T09:18:43Z</time></trkpt><trkpt lat="44.858968085856205" lon="12.365994145403766"><ele>-1.0</ele><time>2026-04-19T09:18:44Z</time></trkpt><trkpt lat="44.85878926797897" lon="12.366124242442"><ele>-1.0</ele><time>2026-04-19T09:18:45Z</time></trkpt><trkpt lat="44.85860657698698" lon="12.366251424398977"><ele>-1.3333333333333333</ele><time>2026-04-19T09:18:46Z</time></trkpt><trkpt lat="44.858416487789135" lon="12.366376322340312"><ele>-1.6666666666666665</ele><time>2026-04-19T09:18:47Z</time></trkpt><trkpt lat="44.858221036284334" lon="12.3664961422396"><ele>-2.0</ele><time>2026-04-19T09:18:48Z</time></trkpt><trkpt lat="44.8580211298422" lon="12.366606145142025"><ele>-2.0</ele><time>2026-04-19T09:18:49Z</time></trkpt><trkpt lat="44.85781687192557" lon="12.366708417478144"><ele>-2.0</ele><time>2026-04-19T09:18:50Z</time></trkpt><trkpt lat="44.857614522464736" lon="12.366810827736048"><ele>-2.0</ele><time>2026-04-19T09:18:51Z</time></trkpt><trkpt lat="44.85740766589501" lon="12.366911219234057"><ele>-2.0</ele><time>2026-04-19T09:18:52Z</time></trkpt><trkpt lat="44.857198920713756" lon="12.36700900579913"><ele>-2.0</ele><time>2026-04-19T09:18:53Z</time></trkpt><trkpt lat="44.85699261854974" lon="12.367107936500577"><ele>-2.0</ele><time>2026-04-19T09:18:54Z</time></trkpt><trkpt lat="44.85678798474987" lon="12.367206977940667"><ele>-1.6666666666666665</ele><time>2026-04-19T09:18:55Z</time></trkpt><trkpt lat="44.85658242619248" lon="12.367306623654168"><ele>-1.3333333333333333</ele><time>2026-04-19T09:18:56Z</time></trkpt><trkpt lat="44.85638099184279" lon="12.36740566889666"><ele>-1.0</ele><time>2026-04-19T09:18:57Z</time></trkpt><trkpt lat="44.85617935693927" lon="12.367502894403295"><ele>-1.0</ele><time>2026-04-19T09:18:58Z</time></trkpt><trkpt lat="44.85597704673414" lon="12.367601052433727"><ele>-1.0</ele><time>2026-04-19T09:18:59Z</time></trkpt><trkpt lat="44.85577087957015" lon="12.367698020144262"><ele>-1.0</ele><time>2026-04-19T09:19:00Z</time></trkpt><trkpt lat="44.855562742970605" lon="12.367795561962692"><ele>-1.0</ele><time>2026-04-19T09:19:01Z</time></trkpt><trkpt lat="44.85535312315671" lon="12.367898271093326"><ele>-1.0</ele><time>2026-04-19T09:19:02Z</time></trkpt><trkpt lat="44.855139565473664" lon="12.368002582036176"><ele>-1.0</ele><time>2026-04-19T09:19:03Z</time></trkpt><trkpt lat="44.854922175664434" lon="12.368107159216978"><ele>-1.5</ele><time>2026-04-19T09:19:04Z</time></trkpt><trkpt lat="44.854703819789954" lon="12.36821292759435"><ele>-2.0</ele><time>2026-04-19T09:19:05Z</time></trkpt><trkpt lat="44.85448290942596" lon="12.368321347606203"><ele>-0.5</ele><time>2026-04-19T09:19:06Z</time></trkpt><trkpt lat="44.85426096646952" lon="12.368432320481222"><ele>1.0</ele><time>2026-04-19T09:19:07Z</time></trkpt><trkpt lat="44.854040938534936" lon="12.36854234906515"><ele>1.0</ele><time>2026-04-19T09:19:08Z</time></trkpt><trkpt lat="44.853820798137846" lon="12.368650243646618"><ele>1.0</ele><time>2026-04-19T09:19:09Z</time></trkpt><trkpt lat="44.85360198536577" lon="12.368757823102793"><ele>-0.5</ele><time>2026-04-19T09:19:10Z</time></trkpt><trkpt lat="44.853382794709006" lon="12.368866087618361"><ele>-2.0</ele><time>2026-04-19T09:19:11Z</time></trkpt><trkpt lat="44.85316243882403" lon="12.368975141114511"><ele>-2.0</ele><time>2026-04-19T09:19:12Z</time></trkpt><trkpt lat="44.85293834125993" lon="12.369085971325525"><ele>-2.0</ele><time>2026-04-19T09:19:13Z</time></trkpt><trkpt lat="44.852709190458334" lon="12.369200987670114"><ele>-1.5</ele><time>2026-04-19T09:19:14Z</time></trkpt><trkpt lat="44.85248084048021" lon="12.369314154534873"><ele>-1.0</ele><time>2026-04-19T09:19:15Z</time></trkpt><trkpt lat="44.852253448326834" lon="12.36942525948247"><ele>-1.0</ele><time>2026-04-19T09:19:16Z</time></trkpt><trkpt lat="44.85202989084474" lon="12.369532374158158"><ele>-1.0</ele><time>2026-04-19T09:19:17Z</time></trkpt><trkpt lat="44.851807457710095" lon="12.369640381148082"><ele>-1.0</ele><time>2026-04-19T09:19:18Z</time></trkpt><trkpt lat="44.85158701014587" lon="12.369747171927889"><ele>-1.0</ele><time>2026-04-19T09:19:19Z</time></trkpt><trkpt lat="44.85136647108684" lon="12.369855481353024"><ele>-1.0</ele><time>2026-04-19T09:19:20Z</time></trkpt><trkpt lat="44.85114480939148" lon="12.369964242170143"><ele>-1.0</ele><time>2026-04-19T09:19:21Z</time></trkpt><trkpt lat="44.85092209528378" lon="12.370074395853964"><ele>-1.0</ele><time>2026-04-19T09:19:22Z</time></trkpt><trkpt lat="44.850696300902285" lon="12.370186229196126"><ele>-1.0</ele><time>2026-04-19T09:19:23Z</time></trkpt><trkpt lat="44.850470873163246" lon="12.37029914218987"><ele>-1.0</ele><time>2026-04-19T09:19:24Z</time></trkpt><trkpt lat="44.85024289194961" lon="12.37041179594488"><ele>-1.0</ele><time>2026-04-19T09:19:25Z</time></trkpt><trkpt lat="44.85001265280136" lon="12.370523616493006"><ele>0.5</ele><time>2026-04-19T09:19:26Z</time></trkpt><trkpt lat="44.84978407106405" lon="12.370634004442401"><ele>2.0</ele><time>2026-04-19T09:19:27Z</time></trkpt><trkpt lat="44.849556016857626" lon="12.370744420131558"><ele>2.0</ele><time>2026-04-19T09:19:28Z</time></trkpt><trkpt lat="44.84932557436095" lon="12.370855582119887"><ele>2.0</ele><time>2026-04-19T09:19:29.001Z</time></trkpt><trkpt lat="44.849095521964735" lon="12.370965777923418"><ele>2.5</ele><time>2026-04-19T09:19:30.001Z</time></trkpt><trkpt lat="44.84886676564068" lon="12.371074288357203"><ele>3.0</ele><time>2026-04-19T09:19:31.001Z</time></trkpt><trkpt lat="44.84864193307511" lon="12.37118299334581"><ele>3.0</ele><time>2026-04-19T09:19:32.001Z</time></trkpt><trkpt lat="44.848420068689805" lon="12.371290381521705"><ele>3.0</ele><time>2026-04-19T09:19:33.001Z</time></trkpt><trkpt lat="44.84820093029425" lon="12.371396258113025"><ele>2.0</ele><time>2026-04-19T09:19:34.001Z</time></trkpt><trkpt lat="44.847981214127714" lon="12.371502799122014"><ele>1.0</ele><time>2026-04-19T09:19:35.001Z</time></trkpt><trkpt lat="44.847760440547134" lon="12.371610551450672"><ele>0.5</ele><time>2026-04-19T09:19:36.001Z</time></trkpt><trkpt lat="44.84753905788037" lon="12.37171825087555"><ele>0.0</ele><time>2026-04-19T09:19:37.001Z</time></trkpt><trkpt lat="44.847320066643086" lon="12.371824941889063"><ele>0.0</ele><time>2026-04-19T09:19:38.001Z</time></trkpt><trkpt lat="44.84709898284572" lon="12.371930866288562"><ele>0.0</ele><time>2026-04-19T09:19:39.001Z</time></trkpt><trkpt lat="44.8468788832376" lon="12.372039745514682"><ele>0.0</ele><time>2026-04-19T09:19:40.001Z</time></trkpt><trkpt lat="44.84665782264687" lon="12.37215151356899"><ele>0.0</ele><time>2026-04-19T09:19:41.001Z</time></trkpt><trkpt lat="44.84643506979637" lon="12.37226451319953"><ele>0.0</ele><time>2026-04-19T09:19:42.001Z</time></trkpt><trkpt lat="44.84621431411246" lon="12.372380212594125"><ele>0.0</ele><time>2026-04-19T09:19:43.001Z</time></trkpt><trkpt lat="44.845994373321574" lon="12.372502634190322"><ele>1.5</ele><time>2026-04-19T09:19:44.001Z</time></trkpt><trkpt lat="44.845776054788296" lon="12.37262889050161"><ele>3.0</ele><time>2026-04-19T09:19:45.001Z</time></trkpt><trkpt lat="44.845558609960314" lon="12.372756353176861"><ele>3.0</ele><time>2026-04-19T09:19:46.001Z</time></trkpt><trkpt lat="44.84534175530678" lon="12.372883644083215"><ele>3.0</ele><time>2026-04-19T09:19:47.001Z</time></trkpt><trkpt lat="44.845126063278514" lon="12.3730097008664"><ele>1.5</ele><time>2026-04-19T09:19:48.001Z</time></trkpt><trkpt lat="44.8449118721133" lon="12.373138176505886"><ele>0.0</ele><time>2026-04-19T09:19:49.001Z</time></trkpt><trkpt lat="44.84470180673096" lon="12.373263652862885"><ele>0.0</ele><time>2026-04-19T09:19:50.001Z</time></trkpt><trkpt lat="44.84449277362605" lon="12.373386900519707"><ele>0.0</ele><time>2026-04-19T09:19:51.001Z</time></trkpt><trkpt lat="44.844287575812636" lon="12.373508592560587"><ele>0.0</ele><time>2026-04-19T09:19:52.001Z</time></trkpt><trkpt lat="44.84408285383246" lon="12.37362892197924"><ele>0.0</ele><time>2026-04-19T09:19:53.001Z</time></trkpt><trkpt lat="44.84388040532047" lon="12.373746810209022"><ele>0.0</ele><time>2026-04-19T09:19:54.001Z</time></trkpt><trkpt lat="44.84367477795587" lon="12.373866810124934"><ele>0.0</ele><time>2026-04-19T09:19:55.001Z</time></trkpt><trkpt lat="44.843466626384846" lon="12.373984599615188"><ele>0.3333333333333333</ele><time>2026-04-19T09:19:56.001Z</time></trkpt><trkpt lat="44.84325688746396" lon="12.374106623031286"><ele>0.6666666666666666</ele><time>2026-04-19T09:19:57.001Z</time></trkpt><trkpt lat="44.84305209198217" lon="12.374224290614007"><ele>1.0</ele><time>2026-04-19T09:19:58.001Z</time></trkpt><trkpt lat="44.8428690235479" lon="12.374331881787327"><ele>1.0</ele><time>2026-04-19T09:19:59.001Z</time></trkpt><trkpt lat="44.84270100212623" lon="12.374429017354876"><ele>1.0</ele><time>2026-04-19T09:20:00.001Z</time></trkpt><trkpt lat="44.84254190103082" lon="12.374520063835215"><ele>1.0</ele><time>2026-04-19T09:20:01.001Z</time></trkpt><trkpt lat="44.84239637346233" lon="12.374603902766674"><ele>1.0</ele><time>2026-04-19T09:20:02.001Z</time></trkpt><trkpt lat="44.84226297643634" lon="12.374681351012326"><ele>1.0</ele><time>2026-04-19T09:20:03.001Z</time></trkpt><trkpt lat="44.84213424454022" lon="12.374755276368193"><ele>1.0</ele><time>2026-04-19T09:20:04.001Z</time></trkpt><trkpt lat="44.84201035020262" lon="12.37482791865626"><ele>1.0</ele><time>2026-04-19T09:20:05.001Z</time></trkpt><trkpt lat="44.84188949508245" lon="12.374899536765529"><ele>1.0</ele><time>2026-04-19T09:20:06.001Z</time></trkpt><trkpt lat="44.8417675847399" lon="12.374970399638823"><ele>1.0</ele><time>2026-04-19T09:20:07.001Z</time></trkpt><trkpt lat="44.84164310945509" lon="12.375043506227835"><ele>1.0</ele><time>2026-04-19T09:20:08.001Z</time></trkpt><trkpt lat="44.84152360380935" lon="12.375112052338661"><ele>1.0</ele><time>2026-04-19T09:20:09.001Z</time></trkpt><trkpt lat="44.84140893946565" lon="12.375171909331527"><ele>1.0</ele><time>2026-04-19T09:20:10.001Z</time></trkpt><trkpt lat="44.84129882826688" lon="12.37522706485264"><ele>1.0</ele><time>2026-04-19T09:20:11.001Z</time></trkpt><trkpt lat="44.841193451434684" lon="12.375266585770447"><ele>1.0</ele><time>2026-04-19T09:20:12.001Z</time></trkpt><trkpt lat="44.84109613010681" lon="12.375295913886443"><ele>1.0</ele><time>2026-04-19T09:20:13.001Z</time></trkpt><trkpt lat="44.84101546097796" lon="12.375343486176462"><ele>1.0</ele><time>2026-04-19T09:20:14.001Z</time></trkpt><trkpt lat="44.840938002414205" lon="12.375379893021904"><ele>1.0</ele><time>2026-04-19T09:20:15.001Z</time></trkpt><trkpt lat="44.840867203630786" lon="12.37541316964261"><ele>0.9999999999999999</ele><time>2026-04-19T09:20:16.001Z</time></trkpt><trkpt lat="44.84078163748767" lon="12.375381680685871"><ele>1.0</ele><time>2026-04-19T09:20:17.001Z</time></trkpt><trkpt lat="44.8407091877687" lon="12.375405853177634"><ele>1.0</ele><time>2026-04-19T09:20:18.001Z</time></trkpt><trkpt lat="44.840638538357354" lon="12.375430181565115"><ele>0.9999999999999999</ele><time>2026-04-19T09:20:19.001Z</time></trkpt><trkpt lat="44.84057481925573" lon="12.375453426005027"><ele>1.0</ele><time>2026-04-19T09:20:20.001Z</time></trkpt><trkpt lat="44.84051153272528" lon="12.375480694132909"><ele>1.0</ele><time>2026-04-19T09:20:21.001Z</time></trkpt><trkpt lat="44.840447470316775" lon="12.375513282192054"><ele>0.6000000000000001</ele><time>2026-04-19T09:20:22.001Z</time></trkpt><trkpt lat="44.84038627473609" lon="12.375545766000455"><ele>0.20000000000000007</ele><time>2026-04-19T09:20:23.001Z</time></trkpt><trkpt lat="44.84027783234386" lon="12.375601695781775"><ele>-0.20000000000000007</ele><time>2026-04-19T09:20:25.001Z</time></trkpt><trkpt lat="44.84017524045064" lon="12.375645808548438"><ele>-0.6000000000000001</ele><time>2026-04-19T09:20:27.001Z</time></trkpt><trkpt lat="44.840078656627135" lon="12.375682592664312"><ele>-1.0</ele><time>2026-04-19T09:20:29.001Z</time></trkpt><trkpt lat="44.83997455546147" lon="12.375721560238798"><ele>-1.0</ele><time>2026-04-19T09:20:31.001Z</time></trkpt><trkpt lat="44.839863950456106" lon="12.375765892924285"><ele>-1.0</ele><time>2026-04-19T09:20:33.001Z</time></trkpt><trkpt lat="44.83980172363372" lon="12.375742150768426"><ele>-1.0</ele><time>2026-04-19T09:20:34Z</time></trkpt><trkpt lat="44.839695868017216" lon="12.375830130187094"><ele>-1.0</ele><time>2026-04-19T09:20:36Z</time></trkpt><trkpt lat="44.83957322147796" lon="12.375877841512164"><ele>-1.0</ele><time>2026-04-19T09:20:38Z</time></trkpt><trkpt lat="44.83946215210829" lon="12.375886236375488"><ele>-0.9999999999999999</ele><time>2026-04-19T09:20:40Z</time></trkpt><trkpt lat="44.83939447125936" lon="12.375921118511613"><ele>-1.0</ele><time>2026-04-19T09:20:42Z</time></trkpt><trkpt lat="44.83933093087324" lon="12.375910960486944"><ele>-1.0</ele><time>2026-04-19T09:20:44Z</time></trkpt><trkpt lat="44.8392682642516" lon="12.375960151462177"><ele>-1.0</ele><time>2026-04-19T09:20:48Z</time></trkpt><trkpt lat="44.83933751623625" lon="12.375921328003802"><ele>-0.9999999999999999</ele><time>2026-04-19T09:24:26.001Z</time></trkpt><trkpt lat="44.83943107751373" lon="12.375900470492631"><ele>-1.0</ele><time>2026-04-19T09:24:35.001Z</time></trkpt><trkpt lat="44.83950446452539" lon="12.375889827933946"><ele>-1.0</ele><time>2026-04-19T09:24:43.001Z</time></trkpt><trkpt lat="44.8395702604192" lon="12.375869061721275"><ele>-0.9999999999999999</ele><time>2026-04-19T09:24:50.001Z</time></trkpt><trkpt lat="44.839629994781895" lon="12.37583043459724"><ele>-1.0</ele><time>2026-04-19T09:24:57.001Z</time></trkpt><trkpt lat="44.83966905964528" lon="12.37575991501469"><ele>-1.0</ele><time>2026-04-19T09:25:06.001Z</time></trkpt><trkpt lat="44.83965371646268" lon="12.37566665182767"><ele>-0.9999999999999999</ele><time>2026-04-19T09:25:21.001Z</time></trkpt><trkpt lat="44.839617043990444" lon="12.37559318162794"><ele>-1.0</ele><time>2026-04-19T09:25:29.001Z</time></trkpt><trkpt lat="44.839655335671836" lon="12.375676278161826"><ele>-1.0</ele><time>2026-04-19T09:26:21.001Z</time></trkpt><trkpt lat="44.83965740497771" lon="12.375777563076518"><ele>-1.0</ele><time>2026-04-19T09:26:30.001Z</time></trkpt><trkpt lat="44.8396360805979" lon="12.375867929986988"><ele>-0.9999999999999999</ele><time>2026-04-19T09:26:37.001Z</time></trkpt><trkpt lat="44.83958073540716" lon="12.375927156176278"><ele>-1.0</ele><time>2026-04-19T09:26:42.001Z</time></trkpt><trkpt lat="44.8395159639036" lon="12.375955944914942"><ele>-1.0</ele><time>2026-04-19T09:26:48.001Z</time></trkpt><trkpt lat="44.83944743112494" lon="12.375947665469598"><ele>-0.9999999999999999</ele><time>2026-04-19T09:26:55Z</time></trkpt><trkpt lat="44.83937963101319" lon="12.375965421877085"><ele>-1.0</ele><time>2026-04-19T09:27:02Z</time></trkpt><trkpt lat="44.839314844079496" lon="12.37598112511516"><ele>-1.0</ele><time>2026-04-19T09:27:08Z</time></trkpt><trkpt lat="44.839251887587984" lon="12.376006084112795"><ele>-0.8333333333333333</ele><time>2026-04-19T09:31:11.999Z</time></trkpt><trkpt lat="44.83917934797337" lon="12.376030375729025"><ele>-0.6666666666666666</ele><time>2026-04-19T09:31:19.999Z</time></trkpt><trkpt lat="44.83911643268096" lon="12.376043816347442"><ele>-0.5</ele><time>2026-04-19T09:31:25.999Z</time></trkpt><trkpt lat="44.839032082575685" lon="12.376033905778078"><ele>-0.3333333333333333</ele><time>2026-04-19T09:45:45.002Z</time></trkpt><trkpt lat="44.83896117872331" lon="12.376057049102126"><ele>-0.16666666666666666</ele><time>2026-04-19T09:45:47.002Z</time></trkpt><trkpt lat="44.83882058873934" lon="12.376134270523767"><ele>0.0</ele><time>2026-04-19T09:45:49.001Z</time></trkpt><trkpt lat="44.838736602898514" lon="12.376167665901992"><ele>0.0</ele><time>2026-04-19T09:45:50.001Z</time></trkpt><trkpt lat="44.8386504845216" lon="12.37617470495959"><ele>0.0</ele><time>2026-04-19T09:45:51.001Z</time></trkpt><trkpt lat="44.83855710720083" lon="12.376130384293644"><ele>0.0</ele><time>2026-04-19T09:45:52.001Z</time></trkpt><trkpt lat="44.838460150813155" lon="12.376155303452729"><ele>0.0</ele><time>2026-04-19T09:45:53.001Z</time></trkpt><trkpt lat="44.838362901319194" lon="12.376163894549874"><ele>0.0</ele><time>2026-04-19T09:45:54.001Z</time></trkpt><trkpt lat="44.838282456444034" lon="12.376151434401"><ele>0.0</ele><time>2026-04-19T09:45:55.001Z</time></trkpt><trkpt lat="44.83820423270531" lon="12.376161413028976"><ele>0.0</ele><time>2026-04-19T09:45:56.001Z</time></trkpt><trkpt lat="44.83813410708845" lon="12.376171917000304"><ele>0.0</ele><time>2026-04-19T09:45:57.001Z</time></trkpt><trkpt lat="44.83805967170654" lon="12.376186313714395"><ele>0.0</ele><time>2026-04-19T09:45:58.001Z</time></trkpt><trkpt lat="44.83797706481658" lon="12.376206906024139"><ele>0.0</ele><time>2026-04-19T09:45:59.001Z</time></trkpt><trkpt lat="44.837885377252874" lon="12.376254943967437"><ele>0.0</ele><time>2026-04-19T09:46:00.001Z</time></trkpt><trkpt lat="44.83777752741033" lon="12.376284583146555"><ele>0.0</ele><time>2026-04-19T09:46:01.001Z</time></trkpt><trkpt lat="44.837693714565724" lon="12.376278149208837"><ele>0.0</ele><time>2026-04-19T09:46:02.001Z</time></trkpt><trkpt lat="44.83763062901913" lon="12.376290333411253"><ele>0.0</ele><time>2026-04-19T09:46:03.001Z</time></trkpt><trkpt lat="44.837512703148455" lon="12.376311854298402"><ele>0.0</ele><time>2026-04-19T09:46:05.001Z</time></trkpt><trkpt lat="44.83744323760552" lon="12.376323036712943"><ele>0.0</ele><time>2026-04-19T09:46:06.001Z</time></trkpt><trkpt lat="44.83737138141674" lon="12.376354286047354"><ele>0.0</ele><time>2026-04-19T09:46:07.001Z</time></trkpt><trkpt lat="44.83730063690532" lon="12.376362974569501"><ele>-0.5</ele><time>2026-04-19T09:46:08.001Z</time></trkpt><trkpt lat="44.837238116596964" lon="12.376375920790807"><ele>-1.0</ele><time>2026-04-19T09:46:09.001Z</time></trkpt><trkpt lat="44.837115963635874" lon="12.37637103282609"><ele>-1.5</ele><time>2026-04-19T09:46:11.001Z</time></trkpt><trkpt lat="44.83705350347942" lon="12.376397292304574"><ele>-2.0</ele><time>2026-04-19T09:46:12.001Z</time></trkpt><trkpt lat="44.836983705209946" lon="12.376389279480762"><ele>-2.5</ele><time>2026-04-19T09:46:13.001Z</time></trkpt><trkpt lat="44.83691964782282" lon="12.376398116974519"><ele>-3.0</ele><time>2026-04-19T09:46:14.001Z</time></trkpt><trkpt lat="44.83680978563719" lon="12.376436731866463"><ele>-2.8</ele><time>2026-04-19T09:46:16.001Z</time></trkpt><trkpt lat="44.83672625316948" lon="12.376442636109067"><ele>-2.5999999999999996</ele><time>2026-04-19T09:46:18.001Z</time></trkpt><trkpt lat="44.83663957161185" lon="12.376454925523412"><ele>-2.4000000000000004</ele><time>2026-04-19T09:46:21.001Z</time></trkpt><trkpt lat="44.836544507440905" lon="12.376474482504404"><ele>-2.2</ele><time>2026-04-19T09:46:33.001Z</time></trkpt><trkpt lat="44.836450296516674" lon="12.376533070732044"><ele>-2.0</ele><time>2026-04-19T09:46:35.001Z</time></trkpt><trkpt lat="44.83638558912925" lon="12.376618403556215"><ele>-2.0</ele><time>2026-04-19T09:46:37.001Z</time></trkpt><trkpt lat="44.83633591314674" lon="12.376684838047767"><ele>-1.9999999999999998</ele><time>2026-04-19T09:46:39.001Z</time></trkpt><trkpt lat="44.836252115378095" lon="12.376699147449628"><ele>-2.0</ele><time>2026-04-19T09:46:41.001Z</time></trkpt><trkpt lat="44.83618926582172" lon="12.376733473214408"><ele>-2.0</ele><time>2026-04-19T09:46:44.001Z</time></trkpt><trkpt lat="44.83612166338666" lon="12.376754937713542"><ele>-1.9999999999999998</ele><time>2026-04-19T09:46:52.001Z</time></trkpt><trkpt lat="44.836087337742946" lon="12.37683759817846"><ele>-2.0</ele><time>2026-04-19T09:46:55.001Z</time></trkpt><trkpt lat="44.836005150299236" lon="12.376817574741848"><ele>-2.0</ele><time>2026-04-19T09:46:56.001Z</time></trkpt><trkpt lat="44.83588387311046" lon="12.376876536156182"><ele>-1.8</ele><time>2026-04-19T09:46:58.001Z</time></trkpt><trkpt lat="44.83578669757062" lon="12.376906409998888"><ele>-1.6</ele><time>2026-04-19T09:47:00.001Z</time></trkpt><trkpt lat="44.83570264588736" lon="12.376925114891359"><ele>-1.4000000000000001</ele><time>2026-04-19T09:47:02.001Z</time></trkpt><trkpt lat="44.835605526202144" lon="12.376954655720768"><ele>-1.2000000000000002</ele><time>2026-04-19T09:47:04.001Z</time></trkpt><trkpt lat="44.835498073895806" lon="12.377004941264167"><ele>-1.0</ele><time>2026-04-19T09:47:06.001Z</time></trkpt><trkpt lat="44.835394329257355" lon="12.377056592964461"><ele>-0.9999999999999999</ele><time>2026-04-19T09:47:08.001Z</time></trkpt><trkpt lat="44.83527584674835" lon="12.377122419802351"><ele>-1.0</ele><time>2026-04-19T09:47:10.001Z</time></trkpt><trkpt lat="44.835210400031244" lon="12.377156660617711"><ele>-1.0</ele><time>2026-04-19T09:47:11.001Z</time></trkpt><trkpt lat="44.83514195949297" lon="12.377187084413901"><ele>-1.0</ele><time>2026-04-19T09:47:12.001Z</time></trkpt><trkpt lat="44.83507047276317" lon="12.377214616895222"><ele>-0.9999999999999999</ele><time>2026-04-19T09:47:13.001Z</time></trkpt><trkpt lat="44.834999735049706" lon="12.377245277642913"><ele>-1.0</ele><time>2026-04-19T09:47:14.001Z</time></trkpt><trkpt lat="44.83492650171517" lon="12.377280095404931"><ele>-0.9999999999999999</ele><time>2026-04-19T09:47:15.001Z</time></trkpt><trkpt lat="44.83484939271707" lon="12.37731420348494"><ele>-1.0</ele><time>2026-04-19T09:47:16.001Z</time></trkpt><trkpt lat="44.834770150845145" lon="12.377347700475756"><ele>-1.0</ele><time>2026-04-19T09:47:17.001Z</time></trkpt><trkpt lat="44.83469047682891" lon="12.377384755759556"><ele>-1.0</ele><time>2026-04-19T09:47:18.001Z</time></trkpt><trkpt lat="44.834607196742816" lon="12.377426811904842"><ele>-0.9999999999999999</ele><time>2026-04-19T09:47:19.001Z</time></trkpt><trkpt lat="44.834509875458814" lon="12.377474537011585"><ele>-1.0</ele><time>2026-04-19T09:47:20.001Z</time></trkpt><trkpt lat="44.83442582820284" lon="12.377516490449057"><ele>-1.0</ele><time>2026-04-19T09:47:21.001Z</time></trkpt><trkpt lat="44.834342172256136" lon="12.377557623825018"><ele>-1.0</ele><time>2026-04-19T09:47:22.001Z</time></trkpt><trkpt lat="44.83424640989495" lon="12.377601492579755"><ele>-1.0</ele><time>2026-04-19T09:47:23.001Z</time></trkpt><trkpt lat="44.83415338636633" lon="12.377644365657748"><ele>-1.0</ele><time>2026-04-19T09:47:24.001Z</time></trkpt><trkpt lat="44.83405587472149" lon="12.377688082389355"><ele>-1.0</ele><time>2026-04-19T09:47:25.001Z</time></trkpt><trkpt lat="44.833949734733366" lon="12.377733919727005"><ele>-1.0</ele><time>2026-04-19T09:47:26.001Z</time></trkpt><trkpt lat="44.833847802104806" lon="12.37777842938747"><ele>-1.0</ele><time>2026-04-19T09:47:27.001Z</time></trkpt><trkpt lat="44.83374985583251" lon="12.377817617095332"><ele>-1.0</ele><time>2026-04-19T09:47:28.001Z</time></trkpt><trkpt lat="44.83365495649612" lon="12.377854118695064"><ele>-1.0</ele><time>2026-04-19T09:47:29.001Z</time></trkpt><trkpt lat="44.833552340006264" lon="12.377889654356132"><ele>-1.0</ele><time>2026-04-19T09:47:30.001Z</time></trkpt><trkpt lat="44.833446204982366" lon="12.377927112117812"><ele>-1.0</ele><time>2026-04-19T09:47:31.001Z</time></trkpt><trkpt lat="44.83333957651875" lon="12.377962148822222"><ele>-1.0</ele><time>2026-04-19T09:47:32.001Z</time></trkpt><trkpt lat="44.833231973822954" lon="12.377993948270117"><ele>-1.0</ele><time>2026-04-19T09:47:33.001Z</time></trkpt><trkpt lat="44.83312545545034" lon="12.378022426787073"><ele>-1.0</ele><time>2026-04-19T09:47:34.001Z</time></trkpt><trkpt lat="44.83302034654092" lon="12.378052956355363"><ele>-1.0</ele><time>2026-04-19T09:47:35.001Z</time></trkpt><trkpt lat="44.8329102956373" lon="12.378085425577787"><ele>-1.25</ele><time>2026-04-19T09:47:36.001Z</time></trkpt><trkpt lat="44.83279770468152" lon="12.378123595431894"><ele>-1.5</ele><time>2026-04-19T09:47:37.001Z</time></trkpt><trkpt lat="44.83268201107532" lon="12.378158374832248"><ele>-1.75</ele><time>2026-04-19T09:47:38.001Z</time></trkpt><trkpt lat="44.83256118367881" lon="12.37819232237811"><ele>-2.0</ele><time>2026-04-19T09:47:39.001Z</time></trkpt><trkpt lat="44.8324301883875" lon="12.378233049124837"><ele>-2.0</ele><time>2026-04-19T09:47:40.001Z</time></trkpt><trkpt lat="44.832283148956805" lon="12.378280009779324"><ele>-2.0</ele><time>2026-04-19T09:47:41.001Z</time></trkpt><trkpt lat="44.83211418415801" lon="12.378334504389338"><ele>-2.0</ele><time>2026-04-19T09:47:42.001Z</time></trkpt><trkpt lat="44.83195272650773" lon="12.378386159175747"><ele>-1.3333333333333333</ele><time>2026-04-19T09:47:43.001Z</time></trkpt><trkpt lat="44.831776431260124" lon="12.378438652252942"><ele>-0.6666666666666666</ele><time>2026-04-19T09:47:44.001Z</time></trkpt><trkpt lat="44.831607312149785" lon="12.378492300980568"><ele>0.0</ele><time>2026-04-19T09:47:45.001Z</time></trkpt><trkpt lat="44.83145061587272" lon="12.378542801815815"><ele>0.0</ele><time>2026-04-19T09:47:46.001Z</time></trkpt><trkpt lat="44.8312926806131" lon="12.378599384997221"><ele>0.0</ele><time>2026-04-19T09:47:47.001Z</time></trkpt><trkpt lat="44.831129474228106" lon="12.378663050801693"><ele>0.0</ele><time>2026-04-19T09:47:48.001Z</time></trkpt><trkpt lat="44.830958618527475" lon="12.378737053401927"><ele>0.0</ele><time>2026-04-19T09:47:49.001Z</time></trkpt><trkpt lat="44.83079133827577" lon="12.378809701797366"><ele>0.0</ele><time>2026-04-19T09:47:50.001Z</time></trkpt><trkpt lat="44.83063535205372" lon="12.378873730734412"><ele>0.0</ele><time>2026-04-19T09:47:51.001Z</time></trkpt><trkpt lat="44.83048506381081" lon="12.378932535258997"><ele>0.0</ele><time>2026-04-19T09:47:52.001Z</time></trkpt><trkpt lat="44.830336524953374" lon="12.378989988196524"><ele>0.0</ele><time>2026-04-19T09:47:53.001Z</time></trkpt><trkpt lat="44.83018164456536" lon="12.379038689466302"><ele>0.0</ele><time>2026-04-19T09:47:54.001Z</time></trkpt><trkpt lat="44.830012482793656" lon="12.379072996404291"><ele>0.0</ele><time>2026-04-19T09:47:55.001Z</time></trkpt><trkpt lat="44.8298344138479" lon="12.37910996911629"><ele>0.0</ele><time>2026-04-19T09:47:56.001Z</time></trkpt><trkpt lat="44.8296470877203" lon="12.379168897743723"><ele>0.0</ele><time>2026-04-19T09:47:57.001Z</time></trkpt><trkpt lat="44.82944751808301" lon="12.379248171292252"><ele>0.0</ele><time>2026-04-19T09:47:58.001Z</time></trkpt><trkpt lat="44.82922778406819" lon="12.37933825329004"><ele>0.0</ele><time>2026-04-19T09:47:59.001Z</time></trkpt><trkpt lat="44.82899352595411" lon="12.379439710624837"><ele>0.0</ele><time>2026-04-19T09:48:00.001Z</time></trkpt><trkpt lat="44.828782144025425" lon="12.37953468226083"><ele>0.0</ele><time>2026-04-19T09:48:01.001Z</time></trkpt><trkpt lat="44.82858182118869" lon="12.379620301718969"><ele>0.0</ele><time>2026-04-19T09:48:02.001Z</time></trkpt><trkpt lat="44.82839923967915" lon="12.379700685868977"><ele>-0.3333333333333333</ele><time>2026-04-19T09:48:03.001Z</time></trkpt><trkpt lat="44.82823225611938" lon="12.379775144111472"><ele>-0.6666666666666666</ele><time>2026-04-19T09:48:04.001Z</time></trkpt><trkpt lat="44.82805888289363" lon="12.379852560617849"><ele>-1.0</ele><time>2026-04-19T09:48:05.001Z</time></trkpt><trkpt lat="44.82789087825485" lon="12.379933236094267"><ele>-1.0</ele><time>2026-04-19T09:48:06.001Z</time></trkpt><trkpt lat="44.82773038185401" lon="12.380022478682667"><ele>-1.0</ele><time>2026-04-19T09:48:07.001Z</time></trkpt><trkpt lat="44.82756605460807" lon="12.380098169748726"><ele>-1.0</ele><time>2026-04-19T09:48:08.001Z</time></trkpt><trkpt lat="44.82740175479863" lon="12.380199838013183"><ele>-0.6666666666666666</ele><time>2026-04-19T09:48:09.001Z</time></trkpt><trkpt lat="44.82724337402091" lon="12.380333170044588"><ele>-0.3333333333333333</ele><time>2026-04-19T09:48:10.001Z</time></trkpt><trkpt lat="44.82707866911762" lon="12.380449261659718"><ele>0.0</ele><time>2026-04-19T09:48:11.001Z</time></trkpt><trkpt lat="44.826914014225714" lon="12.380569274346662"><ele>-0.6666666666666666</ele><time>2026-04-19T09:48:12.001Z</time></trkpt><trkpt lat="44.826754542861245" lon="12.380688534603852"><ele>-1.3333333333333333</ele><time>2026-04-19T09:48:13.001Z</time></trkpt><trkpt lat="44.82660563954442" lon="12.380803005762138"><ele>-2.0</ele><time>2026-04-19T09:48:14.001Z</time></trkpt><trkpt lat="44.826460726917986" lon="12.380916104930003"><ele>-2.0</ele><time>2026-04-19T09:48:15.001Z</time></trkpt><trkpt lat="44.826314223576134" lon="12.381032602116681"><ele>-2.0</ele><time>2026-04-19T09:48:16.001Z</time></trkpt><trkpt lat="44.826170523971" lon="12.381156843485442"><ele>-2.0</ele><time>2026-04-19T09:48:17.001Z</time></trkpt><trkpt lat="44.82602725052082" lon="12.381271297233173"><ele>-1.6666666666666665</ele><time>2026-04-19T09:48:18.001Z</time></trkpt><trkpt lat="44.8258962606548" lon="12.381410254398752"><ele>-1.3333333333333333</ele><time>2026-04-19T09:48:19.001Z</time></trkpt><trkpt lat="44.825770888133526" lon="12.38157099376034"><ele>-1.0</ele><time>2026-04-19T09:48:20.001Z</time></trkpt><trkpt lat="44.82565944619169" lon="12.38176099528985"><ele>-1.0</ele><time>2026-04-19T09:48:21.001Z</time></trkpt><trkpt lat="44.8255294321444" lon="12.38193704353817"><ele>-1.0</ele><time>2026-04-19T09:48:22.001Z</time></trkpt><trkpt lat="44.82539691965376" lon="12.38212122488224"><ele>-1.0</ele><time>2026-04-19T09:48:23.001Z</time></trkpt><trkpt lat="44.82526411434931" lon="12.38230372385825"><ele>-1.3333333333333333</ele><time>2026-04-19T09:48:24.001Z</time></trkpt><trkpt lat="44.825129708709014" lon="12.382497180606105"><ele>-1.6666666666666665</ele><time>2026-04-19T09:48:25.001Z</time></trkpt><trkpt lat="44.8249971323287" lon="12.38269290547311"><ele>-2.0</ele><time>2026-04-19T09:48:26.001Z</time></trkpt><trkpt lat="44.824869093121364" lon="12.382874416231274"><ele>-3.0</ele><time>2026-04-19T09:48:27.001Z</time></trkpt><trkpt lat="44.824741883901076" lon="12.383058125608441"><ele>-4.0</ele><time>2026-04-19T09:48:28.001Z</time></trkpt><trkpt lat="44.82461706686995" lon="12.383239655976016"><ele>-5.0</ele><time>2026-04-19T09:48:29.001Z</time></trkpt><trkpt lat="44.824494237936186" lon="12.383418096060698"><ele>-5.0</ele><time>2026-04-19T09:48:30.001Z</time></trkpt><trkpt lat="44.82437514783548" lon="12.383588359279594"><ele>-5.0</ele><time>2026-04-19T09:48:31.001Z</time></trkpt><trkpt lat="44.82425665834828" lon="12.383758300324214"><ele>-5.0</ele><time>2026-04-19T09:48:32.001Z</time></trkpt><trkpt lat="44.82413586812425" lon="12.383930206663065"><ele>-4.333333333333334</ele><time>2026-04-19T09:48:33.001Z</time></trkpt><trkpt lat="44.82401293183495" lon="12.384109276446168"><ele>-3.666666666666667</ele><time>2026-04-19T09:48:34.001Z</time></trkpt><trkpt lat="44.82388919610123" lon="12.384289683494048"><ele>-3.0</ele><time>2026-04-19T09:48:35.001Z</time></trkpt><trkpt lat="44.82376469989945" lon="12.384467229159837"><ele>-3.0</ele><time>2026-04-19T09:48:36.001Z</time></trkpt><trkpt lat="44.8236400779289" lon="12.384646371993664"><ele>-3.0</ele><time>2026-04-19T09:48:37.001Z</time></trkpt><trkpt lat="44.82351582936119" lon="12.384827110515676"><ele>-3.0</ele><time>2026-04-19T09:48:38.001Z</time></trkpt><trkpt lat="44.82338765458319" lon="12.385005472459143"><ele>-3.333333333333333</ele><time>2026-04-19T09:48:39.001Z</time></trkpt><trkpt lat="44.823252539874865" lon="12.385184993036665"><ele>-3.6666666666666665</ele><time>2026-04-19T09:48:40.001Z</time></trkpt><trkpt lat="44.82311560923638" lon="12.385371036206523"><ele>-4.0</ele><time>2026-04-19T09:48:41.001Z</time></trkpt><trkpt lat="44.82298183370761" lon="12.38556478176289"><ele>-4.0</ele><time>2026-04-19T09:48:42.001Z</time></trkpt><trkpt lat="44.82284713905571" lon="12.385758135264652"><ele>-4.0</ele><time>2026-04-19T09:48:43.001Z</time></trkpt><trkpt lat="44.82270993073239" lon="12.38595332225107"><ele>-4.0</ele><time>2026-04-19T09:48:44.001Z</time></trkpt><trkpt lat="44.82257892134066" lon="12.38613933345378"><ele>-3.333333333333333</ele><time>2026-04-19T09:48:45.001Z</time></trkpt><trkpt lat="44.822450300563645" lon="12.386321375020303"><ele>-2.6666666666666665</ele><time>2026-04-19T09:48:46.001Z</time></trkpt><trkpt lat="44.822330022393004" lon="12.386488735314892"><ele>-2.0</ele><time>2026-04-19T09:48:47.001Z</time></trkpt><trkpt lat="44.82221928429489" lon="12.38664276375191"><ele>-2.0</ele><time>2026-04-19T09:48:48.001Z</time></trkpt><trkpt lat="44.822117363955186" lon="12.386786272672781"><ele>-2.0</ele><time>2026-04-19T09:48:49.001Z</time></trkpt><trkpt lat="44.822017084800876" lon="12.386923619546018"><ele>-2.0</ele><time>2026-04-19T09:48:50.001Z</time></trkpt><trkpt lat="44.82191727997701" lon="12.387061592980702"><ele>-2.0</ele><time>2026-04-19T09:48:51.001Z</time></trkpt><trkpt lat="44.82181621164993" lon="12.387203362550931"><ele>-1.6666666666666665</ele><time>2026-04-19T09:48:52.001Z</time></trkpt><trkpt lat="44.82170779164523" lon="12.387353253991193"><ele>-1.3333333333333333</ele><time>2026-04-19T09:48:53.001Z</time></trkpt><trkpt lat="44.82159795489834" lon="12.38750485279665"><ele>-1.0</ele><time>2026-04-19T09:48:54.001Z</time></trkpt><trkpt lat="44.821486652426515" lon="12.387656053706959"><ele>-1.0</ele><time>2026-04-19T09:48:55.001Z</time></trkpt><trkpt lat="44.8213717372971" lon="12.387815103741625"><ele>-1.0</ele><time>2026-04-19T09:48:56.001Z</time></trkpt><trkpt lat="44.82125569675114" lon="12.387974528880175"><ele>-1.0</ele><time>2026-04-19T09:48:57.001Z</time></trkpt><trkpt lat="44.82113719035348" lon="12.38814082633688"><ele>-1.3333333333333333</ele><time>2026-04-19T09:48:58.001Z</time></trkpt><trkpt lat="44.82101954714397" lon="12.388308343887033"><ele>-1.6666666666666665</ele><time>2026-04-19T09:48:59.001Z</time></trkpt><trkpt lat="44.82090642649567" lon="12.38846745790676"><ele>-2.0</ele><time>2026-04-19T09:49:00.001Z</time></trkpt><trkpt lat="44.82079727301001" lon="12.388621200570604"><ele>-1.6666666666666665</ele><time>2026-04-19T09:49:01.001Z</time></trkpt><trkpt lat="44.820689090674655" lon="12.388772081012286"><ele>-1.3333333333333333</ele><time>2026-04-19T09:49:02.001Z</time></trkpt><trkpt lat="44.82058258531115" lon="12.388925094986176"><ele>-1.0</ele><time>2026-04-19T09:49:03.001Z</time></trkpt><trkpt lat="44.82047746921635" lon="12.389080856111844"><ele>-1.0</ele><time>2026-04-19T09:49:04.001Z</time></trkpt><trkpt lat="44.82037151700344" lon="12.389237253845536"><ele>-1.0</ele><time>2026-04-19T09:49:05.001Z</time></trkpt><trkpt lat="44.82026315940483" lon="12.389395136066657"><ele>-1.0</ele><time>2026-04-19T09:49:06.001Z</time></trkpt><trkpt lat="44.82015188729897" lon="12.389554249179701"><ele>-1.0</ele><time>2026-04-19T09:49:07.001Z</time></trkpt><trkpt lat="44.820037829047926" lon="12.389717077851076"><ele>-1.0</ele><time>2026-04-19T09:49:08.001Z</time></trkpt><trkpt lat="44.81992048310753" lon="12.38988129413387"><ele>-1.0</ele><time>2026-04-19T09:49:09.001Z</time></trkpt><trkpt lat="44.819801948984995" lon="12.390047115598573"><ele>-1.0</ele><time>2026-04-19T09:49:10.001Z</time></trkpt><trkpt lat="44.81968432610283" lon="12.390211096987137"><ele>-1.0</ele><time>2026-04-19T09:49:11.001Z</time></trkpt><trkpt lat="44.819560376620515" lon="12.390380867787758"><ele>-1.0</ele><time>2026-04-19T09:49:12.001Z</time></trkpt><trkpt lat="44.81943147452356" lon="12.390553748396888"><ele>-0.6666666666666666</ele><time>2026-04-19T09:49:13.001Z</time></trkpt><trkpt lat="44.81929611172268" lon="12.390733341176333"><ele>-0.3333333333333333</ele><time>2026-04-19T09:49:14.001Z</time></trkpt><trkpt lat="44.81916572810353" lon="12.390905126242133"><ele>0.0</ele><time>2026-04-19T09:49:15.001Z</time></trkpt><trkpt lat="44.81903245013087" lon="12.391080532872547"><ele>0.0</ele><time>2026-04-19T09:49:16.001Z</time></trkpt><trkpt lat="44.818901768919645" lon="12.391254800005951"><ele>0.0</ele><time>2026-04-19T09:49:17.001Z</time></trkpt><trkpt lat="44.818771321268706" lon="12.391425544044424"><ele>0.0</ele><time>2026-04-19T09:49:18.001Z</time></trkpt><trkpt lat="44.818645947274206" lon="12.391596871744488"><ele>0.0</ele><time>2026-04-19T09:49:19.001Z</time></trkpt><trkpt lat="44.818521815412765" lon="12.39176666719971"><ele>0.0</ele><time>2026-04-19T09:49:20.001Z</time></trkpt><trkpt lat="44.81839933199992" lon="12.39193081314652"><ele>0.0</ele><time>2026-04-19T09:49:21.001Z</time></trkpt><trkpt lat="44.81828237929451" lon="12.39208224151294"><ele>-0.6666666666666666</ele><time>2026-04-19T09:49:22.001Z</time></trkpt><trkpt lat="44.81816801907868" lon="12.392240313243077"><ele>-1.3333333333333333</ele><time>2026-04-19T09:49:23.001Z</time></trkpt><trkpt lat="44.81806450536931" lon="12.392408151352113"><ele>-2.0</ele><time>2026-04-19T09:49:24.001Z</time></trkpt><trkpt lat="44.8179657756156" lon="12.392588598622412"><ele>-2.0</ele><time>2026-04-19T09:49:25.001Z</time></trkpt><trkpt lat="44.817872848254595" lon="12.392782135777647"><ele>-2.0</ele><time>2026-04-19T09:49:26.001Z</time></trkpt><trkpt lat="44.81778000202276" lon="12.392981426445804"><ele>-2.0</ele><time>2026-04-19T09:49:27.001Z</time></trkpt><trkpt lat="44.817686273399815" lon="12.393182348721796"><ele>-1.3333333333333333</ele><time>2026-04-19T09:49:28.001Z</time></trkpt><trkpt lat="44.81759669610332" lon="12.393385629195414"><ele>-0.6666666666666666</ele><time>2026-04-19T09:49:29.001Z</time></trkpt><trkpt lat="44.81750766857167" lon="12.393594362910468"><ele>0.0</ele><time>2026-04-19T09:49:30.001Z</time></trkpt><trkpt lat="44.81741476624578" lon="12.393806878066309"><ele>-0.6666666666666666</ele><time>2026-04-19T09:49:31.001Z</time></trkpt><trkpt lat="44.8173223901215" lon="12.394014823692704"><ele>-1.3333333333333333</ele><time>2026-04-19T09:49:32.001Z</time></trkpt><trkpt lat="44.817231883896" lon="12.394219223890262"><ele>-2.0</ele><time>2026-04-19T09:49:33.001Z</time></trkpt><trkpt lat="44.817142498083946" lon="12.39442030727305"><ele>-2.0</ele><time>2026-04-19T09:49:34.001Z</time></trkpt><trkpt lat="44.81705526181488" lon="12.394621084467957"><ele>-2.0</ele><time>2026-04-19T09:49:35.001Z</time></trkpt><trkpt lat="44.816963418050484" lon="12.394824748876173"><ele>-2.0</ele><time>2026-04-19T09:49:36.001Z</time></trkpt><trkpt lat="44.81686850700984" lon="12.39503502589635"><ele>-1.6666666666666665</ele><time>2026-04-19T09:49:37.001Z</time></trkpt><trkpt lat="44.816772947642676" lon="12.395244874746057"><ele>-1.3333333333333333</ele><time>2026-04-19T09:49:38.001Z</time></trkpt><trkpt lat="44.816680900362904" lon="12.39545444870169"><ele>-1.0</ele><time>2026-04-19T09:49:39.001Z</time></trkpt><trkpt lat="44.81658959497109" lon="12.395663611528107"><ele>-1.0</ele><time>2026-04-19T09:49:40.001Z</time></trkpt><trkpt lat="44.81649988191473" lon="12.395872011743089"><ele>-1.0</ele><time>2026-04-19T09:49:41.001Z</time></trkpt><trkpt lat="44.81641391235232" lon="12.396079439982831"><ele>-1.0</ele><time>2026-04-19T09:49:42.001Z</time></trkpt><trkpt lat="44.8163313961238" lon="12.396281248816162"><ele>-1.0</ele><time>2026-04-19T09:49:43.001Z</time></trkpt><trkpt lat="44.816251056457844" lon="12.396482387359592"><ele>-1.0</ele><time>2026-04-19T09:49:44.001Z</time></trkpt><trkpt lat="44.8161722031907" lon="12.396706568729126"><ele>-1.0</ele><time>2026-04-19T09:49:45.001Z</time></trkpt><trkpt lat="44.816098573281664" lon="12.396943515115003"><ele>-1.3333333333333333</ele><time>2026-04-19T09:49:46.001Z</time></trkpt><trkpt lat="44.8160352833347" lon="12.397183691965145"><ele>-1.6666666666666665</ele><time>2026-04-19T09:49:47.001Z</time></trkpt><trkpt lat="44.815983098390845" lon="12.397430970570234"><ele>-2.0</ele><time>2026-04-19T09:49:48.001Z</time></trkpt><trkpt lat="44.815937879749455" lon="12.397683129809343"><ele>-1.6666666666666665</ele><time>2026-04-19T09:49:49.001Z</time></trkpt><trkpt lat="44.81589221593124" lon="12.397931768853908"><ele>-1.3333333333333333</ele><time>2026-04-19T09:49:50.001Z</time></trkpt><trkpt lat="44.81584480795715" lon="12.398176020835617"><ele>-1.0</ele><time>2026-04-19T09:49:51.001Z</time></trkpt><trkpt lat="44.81580128716985" lon="12.398412006709332"><ele>-1.0</ele><time>2026-04-19T09:49:52.001Z</time></trkpt><trkpt lat="44.8157583027174" lon="12.398638582179418"><ele>-1.0</ele><time>2026-04-19T09:49:53.001Z</time></trkpt><trkpt lat="44.81571130679721" lon="12.398865818596525"><ele>-1.0</ele><time>2026-04-19T09:49:54.001Z</time></trkpt><trkpt lat="44.81565850634598" lon="12.399089807149819"><ele>-1.0</ele><time>2026-04-19T09:49:55.001Z</time></trkpt><trkpt lat="44.81560176601168" lon="12.399309392370489"><ele>-1.0</ele><time>2026-04-19T09:49:56Z</time></trkpt><trkpt lat="44.81553916248414" lon="12.399526494510914"><ele>-1.0</ele><time>2026-04-19T09:49:57Z</time></trkpt><trkpt lat="44.815471750589325" lon="12.399746560065394"><ele>-1.0</ele><time>2026-04-19T09:49:58Z</time></trkpt><trkpt lat="44.815408031766495" lon="12.399969568737998"><ele>-1.0</ele><time>2026-04-19T09:49:59Z</time></trkpt><trkpt lat="44.815352291551456" lon="12.400194690939822"><ele>-1.0</ele><time>2026-04-19T09:50:00Z</time></trkpt><trkpt lat="44.81530034467509" lon="12.400422869834927"><ele>-1.0</ele><time>2026-04-19T09:50:01Z</time></trkpt><trkpt lat="44.81525034869896" lon="12.400654573428804"><ele>-1.0</ele><time>2026-04-19T09:50:02Z</time></trkpt><trkpt lat="44.815201985093324" lon="12.40089949958006"><ele>-1.0</ele><time>2026-04-19T09:50:03Z</time></trkpt><trkpt lat="44.81515295215879" lon="12.401157665868036"><ele>-0.6666666666666666</ele><time>2026-04-19T09:50:04Z</time></trkpt><trkpt lat="44.815104998952535" lon="12.401414849756772"><ele>-0.3333333333333333</ele><time>2026-04-19T09:50:05Z</time></trkpt><trkpt lat="44.815056797726236" lon="12.401666547301604"><ele>0.0</ele><time>2026-04-19T09:50:06Z</time></trkpt><trkpt lat="44.815009309493924" lon="12.401915324100589"><ele>0.0</ele><time>2026-04-19T09:50:07Z</time></trkpt><trkpt lat="44.81496284769373" lon="12.402158793221561"><ele>0.0</ele><time>2026-04-19T09:50:08Z</time></trkpt><trkpt lat="44.81491860468593" lon="12.40238544444965"><ele>0.0</ele><time>2026-04-19T09:50:09Z</time></trkpt><trkpt lat="44.814877069744576" lon="12.402594043635498"><ele>0.0</ele><time>2026-04-19T09:50:10Z</time></trkpt><trkpt lat="44.814839805440265" lon="12.402783611717275"><ele>0.0</ele><time>2026-04-19T09:50:11Z</time></trkpt><trkpt lat="44.81480453013601" lon="12.402960488188143"><ele>0.0</ele><time>2026-04-19T09:50:12Z</time></trkpt><trkpt lat="44.81477036785397" lon="12.4031243998908"><ele>0.0</ele><time>2026-04-19T09:50:13Z</time></trkpt><trkpt lat="44.814740218814784" lon="12.403267800536273"><ele>0.0</ele><time>2026-04-19T09:50:14Z</time></trkpt><trkpt lat="44.814718137794365" lon="12.403401316860263"><ele>0.0</ele><time>2026-04-19T09:50:15Z</time></trkpt><trkpt lat="44.81471325043457" lon="12.403524545034866"><ele>0.0</ele><time>2026-04-19T09:50:16Z</time></trkpt><trkpt lat="44.81472612123359" lon="12.403638045733754"><ele>0.0</ele><time>2026-04-19T09:50:17Z</time></trkpt><trkpt lat="44.81477932757535" lon="12.403727311530332"><ele>0.0</ele><time>2026-04-19T09:50:18Z</time></trkpt><trkpt lat="44.81487707902316" lon="12.403739217201391"><ele>0.0</ele><time>2026-04-19T09:50:19Z</time></trkpt><trkpt lat="44.81497437359739" lon="12.403750972402582"><ele>0.0</ele><time>2026-04-19T09:50:20Z</time></trkpt><trkpt lat="44.815091166918975" lon="12.403740577907973"><ele>0.0</ele><time>2026-04-19T09:50:21Z</time></trkpt><trkpt lat="44.81522751341697" lon="12.403759534962855"><ele>0.0</ele><time>2026-04-19T09:50:22Z</time></trkpt><trkpt lat="44.81538211158831" lon="12.403735822171502"><ele>0.0</ele><time>2026-04-19T09:50:23Z</time></trkpt><trkpt lat="44.815514540148975" lon="12.403733164050198"><ele>-0.25</ele><time>2026-04-19T09:50:24Z</time></trkpt><trkpt lat="44.815649692422454" lon="12.403728357436977"><ele>-0.5</ele><time>2026-04-19T09:50:25Z</time></trkpt><trkpt lat="44.81577764846981" lon="12.403726784431566"><ele>-0.75</ele><time>2026-04-19T09:50:26Z</time></trkpt><trkpt lat="44.81590120363611" lon="12.403727869500518"><ele>-1.0</ele><time>2026-04-19T09:50:27Z</time></trkpt><trkpt lat="44.81602526688517" lon="12.403729252441755"><ele>-1.0</ele><time>2026-04-19T09:50:28Z</time></trkpt><trkpt lat="44.816147783222576" lon="12.40372953374973"><ele>-1.0</ele><time>2026-04-19T09:50:29Z</time></trkpt><trkpt lat="44.816266119839085" lon="12.403730780370669"><ele>-1.0</ele><time>2026-04-19T09:50:30Z</time></trkpt><trkpt lat="44.816381525234966" lon="12.40373216084986"><ele>-1.0</ele><time>2026-04-19T09:50:31Z</time></trkpt><trkpt lat="44.816500692343205" lon="12.403730163436956"><ele>-1.0</ele><time>2026-04-19T09:50:32Z</time></trkpt><trkpt lat="44.816620620483015" lon="12.40372631794826"><ele>-1.0</ele><time>2026-04-19T09:50:33Z</time></trkpt><trkpt lat="44.81674671227097" lon="12.403717401375527"><ele>-1.0</ele><time>2026-04-19T09:50:34Z</time></trkpt><trkpt lat="44.8168682075839" lon="12.403714829299965"><ele>-1.0</ele><time>2026-04-19T09:50:35Z</time></trkpt><trkpt lat="44.816992637071934" lon="12.403721565373894"><ele>-1.0</ele><time>2026-04-19T09:50:36Z</time></trkpt><trkpt lat="44.81711373352213" lon="12.403684729438668"><ele>-1.0</ele><time>2026-04-19T09:50:37Z</time></trkpt><trkpt lat="44.817237435991856" lon="12.403677517278513"><ele>-1.0</ele><time>2026-04-19T09:50:38Z</time></trkpt><trkpt lat="44.817362433011525" lon="12.403659087487423"><ele>-1.0</ele><time>2026-04-19T09:50:39Z</time></trkpt><trkpt lat="44.81748982458639" lon="12.403641892782757"><ele>-1.0</ele><time>2026-04-19T09:50:40Z</time></trkpt><trkpt lat="44.81761494837983" lon="12.40362856388204"><ele>-1.0</ele><time>2026-04-19T09:50:41Z</time></trkpt><trkpt lat="44.81774582055573" lon="12.403603749369905"><ele>-1.0</ele><time>2026-04-19T09:50:42Z</time></trkpt><trkpt lat="44.81787436528678" lon="12.40358579844656"><ele>-1.0</ele><time>2026-04-19T09:50:43Z</time></trkpt><trkpt lat="44.81800070121152" lon="12.403570346582406"><ele>-1.0</ele><time>2026-04-19T09:50:44Z</time></trkpt><trkpt lat="44.81813020462392" lon="12.403553854001572"><ele>-1.0</ele><time>2026-04-19T09:50:45Z</time></trkpt><trkpt lat="44.818258826508554" lon="12.403537101641334"><ele>-1.0</ele><time>2026-04-19T09:50:46Z</time></trkpt><trkpt lat="44.818389226515905" lon="12.40352233942918"><ele>-1.0</ele><time>2026-04-19T09:50:47Z</time></trkpt><trkpt lat="44.81852064671791" lon="12.403511431872735"><ele>-1.0</ele><time>2026-04-19T09:50:48Z</time></trkpt><trkpt lat="44.81865093119332" lon="12.403505468322823"><ele>-1.0</ele><time>2026-04-19T09:50:49Z</time></trkpt><trkpt lat="44.81878392346317" lon="12.40350231575642"><ele>-1.0</ele><time>2026-04-19T09:50:50Z</time></trkpt><trkpt lat="44.81891476429924" lon="12.403501094222056"><ele>-1.0</ele><time>2026-04-19T09:50:51Z</time></trkpt><trkpt lat="44.81904514531735" lon="12.403496747021872"><ele>-1.0</ele><time>2026-04-19T09:50:52Z</time></trkpt><trkpt lat="44.81918422908294" lon="12.403495321880776"><ele>-1.0</ele><time>2026-04-19T09:50:53Z</time></trkpt><trkpt lat="44.819294837929625" lon="12.403492755962864"><ele>-1.0</ele><time>2026-04-19T09:50:54Z</time></trkpt><trkpt lat="44.819406815495086" lon="12.403490278554031"><ele>-1.0</ele><time>2026-04-19T09:50:55Z</time></trkpt><trkpt lat="44.819517557386646" lon="12.403488660706737"><ele>-0.6000000000000001</ele><time>2026-04-19T09:50:56Z</time></trkpt><trkpt lat="44.81962030696367" lon="12.40346840528373"><ele>-0.20000000000000007</ele><time>2026-04-19T09:50:57Z</time></trkpt><trkpt lat="44.8197088863106" lon="12.403416263680436"><ele>0.20000000000000007</ele><time>2026-04-19T09:50:58Z</time></trkpt><trkpt lat="44.819784020409564" lon="12.403333643893781"><ele>0.6000000000000001</ele><time>2026-04-19T09:50:59Z</time></trkpt><trkpt lat="44.819851342221284" lon="12.403229371594964"><ele>1.0</ele><time>2026-04-19T09:51:00Z</time></trkpt><trkpt lat="44.81991993777011" lon="12.403115369988281"><ele>0.75</ele><time>2026-04-19T09:51:01Z</time></trkpt><trkpt lat="44.82000134724037" lon="12.402996401890306"><ele>0.5</ele><time>2026-04-19T09:51:02Z</time></trkpt><trkpt lat="44.82008783072701" lon="12.402868573646936"><ele>0.25</ele><time>2026-04-19T09:51:03Z</time></trkpt><trkpt lat="44.820176231062575" lon="12.40273745149864"><ele>0.0</ele><time>2026-04-19T09:51:04Z</time></trkpt><trkpt lat="44.820271048527154" lon="12.402594417912315"><ele>0.0</ele><time>2026-04-19T09:51:05Z</time></trkpt><trkpt lat="44.820370762165574" lon="12.402446213173729"><ele>0.0</ele><time>2026-04-19T09:51:06Z</time></trkpt><trkpt lat="44.82047124573766" lon="12.402297052455056"><ele>0.0</ele><time>2026-04-19T09:51:07Z</time></trkpt><trkpt lat="44.820574847066176" lon="12.402146002492078"><ele>0.0</ele><time>2026-04-19T09:51:08Z</time></trkpt><trkpt lat="44.82068023597778" lon="12.401991990811783"><ele>0.0</ele><time>2026-04-19T09:51:09Z</time></trkpt><trkpt lat="44.82078499925535" lon="12.4018411325206"><ele>0.0</ele><time>2026-04-19T09:51:10Z</time></trkpt><trkpt lat="44.820877966554576" lon="12.401703980969204"><ele>0.0</ele><time>2026-04-19T09:51:11Z</time></trkpt><trkpt lat="44.82096806721166" lon="12.401573119239739"><ele>0.0</ele><time>2026-04-19T09:51:12Z</time></trkpt><trkpt lat="44.82105838864406" lon="12.401441726027576"><ele>0.25</ele><time>2026-04-19T09:51:13Z</time></trkpt><trkpt lat="44.821145719872185" lon="12.401307536132864"><ele>0.5</ele><time>2026-04-19T09:51:14Z</time></trkpt><trkpt lat="44.821233196081316" lon="12.401180587158015"><ele>0.75</ele><time>2026-04-19T09:51:15Z</time></trkpt><trkpt lat="44.82132222223229" lon="12.401046254069351"><ele>1.0</ele><time>2026-04-19T09:51:16Z</time></trkpt><trkpt lat="44.821412155078946" lon="12.400919394335851"><ele>1.0</ele><time>2026-04-19T09:51:17Z</time></trkpt><trkpt lat="44.821500856179505" lon="12.40078821801886"><ele>1.0</ele><time>2026-04-19T09:51:18Z</time></trkpt><trkpt lat="44.82159120640995" lon="12.400654571717775"><ele>1.0</ele><time>2026-04-19T09:51:19Z</time></trkpt><trkpt lat="44.82169313034585" lon="12.400535149397847"><ele>1.0</ele><time>2026-04-19T09:51:20Z</time></trkpt><trkpt lat="44.821770328960795" lon="12.400389991424282"><ele>0.75</ele><time>2026-04-19T09:51:21Z</time></trkpt><trkpt lat="44.82186674478448" lon="12.400257339517626"><ele>0.5</ele><time>2026-04-19T09:51:22Z</time></trkpt><trkpt lat="44.82196224133513" lon="12.400129999227193"><ele>0.25</ele><time>2026-04-19T09:51:23Z</time></trkpt><trkpt lat="44.82205170089505" lon="12.399991671697817"><ele>0.0</ele><time>2026-04-19T09:51:24Z</time></trkpt><trkpt lat="44.82214075591132" lon="12.399856936013355"><ele>0.0</ele><time>2026-04-19T09:51:25Z</time></trkpt><trkpt lat="44.82223241864076" lon="12.399716842488276"><ele>0.0</ele><time>2026-04-19T09:51:26Z</time></trkpt><trkpt lat="44.822324549284836" lon="12.39958198940135"><ele>0.0</ele><time>2026-04-19T09:51:27Z</time></trkpt><trkpt lat="44.822426382430216" lon="12.399439334897508"><ele>0.0</ele><time>2026-04-19T09:51:28Z</time></trkpt><trkpt lat="44.82252382934918" lon="12.399295461549745"><ele>0.0</ele><time>2026-04-19T09:51:29Z</time></trkpt><trkpt lat="44.82262744665004" lon="12.399141706889182"><ele>0.0</ele><time>2026-04-19T09:51:30Z</time></trkpt><trkpt lat="44.822727943848975" lon="12.39899739653967"><ele>0.0</ele><time>2026-04-19T09:51:31Z</time></trkpt><trkpt lat="44.82283284932283" lon="12.398843096726978"><ele>0.0</ele><time>2026-04-19T09:51:32Z</time></trkpt><trkpt lat="44.82293958602634" lon="12.39868932692255"><ele>0.0</ele><time>2026-04-19T09:51:33Z</time></trkpt><trkpt lat="44.82303888375882" lon="12.398539184242852"><ele>0.0</ele><time>2026-04-19T09:51:34Z</time></trkpt><trkpt lat="44.82313900715778" lon="12.398389489879929"><ele>0.0</ele><time>2026-04-19T09:51:35Z</time></trkpt><trkpt lat="44.82324081139944" lon="12.398242233423595"><ele>0.0</ele><time>2026-04-19T09:51:36Z</time></trkpt><trkpt lat="44.82334392952152" lon="12.39809607022566"><ele>-0.5</ele><time>2026-04-19T09:51:37Z</time></trkpt><trkpt lat="44.82344573345042" lon="12.3979477987499"><ele>-1.0</ele><time>2026-04-19T09:51:38Z</time></trkpt><trkpt lat="44.82354895752989" lon="12.397793755632732"><ele>-1.5</ele><time>2026-04-19T09:51:39Z</time></trkpt><trkpt lat="44.8236532536067" lon="12.397641751196506"><ele>-2.0</ele><time>2026-04-19T09:51:40Z</time></trkpt><trkpt lat="44.82375740969008" lon="12.39749576692702"><ele>-1.5</ele><time>2026-04-19T09:51:41Z</time></trkpt><trkpt lat="44.82385675464373" lon="12.397365810311422"><ele>-1.0</ele><time>2026-04-19T09:51:42Z</time></trkpt><trkpt lat="44.82396809721296" lon="12.39724252349028"><ele>-0.5</ele><time>2026-04-19T09:51:43Z</time></trkpt><trkpt lat="44.824094190970484" lon="12.397139445872282"><ele>0.0</ele><time>2026-04-19T09:51:44Z</time></trkpt><trkpt lat="44.82422995275474" lon="12.397044223738286"><ele>0.3333333333333333</ele><time>2026-04-19T09:51:45Z</time></trkpt><trkpt lat="44.82437025616205" lon="12.39695121840533"><ele>0.6666666666666666</ele><time>2026-04-19T09:51:46Z</time></trkpt><trkpt lat="44.82451507911022" lon="12.396852648908459"><ele>1.0</ele><time>2026-04-19T09:51:47Z</time></trkpt><trkpt lat="44.824662241288074" lon="12.396754265030728"><ele>1.0</ele><time>2026-04-19T09:51:48Z</time></trkpt><trkpt lat="44.82481247315541" lon="12.396654783828076"><ele>1.0</ele><time>2026-04-19T09:51:49Z</time></trkpt><trkpt lat="44.824962602829586" lon="12.396558458141891"><ele>1.0</ele><time>2026-04-19T09:51:50Z</time></trkpt><trkpt lat="44.82511252966382" lon="12.396461595821469"><ele>0.6666666666666666</ele><time>2026-04-19T09:51:51Z</time></trkpt><trkpt lat="44.82526169255273" lon="12.396363683840429"><ele>0.3333333333333333</ele><time>2026-04-19T09:51:52Z</time></trkpt><trkpt lat="44.82540968791588" lon="12.396263762165677"><ele>0.0</ele><time>2026-04-19T09:51:53Z</time></trkpt><trkpt lat="44.82555692039061" lon="12.39616465398071"><ele>0.0</ele><time>2026-04-19T09:51:54Z</time></trkpt><trkpt lat="44.82570288473479" lon="12.396064250761421"><ele>0.0</ele><time>2026-04-19T09:51:55Z</time></trkpt><trkpt lat="44.825848720928576" lon="12.395961039441483"><ele>0.0</ele><time>2026-04-19T09:51:56Z</time></trkpt><trkpt lat="44.82599520345667" lon="12.395859171636308"><ele>0.0</ele><time>2026-04-19T09:51:57Z</time></trkpt><trkpt lat="44.82614090893372" lon="12.395763104427878"><ele>0.0</ele><time>2026-04-19T09:51:58Z</time></trkpt><trkpt lat="44.82628698724665" lon="12.395666337496722"><ele>0.0</ele><time>2026-04-19T09:51:59Z</time></trkpt><trkpt lat="44.8264326409562" lon="12.395566779581735"><ele>0.0</ele><time>2026-04-19T09:52:00Z</time></trkpt><trkpt lat="44.82657664445129" lon="12.39546769857063"><ele>0.0</ele><time>2026-04-19T09:52:01Z</time></trkpt><trkpt lat="44.826719789099094" lon="12.39537172679484"><ele>0.0</ele><time>2026-04-19T09:52:02Z</time></trkpt><trkpt lat="44.82686301116616" lon="12.39527693917243"><ele>0.0</ele><time>2026-04-19T09:52:03Z</time></trkpt><trkpt lat="44.82700740647363" lon="12.395180113013783"><ele>0.0</ele><time>2026-04-19T09:52:04Z</time></trkpt><trkpt lat="44.82715178520008" lon="12.395080924096266"><ele>0.0</ele><time>2026-04-19T09:52:05Z</time></trkpt><trkpt lat="44.8272969512573" lon="12.394982902747257"><ele>0.0</ele><time>2026-04-19T09:52:06Z</time></trkpt><trkpt lat="44.827443443292005" lon="12.394884021638303"><ele>0.0</ele><time>2026-04-19T09:52:07Z</time></trkpt><trkpt lat="44.82758852017658" lon="12.394782894600025"><ele>0.0</ele><time>2026-04-19T09:52:08Z</time></trkpt><trkpt lat="44.82773285958112" lon="12.394683181063087"><ele>0.0</ele><time>2026-04-19T09:52:09Z</time></trkpt><trkpt lat="44.82787987207567" lon="12.394581096628514"><ele>0.0</ele><time>2026-04-19T09:52:10Z</time></trkpt><trkpt lat="44.82802696317662" lon="12.394480248870714"><ele>0.0</ele><time>2026-04-19T09:52:11Z</time></trkpt><trkpt lat="44.82817703273512" lon="12.394377533784196"><ele>0.0</ele><time>2026-04-19T09:52:12Z</time></trkpt><trkpt lat="44.828323351595856" lon="12.394276276281316"><ele>0.0</ele><time>2026-04-19T09:52:13Z</time></trkpt><trkpt lat="44.82847462369522" lon="12.394173930144154"><ele>0.0</ele><time>2026-04-19T09:52:14Z</time></trkpt><trkpt lat="44.82863101843544" lon="12.394093405024192"><ele>0.0</ele><time>2026-04-19T09:52:15Z</time></trkpt><trkpt lat="44.828781165574426" lon="12.393991198299313"><ele>0.0</ele><time>2026-04-19T09:52:16Z</time></trkpt><trkpt lat="44.82892330377404" lon="12.393868705888393"><ele>0.0</ele><time>2026-04-19T09:52:17Z</time></trkpt><trkpt lat="44.82907502998673" lon="12.393769807085201"><ele>0.0</ele><time>2026-04-19T09:52:18Z</time></trkpt><trkpt lat="44.829224651402654" lon="12.393668138416556"><ele>0.0</ele><time>2026-04-19T09:52:19Z</time></trkpt><trkpt lat="44.829374638260624" lon="12.393570853458163"><ele>0.0</ele><time>2026-04-19T09:52:20Z</time></trkpt><trkpt lat="44.82952302193092" lon="12.393467592896837"><ele>0.6666666666666666</ele><time>2026-04-19T09:52:21Z</time></trkpt><trkpt lat="44.82966561739774" lon="12.393369643158836"><ele>1.3333333333333333</ele><time>2026-04-19T09:52:22Z</time></trkpt><trkpt lat="44.82980450282091" lon="12.393272610120013"><ele>2.0</ele><time>2026-04-19T09:52:23Z</time></trkpt><trkpt lat="44.82994104910512" lon="12.393179077589044"><ele>2.0</ele><time>2026-04-19T09:52:24Z</time></trkpt><trkpt lat="44.83007895101319" lon="12.393094270694524"><ele>2.0</ele><time>2026-04-19T09:52:25Z</time></trkpt><trkpt lat="44.83021621971258" lon="12.393009790615883"><ele>2.0</ele><time>2026-04-19T09:52:26Z</time></trkpt><trkpt lat="44.830349045461915" lon="12.392926355493264"><ele>2.0</ele><time>2026-04-19T09:52:27Z</time></trkpt><trkpt lat="44.830484969779356" lon="12.39284828088725"><ele>1.75</ele><time>2026-04-19T09:52:28Z</time></trkpt><trkpt lat="44.83062040128209" lon="12.392791481005576"><ele>1.5</ele><time>2026-04-19T09:52:29Z</time></trkpt><trkpt lat="44.83075186746198" lon="12.39274108086679"><ele>1.25</ele><time>2026-04-19T09:52:30Z</time></trkpt><trkpt lat="44.83087577572424" lon="12.392701119642693"><ele>1.0</ele><time>2026-04-19T09:52:31Z</time></trkpt><trkpt lat="44.83099425739608" lon="12.392666694290668"><ele>0.75</ele><time>2026-04-19T09:52:32Z</time></trkpt><trkpt lat="44.831110919132996" lon="12.39264589099473"><ele>0.5</ele><time>2026-04-19T09:52:33Z</time></trkpt><trkpt lat="44.83122758636053" lon="12.392633865694613"><ele>0.25</ele><time>2026-04-19T09:52:34Z</time></trkpt><trkpt lat="44.83134049747949" lon="12.392632826273188"><ele>0.0</ele><time>2026-04-19T09:52:35Z</time></trkpt><trkpt lat="44.831442147088175" lon="12.392647960366615"><ele>0.0</ele><time>2026-04-19T09:52:36Z</time></trkpt><trkpt lat="44.831533183731274" lon="12.392683278707745"><ele>0.0</ele><time>2026-04-19T09:52:37Z</time></trkpt><trkpt lat="44.83160991582821" lon="12.39274890045186"><ele>0.0</ele><time>2026-04-19T09:52:38Z</time></trkpt><trkpt lat="44.83168068267732" lon="12.392853440486217"><ele>0.0</ele><time>2026-04-19T09:52:39Z</time></trkpt><trkpt lat="44.83174805673012" lon="12.392973450364149"><ele>0.0</ele><time>2026-04-19T09:52:40Z</time></trkpt><trkpt lat="44.83181523289748" lon="12.393113725888487"><ele>-0.25</ele><time>2026-04-19T09:52:41Z</time></trkpt><trkpt lat="44.83188373889602" lon="12.393267333958851"><ele>-0.5</ele><time>2026-04-19T09:52:42Z</time></trkpt><trkpt lat="44.831953700327865" lon="12.393437201426618"><ele>-0.75</ele><time>2026-04-19T09:52:43Z</time></trkpt><trkpt lat="44.83202916407634" lon="12.393606794312218"><ele>-1.0</ele><time>2026-04-19T09:52:44Z</time></trkpt><trkpt lat="44.83210555592625" lon="12.393775487724966"><ele>-0.75</ele><time>2026-04-19T09:52:45Z</time></trkpt><trkpt lat="44.832177629886196" lon="12.393939448448451"><ele>-0.5</ele><time>2026-04-19T09:52:46Z</time></trkpt><trkpt lat="44.832244010003066" lon="12.394087726443155"><ele>-0.25</ele><time>2026-04-19T09:52:47Z</time></trkpt><trkpt lat="44.832311351346554" lon="12.394230161469446"><ele>0.0</ele><time>2026-04-19T09:52:48Z</time></trkpt><trkpt lat="44.832369881773445" lon="12.394380246661916"><ele>0.0</ele><time>2026-04-19T09:52:49Z</time></trkpt><trkpt lat="44.832461981548335" lon="12.394500470157384"><ele>0.0</ele><time>2026-04-19T09:52:50Z</time></trkpt><trkpt lat="44.83258815150008" lon="12.394561918913958"><ele>0.0</ele><time>2026-04-19T09:52:51Z</time></trkpt><trkpt lat="44.83270826044804" lon="12.394636217838803"><ele>0.0</ele><time>2026-04-19T09:52:52Z</time></trkpt><trkpt lat="44.83283381197205" lon="12.394705371728913"><ele>0.25</ele><time>2026-04-19T09:52:53Z</time></trkpt><trkpt lat="44.832962866855965" lon="12.394775638148513"><ele>0.5</ele><time>2026-04-19T09:52:54Z</time></trkpt><trkpt lat="44.83309617070111" lon="12.394846727958736"><ele>0.75</ele><time>2026-04-19T09:52:55Z</time></trkpt><trkpt lat="44.83323325181023" lon="12.394918895005416"><ele>1.0</ele><time>2026-04-19T09:52:56Z</time></trkpt><trkpt lat="44.83337012724351" lon="12.39499118536654"><ele>0.6666666666666666</ele><time>2026-04-19T09:52:57Z</time></trkpt><trkpt lat="44.833509718418576" lon="12.395064628967388"><ele>0.3333333333333333</ele><time>2026-04-19T09:52:58Z</time></trkpt><trkpt lat="44.833650638745716" lon="12.39513825960198"><ele>0.0</ele><time>2026-04-19T09:52:59Z</time></trkpt><trkpt lat="44.83379223790801" lon="12.39521213396222"><ele>0.0</ele><time>2026-04-19T09:53:00Z</time></trkpt><trkpt lat="44.8339376978238" lon="12.395280655343278"><ele>0.0</ele><time>2026-04-19T09:53:01Z</time></trkpt><trkpt lat="44.83408800865897" lon="12.395336090638995"><ele>0.0</ele><time>2026-04-19T09:53:02Z</time></trkpt><trkpt lat="44.83424273947769" lon="12.395374107949472"><ele>-0.3333333333333333</ele><time>2026-04-19T09:53:03Z</time></trkpt><trkpt lat="44.83440056367447" lon="12.39540753584846"><ele>-0.6666666666666666</ele><time>2026-04-19T09:53:04Z</time></trkpt><trkpt lat="44.83456221766771" lon="12.395442641978583"><ele>-1.0</ele><time>2026-04-19T09:53:05Z</time></trkpt><trkpt lat="44.83472705049343" lon="12.395474573367888"><ele>-0.3333333333333333</ele><time>2026-04-19T09:53:06Z</time></trkpt><trkpt lat="44.83489778510855" lon="12.395507274068231"><ele>0.3333333333333333</ele><time>2026-04-19T09:53:07Z</time></trkpt><trkpt lat="44.83506911756662" lon="12.395536079492379"><ele>1.0</ele><time>2026-04-19T09:53:08Z</time></trkpt><trkpt lat="44.83524201374754" lon="12.39556094269321"><ele>1.0</ele><time>2026-04-19T09:53:09Z</time></trkpt><trkpt lat="44.83541506146337" lon="12.3955877427066"><ele>1.0</ele><time>2026-04-19T09:53:10Z</time></trkpt><trkpt lat="44.83558896188491" lon="12.395616725669049"><ele>1.0</ele><time>2026-04-19T09:53:11Z</time></trkpt><trkpt lat="44.835767281244294" lon="12.395647275286228"><ele>1.0</ele><time>2026-04-19T09:53:12Z</time></trkpt><trkpt lat="44.83594657120576" lon="12.395676981996937"><ele>1.0</ele><time>2026-04-19T09:53:13Z</time></trkpt><trkpt lat="44.83612685275264" lon="12.395704707164816"><ele>1.0</ele><time>2026-04-19T09:53:14Z</time></trkpt><trkpt lat="44.836308524992376" lon="12.395735085186129"><ele>1.0</ele><time>2026-04-19T09:53:15Z</time></trkpt><trkpt lat="44.83648942952894" lon="12.395765902031817"><ele>1.0</ele><time>2026-04-19T09:53:16Z</time></trkpt><trkpt lat="44.83666707444345" lon="12.395796111198987"><ele>1.0</ele><time>2026-04-19T09:53:17Z</time></trkpt><trkpt lat="44.8368403693948" lon="12.39582663464081"><ele>0.6666666666666666</ele><time>2026-04-19T09:53:18Z</time></trkpt><trkpt lat="44.837008956727665" lon="12.395863733366781"><ele>0.3333333333333333</ele><time>2026-04-19T09:53:19Z</time></trkpt><trkpt lat="44.837173260091156" lon="12.395905365281104"><ele>0.0</ele><time>2026-04-19T09:53:20Z</time></trkpt><trkpt lat="44.83733367613339" lon="12.395956307459175"><ele>0.0</ele><time>2026-04-19T09:53:21Z</time></trkpt><trkpt lat="44.83748981902709" lon="12.396017038643148"><ele>0.0</ele><time>2026-04-19T09:53:22Z</time></trkpt><trkpt lat="44.837642166267564" lon="12.396093951843808"><ele>0.0</ele><time>2026-04-19T09:53:23Z</time></trkpt><trkpt lat="44.83779200313709" lon="12.396171387786488"><ele>-0.3333333333333333</ele><time>2026-04-19T09:53:24Z</time></trkpt><trkpt lat="44.837941500743135" lon="12.39625029713949"><ele>-0.6666666666666666</ele><time>2026-04-19T09:53:25Z</time></trkpt><trkpt lat="44.83809055592226" lon="12.396326393991767"><ele>-1.0</ele><time>2026-04-19T09:53:26Z</time></trkpt><trkpt lat="44.83823774769456" lon="12.396404899899363"><ele>-1.0</ele><time>2026-04-19T09:53:27Z</time></trkpt><trkpt lat="44.83838440775372" lon="12.396483681685314"><ele>-1.0</ele><time>2026-04-19T09:53:28Z</time></trkpt><trkpt lat="44.838530990427294" lon="12.396559721366726"><ele>-1.0</ele><time>2026-04-19T09:53:29Z</time></trkpt><trkpt lat="44.838676043805954" lon="12.396633080262417"><ele>-1.0</ele><time>2026-04-19T09:53:30Z</time></trkpt><trkpt lat="44.83882102051857" lon="12.396701639178792"><ele>-1.0</ele><time>2026-04-19T09:53:31Z</time></trkpt><trkpt lat="44.83896728177396" lon="12.396770745754953"><ele>-1.0</ele><time>2026-04-19T09:53:32Z</time></trkpt><trkpt lat="44.83911062113552" lon="12.396840267453475"><ele>-1.0</ele><time>2026-04-19T09:53:33Z</time></trkpt><trkpt lat="44.839254757050625" lon="12.396911599870093"><ele>-1.0</ele><time>2026-04-19T09:53:34Z</time></trkpt><trkpt lat="44.83939980739877" lon="12.396981197750252"><ele>-1.0</ele><time>2026-04-19T09:53:35Z</time></trkpt><trkpt lat="44.83954293182589" lon="12.397048680372624"><ele>-1.3333333333333333</ele><time>2026-04-19T09:53:36Z</time></trkpt><trkpt lat="44.83968668934973" lon="12.39711841654727"><ele>-1.6666666666666665</ele><time>2026-04-19T09:53:37Z</time></trkpt><trkpt lat="44.83983135786459" lon="12.397187943226655"><ele>-2.0</ele><time>2026-04-19T09:53:38Z</time></trkpt><trkpt lat="44.83997582827828" lon="12.39726147975417"><ele>-1.0</ele><time>2026-04-19T09:53:39Z</time></trkpt><trkpt lat="44.840118271797294" lon="12.39733522722967"><ele>0.0</ele><time>2026-04-19T09:53:40Z</time></trkpt><trkpt lat="44.84025938579094" lon="12.397407097664303"><ele>1.0</ele><time>2026-04-19T09:53:41Z</time></trkpt><trkpt lat="44.840399725596555" lon="12.397477853571832"><ele>1.0</ele><time>2026-04-19T09:53:42Z</time></trkpt><trkpt lat="44.840544403397175" lon="12.397548971535759"><ele>1.0</ele><time>2026-04-19T09:53:43Z</time></trkpt><trkpt lat="44.84068780926566" lon="12.397621118641613"><ele>1.0</ele><time>2026-04-19T09:53:44Z</time></trkpt><trkpt lat="44.840828462199426" lon="12.397693672719544"><ele>0.5</ele><time>2026-04-19T09:53:45Z</time></trkpt><trkpt lat="44.84097001593499" lon="12.397765382268675"><ele>0.0</ele><time>2026-04-19T09:53:46Z</time></trkpt><trkpt lat="44.841113198119835" lon="12.397834470653907"><ele>-0.5</ele><time>2026-04-19T09:53:47Z</time></trkpt><trkpt lat="44.84125115351614" lon="12.397902237495378"><ele>-1.0</ele><time>2026-04-19T09:53:48Z</time></trkpt><trkpt lat="44.84138297181557" lon="12.39797245227778"><ele>-0.6666666666666666</ele><time>2026-04-19T09:53:49Z</time></trkpt><trkpt lat="44.84151482799897" lon="12.398056270584778"><ele>-0.3333333333333333</ele><time>2026-04-19T09:53:50Z</time></trkpt><trkpt lat="44.84164809208658" lon="12.398158588300797"><ele>0.0</ele><time>2026-04-19T09:53:51Z</time></trkpt><trkpt lat="44.84178488521162" lon="12.398270536244677"><ele>-0.3333333333333333</ele><time>2026-04-19T09:53:52Z</time></trkpt><trkpt lat="44.84192460711442" lon="12.398384787644456"><ele>-0.6666666666666666</ele><time>2026-04-19T09:53:53Z</time></trkpt><trkpt lat="44.84206103697935" lon="12.398512002317783"><ele>-1.0</ele><time>2026-04-19T09:53:54Z</time></trkpt><trkpt lat="44.842192796525026" lon="12.398646608854898"><ele>-1.0</ele><time>2026-04-19T09:53:55Z</time></trkpt><trkpt lat="44.84232431808983" lon="12.398788557159225"><ele>-1.0</ele><time>2026-04-19T09:53:56Z</time></trkpt><trkpt lat="44.84246649213845" lon="12.398944859584576"><ele>-1.0</ele><time>2026-04-19T09:53:57Z</time></trkpt><trkpt lat="44.84259638342308" lon="12.399091683869301"><ele>-1.0</ele><time>2026-04-19T09:53:58Z</time></trkpt><trkpt lat="44.84271890729992" lon="12.39922866406625"><ele>-1.0</ele><time>2026-04-19T09:53:59Z</time></trkpt><trkpt lat="44.842837945755335" lon="12.399364479236395"><ele>-1.0</ele><time>2026-04-19T09:54:00Z</time></trkpt><trkpt lat="44.842952344362466" lon="12.399492962238078"><ele>-1.0</ele><time>2026-04-19T09:54:01Z</time></trkpt><trkpt lat="44.84306658638193" lon="12.399617628883554"><ele>-1.0</ele><time>2026-04-19T09:54:02Z</time></trkpt><trkpt lat="44.843177769748664" lon="12.399740004400726"><ele>-1.0</ele><time>2026-04-19T09:54:03Z</time></trkpt><trkpt lat="44.843283776092235" lon="12.399862471807817"><ele>-1.0</ele><time>2026-04-19T09:54:04Z</time></trkpt><trkpt lat="44.84338831039816" lon="12.399982204555654"><ele>-1.0</ele><time>2026-04-19T09:54:05Z</time></trkpt><trkpt lat="44.84349256686448" lon="12.400102931178942"><ele>-1.0</ele><time>2026-04-19T09:54:06Z</time></trkpt><trkpt lat="44.84360394027478" lon="12.400229457077847"><ele>-1.0</ele><time>2026-04-19T09:54:07Z</time></trkpt><trkpt lat="44.84371603903472" lon="12.400358756114525"><ele>-1.0</ele><time>2026-04-19T09:54:07.999Z</time></trkpt><trkpt lat="44.843825773441175" lon="12.400485729115836"><ele>-0.25</ele><time>2026-04-19T09:54:08.999Z</time></trkpt><trkpt lat="44.84393454101842" lon="12.400612327966524"><ele>0.5</ele><time>2026-04-19T09:54:09.999Z</time></trkpt><trkpt lat="44.844042965162956" lon="12.400734834909176"><ele>1.25</ele><time>2026-04-19T09:54:10.999Z</time></trkpt><trkpt lat="44.84414920158302" lon="12.400852800052949"><ele>2.0</ele><time>2026-04-19T09:54:11.999Z</time></trkpt><trkpt lat="44.84425069240056" lon="12.400969294907801"><ele>2.0</ele><time>2026-04-19T09:54:12.999Z</time></trkpt><trkpt lat="44.844347885962584" lon="12.401082449876894"><ele>2.0</ele><time>2026-04-19T09:54:13.999Z</time></trkpt><trkpt lat="44.844441707036644" lon="12.401188507237851"><ele>2.0</ele><time>2026-04-19T09:54:14.999Z</time></trkpt><trkpt lat="44.844536639197074" lon="12.401276322243783"><ele>2.0</ele><time>2026-04-19T09:54:15.999Z</time></trkpt><trkpt lat="44.84464001970847" lon="12.401355791325766"><ele>2.0</ele><time>2026-04-19T09:54:16.999Z</time></trkpt><trkpt lat="44.844768877614236" lon="12.401357402967557"><ele>2.0</ele><time>2026-04-19T09:54:17.999Z</time></trkpt><trkpt lat="44.844915541846284" lon="12.40133777874192"><ele>2.0</ele><time>2026-04-19T09:54:18.999Z</time></trkpt><trkpt lat="44.84506284213087" lon="12.401318060456758"><ele>2.0</ele><time>2026-04-19T09:54:19.999Z</time></trkpt><trkpt lat="44.845197330350956" lon="12.401304930533593"><ele>1.75</ele><time>2026-04-19T09:54:20.999Z</time></trkpt><trkpt lat="44.845322897259145" lon="12.401318872054464"><ele>1.5</ele><time>2026-04-19T09:54:21.999Z</time></trkpt><trkpt lat="44.84545053271964" lon="12.401382454140494"><ele>1.25</ele><time>2026-04-19T09:54:22.999Z</time></trkpt><trkpt lat="44.84557354676795" lon="12.40148438305107"><ele>1.0</ele><time>2026-04-19T09:54:23.999Z</time></trkpt><trkpt lat="44.84567734802123" lon="12.401583665401985"><ele>1.0</ele><time>2026-04-19T09:54:24.999Z</time></trkpt><trkpt lat="44.84577319441804" lon="12.40167762884418"><ele>1.0</ele><time>2026-04-19T09:54:25.999Z</time></trkpt><trkpt lat="44.8458723463119" lon="12.401763556788426"><ele>1.0</ele><time>2026-04-19T09:54:26.999Z</time></trkpt><trkpt lat="44.84597619727865" lon="12.401853181397371"><ele>1.0</ele><time>2026-04-19T09:54:27.999Z</time></trkpt><trkpt lat="44.846100977982694" lon="12.401888053168518"><ele>0.75</ele><time>2026-04-19T09:54:28.999Z</time></trkpt><trkpt lat="44.84623010925215" lon="12.401875921383853"><ele>0.5</ele><time>2026-04-19T09:54:29.999Z</time></trkpt><trkpt lat="44.84636517600392" lon="12.401857270197642"><ele>0.25</ele><time>2026-04-19T09:54:30.999Z</time></trkpt><trkpt lat="44.84650441429733" lon="12.401838066868143"><ele>0.0</ele><time>2026-04-19T09:54:31.999Z</time></trkpt><trkpt lat="44.84664134895249" lon="12.40181940098086"><ele>0.0</ele><time>2026-04-19T09:54:32.999Z</time></trkpt><trkpt lat="44.84678165894051" lon="12.401800274996573"><ele>0.0</ele><time>2026-04-19T09:54:33.999Z</time></trkpt><trkpt lat="44.846934362905365" lon="12.401778770745272"><ele>0.0</ele><time>2026-04-19T09:54:34.999Z</time></trkpt><trkpt lat="44.847075511542315" lon="12.40175815332193"><ele>0.0</ele><time>2026-04-19T09:54:35.999Z</time></trkpt><trkpt lat="44.847228509411245" lon="12.40173580506106"><ele>0.0</ele><time>2026-04-19T09:54:36.999Z</time></trkpt><trkpt lat="44.84737946634677" lon="12.401690695338925"><ele>0.0</ele><time>2026-04-19T09:54:37.999Z</time></trkpt><trkpt lat="44.84753169804868" lon="12.401669272960605"><ele>0.0</ele><time>2026-04-19T09:54:38.999Z</time></trkpt><trkpt lat="44.847682376171704" lon="12.401650747501364"><ele>0.5</ele><time>2026-04-19T09:54:39.999Z</time></trkpt><trkpt lat="44.84782507170298" lon="12.401633323913693"><ele>1.0</ele><time>2026-04-19T09:54:40.999Z</time></trkpt><trkpt lat="44.84796096587818" lon="12.401616340136497"><ele>1.5</ele><time>2026-04-19T09:54:41.999Z</time></trkpt><trkpt lat="44.84809622242523" lon="12.401603548294517"><ele>2.0</ele><time>2026-04-19T09:54:42.999Z</time></trkpt><trkpt lat="44.84824025621396" lon="12.40158998406784"><ele>2.0</ele><time>2026-04-19T09:54:43.999Z</time></trkpt><trkpt lat="44.84838916780556" lon="12.4015720423247"><ele>2.0</ele><time>2026-04-19T09:54:44.999Z</time></trkpt><trkpt lat="44.84854078074328" lon="12.401548513003727"><ele>2.0</ele><time>2026-04-19T09:54:45.999Z</time></trkpt><trkpt lat="44.84869218517299" lon="12.40152595806847"><ele>1.75</ele><time>2026-04-19T09:54:46.999Z</time></trkpt><trkpt lat="44.84884113545741" lon="12.40150579325624"><ele>1.5</ele><time>2026-04-19T09:54:47.999Z</time></trkpt><trkpt lat="44.84898702836707" lon="12.401486558546443"><ele>1.25</ele><time>2026-04-19T09:54:48.999Z</time></trkpt><trkpt lat="44.84913145560949" lon="12.401467160593869"><ele>1.0</ele><time>2026-04-19T09:54:49.999Z</time></trkpt><trkpt lat="44.849275843141825" lon="12.4014473391151"><ele>0.75</ele><time>2026-04-19T09:54:50.999Z</time></trkpt><trkpt lat="44.84941786595667" lon="12.40142626027754"><ele>0.5</ele><time>2026-04-19T09:54:51.999Z</time></trkpt><trkpt lat="44.849551514461055" lon="12.401405269513766"><ele>0.25</ele><time>2026-04-19T09:54:52.999Z</time></trkpt><trkpt lat="44.8496739934612" lon="12.401411570053533"><ele>0.0</ele><time>2026-04-19T09:54:53.999Z</time></trkpt><trkpt lat="44.849790247925334" lon="12.401397765962162"><ele>0.0</ele><time>2026-04-19T09:54:54.999Z</time></trkpt><trkpt lat="44.849901398134854" lon="12.401373860164474"><ele>0.0</ele><time>2026-04-19T09:54:55.999Z</time></trkpt><trkpt lat="44.850004552899215" lon="12.401418109201444"><ele>0.0</ele><time>2026-04-19T09:54:56.999Z</time></trkpt><trkpt lat="44.85009859208675" lon="12.401518328026674"><ele>0.0</ele><time>2026-04-19T09:54:57.999Z</time></trkpt><trkpt lat="44.85015846432302" lon="12.401672324173221"><ele>0.0</ele><time>2026-04-19T09:54:58.999Z</time></trkpt><trkpt lat="44.85024352724227" lon="12.401826400950732"><ele>0.0</ele><time>2026-04-19T09:54:59.999Z</time></trkpt><trkpt lat="44.85031704150147" lon="12.401997244190477"><ele>0.0</ele><time>2026-04-19T09:55:00.999Z</time></trkpt><trkpt lat="44.850388768784725" lon="12.402171334040899"><ele>0.0</ele><time>2026-04-19T09:55:01.999Z</time></trkpt><trkpt lat="44.850453795156746" lon="12.40233637091555"><ele>0.0</ele><time>2026-04-19T09:55:02.999Z</time></trkpt><trkpt lat="44.85052198314432" lon="12.402503116934048"><ele>0.0</ele><time>2026-04-19T09:55:03.999Z</time></trkpt><trkpt lat="44.85058765820084" lon="12.40265577892122"><ele>0.0</ele><time>2026-04-19T09:55:04.999Z</time></trkpt><trkpt lat="44.8506493548939" lon="12.402800153356651"><ele>0.0</ele><time>2026-04-19T09:55:05.999Z</time></trkpt><trkpt lat="44.850709920006146" lon="12.402951819794076"><ele>0.25</ele><time>2026-04-19T09:55:06.999Z</time></trkpt><trkpt lat="44.85077306375218" lon="12.40310091356852"><ele>0.5</ele><time>2026-04-19T09:55:07.999Z</time></trkpt><trkpt lat="44.8508346656677" lon="12.403238794297643"><ele>0.75</ele><time>2026-04-19T09:55:08.999Z</time></trkpt><trkpt lat="44.850893290607985" lon="12.4033715943089"><ele>1.0</ele><time>2026-04-19T09:55:10Z</time></trkpt><trkpt lat="44.850952183683994" lon="12.40350851023676"><ele>1.0</ele><time>2026-04-19T09:55:11Z</time></trkpt><trkpt lat="44.85101226313277" lon="12.403649044122666"><ele>1.0</ele><time>2026-04-19T09:55:12Z</time></trkpt><trkpt lat="44.851074600893895" lon="12.403790095743817"><ele>1.0</ele><time>2026-04-19T09:55:13Z</time></trkpt><trkpt lat="44.85113794720502" lon="12.403931980777275"><ele>1.0</ele><time>2026-04-19T09:55:14Z</time></trkpt><trkpt lat="44.85119716091104" lon="12.404068811894989"><ele>1.0</ele><time>2026-04-19T09:55:15Z</time></trkpt><trkpt lat="44.851251720190845" lon="12.404201435455755"><ele>1.0</ele><time>2026-04-19T09:55:16Z</time></trkpt><trkpt lat="44.85130282908392" lon="12.40432677931177"><ele>1.0</ele><time>2026-04-19T09:55:17Z</time></trkpt><trkpt lat="44.85135219229108" lon="12.404442532850622"><ele>1.0</ele><time>2026-04-19T09:55:18Z</time></trkpt><trkpt lat="44.85139987903076" lon="12.40455222120678"><ele>1.0</ele><time>2026-04-19T09:55:19Z</time></trkpt><trkpt lat="44.85145542689008" lon="12.40464579181712"><ele>1.0</ele><time>2026-04-19T09:55:20Z</time></trkpt><trkpt lat="44.85152741841081" lon="12.404714433084395"><ele>1.0</ele><time>2026-04-19T09:55:21Z</time></trkpt><trkpt lat="44.851613028754" lon="12.404746292532993"><ele>1.0</ele><time>2026-04-19T09:55:22Z</time></trkpt><trkpt lat="44.85170608109723" lon="12.40474009915225"><ele>1.0</ele><time>2026-04-19T09:55:23Z</time></trkpt><trkpt lat="44.851810978748105" lon="12.40472168001003"><ele>1.0</ele><time>2026-04-19T09:55:24Z</time></trkpt><trkpt lat="44.851904193411436" lon="12.404630593492293"><ele>1.0</ele><time>2026-04-19T09:55:25Z</time></trkpt><trkpt lat="44.85200423359717" lon="12.404556475061934"><ele>1.0</ele><time>2026-04-19T09:55:26Z</time></trkpt><trkpt lat="44.8521022618158" lon="12.404476800855889"><ele>1.0</ele><time>2026-04-19T09:55:27Z</time></trkpt><trkpt lat="44.85219611041371" lon="12.404396870731873"><ele>1.0</ele><time>2026-04-19T09:55:28Z</time></trkpt><trkpt lat="44.852283988027544" lon="12.404322771296775"><ele>1.0</ele><time>2026-04-19T09:55:29Z</time></trkpt><trkpt lat="44.85236862640414" lon="12.404252996616643"><ele>1.0</ele><time>2026-04-19T09:55:30Z</time></trkpt><trkpt lat="44.85245368638158" lon="12.404181706164575"><ele>1.0</ele><time>2026-04-19T09:55:31Z</time></trkpt><trkpt lat="44.852541166464015" lon="12.404108087937333"><ele>1.0</ele><time>2026-04-19T09:55:32Z</time></trkpt><trkpt lat="44.85263041951233" lon="12.404034429436544"><ele>1.0</ele><time>2026-04-19T09:55:33Z</time></trkpt><trkpt lat="44.852719286478894" lon="12.403962539860204"><ele>1.0</ele><time>2026-04-19T09:55:34Z</time></trkpt><trkpt lat="44.852811966968275" lon="12.403889589148688"><ele>0.75</ele><time>2026-04-19T09:55:35Z</time></trkpt><trkpt lat="44.852904123123956" lon="12.403812111180425"><ele>0.5</ele><time>2026-04-19T09:55:36Z</time></trkpt><trkpt lat="44.85299778497977" lon="12.403730122707806"><ele>0.25</ele><time>2026-04-19T09:55:37Z</time></trkpt><trkpt lat="44.853096272470296" lon="12.403646551936216"><ele>0.0</ele><time>2026-04-19T09:55:38Z</time></trkpt><trkpt lat="44.85320271121901" lon="12.40356307519356"><ele>0.0</ele><time>2026-04-19T09:55:39Z</time></trkpt><trkpt lat="44.85331089246335" lon="12.403476454906546"><ele>0.0</ele><time>2026-04-19T09:55:40Z</time></trkpt><trkpt lat="44.8534190394115" lon="12.403384627233605"><ele>0.0</ele><time>2026-04-19T09:55:41Z</time></trkpt><trkpt lat="44.853527997782415" lon="12.403290139110434"><ele>0.0</ele><time>2026-04-19T09:55:42Z</time></trkpt><trkpt lat="44.85363398571316" lon="12.403199663116949"><ele>0.0</ele><time>2026-04-19T09:55:43Z</time></trkpt><trkpt lat="44.85374291104564" lon="12.403109329073635"><ele>0.0</ele><time>2026-04-19T09:55:44Z</time></trkpt><trkpt lat="44.85386111160898" lon="12.403013566275012"><ele>0.0</ele><time>2026-04-19T09:55:45Z</time></trkpt><trkpt lat="44.853977311417765" lon="12.402916805308395"><ele>0.0</ele><time>2026-04-19T09:55:46Z</time></trkpt><trkpt lat="44.85409489541941" lon="12.402814987104646"><ele>0.3333333333333333</ele><time>2026-04-19T09:55:47Z</time></trkpt><trkpt lat="44.85423155492899" lon="12.402703851130903"><ele>0.6666666666666666</ele><time>2026-04-19T09:55:48Z</time></trkpt><trkpt lat="44.854392086773125" lon="12.402564342844075"><ele>1.0</ele><time>2026-04-19T09:55:49Z</time></trkpt><trkpt lat="44.854575833580625" lon="12.402410373087044"><ele>1.0</ele><time>2026-04-19T09:55:50Z</time></trkpt><trkpt lat="44.854770100526814" lon="12.402248324332055"><ele>1.0</ele><time>2026-04-19T09:55:51Z</time></trkpt><trkpt lat="44.85493780594917" lon="12.402107566475781"><ele>1.0</ele><time>2026-04-19T09:55:52Z</time></trkpt><trkpt lat="44.85509147327702" lon="12.401980019569274"><ele>1.0</ele><time>2026-04-19T09:55:53Z</time></trkpt><trkpt lat="44.85523613128811" lon="12.401861924792064"><ele>1.0</ele><time>2026-04-19T09:55:54Z</time></trkpt><trkpt lat="44.85538857789201" lon="12.401737267863727"><ele>1.0</ele><time>2026-04-19T09:55:55Z</time></trkpt><trkpt lat="44.85554460467788" lon="12.4016092325699"><ele>1.0</ele><time>2026-04-19T09:55:56Z</time></trkpt><trkpt lat="44.855702490143855" lon="12.401476102913817"><ele>1.0</ele><time>2026-04-19T09:55:57Z</time></trkpt><trkpt lat="44.85585565145053" lon="12.401348982427079"><ele>1.0</ele><time>2026-04-19T09:55:58Z</time></trkpt><trkpt lat="44.856005169505465" lon="12.40122388700834"><ele>1.0</ele><time>2026-04-19T09:55:59Z</time></trkpt><trkpt lat="44.856139663250545" lon="12.40111210556394"><ele>1.0</ele><time>2026-04-19T09:56:00Z</time></trkpt><trkpt lat="44.856273547586" lon="12.401002938137614"><ele>1.0</ele><time>2026-04-19T09:56:01Z</time></trkpt><trkpt lat="44.856399335075025" lon="12.400899763286422"><ele>1.0</ele><time>2026-04-19T09:56:02Z</time></trkpt><trkpt lat="44.85652222967949" lon="12.400798190773209"><ele>1.0</ele><time>2026-04-19T09:56:03Z</time></trkpt><trkpt lat="44.85664085505406" lon="12.400699437573262"><ele>1.0</ele><time>2026-04-19T09:56:04Z</time></trkpt><trkpt lat="44.85675755594623" lon="12.400604624902687"><ele>1.0</ele><time>2026-04-19T09:56:05Z</time></trkpt><trkpt lat="44.85687517677902" lon="12.400508902667049"><ele>1.0</ele><time>2026-04-19T09:56:06Z</time></trkpt><trkpt lat="44.85699293584593" lon="12.400411940878731"><ele>1.0</ele><time>2026-04-19T09:56:07Z</time></trkpt><trkpt lat="44.85710969102206" lon="12.400314747562748"><ele>1.0</ele><time>2026-04-19T09:56:08Z</time></trkpt><trkpt lat="44.85722446658846" lon="12.40021770992097"><ele>1.0</ele><time>2026-04-19T09:56:09Z</time></trkpt><trkpt lat="44.85733778175754" lon="12.400124387135113"><ele>1.0</ele><time>2026-04-19T09:56:10Z</time></trkpt><trkpt lat="44.85745111046881" lon="12.40003174457286"><ele>1.0</ele><time>2026-04-19T09:56:11Z</time></trkpt><trkpt lat="44.8575632589993" lon="12.399938039698775"><ele>1.0</ele><time>2026-04-19T09:56:12Z</time></trkpt><trkpt lat="44.85768042353914" lon="12.399842917403301"><ele>1.0</ele><time>2026-04-19T09:56:13Z</time></trkpt><trkpt lat="44.85779638693334" lon="12.399746821918251"><ele>0.75</ele><time>2026-04-19T09:56:13.999Z</time></trkpt><trkpt lat="44.85790811675627" lon="12.399654783381795"><ele>0.5</ele><time>2026-04-19T09:56:14.999Z</time></trkpt><trkpt lat="44.85801844772337" lon="12.399564913712826"><ele>0.25</ele><time>2026-04-19T09:56:15.999Z</time></trkpt><trkpt lat="44.85812076359237" lon="12.399482145611785"><ele>0.0</ele><time>2026-04-19T09:56:16.999Z</time></trkpt><trkpt lat="44.858213767320976" lon="12.399405808853297"><ele>0.0</ele><time>2026-04-19T09:56:17.999Z</time></trkpt><trkpt lat="44.858300140741804" lon="12.39933524125857"><ele>0.0</ele><time>2026-04-19T09:56:18.999Z</time></trkpt><trkpt lat="44.85837530851612" lon="12.399272469719083"><ele>0.0</ele><time>2026-04-19T09:56:19.999Z</time></trkpt><trkpt lat="44.85843826792588" lon="12.399219428261295"><ele>0.0</ele><time>2026-04-19T09:56:20.999Z</time></trkpt><trkpt lat="44.85851547324601" lon="12.39915449395706"><ele>0.0</ele><time>2026-04-19T09:56:21.999Z</time></trkpt><trkpt lat="44.85860184849512" lon="12.399086523428755"><ele>0.0</ele><time>2026-04-19T09:56:22.999Z</time></trkpt><trkpt lat="44.85868865484264" lon="12.399017003345651"><ele>0.0</ele><time>2026-04-19T09:56:23.999Z</time></trkpt><trkpt lat="44.858777783199606" lon="12.398944164776667"><ele>0.0</ele><time>2026-04-19T09:56:24.999Z</time></trkpt><trkpt lat="44.85887421190167" lon="12.398862855098047"><ele>0.0</ele><time>2026-04-19T09:56:25.999Z</time></trkpt><trkpt lat="44.85898290693052" lon="12.398771953838752"><ele>0.0</ele><time>2026-04-19T09:56:26.999Z</time></trkpt><trkpt lat="44.85910394977702" lon="12.398665601684925"><ele>0.0</ele><time>2026-04-19T09:56:27.999Z</time></trkpt><trkpt lat="44.859225416585936" lon="12.398562952212494"><ele>0.0</ele><time>2026-04-19T09:56:28.999Z</time></trkpt><trkpt lat="44.85935166481388" lon="12.398454897883605"><ele>0.0</ele><time>2026-04-19T09:56:29.999Z</time></trkpt><trkpt lat="44.85948091108763" lon="12.398343967794949"><ele>0.0</ele><time>2026-04-19T09:56:30.999Z</time></trkpt><trkpt lat="44.85961123956845" lon="12.398234466789912"><ele>0.0</ele><time>2026-04-19T09:56:31.999Z</time></trkpt><trkpt lat="44.85973967707589" lon="12.398125552166338"><ele>0.0</ele><time>2026-04-19T09:56:32.999Z</time></trkpt><trkpt lat="44.859874533074276" lon="12.398041790044191"><ele>0.0</ele><time>2026-04-19T09:56:33.999Z</time></trkpt><trkpt lat="44.8599997168813" lon="12.397940091363605"><ele>0.0</ele><time>2026-04-19T09:56:34.999Z</time></trkpt><trkpt lat="44.860123938994924" lon="12.397838541182596"><ele>0.25</ele><time>2026-04-19T09:56:35.999Z</time></trkpt><trkpt lat="44.860247857525295" lon="12.397735676601277"><ele>0.5</ele><time>2026-04-19T09:56:36.999Z</time></trkpt><trkpt lat="44.86037288318448" lon="12.3976318929929"><ele>0.75</ele><time>2026-04-19T09:56:37.999Z</time></trkpt><trkpt lat="44.86049575104863" lon="12.39753068849965"><ele>1.0</ele><time>2026-04-19T09:56:38.999Z</time></trkpt><trkpt lat="44.86061723643704" lon="12.39743168287694"><ele>1.0</ele><time>2026-04-19T09:56:39.999Z</time></trkpt><trkpt lat="44.86073704270103" lon="12.39733376646503"><ele>1.0</ele><time>2026-04-19T09:56:40.999Z</time></trkpt><trkpt lat="44.860855036161844" lon="12.39723670810105"><ele>1.0</ele><time>2026-04-19T09:56:41.999Z</time></trkpt><trkpt lat="44.86097469386665" lon="12.397138173214666"><ele>1.0</ele><time>2026-04-19T09:56:42.999Z</time></trkpt><trkpt lat="44.86109281261329" lon="12.397040557638576"><ele>0.75</ele><time>2026-04-19T09:56:43.999Z</time></trkpt><trkpt lat="44.86121130046025" lon="12.396942637026406"><ele>0.5</ele><time>2026-04-19T09:56:44.999Z</time></trkpt><trkpt lat="44.86131822126786" lon="12.396827255875015"><ele>0.25</ele><time>2026-04-19T09:56:46Z</time></trkpt><trkpt lat="44.86143874734591" lon="12.396751424866652"><ele>0.0</ele><time>2026-04-19T09:56:47Z</time></trkpt><trkpt lat="44.86155471197634" lon="12.3966538295289"><ele>0.0</ele><time>2026-04-19T09:56:48Z</time></trkpt><trkpt lat="44.861665649550545" lon="12.39653824565227"><ele>0.0</ele><time>2026-04-19T09:56:49Z</time></trkpt><trkpt lat="44.861774546608565" lon="12.39640233726045"><ele>0.0</ele><time>2026-04-19T09:56:50Z</time></trkpt><trkpt lat="44.86187079541241" lon="12.396200111804273"><ele>0.0</ele><time>2026-04-19T09:56:51Z</time></trkpt><trkpt lat="44.861969422175356" lon="12.395983398669491"><ele>0.0</ele><time>2026-04-19T09:56:52Z</time></trkpt><trkpt lat="44.862069225822495" lon="12.39576409959205"><ele>0.0</ele><time>2026-04-19T09:56:53Z</time></trkpt><trkpt lat="44.86215545142575" lon="12.395535741301961"><ele>0.0</ele><time>2026-04-19T09:56:54Z</time></trkpt><trkpt lat="44.86224678110993" lon="12.395332185151956"><ele>0.0</ele><time>2026-04-19T09:56:55Z</time></trkpt><trkpt lat="44.86233499046825" lon="12.395132491784787"><ele>0.0</ele><time>2026-04-19T09:56:56Z</time></trkpt><trkpt lat="44.86241699257046" lon="12.39494592664077"><ele>0.0</ele><time>2026-04-19T09:56:57Z</time></trkpt><trkpt lat="44.86251585799367" lon="12.394771874903249"><ele>0.0</ele><time>2026-04-19T09:56:58Z</time></trkpt><trkpt lat="44.86259085196042" lon="12.39457564327228"><ele>0.0</ele><time>2026-04-19T09:56:59Z</time></trkpt><trkpt lat="44.86268047537952" lon="12.394391052707945"><ele>0.0</ele><time>2026-04-19T09:57:00Z</time></trkpt><trkpt lat="44.86276566135649" lon="12.394204901395215"><ele>0.0</ele><time>2026-04-19T09:57:01Z</time></trkpt><trkpt lat="44.862848678175524" lon="12.394014829274614"><ele>0.0</ele><time>2026-04-19T09:57:02Z</time></trkpt><trkpt lat="44.862937646769026" lon="12.393815384766159"><ele>0.0</ele><time>2026-04-19T09:57:03Z</time></trkpt><trkpt lat="44.86301760195419" lon="12.393636387649366"><ele>0.0</ele><time>2026-04-19T09:57:04Z</time></trkpt><trkpt lat="44.86309462011556" lon="12.393465173015404"><ele>0.0</ele><time>2026-04-19T09:57:05Z</time></trkpt><trkpt lat="44.863174697603036" lon="12.393283890143953"><ele>0.0</ele><time>2026-04-19T09:57:06Z</time></trkpt><trkpt lat="44.86327362293286" lon="12.39311002194627"><ele>0.0</ele><time>2026-04-19T09:57:07Z</time></trkpt><trkpt lat="44.863361184760635" lon="12.39291968495333"><ele>0.0</ele><time>2026-04-19T09:57:08Z</time></trkpt><trkpt lat="44.863449824604736" lon="12.392727004664703"><ele>0.0</ele><time>2026-04-19T09:57:09Z</time></trkpt><trkpt lat="44.863537474728574" lon="12.392534724549975"><ele>0.0</ele><time>2026-04-19T09:57:10Z</time></trkpt><trkpt lat="44.86362410132338" lon="12.392340336184438"><ele>0.0</ele><time>2026-04-19T09:57:11Z</time></trkpt><trkpt lat="44.863711263473576" lon="12.392147000780144"><ele>0.0</ele><time>2026-04-19T09:57:12Z</time></trkpt><trkpt lat="44.86380069544878" lon="12.391951248716884"><ele>0.3333333333333333</ele><time>2026-04-19T09:57:13Z</time></trkpt><trkpt lat="44.86387693207546" lon="12.391743352816707"><ele>0.6666666666666666</ele><time>2026-04-19T09:57:14Z</time></trkpt><trkpt lat="44.86396520356044" lon="12.391552547010983"><ele>1.0</ele><time>2026-04-19T09:57:15Z</time></trkpt><trkpt lat="44.86405033718162" lon="12.391365747998606"><ele>0.6666666666666666</ele><time>2026-04-19T09:57:16Z</time></trkpt><trkpt lat="44.864137515636095" lon="12.391181117769813"><ele>0.3333333333333333</ele><time>2026-04-19T09:57:17Z</time></trkpt><trkpt lat="44.86422455923302" lon="12.390997215040588"><ele>0.0</ele><time>2026-04-19T09:57:18Z</time></trkpt><trkpt lat="44.86431054747312" lon="12.390807028197207"><ele>0.0</ele><time>2026-04-19T09:57:19Z</time></trkpt><trkpt lat="44.864395739558965" lon="12.390614913589102"><ele>0.0</ele><time>2026-04-19T09:57:20Z</time></trkpt><trkpt lat="44.86448195378032" lon="12.390419894894324"><ele>0.0</ele><time>2026-04-19T09:57:21Z</time></trkpt><trkpt lat="44.86458470309727" lon="12.390239592363287"><ele>0.0</ele><time>2026-04-19T09:57:22Z</time></trkpt><trkpt lat="44.86467490755367" lon="12.390043626937901"><ele>0.0</ele><time>2026-04-19T09:57:23Z</time></trkpt><trkpt lat="44.86475131953205" lon="12.389833174885341"><ele>0.0</ele><time>2026-04-19T09:57:24Z</time></trkpt><trkpt lat="44.864843866934955" lon="12.389637908755354"><ele>0.0</ele><time>2026-04-19T09:57:25Z</time></trkpt><trkpt lat="44.864935314183235" lon="12.389440681205183"><ele>0.0</ele><time>2026-04-19T09:57:26Z</time></trkpt><trkpt lat="44.86502471131569" lon="12.389243533437046"><ele>0.0</ele><time>2026-04-19T09:57:27Z</time></trkpt><trkpt lat="44.86511397120626" lon="12.38904612083621"><ele>0.0</ele><time>2026-04-19T09:57:28Z</time></trkpt><trkpt lat="44.86520302500531" lon="12.388849051387334"><ele>0.0</ele><time>2026-04-19T09:57:29Z</time></trkpt><trkpt lat="44.865291963906635" lon="12.38865363305504"><ele>0.0</ele><time>2026-04-19T09:57:30Z</time></trkpt><trkpt lat="44.86537957661733" lon="12.388460306801377"><ele>0.0</ele><time>2026-04-19T09:57:31Z</time></trkpt><trkpt lat="44.865466630169486" lon="12.388266767680703"><ele>0.0</ele><time>2026-04-19T09:57:32Z</time></trkpt><trkpt lat="44.86555199335955" lon="12.38807631038985"><ele>0.0</ele><time>2026-04-19T09:57:33Z</time></trkpt><trkpt lat="44.86563358477379" lon="12.38789648589006"><ele>0.0</ele><time>2026-04-19T09:57:34Z</time></trkpt><trkpt lat="44.865711677525" lon="12.387722748274314"><ele>0.0</ele><time>2026-04-19T09:57:35Z</time></trkpt><trkpt lat="44.86578845016455" lon="12.387553250286173"><ele>0.0</ele><time>2026-04-19T09:57:36Z</time></trkpt><trkpt lat="44.86585897760851" lon="12.387396168279516"><ele>0.0</ele><time>2026-04-19T09:57:37Z</time></trkpt><trkpt lat="44.86592721347084" lon="12.387242451036446"><ele>-0.25</ele><time>2026-04-19T09:57:38Z</time></trkpt><trkpt lat="44.86599721842462" lon="12.387096787436587"><ele>-0.5</ele><time>2026-04-19T09:57:39Z</time></trkpt><trkpt lat="44.86607445013594" lon="12.386974584796201"><ele>-0.75</ele><time>2026-04-19T09:57:40Z</time></trkpt><trkpt lat="44.866162117974206" lon="12.386879914077314"><ele>-1.0</ele><time>2026-04-19T09:57:41Z</time></trkpt><trkpt lat="44.8662640403289" lon="12.386827185760199"><ele>-1.0</ele><time>2026-04-19T09:57:42Z</time></trkpt><trkpt lat="44.86637533635467" lon="12.386800648673963"><ele>-1.0</ele><time>2026-04-19T09:57:43Z</time></trkpt><trkpt lat="44.86649192060373" lon="12.386787227695777"><ele>-1.0</ele><time>2026-04-19T09:57:44Z</time></trkpt><trkpt lat="44.866615707188245" lon="12.386768556031619"><ele>-1.0</ele><time>2026-04-19T09:57:45Z</time></trkpt><trkpt lat="44.86674334393603" lon="12.386751190121888"><ele>-1.0</ele><time>2026-04-19T09:57:46Z</time></trkpt><trkpt lat="44.866874569453174" lon="12.386734944398006"><ele>-1.0</ele><time>2026-04-19T09:57:47Z</time></trkpt><trkpt lat="44.867010721921886" lon="12.386715777567158"><ele>-1.0</ele><time>2026-04-19T09:57:48Z</time></trkpt><trkpt lat="44.867149033640096" lon="12.386689656526931"><ele>-1.0</ele><time>2026-04-19T09:57:49Z</time></trkpt><trkpt lat="44.867285271541924" lon="12.386660197666965"><ele>-1.0</ele><time>2026-04-19T09:57:50Z</time></trkpt><trkpt lat="44.867417914145065" lon="12.38662542995704"><ele>-1.0</ele><time>2026-04-19T09:57:51Z</time></trkpt><trkpt lat="44.86755092351222" lon="12.386589288482103"><ele>-1.0</ele><time>2026-04-19T09:57:52Z</time></trkpt><trkpt lat="44.86770693828464" lon="12.386549661794188"><ele>-1.0</ele><time>2026-04-19T09:57:53Z</time></trkpt><trkpt lat="44.86784965824987" lon="12.38651616206643"><ele>-1.25</ele><time>2026-04-19T09:57:54Z</time></trkpt><trkpt lat="44.86798328771325" lon="12.386489929406872"><ele>-1.5</ele><time>2026-04-19T09:57:55Z</time></trkpt><trkpt lat="44.868116305648016" lon="12.386468599920597"><ele>-1.75</ele><time>2026-04-19T09:57:56Z</time></trkpt><trkpt lat="44.86824832282523" lon="12.386444683852643"><ele>-2.0</ele><time>2026-04-19T09:57:57Z</time></trkpt><trkpt lat="44.86838035214803" lon="12.386417275681035"><ele>-2.0</ele><time>2026-04-19T09:57:58Z</time></trkpt><trkpt lat="44.86851241153552" lon="12.386387638883628"><ele>-2.0</ele><time>2026-04-19T09:57:59Z</time></trkpt><trkpt lat="44.86864575231628" lon="12.3863566849369"><ele>-2.0</ele><time>2026-04-19T09:58:00Z</time></trkpt><trkpt lat="44.86877610742844" lon="12.386327396866958"><ele>-2.0</ele><time>2026-04-19T09:58:01Z</time></trkpt><trkpt lat="44.86890278678708" lon="12.3863065367609"><ele>-2.0</ele><time>2026-04-19T09:58:02Z</time></trkpt><trkpt lat="44.86902673428503" lon="12.386299617408639"><ele>-2.0</ele><time>2026-04-19T09:58:03Z</time></trkpt><trkpt lat="44.86914904255757" lon="12.386315836581991"><ele>-2.0</ele><time>2026-04-19T09:58:04Z</time></trkpt><trkpt lat="44.86927188979779" lon="12.386382454537642"><ele>-2.0</ele><time>2026-04-19T09:58:05Z</time></trkpt><trkpt lat="44.869389573976584" lon="12.386492708230563"><ele>-1.75</ele><time>2026-04-19T09:58:06Z</time></trkpt><trkpt lat="44.869503981300355" lon="12.38661722854872"><ele>-1.5</ele><time>2026-04-19T09:58:07Z</time></trkpt><trkpt lat="44.869620865093346" lon="12.386737171003007"><ele>-1.25</ele><time>2026-04-19T09:58:08Z</time></trkpt><trkpt lat="44.86973789944387" lon="12.386859877699859"><ele>-1.0</ele><time>2026-04-19T09:58:09Z</time></trkpt><trkpt lat="44.869849523256455" lon="12.386977509548817"><ele>-1.0</ele><time>2026-04-19T09:58:10Z</time></trkpt><trkpt lat="44.86995727520575" lon="12.387095229282139"><ele>-1.0</ele><time>2026-04-19T09:58:11Z</time></trkpt><trkpt lat="44.870068039368164" lon="12.387213786956483"><ele>-1.0</ele><time>2026-04-19T09:58:12Z</time></trkpt><trkpt lat="44.87018058697965" lon="12.38733189803583"><ele>-1.0</ele><time>2026-04-19T09:58:13Z</time></trkpt><trkpt lat="44.87029535552278" lon="12.387450257640868"><ele>-1.0</ele><time>2026-04-19T09:58:14Z</time></trkpt><trkpt lat="44.870408419189495" lon="12.387564116791326"><ele>-1.0</ele><time>2026-04-19T09:58:15Z</time></trkpt><trkpt lat="44.870512504983594" lon="12.387680400287916"><ele>-1.0</ele><time>2026-04-19T09:58:16Z</time></trkpt><trkpt lat="44.87060999795141" lon="12.387798532089029"><ele>-1.0</ele><time>2026-04-19T09:58:17Z</time></trkpt><trkpt lat="44.87070788546801" lon="12.38791565956282"><ele>-0.75</ele><time>2026-04-19T09:58:18Z</time></trkpt><trkpt lat="44.87080651215282" lon="12.388042459536688"><ele>-0.5</ele><time>2026-04-19T09:58:19Z</time></trkpt><trkpt lat="44.87090516000084" lon="12.388169030317519"><ele>-0.25</ele><time>2026-04-19T09:58:19.999Z</time></trkpt><trkpt lat="44.87099509077914" lon="12.388286013278291"><ele>0.0</ele><time>2026-04-19T09:58:20.999Z</time></trkpt><trkpt lat="44.87107576269102" lon="12.388393518031602"><ele>0.0</ele><time>2026-04-19T09:58:21.999Z</time></trkpt><trkpt lat="44.871143210804604" lon="12.388488377439437"><ele>0.0</ele><time>2026-04-19T09:58:22.999Z</time></trkpt><trkpt lat="44.87120262662077" lon="12.38858942723658"><ele>0.0</ele><time>2026-04-19T09:58:23.999Z</time></trkpt><trkpt lat="44.87125338386414" lon="12.388703346824439"><ele>0.0</ele><time>2026-04-19T09:58:24.999Z</time></trkpt><trkpt lat="44.87128568962663" lon="12.388842331031002"><ele>0.0</ele><time>2026-04-19T09:58:25.999Z</time></trkpt><trkpt lat="44.87129701454386" lon="12.389002084598296"><ele>-0.25</ele><time>2026-04-19T09:58:26.999Z</time></trkpt><trkpt lat="44.871281939402834" lon="12.389169051950757"><ele>-0.5</ele><time>2026-04-19T09:58:27.999Z</time></trkpt><trkpt lat="44.87125698472044" lon="12.389338504121765"><ele>-0.75</ele><time>2026-04-19T09:58:28.999Z</time></trkpt><trkpt lat="44.87123937783702" lon="12.389509421901094"><ele>-1.0</ele><time>2026-04-19T09:58:29.999Z</time></trkpt><trkpt lat="44.87122837876856" lon="12.389663735658885"><ele>-1.2000000000000002</ele><time>2026-04-19T09:58:30.999Z</time></trkpt><trkpt lat="44.87123110864247" lon="12.38981075595994"><ele>-1.4000000000000001</ele><time>2026-04-19T09:58:31.999Z</time></trkpt><trkpt lat="44.87126045150778" lon="12.389951934230165"><ele>-1.6</ele><time>2026-04-19T09:58:32.999Z</time></trkpt><trkpt lat="44.871318481479534" lon="12.390093659171633"><ele>-1.8</ele><time>2026-04-19T09:58:33.999Z</time></trkpt><trkpt lat="44.87139364253748" lon="12.390227650876136"><ele>-2.0</ele><time>2026-04-19T09:58:34.999Z</time></trkpt><trkpt lat="44.87147904850061" lon="12.390360800887317"><ele>-2.0</ele><time>2026-04-19T09:58:35.999Z</time></trkpt><trkpt lat="44.8715806667126" lon="12.39049498574686"><ele>-2.0</ele><time>2026-04-19T09:58:36.999Z</time></trkpt><trkpt lat="44.87170789393372" lon="12.390631413113722"><ele>-2.0</ele><time>2026-04-19T09:58:37.999Z</time></trkpt><trkpt lat="44.871851066999625" lon="12.39077014754394"><ele>-1.6666666666666665</ele><time>2026-04-19T09:58:38.999Z</time></trkpt><trkpt lat="44.87199657727249" lon="12.390908246793531"><ele>-1.3333333333333333</ele><time>2026-04-19T09:58:39.999Z</time></trkpt><trkpt lat="44.872132110781436" lon="12.391039466245674"><ele>-1.0</ele><time>2026-04-19T09:58:40.999Z</time></trkpt><trkpt lat="44.87226657829201" lon="12.391169567579421"><ele>-1.0</ele><time>2026-04-19T09:58:41.999Z</time></trkpt><trkpt lat="44.87238769479896" lon="12.391289678187201"><ele>-1.0</ele><time>2026-04-19T09:58:42.999Z</time></trkpt><trkpt lat="44.87250369250151" lon="12.391411998530446"><ele>-1.0</ele><time>2026-04-19T09:58:43.999Z</time></trkpt><trkpt lat="44.87262541736031" lon="12.39153750745195"><ele>-1.0</ele><time>2026-04-19T09:58:44.999Z</time></trkpt><trkpt lat="44.87274365670448" lon="12.39165436235739"><ele>-0.75</ele><time>2026-04-19T09:58:46Z</time></trkpt><trkpt lat="44.872856940717085" lon="12.391767328250001"><ele>-0.5</ele><time>2026-04-19T09:58:47Z</time></trkpt><trkpt lat="44.872975186503815" lon="12.391881577089384"><ele>-0.25</ele><time>2026-04-19T09:58:48Z</time></trkpt><trkpt lat="44.87309481072564" lon="12.391997267127767"><ele>0.0</ele><time>2026-04-19T09:58:49Z</time></trkpt><trkpt lat="44.87321493916462" lon="12.392111810886847"><ele>0.0</ele><time>2026-04-19T09:58:50Z</time></trkpt><trkpt lat="44.873333079296295" lon="12.39222833726919"><ele>0.0</ele><time>2026-04-19T09:58:51Z</time></trkpt><trkpt lat="44.87344654083636" lon="12.392342625134255"><ele>0.0</ele><time>2026-04-19T09:58:52Z</time></trkpt><trkpt lat="44.87355601969393" lon="12.39245614028689"><ele>0.0</ele><time>2026-04-19T09:58:53Z</time></trkpt><trkpt lat="44.87365671052763" lon="12.392564931514217"><ele>0.0</ele><time>2026-04-19T09:58:54Z</time></trkpt><trkpt lat="44.87375170288934" lon="12.392662029887251"><ele>0.0</ele><time>2026-04-19T09:58:55Z</time></trkpt><trkpt lat="44.873840996965654" lon="12.392749346260045"><ele>0.0</ele><time>2026-04-19T09:58:56Z</time></trkpt><trkpt lat="44.873928082186254" lon="12.392827407867163"><ele>0.0</ele><time>2026-04-19T09:58:57Z</time></trkpt><trkpt lat="44.87401759861901" lon="12.392867450289366"><ele>0.0</ele><time>2026-04-19T09:58:58Z</time></trkpt><trkpt lat="44.87411743988715" lon="12.392866084322804"><ele>0.0</ele><time>2026-04-19T09:58:59Z</time></trkpt><trkpt lat="44.874217699115135" lon="12.392834061697533"><ele>0.0</ele><time>2026-04-19T09:59:00Z</time></trkpt><trkpt lat="44.87431905808394" lon="12.392770938332852"><ele>0.0</ele><time>2026-04-19T09:59:01Z</time></trkpt><trkpt lat="44.874414656454476" lon="12.39267612455128"><ele>0.0</ele><time>2026-04-19T09:59:02Z</time></trkpt><trkpt lat="44.87450712885754" lon="12.392554124835792"><ele>0.0</ele><time>2026-04-19T09:59:03Z</time></trkpt><trkpt lat="44.87460896669541" lon="12.392427878741149"><ele>0.0</ele><time>2026-04-19T09:59:04Z</time></trkpt><trkpt lat="44.874728237676386" lon="12.392295511735982"><ele>0.0</ele><time>2026-04-19T09:59:05Z</time></trkpt><trkpt lat="44.87484897060737" lon="12.392163568813777"><ele>0.0</ele><time>2026-04-19T09:59:06Z</time></trkpt><trkpt lat="44.87497308811352" lon="12.392027652364423"><ele>0.0</ele><time>2026-04-19T09:59:07Z</time></trkpt><trkpt lat="44.87511064196665" lon="12.391876126055276"><ele>0.0</ele><time>2026-04-19T09:59:08Z</time></trkpt><trkpt lat="44.87524774644589" lon="12.39172216509242"><ele>0.0</ele><time>2026-04-19T09:59:09Z</time></trkpt><trkpt lat="44.87537302752474" lon="12.391581481376628"><ele>0.0</ele><time>2026-04-19T09:59:10Z</time></trkpt><trkpt lat="44.87549289044194" lon="12.391449306923398"><ele>0.0</ele><time>2026-04-19T09:59:11Z</time></trkpt><trkpt lat="44.875614270761254" lon="12.391316051875904"><ele>0.0</ele><time>2026-04-19T09:59:12Z</time></trkpt><trkpt lat="44.87573721307458" lon="12.391181575325309"><ele>0.0</ele><time>2026-04-19T09:59:13Z</time></trkpt><trkpt lat="44.87585885455677" lon="12.391047686559977"><ele>0.0</ele><time>2026-04-19T09:59:14Z</time></trkpt><trkpt lat="44.87598179203322" lon="12.390911271285603"><ele>0.0</ele><time>2026-04-19T09:59:15Z</time></trkpt><trkpt lat="44.87610212208187" lon="12.390771855391788"><ele>0.25</ele><time>2026-04-19T09:59:16Z</time></trkpt><trkpt lat="44.87622140816286" lon="12.390634730800663"><ele>0.5</ele><time>2026-04-19T09:59:17Z</time></trkpt><trkpt lat="44.87633764508139" lon="12.39050571982788"><ele>0.75</ele><time>2026-04-19T09:59:18Z</time></trkpt><trkpt lat="44.876452204740104" lon="12.390381336277697"><ele>1.0</ele><time>2026-04-19T09:59:19Z</time></trkpt><trkpt lat="44.87656401920885" lon="12.390256882845138"><ele>0.75</ele><time>2026-04-19T09:59:20Z</time></trkpt><trkpt lat="44.87667171327639" lon="12.390134583817566"><ele>0.5</ele><time>2026-04-19T09:59:21Z</time></trkpt><trkpt lat="44.87677629292044" lon="12.390015191160218"><ele>0.25</ele><time>2026-04-19T09:59:22Z</time></trkpt><trkpt lat="44.876875900292106" lon="12.389901139818951"><ele>0.0</ele><time>2026-04-19T09:59:23Z</time></trkpt><trkpt lat="44.87696787009832" lon="12.38980188667543"><ele>0.0</ele><time>2026-04-19T09:59:24Z</time></trkpt><trkpt lat="44.87706512877895" lon="12.389730821231144"><ele>0.0</ele><time>2026-04-19T09:59:25Z</time></trkpt><trkpt lat="44.87716490589604" lon="12.38969258064929"><ele>0.0</ele><time>2026-04-19T09:59:26Z</time></trkpt><trkpt lat="44.87726157928517" lon="12.389697500699388"><ele>0.0</ele><time>2026-04-19T09:59:27Z</time></trkpt><trkpt lat="44.87735042554313" lon="12.389741223867809"><ele>0.0</ele><time>2026-04-19T09:59:28Z</time></trkpt><trkpt lat="44.87743450809209" lon="12.389823436562041"><ele>0.0</ele><time>2026-04-19T09:59:29Z</time></trkpt><trkpt lat="44.87751737421692" lon="12.389931648610908"><ele>0.0</ele><time>2026-04-19T09:59:30Z</time></trkpt><trkpt lat="44.877608031045455" lon="12.390047591485803"><ele>0.0</ele><time>2026-04-19T09:59:31Z</time></trkpt><trkpt lat="44.87771197084147" lon="12.390163113578048"><ele>0.0</ele><time>2026-04-19T09:59:32Z</time></trkpt><trkpt lat="44.87781804341351" lon="12.390289752767556"><ele>0.0</ele><time>2026-04-19T09:59:33Z</time></trkpt><trkpt lat="44.87793591053572" lon="12.390430952843264"><ele>0.0</ele><time>2026-04-19T09:59:34Z</time></trkpt><trkpt lat="44.87804507109744" lon="12.390557319614922"><ele>0.0</ele><time>2026-04-19T09:59:35Z</time></trkpt><trkpt lat="44.87814504014376" lon="12.390672642007992"><ele>0.0</ele><time>2026-04-19T09:59:36Z</time></trkpt><trkpt lat="44.87822683541858" lon="12.390794491378239"><ele>0.0</ele><time>2026-04-19T09:59:37Z</time></trkpt><trkpt lat="44.87827518898191" lon="12.39095011666038"><ele>0.0</ele><time>2026-04-19T09:59:38Z</time></trkpt><trkpt lat="44.878312062866094" lon="12.391131969947274"><ele>0.0</ele><time>2026-04-19T09:59:39Z</time></trkpt><trkpt lat="44.87835452487235" lon="12.391320500357223"><ele>0.0</ele><time>2026-04-19T09:59:40Z</time></trkpt><trkpt lat="44.878400986108474" lon="12.3915122016245"><ele>0.0</ele><time>2026-04-19T09:59:41Z</time></trkpt><trkpt lat="44.87844352492339" lon="12.391703508003578"><ele>0.0</ele><time>2026-04-19T09:59:42Z</time></trkpt><trkpt lat="44.87848656114684" lon="12.39189667827477"><ele>0.0</ele><time>2026-04-19T09:59:43Z</time></trkpt><trkpt lat="44.87852960778878" lon="12.392079668339427"><ele>0.0</ele><time>2026-04-19T09:59:44Z</time></trkpt><trkpt lat="44.87857106408127" lon="12.392251244308238"><ele>0.0</ele><time>2026-04-19T09:59:45Z</time></trkpt><trkpt lat="44.87862309172279" lon="12.392420662310771"><ele>0.0</ele><time>2026-04-19T09:59:46Z</time></trkpt><trkpt lat="44.87869739218003" lon="12.39258206611883"><ele>0.0</ele><time>2026-04-19T09:59:47Z</time></trkpt><trkpt lat="44.878789689914434" lon="12.392727782171399"><ele>0.0</ele><time>2026-04-19T09:59:48Z</time></trkpt><trkpt lat="44.878887871334115" lon="12.392855333023455"><ele>0.0</ele><time>2026-04-19T09:59:49Z</time></trkpt><trkpt lat="44.87899098206386" lon="12.392978235151405"><ele>0.0</ele><time>2026-04-19T09:59:50Z</time></trkpt><trkpt lat="44.87909274266091" lon="12.39309647078722"><ele>0.0</ele><time>2026-04-19T09:59:51Z</time></trkpt><trkpt lat="44.87919316217673" lon="12.393207098443618"><ele>0.0</ele><time>2026-04-19T09:59:52Z</time></trkpt><trkpt lat="44.879293863950245" lon="12.393313411228675"><ele>-0.5</ele><time>2026-04-19T09:59:53Z</time></trkpt><trkpt lat="44.879390000628995" lon="12.393411714457828"><ele>-1.0</ele><time>2026-04-19T09:59:54Z</time></trkpt><trkpt lat="44.87948295354175" lon="12.393519337836201"><ele>-1.5</ele><time>2026-04-19T09:59:55Z</time></trkpt><trkpt lat="44.87957754497363" lon="12.393636000488929"><ele>-2.0</ele><time>2026-04-19T09:59:56Z</time></trkpt><trkpt lat="44.879666305002274" lon="12.393765703719655"><ele>-2.0</ele><time>2026-04-19T09:59:57Z</time></trkpt><trkpt lat="44.879737582104276" lon="12.393920769124435"><ele>-2.0</ele><time>2026-04-19T09:59:58Z</time></trkpt><trkpt lat="44.879803974450724" lon="12.394083148439346"><ele>-2.0</ele><time>2026-04-19T09:59:59Z</time></trkpt><trkpt lat="44.87987218348695" lon="12.394246914465638"><ele>-2.0</ele><time>2026-04-19T10:00:00Z</time></trkpt><trkpt lat="44.87994480764572" lon="12.394416165444673"><ele>-2.0</ele><time>2026-04-19T10:00:01Z</time></trkpt><trkpt lat="44.88002576024554" lon="12.394596550541804"><ele>-2.0</ele><time>2026-04-19T10:00:02Z</time></trkpt><trkpt lat="44.88011121656559" lon="12.39478583732389"><ele>-2.0</ele><time>2026-04-19T10:00:03Z</time></trkpt><trkpt lat="44.880187440008406" lon="12.394963913450141"><ele>-2.25</ele><time>2026-04-19T10:00:04Z</time></trkpt><trkpt lat="44.880258730686435" lon="12.395133806617473"><ele>-2.5</ele><time>2026-04-19T10:00:05Z</time></trkpt><trkpt lat="44.88033287624712" lon="12.395304125382985"><ele>-2.75</ele><time>2026-04-19T10:00:06Z</time></trkpt><trkpt lat="44.88041713290521" lon="12.395488680302565"><ele>-3.0</ele><time>2026-04-19T10:00:07Z</time></trkpt><trkpt lat="44.880499218211284" lon="12.395668505298037"><ele>-2.5</ele><time>2026-04-19T10:00:08Z</time></trkpt><trkpt lat="44.88057912922626" lon="12.395848612679986"><ele>-2.0</ele><time>2026-04-19T10:00:09Z</time></trkpt><trkpt lat="44.88065642059364" lon="12.396029431664296"><ele>-1.5</ele><time>2026-04-19T10:00:10Z</time></trkpt><trkpt lat="44.88073140769847" lon="12.396205969100835"><ele>-1.0</ele><time>2026-04-19T10:00:11Z</time></trkpt><trkpt lat="44.880803816127845" lon="12.396379770646028"><ele>-0.75</ele><time>2026-04-19T10:00:12Z</time></trkpt><trkpt lat="44.88087148878033" lon="12.396551292346961"><ele>-0.5</ele><time>2026-04-19T10:00:13Z</time></trkpt><trkpt lat="44.88092891690629" lon="12.396720910367845"><ele>-0.25</ele><time>2026-04-19T10:00:14Z</time></trkpt><trkpt lat="44.88098536928707" lon="12.396887349578307"><ele>0.0</ele><time>2026-04-19T10:00:15Z</time></trkpt><trkpt lat="44.88104254341478" lon="12.39704906940794"><ele>-0.25</ele><time>2026-04-19T10:00:16Z</time></trkpt><trkpt lat="44.881095911758464" lon="12.397211801228709"><ele>-0.5</ele><time>2026-04-19T10:00:17Z</time></trkpt><trkpt lat="44.88114463623267" lon="12.397371643938852"><ele>-0.75</ele><time>2026-04-19T10:00:18Z</time></trkpt><trkpt lat="44.88119115435254" lon="12.39752666912924"><ele>-1.0</ele><time>2026-04-19T10:00:19Z</time></trkpt><trkpt lat="44.88123880966307" lon="12.397677107975223"><ele>-1.0</ele><time>2026-04-19T10:00:20Z</time></trkpt><trkpt lat="44.88128824531428" lon="12.397820532045948"><ele>-1.0</ele><time>2026-04-19T10:00:21Z</time></trkpt><trkpt lat="44.88133611375788" lon="12.39796033210992"><ele>-1.0</ele><time>2026-04-19T10:00:22Z</time></trkpt><trkpt lat="44.881386085053116" lon="12.398101268501904"><ele>-1.0</ele><time>2026-04-19T10:00:23Z</time></trkpt><trkpt lat="44.881438436493696" lon="12.39824769731614"><ele>-0.5</ele><time>2026-04-19T10:00:24Z</time></trkpt><trkpt lat="44.881493980263876" lon="12.398402963908287"><ele>0.0</ele><time>2026-04-19T10:00:25Z</time></trkpt><trkpt lat="44.881551572006785" lon="12.398561847521279"><ele>0.5</ele><time>2026-04-19T10:00:26Z</time></trkpt><trkpt lat="44.881614785329546" lon="12.398725019933648"><ele>1.0</ele><time>2026-04-19T10:00:27Z</time></trkpt><trkpt lat="44.88168138090972" lon="12.398876026228315"><ele>1.25</ele><time>2026-04-19T10:00:28Z</time></trkpt><trkpt lat="44.88175337268324" lon="12.399011344923943"><ele>1.5</ele><time>2026-04-19T10:00:29Z</time></trkpt><trkpt lat="44.88183525384279" lon="12.399124855760663"><ele>1.75</ele><time>2026-04-19T10:00:30Z</time></trkpt><trkpt lat="44.881947910189126" lon="12.399204084254574"><ele>2.0</ele><time>2026-04-19T10:00:31Z</time></trkpt><trkpt lat="44.88208055760935" lon="12.399271189071719"><ele>0.6666666666666666</ele><time>2026-04-19T10:00:32Z</time></trkpt><trkpt lat="44.88222271652989" lon="12.39933329582837"><ele>-0.6666666666666666</ele><time>2026-04-19T10:00:33Z</time></trkpt><trkpt lat="44.882369752846294" lon="12.399394047368608"><ele>-2.0</ele><time>2026-04-19T10:00:34Z</time></trkpt><trkpt lat="44.882514164678895" lon="12.39945790313371"><ele>-1.75</ele><time>2026-04-19T10:00:35Z</time></trkpt><trkpt lat="44.88264886769067" lon="12.3995316650911"><ele>-1.5</ele><time>2026-04-19T10:00:36Z</time></trkpt><trkpt lat="44.882780052770876" lon="12.39963305974231"><ele>-1.25</ele><time>2026-04-19T10:00:37Z</time></trkpt><trkpt lat="44.88290214565406" lon="12.399757462432675"><ele>-1.0</ele><time>2026-04-19T10:00:38Z</time></trkpt><trkpt lat="44.88302179661266" lon="12.399890901801692"><ele>-1.0</ele><time>2026-04-19T10:00:39Z</time></trkpt><trkpt lat="44.883139918353535" lon="12.40003338622955"><ele>-1.0</ele><time>2026-04-19T10:00:40Z</time></trkpt><trkpt lat="44.88325499127204" lon="12.400194392666902"><ele>-1.0</ele><time>2026-04-19T10:00:41Z</time></trkpt><trkpt lat="44.883368534218036" lon="12.400361781580079"><ele>-1.6666666666666665</ele><time>2026-04-19T10:00:42Z</time></trkpt><trkpt lat="44.88348313267559" lon="12.400527813467068"><ele>-2.3333333333333335</ele><time>2026-04-19T10:00:43Z</time></trkpt><trkpt lat="44.88359754264895" lon="12.40069706968906"><ele>-3.0</ele><time>2026-04-19T10:00:44Z</time></trkpt><trkpt lat="44.88369986974378" lon="12.400857721979728"><ele>-3.0</ele><time>2026-04-19T10:00:45Z</time></trkpt><trkpt lat="44.88378561205902" lon="12.401022336463356"><ele>-3.0</ele><time>2026-04-19T10:00:46Z</time></trkpt><trkpt lat="44.88385351159462" lon="12.401204678908563"><ele>-3.0</ele><time>2026-04-19T10:00:47Z</time></trkpt><trkpt lat="44.88391092357888" lon="12.40139941743715"><ele>-3.0</ele><time>2026-04-19T10:00:48Z</time></trkpt><trkpt lat="44.883966815878246" lon="12.401596064708768"><ele>-2.0</ele><time>2026-04-19T10:00:49Z</time></trkpt><trkpt lat="44.88402799292305" lon="12.401792257709639"><ele>-1.0</ele><time>2026-04-19T10:00:50Z</time></trkpt><trkpt lat="44.88410070455503" lon="12.401985984695102"><ele>0.0</ele><time>2026-04-19T10:00:51Z</time></trkpt><trkpt lat="44.88418712123188" lon="12.402179093883765"><ele>-1.0</ele><time>2026-04-19T10:00:52Z</time></trkpt><trkpt lat="44.88428177053902" lon="12.4023651891057"><ele>-2.0</ele><time>2026-04-19T10:00:53Z</time></trkpt><trkpt lat="44.88437771389151" lon="12.402537163707976"><ele>-3.0</ele><time>2026-04-19T10:00:54Z</time></trkpt><trkpt lat="44.88446838739231" lon="12.402697755785303"><ele>-3.0</ele><time>2026-04-19T10:00:55Z</time></trkpt><trkpt lat="44.88455295019069" lon="12.402856121498914"><ele>-3.0</ele><time>2026-04-19T10:00:56Z</time></trkpt><trkpt lat="44.88463079659988" lon="12.403003832465654"><ele>-3.0</ele><time>2026-04-19T10:00:57Z</time></trkpt><trkpt lat="44.88470474399807" lon="12.403144779214394"><ele>-3.0</ele><time>2026-04-19T10:00:58Z</time></trkpt><trkpt lat="44.884776325124726" lon="12.403287929803652"><ele>-2.6</ele><time>2026-04-19T10:00:59Z</time></trkpt><trkpt lat="44.88484149730508" lon="12.40343169926191"><ele>-2.1999999999999997</ele><time>2026-04-19T10:01:00Z</time></trkpt><trkpt lat="44.88489720657649" lon="12.403573183225314"><ele>-1.8</ele><time>2026-04-19T10:01:01Z</time></trkpt><trkpt lat="44.88494181023742" lon="12.403707756441928"><ele>-1.4</ele><time>2026-04-19T10:01:02Z</time></trkpt><trkpt lat="44.884980994963776" lon="12.403833399539012"><ele>-1.0</ele><time>2026-04-19T10:01:03Z</time></trkpt><trkpt lat="44.88503656328259" lon="12.403929089905303"><ele>-0.6666666666666666</ele><time>2026-04-19T10:01:04Z</time></trkpt><trkpt lat="44.88507747151512" lon="12.404021867494203"><ele>-0.3333333333333333</ele><time>2026-04-19T10:01:05Z</time></trkpt><trkpt lat="44.88511511201516" lon="12.40410313312581"><ele>0.0</ele><time>2026-04-19T10:01:06Z</time></trkpt><trkpt lat="44.88518388152003" lon="12.40422107839982"><ele>0.3333333333333333</ele><time>2026-04-19T10:01:08Z</time></trkpt><trkpt lat="44.88523956392394" lon="12.404294725676987"><ele>0.6666666666666666</ele><time>2026-04-19T10:01:10Z</time></trkpt><trkpt lat="44.885307831834076" lon="12.404358042472001"><ele>1.0</ele><time>2026-04-19T10:01:14Z</time></trkpt><trkpt lat="44.88525028922881" lon="12.404488169999187"><ele>0.9999999999999999</ele><time>2026-04-19T10:03:29.001Z</time></trkpt><trkpt lat="44.88525949553285" lon="12.404388737994193"><ele>1.0</ele><time>2026-04-19T10:10:33Z</time></trkpt><trkpt lat="44.88533582126862" lon="12.404365881364974"><ele>1.0</ele><time>2026-04-19T10:10:36Z</time></trkpt><trkpt lat="44.885409743826564" lon="12.404385161850671"><ele>1.0</ele><time>2026-04-19T10:10:39Z</time></trkpt><trkpt lat="44.88548142174133" lon="12.404417580721455"><ele>0.9999999999999999</ele><time>2026-04-19T10:10:42Z</time></trkpt><trkpt lat="44.88555860615372" lon="12.404410015789747"><ele>1.0</ele><time>2026-04-19T10:10:46Z</time></trkpt><trkpt lat="44.88564729355065" lon="12.404362208108182"><ele>0.9999999999999999</ele><time>2026-04-19T10:12:39Z</time></trkpt><trkpt lat="44.88571225388774" lon="12.40433232350623"><ele>1.0</ele><time>2026-04-19T10:12:40Z</time></trkpt><trkpt lat="44.885787143054145" lon="12.404283457258774"><ele>1.0</ele><time>2026-04-19T10:12:41Z</time></trkpt><trkpt lat="44.88585791989879" lon="12.404221773500268"><ele>1.0</ele><time>2026-04-19T10:12:42Z</time></trkpt><trkpt lat="44.88592774045611" lon="12.404141338145843"><ele>0.9999999999999999</ele><time>2026-04-19T10:12:43Z</time></trkpt><trkpt lat="44.886003780238404" lon="12.404047392711623"><ele>1.0</ele><time>2026-04-19T10:12:44Z</time></trkpt><trkpt lat="44.88608078129805" lon="12.40394165686623"><ele>0.8</ele><time>2026-04-19T10:12:45Z</time></trkpt><trkpt lat="44.88615267143696" lon="12.40383618573768"><ele>0.6000000000000001</ele><time>2026-04-19T10:12:46Z</time></trkpt><trkpt lat="44.886222383040966" lon="12.403729263238217"><ele>0.4</ele><time>2026-04-19T10:12:47Z</time></trkpt><trkpt lat="44.88629685256238" lon="12.403617913738046"><ele>0.2</ele><time>2026-04-19T10:12:48Z</time></trkpt><trkpt lat="44.88636981211073" lon="12.403499071625248"><ele>0.0</ele><time>2026-04-19T10:12:49.001Z</time></trkpt><trkpt lat="44.886443566773785" lon="12.403373405707162"><ele>0.0</ele><time>2026-04-19T10:12:50.001Z</time></trkpt><trkpt lat="44.88651623058583" lon="12.4032408917233"><ele>0.0</ele><time>2026-04-19T10:12:51.001Z</time></trkpt><trkpt lat="44.88659219368128" lon="12.403110853534775"><ele>0.0</ele><time>2026-04-19T10:12:52.001Z</time></trkpt><trkpt lat="44.88667232192824" lon="12.402993851661375"><ele>0.0</ele><time>2026-04-19T10:12:53.001Z</time></trkpt><trkpt lat="44.88675568978" lon="12.402886291064044"><ele>0.0</ele><time>2026-04-19T10:12:54.001Z</time></trkpt><trkpt lat="44.88684063644158" lon="12.402784433297633"><ele>0.0</ele><time>2026-04-19T10:12:55.001Z</time></trkpt><trkpt lat="44.8869260045965" lon="12.402685440584222"><ele>0.0</ele><time>2026-04-19T10:12:56.001Z</time></trkpt><trkpt lat="44.88700881289627" lon="12.402589779243886"><ele>0.0</ele><time>2026-04-19T10:12:57.001Z</time></trkpt><trkpt lat="44.88709395056607" lon="12.402491230683788"><ele>0.0</ele><time>2026-04-19T10:12:58.001Z</time></trkpt><trkpt lat="44.88718306925079" lon="12.402389820460535"><ele>0.0</ele><time>2026-04-19T10:12:59.001Z</time></trkpt><trkpt lat="44.88726709154244" lon="12.402295386998084"><ele>0.0</ele><time>2026-04-19T10:13:00.001Z</time></trkpt><trkpt lat="44.887349099941105" lon="12.402202021951124"><ele>0.0</ele><time>2026-04-19T10:13:01.001Z</time></trkpt><trkpt lat="44.887437132848646" lon="12.402101320776012"><ele>0.0</ele><time>2026-04-19T10:13:01.998Z</time></trkpt><trkpt lat="44.88752620045523" lon="12.401995789232881"><ele>0.0</ele><time>2026-04-19T10:13:02.998Z</time></trkpt><trkpt lat="44.88761503485329" lon="12.401890468386478"><ele>0.2</ele><time>2026-04-19T10:13:03.998Z</time></trkpt><trkpt lat="44.88770482693673" lon="12.401786544213497"><ele>0.4</ele><time>2026-04-19T10:13:04.998Z</time></trkpt><trkpt lat="44.88779412066309" lon="12.401687282044385"><ele>0.6000000000000001</ele><time>2026-04-19T10:13:05.998Z</time></trkpt><trkpt lat="44.88788053900011" lon="12.401590954210242"><ele>0.8</ele><time>2026-04-19T10:13:06.998Z</time></trkpt><trkpt lat="44.88796452339328" lon="12.401495011190345"><ele>1.0</ele><time>2026-04-19T10:13:07.998Z</time></trkpt><trkpt lat="44.88804575923467" lon="12.401398534661798"><ele>0.25</ele><time>2026-04-19T10:13:08.998Z</time></trkpt><trkpt lat="44.888129726476095" lon="12.401299516715852"><ele>-0.5</ele><time>2026-04-19T10:13:09.998Z</time></trkpt><trkpt lat="44.88821708854413" lon="12.401197377342541"><ele>-1.25</ele><time>2026-04-19T10:13:10.998Z</time></trkpt><trkpt lat="44.8883090077759" lon="12.401091739641132"><ele>-2.0</ele><time>2026-04-19T10:13:11.998Z</time></trkpt><trkpt lat="44.88840547257853" lon="12.400984066131734"><ele>-1.5</ele><time>2026-04-19T10:13:12.998Z</time></trkpt><trkpt lat="44.88850334805225" lon="12.400873744881562"><ele>-1.0</ele><time>2026-04-19T10:13:13.999Z</time></trkpt><trkpt lat="44.88860510969044" lon="12.40075624082815"><ele>-0.5</ele><time>2026-04-19T10:13:14.999Z</time></trkpt><trkpt lat="44.88871851101855" lon="12.400624512905926"><ele>0.0</ele><time>2026-04-19T10:13:15.999Z</time></trkpt><trkpt lat="44.888827918918054" lon="12.400501095413789"><ele>0.0</ele><time>2026-04-19T10:13:16.999Z</time></trkpt><trkpt lat="44.88893450357774" lon="12.400380152693671"><ele>0.0</ele><time>2026-04-19T10:13:17.999Z</time></trkpt><trkpt lat="44.88903737245289" lon="12.400263001664946"><ele>0.0</ele><time>2026-04-19T10:13:18.999Z</time></trkpt><trkpt lat="44.889138997561254" lon="12.400147754743886"><ele>0.0</ele><time>2026-04-19T10:13:19.999Z</time></trkpt><trkpt lat="44.88923593094364" lon="12.400037675093749"><ele>0.2</ele><time>2026-04-19T10:13:20.999Z</time></trkpt><trkpt lat="44.889331438705824" lon="12.399928033639702"><ele>0.4</ele><time>2026-04-19T10:13:21.999Z</time></trkpt><trkpt lat="44.88941778160251" lon="12.399829988969591"><ele>0.6000000000000001</ele><time>2026-04-19T10:13:22.999Z</time></trkpt><trkpt lat="44.88950271708019" lon="12.399745813790114"><ele>0.8</ele><time>2026-04-19T10:13:23.999Z</time></trkpt><trkpt lat="44.88959030686806" lon="12.399693741595536"><ele>1.0</ele><time>2026-04-19T10:13:24.999Z</time></trkpt><trkpt lat="44.88968136181149" lon="12.399672221050379"><ele>1.0</ele><time>2026-04-19T10:13:25.999Z</time></trkpt><trkpt lat="44.88977270212992" lon="12.399680467966617"><ele>1.0</ele><time>2026-04-19T10:13:26.999Z</time></trkpt><trkpt lat="44.88986959671037" lon="12.39971630800675"><ele>1.0</ele><time>2026-04-19T10:13:27.999Z</time></trkpt><trkpt lat="44.88997340176628" lon="12.399765569417674"><ele>1.0</ele><time>2026-04-19T10:13:28.999Z</time></trkpt><trkpt lat="44.890082760320425" lon="12.399817969602212"><ele>1.0</ele><time>2026-04-19T10:13:29.999Z</time></trkpt><trkpt lat="44.89019165731638" lon="12.399874267444655"><ele>0.6000000000000001</ele><time>2026-04-19T10:13:30.999Z</time></trkpt><trkpt lat="44.89029729434382" lon="12.399928173239386"><ele>0.20000000000000007</ele><time>2026-04-19T10:13:31.999Z</time></trkpt><trkpt lat="44.890398920034976" lon="12.399976958640128"><ele>-0.20000000000000007</ele><time>2026-04-19T10:13:32.999Z</time></trkpt><trkpt lat="44.89049439250734" lon="12.400026138725316"><ele>-0.6000000000000001</ele><time>2026-04-19T10:13:33.999Z</time></trkpt><trkpt lat="44.89058681421544" lon="12.4000846064926"><ele>-1.0</ele><time>2026-04-19T10:13:34.999Z</time></trkpt><trkpt lat="44.8906803794525" lon="12.40016729754662"><ele>-1.0</ele><time>2026-04-19T10:13:35.999Z</time></trkpt><trkpt lat="44.89077470339574" lon="12.400277394079566"><ele>-1.0</ele><time>2026-04-19T10:13:36.999Z</time></trkpt><trkpt lat="44.89087004209497" lon="12.40040807791198"><ele>-1.0</ele><time>2026-04-19T10:13:37.999Z</time></trkpt><trkpt lat="44.89098309500396" lon="12.40055824638755"><ele>-1.0</ele><time>2026-04-19T10:13:38.999Z</time></trkpt><trkpt lat="44.891096595374556" lon="12.40069460726999"><ele>-1.3333333333333333</ele><time>2026-04-19T10:13:39.999Z</time></trkpt><trkpt lat="44.8912296580674" lon="12.400843726903219"><ele>-1.6666666666666665</ele><time>2026-04-19T10:13:40.999Z</time></trkpt><trkpt lat="44.89136126630138" lon="12.400986254366428"><ele>-2.0</ele><time>2026-04-19T10:13:41.999Z</time></trkpt><trkpt lat="44.891488995581895" lon="12.40112776074184"><ele>-2.0</ele><time>2026-04-19T10:13:43Z</time></trkpt><trkpt lat="44.891616937438116" lon="12.401273586340652"><ele>-2.0</ele><time>2026-04-19T10:13:44Z</time></trkpt><trkpt lat="44.89174327832508" lon="12.401424108149428"><ele>-2.0</ele><time>2026-04-19T10:13:45Z</time></trkpt><trkpt lat="44.891870788632566" lon="12.401577898738724"><ele>-1.6666666666666665</ele><time>2026-04-19T10:13:46Z</time></trkpt><trkpt lat="44.89199890459154" lon="12.401734327981465"><ele>-1.3333333333333333</ele><time>2026-04-19T10:13:47Z</time></trkpt><trkpt lat="44.89212915039578" lon="12.401887601434451"><ele>-1.0</ele><time>2026-04-19T10:13:48Z</time></trkpt><trkpt lat="44.892261992371445" lon="12.402041975991354"><ele>-1.0</ele><time>2026-04-19T10:13:49Z</time></trkpt><trkpt lat="44.89239698410851" lon="12.402199400900427"><ele>-1.0</ele><time>2026-04-19T10:13:50Z</time></trkpt><trkpt lat="44.892534796643545" lon="12.402362682889486"><ele>-1.0</ele><time>2026-04-19T10:13:51Z</time></trkpt><trkpt lat="44.89267804117939" lon="12.402527382710424"><ele>-1.0</ele><time>2026-04-19T10:13:52Z</time></trkpt><trkpt lat="44.89282395701373" lon="12.402693628593989"><ele>-1.0</ele><time>2026-04-19T10:13:53Z</time></trkpt><trkpt lat="44.89296930585519" lon="12.40286379161541"><ele>-1.0</ele><time>2026-04-19T10:13:54Z</time></trkpt><trkpt lat="44.89311536985426" lon="12.403035438822451"><ele>-0.6666666666666666</ele><time>2026-04-19T10:13:55Z</time></trkpt><trkpt lat="44.89326080763558" lon="12.403204471233824"><ele>-0.3333333333333333</ele><time>2026-04-19T10:13:56Z</time></trkpt><trkpt lat="44.89340674189033" lon="12.403373685958712"><ele>0.0</ele><time>2026-04-19T10:13:57Z</time></trkpt><trkpt lat="44.893549257528306" lon="12.403539279036325"><ele>0.0</ele><time>2026-04-19T10:13:58Z</time></trkpt><trkpt lat="44.893687587615595" lon="12.403701139947515"><ele>0.0</ele><time>2026-04-19T10:13:59Z</time></trkpt><trkpt lat="44.893820393461155" lon="12.40385318416517"><ele>0.0</ele><time>2026-04-19T10:14:00Z</time></trkpt><trkpt lat="44.89394590459939" lon="12.403998920407451"><ele>0.0</ele><time>2026-04-19T10:14:01Z</time></trkpt><trkpt lat="44.89406531462139" lon="12.404138540176563"><ele>0.0</ele><time>2026-04-19T10:14:02Z</time></trkpt><trkpt lat="44.89417860678789" lon="12.404268025295812"><ele>0.0</ele><time>2026-04-19T10:14:03Z</time></trkpt><trkpt lat="44.89428813906175" lon="12.40439056586919"><ele>0.0</ele><time>2026-04-19T10:14:04Z</time></trkpt><trkpt lat="44.894389176339345" lon="12.404510539277023"><ele>-0.5</ele><time>2026-04-19T10:14:05Z</time></trkpt><trkpt lat="44.89447728670608" lon="12.40463395525207"><ele>-1.0</ele><time>2026-04-19T10:14:06Z</time></trkpt><trkpt lat="44.89453497839854" lon="12.404767819046628"><ele>-1.5</ele><time>2026-04-19T10:14:07Z</time></trkpt><trkpt lat="44.89455669537817" lon="12.404917140444994"><ele>-2.0</ele><time>2026-04-19T10:14:08Z</time></trkpt><trkpt lat="44.89456577170172" lon="12.405084864356732"><ele>-2.25</ele><time>2026-04-19T10:14:09Z</time></trkpt><trkpt lat="44.894577436655084" lon="12.405265831847554"><ele>-2.5</ele><time>2026-04-19T10:14:10Z</time></trkpt><trkpt lat="44.89458890651996" lon="12.405463203220258"><ele>-2.75</ele><time>2026-04-19T10:14:11Z</time></trkpt><trkpt lat="44.89459735687303" lon="12.405674111898785"><ele>-3.0</ele><time>2026-04-19T10:14:12Z</time></trkpt><trkpt lat="44.89460827655959" lon="12.40589811565041"><ele>-3.0</ele><time>2026-04-19T10:14:13Z</time></trkpt><trkpt lat="44.89462101797938" lon="12.40613193003716"><ele>-3.0</ele><time>2026-04-19T10:14:14Z</time></trkpt><trkpt lat="44.8946362132291" lon="12.406381733736223"><ele>-3.0</ele><time>2026-04-19T10:14:15Z</time></trkpt><trkpt lat="44.89465129112094" lon="12.406634337069717"><ele>-2.6666666666666665</ele><time>2026-04-19T10:14:16Z</time></trkpt><trkpt lat="44.89466691092" lon="12.406887099459087"><ele>-2.333333333333333</ele><time>2026-04-19T10:14:17Z</time></trkpt><trkpt lat="44.89468469688196" lon="12.407138288698714"><ele>-2.0</ele><time>2026-04-19T10:14:18Z</time></trkpt><trkpt lat="44.89470011481806" lon="12.407385675279109"><ele>-2.0</ele><time>2026-04-19T10:14:19Z</time></trkpt><trkpt lat="44.89471549723027" lon="12.40761707938239"><ele>-2.0</ele><time>2026-04-19T10:14:20Z</time></trkpt><trkpt lat="44.89472936481364" lon="12.407840689766198"><ele>-2.0</ele><time>2026-04-19T10:14:21Z</time></trkpt><trkpt lat="44.894739085840826" lon="12.408048682334718"><ele>-2.25</ele><time>2026-04-19T10:14:22Z</time></trkpt><trkpt lat="44.89473863522566" lon="12.408251738719677"><ele>-2.5</ele><time>2026-04-19T10:14:23Z</time></trkpt><trkpt lat="44.894712686069376" lon="12.408450037366931"><ele>-2.75</ele><time>2026-04-19T10:14:24Z</time></trkpt><trkpt lat="44.894656293141466" lon="12.408652511152475"><ele>-3.0</ele><time>2026-04-19T10:14:25Z</time></trkpt><trkpt lat="44.894588912762" lon="12.408855520307467"><ele>-3.0</ele><time>2026-04-19T10:14:26Z</time></trkpt><trkpt lat="44.894525051409815" lon="12.409051313404882"><ele>-3.0</ele><time>2026-04-19T10:14:27Z</time></trkpt><trkpt lat="44.894466458620336" lon="12.409231404167103"><ele>-3.0</ele><time>2026-04-19T10:14:28Z</time></trkpt><trkpt lat="44.89441384929212" lon="12.409403379650618"><ele>-3.0</ele><time>2026-04-19T10:14:29Z</time></trkpt><trkpt lat="44.89437786743628" lon="12.409567250436455"><ele>-3.0</ele><time>2026-04-19T10:14:30Z</time></trkpt><trkpt lat="44.894375036826254" lon="12.409736442331113"><ele>-3.0</ele><time>2026-04-19T10:14:31Z</time></trkpt><trkpt lat="44.89441023218998" lon="12.409911361741884"><ele>-3.0</ele><time>2026-04-19T10:14:32Z</time></trkpt><trkpt lat="44.894478843581076" lon="12.410090064676698"><ele>-3.0</ele><time>2026-04-19T10:14:33.001Z</time></trkpt><trkpt lat="44.89456706926507" lon="12.410279773334"><ele>-3.0</ele><time>2026-04-19T10:14:34.001Z</time></trkpt><trkpt lat="44.89465473516228" lon="12.410479262280182"><ele>-3.0</ele><time>2026-04-19T10:14:35.001Z</time></trkpt><trkpt lat="44.89474551704585" lon="12.410696364485101"><ele>-3.0</ele><time>2026-04-19T10:14:36.001Z</time></trkpt><trkpt lat="44.89483023490254" lon="12.410900391922343"><ele>-2.6666666666666665</ele><time>2026-04-19T10:14:37.001Z</time></trkpt><trkpt lat="44.89492490013906" lon="12.411121503093206"><ele>-2.333333333333333</ele><time>2026-04-19T10:14:38.001Z</time></trkpt><trkpt lat="44.8950240410773" lon="12.411351450187162"><ele>-2.0</ele><time>2026-04-19T10:14:39.001Z</time></trkpt><trkpt lat="44.895125686824194" lon="12.411584355693897"><ele>-2.0</ele><time>2026-04-19T10:14:40.001Z</time></trkpt><trkpt lat="44.895223285989246" lon="12.411808375437378"><ele>-2.0</ele><time>2026-04-19T10:14:41.001Z</time></trkpt><trkpt lat="44.895317445369635" lon="12.412032016061776"><ele>-2.0</ele><time>2026-04-19T10:14:42.001Z</time></trkpt><trkpt lat="44.895408353231645" lon="12.412250673344552"><ele>-2.333333333333333</ele><time>2026-04-19T10:14:43.001Z</time></trkpt><trkpt lat="44.89549750049256" lon="12.412463661555066"><ele>-2.6666666666666665</ele><time>2026-04-19T10:14:44.001Z</time></trkpt><trkpt lat="44.89558384377398" lon="12.412675910868922"><ele>-3.0</ele><time>2026-04-19T10:14:45.001Z</time></trkpt><trkpt lat="44.89566901805158" lon="12.412894188787433"><ele>-2.6666666666666665</ele><time>2026-04-19T10:14:46.001Z</time></trkpt><trkpt lat="44.89575072717373" lon="12.413119372240486"><ele>-2.333333333333333</ele><time>2026-04-19T10:14:47.001Z</time></trkpt><trkpt lat="44.895829532373526" lon="12.413347232792821"><ele>-2.0</ele><time>2026-04-19T10:14:48.001Z</time></trkpt><trkpt lat="44.895909088886846" lon="12.413577329559716"><ele>-2.0</ele><time>2026-04-19T10:14:49.001Z</time></trkpt><trkpt lat="44.89598945026877" lon="12.413808787578718"><ele>-2.0</ele><time>2026-04-19T10:14:50.001Z</time></trkpt><trkpt lat="44.89606813960347" lon="12.41404046306418"><ele>-2.0</ele><time>2026-04-19T10:14:51.001Z</time></trkpt><trkpt lat="44.89614589473101" lon="12.414264399095337"><ele>-2.333333333333333</ele><time>2026-04-19T10:14:52.001Z</time></trkpt><trkpt lat="44.8962252480293" lon="12.414486291596873"><ele>-2.6666666666666665</ele><time>2026-04-19T10:14:53.001Z</time></trkpt><trkpt lat="44.8963037896848" lon="12.414704114597393"><ele>-3.0</ele><time>2026-04-19T10:14:54.001Z</time></trkpt><trkpt lat="44.89638090937371" lon="12.414923663430391"><ele>-2.3333333333333335</ele><time>2026-04-19T10:14:55.001Z</time></trkpt><trkpt lat="44.89645943052505" lon="12.415145530184148"><ele>-1.6666666666666665</ele><time>2026-04-19T10:14:56.001Z</time></trkpt><trkpt lat="44.896539497777916" lon="12.415365163316483"><ele>-1.0</ele><time>2026-04-19T10:14:57.001Z</time></trkpt><trkpt lat="44.89661735320502" lon="12.41557747066284"><ele>-0.6666666666666666</ele><time>2026-04-19T10:14:58.001Z</time></trkpt><trkpt lat="44.89669327945858" lon="12.415784562350176"><ele>-0.3333333333333333</ele><time>2026-04-19T10:14:59.001Z</time></trkpt><trkpt lat="44.89677087494629" lon="12.415996875019923"><ele>0.0</ele><time>2026-04-19T10:15:00.001Z</time></trkpt><trkpt lat="44.8968509604028" lon="12.416216622667287"><ele>-1.3333333333333333</ele><time>2026-04-19T10:15:01.001Z</time></trkpt><trkpt lat="44.89693761633167" lon="12.41644390507983"><ele>-2.6666666666666665</ele><time>2026-04-19T10:15:02.001Z</time></trkpt><trkpt lat="44.897028017527575" lon="12.416674233007935"><ele>-4.0</ele><time>2026-04-19T10:15:03.001Z</time></trkpt><trkpt lat="44.897124476459844" lon="12.416911772342328"><ele>-4.0</ele><time>2026-04-19T10:15:04.001Z</time></trkpt><trkpt lat="44.89721775526858" lon="12.417135124662995"><ele>-4.0</ele><time>2026-04-19T10:15:05.001Z</time></trkpt><trkpt lat="44.89730680659915" lon="12.417350214799175"><ele>-4.0</ele><time>2026-04-19T10:15:06.001Z</time></trkpt><trkpt lat="44.89739081274168" lon="12.417558967279216"><ele>-3.6666666666666665</ele><time>2026-04-19T10:15:07.001Z</time></trkpt><trkpt lat="44.89747215888541" lon="12.417762986010777"><ele>-3.333333333333333</ele><time>2026-04-19T10:15:07.998Z</time></trkpt><trkpt lat="44.89755172147794" lon="12.417965187071879"><ele>-3.0</ele><time>2026-04-19T10:15:08.998Z</time></trkpt><trkpt lat="44.89763105527854" lon="12.418163979608739"><ele>-3.0</ele><time>2026-04-19T10:15:09.998Z</time></trkpt><trkpt lat="44.89770826100574" lon="12.418358411987654"><ele>-3.0</ele><time>2026-04-19T10:15:10.998Z</time></trkpt><trkpt lat="44.89778834098275" lon="12.418554690474824"><ele>-3.0</ele><time>2026-04-19T10:15:11.998Z</time></trkpt><trkpt lat="44.897869471669374" lon="12.41873918293241"><ele>-2.75</ele><time>2026-04-19T10:15:12.998Z</time></trkpt><trkpt lat="44.89795042214388" lon="12.418905884165982"><ele>-2.5</ele><time>2026-04-19T10:15:13.998Z</time></trkpt><trkpt lat="44.89803194593828" lon="12.41905697477288"><ele>-2.25</ele><time>2026-04-19T10:15:14.998Z</time></trkpt><trkpt lat="44.89811042534852" lon="12.419197907609762"><ele>-2.0</ele><time>2026-04-19T10:15:15.998Z</time></trkpt><trkpt lat="44.89818420083366" lon="12.419318814142281"><ele>-2.0</ele><time>2026-04-19T10:15:16.998Z</time></trkpt><trkpt lat="44.898245714919064" lon="12.419436621710574"><ele>-2.0</ele><time>2026-04-19T10:15:17.998Z</time></trkpt><trkpt lat="44.89829786084867" lon="12.419523911178874"><ele>-2.0</ele><time>2026-04-19T10:15:18.999Z</time></trkpt><trkpt lat="44.89844784267435" lon="12.41946747007821"><ele>-2.0</ele><time>2026-04-19T10:15:19.999Z</time></trkpt><trkpt lat="44.898554223481625" lon="12.419435700412578"><ele>-2.0</ele><time>2026-04-19T10:15:20.999Z</time></trkpt><trkpt lat="44.89866788343679" lon="12.419391442083295"><ele>-2.25</ele><time>2026-04-19T10:15:21.999Z</time></trkpt><trkpt lat="44.898787250454546" lon="12.419354988113545"><ele>-2.5</ele><time>2026-04-19T10:15:22.999Z</time></trkpt><trkpt lat="44.898898471010334" lon="12.41932391017071"><ele>-2.75</ele><time>2026-04-19T10:15:23.999Z</time></trkpt><trkpt lat="44.899019758808215" lon="12.419287323786277"><ele>-3.0</ele><time>2026-04-19T10:15:24.999Z</time></trkpt><trkpt lat="44.899145902092" lon="12.419249381012566"><ele>-3.0</ele><time>2026-04-19T10:15:25.999Z</time></trkpt><trkpt lat="44.89927426604243" lon="12.419206473671341"><ele>-3.0</ele><time>2026-04-19T10:15:26.999Z</time></trkpt><trkpt lat="44.8994015169138" lon="12.419167445054413"><ele>-3.0</ele><time>2026-04-19T10:15:27.999Z</time></trkpt><trkpt lat="44.89953708211455" lon="12.419127911076776"><ele>-3.0</ele><time>2026-04-19T10:15:28.999Z</time></trkpt><trkpt lat="44.89968045243343" lon="12.419086752951225"><ele>-3.0</ele><time>2026-04-19T10:15:29.999Z</time></trkpt><trkpt lat="44.89982617159849" lon="12.419042338655917"><ele>-3.0</ele><time>2026-04-19T10:15:30.999Z</time></trkpt><trkpt lat="44.899974659289185" lon="12.418998906194858"><ele>-3.0</ele><time>2026-04-19T10:15:31.999Z</time></trkpt><trkpt lat="44.9001257887233" lon="12.418953899632221"><ele>-3.0</ele><time>2026-04-19T10:15:32.999Z</time></trkpt><trkpt lat="44.900278667301635" lon="12.418908388781077"><ele>-3.0</ele><time>2026-04-19T10:15:33.999Z</time></trkpt><trkpt lat="44.90043610185854" lon="12.418861885812104"><ele>-3.0</ele><time>2026-04-19T10:15:34.999Z</time></trkpt><trkpt lat="44.90059907640428" lon="12.418814289929568"><ele>-3.0</ele><time>2026-04-19T10:15:35.999Z</time></trkpt><trkpt lat="44.90076592316116" lon="12.418764265813222"><ele>-3.0</ele><time>2026-04-19T10:15:36.999Z</time></trkpt><trkpt lat="44.900934244697936" lon="12.418712294131588"><ele>-3.0</ele><time>2026-04-19T10:15:37.999Z</time></trkpt><trkpt lat="44.90110671612686" lon="12.418662971179286"><ele>-3.0</ele><time>2026-04-19T10:15:38.999Z</time></trkpt><trkpt lat="44.90127064429153" lon="12.418615501274129"><ele>-3.0</ele><time>2026-04-19T10:15:39.999Z</time></trkpt><trkpt lat="44.90142097568428" lon="12.41856919286318"><ele>-3.0</ele><time>2026-04-19T10:15:40.999Z</time></trkpt><trkpt lat="44.90155520742692" lon="12.41852610087353"><ele>-3.0</ele><time>2026-04-19T10:15:42Z</time></trkpt><trkpt lat="44.90167492313875" lon="12.418488708752655"><ele>-3.0</ele><time>2026-04-19T10:15:43Z</time></trkpt><trkpt lat="44.90179270526431" lon="12.418455814662968"><ele>-3.0</ele><time>2026-04-19T10:15:44Z</time></trkpt><trkpt lat="44.90190392520438" lon="12.41842414862188"><ele>-3.0</ele><time>2026-04-19T10:15:45Z</time></trkpt><trkpt lat="44.90200516936895" lon="12.418401312515977"><ele>-3.2</ele><time>2026-04-19T10:15:46Z</time></trkpt><trkpt lat="44.90209540741818" lon="12.418372076203934"><ele>-3.4</ele><time>2026-04-19T10:15:47Z</time></trkpt><trkpt lat="44.902186999523565" lon="12.418346108042758"><ele>-3.6000000000000005</ele><time>2026-04-19T10:15:48Z</time></trkpt><trkpt lat="44.902265543636666" lon="12.418237386164046"><ele>-3.8000000000000003</ele><time>2026-04-19T10:15:49Z</time></trkpt><trkpt lat="44.902282790545726" lon="12.418060372945718"><ele>-4.0</ele><time>2026-04-19T10:15:50Z</time></trkpt><trkpt lat="44.902301243550845" lon="12.417886319473224"><ele>-4.0</ele><time>2026-04-19T10:15:51Z</time></trkpt><trkpt lat="44.90232153734417" lon="12.417694905673011"><ele>-4.0</ele><time>2026-04-19T10:15:52Z</time></trkpt><trkpt lat="44.90232884450791" lon="12.41748245493876"><ele>-4.0</ele><time>2026-04-19T10:15:53Z</time></trkpt><trkpt lat="44.90236578514414" lon="12.417279099800218"><ele>-4.0</ele><time>2026-04-19T10:15:54Z</time></trkpt><trkpt lat="44.902390029497965" lon="12.41705286113572"><ele>-4.0</ele><time>2026-04-19T10:15:55Z</time></trkpt><trkpt lat="44.902413912840544" lon="12.416829991515115"><ele>-4.0</ele><time>2026-04-19T10:15:56Z</time></trkpt><trkpt lat="44.90242601881779" lon="12.416587904772378"><ele>-4.0</ele><time>2026-04-19T10:15:57Z</time></trkpt><trkpt lat="44.902450864870964" lon="12.416354384886505"><ele>-4.333333333333333</ele><time>2026-04-19T10:15:58Z</time></trkpt><trkpt lat="44.90247568918756" lon="12.416120114727349"><ele>-4.666666666666667</ele><time>2026-04-19T10:15:59Z</time></trkpt><trkpt lat="44.90250435569019" lon="12.415872777313915"><ele>-5.0</ele><time>2026-04-19T10:16:00Z</time></trkpt><trkpt lat="44.90253340809053" lon="12.415613675662081"><ele>-5.0</ele><time>2026-04-19T10:16:01Z</time></trkpt><trkpt lat="44.90255979795869" lon="12.415365550493506"><ele>-5.0</ele><time>2026-04-19T10:16:02Z</time></trkpt><trkpt lat="44.902587000181" lon="12.415120328218283"><ele>-5.0</ele><time>2026-04-19T10:16:03Z</time></trkpt><trkpt lat="44.90261575353746" lon="12.414873423597548"><ele>-4.666666666666667</ele><time>2026-04-19T10:16:04Z</time></trkpt><trkpt lat="44.90264032404759" lon="12.41462435177656"><ele>-4.333333333333333</ele><time>2026-04-19T10:16:05Z</time></trkpt><trkpt lat="44.90268371918187" lon="12.414380294211039"><ele>-4.0</ele><time>2026-04-19T10:16:06Z</time></trkpt><trkpt lat="44.902710739079" lon="12.4141323032287"><ele>-4.0</ele><time>2026-04-19T10:16:07Z</time></trkpt><trkpt lat="44.90273771877841" lon="12.41388468095637"><ele>-4.0</ele><time>2026-04-19T10:16:08Z</time></trkpt><trkpt lat="44.90276540756917" lon="12.413630550782747"><ele>-4.0</ele><time>2026-04-19T10:16:09Z</time></trkpt><trkpt lat="44.90277836026325" lon="12.413368572761364"><ele>-4.0</ele><time>2026-04-19T10:16:10Z</time></trkpt><trkpt lat="44.90280645336136" lon="12.413107702866682"><ele>-4.0</ele><time>2026-04-19T10:16:11Z</time></trkpt><trkpt lat="44.90283474573819" lon="12.412843638484057"><ele>-4.0</ele><time>2026-04-19T10:16:12Z</time></trkpt><trkpt lat="44.90286379194123" lon="12.412578151712827"><ele>-4.0</ele><time>2026-04-19T10:16:13Z</time></trkpt><trkpt lat="44.902893287107105" lon="12.412317233313326"><ele>-4.0</ele><time>2026-04-19T10:16:14Z</time></trkpt><trkpt lat="44.90292106406224" lon="12.412061273878265"><ele>-4.0</ele><time>2026-04-19T10:16:15Z</time></trkpt><trkpt lat="44.902963346363585" lon="12.411825027281358"><ele>-4.0</ele><time>2026-04-19T10:16:16Z</time></trkpt><trkpt lat="44.902989423311304" lon="12.411589544433212"><ele>-4.0</ele><time>2026-04-19T10:16:17Z</time></trkpt><trkpt lat="44.903015816467004" lon="12.411351205935901"><ele>-4.0</ele><time>2026-04-19T10:16:18Z</time></trkpt><trkpt lat="44.90304261796936" lon="12.411109179453637"><ele>-3.6666666666666665</ele><time>2026-04-19T10:16:19Z</time></trkpt><trkpt lat="44.90306941077881" lon="12.410867232417074"><ele>-3.333333333333333</ele><time>2026-04-19T10:16:20Z</time></trkpt><trkpt lat="44.90309607341716" lon="12.410626459948954"><ele>-3.0</ele><time>2026-04-19T10:16:21.001Z</time></trkpt><trkpt lat="44.903123685332446" lon="12.410377115445675"><ele>-3.666666666666667</ele><time>2026-04-19T10:16:22.001Z</time></trkpt><trkpt lat="44.903151692204894" lon="12.41012420456634"><ele>-4.333333333333334</ele><time>2026-04-19T10:16:23.001Z</time></trkpt><trkpt lat="44.90317974973504" lon="12.409868736467223"><ele>-5.0</ele><time>2026-04-19T10:16:24.001Z</time></trkpt><trkpt lat="44.90320769769784" lon="12.409609528763353"><ele>-5.0</ele><time>2026-04-19T10:16:25.001Z</time></trkpt><trkpt lat="44.90323507835249" lon="12.409355582871425"><ele>-5.0</ele><time>2026-04-19T10:16:26.001Z</time></trkpt><trkpt lat="44.90326261827654" lon="12.409100159734823"><ele>-5.0</ele><time>2026-04-19T10:16:27.001Z</time></trkpt><trkpt lat="44.9032895626466" lon="12.4088502608068"><ele>-5.333333333333334</ele><time>2026-04-19T10:16:28.001Z</time></trkpt><trkpt lat="44.90331641856444" lon="12.40860118166437"><ele>-5.666666666666667</ele><time>2026-04-19T10:16:29.001Z</time></trkpt><trkpt lat="44.90334340153209" lon="12.408350924056407"><ele>-6.0</ele><time>2026-04-19T10:16:30.001Z</time></trkpt><trkpt lat="44.90337160074684" lon="12.40808938655561"><ele>-5.666666666666667</ele><time>2026-04-19T10:16:31.001Z</time></trkpt><trkpt lat="44.90340062776411" lon="12.40782017060471"><ele>-5.333333333333334</ele><time>2026-04-19T10:16:32.001Z</time></trkpt><trkpt lat="44.9034294341192" lon="12.407553002243942"><ele>-5.0</ele><time>2026-04-19T10:16:33.001Z</time></trkpt><trkpt lat="44.903457785723376" lon="12.407290051309984"><ele>-4.666666666666667</ele><time>2026-04-19T10:16:34.001Z</time></trkpt><trkpt lat="44.90348562264611" lon="12.407031873548538"><ele>-4.333333333333333</ele><time>2026-04-19T10:16:35.001Z</time></trkpt><trkpt lat="44.903514044191716" lon="12.406768273778992"><ele>-4.0</ele><time>2026-04-19T10:16:36.001Z</time></trkpt><trkpt lat="44.90354209522731" lon="12.40650811016999"><ele>-5.0</ele><time>2026-04-19T10:16:37.001Z</time></trkpt><trkpt lat="44.9035693755142" lon="12.40625509538541"><ele>-6.0</ele><time>2026-04-19T10:16:38.001Z</time></trkpt><trkpt lat="44.90359618916831" lon="12.406006408444709"><ele>-7.0</ele><time>2026-04-19T10:16:39.001Z</time></trkpt><trkpt lat="44.90362267861751" lon="12.405760728073815"><ele>-7.0</ele><time>2026-04-19T10:16:40.001Z</time></trkpt><trkpt lat="44.903649022149985" lon="12.405516401361757"><ele>-7.0</ele><time>2026-04-19T10:16:41.001Z</time></trkpt><trkpt lat="44.90367460406091" lon="12.405276053528613"><ele>-7.0</ele><time>2026-04-19T10:16:42.001Z</time></trkpt><trkpt lat="44.90369924209733" lon="12.405040069982748"><ele>-6.666666666666667</ele><time>2026-04-19T10:16:43.001Z</time></trkpt><trkpt lat="44.90370890393773" lon="12.404800079953874"><ele>-6.333333333333334</ele><time>2026-04-19T10:16:44.001Z</time></trkpt><trkpt lat="44.90373633390785" lon="12.404555305009891"><ele>-6.0</ele><time>2026-04-19T10:16:45.001Z</time></trkpt><trkpt lat="44.90376386265121" lon="12.404306599402902"><ele>-5.666666666666667</ele><time>2026-04-19T10:16:46.001Z</time></trkpt><trkpt lat="44.90380921186696" lon="12.404049060450753"><ele>-5.333333333333334</ele><time>2026-04-19T10:16:47.001Z</time></trkpt><trkpt lat="44.90383837815507" lon="12.403787042177926"><ele>-5.0</ele><time>2026-04-19T10:16:48.001Z</time></trkpt><trkpt lat="44.90386681296007" lon="12.403523337164325"><ele>-4.666666666666667</ele><time>2026-04-19T10:16:49.001Z</time></trkpt><trkpt lat="44.90389271576238" lon="12.403256555148902"><ele>-4.333333333333333</ele><time>2026-04-19T10:16:50.001Z</time></trkpt><trkpt lat="44.90392306209416" lon="12.402989501607651"><ele>-4.0</ele><time>2026-04-19T10:16:51.001Z</time></trkpt><trkpt lat="44.903954386373684" lon="12.402718634238656"><ele>-4.0</ele><time>2026-04-19T10:16:52.001Z</time></trkpt><trkpt lat="44.90398483142372" lon="12.402447782219786"><ele>-4.0</ele><time>2026-04-19T10:16:53.001Z</time></trkpt><trkpt lat="44.9040129440703" lon="12.40218120131133"><ele>-4.0</ele><time>2026-04-19T10:16:54.001Z</time></trkpt><trkpt lat="44.90404156808797" lon="12.401909770256676"><ele>-4.0</ele><time>2026-04-19T10:16:55.001Z</time></trkpt><trkpt lat="44.904069931475874" lon="12.401640811042848"><ele>-4.0</ele><time>2026-04-19T10:16:56.001Z</time></trkpt><trkpt lat="44.90409932228935" lon="12.401376378780872"><ele>-4.0</ele><time>2026-04-19T10:16:57.001Z</time></trkpt><trkpt lat="44.90412888163071" lon="12.401114524002036"><ele>-4.0</ele><time>2026-04-19T10:16:58.001Z</time></trkpt><trkpt lat="44.904157729832974" lon="12.400855823480848"><ele>-4.0</ele><time>2026-04-19T10:16:59.001Z</time></trkpt><trkpt lat="44.90418544636039" lon="12.400606549079429"><ele>-4.0</ele><time>2026-04-19T10:17:00.001Z</time></trkpt><trkpt lat="44.90421301173979" lon="12.40035863447274"><ele>-4.0</ele><time>2026-04-19T10:17:01.001Z</time></trkpt><trkpt lat="44.904240322645485" lon="12.40011300802346"><ele>-4.0</ele><time>2026-04-19T10:17:02.001Z</time></trkpt><trkpt lat="44.9042665195105" lon="12.399869260737926"><ele>-4.0</ele><time>2026-04-19T10:17:03.001Z</time></trkpt><trkpt lat="44.90429240963042" lon="12.399626359278853"><ele>-3.5</ele><time>2026-04-19T10:17:04.001Z</time></trkpt><trkpt lat="44.904317126833845" lon="12.399404849359398"><ele>-3.0</ele><time>2026-04-19T10:17:05.001Z</time></trkpt><trkpt lat="44.90434064532704" lon="12.39920346221999"><ele>-2.5</ele><time>2026-04-19T10:17:06.001Z</time></trkpt><trkpt lat="44.90436214263351" lon="12.399013636693232"><ele>-2.0</ele><time>2026-04-19T10:17:07.001Z</time></trkpt><trkpt lat="44.904381391463104" lon="12.398840913952432"><ele>-2.2</ele><time>2026-04-19T10:17:08.002Z</time></trkpt><trkpt lat="44.90439898171857" lon="12.398689067743023"><ele>-2.4000000000000004</ele><time>2026-04-19T10:17:09.002Z</time></trkpt><trkpt lat="44.90443251861023" lon="12.398566837095084"><ele>-2.5999999999999996</ele><time>2026-04-19T10:17:10.002Z</time></trkpt><trkpt lat="44.90448501915137" lon="12.398489515397953"><ele>-2.8</ele><time>2026-04-19T10:17:11.002Z</time></trkpt><trkpt lat="44.904557052691516" lon="12.39843729031865"><ele>-3.0</ele><time>2026-04-19T10:17:12.002Z</time></trkpt><trkpt lat="44.90466310099582" lon="12.398453606244853"><ele>-3.0</ele><time>2026-04-19T10:17:13.002Z</time></trkpt><trkpt lat="44.90476557546947" lon="12.398440713964236"><ele>-3.0</ele><time>2026-04-19T10:17:13.999Z</time></trkpt><trkpt lat="44.90485304194032" lon="12.398416364441433"><ele>-3.0</ele><time>2026-04-19T10:17:14.999Z</time></trkpt><trkpt lat="44.90491931341332" lon="12.39835866034846"><ele>-3.0</ele><time>2026-04-19T10:17:15.999Z</time></trkpt><trkpt lat="44.90494789509777" lon="12.398261905398618"><ele>-3.0</ele><time>2026-04-19T10:17:16.999Z</time></trkpt><trkpt lat="44.90494857128461" lon="12.398133701161276"><ele>-3.0</ele><time>2026-04-19T10:17:17.999Z</time></trkpt><trkpt lat="44.90495230319082" lon="12.398003324694425"><ele>-2.8</ele><time>2026-04-19T10:17:18.999Z</time></trkpt><trkpt lat="44.90496254725114" lon="12.397863868325913"><ele>-2.5999999999999996</ele><time>2026-04-19T10:17:19.999Z</time></trkpt><trkpt lat="44.90500128726028" lon="12.397724304763186"><ele>-2.4000000000000004</ele><time>2026-04-19T10:17:20.999Z</time></trkpt><trkpt lat="44.90501666811607" lon="12.397560298611074"><ele>-2.2</ele><time>2026-04-19T10:17:21.999Z</time></trkpt><trkpt lat="44.90501314322727" lon="12.39738471847925"><ele>-2.0</ele><time>2026-04-19T10:17:22.999Z</time></trkpt><trkpt lat="44.905002626989884" lon="12.397202921431996"><ele>-2.5</ele><time>2026-04-19T10:17:23.999Z</time></trkpt><trkpt lat="44.904975375087155" lon="12.397030630282165"><ele>-3.0</ele><time>2026-04-19T10:17:24.999Z</time></trkpt><trkpt lat="44.90496559682217" lon="12.396856125883332"><ele>-3.5</ele><time>2026-04-19T10:17:25.999Z</time></trkpt><trkpt lat="44.90495295724857" lon="12.396695481243757"><ele>-4.0</ele><time>2026-04-19T10:17:26.999Z</time></trkpt><trkpt lat="44.904943013084456" lon="12.396548671241451"><ele>-3.9999999999999996</ele><time>2026-04-19T10:17:27.999Z</time></trkpt><trkpt lat="44.90493355185881" lon="12.39641706541298"><ele>-4.0</ele><time>2026-04-19T10:17:28.999Z</time></trkpt><trkpt lat="44.904921663863" lon="12.39630403448849"><ele>-4.0</ele><time>2026-04-19T10:17:30Z</time></trkpt><trkpt lat="44.90491686868106" lon="12.396208600221295"><ele>-4.0</ele><time>2026-04-19T10:17:31Z</time></trkpt><trkpt lat="44.90491181597088" lon="12.396109588194957"><ele>-3.9999999999999996</ele><time>2026-04-19T10:17:32Z</time></trkpt><trkpt lat="44.904912455906384" lon="12.395988524428885"><ele>-4.0</ele><time>2026-04-19T10:17:34Z</time></trkpt><trkpt lat="44.90506483761252" lon="12.39592797143392"><ele>-4.0</ele><time>2026-04-19T10:17:35Z</time></trkpt><trkpt lat="44.905170209873305" lon="12.395906060664611"><ele>-4.0</ele><time>2026-04-19T10:17:36Z</time></trkpt><trkpt lat="44.905314944593144" lon="12.39588964087083"><ele>-4.0</ele><time>2026-04-19T10:17:37Z</time></trkpt><trkpt lat="44.90547795839733" lon="12.395853761633841"><ele>-4.0</ele><time>2026-04-19T10:17:38Z</time></trkpt><trkpt lat="44.905640428167864" lon="12.39581647524291"><ele>-4.0</ele><time>2026-04-19T10:17:39Z</time></trkpt><trkpt lat="44.905804569292826" lon="12.395795016636667"><ele>-4.0</ele><time>2026-04-19T10:17:40Z</time></trkpt><trkpt lat="44.9059500721073" lon="12.395746654980751"><ele>-4.0</ele><time>2026-04-19T10:17:41Z</time></trkpt><trkpt lat="44.90608738825264" lon="12.395703897768861"><ele>-4.0</ele><time>2026-04-19T10:17:42Z</time></trkpt><trkpt lat="44.90622149132211" lon="12.39566250892483"><ele>-4.0</ele><time>2026-04-19T10:17:43Z</time></trkpt><trkpt lat="44.90635811281899" lon="12.395625812768015"><ele>-4.0</ele><time>2026-04-19T10:17:44Z</time></trkpt><trkpt lat="44.906495760668456" lon="12.395585353170748"><ele>-4.0</ele><time>2026-04-19T10:17:45Z</time></trkpt><trkpt lat="44.90663943667954" lon="12.395530772675638"><ele>-4.333333333333333</ele><time>2026-04-19T10:17:46Z</time></trkpt><trkpt lat="44.90679116224297" lon="12.395464544284492"><ele>-4.666666666666667</ele><time>2026-04-19T10:17:47Z</time></trkpt><trkpt lat="44.9069460063923" lon="12.395383731342834"><ele>-5.0</ele><time>2026-04-19T10:17:48Z</time></trkpt><trkpt lat="44.907103852940196" lon="12.395286239901681"><ele>-5.0</ele><time>2026-04-19T10:17:49Z</time></trkpt><trkpt lat="44.90726479252415" lon="12.395173552538184"><ele>-5.0</ele><time>2026-04-19T10:17:50Z</time></trkpt><trkpt lat="44.907423794791896" lon="12.395064797858511"><ele>-5.0</ele><time>2026-04-19T10:17:51Z</time></trkpt><trkpt lat="44.90758287615397" lon="12.394961382292834"><ele>-4.666666666666667</ele><time>2026-04-19T10:17:52Z</time></trkpt><trkpt lat="44.90773980625871" lon="12.394857741747009"><ele>-4.333333333333333</ele><time>2026-04-19T10:17:53Z</time></trkpt><trkpt lat="44.90789024335489" lon="12.394757877312662"><ele>-4.0</ele><time>2026-04-19T10:17:54Z</time></trkpt><trkpt lat="44.908038806349005" lon="12.394658974181871"><ele>-4.0</ele><time>2026-04-19T10:17:55Z</time></trkpt><trkpt lat="44.90818546631691" lon="12.394564674200188"><ele>-4.0</ele><time>2026-04-19T10:17:56Z</time></trkpt><trkpt lat="44.908334316760794" lon="12.39446857994664"><ele>-4.0</ele><time>2026-04-19T10:17:57Z</time></trkpt><trkpt lat="44.90849044490503" lon="12.394370087739622"><ele>-4.0</ele><time>2026-04-19T10:17:58Z</time></trkpt><trkpt lat="44.908649261475176" lon="12.39427405765422"><ele>-4.0</ele><time>2026-04-19T10:17:59Z</time></trkpt><trkpt lat="44.90882176692788" lon="12.39416238937967"><ele>-4.0</ele><time>2026-04-19T10:18:00Z</time></trkpt><trkpt lat="44.909006102145014" lon="12.394042244649107"><ele>-4.0</ele><time>2026-04-19T10:18:01Z</time></trkpt><trkpt lat="44.909176083425855" lon="12.393928833959578"><ele>-4.0</ele><time>2026-04-19T10:18:02Z</time></trkpt><trkpt lat="44.909341952794875" lon="12.393819062391222"><ele>-4.0</ele><time>2026-04-19T10:18:03Z</time></trkpt><trkpt lat="44.90950246281873" lon="12.393708447221133"><ele>-4.333333333333333</ele><time>2026-04-19T10:18:04.001Z</time></trkpt><trkpt lat="44.90966275677879" lon="12.393599000022048"><ele>-4.666666666666667</ele><time>2026-04-19T10:18:05.001Z</time></trkpt><trkpt lat="44.90983024479872" lon="12.393479602330371"><ele>-5.0</ele><time>2026-04-19T10:18:06.001Z</time></trkpt><trkpt lat="44.91000161070906" lon="12.393355117514258"><ele>-4.666666666666667</ele><time>2026-04-19T10:18:07.001Z</time></trkpt><trkpt lat="44.910167702588254" lon="12.393234870273888"><ele>-4.333333333333333</ele><time>2026-04-19T10:18:08.001Z</time></trkpt><trkpt lat="44.91032261657856" lon="12.393114820344525"><ele>-4.0</ele><time>2026-04-19T10:18:09.001Z</time></trkpt><trkpt lat="44.91047360125495" lon="12.393001996128806"><ele>-4.0</ele><time>2026-04-19T10:18:10.001Z</time></trkpt><trkpt lat="44.91062037328952" lon="12.392891662828493"><ele>-4.0</ele><time>2026-04-19T10:18:11.001Z</time></trkpt><trkpt lat="44.91075697625299" lon="12.392792627209532"><ele>-4.0</ele><time>2026-04-19T10:18:12.001Z</time></trkpt><trkpt lat="44.91089862816078" lon="12.392704923093792"><ele>-4.333333333333333</ele><time>2026-04-19T10:18:13.001Z</time></trkpt><trkpt lat="44.91104616475868" lon="12.39267688652978"><ele>-4.666666666666667</ele><time>2026-04-19T10:18:14.001Z</time></trkpt><trkpt lat="44.91120090416038" lon="12.392672842103744"><ele>-5.0</ele><time>2026-04-19T10:18:15.001Z</time></trkpt><trkpt lat="44.911360660331944" lon="12.392709325975764"><ele>-5.0</ele><time>2026-04-19T10:18:16.001Z</time></trkpt><trkpt lat="44.91153170239717" lon="12.392744321368417"><ele>-5.0</ele><time>2026-04-19T10:18:17.001Z</time></trkpt><trkpt lat="44.91170398176434" lon="12.39281609237338"><ele>-5.0</ele><time>2026-04-19T10:18:18.001Z</time></trkpt><trkpt lat="44.911874935946564" lon="12.392877055982499"><ele>-4.666666666666667</ele><time>2026-04-19T10:18:19.001Z</time></trkpt><trkpt lat="44.91204458261367" lon="12.392934983185125"><ele>-4.333333333333333</ele><time>2026-04-19T10:18:20.001Z</time></trkpt><trkpt lat="44.91221463320773" lon="12.392987380900422"><ele>-4.0</ele><time>2026-04-19T10:18:21.001Z</time></trkpt><trkpt lat="44.9123921088881" lon="12.393032674260118"><ele>-4.0</ele><time>2026-04-19T10:18:22.001Z</time></trkpt><trkpt lat="44.912569928867704" lon="12.393059644618628"><ele>-4.0</ele><time>2026-04-19T10:18:23.001Z</time></trkpt><trkpt lat="44.9127511675304" lon="12.393070856859273"><ele>-4.0</ele><time>2026-04-19T10:18:24.001Z</time></trkpt><trkpt lat="44.91293392503175" lon="12.39305464565448"><ele>-4.0</ele><time>2026-04-19T10:18:25.001Z</time></trkpt><trkpt lat="44.913115313704054" lon="12.393030233514885"><ele>-4.0</ele><time>2026-04-19T10:18:26.001Z</time></trkpt><trkpt lat="44.91330110409865" lon="12.392995658476243"><ele>-4.0</ele><time>2026-04-19T10:18:27.001Z</time></trkpt><trkpt lat="44.91348602970451" lon="12.392978426476473"><ele>-3.6666666666666665</ele><time>2026-04-19T10:18:28.001Z</time></trkpt><trkpt lat="44.91366948039587" lon="12.392923891173679"><ele>-3.333333333333333</ele><time>2026-04-19T10:18:29.001Z</time></trkpt><trkpt lat="44.91384949801636" lon="12.392838181716227"><ele>-3.0</ele><time>2026-04-19T10:18:30.001Z</time></trkpt><trkpt lat="44.9140209973417" lon="12.392710830415416"><ele>-3.0</ele><time>2026-04-19T10:18:31.001Z</time></trkpt><trkpt lat="44.914196192401086" lon="12.392595276867922"><ele>-3.0</ele><time>2026-04-19T10:18:32.001Z</time></trkpt><trkpt lat="44.914371463940554" lon="12.392474884640883"><ele>-3.0</ele><time>2026-04-19T10:18:33.001Z</time></trkpt><trkpt lat="44.9145476908187" lon="12.39235685509707"><ele>-3.333333333333333</ele><time>2026-04-19T10:18:34.001Z</time></trkpt><trkpt lat="44.914727483205894" lon="12.392240364717418"><ele>-3.6666666666666665</ele><time>2026-04-19T10:18:35.001Z</time></trkpt><trkpt lat="44.91490959290446" lon="12.392126196635774"><ele>-4.0</ele><time>2026-04-19T10:18:36.001Z</time></trkpt><trkpt lat="44.915091683493706" lon="12.392013986534048"><ele>-4.0</ele><time>2026-04-19T10:18:37.001Z</time></trkpt><trkpt lat="44.91527545181002" lon="12.391899924528543"><ele>-4.0</ele><time>2026-04-19T10:18:38.001Z</time></trkpt><trkpt lat="44.91545347397845" lon="12.391779721647781"><ele>-4.0</ele><time>2026-04-19T10:18:39.001Z</time></trkpt><trkpt lat="44.915627552740624" lon="12.391647695158168"><ele>-4.0</ele><time>2026-04-19T10:18:40.001Z</time></trkpt><trkpt lat="44.91580329581518" lon="12.391532908757576"><ele>-4.0</ele><time>2026-04-19T10:18:41.001Z</time></trkpt><trkpt lat="44.91595599109707" lon="12.391389145053616"><ele>-4.0</ele><time>2026-04-19T10:18:42.001Z</time></trkpt><trkpt lat="44.91611494965409" lon="12.391268003742184"><ele>-4.0</ele><time>2026-04-19T10:18:43.001Z</time></trkpt><trkpt lat="44.91627477515616" lon="12.391139864876951"><ele>-4.0</ele><time>2026-04-19T10:18:44.001Z</time></trkpt><trkpt lat="44.91643818846488" lon="12.391003888589998"><ele>-4.0</ele><time>2026-04-19T10:18:45.001Z</time></trkpt><trkpt lat="44.91661599614584" lon="12.390873627025831"><ele>-4.0</ele><time>2026-04-19T10:18:46.001Z</time></trkpt><trkpt lat="44.916779275026414" lon="12.390722409763224"><ele>-4.0</ele><time>2026-04-19T10:18:47.002Z</time></trkpt><trkpt lat="44.916930732776045" lon="12.39057414696344"><ele>-4.0</ele><time>2026-04-19T10:18:48.002Z</time></trkpt><trkpt lat="44.91707704211301" lon="12.390425876018153"><ele>-3.6666666666666665</ele><time>2026-04-19T10:18:49.002Z</time></trkpt><trkpt lat="44.917222483368754" lon="12.390275926486382"><ele>-3.333333333333333</ele><time>2026-04-19T10:18:50.002Z</time></trkpt><trkpt lat="44.917351329293275" lon="12.390112649034272"><ele>-3.0</ele><time>2026-04-19T10:18:51.002Z</time></trkpt><trkpt lat="44.91749788031808" lon="12.3899636363862"><ele>-2.6666666666666665</ele><time>2026-04-19T10:18:52.002Z</time></trkpt><trkpt lat="44.91763598633424" lon="12.389817840469329"><ele>-2.333333333333333</ele><time>2026-04-19T10:18:53.002Z</time></trkpt><trkpt lat="44.91777001067482" lon="12.389678556235161"><ele>-2.0</ele><time>2026-04-19T10:18:54.002Z</time></trkpt><trkpt lat="44.917904410192826" lon="12.389537017072463"><ele>-2.6666666666666665</ele><time>2026-04-19T10:18:55.002Z</time></trkpt><trkpt lat="44.91804279399995" lon="12.389391711014353"><ele>-3.333333333333333</ele><time>2026-04-19T10:18:56.002Z</time></trkpt><trkpt lat="44.91818353634749" lon="12.389246041659163"><ele>-4.0</ele><time>2026-04-19T10:18:57.002Z</time></trkpt><trkpt lat="44.91832451553628" lon="12.389099978886293"><ele>-4.0</ele><time>2026-04-19T10:18:58.002Z</time></trkpt><trkpt lat="44.918467379717434" lon="12.38895815538676"><ele>-4.0</ele><time>2026-04-19T10:18:59.002Z</time></trkpt><trkpt lat="44.91860815987939" lon="12.388826852849574"><ele>-4.0</ele><time>2026-04-19T10:19:00.002Z</time></trkpt><trkpt lat="44.91875298527267" lon="12.388704677678028"><ele>-4.0</ele><time>2026-04-19T10:19:01.002Z</time></trkpt><trkpt lat="44.918901857037305" lon="12.388597765271413"><ele>-4.0</ele><time>2026-04-19T10:19:02.002Z</time></trkpt><trkpt lat="44.9190525669179" lon="12.388495427726427"><ele>-4.0</ele><time>2026-04-19T10:19:03.002Z</time></trkpt><trkpt lat="44.91920816036699" lon="12.388396117216752"><ele>-4.0</ele><time>2026-04-19T10:19:04.002Z</time></trkpt><trkpt lat="44.919358274494094" lon="12.388301915573917"><ele>-4.0</ele><time>2026-04-19T10:19:05.002Z</time></trkpt><trkpt lat="44.91951126923415" lon="12.388215538360583"><ele>-4.0</ele><time>2026-04-19T10:19:06.002Z</time></trkpt><trkpt lat="44.919663980380975" lon="12.388134267400597"><ele>-4.0</ele><time>2026-04-19T10:19:07.002Z</time></trkpt><trkpt lat="44.91981337396763" lon="12.388058157032992"><ele>-4.0</ele><time>2026-04-19T10:19:08.002Z</time></trkpt><trkpt lat="44.919959792927365" lon="12.387984194056065"><ele>-4.0</ele><time>2026-04-19T10:19:09.002Z</time></trkpt><trkpt lat="44.9201095718018" lon="12.38790643210399"><ele>-3.333333333333333</ele><time>2026-04-19T10:19:10.002Z</time></trkpt><trkpt lat="44.92026171385464" lon="12.38782926782304"><ele>-2.6666666666666665</ele><time>2026-04-19T10:19:11.002Z</time></trkpt><trkpt lat="44.920418979718804" lon="12.38774714532892"><ele>-2.0</ele><time>2026-04-19T10:19:12.002Z</time></trkpt><trkpt lat="44.92056689478532" lon="12.387671917476814"><ele>-2.0</ele><time>2026-04-19T10:19:13.002Z</time></trkpt><trkpt lat="44.92071117272897" lon="12.387601353732357"><ele>-2.0</ele><time>2026-04-19T10:19:14.002Z</time></trkpt><trkpt lat="44.920847596390985" lon="12.387531841715093"><ele>-2.0</ele><time>2026-04-19T10:19:15.002Z</time></trkpt><trkpt lat="44.92098407395373" lon="12.387488093261938"><ele>-2.0</ele><time>2026-04-19T10:19:16.002Z</time></trkpt><trkpt lat="44.92110994465023" lon="12.387424392642421"><ele>-1.75</ele><time>2026-04-19T10:19:17.002Z</time></trkpt><trkpt lat="44.921226102925374" lon="12.387364586959501"><ele>-1.5</ele><time>2026-04-19T10:19:18.002Z</time></trkpt><trkpt lat="44.921327366252804" lon="12.387314179884942"><ele>-1.25</ele><time>2026-04-19T10:19:19.002Z</time></trkpt><trkpt lat="44.92142809882298" lon="12.387266485123961"><ele>-1.0</ele><time>2026-04-19T10:19:20Z</time></trkpt><trkpt lat="44.921538140339514" lon="12.38721465957276"><ele>-1.0</ele><time>2026-04-19T10:19:21Z</time></trkpt><trkpt lat="44.92165155136015" lon="12.387184211730188"><ele>-1.0</ele><time>2026-04-19T10:19:22Z</time></trkpt><trkpt lat="44.92176912756767" lon="12.387095299026475"><ele>-1.0</ele><time>2026-04-19T10:19:23Z</time></trkpt><trkpt lat="44.92190193747834" lon="12.387039908212223"><ele>-1.0</ele><time>2026-04-19T10:19:24Z</time></trkpt><trkpt lat="44.922033007979536" lon="12.386985905957587"><ele>-1.0</ele><time>2026-04-19T10:19:25Z</time></trkpt><trkpt lat="44.9221646599987" lon="12.386933173486108"><ele>-1.0</ele><time>2026-04-19T10:19:26Z</time></trkpt><trkpt lat="44.92229664581129" lon="12.386875210741382"><ele>-1.0</ele><time>2026-04-19T10:19:27Z</time></trkpt><trkpt lat="44.9224326672047" lon="12.386814186223331"><ele>-1.0</ele><time>2026-04-19T10:19:28Z</time></trkpt><trkpt lat="44.922571911256476" lon="12.38675093032983"><ele>-1.25</ele><time>2026-04-19T10:19:29Z</time></trkpt><trkpt lat="44.922707526353335" lon="12.386689177842653"><ele>-1.5</ele><time>2026-04-19T10:19:30Z</time></trkpt><trkpt lat="44.92284025240108" lon="12.386628528660767"><ele>-1.75</ele><time>2026-04-19T10:19:31Z</time></trkpt><trkpt lat="44.92297460786597" lon="12.386573743354498"><ele>-2.0</ele><time>2026-04-19T10:19:32Z</time></trkpt><trkpt lat="44.923114590616166" lon="12.386501382199008"><ele>-2.0</ele><time>2026-04-19T10:19:33Z</time></trkpt><trkpt lat="44.92325367159006" lon="12.386437516005007"><ele>-2.0</ele><time>2026-04-19T10:19:34Z</time></trkpt><trkpt lat="44.92338136383409" lon="12.386378955769581"><ele>-2.0</ele><time>2026-04-19T10:19:35Z</time></trkpt><trkpt lat="44.9235129055051" lon="12.386318166019207"><ele>-2.0</ele><time>2026-04-19T10:19:36Z</time></trkpt><trkpt lat="44.923646231867785" lon="12.386256931486827"><ele>-2.25</ele><time>2026-04-19T10:19:37Z</time></trkpt><trkpt lat="44.9237802965971" lon="12.38619040546974"><ele>-2.5</ele><time>2026-04-19T10:19:38Z</time></trkpt><trkpt lat="44.92391402627246" lon="12.386124068900275"><ele>-2.75</ele><time>2026-04-19T10:19:39Z</time></trkpt><trkpt lat="44.92405236101348" lon="12.386064233570513"><ele>-3.0</ele><time>2026-04-19T10:19:40Z</time></trkpt><trkpt lat="44.92419045160249" lon="12.38600305954632"><ele>-2.6666666666666665</ele><time>2026-04-19T10:19:41Z</time></trkpt><trkpt lat="44.924331511349614" lon="12.385942350744264"><ele>-2.333333333333333</ele><time>2026-04-19T10:19:42Z</time></trkpt><trkpt lat="44.92448330714984" lon="12.385891001089226"><ele>-2.0</ele><time>2026-04-19T10:19:43Z</time></trkpt><trkpt lat="44.9246295899169" lon="12.385846849896998"><ele>-2.0</ele><time>2026-04-19T10:19:44Z</time></trkpt><trkpt lat="44.92478415680653" lon="12.38580128867867"><ele>-2.0</ele><time>2026-04-19T10:19:45Z</time></trkpt><trkpt lat="44.92494429049298" lon="12.38575631504152"><ele>-2.0</ele><time>2026-04-19T10:19:46Z</time></trkpt><trkpt lat="44.92510782007246" lon="12.385708225904692"><ele>-2.333333333333333</ele><time>2026-04-19T10:19:47Z</time></trkpt><trkpt lat="44.925273903460464" lon="12.38565757396072"><ele>-2.6666666666666665</ele><time>2026-04-19T10:19:48.001Z</time></trkpt><trkpt lat="44.925437569797566" lon="12.38560274164001"><ele>-3.0</ele><time>2026-04-19T10:19:49.001Z</time></trkpt><trkpt lat="44.925608837612074" lon="12.385548484366485"><ele>-3.0</ele><time>2026-04-19T10:19:50.001Z</time></trkpt><trkpt lat="44.92578100250828" lon="12.385498006000839"><ele>-3.0</ele><time>2026-04-19T10:19:51.001Z</time></trkpt><trkpt lat="44.92595953378191" lon="12.385440347347695"><ele>-3.0</ele><time>2026-04-19T10:19:52.001Z</time></trkpt><trkpt lat="44.92613964786246" lon="12.385380892217288"><ele>-3.666666666666667</ele><time>2026-04-19T10:19:53.001Z</time></trkpt><trkpt lat="44.926321128933296" lon="12.385318114006369"><ele>-4.333333333333334</ele><time>2026-04-19T10:19:54.001Z</time></trkpt><trkpt lat="44.92650557130351" lon="12.385251497747726"><ele>-5.0</ele><time>2026-04-19T10:19:55.001Z</time></trkpt><trkpt lat="44.92668901422352" lon="12.385179220552688"><ele>-4.666666666666667</ele><time>2026-04-19T10:19:56.001Z</time></trkpt><trkpt lat="44.926876993770705" lon="12.385103398464143"><ele>-4.333333333333333</ele><time>2026-04-19T10:19:57.001Z</time></trkpt><trkpt lat="44.92706912795241" lon="12.38504878627583"><ele>-4.0</ele><time>2026-04-19T10:19:58.001Z</time></trkpt><trkpt lat="44.9272588557233" lon="12.384966366663035"><ele>-4.0</ele><time>2026-04-19T10:19:59.001Z</time></trkpt><trkpt lat="44.92744045401397" lon="12.384845437216905"><ele>-4.0</ele><time>2026-04-19T10:20:00.001Z</time></trkpt><trkpt lat="44.92761886404085" lon="12.38472860479872"><ele>-4.0</ele><time>2026-04-19T10:20:01.001Z</time></trkpt><trkpt lat="44.92779783146976" lon="12.384597311963933"><ele>-4.0</ele><time>2026-04-19T10:20:02.001Z</time></trkpt><trkpt lat="44.92797175465163" lon="12.384458070536176"><ele>-4.0</ele><time>2026-04-19T10:20:03.001Z</time></trkpt><trkpt lat="44.92814613744043" lon="12.384314194778437"><ele>-4.0</ele><time>2026-04-19T10:20:04.001Z</time></trkpt><trkpt lat="44.928314956566446" lon="12.384172825163633"><ele>-4.0</ele><time>2026-04-19T10:20:05.001Z</time></trkpt><trkpt lat="44.928471530614075" lon="12.384042559711256"><ele>-4.0</ele><time>2026-04-19T10:20:06.001Z</time></trkpt><trkpt lat="44.928618174142926" lon="12.383927315936988"><ele>-4.0</ele><time>2026-04-19T10:20:07.001Z</time></trkpt><trkpt lat="44.928756859416204" lon="12.38381159301725"><ele>-3.333333333333333</ele><time>2026-04-19T10:20:08.001Z</time></trkpt><trkpt lat="44.92889835123351" lon="12.383698603150478"><ele>-2.6666666666666665</ele><time>2026-04-19T10:20:09.001Z</time></trkpt><trkpt lat="44.929040382846964" lon="12.383577023104163"><ele>-2.0</ele><time>2026-04-19T10:20:10.001Z</time></trkpt><trkpt lat="44.92918887922217" lon="12.383454353148439"><ele>-2.333333333333333</ele><time>2026-04-19T10:20:11.001Z</time></trkpt><trkpt lat="44.9293244443517" lon="12.38332266355504"><ele>-2.6666666666666665</ele><time>2026-04-19T10:20:12.001Z</time></trkpt><trkpt lat="44.929466768001845" lon="12.383193760671318"><ele>-3.0</ele><time>2026-04-19T10:20:13.001Z</time></trkpt><trkpt lat="44.92958482655532" lon="12.383011109825944"><ele>-3.0</ele><time>2026-04-19T10:20:14.001Z</time></trkpt><trkpt lat="44.9296833652762" lon="12.38281194502656"><ele>-3.0</ele><time>2026-04-19T10:20:15.001Z</time></trkpt><trkpt lat="44.929765154283956" lon="12.382563316830757"><ele>-3.0</ele><time>2026-04-19T10:20:16.001Z</time></trkpt><trkpt lat="44.929827820044586" lon="12.382267014646422"><ele>-3.333333333333333</ele><time>2026-04-19T10:20:17.001Z</time></trkpt><trkpt lat="44.92987542824845" lon="12.381998137949571"><ele>-3.6666666666666665</ele><time>2026-04-19T10:20:18.001Z</time></trkpt><trkpt lat="44.92990465384948" lon="12.381717667568596"><ele>-4.0</ele><time>2026-04-19T10:20:19.001Z</time></trkpt><trkpt lat="44.929963580617674" lon="12.381453999088526"><ele>-4.0</ele><time>2026-04-19T10:20:20.001Z</time></trkpt><trkpt lat="44.92999221553549" lon="12.381176539249859"><ele>-4.0</ele><time>2026-04-19T10:20:21.001Z</time></trkpt><trkpt lat="44.93005325537686" lon="12.380909680046788"><ele>-4.0</ele><time>2026-04-19T10:20:22.001Z</time></trkpt><trkpt lat="44.930098127714714" lon="12.380637542709854"><ele>-4.0</ele><time>2026-04-19T10:20:23.001Z</time></trkpt><trkpt lat="44.93014332659733" lon="12.380363424979363"><ele>-4.0</ele><time>2026-04-19T10:20:24.001Z</time></trkpt><trkpt lat="44.930189229579845" lon="12.380085037108476"><ele>-4.0</ele><time>2026-04-19T10:20:25.001Z</time></trkpt><trkpt lat="44.930235536191965" lon="12.379804201338136"><ele>-3.333333333333333</ele><time>2026-04-19T10:20:26.001Z</time></trkpt><trkpt lat="44.9302821702583" lon="12.379521379654527"><ele>-2.6666666666666665</ele><time>2026-04-19T10:20:27.001Z</time></trkpt><trkpt lat="44.93032699826568" lon="12.379241801216272"><ele>-2.0</ele><time>2026-04-19T10:20:28.001Z</time></trkpt><trkpt lat="44.93035436477448" lon="12.378958498006902"><ele>-2.0</ele><time>2026-04-19T10:20:29.001Z</time></trkpt><trkpt lat="44.93041298026444" lon="12.378686840792456"><ele>-2.0</ele><time>2026-04-19T10:20:30.001Z</time></trkpt><trkpt lat="44.93045421337035" lon="12.378413718355716"><ele>-2.0</ele><time>2026-04-19T10:20:31.001Z</time></trkpt><trkpt lat="44.9304930836687" lon="12.378146017245788"><ele>-2.6666666666666665</ele><time>2026-04-19T10:20:32.001Z</time></trkpt><trkpt lat="44.930531749165354" lon="12.37787614226645"><ele>-3.333333333333333</ele><time>2026-04-19T10:20:33.001Z</time></trkpt><trkpt lat="44.93056958006612" lon="12.377606068816013"><ele>-4.0</ele><time>2026-04-19T10:20:34.001Z</time></trkpt><trkpt lat="44.930608134899025" lon="12.377330827227931"><ele>-4.0</ele><time>2026-04-19T10:20:35.002Z</time></trkpt><trkpt lat="44.930649403412346" lon="12.377048992807874"><ele>-4.0</ele><time>2026-04-19T10:20:36.002Z</time></trkpt><trkpt lat="44.93069315758038" lon="12.376762286096023"><ele>-4.0</ele><time>2026-04-19T10:20:37.002Z</time></trkpt><trkpt lat="44.93074445197738" lon="12.376469814459998"><ele>-3.6666666666666665</ele><time>2026-04-19T10:20:38.002Z</time></trkpt><trkpt lat="44.93080665882629" lon="12.376194678006947"><ele>-3.333333333333333</ele><time>2026-04-19T10:20:39.002Z</time></trkpt><trkpt lat="44.930887875103224" lon="12.375899756535663"><ele>-3.0</ele><time>2026-04-19T10:20:40.002Z</time></trkpt><trkpt lat="44.930970969810915" lon="12.37562157364485"><ele>-2.6666666666666665</ele><time>2026-04-19T10:20:41.002Z</time></trkpt><trkpt lat="44.93105356439904" lon="12.375359961397873"><ele>-2.333333333333333</ele><time>2026-04-19T10:20:42.002Z</time></trkpt><trkpt lat="44.9311365962408" lon="12.375102837502691"><ele>-2.0</ele><time>2026-04-19T10:20:43.002Z</time></trkpt><trkpt lat="44.93122071167338" lon="12.374851472361357"><ele>-2.0</ele><time>2026-04-19T10:20:44.002Z</time></trkpt><trkpt lat="44.931290711029604" lon="12.374596701964895"><ele>-2.0</ele><time>2026-04-19T10:20:45.002Z</time></trkpt><trkpt lat="44.93139637575968" lon="12.37436731307703"><ele>-2.0</ele><time>2026-04-19T10:20:46.002Z</time></trkpt><trkpt lat="44.931497399463275" lon="12.374142743290156"><ele>-2.0</ele><time>2026-04-19T10:20:47.002Z</time></trkpt><trkpt lat="44.93160780683018" lon="12.373923750797738"><ele>-2.0</ele><time>2026-04-19T10:20:48.002Z</time></trkpt><trkpt lat="44.93171716699686" lon="12.373695563042062"><ele>-2.0</ele><time>2026-04-19T10:20:49.002Z</time></trkpt><trkpt lat="44.931846968389856" lon="12.373486985638516"><ele>-2.0</ele><time>2026-04-19T10:20:50.002Z</time></trkpt><trkpt lat="44.9319819188735" lon="12.37328243179528"><ele>-2.0</ele><time>2026-04-19T10:20:51.002Z</time></trkpt><trkpt lat="44.932115084768725" lon="12.373082385961661"><ele>-2.0</ele><time>2026-04-19T10:20:52.002Z</time></trkpt><trkpt lat="44.93224849383494" lon="12.372880599720421"><ele>-2.0</ele><time>2026-04-19T10:20:53.002Z</time></trkpt><trkpt lat="44.9323836480845" lon="12.372673709766225"><ele>-2.0</ele><time>2026-04-19T10:20:54.002Z</time></trkpt><trkpt lat="44.932519352283386" lon="12.372463526008124"><ele>-2.0</ele><time>2026-04-19T10:20:55.002Z</time></trkpt><trkpt lat="44.93265376763182" lon="12.372247357095668"><ele>-2.0</ele><time>2026-04-19T10:20:56.002Z</time></trkpt><trkpt lat="44.932791227838045" lon="12.372024568427378"><ele>-2.0</ele><time>2026-04-19T10:20:57.002Z</time></trkpt><trkpt lat="44.93292679826969" lon="12.371803697323893"><ele>-2.0</ele><time>2026-04-19T10:20:58.002Z</time></trkpt><trkpt lat="44.93305860772683" lon="12.371586821227998"><ele>-2.0</ele><time>2026-04-19T10:20:59.002Z</time></trkpt><trkpt lat="44.93318765420412" lon="12.371373683508027"><ele>-2.0</ele><time>2026-04-19T10:21:00.002Z</time></trkpt><trkpt lat="44.933314630132614" lon="12.37115999534985"><ele>-2.0</ele><time>2026-04-19T10:21:01.002Z</time></trkpt><trkpt lat="44.933439769069054" lon="12.370943836517402"><ele>-2.0</ele><time>2026-04-19T10:21:02.002Z</time></trkpt><trkpt lat="44.93356576499569" lon="12.370722962298245"><ele>-2.0</ele><time>2026-04-19T10:21:03.002Z</time></trkpt><trkpt lat="44.933691020825556" lon="12.370505246772572"><ele>-2.0</ele><time>2026-04-19T10:21:04.002Z</time></trkpt><trkpt lat="44.933801126414586" lon="12.370309629386664"><ele>-2.0</ele><time>2026-04-19T10:21:05.002Z</time></trkpt><trkpt lat="44.933927216304575" lon="12.370101965604343"><ele>-2.0</ele><time>2026-04-19T10:21:06.002Z</time></trkpt><trkpt lat="44.934040640934924" lon="12.369873672303914"><ele>-2.0</ele><time>2026-04-19T10:21:07.002Z</time></trkpt><trkpt lat="44.934166293912575" lon="12.369654828928578"><ele>-2.333333333333333</ele><time>2026-04-19T10:21:08.002Z</time></trkpt><trkpt lat="44.93429397131196" lon="12.369434936368878"><ele>-2.6666666666666665</ele><time>2026-04-19T10:21:09.002Z</time></trkpt><trkpt lat="44.93442202780733" lon="12.369211126203346"><ele>-3.0</ele><time>2026-04-19T10:21:10.002Z</time></trkpt><trkpt lat="44.934547320180634" lon="12.368985369150632"><ele>-3.0</ele><time>2026-04-19T10:21:11.002Z</time></trkpt><trkpt lat="44.9346730490573" lon="12.368758548817569"><ele>-3.0</ele><time>2026-04-19T10:21:12.002Z</time></trkpt><trkpt lat="44.934805390133164" lon="12.36853677568521"><ele>-3.0</ele><time>2026-04-19T10:21:13.002Z</time></trkpt><trkpt lat="44.934930248786124" lon="12.36830277304544"><ele>-3.0</ele><time>2026-04-19T10:21:14.002Z</time></trkpt><trkpt lat="44.9350610399029" lon="12.368076697886156"><ele>-3.0</ele><time>2026-04-19T10:21:15.002Z</time></trkpt><trkpt lat="44.935192252497224" lon="12.367851097749668"><ele>-3.0</ele><time>2026-04-19T10:21:16.002Z</time></trkpt><trkpt lat="44.93532342267872" lon="12.367625426880945"><ele>-3.0</ele><time>2026-04-19T10:21:17.002Z</time></trkpt><trkpt lat="44.9354528588328" lon="12.367397145807008"><ele>-3.0</ele><time>2026-04-19T10:21:18.002Z</time></trkpt><trkpt lat="44.935579947091185" lon="12.367166185158766"><ele>-3.0</ele><time>2026-04-19T10:21:19.002Z</time></trkpt><trkpt lat="44.93570708301152" lon="12.366937649555984"><ele>-3.0</ele><time>2026-04-19T10:21:20.003Z</time></trkpt><trkpt lat="44.935841030627074" lon="12.366720704749675"><ele>-3.0</ele><time>2026-04-19T10:21:21.003Z</time></trkpt><trkpt lat="44.93598122362193" lon="12.366520639814839"><ele>-3.0</ele><time>2026-04-19T10:21:22.003Z</time></trkpt><trkpt lat="44.93612617131832" lon="12.366336498785708"><ele>-3.0</ele><time>2026-04-19T10:21:23.003Z</time></trkpt><trkpt lat="44.93627901260317" lon="12.36617104088685"><ele>-3.0</ele><time>2026-04-19T10:21:24.003Z</time></trkpt><trkpt lat="44.936443456435306" lon="12.366019912956647"><ele>-3.0</ele><time>2026-04-19T10:21:25.003Z</time></trkpt><trkpt lat="44.93661311144592" lon="12.365880310010333"><ele>-3.0</ele><time>2026-04-19T10:21:26.001Z</time></trkpt><trkpt lat="44.93678354187864" lon="12.365738362866923"><ele>-3.0</ele><time>2026-04-19T10:21:27.001Z</time></trkpt><trkpt lat="44.93695856225434" lon="12.365590873680754"><ele>-3.0</ele><time>2026-04-19T10:21:28.001Z</time></trkpt><trkpt lat="44.93713592067186" lon="12.365439211217478"><ele>-3.0</ele><time>2026-04-19T10:21:29.001Z</time></trkpt><trkpt lat="44.93731141815233" lon="12.365289835507806"><ele>-3.0</ele><time>2026-04-19T10:21:30.001Z</time></trkpt><trkpt lat="44.93748603295414" lon="12.365140697817722"><ele>-3.0</ele><time>2026-04-19T10:21:31.001Z</time></trkpt><trkpt lat="44.937663490614945" lon="12.364990225606652"><ele>-2.6666666666666665</ele><time>2026-04-19T10:21:32.001Z</time></trkpt><trkpt lat="44.93783822284276" lon="12.364842206289662"><ele>-2.333333333333333</ele><time>2026-04-19T10:21:33.001Z</time></trkpt><trkpt lat="44.93801843709418" lon="12.364688724041462"><ele>-2.0</ele><time>2026-04-19T10:21:34.001Z</time></trkpt><trkpt lat="44.93819927066936" lon="12.36453673849236"><ele>-2.0</ele><time>2026-04-19T10:21:35.001Z</time></trkpt><trkpt lat="44.938374924847615" lon="12.364389095728916"><ele>-2.0</ele><time>2026-04-19T10:21:36.001Z</time></trkpt><trkpt lat="44.938548786765736" lon="12.364241478630815"><ele>-2.0</ele><time>2026-04-19T10:21:37.001Z</time></trkpt><trkpt lat="44.93871978100922" lon="12.364098933003289"><ele>-2.333333333333333</ele><time>2026-04-19T10:21:38.001Z</time></trkpt><trkpt lat="44.93888741359583" lon="12.363956664190539"><ele>-2.6666666666666665</ele><time>2026-04-19T10:21:39.001Z</time></trkpt><trkpt lat="44.93905010710557" lon="12.363816825022983"><ele>-3.0</ele><time>2026-04-19T10:21:40.001Z</time></trkpt><trkpt lat="44.93921407510366" lon="12.363676037513546"><ele>-2.6666666666666665</ele><time>2026-04-19T10:21:41.001Z</time></trkpt><trkpt lat="44.939379670290464" lon="12.36353466842481"><ele>-2.333333333333333</ele><time>2026-04-19T10:21:42.001Z</time></trkpt><trkpt lat="44.939543023605765" lon="12.363400255744718"><ele>-2.0</ele><time>2026-04-19T10:21:43.001Z</time></trkpt><trkpt lat="44.939706530732266" lon="12.363264754472212"><ele>-2.0</ele><time>2026-04-19T10:21:44.001Z</time></trkpt><trkpt lat="44.9398722022164" lon="12.363127830181691"><ele>-2.0</ele><time>2026-04-19T10:21:45.001Z</time></trkpt><trkpt lat="44.9400381486894" lon="12.362990853992875"><ele>-2.0</ele><time>2026-04-19T10:21:46.001Z</time></trkpt><trkpt lat="44.94020312927389" lon="12.362851187477922"><ele>-2.333333333333333</ele><time>2026-04-19T10:21:47.001Z</time></trkpt><trkpt lat="44.94036680474056" lon="12.362713882801764"><ele>-2.6666666666666665</ele><time>2026-04-19T10:21:48.001Z</time></trkpt><trkpt lat="44.94053025226342" lon="12.362577485081664"><ele>-3.0</ele><time>2026-04-19T10:21:49.001Z</time></trkpt><trkpt lat="44.94069552047857" lon="12.362441949697596"><ele>-3.0</ele><time>2026-04-19T10:21:50.001Z</time></trkpt><trkpt lat="44.940859950417014" lon="12.362305846691937"><ele>-3.0</ele><time>2026-04-19T10:21:51.001Z</time></trkpt><trkpt lat="44.94102411140425" lon="12.362168981195298"><ele>-3.0</ele><time>2026-04-19T10:21:52.001Z</time></trkpt><trkpt lat="44.941191918335974" lon="12.362037073260625"><ele>-2.6666666666666665</ele><time>2026-04-19T10:21:53.001Z</time></trkpt><trkpt lat="44.941365591362505" lon="12.361903681519788"><ele>-2.333333333333333</ele><time>2026-04-19T10:21:54.001Z</time></trkpt><trkpt lat="44.94154019661948" lon="12.361772297173472"><ele>-2.0</ele><time>2026-04-19T10:21:55.001Z</time></trkpt><trkpt lat="44.94171198835207" lon="12.361646710411305"><ele>-2.0</ele><time>2026-04-19T10:21:56.001Z</time></trkpt><trkpt lat="44.941882058273904" lon="12.361519822353161"><ele>-2.0</ele><time>2026-04-19T10:21:57.001Z</time></trkpt><trkpt lat="44.942053407525805" lon="12.361396059941812"><ele>-2.0</ele><time>2026-04-19T10:21:58.001Z</time></trkpt><trkpt lat="44.942227861440486" lon="12.361276803567026"><ele>-2.0</ele><time>2026-04-19T10:21:59.001Z</time></trkpt><trkpt lat="44.9424060781571" lon="12.361167629228603"><ele>-2.0</ele><time>2026-04-19T10:22:00.001Z</time></trkpt><trkpt lat="44.94258939824581" lon="12.361072028104878"><ele>-2.0</ele><time>2026-04-19T10:22:01.001Z</time></trkpt><trkpt lat="44.94277801839422" lon="12.360992920930286"><ele>-2.0</ele><time>2026-04-19T10:22:02.001Z</time></trkpt><trkpt lat="44.94297051430693" lon="12.360931176018696"><ele>-2.0</ele><time>2026-04-19T10:22:03.001Z</time></trkpt><trkpt lat="44.943169883090434" lon="12.360888365700283"><ele>-2.0</ele><time>2026-04-19T10:22:04.001Z</time></trkpt><trkpt lat="44.9433740439972" lon="12.360861084511638"><ele>-2.333333333333333</ele><time>2026-04-19T10:22:05.001Z</time></trkpt><trkpt lat="44.94357985392922" lon="12.360849315387954"><ele>-2.6666666666666665</ele><time>2026-04-19T10:22:06.001Z</time></trkpt><trkpt lat="44.943789121335534" lon="12.36084700733428"><ele>-3.0</ele><time>2026-04-19T10:22:07.001Z</time></trkpt><trkpt lat="44.944001399930755" lon="12.360852969462831"><ele>-2.3333333333333335</ele><time>2026-04-19T10:22:08.001Z</time></trkpt><trkpt lat="44.94421624345581" lon="12.360865892543105"><ele>-1.6666666666666665</ele><time>2026-04-19T10:22:09.001Z</time></trkpt><trkpt lat="44.94443159323298" lon="12.36087761075586"><ele>-1.0</ele><time>2026-04-19T10:22:10.001Z</time></trkpt><trkpt lat="44.94464860877791" lon="12.36088564644416"><ele>-1.0</ele><time>2026-04-19T10:22:11.001Z</time></trkpt><trkpt lat="44.94486471399281" lon="12.360893152142665"><ele>-1.0</ele><time>2026-04-19T10:22:12.001Z</time></trkpt><trkpt lat="44.94507607779554" lon="12.360900463344969"><ele>-1.0</ele><time>2026-04-19T10:22:13.001Z</time></trkpt><trkpt lat="44.945283020608855" lon="12.360907493076006"><ele>-1.3333333333333333</ele><time>2026-04-19T10:22:14.001Z</time></trkpt><trkpt lat="44.94548296980311" lon="12.36091519536823"><ele>-1.6666666666666665</ele><time>2026-04-19T10:22:15.001Z</time></trkpt><trkpt lat="44.94567100677542" lon="12.360921980777217"><ele>-2.0</ele><time>2026-04-19T10:22:16.001Z</time></trkpt><trkpt lat="44.945846913824866" lon="12.360926606461227"><ele>-2.6666666666666665</ele><time>2026-04-19T10:22:17.001Z</time></trkpt><trkpt lat="44.946013664942285" lon="12.360932122787439"><ele>-3.333333333333333</ele><time>2026-04-19T10:22:18.001Z</time></trkpt><trkpt lat="44.94617556623556" lon="12.360937866570103"><ele>-4.0</ele><time>2026-04-19T10:22:19.001Z</time></trkpt><trkpt lat="44.94634258695084" lon="12.360945297175425"><ele>-4.0</ele><time>2026-04-19T10:22:20.001Z</time></trkpt><trkpt lat="44.94651256671795" lon="12.360952597240917"><ele>-4.0</ele><time>2026-04-19T10:22:21.001Z</time></trkpt><trkpt lat="44.94668816992714" lon="12.360960129437817"><ele>-4.0</ele><time>2026-04-19T10:22:22.001Z</time></trkpt><trkpt lat="44.94687191692521" lon="12.360969125540741"><ele>-4.0</ele><time>2026-04-19T10:22:23.001Z</time></trkpt><trkpt lat="44.947063288232975" lon="12.360981167337611"><ele>-4.0</ele><time>2026-04-19T10:22:24.002Z</time></trkpt><trkpt lat="44.94726169406433" lon="12.360999579522025"><ele>-4.0</ele><time>2026-04-19T10:22:25.002Z</time></trkpt><trkpt lat="44.94746316699857" lon="12.361025897069545"><ele>-3.6666666666666665</ele><time>2026-04-19T10:22:26.002Z</time></trkpt><trkpt lat="44.94766710126108" lon="12.361065537975918"><ele>-3.333333333333333</ele><time>2026-04-19T10:22:27.002Z</time></trkpt><trkpt lat="44.94786527836428" lon="12.3611097328291"><ele>-3.0</ele><time>2026-04-19T10:22:28.002Z</time></trkpt><trkpt lat="44.94805024390627" lon="12.361156531426587"><ele>-3.0</ele><time>2026-04-19T10:22:29.002Z</time></trkpt><trkpt lat="44.9482367830816" lon="12.361207024904019"><ele>-3.0</ele><time>2026-04-19T10:22:30.002Z</time></trkpt><trkpt lat="44.94842417220071" lon="12.361256770552743"><ele>-3.0</ele><time>2026-04-19T10:22:31.002Z</time></trkpt><trkpt lat="44.94861072644893" lon="12.361303343998944"><ele>-3.333333333333333</ele><time>2026-04-19T10:22:32.002Z</time></trkpt><trkpt lat="44.94879391264561" lon="12.361336630691898"><ele>-3.6666666666666665</ele><time>2026-04-19T10:22:33.002Z</time></trkpt><trkpt lat="44.9489761104679" lon="12.361346316045768"><ele>-4.0</ele><time>2026-04-19T10:22:34.002Z</time></trkpt><trkpt lat="44.949157946923606" lon="12.361327531378064"><ele>-3.6666666666666665</ele><time>2026-04-19T10:22:35.002Z</time></trkpt><trkpt lat="44.94934207194777" lon="12.361282640078121"><ele>-3.333333333333333</ele><time>2026-04-19T10:22:36.002Z</time></trkpt><trkpt lat="44.94953216660668" lon="12.361220506783667"><ele>-3.0</ele><time>2026-04-19T10:22:37.002Z</time></trkpt><trkpt lat="44.94972565021637" lon="12.361144084102236"><ele>-3.0</ele><time>2026-04-19T10:22:38.002Z</time></trkpt><trkpt lat="44.949921213455596" lon="12.36104799075929"><ele>-3.0</ele><time>2026-04-19T10:22:39.002Z</time></trkpt><trkpt lat="44.950114797309546" lon="12.360937392238615"><ele>-3.0</ele><time>2026-04-19T10:22:40.002Z</time></trkpt><trkpt lat="44.950300822931126" lon="12.360819749838445"><ele>-3.0</ele><time>2026-04-19T10:22:41.002Z</time></trkpt><trkpt lat="44.95047135540646" lon="12.36069734677027"><ele>-3.0</ele><time>2026-04-19T10:22:42.002Z</time></trkpt><trkpt lat="44.95064583939264" lon="12.360573217223099"><ele>-3.0</ele><time>2026-04-19T10:22:43.002Z</time></trkpt><trkpt lat="44.95081967763903" lon="12.36043930058752"><ele>-3.333333333333333</ele><time>2026-04-19T10:22:44.002Z</time></trkpt><trkpt lat="44.9509892977023" lon="12.360301168756243"><ele>-3.6666666666666665</ele><time>2026-04-19T10:22:45.002Z</time></trkpt><trkpt lat="44.951158652348376" lon="12.360161523626793"><ele>-4.0</ele><time>2026-04-19T10:22:46.002Z</time></trkpt><trkpt lat="44.951329141935396" lon="12.360017010819726"><ele>-4.0</ele><time>2026-04-19T10:22:47.002Z</time></trkpt><trkpt lat="44.951486612052875" lon="12.359880762577475"><ele>-4.0</ele><time>2026-04-19T10:22:48.002Z</time></trkpt><trkpt lat="44.951632892342104" lon="12.359754314078513"><ele>-4.0</ele><time>2026-04-19T10:22:49.002Z</time></trkpt><trkpt lat="44.95178007859244" lon="12.359623274359985"><ele>-3.75</ele><time>2026-04-19T10:22:50.002Z</time></trkpt><trkpt lat="44.95191210685786" lon="12.359508875135361"><ele>-3.5</ele><time>2026-04-19T10:22:51.002Z</time></trkpt><trkpt lat="44.952029080435864" lon="12.359409511460345"><ele>-3.25</ele><time>2026-04-19T10:22:52.002Z</time></trkpt><trkpt lat="44.95213905568719" lon="12.35931605186565"><ele>-3.0</ele><time>2026-04-19T10:22:53.002Z</time></trkpt><trkpt lat="44.9522482437085" lon="12.35922064596114"><ele>-3.0</ele><time>2026-04-19T10:22:54.002Z</time></trkpt><trkpt lat="44.95234912128783" lon="12.35913783653191"><ele>-3.0</ele><time>2026-04-19T10:22:55.002Z</time></trkpt><trkpt lat="44.95244469807471" lon="12.359061870517822"><ele>-3.0</ele><time>2026-04-19T10:22:56.002Z</time></trkpt><trkpt lat="44.95253103493095" lon="12.358992384021743"><ele>-3.0</ele><time>2026-04-19T10:22:57.002Z</time></trkpt><trkpt lat="44.952612046420406" lon="12.35893019434421"><ele>-3.0</ele><time>2026-04-19T10:22:58.002Z</time></trkpt><trkpt lat="44.95269150534893" lon="12.358874734860017"><ele>-3.0</ele><time>2026-04-19T10:22:59.002Z</time></trkpt><trkpt lat="44.95276856217301" lon="12.358824614182389"><ele>-3.0</ele><time>2026-04-19T10:23:00.002Z</time></trkpt><trkpt lat="44.95283057853599" lon="12.35878028844301"><ele>-3.0</ele><time>2026-04-19T10:23:01.002Z</time></trkpt><trkpt lat="44.95296828316979" lon="12.358883891125643"><ele>-3.0</ele><time>2026-04-19T10:23:03.002Z</time></trkpt><trkpt lat="44.953009001754765" lon="12.358974987223348"><ele>-3.0</ele><time>2026-04-19T10:23:04.002Z</time></trkpt><trkpt lat="44.95302865636838" lon="12.359107497089678"><ele>-3.0</ele><time>2026-04-19T10:23:05.002Z</time></trkpt><trkpt lat="44.95301457766488" lon="12.359287130298394"><ele>-3.0</ele><time>2026-04-19T10:23:06.002Z</time></trkpt><trkpt lat="44.95300594587081" lon="12.35952189723605"><ele>-3.0</ele><time>2026-04-19T10:23:07.002Z</time></trkpt><trkpt lat="44.95299845323403" lon="12.359752963795275"><ele>-2.6666666666666665</ele><time>2026-04-19T10:23:08.002Z</time></trkpt><trkpt lat="44.95298926397337" lon="12.359990806133222"><ele>-2.333333333333333</ele><time>2026-04-19T10:23:09.002Z</time></trkpt><trkpt lat="44.95301151583957" lon="12.360206966841224"><ele>-2.0</ele><time>2026-04-19T10:23:10.002Z</time></trkpt><trkpt lat="44.9530466554916" lon="12.360412332175871"><ele>-2.0</ele><time>2026-04-19T10:23:11.002Z</time></trkpt><trkpt lat="44.95311581614738" lon="12.360597708394451"><ele>-2.0</ele><time>2026-04-19T10:23:12.003Z</time></trkpt><trkpt lat="44.95320304001034" lon="12.360768376681072"><ele>-2.0</ele><time>2026-04-19T10:23:13.003Z</time></trkpt><trkpt lat="44.95330461535198" lon="12.360901981788635"><ele>-2.0</ele><time>2026-04-19T10:23:14.003Z</time></trkpt><trkpt lat="44.9534275170681" lon="12.361001457604846"><ele>-1.6666666666666665</ele><time>2026-04-19T10:23:15.003Z</time></trkpt><trkpt lat="44.95357083030477" lon="12.361088308567727"><ele>-1.3333333333333333</ele><time>2026-04-19T10:23:16.003Z</time></trkpt><trkpt lat="44.953728661528" lon="12.361140061509406"><ele>-1.0</ele><time>2026-04-19T10:23:17.003Z</time></trkpt><trkpt lat="44.95389634460049" lon="12.361162601383171"><ele>-1.0</ele><time>2026-04-19T10:23:18.003Z</time></trkpt><trkpt lat="44.95407730582401" lon="12.361161924169522"><ele>-1.0</ele><time>2026-04-19T10:23:19.003Z</time></trkpt><trkpt lat="44.95425278828247" lon="12.36116157723839"><ele>-1.0</ele><time>2026-04-19T10:23:20.003Z</time></trkpt><trkpt lat="44.95442021737311" lon="12.361176963430717"><ele>-0.6666666666666666</ele><time>2026-04-19T10:23:21.003Z</time></trkpt><trkpt lat="44.95458010754633" lon="12.361196442489323"><ele>-0.3333333333333333</ele><time>2026-04-19T10:23:22.003Z</time></trkpt><trkpt lat="44.954745289732244" lon="12.361207974762339"><ele>0.0</ele><time>2026-04-19T10:23:23.003Z</time></trkpt><trkpt lat="44.95491388975474" lon="12.361219391085514"><ele>0.0</ele><time>2026-04-19T10:23:24.003Z</time></trkpt><trkpt lat="44.95508828000161" lon="12.361233976523074"><ele>0.0</ele><time>2026-04-19T10:23:25.003Z</time></trkpt><trkpt lat="44.955268828184764" lon="12.36124528548345"><ele>0.0</ele><time>2026-04-19T10:23:26.003Z</time></trkpt><trkpt lat="44.95544546524035" lon="12.361266457747083"><ele>0.0</ele><time>2026-04-19T10:23:27.003Z</time></trkpt><trkpt lat="44.95562298438037" lon="12.361278564929183"><ele>0.0</ele><time>2026-04-19T10:23:28.003Z</time></trkpt><trkpt lat="44.955805490407" lon="12.36129300228437"><ele>0.0</ele><time>2026-04-19T10:23:29.003Z</time></trkpt><trkpt lat="44.95598806772583" lon="12.361309965904345"><ele>0.0</ele><time>2026-04-19T10:23:30.003Z</time></trkpt><trkpt lat="44.95617049625095" lon="12.361326902450333"><ele>0.0</ele><time>2026-04-19T10:23:31.003Z</time></trkpt><trkpt lat="44.95634956282866" lon="12.36134524260009"><ele>0.0</ele><time>2026-04-19T10:23:32.001Z</time></trkpt><trkpt lat="44.95653798781249" lon="12.361362198190438"><ele>0.0</ele><time>2026-04-19T10:23:33.001Z</time></trkpt><trkpt lat="44.95672886846061" lon="12.361379120844063"><ele>0.0</ele><time>2026-04-19T10:23:34.001Z</time></trkpt><trkpt lat="44.95692148018589" lon="12.361394221762502"><ele>0.0</ele><time>2026-04-19T10:23:35.001Z</time></trkpt><trkpt lat="44.95711794177498" lon="12.36141152958479"><ele>0.0</ele><time>2026-04-19T10:23:36.001Z</time></trkpt><trkpt lat="44.95731752506073" lon="12.361429884274902"><ele>0.0</ele><time>2026-04-19T10:23:37.001Z</time></trkpt><trkpt lat="44.957522319096206" lon="12.361448484804873"><ele>0.0</ele><time>2026-04-19T10:23:38.001Z</time></trkpt><trkpt lat="44.95773232930167" lon="12.36146956965167"><ele>-1.0</ele><time>2026-04-19T10:23:39.001Z</time></trkpt><trkpt lat="44.95794836909845" lon="12.361489145822992"><ele>-2.0</ele><time>2026-04-19T10:23:40.001Z</time></trkpt><trkpt lat="44.95815741347845" lon="12.36150838793181"><ele>-3.0</ele><time>2026-04-19T10:23:41.001Z</time></trkpt><trkpt lat="44.9583589594713" lon="12.361524719384086"><ele>-2.3333333333333335</ele><time>2026-04-19T10:23:42.001Z</time></trkpt><trkpt lat="44.95855820343133" lon="12.36154063957838"><ele>-1.6666666666666665</ele><time>2026-04-19T10:23:43.001Z</time></trkpt><trkpt lat="44.958760667670994" lon="12.361557027388038"><ele>-1.0</ele><time>2026-04-19T10:23:44.001Z</time></trkpt><trkpt lat="44.95896598348837" lon="12.361573716620168"><ele>-1.0</ele><time>2026-04-19T10:23:45.001Z</time></trkpt><trkpt lat="44.95917293865528" lon="12.36159160413658"><ele>-1.0</ele><time>2026-04-19T10:23:46.001Z</time></trkpt><trkpt lat="44.959379518813954" lon="12.361610991085405"><ele>-1.0</ele><time>2026-04-19T10:23:47.001Z</time></trkpt><trkpt lat="44.959583755450005" lon="12.361630510339767"><ele>-1.0</ele><time>2026-04-19T10:23:48.001Z</time></trkpt><trkpt lat="44.959790712978126" lon="12.361651447385679"><ele>-1.0</ele><time>2026-04-19T10:23:49.001Z</time></trkpt><trkpt lat="44.9599886973204" lon="12.361669144625498"><ele>-1.0</ele><time>2026-04-19T10:23:50.001Z</time></trkpt><trkpt lat="44.96019314230915" lon="12.36168922752408"><ele>-1.3333333333333333</ele><time>2026-04-19T10:23:51.001Z</time></trkpt><trkpt lat="44.96039619953266" lon="12.361709054823573"><ele>-1.6666666666666665</ele><time>2026-04-19T10:23:52.001Z</time></trkpt><trkpt lat="44.96060194088564" lon="12.361725453236822"><ele>-2.0</ele><time>2026-04-19T10:23:53.001Z</time></trkpt><trkpt lat="44.96081227644851" lon="12.361742956057531"><ele>-2.333333333333333</ele><time>2026-04-19T10:23:54.001Z</time></trkpt><trkpt lat="44.961019639225675" lon="12.361761939061614"><ele>-2.6666666666666665</ele><time>2026-04-19T10:23:55.001Z</time></trkpt><trkpt lat="44.961223208775124" lon="12.36177790995603"><ele>-3.0</ele><time>2026-04-19T10:23:56.001Z</time></trkpt><trkpt lat="44.96142886122725" lon="12.361791419190123"><ele>-3.0</ele><time>2026-04-19T10:23:57.001Z</time></trkpt><trkpt lat="44.961632385153045" lon="12.361811674680188"><ele>-3.0</ele><time>2026-04-19T10:23:58.001Z</time></trkpt><trkpt lat="44.96183511808534" lon="12.361830959878825"><ele>-3.0</ele><time>2026-04-19T10:23:59.001Z</time></trkpt><trkpt lat="44.96203195504408" lon="12.361849299180708"><ele>-3.333333333333333</ele><time>2026-04-19T10:24:00.001Z</time></trkpt><trkpt lat="44.96222807616073" lon="12.361866653205295"><ele>-3.6666666666666665</ele><time>2026-04-19T10:24:01.001Z</time></trkpt><trkpt lat="44.96243177224551" lon="12.361884357707243"><ele>-4.0</ele><time>2026-04-19T10:24:02.001Z</time></trkpt><trkpt lat="44.96264446734902" lon="12.361899096093797"><ele>-4.333333333333333</ele><time>2026-04-19T10:24:03.001Z</time></trkpt><trkpt lat="44.962855549786646" lon="12.361917455213991"><ele>-4.666666666666667</ele><time>2026-04-19T10:24:04.001Z</time></trkpt><trkpt lat="44.96307425292518" lon="12.361938723365386"><ele>-5.0</ele><time>2026-04-19T10:24:05.001Z</time></trkpt><trkpt lat="44.9632943060477" lon="12.361959532262743"><ele>-5.0</ele><time>2026-04-19T10:24:06.001Z</time></trkpt><trkpt lat="44.96351981943407" lon="12.361982587762643"><ele>-5.0</ele><time>2026-04-19T10:24:07.001Z</time></trkpt><trkpt lat="44.96374453508412" lon="12.362002593241996"><ele>-5.0</ele><time>2026-04-19T10:24:08.001Z</time></trkpt><trkpt lat="44.96396886174229" lon="12.36202342941736"><ele>-5.0</ele><time>2026-04-19T10:24:09.001Z</time></trkpt><trkpt lat="44.96419319107434" lon="12.362041982349597"><ele>-5.0</ele><time>2026-04-19T10:24:10.001Z</time></trkpt><trkpt lat="44.96441534457752" lon="12.362062091127912"><ele>-5.0</ele><time>2026-04-19T10:24:11.001Z</time></trkpt><trkpt lat="44.96464159002448" lon="12.362084752699175"><ele>-5.0</ele><time>2026-04-19T10:24:12.001Z</time></trkpt><trkpt lat="44.96486709310036" lon="12.362105178863708"><ele>-4.666666666666667</ele><time>2026-04-19T10:24:13.001Z</time></trkpt><trkpt lat="44.965089358795005" lon="12.362127570077472"><ele>-4.333333333333333</ele><time>2026-04-19T10:24:14.001Z</time></trkpt><trkpt lat="44.965312297400956" lon="12.362146079457784"><ele>-4.0</ele><time>2026-04-19T10:24:15.001Z</time></trkpt><trkpt lat="44.96553450747969" lon="12.362166300929825"><ele>-4.0</ele><time>2026-04-19T10:24:16.001Z</time></trkpt><trkpt lat="44.96575289829063" lon="12.36218517241753"><ele>-4.0</ele><time>2026-04-19T10:24:17.001Z</time></trkpt><trkpt lat="44.96597039599081" lon="12.362205494978067"><ele>-4.0</ele><time>2026-04-19T10:24:18.001Z</time></trkpt><trkpt lat="44.96618827732692" lon="12.362223449995401"><ele>-4.0</ele><time>2026-04-19T10:24:19.001Z</time></trkpt><trkpt lat="44.966407229367476" lon="12.362243859580097"><ele>-4.0</ele><time>2026-04-19T10:24:20.001Z</time></trkpt><trkpt lat="44.96662738250849" lon="12.36225826988974"><ele>-4.0</ele><time>2026-04-19T10:24:21.001Z</time></trkpt><trkpt lat="44.96684189764054" lon="12.362277885994725"><ele>-3.6666666666666665</ele><time>2026-04-19T10:24:22.001Z</time></trkpt><trkpt lat="44.96705649820045" lon="12.362295400805658"><ele>-3.333333333333333</ele><time>2026-04-19T10:24:23.001Z</time></trkpt><trkpt lat="44.96727240309299" lon="12.362313962981743"><ele>-3.0</ele><time>2026-04-19T10:24:24.001Z</time></trkpt><trkpt lat="44.967488356256865" lon="12.362333137114854"><ele>-3.0</ele><time>2026-04-19T10:24:25.001Z</time></trkpt><trkpt lat="44.96770587763616" lon="12.362352558252194"><ele>-3.0</ele><time>2026-04-19T10:24:26.001Z</time></trkpt><trkpt lat="44.96792854317957" lon="12.362395414506848"><ele>-3.0</ele><time>2026-04-19T10:24:27.001Z</time></trkpt><trkpt lat="44.96815178617062" lon="12.3624154860277"><ele>-3.333333333333333</ele><time>2026-04-19T10:24:28.001Z</time></trkpt><trkpt lat="44.96837324797533" lon="12.362435397427774"><ele>-3.6666666666666665</ele><time>2026-04-19T10:24:29.001Z</time></trkpt><trkpt lat="44.96859145446549" lon="12.362435282294792"><ele>-4.0</ele><time>2026-04-19T10:24:30.001Z</time></trkpt><trkpt lat="44.968805082900424" lon="12.362452452798294"><ele>-4.0</ele><time>2026-04-19T10:24:31.001Z</time></trkpt><trkpt lat="44.96901567578675" lon="12.36247112103554"><ele>-4.0</ele><time>2026-04-19T10:24:32.001Z</time></trkpt><trkpt lat="44.969224365974185" lon="12.36248911645994"><ele>-4.0</ele><time>2026-04-19T10:24:33.001Z</time></trkpt><trkpt lat="44.969425963501656" lon="12.362531046018601"><ele>-4.0</ele><time>2026-04-19T10:24:34.001Z</time></trkpt><trkpt lat="44.9696276233625" lon="12.362528741525642"><ele>-4.0</ele><time>2026-04-19T10:24:35.002Z</time></trkpt><trkpt lat="44.96981953301468" lon="12.362567452886989"><ele>-4.0</ele><time>2026-04-19T10:24:36.002Z</time></trkpt><trkpt lat="44.97000503986152" lon="12.362584613077754"><ele>-4.0</ele><time>2026-04-19T10:24:37.002Z</time></trkpt><trkpt lat="44.97018297079629" lon="12.362600791165937"><ele>-4.0</ele><time>2026-04-19T10:24:38.002Z</time></trkpt><trkpt lat="44.970354054843774" lon="12.362616309581083"><ele>-4.0</ele><time>2026-04-19T10:24:39.002Z</time></trkpt><trkpt lat="44.97052325450918" lon="12.362631657078316"><ele>-4.0</ele><time>2026-04-19T10:24:40.002Z</time></trkpt><trkpt lat="44.97068990861737" lon="12.362646775622164"><ele>-4.0</ele><time>2026-04-19T10:24:41.002Z</time></trkpt><trkpt lat="44.97085562130315" lon="12.362639546569298"><ele>-4.0</ele><time>2026-04-19T10:24:42.002Z</time></trkpt><trkpt lat="44.97100732169285" lon="12.362654488700294"><ele>-3.5</ele><time>2026-04-19T10:24:43.002Z</time></trkpt><trkpt lat="44.97115013341146" lon="12.362688520976207"><ele>-3.0</ele><time>2026-04-19T10:24:44.002Z</time></trkpt><trkpt lat="44.971282997150915" lon="12.36270057253542"><ele>-2.5</ele><time>2026-04-19T10:24:45.002Z</time></trkpt><trkpt lat="44.97140769114023" lon="12.362696115458967"><ele>-2.0</ele><time>2026-04-19T10:24:46.002Z</time></trkpt><trkpt lat="44.97152523648228" lon="12.362723366497594"><ele>-1.9999999999999998</ele><time>2026-04-19T10:24:47.002Z</time></trkpt><trkpt lat="44.971626221172535" lon="12.362752138407735"><ele>-2.0</ele><time>2026-04-19T10:24:48.002Z</time></trkpt><trkpt lat="44.971706797052285" lon="12.362788729784707"><ele>-2.0</ele><time>2026-04-19T10:24:49.002Z</time></trkpt><trkpt lat="44.9717717080836" lon="12.36282007310504"><ele>-2.0</ele><time>2026-04-19T10:24:50.002Z</time></trkpt><trkpt lat="44.971852668095416" lon="12.362818436858152"><ele>-1.9999999999999998</ele><time>2026-04-19T10:24:52.002Z</time></trkpt><trkpt lat="44.97193386344638" lon="12.362745423341659"><ele>-2.0</ele><time>2026-04-19T10:24:54.002Z</time></trkpt><trkpt lat="44.97198967669818" lon="12.36253056901307"><ele>-2.333333333333333</ele><time>2026-04-19T10:24:56.002Z</time></trkpt><trkpt lat="44.97198717699598" lon="12.362374174169846"><ele>-2.6666666666666665</ele><time>2026-04-19T10:24:57.002Z</time></trkpt><trkpt lat="44.97198850830583" lon="12.36215926071145"><ele>-3.0</ele><time>2026-04-19T10:24:58.002Z</time></trkpt><trkpt lat="44.97199174299188" lon="12.36184437723336"><ele>-3.0</ele><time>2026-04-19T10:24:59.002Z</time></trkpt><trkpt lat="44.97200930495416" lon="12.36155916504232"><ele>-3.0</ele><time>2026-04-19T10:25:00.002Z</time></trkpt><trkpt lat="44.971941941456286" lon="12.361213893326115"><ele>-3.333333333333333</ele><time>2026-04-19T10:25:01.002Z</time></trkpt><trkpt lat="44.971929109998754" lon="12.360883220671482"><ele>-3.6666666666666665</ele><time>2026-04-19T10:25:02.002Z</time></trkpt><trkpt lat="44.971933877776834" lon="12.360585316275682"><ele>-4.0</ele><time>2026-04-19T10:25:03.002Z</time></trkpt><trkpt lat="44.97192582047928" lon="12.360305449256987"><ele>-4.0</ele><time>2026-04-19T10:25:04.002Z</time></trkpt><trkpt lat="44.97191697500868" lon="12.359998204724574"><ele>-4.0</ele><time>2026-04-19T10:25:05.002Z</time></trkpt><trkpt lat="44.97190919715419" lon="12.359728043921246"><ele>-4.0</ele><time>2026-04-19T10:25:06.002Z</time></trkpt><trkpt lat="44.971900774296714" lon="12.359436574766942"><ele>-4.0</ele><time>2026-04-19T10:25:07.002Z</time></trkpt><trkpt lat="44.97189133253882" lon="12.359110585682046"><ele>-4.0</ele><time>2026-04-19T10:25:08.002Z</time></trkpt><trkpt lat="44.97188075185919" lon="12.358750771920356"><ele>-5.0</ele><time>2026-04-19T10:25:09.002Z</time></trkpt><trkpt lat="44.9718559408732" lon="12.358430017334241"><ele>-6.0</ele><time>2026-04-19T10:25:10.002Z</time></trkpt><trkpt lat="44.971848433476325" lon="12.358094900988515"><ele>-5.5</ele><time>2026-04-19T10:25:11.002Z</time></trkpt><trkpt lat="44.971836575857964" lon="12.35773939266717"><ele>-5.0</ele><time>2026-04-19T10:25:12.002Z</time></trkpt><trkpt lat="44.97182667307454" lon="12.357422395516123"><ele>-5.0</ele><time>2026-04-19T10:25:13.002Z</time></trkpt><trkpt lat="44.97181745287173" lon="12.357122764107503"><ele>-5.0</ele><time>2026-04-19T10:25:14.002Z</time></trkpt><trkpt lat="44.97180846628662" lon="12.356823215286173"><ele>-5.0</ele><time>2026-04-19T10:25:15.002Z</time></trkpt><trkpt lat="44.97180071850097" lon="12.356510414290183"><ele>-5.333333333333334</ele><time>2026-04-19T10:25:16.002Z</time></trkpt><trkpt lat="44.97179383307793" lon="12.356191248633506"><ele>-5.666666666666667</ele><time>2026-04-19T10:25:17.002Z</time></trkpt><trkpt lat="44.97178571615839" lon="12.355877988158756"><ele>-6.0</ele><time>2026-04-19T10:25:18.002Z</time></trkpt><trkpt lat="44.97177658960393" lon="12.355580950865258"><ele>-6.0</ele><time>2026-04-19T10:25:19.002Z</time></trkpt><trkpt lat="44.97176837429797" lon="12.355279500307558"><ele>-6.0</ele><time>2026-04-19T10:25:20.002Z</time></trkpt><trkpt lat="44.97175898644968" lon="12.354979142481207"><ele>-6.0</ele><time>2026-04-19T10:25:21.002Z</time></trkpt><trkpt lat="44.97175104039755" lon="12.354682607085971"><ele>-5.666666666666667</ele><time>2026-04-19T10:25:22.002Z</time></trkpt><trkpt lat="44.97174291353707" lon="12.354382983486152"><ele>-5.333333333333334</ele><time>2026-04-19T10:25:23.002Z</time></trkpt><trkpt lat="44.97173404852332" lon="12.354083493409407"><ele>-5.0</ele><time>2026-04-19T10:25:24.002Z</time></trkpt><trkpt lat="44.97172198446841" lon="12.35377919934145"><ele>-5.0</ele><time>2026-04-19T10:25:25.002Z</time></trkpt><trkpt lat="44.971713144905834" lon="12.35346260594389"><ele>-5.0</ele><time>2026-04-19T10:25:26.002Z</time></trkpt><trkpt lat="44.97170524202016" lon="12.353166709577783"><ele>-5.0</ele><time>2026-04-19T10:25:27.003Z</time></trkpt><trkpt lat="44.9716973600209" lon="12.352875336950097"><ele>-5.0</ele><time>2026-04-19T10:25:28.003Z</time></trkpt><trkpt lat="44.97169240875782" lon="12.352585658836677"><ele>-5.0</ele><time>2026-04-19T10:25:29.003Z</time></trkpt><trkpt lat="44.97168733746385" lon="12.352297192039146"><ele>-5.0</ele><time>2026-04-19T10:25:30.003Z</time></trkpt><trkpt lat="44.97168274448164" lon="12.352005963284112"><ele>-5.0</ele><time>2026-04-19T10:25:31.003Z</time></trkpt><trkpt lat="44.97166966763868" lon="12.351715709477597"><ele>-5.0</ele><time>2026-04-19T10:25:32.003Z</time></trkpt><trkpt lat="44.97166366841688" lon="12.35141755598235"><ele>-5.0</ele><time>2026-04-19T10:25:33.003Z</time></trkpt><trkpt lat="44.97165535691543" lon="12.351116645048343"><ele>-5.333333333333334</ele><time>2026-04-19T10:25:34.003Z</time></trkpt><trkpt lat="44.971644724711396" lon="12.350810587327164"><ele>-5.666666666666667</ele><time>2026-04-19T10:25:35.003Z</time></trkpt><trkpt lat="44.97163282778725" lon="12.350502604159265"><ele>-6.0</ele><time>2026-04-19T10:25:36.003Z</time></trkpt><trkpt lat="44.97162267692815" lon="12.350187216591245"><ele>-6.0</ele><time>2026-04-19T10:25:37.003Z</time></trkpt><trkpt lat="44.971613209363476" lon="12.349867054436201"><ele>-6.0</ele><time>2026-04-19T10:25:38.001Z</time></trkpt><trkpt lat="44.97160282614971" lon="12.34954279023879"><ele>-6.0</ele><time>2026-04-19T10:25:39.001Z</time></trkpt><trkpt lat="44.971594161646905" lon="12.349213245323117"><ele>-6.0</ele><time>2026-04-19T10:25:40.001Z</time></trkpt><trkpt lat="44.97158389067295" lon="12.348883152976049"><ele>-5.5</ele><time>2026-04-19T10:25:41.001Z</time></trkpt><trkpt lat="44.97157173716551" lon="12.348529708705223"><ele>-5.0</ele><time>2026-04-19T10:25:42.001Z</time></trkpt><trkpt lat="44.97156069359687" lon="12.34817495615185"><ele>-4.5</ele><time>2026-04-19T10:25:43.001Z</time></trkpt><trkpt lat="44.97154848513672" lon="12.347822247951953"><ele>-4.0</ele><time>2026-04-19T10:25:44.001Z</time></trkpt><trkpt lat="44.97153843345987" lon="12.347479028965898"><ele>-4.0</ele><time>2026-04-19T10:25:45.001Z</time></trkpt><trkpt lat="44.971530992862554" lon="12.347145734980018"><ele>-4.0</ele><time>2026-04-19T10:25:46.001Z</time></trkpt><trkpt lat="44.97152240520117" lon="12.346824880069805"><ele>-4.0</ele><time>2026-04-19T10:25:47.001Z</time></trkpt><trkpt lat="44.97151699282581" lon="12.346518524710595"><ele>-4.0</ele><time>2026-04-19T10:25:48.001Z</time></trkpt><trkpt lat="44.97151038166798" lon="12.346228951707166"><ele>-4.0</ele><time>2026-04-19T10:25:49.001Z</time></trkpt><trkpt lat="44.971502028074404" lon="12.345953295878198"><ele>-4.0</ele><time>2026-04-19T10:25:50Z</time></trkpt><trkpt lat="44.971496729067134" lon="12.345679445578138"><ele>-4.0</ele><time>2026-04-19T10:25:51Z</time></trkpt><trkpt lat="44.97148889032708" lon="12.345400482472984"><ele>-4.0</ele><time>2026-04-19T10:25:52Z</time></trkpt><trkpt lat="44.971480224931966" lon="12.345126784720625"><ele>-4.0</ele><time>2026-04-19T10:25:53Z</time></trkpt><trkpt lat="44.97147289455303" lon="12.34486244719276"><ele>-4.0</ele><time>2026-04-19T10:25:54Z</time></trkpt><trkpt lat="44.97148000390793" lon="12.344603341591318"><ele>-4.0</ele><time>2026-04-19T10:25:55.001Z</time></trkpt><trkpt lat="44.971446820872785" lon="12.344344596800152"><ele>-4.0</ele><time>2026-04-19T10:25:56.001Z</time></trkpt><trkpt lat="44.971414330828985" lon="12.344094329632064"><ele>-4.0</ele><time>2026-04-19T10:25:57.001Z</time></trkpt><trkpt lat="44.97134504988775" lon="12.343844775850211"><ele>-4.0</ele><time>2026-04-19T10:25:58.001Z</time></trkpt><trkpt lat="44.97124908213" lon="12.343605723907562"><ele>-4.0</ele><time>2026-04-19T10:25:59.001Z</time></trkpt><trkpt lat="44.971131568441905" lon="12.343387706352221"><ele>-4.0</ele><time>2026-04-19T10:26:00.001Z</time></trkpt><trkpt lat="44.97098732346695" lon="12.343194149252692"><ele>-4.0</ele><time>2026-04-19T10:26:01.001Z</time></trkpt><trkpt lat="44.970821591116454" lon="12.343028935005771"><ele>-4.0</ele><time>2026-04-19T10:26:02.001Z</time></trkpt><trkpt lat="44.97064246873186" lon="12.342890348748243"><ele>-4.0</ele><time>2026-04-19T10:26:03.001Z</time></trkpt><trkpt lat="44.97045202544828" lon="12.342790851466791"><ele>-4.0</ele><time>2026-04-19T10:26:04.001Z</time></trkpt><trkpt lat="44.97023819156038" lon="12.342730051181734"><ele>-3.5</ele><time>2026-04-19T10:26:05.001Z</time></trkpt><trkpt lat="44.969995965681925" lon="12.342681243196214"><ele>-3.0</ele><time>2026-04-19T10:26:06.001Z</time></trkpt><trkpt lat="44.96974145283529" lon="12.342614636019665"><ele>-3.0</ele><time>2026-04-19T10:26:07.001Z</time></trkpt><trkpt lat="44.96949157206966" lon="12.342535492462387"><ele>-3.0</ele><time>2026-04-19T10:26:08.001Z</time></trkpt><trkpt lat="44.96925674651373" lon="12.342463570575962"><ele>-2.5</ele><time>2026-04-19T10:26:09.001Z</time></trkpt><trkpt lat="44.96902558658297" lon="12.342395553395063"><ele>-2.0</ele><time>2026-04-19T10:26:10.001Z</time></trkpt><trkpt lat="44.9687961983724" lon="12.342326022185413"><ele>-2.0</ele><time>2026-04-19T10:26:11.001Z</time></trkpt><trkpt lat="44.9685657347956" lon="12.342257961679229"><ele>-2.0</ele><time>2026-04-19T10:26:12.001Z</time></trkpt><trkpt lat="44.96833432255775" lon="12.342190740606913"><ele>-3.0</ele><time>2026-04-19T10:26:13.001Z</time></trkpt><trkpt lat="44.968099880784514" lon="12.342119958507192"><ele>-4.0</ele><time>2026-04-19T10:26:14.001Z</time></trkpt><trkpt lat="44.96786388578481" lon="12.342050890530507"><ele>-4.0</ele><time>2026-04-19T10:26:15.001Z</time></trkpt><trkpt lat="44.9676280926914" lon="12.341982772353337"><ele>-4.0</ele><time>2026-04-19T10:26:16.001Z</time></trkpt><trkpt lat="44.96739258524984" lon="12.341915183296154"><ele>-4.5</ele><time>2026-04-19T10:26:17.001Z</time></trkpt><trkpt lat="44.96715586504263" lon="12.341846864986898"><ele>-5.0</ele><time>2026-04-19T10:26:18.001Z</time></trkpt><trkpt lat="44.966921409227616" lon="12.341774986245998"><ele>-4.0</ele><time>2026-04-19T10:26:19.001Z</time></trkpt><trkpt lat="44.966684394987915" lon="12.341701715149943"><ele>-3.0</ele><time>2026-04-19T10:26:20.001Z</time></trkpt><trkpt lat="44.96644672601541" lon="12.341630862660113"><ele>-3.0</ele><time>2026-04-19T10:26:21.001Z</time></trkpt><trkpt lat="44.96620825004254" lon="12.341560428888068"><ele>-3.0</ele><time>2026-04-19T10:26:22.001Z</time></trkpt><trkpt lat="44.96596853435857" lon="12.34148859468228"><ele>-3.0</ele><time>2026-04-19T10:26:23.001Z</time></trkpt><trkpt lat="44.965728280578446" lon="12.341415854699425"><ele>-3.0</ele><time>2026-04-19T10:26:24.001Z</time></trkpt><trkpt lat="44.96549393266942" lon="12.341345217334807"><ele>-2.5</ele><time>2026-04-19T10:26:25.001Z</time></trkpt><trkpt lat="44.965263766999634" lon="12.341279263026665"><ele>-2.0</ele><time>2026-04-19T10:26:26.001Z</time></trkpt><trkpt lat="44.96503824269432" lon="12.341215240867534"><ele>-3.0</ele><time>2026-04-19T10:26:27.001Z</time></trkpt><trkpt lat="44.964812643115664" lon="12.341150654295454"><ele>-4.0</ele><time>2026-04-19T10:26:28.001Z</time></trkpt><trkpt lat="44.964585774428706" lon="12.34108316419779"><ele>-4.0</ele><time>2026-04-19T10:26:29.001Z</time></trkpt><trkpt lat="44.96436557957152" lon="12.341019366161593"><ele>-4.0</ele><time>2026-04-19T10:26:30.001Z</time></trkpt><trkpt lat="44.96416103435454" lon="12.340960625086739"><ele>-4.0</ele><time>2026-04-19T10:26:31.001Z</time></trkpt><trkpt lat="44.963968835399655" lon="12.340906377423165"><ele>-3.6666666666666665</ele><time>2026-04-19T10:26:32.001Z</time></trkpt><trkpt lat="44.963783607044014" lon="12.34085311288498"><ele>-3.333333333333333</ele><time>2026-04-19T10:26:33.001Z</time></trkpt><trkpt lat="44.96360400898302" lon="12.340800176297567"><ele>-3.0</ele><time>2026-04-19T10:26:34.001Z</time></trkpt><trkpt lat="44.96342674453121" lon="12.34074708350938"><ele>-2.6666666666666665</ele><time>2026-04-19T10:26:35.001Z</time></trkpt><trkpt lat="44.96324753431352" lon="12.340693382806878"><ele>-2.333333333333333</ele><time>2026-04-19T10:26:36.001Z</time></trkpt><trkpt lat="44.96306817565102" lon="12.340640653443556"><ele>-2.0</ele><time>2026-04-19T10:26:37.001Z</time></trkpt><trkpt lat="44.9628970049882" lon="12.340589517668404"><ele>-2.333333333333333</ele><time>2026-04-19T10:26:38.001Z</time></trkpt><trkpt lat="44.96273397326343" lon="12.34054044211234"><ele>-2.6666666666666665</ele><time>2026-04-19T10:26:39.001Z</time></trkpt><trkpt lat="44.962575957796524" lon="12.340493952373649"><ele>-3.0</ele><time>2026-04-19T10:26:40.001Z</time></trkpt><trkpt lat="44.96242382375685" lon="12.3404491217104"><ele>-3.0</ele><time>2026-04-19T10:26:41.001Z</time></trkpt><trkpt lat="44.96227242144218" lon="12.34040317870503"><ele>-3.0</ele><time>2026-04-19T10:26:42.001Z</time></trkpt><trkpt lat="44.96211976336911" lon="12.34035766822479"><ele>-3.0</ele><time>2026-04-19T10:26:43.001Z</time></trkpt><trkpt lat="44.96196538123909" lon="12.340314062961541"><ele>-3.0</ele><time>2026-04-19T10:26:44.001Z</time></trkpt><trkpt lat="44.96181787750348" lon="12.34027286572727"><ele>-3.0</ele><time>2026-04-19T10:26:45.001Z</time></trkpt><trkpt lat="44.96167727823976" lon="12.340229272341935"><ele>-3.0</ele><time>2026-04-19T10:26:46.001Z</time></trkpt><trkpt lat="44.96154680852185" lon="12.34019402845684"><ele>-3.0</ele><time>2026-04-19T10:26:47.001Z</time></trkpt><trkpt lat="44.961422786777106" lon="12.340156082633177"><ele>-2.6</ele><time>2026-04-19T10:26:48.001Z</time></trkpt><trkpt lat="44.96130517622443" lon="12.340120191044637"><ele>-2.1999999999999997</ele><time>2026-04-19T10:26:49.001Z</time></trkpt><trkpt lat="44.961201924480896" lon="12.340080625026738"><ele>-1.8</ele><time>2026-04-19T10:26:50.001Z</time></trkpt><trkpt lat="44.96110908687134" lon="12.340021400882566"><ele>-1.4</ele><time>2026-04-19T10:26:51.001Z</time></trkpt><trkpt lat="44.96102972175405" lon="12.339940374254855"><ele>-1.0</ele><time>2026-04-19T10:26:52.001Z</time></trkpt><trkpt lat="44.96097237350022" lon="12.33982101338835"><ele>-1.0</ele><time>2026-04-19T10:26:53.001Z</time></trkpt><trkpt lat="44.960973143530616" lon="12.339660179249172"><ele>-1.0</ele><time>2026-04-19T10:26:54.001Z</time></trkpt><trkpt lat="44.96097595290762" lon="12.339486017547245"><ele>-1.0</ele><time>2026-04-19T10:26:55.001Z</time></trkpt><trkpt lat="44.96097217117051" lon="12.339290486832827"><ele>-1.0</ele><time>2026-04-19T10:26:56.001Z</time></trkpt><trkpt lat="44.96095244725626" lon="12.339077956292662"><ele>-0.25</ele><time>2026-04-19T10:26:57.001Z</time></trkpt><trkpt lat="44.96095037475883" lon="12.338866975868411"><ele>0.5</ele><time>2026-04-19T10:26:58.002Z</time></trkpt><trkpt lat="44.96094640333055" lon="12.338676300933475"><ele>1.25</ele><time>2026-04-19T10:26:59.002Z</time></trkpt><trkpt lat="44.960948397712556" lon="12.338499966730081"><ele>2.0</ele><time>2026-04-19T10:27:00.002Z</time></trkpt><trkpt lat="44.9609388984754" lon="12.338328281292542"><ele>2.0</ele><time>2026-04-19T10:27:01.002Z</time></trkpt><trkpt lat="44.96095213524682" lon="12.338158865635663"><ele>2.0</ele><time>2026-04-19T10:27:02.002Z</time></trkpt><trkpt lat="44.96094926566644" lon="12.337989547198104"><ele>2.0</ele><time>2026-04-19T10:27:03.002Z</time></trkpt><trkpt lat="44.96094628249002" lon="12.337813526162444"><ele>2.0</ele><time>2026-04-19T10:27:04.002Z</time></trkpt><trkpt lat="44.96092732842875" lon="12.337634427519628"><ele>1.75</ele><time>2026-04-19T10:27:05.002Z</time></trkpt><trkpt lat="44.96092639662505" lon="12.337449408105527"><ele>1.5</ele><time>2026-04-19T10:27:06.002Z</time></trkpt><trkpt lat="44.960922983282195" lon="12.337263782141518"><ele>1.25</ele><time>2026-04-19T10:27:07.002Z</time></trkpt><trkpt lat="44.960922102259346" lon="12.33707619259921"><ele>1.0</ele><time>2026-04-19T10:27:08.002Z</time></trkpt><trkpt lat="44.96091939923654" lon="12.336887519216715"><ele>0.75</ele><time>2026-04-19T10:27:09.002Z</time></trkpt><trkpt lat="44.960916745760684" lon="12.33669764175994"><ele>0.5</ele><time>2026-04-19T10:27:10.002Z</time></trkpt><trkpt lat="44.96091111640724" lon="12.336507959437883"><ele>0.25</ele><time>2026-04-19T10:27:11.002Z</time></trkpt><trkpt lat="44.96090456413119" lon="12.336321689541968"><ele>0.0</ele><time>2026-04-19T10:27:12.002Z</time></trkpt><trkpt lat="44.96090150410366" lon="12.336142149523438"><ele>0.0</ele><time>2026-04-19T10:27:13.002Z</time></trkpt><trkpt lat="44.960901916799315" lon="12.335963442896151"><ele>0.0</ele><time>2026-04-19T10:27:14.002Z</time></trkpt><trkpt lat="44.96090011535968" lon="12.335784231667768"><ele>0.0</ele><time>2026-04-19T10:27:15.002Z</time></trkpt><trkpt lat="44.960895595011934" lon="12.335610947504087"><ele>0.0</ele><time>2026-04-19T10:27:16.002Z</time></trkpt><trkpt lat="44.96089872178334" lon="12.335440581025235"><ele>0.25</ele><time>2026-04-19T10:27:17.002Z</time></trkpt><trkpt lat="44.96089645407217" lon="12.33526912055905"><ele>0.5</ele><time>2026-04-19T10:27:18.002Z</time></trkpt><trkpt lat="44.96089434416646" lon="12.335097530258349"><ele>0.75</ele><time>2026-04-19T10:27:19.002Z</time></trkpt><trkpt lat="44.960885685180884" lon="12.3349301331083"><ele>1.0</ele><time>2026-04-19T10:27:20.002Z</time></trkpt><trkpt lat="44.96085078420771" lon="12.3347865888235"><ele>0.5</ele><time>2026-04-19T10:27:21.002Z</time></trkpt><trkpt lat="44.96077765659105" lon="12.33467425841091"><ele>0.0</ele><time>2026-04-19T10:27:22.002Z</time></trkpt><trkpt lat="44.960670634282174" lon="12.334592131210794"><ele>-0.5</ele><time>2026-04-19T10:27:23.002Z</time></trkpt><trkpt lat="44.96054907016416" lon="12.334531689688887"><ele>-1.0</ele><time>2026-04-19T10:27:24.002Z</time></trkpt><trkpt lat="44.96042097594673" lon="12.334483940203768"><ele>-1.0</ele><time>2026-04-19T10:27:25.002Z</time></trkpt><trkpt lat="44.96029443145849" lon="12.334445294474783"><ele>-1.0</ele><time>2026-04-19T10:27:26.002Z</time></trkpt><trkpt lat="44.96017280644597" lon="12.334408068146962"><ele>-1.0</ele><time>2026-04-19T10:27:27.002Z</time></trkpt><trkpt lat="44.96005810260168" lon="12.334366567910337"><ele>-1.0</ele><time>2026-04-19T10:27:28.002Z</time></trkpt><trkpt lat="44.95994488038594" lon="12.334324112117544"><ele>-1.2000000000000002</ele><time>2026-04-19T10:27:29.002Z</time></trkpt><trkpt lat="44.959832764489406" lon="12.334280905069017"><ele>-1.4000000000000001</ele><time>2026-04-19T10:27:30.002Z</time></trkpt><trkpt lat="44.95972259221865" lon="12.33423588215236"><ele>-1.6</ele><time>2026-04-19T10:27:31.002Z</time></trkpt><trkpt lat="44.95962152430573" lon="12.334193478360081"><ele>-1.8</ele><time>2026-04-19T10:27:32.002Z</time></trkpt><trkpt lat="44.959521262612796" lon="12.334152418359716"><ele>-2.0</ele><time>2026-04-19T10:27:33.002Z</time></trkpt><trkpt lat="44.95942141607777" lon="12.334113049539289"><ele>-2.0</ele><time>2026-04-19T10:27:34.002Z</time></trkpt><trkpt lat="44.959321135395015" lon="12.33407353652577"><ele>-2.0</ele><time>2026-04-19T10:27:35.002Z</time></trkpt><trkpt lat="44.95921514153415" lon="12.334029083498011"><ele>-2.0</ele><time>2026-04-19T10:27:36.002Z</time></trkpt><trkpt lat="44.95910558056214" lon="12.333981510451121"><ele>-2.0</ele><time>2026-04-19T10:27:37.002Z</time></trkpt><trkpt lat="44.95899311422809" lon="12.333931614506078"><ele>-2.0</ele><time>2026-04-19T10:27:38.002Z</time></trkpt><trkpt lat="44.95888142163189" lon="12.333888409289148"><ele>-2.0</ele><time>2026-04-19T10:27:39.002Z</time></trkpt><trkpt lat="44.95877575527672" lon="12.3338492962234"><ele>-2.0</ele><time>2026-04-19T10:27:40.002Z</time></trkpt><trkpt lat="44.95867417969882" lon="12.33381270228188"><ele>-2.0</ele><time>2026-04-19T10:27:41.002Z</time></trkpt><trkpt lat="44.95857375346603" lon="12.33377335392685"><ele>-2.0</ele><time>2026-04-19T10:27:42.002Z</time></trkpt><trkpt lat="44.95847019996218" lon="12.333728764479805"><ele>-2.0</ele><time>2026-04-19T10:27:43.002Z</time></trkpt><trkpt lat="44.95836137822043" lon="12.333680419393298"><ele>-1.75</ele><time>2026-04-19T10:27:44Z</time></trkpt><trkpt lat="44.95825406472408" lon="12.333635073273783"><ele>-1.5</ele><time>2026-04-19T10:27:45Z</time></trkpt><trkpt lat="44.95814412629176" lon="12.333584714902702"><ele>-1.25</ele><time>2026-04-19T10:27:46Z</time></trkpt><trkpt lat="44.95803367609144" lon="12.33354166114264"><ele>-1.0</ele><time>2026-04-19T10:27:47Z</time></trkpt><trkpt lat="44.95792149081228" lon="12.333496941709596"><ele>-1.0</ele><time>2026-04-19T10:27:48Z</time></trkpt><trkpt lat="44.957808412584534" lon="12.333443992467807"><ele>-1.0</ele><time>2026-04-19T10:27:49Z</time></trkpt><trkpt lat="44.95770891661473" lon="12.33338303254306"><ele>-1.0</ele><time>2026-04-19T10:27:50Z</time></trkpt><trkpt lat="44.95763424359917" lon="12.333285824435055"><ele>-1.0</ele><time>2026-04-19T10:27:51Z</time></trkpt><trkpt lat="44.95758479871903" lon="12.333150572468618"><ele>-1.0</ele><time>2026-04-19T10:27:52Z</time></trkpt><trkpt lat="44.95759520741367" lon="12.333003381047776"><ele>-0.8</ele><time>2026-04-19T10:27:53Z</time></trkpt><trkpt lat="44.95760651343769" lon="12.332857418351217"><ele>-0.6000000000000001</ele><time>2026-04-19T10:27:54Z</time></trkpt><trkpt lat="44.9576041553916" lon="12.332713281957227"><ele>-0.4</ele><time>2026-04-19T10:27:55Z</time></trkpt><trkpt lat="44.95761994185438" lon="12.332570044049099"><ele>-0.2</ele><time>2026-04-19T10:27:56Z</time></trkpt><trkpt lat="44.95763480727565" lon="12.332432788858071"><ele>0.0</ele><time>2026-04-19T10:27:57Z</time></trkpt><trkpt lat="44.95764579039904" lon="12.332316464396621"><ele>0.16666666666666666</ele><time>2026-04-19T10:27:58Z</time></trkpt><trkpt lat="44.9576575677408" lon="12.332199167692888"><ele>0.3333333333333333</ele><time>2026-04-19T10:27:59Z</time></trkpt><trkpt lat="44.95766974217013" lon="12.33208377888362"><ele>0.5</ele><time>2026-04-19T10:28:00Z</time></trkpt><trkpt lat="44.95768414394327" lon="12.331960928776681"><ele>0.6666666666666666</ele><time>2026-04-19T10:28:01Z</time></trkpt><trkpt lat="44.95769448803972" lon="12.331832559620565"><ele>0.8333333333333333</ele><time>2026-04-19T10:28:02Z</time></trkpt><trkpt lat="44.95772766460183" lon="12.331706581100793"><ele>1.0</ele><time>2026-04-19T10:28:03Z</time></trkpt><trkpt lat="44.95773277538936" lon="12.331557317227219"><ele>1.0</ele><time>2026-04-19T10:28:04Z</time></trkpt><trkpt lat="44.95775741010449" lon="12.331396307941272"><ele>1.0</ele><time>2026-04-19T10:28:05Z</time></trkpt><trkpt lat="44.957802957219926" lon="12.33124683534332"><ele>1.0</ele><time>2026-04-19T10:28:06Z</time></trkpt><trkpt lat="44.957847693131306" lon="12.331092814501295"><ele>1.0</ele><time>2026-04-19T10:28:07Z</time></trkpt><trkpt lat="44.95790763850827" lon="12.330963951423234"><ele>0.8</ele><time>2026-04-19T10:28:08Z</time></trkpt><trkpt lat="44.95797103521335" lon="12.330855774574632"><ele>0.6000000000000001</ele><time>2026-04-19T10:28:09Z</time></trkpt><trkpt lat="44.95803552203273" lon="12.330750989935828"><ele>0.4</ele><time>2026-04-19T10:28:10Z</time></trkpt><trkpt lat="44.95809842506916" lon="12.330652740255555"><ele>0.2</ele><time>2026-04-19T10:28:11Z</time></trkpt><trkpt lat="44.958164472903306" lon="12.330549578688728"><ele>0.0</ele><time>2026-04-19T10:28:12Z</time></trkpt><trkpt lat="44.958232681298725" lon="12.330443042458835"><ele>0.0</ele><time>2026-04-19T10:28:13Z</time></trkpt><trkpt lat="44.95830532525517" lon="12.330329152590059"><ele>0.0</ele><time>2026-04-19T10:28:14Z</time></trkpt><trkpt lat="44.95837795230218" lon="12.330211807223002"><ele>0.0</ele><time>2026-04-19T10:28:15Z</time></trkpt><trkpt lat="44.9584541069514" lon="12.330087179029023"><ele>0.0</ele><time>2026-04-19T10:28:16Z</time></trkpt><trkpt lat="44.95853711310827" lon="12.32995461283393"><ele>-0.5</ele><time>2026-04-19T10:28:17Z</time></trkpt><trkpt lat="44.95862768445308" lon="12.329815845353663"><ele>-1.0</ele><time>2026-04-19T10:28:18Z</time></trkpt><trkpt lat="44.9587249776008" lon="12.329678898733217"><ele>-1.5</ele><time>2026-04-19T10:28:19Z</time></trkpt><trkpt lat="44.95882186712091" lon="12.329534460940552"><ele>-2.0</ele><time>2026-04-19T10:28:20.001Z</time></trkpt><trkpt lat="44.95893770528811" lon="12.329402266565065"><ele>-2.0</ele><time>2026-04-19T10:28:21.001Z</time></trkpt><trkpt lat="44.95906438825054" lon="12.3292660927724"><ele>-2.0</ele><time>2026-04-19T10:28:22.001Z</time></trkpt><trkpt lat="44.95921338376135" lon="12.329102027203945"><ele>-2.0</ele><time>2026-04-19T10:28:23.001Z</time></trkpt><trkpt lat="44.959361491197505" lon="12.328931936308773"><ele>-2.0</ele><time>2026-04-19T10:28:24.001Z</time></trkpt><trkpt lat="44.959544697995945" lon="12.328735816585212"><ele>-2.0</ele><time>2026-04-19T10:28:25.001Z</time></trkpt><trkpt lat="44.95971770036959" lon="12.328573337604665"><ele>-2.0</ele><time>2026-04-19T10:28:26.001Z</time></trkpt><trkpt lat="44.95986527836733" lon="12.32838879550923"><ele>-2.0</ele><time>2026-04-19T10:28:27.001Z</time></trkpt><trkpt lat="44.96001396692545" lon="12.328227359441163"><ele>-2.0</ele><time>2026-04-19T10:28:28.001Z</time></trkpt><trkpt lat="44.960157705561365" lon="12.32807911541764"><ele>-2.0</ele><time>2026-04-19T10:28:29.001Z</time></trkpt><trkpt lat="44.96029795859178" lon="12.327929568787022"><ele>-2.0</ele><time>2026-04-19T10:28:30.001Z</time></trkpt><trkpt lat="44.9604265639909" lon="12.327791605601394"><ele>-2.0</ele><time>2026-04-19T10:28:31.001Z</time></trkpt><trkpt lat="44.960556192224445" lon="12.327654453629126"><ele>-2.0</ele><time>2026-04-19T10:28:32.001Z</time></trkpt><trkpt lat="44.960683695312326" lon="12.327515403336921"><ele>-2.0</ele><time>2026-04-19T10:28:33.001Z</time></trkpt><trkpt lat="44.96080984462431" lon="12.327381433370418"><ele>-2.0</ele><time>2026-04-19T10:28:34.001Z</time></trkpt><trkpt lat="44.96093094529339" lon="12.327251764742448"><ele>-2.0</ele><time>2026-04-19T10:28:35.001Z</time></trkpt><trkpt lat="44.96105208714537" lon="12.327123054363975"><ele>-2.333333333333333</ele><time>2026-04-19T10:28:36.001Z</time></trkpt><trkpt lat="44.961170862890896" lon="12.326997427172168"><ele>-2.6666666666666665</ele><time>2026-04-19T10:28:37.001Z</time></trkpt><trkpt lat="44.96128968835626" lon="12.326868603337038"><ele>-3.0</ele><time>2026-04-19T10:28:38.001Z</time></trkpt><trkpt lat="44.96140990344927" lon="12.32673577720065"><ele>-3.0</ele><time>2026-04-19T10:28:39.001Z</time></trkpt><trkpt lat="44.961529940972476" lon="12.326600215566202"><ele>-3.0</ele><time>2026-04-19T10:28:40.001Z</time></trkpt><trkpt lat="44.9616544242841" lon="12.32646664325557"><ele>-3.0</ele><time>2026-04-19T10:28:41.001Z</time></trkpt><trkpt lat="44.96178555506292" lon="12.326354592205188"><ele>-3.333333333333333</ele><time>2026-04-19T10:28:42.001Z</time></trkpt><trkpt lat="44.96190749670847" lon="12.326222353412538"><ele>-3.6666666666666665</ele><time>2026-04-19T10:28:43.001Z</time></trkpt><trkpt lat="44.962052063223204" lon="12.326069017406018"><ele>-4.0</ele><time>2026-04-19T10:28:44.001Z</time></trkpt><trkpt lat="44.96220865977186" lon="12.32590292161947"><ele>-4.0</ele><time>2026-04-19T10:28:45.001Z</time></trkpt><trkpt lat="44.96235863025304" lon="12.325743503861611"><ele>-4.0</ele><time>2026-04-19T10:28:46.001Z</time></trkpt><trkpt lat="44.96249564935331" lon="12.325576385568867"><ele>-4.0</ele><time>2026-04-19T10:28:47.001Z</time></trkpt><trkpt lat="44.962631062118156" lon="12.325435089170814"><ele>-4.333333333333333</ele><time>2026-04-19T10:28:48.001Z</time></trkpt><trkpt lat="44.96275414091885" lon="12.325287810778054"><ele>-4.666666666666667</ele><time>2026-04-19T10:28:49.001Z</time></trkpt><trkpt lat="44.96287099452213" lon="12.325125835509153"><ele>-5.0</ele><time>2026-04-19T10:28:50.001Z</time></trkpt><trkpt lat="44.96298164759267" lon="12.324947789789888"><ele>-5.0</ele><time>2026-04-19T10:28:51.001Z</time></trkpt><trkpt lat="44.96308352126557" lon="12.324754122545746"><ele>-5.0</ele><time>2026-04-19T10:28:52.001Z</time></trkpt><trkpt lat="44.963175080368515" lon="12.324545754396343"><ele>-5.0</ele><time>2026-04-19T10:28:53.001Z</time></trkpt><trkpt lat="44.96325648898752" lon="12.32432712053707"><ele>-5.0</ele><time>2026-04-19T10:28:54.001Z</time></trkpt><trkpt lat="44.963324331311526" lon="12.3240994431729"><ele>-5.0</ele><time>2026-04-19T10:28:55.001Z</time></trkpt><trkpt lat="44.96337793314374" lon="12.323857274140414"><ele>-5.0</ele><time>2026-04-19T10:28:56.001Z</time></trkpt><trkpt lat="44.96343711434869" lon="12.323610018601082"><ele>-5.333333333333334</ele><time>2026-04-19T10:28:57.001Z</time></trkpt><trkpt lat="44.96344576215621" lon="12.323337669543102"><ele>-5.666666666666667</ele><time>2026-04-19T10:28:58.001Z</time></trkpt><trkpt lat="44.96345847738657" lon="12.3230640097774"><ele>-6.0</ele><time>2026-04-19T10:28:59.001Z</time></trkpt><trkpt lat="44.963450664624425" lon="12.322788794646055"><ele>-6.0</ele><time>2026-04-19T10:29:00.001Z</time></trkpt><trkpt lat="44.963421292826325" lon="12.322521822305319"><ele>-6.0</ele><time>2026-04-19T10:29:01.001Z</time></trkpt><trkpt lat="44.96337410104748" lon="12.322256366114129"><ele>-6.0</ele><time>2026-04-19T10:29:02.001Z</time></trkpt><trkpt lat="44.96331612087861" lon="12.321982083692067"><ele>-6.0</ele><time>2026-04-19T10:29:03.001Z</time></trkpt><trkpt lat="44.963248733698" lon="12.321705427146485"><ele>-6.0</ele><time>2026-04-19T10:29:04.001Z</time></trkpt><trkpt lat="44.96317786003871" lon="12.321432044058696"><ele>-6.0</ele><time>2026-04-19T10:29:05.001Z</time></trkpt><trkpt lat="44.96310799429535" lon="12.32116187262637"><ele>-5.666666666666667</ele><time>2026-04-19T10:29:06.001Z</time></trkpt><trkpt lat="44.96303959259383" lon="12.320882411112215"><ele>-5.333333333333334</ele><time>2026-04-19T10:29:07.001Z</time></trkpt><trkpt lat="44.96296840382722" lon="12.320594839241965"><ele>-5.0</ele><time>2026-04-19T10:29:08.001Z</time></trkpt><trkpt lat="44.96289466453198" lon="12.320296482078657"><ele>-4.666666666666667</ele><time>2026-04-19T10:29:09.001Z</time></trkpt><trkpt lat="44.962838369392585" lon="12.319991940265902"><ele>-4.333333333333333</ele><time>2026-04-19T10:29:10.001Z</time></trkpt><trkpt lat="44.962764857587764" lon="12.319689405846336"><ele>-4.0</ele><time>2026-04-19T10:29:11.001Z</time></trkpt><trkpt lat="44.962690241435006" lon="12.319382326729702"><ele>-4.0</ele><time>2026-04-19T10:29:12.001Z</time></trkpt><trkpt lat="44.96261251289154" lon="12.319063481371618"><ele>-4.0</ele><time>2026-04-19T10:29:13.001Z</time></trkpt><trkpt lat="44.96253355642081" lon="12.318739975859614"><ele>-4.0</ele><time>2026-04-19T10:29:14.001Z</time></trkpt><trkpt lat="44.96245687568003" lon="12.318424958027258"><ele>-4.0</ele><time>2026-04-19T10:29:15.001Z</time></trkpt><trkpt lat="44.96236843025877" lon="12.318122984986005"><ele>-4.0</ele><time>2026-04-19T10:29:16.002Z</time></trkpt><trkpt lat="44.962298962804226" lon="12.317814374464005"><ele>-4.0</ele><time>2026-04-19T10:29:17.002Z</time></trkpt><trkpt lat="44.962222997766084" lon="12.317505385139476"><ele>-4.5</ele><time>2026-04-19T10:29:18.002Z</time></trkpt><trkpt lat="44.96214691816589" lon="12.317197802342955"><ele>-5.0</ele><time>2026-04-19T10:29:19.002Z</time></trkpt><trkpt lat="44.96207190266358" lon="12.316885191260281"><ele>-5.0</ele><time>2026-04-19T10:29:20.002Z</time></trkpt><trkpt lat="44.96199493987302" lon="12.316575551228585"><ele>-5.0</ele><time>2026-04-19T10:29:21.002Z</time></trkpt><trkpt lat="44.961916515832215" lon="12.316266811056616"><ele>-5.0</ele><time>2026-04-19T10:29:22.002Z</time></trkpt><trkpt lat="44.961855580684706" lon="12.315947674178581"><ele>-5.0</ele><time>2026-04-19T10:29:23.002Z</time></trkpt><trkpt lat="44.961779376524014" lon="12.315637777856214"><ele>-5.0</ele><time>2026-04-19T10:29:24.002Z</time></trkpt><trkpt lat="44.96170727632794" lon="12.315328379207877"><ele>-5.0</ele><time>2026-04-19T10:29:25.002Z</time></trkpt><trkpt lat="44.961644541484176" lon="12.31502553125573"><ele>-4.666666666666667</ele><time>2026-04-19T10:29:26.002Z</time></trkpt><trkpt lat="44.96159141890455" lon="12.314722811257084"><ele>-4.333333333333333</ele><time>2026-04-19T10:29:27.002Z</time></trkpt><trkpt lat="44.96154741524887" lon="12.314426253916142"><ele>-4.0</ele><time>2026-04-19T10:29:28.002Z</time></trkpt><trkpt lat="44.96149128984149" lon="12.314153785100437"><ele>-3.6666666666666665</ele><time>2026-04-19T10:29:29.002Z</time></trkpt><trkpt lat="44.961446761078484" lon="12.313884193020607"><ele>-3.333333333333333</ele><time>2026-04-19T10:29:30.002Z</time></trkpt><trkpt lat="44.961392296749075" lon="12.313616592572055"><ele>-3.0</ele><time>2026-04-19T10:29:31.002Z</time></trkpt><trkpt lat="44.961326964585254" lon="12.313340491566864"><ele>-3.0</ele><time>2026-04-19T10:29:32.002Z</time></trkpt><trkpt lat="44.961256099075264" lon="12.313058891293421"><ele>-3.0</ele><time>2026-04-19T10:29:33.002Z</time></trkpt><trkpt lat="44.96118442824695" lon="12.31276954413239"><ele>-3.0</ele><time>2026-04-19T10:29:34.002Z</time></trkpt><trkpt lat="44.961111177301525" lon="12.312474498041166"><ele>-4.0</ele><time>2026-04-19T10:29:35.002Z</time></trkpt><trkpt lat="44.96103463872892" lon="12.312163031645163"><ele>-5.0</ele><time>2026-04-19T10:29:36.002Z</time></trkpt><trkpt lat="44.960960474808374" lon="12.31184690138982"><ele>-5.0</ele><time>2026-04-19T10:29:37.002Z</time></trkpt><trkpt lat="44.96088670004564" lon="12.31153812428709"><ele>-5.0</ele><time>2026-04-19T10:29:38.002Z</time></trkpt><trkpt lat="44.96081183153974" lon="12.3112286655875"><ele>-5.0</ele><time>2026-04-19T10:29:39.002Z</time></trkpt><trkpt lat="44.96073736017644" lon="12.310915679448952"><ele>-5.0</ele><time>2026-04-19T10:29:40.002Z</time></trkpt><trkpt lat="44.9606934913774" lon="12.310595512903587"><ele>-5.0</ele><time>2026-04-19T10:29:41.002Z</time></trkpt><trkpt lat="44.960646111904914" lon="12.310279190061044"><ele>-5.0</ele><time>2026-04-19T10:29:42.002Z</time></trkpt><trkpt lat="44.96059215555799" lon="12.309956926506429"><ele>-5.5</ele><time>2026-04-19T10:29:43.002Z</time></trkpt><trkpt lat="44.96057396967278" lon="12.309623894709015"><ele>-6.0</ele><time>2026-04-19T10:29:44.002Z</time></trkpt><trkpt lat="44.960559261954614" lon="12.309294400178254"><ele>-6.0</ele><time>2026-04-19T10:29:45.002Z</time></trkpt><trkpt lat="44.960549823692894" lon="12.308963623508056"><ele>-6.0</ele><time>2026-04-19T10:29:46.002Z</time></trkpt><trkpt lat="44.96054221973945" lon="12.308633777882768"><ele>-5.5</ele><time>2026-04-19T10:29:47.002Z</time></trkpt><trkpt lat="44.96053209094872" lon="12.308310038838638"><ele>-5.0</ele><time>2026-04-19T10:29:48.002Z</time></trkpt><trkpt lat="44.960522943799354" lon="12.30799271228338"><ele>-5.0</ele><time>2026-04-19T10:29:49.002Z</time></trkpt><trkpt lat="44.96051214542425" lon="12.307684869717347"><ele>-5.0</ele><time>2026-04-19T10:29:50Z</time></trkpt><trkpt lat="44.960502436203576" lon="12.30737490399595"><ele>-5.0</ele><time>2026-04-19T10:29:51Z</time></trkpt><trkpt lat="44.960510863892765" lon="12.307067172710019"><ele>-5.0</ele><time>2026-04-19T10:29:52Z</time></trkpt><trkpt lat="44.960503355692275" lon="12.306756569820422"><ele>-5.0</ele><time>2026-04-19T10:29:53Z</time></trkpt><trkpt lat="44.96049550946328" lon="12.306437642888353"><ele>-5.0</ele><time>2026-04-19T10:29:54Z</time></trkpt><trkpt lat="44.96048761136697" lon="12.306128978930484"><ele>-5.0</ele><time>2026-04-19T10:29:55Z</time></trkpt><trkpt lat="44.96047873172823" lon="12.305820182924576"><ele>-5.0</ele><time>2026-04-19T10:29:56Z</time></trkpt><trkpt lat="44.960453220099666" lon="12.305511946314818"><ele>-5.0</ele><time>2026-04-19T10:29:57Z</time></trkpt><trkpt lat="44.960445345467924" lon="12.305208048273363"><ele>-5.0</ele><time>2026-04-19T10:29:58Z</time></trkpt><trkpt lat="44.96043744704887" lon="12.304897228316456"><ele>-5.0</ele><time>2026-04-19T10:29:59Z</time></trkpt><trkpt lat="44.96042806663206" lon="12.30459198423131"><ele>-5.0</ele><time>2026-04-19T10:30:00Z</time></trkpt><trkpt lat="44.96041831657108" lon="12.304284651441428"><ele>-5.0</ele><time>2026-04-19T10:30:01Z</time></trkpt><trkpt lat="44.960425694647704" lon="12.303975773602406"><ele>-5.0</ele><time>2026-04-19T10:30:02Z</time></trkpt><trkpt lat="44.96041585181559" lon="12.303668520630353"><ele>-5.0</ele><time>2026-04-19T10:30:03Z</time></trkpt><trkpt lat="44.960385914161435" lon="12.303356749504204"><ele>-5.333333333333334</ele><time>2026-04-19T10:30:04Z</time></trkpt><trkpt lat="44.9603757319858" lon="12.303043494813123"><ele>-5.666666666666667</ele><time>2026-04-19T10:30:05Z</time></trkpt><trkpt lat="44.96036744441435" lon="12.302727566485386"><ele>-6.0</ele><time>2026-04-19T10:30:06Z</time></trkpt><trkpt lat="44.96036022819883" lon="12.302413170051778"><ele>-5.666666666666667</ele><time>2026-04-19T10:30:07Z</time></trkpt><trkpt lat="44.96035034165943" lon="12.302102786982694"><ele>-5.333333333333334</ele><time>2026-04-19T10:30:08Z</time></trkpt><trkpt lat="44.96034086055464" lon="12.301804700266754"><ele>-5.0</ele><time>2026-04-19T10:30:09Z</time></trkpt><trkpt lat="44.96033153842354" lon="12.301514708451057"><ele>-4.666666666666667</ele><time>2026-04-19T10:30:10Z</time></trkpt><trkpt lat="44.960324390752874" lon="12.301224015197436"><ele>-4.333333333333333</ele><time>2026-04-19T10:30:11Z</time></trkpt><trkpt lat="44.96031734656963" lon="12.30094044539796"><ele>-4.0</ele><time>2026-04-19T10:30:12Z</time></trkpt><trkpt lat="44.960311756736196" lon="12.3006528565634"><ele>-3.6666666666666665</ele><time>2026-04-19T10:30:13Z</time></trkpt><trkpt lat="44.96030286205539" lon="12.300368827585274"><ele>-3.333333333333333</ele><time>2026-04-19T10:30:14Z</time></trkpt><trkpt lat="44.96029305189602" lon="12.300083062642218"><ele>-3.0</ele><time>2026-04-19T10:30:15Z</time></trkpt><trkpt lat="44.960284786915416" lon="12.299793267995883"><ele>-3.333333333333333</ele><time>2026-04-19T10:30:16Z</time></trkpt><trkpt lat="44.9602760693558" lon="12.29949630732658"><ele>-3.6666666666666665</ele><time>2026-04-19T10:30:17Z</time></trkpt><trkpt lat="44.960268557929005" lon="12.299199861598018"><ele>-4.0</ele><time>2026-04-19T10:30:18Z</time></trkpt><trkpt lat="44.960266760215475" lon="12.298902279296065"><ele>-4.333333333333333</ele><time>2026-04-19T10:30:19Z</time></trkpt><trkpt lat="44.960274012273764" lon="12.298606641344692"><ele>-4.666666666666667</ele><time>2026-04-19T10:30:20Z</time></trkpt><trkpt lat="44.96028958026728" lon="12.298302083326146"><ele>-5.0</ele><time>2026-04-19T10:30:21Z</time></trkpt><trkpt lat="44.960316816274776" lon="12.298001328256749"><ele>-5.0</ele><time>2026-04-19T10:30:22Z</time></trkpt><trkpt lat="44.960357485933905" lon="12.297699534095088"><ele>-5.0</ele><time>2026-04-19T10:30:23Z</time></trkpt><trkpt lat="44.96040964288288" lon="12.297398184228365"><ele>-5.0</ele><time>2026-04-19T10:30:24Z</time></trkpt><trkpt lat="44.96047241382626" lon="12.29709650715157"><ele>-5.0</ele><time>2026-04-19T10:30:25Z</time></trkpt><trkpt lat="44.96054650298792" lon="12.296794243115386"><ele>-5.0</ele><time>2026-04-19T10:30:26Z</time></trkpt><trkpt lat="44.96063323817915" lon="12.296493668725345"><ele>-5.0</ele><time>2026-04-19T10:30:27Z</time></trkpt><trkpt lat="44.96073526331282" lon="12.296188522532027"><ele>-5.0</ele><time>2026-04-19T10:30:28Z</time></trkpt><trkpt lat="44.960850318764166" lon="12.295886375934504"><ele>-5.0</ele><time>2026-04-19T10:30:29Z</time></trkpt><trkpt lat="44.96097114751681" lon="12.295582534761024"><ele>-5.0</ele><time>2026-04-19T10:30:30Z</time></trkpt><trkpt lat="44.96110205228781" lon="12.295258290307718"><ele>-5.0</ele><time>2026-04-19T10:30:31Z</time></trkpt><trkpt lat="44.96122887384543" lon="12.294933147479357"><ele>-5.0</ele><time>2026-04-19T10:30:32Z</time></trkpt><trkpt lat="44.96135066362946" lon="12.294620630079928"><ele>-5.5</ele><time>2026-04-19T10:30:33Z</time></trkpt><trkpt lat="44.961468933412" lon="12.294316747299508"><ele>-6.0</ele><time>2026-04-19T10:30:34Z</time></trkpt><trkpt lat="44.96158359976954" lon="12.294018950213811"><ele>-6.0</ele><time>2026-04-19T10:30:35.001Z</time></trkpt><trkpt lat="44.96169491136498" lon="12.293727829134413"><ele>-6.0</ele><time>2026-04-19T10:30:36.001Z</time></trkpt><trkpt lat="44.96180587343519" lon="12.293442515589359"><ele>-5.666666666666667</ele><time>2026-04-19T10:30:37.001Z</time></trkpt><trkpt lat="44.961912850979175" lon="12.293165998291162"><ele>-5.333333333333334</ele><time>2026-04-19T10:30:38.001Z</time></trkpt><trkpt lat="44.962020676090766" lon="12.292888235307524"><ele>-5.0</ele><time>2026-04-19T10:30:39.001Z</time></trkpt><trkpt lat="44.96212908901295" lon="12.292610462808842"><ele>-5.0</ele><time>2026-04-19T10:30:40.001Z</time></trkpt><trkpt lat="44.96223933087913" lon="12.292330507139818"><ele>-5.0</ele><time>2026-04-19T10:30:41.001Z</time></trkpt><trkpt lat="44.96234953453736" lon="12.292052725896353"><ele>-5.0</ele><time>2026-04-19T10:30:42.001Z</time></trkpt><trkpt lat="44.96245786551434" lon="12.291778798619394"><ele>-5.0</ele><time>2026-04-19T10:30:43.001Z</time></trkpt><trkpt lat="44.96256545875783" lon="12.29150672942315"><ele>-5.0</ele><time>2026-04-19T10:30:44.001Z</time></trkpt><trkpt lat="44.96267110127841" lon="12.291238098512629"><ele>-5.0</ele><time>2026-04-19T10:30:45.001Z</time></trkpt><trkpt lat="44.96277574952631" lon="12.290966508975401"><ele>-5.0</ele><time>2026-04-19T10:30:46.001Z</time></trkpt><trkpt lat="44.96287882022628" lon="12.290697268192805"><ele>-5.0</ele><time>2026-04-19T10:30:47.001Z</time></trkpt><trkpt lat="44.96298292359924" lon="12.290430030562732"><ele>-5.0</ele><time>2026-04-19T10:30:48.001Z</time></trkpt><trkpt lat="44.963090093716424" lon="12.290155716483667"><ele>-5.0</ele><time>2026-04-19T10:30:49.001Z</time></trkpt><trkpt lat="44.963198741053546" lon="12.289878136283166"><ele>-5.0</ele><time>2026-04-19T10:30:50.001Z</time></trkpt><trkpt lat="44.96331087473265" lon="12.2895909757967"><ele>-5.0</ele><time>2026-04-19T10:30:51.001Z</time></trkpt><trkpt lat="44.96342334172469" lon="12.289302731251954"><ele>-5.0</ele><time>2026-04-19T10:30:52.001Z</time></trkpt><trkpt lat="44.96353406460167" lon="12.289018727447976"><ele>-5.0</ele><time>2026-04-19T10:30:53.001Z</time></trkpt><trkpt lat="44.96364562827704" lon="12.288736031952967"><ele>-5.0</ele><time>2026-04-19T10:30:54.001Z</time></trkpt><trkpt lat="44.96375826058619" lon="12.28845036762082"><ele>-5.0</ele><time>2026-04-19T10:30:55.001Z</time></trkpt><trkpt lat="44.963870092095114" lon="12.288165616799668"><ele>-5.0</ele><time>2026-04-19T10:30:56.001Z</time></trkpt><trkpt lat="44.963979839264184" lon="12.28788212255757"><ele>-5.0</ele><time>2026-04-19T10:30:57.001Z</time></trkpt><trkpt lat="44.96409021501496" lon="12.287596381267106"><ele>-5.0</ele><time>2026-04-19T10:30:58.001Z</time></trkpt><trkpt lat="44.964202607634384" lon="12.287309789167148"><ele>-5.0</ele><time>2026-04-19T10:30:59.001Z</time></trkpt><trkpt lat="44.96431658135927" lon="12.287020160795763"><ele>-5.0</ele><time>2026-04-19T10:31:00.001Z</time></trkpt><trkpt lat="44.96443070999751" lon="12.286728538455714"><ele>-5.0</ele><time>2026-04-19T10:31:01.001Z</time></trkpt><trkpt lat="44.96454293918385" lon="12.286439106753352"><ele>-5.0</ele><time>2026-04-19T10:31:02.001Z</time></trkpt><trkpt lat="44.964653659339746" lon="12.286154680924229"><ele>-5.5</ele><time>2026-04-19T10:31:03.001Z</time></trkpt><trkpt lat="44.96476281558359" lon="12.285875257045719"><ele>-6.0</ele><time>2026-04-19T10:31:04.001Z</time></trkpt><trkpt lat="44.964871621920196" lon="12.285596588075279"><ele>-5.0</ele><time>2026-04-19T10:31:05.001Z</time></trkpt><trkpt lat="44.96498075961634" lon="12.285315758248702"><ele>-4.0</ele><time>2026-04-19T10:31:06.001Z</time></trkpt><trkpt lat="44.96508900756011" lon="12.285034061561094"><ele>-4.0</ele><time>2026-04-19T10:31:07.001Z</time></trkpt><trkpt lat="44.965196653760344" lon="12.28475304095277"><ele>-4.0</ele><time>2026-04-19T10:31:08.001Z</time></trkpt><trkpt lat="44.965306554376724" lon="12.284472322457665"><ele>-4.0</ele><time>2026-04-19T10:31:09.001Z</time></trkpt><trkpt lat="44.96543579909714" lon="12.284204672091484"><ele>-4.0</ele><time>2026-04-19T10:31:10.001Z</time></trkpt><trkpt lat="44.96554743543014" lon="12.283918924908937"><ele>-4.5</ele><time>2026-04-19T10:31:11.001Z</time></trkpt><trkpt lat="44.965660530722595" lon="12.283629925119092"><ele>-5.0</ele><time>2026-04-19T10:31:12.001Z</time></trkpt><trkpt lat="44.96577489389052" lon="12.283337685526815"><ele>-4.5</ele><time>2026-04-19T10:31:13.001Z</time></trkpt><trkpt lat="44.96589089398658" lon="12.283041262955987"><ele>-4.0</ele><time>2026-04-19T10:31:14.001Z</time></trkpt><trkpt lat="44.966006641132964" lon="12.282744922710458"><ele>-4.0</ele><time>2026-04-19T10:31:15.001Z</time></trkpt><trkpt lat="44.96612087402981" lon="12.282451215426992"><ele>-4.0</ele><time>2026-04-19T10:31:16.001Z</time></trkpt><trkpt lat="44.9662371829139" lon="12.282152101277052"><ele>-4.0</ele><time>2026-04-19T10:31:17.001Z</time></trkpt><trkpt lat="44.966354327052" lon="12.281850839234718"><ele>-4.0</ele><time>2026-04-19T10:31:18.001Z</time></trkpt><trkpt lat="44.966465486230234" lon="12.28156496867269"><ele>-4.0</ele><time>2026-04-19T10:31:19.001Z</time></trkpt><trkpt lat="44.96657024592563" lon="12.28129555625893"><ele>-4.0</ele><time>2026-04-19T10:31:20.001Z</time></trkpt><trkpt lat="44.96667160327195" lon="12.281034893290466"><ele>-4.0</ele><time>2026-04-19T10:31:21.001Z</time></trkpt><trkpt lat="44.966773089173934" lon="12.280775762644367"><ele>-4.333333333333333</ele><time>2026-04-19T10:31:22.001Z</time></trkpt><trkpt lat="44.96686122190565" lon="12.280503261745304"><ele>-4.666666666666667</ele><time>2026-04-19T10:31:23.001Z</time></trkpt><trkpt lat="44.966966193497385" lon="12.280236357034704"><ele>-5.0</ele><time>2026-04-19T10:31:24.001Z</time></trkpt><trkpt lat="44.967088142709954" lon="12.27997326466856"><ele>-5.5</ele><time>2026-04-19T10:31:25.001Z</time></trkpt><trkpt lat="44.967198581936024" lon="12.279691956273703"><ele>-6.0</ele><time>2026-04-19T10:31:26.001Z</time></trkpt><trkpt lat="44.96729672018487" lon="12.27939333336189"><ele>-6.0</ele><time>2026-04-19T10:31:27.001Z</time></trkpt><trkpt lat="44.96741100771107" lon="12.279101154612542"><ele>-6.0</ele><time>2026-04-19T10:31:28.001Z</time></trkpt><trkpt lat="44.96752480978838" lon="12.27880660118294"><ele>-5.0</ele><time>2026-04-19T10:31:29.002Z</time></trkpt><trkpt lat="44.96764113596773" lon="12.278506493660121"><ele>-4.0</ele><time>2026-04-19T10:31:30.002Z</time></trkpt><trkpt lat="44.96775928524676" lon="12.278202351025907"><ele>-4.5</ele><time>2026-04-19T10:31:31.002Z</time></trkpt><trkpt lat="44.967877808375555" lon="12.27789645328093"><ele>-5.0</ele><time>2026-04-19T10:31:32.002Z</time></trkpt><trkpt lat="44.96799736567617" lon="12.277588955116013"><ele>-5.0</ele><time>2026-04-19T10:31:33.002Z</time></trkpt><trkpt lat="44.96811514567059" lon="12.277287689839147"><ele>-5.0</ele><time>2026-04-19T10:31:34.002Z</time></trkpt><trkpt lat="44.9682313212421" lon="12.276994145391827"><ele>-5.0</ele><time>2026-04-19T10:31:35.002Z</time></trkpt><trkpt lat="44.96834565165914" lon="12.276705644283322"><ele>-5.0</ele><time>2026-04-19T10:31:36.002Z</time></trkpt><trkpt lat="44.968459357693085" lon="12.276418394500924"><ele>-5.0</ele><time>2026-04-19T10:31:37.002Z</time></trkpt><trkpt lat="44.96857164501376" lon="12.276132277900698"><ele>-5.0</ele><time>2026-04-19T10:31:38.002Z</time></trkpt><trkpt lat="44.968682333645994" lon="12.27584975094156"><ele>-4.666666666666667</ele><time>2026-04-19T10:31:39.002Z</time></trkpt><trkpt lat="44.9687928428356" lon="12.27557171708015"><ele>-4.333333333333333</ele><time>2026-04-19T10:31:40.002Z</time></trkpt><trkpt lat="44.96890335177062" lon="12.275299822098766"><ele>-4.0</ele><time>2026-04-19T10:31:41.002Z</time></trkpt><trkpt lat="44.969017385280466" lon="12.275029677137157"><ele>-4.0</ele><time>2026-04-19T10:31:42.002Z</time></trkpt><trkpt lat="44.96913672795301" lon="12.274765640459275"><ele>-4.0</ele><time>2026-04-19T10:31:43.002Z</time></trkpt><trkpt lat="44.96926269966124" lon="12.274510173832796"><ele>-4.0</ele><time>2026-04-19T10:31:44.002Z</time></trkpt><trkpt lat="44.96939500591285" lon="12.274255357737648"><ele>-4.0</ele><time>2026-04-19T10:31:45.002Z</time></trkpt><trkpt lat="44.96953466193068" lon="12.274002260649985"><ele>-4.0</ele><time>2026-04-19T10:31:46.002Z</time></trkpt><trkpt lat="44.969683925993614" lon="12.273756508286908"><ele>-5.0</ele><time>2026-04-19T10:31:47.002Z</time></trkpt><trkpt lat="44.96984381495598" lon="12.273512430020537"><ele>-6.0</ele><time>2026-04-19T10:31:48.002Z</time></trkpt><trkpt lat="44.970010491440604" lon="12.27327651716995"><ele>-6.0</ele><time>2026-04-19T10:31:49.002Z</time></trkpt><trkpt lat="44.970182673945935" lon="12.273046837888604"><ele>-6.0</ele><time>2026-04-19T10:31:50.002Z</time></trkpt><trkpt lat="44.97035631608856" lon="12.272819190343073"><ele>-6.0</ele><time>2026-04-19T10:31:51.002Z</time></trkpt><trkpt lat="44.97053190884412" lon="12.272585197178762"><ele>-6.0</ele><time>2026-04-19T10:31:52.002Z</time></trkpt><trkpt lat="44.970708620514436" lon="12.27235078433648"><ele>-5.5</ele><time>2026-04-19T10:31:53.002Z</time></trkpt><trkpt lat="44.97088508682764" lon="12.27211529534519"><ele>-5.0</ele><time>2026-04-19T10:31:54.002Z</time></trkpt><trkpt lat="44.97106268167289" lon="12.271877340695378"><ele>-5.0</ele><time>2026-04-19T10:31:55.002Z</time></trkpt><trkpt lat="44.9712396847257" lon="12.271642246467115"><ele>-5.0</ele><time>2026-04-19T10:31:56Z</time></trkpt><trkpt lat="44.97141804561505" lon="12.271407350163543"><ele>-5.0</ele><time>2026-04-19T10:31:57Z</time></trkpt><trkpt lat="44.97159744135179" lon="12.271170116544951"><ele>-5.0</ele><time>2026-04-19T10:31:58Z</time></trkpt><trkpt lat="44.971775584141874" lon="12.270935235256612"><ele>-4.5</ele><time>2026-04-19T10:31:59Z</time></trkpt><trkpt lat="44.97195289328262" lon="12.270701635516865"><ele>-4.0</ele><time>2026-04-19T10:32:00Z</time></trkpt><trkpt lat="44.9721298217423" lon="12.270466624803534"><ele>-4.0</ele><time>2026-04-19T10:32:01Z</time></trkpt><trkpt lat="44.97230824689167" lon="12.270231157504504"><ele>-4.0</ele><time>2026-04-19T10:32:02Z</time></trkpt><trkpt lat="44.97248608026812" lon="12.269996005214667"><ele>-4.0</ele><time>2026-04-19T10:32:03Z</time></trkpt><trkpt lat="44.972663583938434" lon="12.269760368113499"><ele>-4.0</ele><time>2026-04-19T10:32:04Z</time></trkpt><trkpt lat="44.97284137575122" lon="12.26952550302534"><ele>-4.0</ele><time>2026-04-19T10:32:05Z</time></trkpt><trkpt lat="44.97301902248402" lon="12.269291146113941"><ele>-4.0</ele><time>2026-04-19T10:32:06Z</time></trkpt><trkpt lat="44.9731982892934" lon="12.269051843473035"><ele>-3.5</ele><time>2026-04-19T10:32:07Z</time></trkpt><trkpt lat="44.97337696423151" lon="12.268813273426593"><ele>-3.0</ele><time>2026-04-19T10:32:08Z</time></trkpt><trkpt lat="44.9735550045731" lon="12.268575314291864"><ele>-3.0</ele><time>2026-04-19T10:32:09Z</time></trkpt><trkpt lat="44.97373203901598" lon="12.268339959235592"><ele>-3.0</ele><time>2026-04-19T10:32:10Z</time></trkpt><trkpt lat="44.97390882671919" lon="12.268108572196413"><ele>-3.0</ele><time>2026-04-19T10:32:11Z</time></trkpt><trkpt lat="44.9740851879062" lon="12.267874925558994"><ele>-3.0</ele><time>2026-04-19T10:32:12Z</time></trkpt><trkpt lat="44.97426075290579" lon="12.267640421945034"><ele>-3.0</ele><time>2026-04-19T10:32:13Z</time></trkpt><trkpt lat="44.974434329218816" lon="12.267409165360222"><ele>-3.0</ele><time>2026-04-19T10:32:14Z</time></trkpt><trkpt lat="44.974609437919035" lon="12.267180002466748"><ele>-3.0</ele><time>2026-04-19T10:32:15Z</time></trkpt><trkpt lat="44.97478549246754" lon="12.266950847140988"><ele>-3.0</ele><time>2026-04-19T10:32:16Z</time></trkpt><trkpt lat="44.97496060214547" lon="12.266720553455894"><ele>-4.0</ele><time>2026-04-19T10:32:17Z</time></trkpt><trkpt lat="44.97513663582861" lon="12.266487783935343"><ele>-5.0</ele><time>2026-04-19T10:32:18Z</time></trkpt><trkpt lat="44.97531441103519" lon="12.266253804666187"><ele>-5.0</ele><time>2026-04-19T10:32:19Z</time></trkpt><trkpt lat="44.97549370701378" lon="12.266015765607893"><ele>-5.0</ele><time>2026-04-19T10:32:20Z</time></trkpt><trkpt lat="44.97567415109548" lon="12.265773965510233"><ele>-4.5</ele><time>2026-04-19T10:32:21Z</time></trkpt><trkpt lat="44.975863824679834" lon="12.265519661763502"><ele>-4.0</ele><time>2026-04-19T10:32:22Z</time></trkpt><trkpt lat="44.976065523630346" lon="12.265251723736188"><ele>-4.0</ele><time>2026-04-19T10:32:23Z</time></trkpt><trkpt lat="44.97626622192237" lon="12.264985996166171"><ele>-4.0</ele><time>2026-04-19T10:32:24Z</time></trkpt><trkpt lat="44.9764617532301" lon="12.2647278544585"><ele>-4.0</ele><time>2026-04-19T10:32:25Z</time></trkpt><trkpt lat="44.97665488565344" lon="12.264471561700871"><ele>-4.0</ele><time>2026-04-19T10:32:26Z</time></trkpt><trkpt lat="44.976845105835096" lon="12.264220148226443"><ele>-3.5</ele><time>2026-04-19T10:32:27Z</time></trkpt><trkpt lat="44.97703034899864" lon="12.263974416586501"><ele>-3.0</ele><time>2026-04-19T10:32:28Z</time></trkpt><trkpt lat="44.97721330764223" lon="12.263732805727672"><ele>-3.0</ele><time>2026-04-19T10:32:29Z</time></trkpt><trkpt lat="44.977393233166964" lon="12.263494564517515"><ele>-3.0</ele><time>2026-04-19T10:32:30Z</time></trkpt><trkpt lat="44.977569983177794" lon="12.263262699766539"><ele>-4.0</ele><time>2026-04-19T10:32:31Z</time></trkpt><trkpt lat="44.977744476855534" lon="12.26303202115902"><ele>-5.0</ele><time>2026-04-19T10:32:32Z</time></trkpt><trkpt lat="44.97792116047322" lon="12.2627993052548"><ele>-5.0</ele><time>2026-04-19T10:32:33Z</time></trkpt><trkpt lat="44.97809698646012" lon="12.262567460235998"><ele>-5.0</ele><time>2026-04-19T10:32:34Z</time></trkpt><trkpt lat="44.97827496454081" lon="12.26233136512273"><ele>-5.5</ele><time>2026-04-19T10:32:35Z</time></trkpt><trkpt lat="44.9784533538949" lon="12.262093037097044"><ele>-6.0</ele><time>2026-04-19T10:32:36Z</time></trkpt><trkpt lat="44.97863299940563" lon="12.261854019210654"><ele>-6.0</ele><time>2026-04-19T10:32:37Z</time></trkpt><trkpt lat="44.978813869609255" lon="12.261612853254132"><ele>-6.0</ele><time>2026-04-19T10:32:38Z</time></trkpt><trkpt lat="44.978996105648804" lon="12.261370138564857"><ele>-5.5</ele><time>2026-04-19T10:32:39Z</time></trkpt><trkpt lat="44.97918150713732" lon="12.26112504627365"><ele>-5.0</ele><time>2026-04-19T10:32:40Z</time></trkpt><trkpt lat="44.97936523288059" lon="12.260881662352286"><ele>-4.5</ele><time>2026-04-19T10:32:41Z</time></trkpt><trkpt lat="44.97954976002921" lon="12.260636100267982"><ele>-4.0</ele><time>2026-04-19T10:32:42Z</time></trkpt><trkpt lat="44.97973025699417" lon="12.260396455481596"><ele>-4.0</ele><time>2026-04-19T10:32:43.001Z</time></trkpt><trkpt lat="44.979908791527215" lon="12.260161822315666"><ele>-4.0</ele><time>2026-04-19T10:32:44.001Z</time></trkpt><trkpt lat="44.9800854584412" lon="12.25992993980985"><ele>-4.5</ele><time>2026-04-19T10:32:45.001Z</time></trkpt><trkpt lat="44.98025833407902" lon="12.25970171711559"><ele>-5.0</ele><time>2026-04-19T10:32:46.001Z</time></trkpt><trkpt lat="44.98042996878435" lon="12.259474948128092"><ele>-5.0</ele><time>2026-04-19T10:32:47.001Z</time></trkpt><trkpt lat="44.98060080807626" lon="12.259251391837207"><ele>-5.0</ele><time>2026-04-19T10:32:48.001Z</time></trkpt><trkpt lat="44.980770705500646" lon="12.259027883228944"><ele>-4.5</ele><time>2026-04-19T10:32:49.001Z</time></trkpt><trkpt lat="44.980940456111966" lon="12.258803119554296"><ele>-4.0</ele><time>2026-04-19T10:32:50.001Z</time></trkpt><trkpt lat="44.981112458877256" lon="12.25857365043886"><ele>-4.0</ele><time>2026-04-19T10:32:51.001Z</time></trkpt><trkpt lat="44.98128466600026" lon="12.258343504941571"><ele>-4.0</ele><time>2026-04-19T10:32:52.001Z</time></trkpt><trkpt lat="44.98145601410725" lon="12.25811550366957"><ele>-3.5</ele><time>2026-04-19T10:32:53.001Z</time></trkpt><trkpt lat="44.98162960202817" lon="12.257890831575567"><ele>-3.0</ele><time>2026-04-19T10:32:54.001Z</time></trkpt><trkpt lat="44.981804856302546" lon="12.257673158116221"><ele>-4.0</ele><time>2026-04-19T10:32:55.001Z</time></trkpt><trkpt lat="44.98198342200605" lon="12.257465316925492"><ele>-5.0</ele><time>2026-04-19T10:32:56.001Z</time></trkpt><trkpt lat="44.98216874337139" lon="12.257265025517347"><ele>-5.0</ele><time>2026-04-19T10:32:57.001Z</time></trkpt><trkpt lat="44.98235935845183" lon="12.257074232351046"><ele>-5.0</ele><time>2026-04-19T10:32:58.001Z</time></trkpt><trkpt lat="44.982557434202306" lon="12.256894977692323"><ele>-4.5</ele><time>2026-04-19T10:32:59.001Z</time></trkpt><trkpt lat="44.98275880914168" lon="12.256731046832357"><ele>-4.0</ele><time>2026-04-19T10:33:00.001Z</time></trkpt><trkpt lat="44.98296285445299" lon="12.25658368878656"><ele>-4.0</ele><time>2026-04-19T10:33:01.001Z</time></trkpt><trkpt lat="44.98315889786799" lon="12.256454936748712"><ele>-4.0</ele><time>2026-04-19T10:33:02.001Z</time></trkpt><trkpt lat="44.983338989216506" lon="12.256346151519166"><ele>-4.0</ele><time>2026-04-19T10:33:03.001Z</time></trkpt><trkpt lat="44.98350997303019" lon="12.25625288519345"><ele>-4.333333333333333</ele><time>2026-04-19T10:33:04.001Z</time></trkpt><trkpt lat="44.98368333357168" lon="12.256169399328265"><ele>-4.666666666666667</ele><time>2026-04-19T10:33:05.001Z</time></trkpt><trkpt lat="44.98386407783737" lon="12.256093556861387"><ele>-5.0</ele><time>2026-04-19T10:33:06.001Z</time></trkpt><trkpt lat="44.98404802357533" lon="12.256027144786021"><ele>-4.666666666666667</ele><time>2026-04-19T10:33:07.001Z</time></trkpt><trkpt lat="44.984229032822924" lon="12.255968844758575"><ele>-4.333333333333333</ele><time>2026-04-19T10:33:08.001Z</time></trkpt><trkpt lat="44.984406448011676" lon="12.255917274569672"><ele>-4.0</ele><time>2026-04-19T10:33:09.001Z</time></trkpt><trkpt lat="44.984578991947664" lon="12.25586784219851"><ele>-4.0</ele><time>2026-04-19T10:33:10.001Z</time></trkpt><trkpt lat="44.98475343377953" lon="12.255818164766852"><ele>-4.0</ele><time>2026-04-19T10:33:11.001Z</time></trkpt><trkpt lat="44.98492927907353" lon="12.255764690419566"><ele>-4.0</ele><time>2026-04-19T10:33:12.001Z</time></trkpt><trkpt lat="44.98510830041368" lon="12.255708937886782"><ele>-4.333333333333333</ele><time>2026-04-19T10:33:13.001Z</time></trkpt><trkpt lat="44.98528943736529" lon="12.255650283766983"><ele>-4.666666666666667</ele><time>2026-04-19T10:33:14.001Z</time></trkpt><trkpt lat="44.985475237446956" lon="12.255593836269304"><ele>-5.0</ele><time>2026-04-19T10:33:15.001Z</time></trkpt><trkpt lat="44.98566477094293" lon="12.255535614769473"><ele>-5.0</ele><time>2026-04-19T10:33:16.001Z</time></trkpt><trkpt lat="44.98585640700025" lon="12.255477522959431"><ele>-5.0</ele><time>2026-04-19T10:33:17.001Z</time></trkpt><trkpt lat="44.9860501279543" lon="12.255419084836108"><ele>-5.0</ele><time>2026-04-19T10:33:18.001Z</time></trkpt><trkpt lat="44.98624033188281" lon="12.25536288855453"><ele>-5.0</ele><time>2026-04-19T10:33:19.001Z</time></trkpt><trkpt lat="44.98642946497343" lon="12.255308609677577"><ele>-5.0</ele><time>2026-04-19T10:33:20.001Z</time></trkpt><trkpt lat="44.986616216866565" lon="12.255254695514312"><ele>-5.0</ele><time>2026-04-19T10:33:21.001Z</time></trkpt><trkpt lat="44.986801491027315" lon="12.25519913893995"><ele>-5.333333333333334</ele><time>2026-04-19T10:33:22.001Z</time></trkpt><trkpt lat="44.98698402469312" lon="12.255142284270216"><ele>-5.666666666666667</ele><time>2026-04-19T10:33:23.001Z</time></trkpt><trkpt lat="44.987165018673906" lon="12.255086381976957"><ele>-6.0</ele><time>2026-04-19T10:33:24.001Z</time></trkpt><trkpt lat="44.98734402670441" lon="12.255030391339961"><ele>-5.333333333333333</ele><time>2026-04-19T10:33:25.001Z</time></trkpt><trkpt lat="44.987521762059046" lon="12.254974074273314"><ele>-4.666666666666666</ele><time>2026-04-19T10:33:26.001Z</time></trkpt><trkpt lat="44.987698095914496" lon="12.254920892511304"><ele>-4.0</ele><time>2026-04-19T10:33:27.001Z</time></trkpt><trkpt lat="44.9878745867421" lon="12.254869513914892"><ele>-4.0</ele><time>2026-04-19T10:33:28.001Z</time></trkpt><trkpt lat="44.9880538388" lon="12.254815814119095"><ele>-4.0</ele><time>2026-04-19T10:33:29.001Z</time></trkpt><trkpt lat="44.988237761199535" lon="12.254759657675516"><ele>-4.0</ele><time>2026-04-19T10:33:30.001Z</time></trkpt><trkpt lat="44.98842355273049" lon="12.254702808480701"><ele>-4.666666666666666</ele><time>2026-04-19T10:33:31.001Z</time></trkpt><trkpt lat="44.98861127576817" lon="12.254646388117655"><ele>-5.333333333333333</ele><time>2026-04-19T10:33:32.001Z</time></trkpt><trkpt lat="44.988801401556174" lon="12.254589916578452"><ele>-6.0</ele><time>2026-04-19T10:33:33.001Z</time></trkpt><trkpt lat="44.988993634860286" lon="12.254532983351858"><ele>-6.0</ele><time>2026-04-19T10:33:34.001Z</time></trkpt><trkpt lat="44.98918748102966" lon="12.254475097695387"><ele>-6.0</ele><time>2026-04-19T10:33:35.002Z</time></trkpt><trkpt lat="44.98938585292974" lon="12.254415929861597"><ele>-6.0</ele><time>2026-04-19T10:33:36.002Z</time></trkpt><trkpt lat="44.989586734229725" lon="12.2543537243571"><ele>-6.0</ele><time>2026-04-19T10:33:37.002Z</time></trkpt><trkpt lat="44.98979374118982" lon="12.25429081520904"><ele>-6.0</ele><time>2026-04-19T10:33:38.002Z</time></trkpt><trkpt lat="44.990008534994686" lon="12.254226003645009"><ele>-6.0</ele><time>2026-04-19T10:33:39.002Z</time></trkpt><trkpt lat="44.99023592706923" lon="12.254158053394095"><ele>-5.0</ele><time>2026-04-19T10:33:40.002Z</time></trkpt><trkpt lat="44.9904849789409" lon="12.254083601243641"><ele>-4.0</ele><time>2026-04-19T10:33:41.002Z</time></trkpt><trkpt lat="44.99074577682727" lon="12.254003214586602"><ele>-4.5</ele><time>2026-04-19T10:33:42.002Z</time></trkpt><trkpt lat="44.991008305853896" lon="12.253922536129993"><ele>-5.0</ele><time>2026-04-19T10:33:43.002Z</time></trkpt><trkpt lat="44.991265842938176" lon="12.253845549610396"><ele>-5.0</ele><time>2026-04-19T10:33:44.002Z</time></trkpt><trkpt lat="44.99151880264218" lon="12.253768075175005"><ele>-5.0</ele><time>2026-04-19T10:33:45.002Z</time></trkpt><trkpt lat="44.99177038625824" lon="12.25369065701169"><ele>-5.5</ele><time>2026-04-19T10:33:46.002Z</time></trkpt><trkpt lat="44.9920207242474" lon="12.25361543542564"><ele>-6.0</ele><time>2026-04-19T10:33:47.002Z</time></trkpt><trkpt lat="44.99226941398144" lon="12.253540427924722"><ele>-6.0</ele><time>2026-04-19T10:33:48.002Z</time></trkpt><trkpt lat="44.992517273484864" lon="12.253464069272898"><ele>-6.0</ele><time>2026-04-19T10:33:49.002Z</time></trkpt><trkpt lat="44.99276588071665" lon="12.253388353531967"><ele>-6.0</ele><time>2026-04-19T10:33:50.002Z</time></trkpt><trkpt lat="44.99301309136537" lon="12.253314157684793"><ele>-6.0</ele><time>2026-04-19T10:33:51.002Z</time></trkpt><trkpt lat="44.99325890901803" lon="12.253240654619761"><ele>-5.5</ele><time>2026-04-19T10:33:52.002Z</time></trkpt><trkpt lat="44.99350624780614" lon="12.253166566992045"><ele>-5.0</ele><time>2026-04-19T10:33:53.002Z</time></trkpt><trkpt lat="44.99375464655472" lon="12.253091083053256"><ele>-5.0</ele><time>2026-04-19T10:33:54.002Z</time></trkpt><trkpt lat="44.99400445980745" lon="12.253015916266286"><ele>-5.0</ele><time>2026-04-19T10:33:55.002Z</time></trkpt><trkpt lat="44.994254497506454" lon="12.252943008832814"><ele>-4.5</ele><time>2026-04-19T10:33:56.002Z</time></trkpt><trkpt lat="44.99450300643866" lon="12.252869110602582"><ele>-4.0</ele><time>2026-04-19T10:33:57.002Z</time></trkpt><trkpt lat="44.99474602422923" lon="12.252795109270652"><ele>-4.0</ele><time>2026-04-19T10:33:58.002Z</time></trkpt><trkpt lat="44.994984875672934" lon="12.252721425739809"><ele>-4.0</ele><time>2026-04-19T10:33:59.002Z</time></trkpt><trkpt lat="44.99522259155258" lon="12.252646644300597"><ele>-3.5</ele><time>2026-04-19T10:34:00.002Z</time></trkpt><trkpt lat="44.995455536642595" lon="12.252574076533724"><ele>-3.0</ele><time>2026-04-19T10:34:01.002Z</time></trkpt><trkpt lat="44.995686434786016" lon="12.252502695955625"><ele>-3.0</ele><time>2026-04-19T10:34:02Z</time></trkpt><trkpt lat="44.99591668437409" lon="12.252432183542606"><ele>-3.0</ele><time>2026-04-19T10:34:03Z</time></trkpt><trkpt lat="44.996142893154754" lon="12.252363626930553"><ele>-3.0</ele><time>2026-04-19T10:34:04Z</time></trkpt><trkpt lat="44.996364586647424" lon="12.252297271611933"><ele>-3.0</ele><time>2026-04-19T10:34:05Z</time></trkpt><trkpt lat="44.99658518858827" lon="12.252230972948592"><ele>-4.0</ele><time>2026-04-19T10:34:06Z</time></trkpt><trkpt lat="44.99680502306972" lon="12.252163759401542"><ele>-5.0</ele><time>2026-04-19T10:34:07Z</time></trkpt><trkpt lat="44.997024552858456" lon="12.252095871555309"><ele>-5.0</ele><time>2026-04-19T10:34:08Z</time></trkpt><trkpt lat="44.997243913418096" lon="12.252029024749428"><ele>-5.0</ele><time>2026-04-19T10:34:09Z</time></trkpt><trkpt lat="44.99746043111506" lon="12.251963725540676"><ele>-5.0</ele><time>2026-04-19T10:34:10Z</time></trkpt><trkpt lat="44.99767529723148" lon="12.251899323097234"><ele>-5.333333333333334</ele><time>2026-04-19T10:34:11Z</time></trkpt><trkpt lat="44.99788769349765" lon="12.251835315233066"><ele>-5.666666666666667</ele><time>2026-04-19T10:34:12Z</time></trkpt><trkpt lat="44.998096998039394" lon="12.251772526541675"><ele>-6.0</ele><time>2026-04-19T10:34:13Z</time></trkpt><trkpt lat="44.998308571697265" lon="12.251709159886396"><ele>-5.333333333333333</ele><time>2026-04-19T10:34:14Z</time></trkpt><trkpt lat="44.998520723302256" lon="12.251645127925093"><ele>-4.666666666666666</ele><time>2026-04-19T10:34:15Z</time></trkpt><trkpt lat="44.99872717173328" lon="12.251584099226207"><ele>-4.0</ele><time>2026-04-19T10:34:16Z</time></trkpt><trkpt lat="44.99893280492909" lon="12.25151898463487"><ele>-4.0</ele><time>2026-04-19T10:34:17Z</time></trkpt><trkpt lat="44.99913378267543" lon="12.251451965652647"><ele>-4.0</ele><time>2026-04-19T10:34:18Z</time></trkpt><trkpt lat="44.99933493655503" lon="12.25137894054181"><ele>-4.0</ele><time>2026-04-19T10:34:19Z</time></trkpt><trkpt lat="44.999538852951964" lon="12.25129968487073"><ele>-4.666666666666666</ele><time>2026-04-19T10:34:20Z</time></trkpt><trkpt lat="44.99974619094016" lon="12.251212206165638"><ele>-5.333333333333333</ele><time>2026-04-19T10:34:21Z</time></trkpt><trkpt lat="44.999958572451014" lon="12.251116486606414"><ele>-6.0</ele><time>2026-04-19T10:34:22Z</time></trkpt><trkpt lat="45.00017219872598" lon="12.251011986772081"><ele>-6.0</ele><time>2026-04-19T10:34:23Z</time></trkpt><trkpt lat="45.000386437377365" lon="12.250898364428643"><ele>-6.0</ele><time>2026-04-19T10:34:24Z</time></trkpt><trkpt lat="45.0006025957264" lon="12.250782245900751"><ele>-6.0</ele><time>2026-04-19T10:34:25Z</time></trkpt><trkpt lat="45.00081792823523" lon="12.250668637367541"><ele>-6.0</ele><time>2026-04-19T10:34:26Z</time></trkpt><trkpt lat="45.00103168668199" lon="12.250555170529147"><ele>-5.666666666666667</ele><time>2026-04-19T10:34:27Z</time></trkpt><trkpt lat="45.00124307229301" lon="12.250440206877473"><ele>-5.333333333333334</ele><time>2026-04-19T10:34:28Z</time></trkpt><trkpt lat="45.00144338025966" lon="12.250327688560246"><ele>-5.0</ele><time>2026-04-19T10:34:29Z</time></trkpt><trkpt lat="45.00163601344964" lon="12.250223449857542"><ele>-5.666666666666667</ele><time>2026-04-19T10:34:30Z</time></trkpt><trkpt lat="45.001827840332" lon="12.250120933476662"><ele>-6.333333333333334</ele><time>2026-04-19T10:34:31Z</time></trkpt><trkpt lat="45.00201672335282" lon="12.250023443890818"><ele>-7.0</ele><time>2026-04-19T10:34:32Z</time></trkpt><trkpt lat="45.0022056046425" lon="12.249921257064601"><ele>-7.0</ele><time>2026-04-19T10:34:33Z</time></trkpt><trkpt lat="45.00239424674619" lon="12.249823335757275"><ele>-7.0</ele><time>2026-04-19T10:34:34Z</time></trkpt><trkpt lat="45.00258072933546" lon="12.249729612972509"><ele>-7.0</ele><time>2026-04-19T10:34:35Z</time></trkpt><trkpt lat="45.00276348439903" lon="12.249627950755805"><ele>-6.666666666666667</ele><time>2026-04-19T10:34:36Z</time></trkpt><trkpt lat="45.00293911647313" lon="12.24952557952994"><ele>-6.333333333333334</ele><time>2026-04-19T10:34:37Z</time></trkpt><trkpt lat="45.00311034744904" lon="12.24942696064401"><ele>-6.0</ele><time>2026-04-19T10:34:38Z</time></trkpt><trkpt lat="45.00327360689234" lon="12.249326893145993"><ele>-5.333333333333333</ele><time>2026-04-19T10:34:39Z</time></trkpt><trkpt lat="45.00342589732229" lon="12.249228530364196"><ele>-4.666666666666666</ele><time>2026-04-19T10:34:40Z</time></trkpt><trkpt lat="45.00357490363334" lon="12.249142878146353"><ele>-4.0</ele><time>2026-04-19T10:34:41Z</time></trkpt><trkpt lat="45.00381158230336" lon="12.249064361366845"><ele>-4.0</ele><time>2026-04-19T10:34:42Z</time></trkpt><trkpt lat="45.00392927983446" lon="12.24900035791667"><ele>-4.0</ele><time>2026-04-19T10:34:43Z</time></trkpt><trkpt lat="45.004027826497506" lon="12.248948882864656"><ele>-4.0</ele><time>2026-04-19T10:34:44Z</time></trkpt><trkpt lat="45.004121308455304" lon="12.248898312771216"><ele>-4.0</ele><time>2026-04-19T10:34:45Z</time></trkpt><trkpt lat="45.00420342780185" lon="12.248854504978208"><ele>-4.0</ele><time>2026-04-19T10:34:46Z</time></trkpt><trkpt lat="45.00426820200145" lon="12.248821220005688"><ele>-4.0</ele><time>2026-04-19T10:34:47Z</time></trkpt><trkpt lat="45.00435617459892" lon="12.24877972050809"><ele>-4.0</ele><time>2026-04-19T10:34:49Z</time></trkpt><trkpt lat="45.00440814724616" lon="12.248852952747098"><ele>-4.0</ele><time>2026-04-19T10:34:51Z</time></trkpt><trkpt lat="45.004438765921485" lon="12.249031792698307"><ele>-4.0</ele><time>2026-04-19T10:34:53.001Z</time></trkpt><trkpt lat="45.00445789357679" lon="12.249157595666121"><ele>-4.0</ele><time>2026-04-19T10:34:54.001Z</time></trkpt><trkpt lat="45.004478287642236" lon="12.249295867458352"><ele>-3.75</ele><time>2026-04-19T10:34:55.001Z</time></trkpt><trkpt lat="45.00450842700358" lon="12.249460156989908"><ele>-3.5</ele><time>2026-04-19T10:34:56.001Z</time></trkpt><trkpt lat="45.00454685786526" lon="12.249646426222265"><ele>-3.25</ele><time>2026-04-19T10:34:57.001Z</time></trkpt><trkpt lat="45.00459004173153" lon="12.249850222117974"><ele>-3.0</ele><time>2026-04-19T10:34:58.001Z</time></trkpt><trkpt lat="45.004638163762934" lon="12.250054799362116"><ele>-3.0</ele><time>2026-04-19T10:34:59.001Z</time></trkpt><trkpt lat="45.0046880968494" lon="12.250266641646617"><ele>-3.0</ele><time>2026-04-19T10:35:00.001Z</time></trkpt><trkpt lat="45.00473989674156" lon="12.250486048799585"><ele>-3.0</ele><time>2026-04-19T10:35:01.001Z</time></trkpt><trkpt lat="45.00478875976653" lon="12.250706984320761"><ele>-2.3333333333333335</ele><time>2026-04-19T10:35:02.001Z</time></trkpt><trkpt lat="45.004831945391174" lon="12.250936829309087"><ele>-1.6666666666666665</ele><time>2026-04-19T10:35:03.001Z</time></trkpt><trkpt lat="45.004876832926065" lon="12.251172917482776"><ele>-1.0</ele><time>2026-04-19T10:35:04.001Z</time></trkpt><trkpt lat="45.0049312818381" lon="12.251413376954552"><ele>-1.6666666666666665</ele><time>2026-04-19T10:35:05.001Z</time></trkpt><trkpt lat="45.00498102741704" lon="12.251656021081406"><ele>-2.3333333333333335</ele><time>2026-04-19T10:35:06.001Z</time></trkpt><trkpt lat="45.00503285298921" lon="12.251888948986949"><ele>-3.0</ele><time>2026-04-19T10:35:07.001Z</time></trkpt><trkpt lat="45.0050871260317" lon="12.25213219654911"><ele>-3.333333333333333</ele><time>2026-04-19T10:35:08.001Z</time></trkpt><trkpt lat="45.005145472021" lon="12.252385114548133"><ele>-3.6666666666666665</ele><time>2026-04-19T10:35:09.001Z</time></trkpt><trkpt lat="45.00520326303917" lon="12.252643384363218"><ele>-4.0</ele><time>2026-04-19T10:35:10.001Z</time></trkpt><trkpt lat="45.00525718936766" lon="12.252908000706109"><ele>-4.0</ele><time>2026-04-19T10:35:11.001Z</time></trkpt><trkpt lat="45.00531755445921" lon="12.253188931088962"><ele>-4.0</ele><time>2026-04-19T10:35:12.001Z</time></trkpt><trkpt lat="45.00537713792479" lon="12.253491787304245"><ele>-4.0</ele><time>2026-04-19T10:35:13.001Z</time></trkpt><trkpt lat="45.00543779934089" lon="12.25378684170287"><ele>-4.5</ele><time>2026-04-19T10:35:14.001Z</time></trkpt><trkpt lat="45.005503892479524" lon="12.25411201704077"><ele>-5.0</ele><time>2026-04-19T10:35:15.001Z</time></trkpt><trkpt lat="45.00556936518358" lon="12.254405724315053"><ele>-5.0</ele><time>2026-04-19T10:35:16.001Z</time></trkpt><trkpt lat="45.00563473661611" lon="12.254698047215914"><ele>-5.0</ele><time>2026-04-19T10:35:17.001Z</time></trkpt><trkpt lat="45.00569641592038" lon="12.254986100349607"><ele>-5.0</ele><time>2026-04-19T10:35:18.001Z</time></trkpt><trkpt lat="45.00575652129203" lon="12.255263274293052"><ele>-5.0</ele><time>2026-04-19T10:35:19.001Z</time></trkpt><trkpt lat="45.00581368219403" lon="12.255531869764646"><ele>-5.0</ele><time>2026-04-19T10:35:20.001Z</time></trkpt><trkpt lat="45.005869560404655" lon="12.25580056886628"><ele>-5.0</ele><time>2026-04-19T10:35:21.001Z</time></trkpt><trkpt lat="45.00592531185417" lon="12.256059972747911"><ele>-5.0</ele><time>2026-04-19T10:35:22.001Z</time></trkpt><trkpt lat="45.00598246342612" lon="12.25632041503792"><ele>-5.0</ele><time>2026-04-19T10:35:23.001Z</time></trkpt><trkpt lat="45.006041402652606" lon="12.256585225670161"><ele>-5.0</ele><time>2026-04-19T10:35:24.001Z</time></trkpt><trkpt lat="45.00610008572186" lon="12.256852578343151"><ele>-5.0</ele><time>2026-04-19T10:35:25.001Z</time></trkpt><trkpt lat="45.00616022848975" lon="12.257126411640636"><ele>-5.0</ele><time>2026-04-19T10:35:26.001Z</time></trkpt><trkpt lat="45.00621773058526" lon="12.257392206041635"><ele>-5.0</ele><time>2026-04-19T10:35:27.001Z</time></trkpt><trkpt lat="45.00627519783363" lon="12.257656284872258"><ele>-4.666666666666667</ele><time>2026-04-19T10:35:28.001Z</time></trkpt><trkpt lat="45.00633048296869" lon="12.257917790393954"><ele>-4.333333333333333</ele><time>2026-04-19T10:35:29.001Z</time></trkpt><trkpt lat="45.006382814651815" lon="12.258176075282575"><ele>-4.0</ele><time>2026-04-19T10:35:30.001Z</time></trkpt><trkpt lat="45.00643647993177" lon="12.258435783209828"><ele>-4.0</ele><time>2026-04-19T10:35:31.001Z</time></trkpt><trkpt lat="45.00649405064999" lon="12.258697758644006"><ele>-4.0</ele><time>2026-04-19T10:35:32.001Z</time></trkpt><trkpt lat="45.006553538871195" lon="12.258968487575185"><ele>-4.0</ele><time>2026-04-19T10:35:33.001Z</time></trkpt><trkpt lat="45.00661582775364" lon="12.25924678773811"><ele>-4.333333333333333</ele><time>2026-04-19T10:35:34.001Z</time></trkpt><trkpt lat="45.00667896431025" lon="12.259526329778955"><ele>-4.666666666666667</ele><time>2026-04-19T10:35:35.001Z</time></trkpt><trkpt lat="45.00673827817644" lon="12.259799889053888"><ele>-5.0</ele><time>2026-04-19T10:35:36.001Z</time></trkpt><trkpt lat="45.00679696092293" lon="12.260074657099684"><ele>-5.0</ele><time>2026-04-19T10:35:37.001Z</time></trkpt><trkpt lat="45.0068572364941" lon="12.260348477406787"><ele>-5.0</ele><time>2026-04-19T10:35:38.001Z</time></trkpt><trkpt lat="45.006918023248005" lon="12.26062771739277"><ele>-5.0</ele><time>2026-04-19T10:35:39.001Z</time></trkpt><trkpt lat="45.00697844764203" lon="12.26090338659684"><ele>-4.666666666666667</ele><time>2026-04-19T10:35:40.001Z</time></trkpt><trkpt lat="45.00704158521919" lon="12.261186243262342"><ele>-4.333333333333333</ele><time>2026-04-19T10:35:41.001Z</time></trkpt><trkpt lat="45.007104354418" lon="12.261469422102651"><ele>-4.0</ele><time>2026-04-19T10:35:42.001Z</time></trkpt><trkpt lat="45.00716628624605" lon="12.261757485163198"><ele>-4.0</ele><time>2026-04-19T10:35:43.001Z</time></trkpt><trkpt lat="45.007231483630896" lon="12.262056297271199"><ele>-4.0</ele><time>2026-04-19T10:35:44.002Z</time></trkpt><trkpt lat="45.00729775287335" lon="12.26236060172172"><ele>-4.0</ele><time>2026-04-19T10:35:45.002Z</time></trkpt><trkpt lat="45.00736571181617" lon="12.262676273310316"><ele>-4.666666666666666</ele><time>2026-04-19T10:35:46.002Z</time></trkpt><trkpt lat="45.007431232391816" lon="12.262977883022788"><ele>-5.333333333333333</ele><time>2026-04-19T10:35:47.002Z</time></trkpt><trkpt lat="45.007490685493835" lon="12.263253005555677"><ele>-6.0</ele><time>2026-04-19T10:35:48.002Z</time></trkpt><trkpt lat="45.00754547958924" lon="12.263505958240941"><ele>-6.0</ele><time>2026-04-19T10:35:49.002Z</time></trkpt><trkpt lat="45.007596389553704" lon="12.263733535488266"><ele>-6.0</ele><time>2026-04-19T10:35:50.002Z</time></trkpt><trkpt lat="45.007642093297655" lon="12.263937942758842"><ele>-6.0</ele><time>2026-04-19T10:35:51.002Z</time></trkpt><trkpt lat="45.00768260710014" lon="12.26411650926841"><ele>-5.8</ele><time>2026-04-19T10:35:52.002Z</time></trkpt><trkpt lat="45.007715932298915" lon="12.264269015667367"><ele>-5.6</ele><time>2026-04-19T10:35:53.002Z</time></trkpt><trkpt lat="45.00773763069968" lon="12.26439548304312"><ele>-5.4</ele><time>2026-04-19T10:35:54.002Z</time></trkpt><trkpt lat="45.00775389350129" lon="12.264492287000632"><ele>-5.2</ele><time>2026-04-19T10:35:55.002Z</time></trkpt><trkpt lat="45.00778009613963" lon="12.26463469767866"><ele>-5.0</ele><time>2026-04-19T10:35:57.002Z</time></trkpt><trkpt lat="45.00802848941181" lon="12.26465694983906"><ele>-5.0</ele><time>2026-04-19T10:36:00.002Z</time></trkpt><trkpt lat="45.0081301050081" lon="12.264626314186756"><ele>-5.0</ele><time>2026-04-19T10:36:01.002Z</time></trkpt><trkpt lat="45.008246030655116" lon="12.264590367047473"><ele>-5.0</ele><time>2026-04-19T10:36:02.002Z</time></trkpt><trkpt lat="45.00837125230197" lon="12.264561192585573"><ele>-5.0</ele><time>2026-04-19T10:36:03.002Z</time></trkpt><trkpt lat="45.00850064223282" lon="12.264532327006197"><ele>-4.666666666666667</ele><time>2026-04-19T10:36:04.002Z</time></trkpt><trkpt lat="45.00864192706303" lon="12.264498182355627"><ele>-4.333333333333333</ele><time>2026-04-19T10:36:05.002Z</time></trkpt><trkpt lat="45.00880496251781" lon="12.26446226673115"><ele>-4.0</ele><time>2026-04-19T10:36:06.002Z</time></trkpt><trkpt lat="45.009003956625556" lon="12.264416650353605"><ele>-4.666666666666666</ele><time>2026-04-19T10:36:07.002Z</time></trkpt><trkpt lat="45.00921288710543" lon="12.264369556135485"><ele>-5.333333333333333</ele><time>2026-04-19T10:36:07.999Z</time></trkpt><trkpt lat="45.00940601672608" lon="12.264325641502637"><ele>-6.0</ele><time>2026-04-19T10:36:08.999Z</time></trkpt><trkpt lat="45.009586148301636" lon="12.264287039850212"><ele>-6.0</ele><time>2026-04-19T10:36:09.999Z</time></trkpt><trkpt lat="45.00975065113758" lon="12.26425012839968"><ele>-6.0</ele><time>2026-04-19T10:36:10.999Z</time></trkpt><trkpt lat="45.00991795231824" lon="12.26421507081159"><ele>-6.0</ele><time>2026-04-19T10:36:11.999Z</time></trkpt><trkpt lat="45.0100934741768" lon="12.264183278991197"><ele>-5.0</ele><time>2026-04-19T10:36:12.999Z</time></trkpt><trkpt lat="45.01027976671336" lon="12.264156289640674"><ele>-4.0</ele><time>2026-04-19T10:36:13.999Z</time></trkpt><trkpt lat="45.01047055736866" lon="12.264137980559264"><ele>-3.0</ele><time>2026-04-19T10:36:14.999Z</time></trkpt><trkpt lat="45.01066397450896" lon="12.264127081837538"><ele>-3.666666666666667</ele><time>2026-04-19T10:36:15.999Z</time></trkpt><trkpt lat="45.010868364739856" lon="12.26412473738012"><ele>-4.333333333333334</ele><time>2026-04-19T10:36:16.999Z</time></trkpt><trkpt lat="45.01107969618322" lon="12.26412691925272"><ele>-5.0</ele><time>2026-04-19T10:36:17.999Z</time></trkpt><trkpt lat="45.01128605957014" lon="12.264129743555088"><ele>-5.0</ele><time>2026-04-19T10:36:18.999Z</time></trkpt><trkpt lat="45.01149617618024" lon="12.264133370011493"><ele>-5.0</ele><time>2026-04-19T10:36:19.999Z</time></trkpt><trkpt lat="45.011708395734196" lon="12.264134101623789"><ele>-5.0</ele><time>2026-04-19T10:36:20.999Z</time></trkpt><trkpt lat="45.01192389722633" lon="12.264132837532875"><ele>-5.0</ele><time>2026-04-19T10:36:22Z</time></trkpt><trkpt lat="45.012138527920904" lon="12.264132075160857"><ele>-5.0</ele><time>2026-04-19T10:36:23Z</time></trkpt><trkpt lat="45.01234994061241" lon="12.264132360125767"><ele>-5.0</ele><time>2026-04-19T10:36:24Z</time></trkpt><trkpt lat="45.012546194574654" lon="12.264135868474861"><ele>-4.333333333333334</ele><time>2026-04-19T10:36:25Z</time></trkpt><trkpt lat="45.01274521572104" lon="12.264142307872406"><ele>-3.666666666666667</ele><time>2026-04-19T10:36:26Z</time></trkpt><trkpt lat="45.01294755776794" lon="12.264145384026621"><ele>-3.0</ele><time>2026-04-19T10:36:27Z</time></trkpt><trkpt lat="45.01314929626202" lon="12.264145539867922"><ele>-3.0</ele><time>2026-04-19T10:36:28Z</time></trkpt><trkpt lat="45.013350248389614" lon="12.264145566793976"><ele>-3.0</ele><time>2026-04-19T10:36:29Z</time></trkpt><trkpt lat="45.01355120616327" lon="12.264146275183519"><ele>-3.0</ele><time>2026-04-19T10:36:30Z</time></trkpt><trkpt lat="45.013748614291494" lon="12.264149303407812"><ele>-3.0</ele><time>2026-04-19T10:36:31Z</time></trkpt><trkpt lat="45.01394766123452" lon="12.26415100107974"><ele>-3.0</ele><time>2026-04-19T10:36:32Z</time></trkpt><trkpt lat="45.01415452949994" lon="12.264152975608479"><ele>-3.0</ele><time>2026-04-19T10:36:33Z</time></trkpt><trkpt lat="45.014362167624746" lon="12.26415398654681"><ele>-3.333333333333333</ele><time>2026-04-19T10:36:34Z</time></trkpt><trkpt lat="45.01457221834489" lon="12.264155784129928"><ele>-3.6666666666666665</ele><time>2026-04-19T10:36:35Z</time></trkpt><trkpt lat="45.01478664312279" lon="12.264157986618452"><ele>-4.0</ele><time>2026-04-19T10:36:36Z</time></trkpt><trkpt lat="45.01500506365267" lon="12.264160663427152"><ele>-4.0</ele><time>2026-04-19T10:36:37Z</time></trkpt><trkpt lat="45.01522182657939" lon="12.264161425788213"><ele>-4.0</ele><time>2026-04-19T10:36:38Z</time></trkpt><trkpt lat="45.01543873890568" lon="12.264162031403853"><ele>-4.0</ele><time>2026-04-19T10:36:39Z</time></trkpt><trkpt lat="45.015650432847494" lon="12.264162380736296"><ele>-4.333333333333333</ele><time>2026-04-19T10:36:40Z</time></trkpt><trkpt lat="45.01586032748575" lon="12.264162977814179"><ele>-4.666666666666667</ele><time>2026-04-19T10:36:41Z</time></trkpt><trkpt lat="45.016070305959964" lon="12.264164145446342"><ele>-5.0</ele><time>2026-04-19T10:36:42Z</time></trkpt><trkpt lat="45.016276383164175" lon="12.264166796545595"><ele>-5.0</ele><time>2026-04-19T10:36:43Z</time></trkpt><trkpt lat="45.016485357646" lon="12.264170830255418"><ele>-5.0</ele><time>2026-04-19T10:36:44Z</time></trkpt><trkpt lat="45.01669398866856" lon="12.264171338016451"><ele>-5.0</ele><time>2026-04-19T10:36:45Z</time></trkpt><trkpt lat="45.016894943062916" lon="12.264165956549972"><ele>-5.0</ele><time>2026-04-19T10:36:46Z</time></trkpt><trkpt lat="45.01710541999385" lon="12.26416303870657"><ele>-5.0</ele><time>2026-04-19T10:36:47Z</time></trkpt><trkpt lat="45.01731462073654" lon="12.264161788423808"><ele>-5.0</ele><time>2026-04-19T10:36:48Z</time></trkpt><trkpt lat="45.01751731705704" lon="12.264166398277155"><ele>-5.0</ele><time>2026-04-19T10:36:49Z</time></trkpt><trkpt lat="45.01771305919918" lon="12.264169652894534"><ele>-5.0</ele><time>2026-04-19T10:36:50Z</time></trkpt><trkpt lat="45.017901457525994" lon="12.264174298722017"><ele>-5.0</ele><time>2026-04-19T10:36:51Z</time></trkpt><trkpt lat="45.018089657172524" lon="12.26417544313869"><ele>-5.0</ele><time>2026-04-19T10:36:52Z</time></trkpt><trkpt lat="45.01828451040992" lon="12.264176259285227"><ele>-5.0</ele><time>2026-04-19T10:36:53Z</time></trkpt><trkpt lat="45.0184724250272" lon="12.264174557287513"><ele>-5.0</ele><time>2026-04-19T10:36:54Z</time></trkpt><trkpt lat="45.01866484617428" lon="12.264175414057805"><ele>-5.333333333333334</ele><time>2026-04-19T10:36:55Z</time></trkpt><trkpt lat="45.01885638981541" lon="12.264178856107202"><ele>-5.666666666666667</ele><time>2026-04-19T10:36:56Z</time></trkpt><trkpt lat="45.01905135259997" lon="12.264180896514686"><ele>-6.0</ele><time>2026-04-19T10:36:57Z</time></trkpt><trkpt lat="45.019250402762715" lon="12.264182142127346"><ele>-5.333333333333333</ele><time>2026-04-19T10:36:58Z</time></trkpt><trkpt lat="45.01944873447395" lon="12.264185719418942"><ele>-4.666666666666666</ele><time>2026-04-19T10:36:59Z</time></trkpt><trkpt lat="45.019641117852494" lon="12.264227091309222"><ele>-4.0</ele><time>2026-04-19T10:37:00Z</time></trkpt><trkpt lat="45.01983476879165" lon="12.26426513608917"><ele>-4.333333333333333</ele><time>2026-04-19T10:37:01.001Z</time></trkpt><trkpt lat="45.02002896366114" lon="12.264307546498095"><ele>-4.666666666666667</ele><time>2026-04-19T10:37:02.001Z</time></trkpt><trkpt lat="45.02022538538554" lon="12.264350892696477"><ele>-5.0</ele><time>2026-04-19T10:37:03.001Z</time></trkpt><trkpt lat="45.020419946538674" lon="12.26439577497834"><ele>-5.0</ele><time>2026-04-19T10:37:04.001Z</time></trkpt><trkpt lat="45.02061534902122" lon="12.264416497748423"><ele>-5.0</ele><time>2026-04-19T10:37:05.001Z</time></trkpt><trkpt lat="45.0208072469236" lon="12.264458850601539"><ele>-5.0</ele><time>2026-04-19T10:37:06.001Z</time></trkpt><trkpt lat="45.020990777235" lon="12.264520905091707"><ele>-5.0</ele><time>2026-04-19T10:37:07.001Z</time></trkpt><trkpt lat="45.02115784918241" lon="12.264555966905112"><ele>-5.0</ele><time>2026-04-19T10:37:08.001Z</time></trkpt><trkpt lat="45.021306547021304" lon="12.264566983068441"><ele>-5.0</ele><time>2026-04-19T10:37:09.001Z</time></trkpt><trkpt lat="45.021450364043005" lon="12.264607916121149"><ele>-5.0</ele><time>2026-04-19T10:37:10.001Z</time></trkpt><trkpt lat="45.02158246194331" lon="12.26464232677768"><ele>-5.0</ele><time>2026-04-19T10:37:11.001Z</time></trkpt><trkpt lat="45.0217032280463" lon="12.264674036540844"><ele>-5.0</ele><time>2026-04-19T10:37:12.001Z</time></trkpt><trkpt lat="45.021816552243294" lon="12.264704779028412"><ele>-5.0</ele><time>2026-04-19T10:37:13.001Z</time></trkpt><trkpt lat="45.02192594092498" lon="12.264736572448475"><ele>-5.2</ele><time>2026-04-19T10:37:14.001Z</time></trkpt><trkpt lat="45.02203408057465" lon="12.264765908833622"><ele>-5.4</ele><time>2026-04-19T10:37:15.001Z</time></trkpt><trkpt lat="45.022127284767535" lon="12.264795566368829"><ele>-5.6</ele><time>2026-04-19T10:37:16.001Z</time></trkpt><trkpt lat="45.02219977346701" lon="12.264824927576653"><ele>-5.8</ele><time>2026-04-19T10:37:17.001Z</time></trkpt><trkpt lat="45.02228011995662" lon="12.264886456271208"><ele>-6.0</ele><time>2026-04-19T10:37:19.001Z</time></trkpt><trkpt lat="45.0222664278932" lon="12.265138987511394"><ele>-6.0</ele><time>2026-04-19T10:37:20.001Z</time></trkpt><trkpt lat="45.022267609390084" lon="12.265287547951827"><ele>-6.0</ele><time>2026-04-19T10:37:21.001Z</time></trkpt><trkpt lat="45.02227078528658" lon="12.265438312875215"><ele>-6.0</ele><time>2026-04-19T10:37:22.001Z</time></trkpt><trkpt lat="45.022279618521516" lon="12.26560574950699"><ele>-6.0</ele><time>2026-04-19T10:37:23.001Z</time></trkpt><trkpt lat="45.02229028946034" lon="12.265819588891423"><ele>-6.0</ele><time>2026-04-19T10:37:24.001Z</time></trkpt><trkpt lat="45.02230612714056" lon="12.266051791078349"><ele>-6.0</ele><time>2026-04-19T10:37:25.001Z</time></trkpt><trkpt lat="45.02232119714405" lon="12.266296567606949"><ele>-6.0</ele><time>2026-04-19T10:37:26.001Z</time></trkpt><trkpt lat="45.02233607607212" lon="12.26653825973966"><ele>-6.0</ele><time>2026-04-19T10:37:27.001Z</time></trkpt><trkpt lat="45.02235162698745" lon="12.266776097258791"><ele>-6.0</ele><time>2026-04-19T10:37:28.001Z</time></trkpt><trkpt lat="45.02236497360162" lon="12.267003216225364"><ele>-6.0</ele><time>2026-04-19T10:37:29.001Z</time></trkpt><trkpt lat="45.02237650757891" lon="12.267235775131597"><ele>-6.333333333333334</ele><time>2026-04-19T10:37:30.001Z</time></trkpt><trkpt lat="45.02238912085286" lon="12.267476370218086"><ele>-6.666666666666667</ele><time>2026-04-19T10:37:31.001Z</time></trkpt><trkpt lat="45.022403133853416" lon="12.26772433075943"><ele>-7.0</ele><time>2026-04-19T10:37:32.001Z</time></trkpt><trkpt lat="45.022418952870254" lon="12.26797102953753"><ele>-7.0</ele><time>2026-04-19T10:37:33.001Z</time></trkpt><trkpt lat="45.02243457736101" lon="12.268227030563269"><ele>-7.0</ele><time>2026-04-19T10:37:34.001Z</time></trkpt><trkpt lat="45.022450516219344" lon="12.268490063227924"><ele>-7.0</ele><time>2026-04-19T10:37:35.001Z</time></trkpt><trkpt lat="45.022468659419374" lon="12.26875484128863"><ele>-6.333333333333334</ele><time>2026-04-19T10:37:36.001Z</time></trkpt><trkpt lat="45.022484343929435" lon="12.269023547700758"><ele>-5.666666666666667</ele><time>2026-04-19T10:37:37.001Z</time></trkpt><trkpt lat="45.02249714820152" lon="12.269281171114264"><ele>-5.0</ele><time>2026-04-19T10:37:38.001Z</time></trkpt><trkpt lat="45.02251128064356" lon="12.269534194401768"><ele>-5.666666666666667</ele><time>2026-04-19T10:37:39.001Z</time></trkpt><trkpt lat="45.022525025319524" lon="12.269778012890498"><ele>-6.333333333333334</ele><time>2026-04-19T10:37:40.001Z</time></trkpt><trkpt lat="45.02253866629163" lon="12.270002512072232"><ele>-7.0</ele><time>2026-04-19T10:37:41.001Z</time></trkpt><trkpt lat="45.0225509892542" lon="12.270214379096018"><ele>-7.0</ele><time>2026-04-19T10:37:42.001Z</time></trkpt><trkpt lat="45.02256323793905" lon="12.270409323130806"><ele>-7.0</ele><time>2026-04-19T10:37:43.001Z</time></trkpt><trkpt lat="45.02257610294598" lon="12.270595207030835"><ele>-7.0</ele><time>2026-04-19T10:37:44.001Z</time></trkpt><trkpt lat="45.02258727575241" lon="12.270773768657433"><ele>-7.0</ele><time>2026-04-19T10:37:45.001Z</time></trkpt><trkpt lat="45.0225890750409" lon="12.270956444944762"><ele>-7.0</ele><time>2026-04-19T10:37:46.001Z</time></trkpt><trkpt lat="45.02258000303671" lon="12.2711463712697"><ele>-7.0</ele><time>2026-04-19T10:37:47.001Z</time></trkpt><trkpt lat="45.022555432751446" lon="12.271348569482232"><ele>-7.0</ele><time>2026-04-19T10:37:48.001Z</time></trkpt><trkpt lat="45.02250442796161" lon="12.271556255629703"><ele>-7.0</ele><time>2026-04-19T10:37:49.002Z</time></trkpt><trkpt lat="45.022446210842915" lon="12.271770489713337"><ele>-7.333333333333334</ele><time>2026-04-19T10:37:50.002Z</time></trkpt><trkpt lat="45.022384854011904" lon="12.271996986289478"><ele>-7.666666666666666</ele><time>2026-04-19T10:37:51.002Z</time></trkpt><trkpt lat="45.02232053347849" lon="12.272243233820728"><ele>-8.0</ele><time>2026-04-19T10:37:52.002Z</time></trkpt><trkpt lat="45.02226084384871" lon="12.272479662979572"><ele>-7.333333333333333</ele><time>2026-04-19T10:37:53.002Z</time></trkpt><trkpt lat="45.02219875129816" lon="12.272725771779815"><ele>-6.666666666666666</ele><time>2026-04-19T10:37:54.002Z</time></trkpt><trkpt lat="45.02213833636322" lon="12.272966999471151"><ele>-6.0</ele><time>2026-04-19T10:37:55.002Z</time></trkpt><trkpt lat="45.02207343669281" lon="12.27321365489648"><ele>-5.666666666666667</ele><time>2026-04-19T10:37:56.002Z</time></trkpt><trkpt lat="45.022008823781036" lon="12.273462213104045"><ele>-5.333333333333334</ele><time>2026-04-19T10:37:57.002Z</time></trkpt><trkpt lat="45.02194492556311" lon="12.273711855732474"><ele>-5.0</ele><time>2026-04-19T10:37:58.002Z</time></trkpt><trkpt lat="45.02187977984087" lon="12.273965278980823"><ele>-4.666666666666667</ele><time>2026-04-19T10:37:59.002Z</time></trkpt><trkpt lat="45.021816284107224" lon="12.274215058706668"><ele>-4.333333333333333</ele><time>2026-04-19T10:38:00.002Z</time></trkpt><trkpt lat="45.021754299012095" lon="12.27445898992479"><ele>-4.0</ele><time>2026-04-19T10:38:01.002Z</time></trkpt><trkpt lat="45.02169212195121" lon="12.27470081056157"><ele>-4.666666666666666</ele><time>2026-04-19T10:38:02.002Z</time></trkpt><trkpt lat="45.021633390736596" lon="12.274933086608996"><ele>-5.333333333333333</ele><time>2026-04-19T10:38:03.002Z</time></trkpt><trkpt lat="45.021577573479284" lon="12.275151590780801"><ele>-6.0</ele><time>2026-04-19T10:38:04.002Z</time></trkpt><trkpt lat="45.02152280231365" lon="12.275369579533418"><ele>-6.0</ele><time>2026-04-19T10:38:05.002Z</time></trkpt><trkpt lat="45.021466622891836" lon="12.275593943087118"><ele>-6.0</ele><time>2026-04-19T10:38:06.002Z</time></trkpt><trkpt lat="45.021412479610085" lon="12.275818279417283"><ele>-6.0</ele><time>2026-04-19T10:38:07.002Z</time></trkpt><trkpt lat="45.02136035488108" lon="12.276047915661309"><ele>-6.0</ele><time>2026-04-19T10:38:08.002Z</time></trkpt><trkpt lat="45.021305454427214" lon="12.276282751678938"><ele>-6.0</ele><time>2026-04-19T10:38:09.002Z</time></trkpt><trkpt lat="45.02124596378531" lon="12.276524812578957"><ele>-6.0</ele><time>2026-04-19T10:38:10.002Z</time></trkpt><trkpt lat="45.02118405066626" lon="12.27677526633781"><ele>-5.666666666666667</ele><time>2026-04-19T10:38:11.002Z</time></trkpt><trkpt lat="45.02112465907255" lon="12.277017283805291"><ele>-5.333333333333334</ele><time>2026-04-19T10:38:12.002Z</time></trkpt><trkpt lat="45.02106081021765" lon="12.277266396962483"><ele>-5.0</ele><time>2026-04-19T10:38:13.002Z</time></trkpt><trkpt lat="45.02099568450894" lon="12.277524109100932"><ele>-5.0</ele><time>2026-04-19T10:38:14Z</time></trkpt><trkpt lat="45.02092678283505" lon="12.2777936223348"><ele>-5.0</ele><time>2026-04-19T10:38:15Z</time></trkpt><trkpt lat="45.020859358575024" lon="12.278056880185266"><ele>-5.0</ele><time>2026-04-19T10:38:16Z</time></trkpt><trkpt lat="45.02072107835065" lon="12.27857856669743"><ele>-5.0</ele><time>2026-04-19T10:38:18Z</time></trkpt><trkpt lat="45.02065307337295" lon="12.278832783327791"><ele>-5.0</ele><time>2026-04-19T10:38:19Z</time></trkpt><trkpt lat="45.02058482940578" lon="12.27908820592913"><ele>-5.0</ele><time>2026-04-19T10:38:20Z</time></trkpt><trkpt lat="45.020516174590284" lon="12.2793465632997"><ele>-5.0</ele><time>2026-04-19T10:38:21Z</time></trkpt><trkpt lat="45.02044545537284" lon="12.27960689230948"><ele>-5.0</ele><time>2026-04-19T10:38:22Z</time></trkpt><trkpt lat="45.020376608374825" lon="12.279867715592111"><ele>-5.0</ele><time>2026-04-19T10:38:23Z</time></trkpt><trkpt lat="45.02030638491199" lon="12.280132356468286"><ele>-5.0</ele><time>2026-04-19T10:38:24Z</time></trkpt><trkpt lat="45.02023804782318" lon="12.280397936918114"><ele>-5.0</ele><time>2026-04-19T10:38:25Z</time></trkpt><trkpt lat="45.02016871816994" lon="12.28066813302489"><ele>-5.0</ele><time>2026-04-19T10:38:26Z</time></trkpt><trkpt lat="45.02009846771767" lon="12.280938207260329"><ele>-5.0</ele><time>2026-04-19T10:38:27Z</time></trkpt><trkpt lat="45.02002835358825" lon="12.281203957184113"><ele>-5.0</ele><time>2026-04-19T10:38:28Z</time></trkpt><trkpt lat="45.01995963857309" lon="12.281459416551046"><ele>-5.0</ele><time>2026-04-19T10:38:29Z</time></trkpt><trkpt lat="45.019891533880305" lon="12.281702204295936"><ele>-5.0</ele><time>2026-04-19T10:38:30Z</time></trkpt><trkpt lat="45.01982474065364" lon="12.281937926332"><ele>-5.0</ele><time>2026-04-19T10:38:31Z</time></trkpt><trkpt lat="45.01975361992871" lon="12.282183318797841"><ele>-5.0</ele><time>2026-04-19T10:38:32Z</time></trkpt><trkpt lat="45.01973291779065" lon="12.282376896814162"><ele>-5.333333333333334</ele><time>2026-04-19T10:38:33Z</time></trkpt><trkpt lat="45.019670511062074" lon="12.282604098076442"><ele>-5.666666666666667</ele><time>2026-04-19T10:38:34Z</time></trkpt><trkpt lat="45.019607538571556" lon="12.282830012520957"><ele>-6.0</ele><time>2026-04-19T10:38:35Z</time></trkpt><trkpt lat="45.019551601208555" lon="12.2830364689455"><ele>-6.0</ele><time>2026-04-19T10:38:36Z</time></trkpt><trkpt lat="45.01949656932847" lon="12.283229102359085"><ele>-6.0</ele><time>2026-04-19T10:38:37Z</time></trkpt><trkpt lat="45.01944435443353" lon="12.283418949072681"><ele>-6.0</ele><time>2026-04-19T10:38:38Z</time></trkpt><trkpt lat="45.01939546365472" lon="12.283597393232952"><ele>-6.0</ele><time>2026-04-19T10:38:39Z</time></trkpt><trkpt lat="45.01935099906873" lon="12.283767956599876"><ele>-5.8</ele><time>2026-04-19T10:38:40Z</time></trkpt><trkpt lat="45.01931695801521" lon="12.283931438143314"><ele>-5.6</ele><time>2026-04-19T10:38:41Z</time></trkpt><trkpt lat="45.01928568932151" lon="12.284083121645255"><ele>-5.4</ele><time>2026-04-19T10:38:42Z</time></trkpt><trkpt lat="45.01926563737785" lon="12.284229347702562"><ele>-5.2</ele><time>2026-04-19T10:38:43Z</time></trkpt><trkpt lat="45.019291941129836" lon="12.284358064863676"><ele>-5.0</ele><time>2026-04-19T10:38:44Z</time></trkpt><trkpt lat="45.019367115643036" lon="12.284464217745183"><ele>-5.0</ele><time>2026-04-19T10:38:45Z</time></trkpt><trkpt lat="45.019484580311406" lon="12.284573831921476"><ele>-5.0</ele><time>2026-04-19T10:38:46Z</time></trkpt><trkpt lat="45.019636244420525" lon="12.284707631969837"><ele>-5.0</ele><time>2026-04-19T10:38:47Z</time></trkpt><trkpt lat="45.01980787641184" lon="12.284869739446874"><ele>-5.0</ele><time>2026-04-19T10:38:48Z</time></trkpt><trkpt lat="45.01997081481588" lon="12.285027496983494"><ele>-5.0</ele><time>2026-04-19T10:38:49Z</time></trkpt><trkpt lat="45.02016572503397" lon="12.285216720007321"><ele>-5.0</ele><time>2026-04-19T10:38:50Z</time></trkpt><trkpt lat="45.02034523916551" lon="12.285392484213006"><ele>-5.333333333333334</ele><time>2026-04-19T10:38:51Z</time></trkpt><trkpt lat="45.02050326226434" lon="12.285552462142023"><ele>-5.666666666666667</ele><time>2026-04-19T10:38:52Z</time></trkpt><trkpt lat="45.02064998999173" lon="12.285698374805248"><ele>-6.0</ele><time>2026-04-19T10:38:53Z</time></trkpt><trkpt lat="45.020786514853135" lon="12.28583936871976"><ele>-5.666666666666667</ele><time>2026-04-19T10:38:54Z</time></trkpt><trkpt lat="45.02091620490229" lon="12.285980066499636"><ele>-5.333333333333334</ele><time>2026-04-19T10:38:55Z</time></trkpt><trkpt lat="45.02103107701269" lon="12.286120728183484"><ele>-5.0</ele><time>2026-04-19T10:38:56Z</time></trkpt><trkpt lat="45.02114761247403" lon="12.286266385251318"><ele>-5.0</ele><time>2026-04-19T10:38:57Z</time></trkpt><trkpt lat="45.02126216507457" lon="12.286419629106444"><ele>-5.0</ele><time>2026-04-19T10:38:58Z</time></trkpt><trkpt lat="45.02137312382049" lon="12.286574542434622"><ele>-5.0</ele><time>2026-04-19T10:38:59Z</time></trkpt><trkpt lat="45.021483379127154" lon="12.286746388358836"><ele>-5.0</ele><time>2026-04-19T10:39:00.001Z</time></trkpt><trkpt lat="45.02159633655481" lon="12.286923545388795"><ele>-5.0</ele><time>2026-04-19T10:39:01.001Z</time></trkpt><trkpt lat="45.02170279713537" lon="12.287114576896462"><ele>-5.0</ele><time>2026-04-19T10:39:02.001Z</time></trkpt><trkpt lat="45.021808172869775" lon="12.287308621743778"><ele>-5.0</ele><time>2026-04-19T10:39:03.001Z</time></trkpt><trkpt lat="45.021915326758915" lon="12.287499048550316"><ele>-5.0</ele><time>2026-04-19T10:39:04.001Z</time></trkpt><trkpt lat="45.02202093989982" lon="12.287687945757394"><ele>-5.0</ele><time>2026-04-19T10:39:05.001Z</time></trkpt><trkpt lat="45.02212753424847" lon="12.287882550789524"><ele>-5.0</ele><time>2026-04-19T10:39:06.001Z</time></trkpt><trkpt lat="45.02223711449531" lon="12.288081938085524"><ele>-5.0</ele><time>2026-04-19T10:39:07.001Z</time></trkpt><trkpt lat="45.02234783246651" lon="12.288286088801788"><ele>-5.0</ele><time>2026-04-19T10:39:08.001Z</time></trkpt><trkpt lat="45.022460861581195" lon="12.288494379163732"><ele>-5.0</ele><time>2026-04-19T10:39:09.001Z</time></trkpt><trkpt lat="45.02257523621183" lon="12.288702619525269"><ele>-5.0</ele><time>2026-04-19T10:39:10.001Z</time></trkpt><trkpt lat="45.022686952528474" lon="12.28890460469125"><ele>-5.0</ele><time>2026-04-19T10:39:11.001Z</time></trkpt><trkpt lat="45.022795936688325" lon="12.289101906043456"><ele>-5.0</ele><time>2026-04-19T10:39:12.001Z</time></trkpt><trkpt lat="45.02290465086979" lon="12.289299848455713"><ele>-5.0</ele><time>2026-04-19T10:39:13.001Z</time></trkpt><trkpt lat="45.023014949677325" lon="12.289501626652623"><ele>-5.0</ele><time>2026-04-19T10:39:14.001Z</time></trkpt><trkpt lat="45.02312665763809" lon="12.289705012158404"><ele>-5.0</ele><time>2026-04-19T10:39:15.001Z</time></trkpt><trkpt lat="45.023242260841705" lon="12.289907307377215"><ele>-5.0</ele><time>2026-04-19T10:39:16.001Z</time></trkpt><trkpt lat="45.02336149867743" lon="12.290110880451815"><ele>-5.0</ele><time>2026-04-19T10:39:17.001Z</time></trkpt><trkpt lat="45.02347636005662" lon="12.290314343758979"><ele>-5.0</ele><time>2026-04-19T10:39:18.001Z</time></trkpt><trkpt lat="45.02358589313764" lon="12.290513669672242"><ele>-5.0</ele><time>2026-04-19T10:39:19.001Z</time></trkpt><trkpt lat="45.0236969014314" lon="12.29071326281032"><ele>-5.0</ele><time>2026-04-19T10:39:20.001Z</time></trkpt><trkpt lat="45.02381343628793" lon="12.290917778367199"><ele>-5.0</ele><time>2026-04-19T10:39:21.001Z</time></trkpt><trkpt lat="45.02393023259734" lon="12.291120313831534"><ele>-5.0</ele><time>2026-04-19T10:39:22.001Z</time></trkpt><trkpt lat="45.024032189654534" lon="12.291338690074534"><ele>-5.0</ele><time>2026-04-19T10:39:23.001Z</time></trkpt><trkpt lat="45.0241605603141" lon="12.291528700755578"><ele>-5.333333333333334</ele><time>2026-04-19T10:39:24.001Z</time></trkpt><trkpt lat="45.02427527677004" lon="12.291736606953606"><ele>-5.666666666666667</ele><time>2026-04-19T10:39:25.001Z</time></trkpt><trkpt lat="45.02439028109066" lon="12.291949300499875"><ele>-6.0</ele><time>2026-04-19T10:39:26.001Z</time></trkpt><trkpt lat="45.02450536247951" lon="12.29216535614881"><ele>-6.0</ele><time>2026-04-19T10:39:27.001Z</time></trkpt><trkpt lat="45.024620765507755" lon="12.292385195033482"><ele>-6.0</ele><time>2026-04-19T10:39:28.001Z</time></trkpt><trkpt lat="45.02473733859573" lon="12.292608457394433"><ele>-6.0</ele><time>2026-04-19T10:39:29.001Z</time></trkpt><trkpt lat="45.02485684792043" lon="12.292830527165354"><ele>-6.0</ele><time>2026-04-19T10:39:30.001Z</time></trkpt><trkpt lat="45.02497945603822" lon="12.293050274101645"><ele>-6.0</ele><time>2026-04-19T10:39:31.001Z</time></trkpt><trkpt lat="45.02510310319579" lon="12.29326941786003"><ele>-6.0</ele><time>2026-04-19T10:39:32.001Z</time></trkpt><trkpt lat="45.0252234854273" lon="12.29348570992314"><ele>-6.0</ele><time>2026-04-19T10:39:33.001Z</time></trkpt><trkpt lat="45.02534593242446" lon="12.293703337474915"><ele>-6.0</ele><time>2026-04-19T10:39:34.001Z</time></trkpt><trkpt lat="45.025469024503685" lon="12.29392201836554"><ele>-6.0</ele><time>2026-04-19T10:39:35.001Z</time></trkpt><trkpt lat="45.02559065860117" lon="12.294139839950788"><ele>-6.0</ele><time>2026-04-19T10:39:36.001Z</time></trkpt><trkpt lat="45.02571279101413" lon="12.294360433562014"><ele>-6.0</ele><time>2026-04-19T10:39:37.001Z</time></trkpt><trkpt lat="45.02583322469934" lon="12.294579966498025"><ele>-6.0</ele><time>2026-04-19T10:39:38.001Z</time></trkpt><trkpt lat="45.025957494315485" lon="12.29480490712948"><ele>-6.0</ele><time>2026-04-19T10:39:39.001Z</time></trkpt><trkpt lat="45.0260750455167" lon="12.295020955082732"><ele>-6.0</ele><time>2026-04-19T10:39:40.001Z</time></trkpt><trkpt lat="45.02620182272172" lon="12.29525066077394"><ele>-6.0</ele><time>2026-04-19T10:39:41.001Z</time></trkpt><trkpt lat="45.02632918771321" lon="12.295485717370486"><ele>-6.0</ele><time>2026-04-19T10:39:42.001Z</time></trkpt><trkpt lat="45.026461190925495" lon="12.295720531870584"><ele>-6.0</ele><time>2026-04-19T10:39:43.001Z</time></trkpt><trkpt lat="45.026590761857534" lon="12.295952364569152"><ele>-6.0</ele><time>2026-04-19T10:39:44.001Z</time></trkpt><trkpt lat="45.02671992994211" lon="12.296183398996293"><ele>-6.0</ele><time>2026-04-19T10:39:45.001Z</time></trkpt><trkpt lat="45.02684508064193" lon="12.296413227222462"><ele>-6.0</ele><time>2026-04-19T10:39:46.001Z</time></trkpt><trkpt lat="45.026967092563325" lon="12.296635512174273"><ele>-6.0</ele><time>2026-04-19T10:39:47.002Z</time></trkpt><trkpt lat="45.02708911925877" lon="12.296850687830588"><ele>-6.0</ele><time>2026-04-19T10:39:48.002Z</time></trkpt><trkpt lat="45.02720889832333" lon="12.297064660989086"><ele>-6.0</ele><time>2026-04-19T10:39:49.002Z</time></trkpt><trkpt lat="45.02732700465226" lon="12.29727505818987"><ele>-6.0</ele><time>2026-04-19T10:39:50.002Z</time></trkpt><trkpt lat="45.027442492699805" lon="12.297479687403918"><ele>-6.0</ele><time>2026-04-19T10:39:51.002Z</time></trkpt><trkpt lat="45.027566260566395" lon="12.29770875299213"><ele>-6.0</ele><time>2026-04-19T10:39:52.002Z</time></trkpt><trkpt lat="45.02769828663988" lon="12.297943888341347"><ele>-6.0</ele><time>2026-04-19T10:39:53.002Z</time></trkpt><trkpt lat="45.02783759063177" lon="12.298196711106034"><ele>-6.333333333333334</ele><time>2026-04-19T10:39:54.002Z</time></trkpt><trkpt lat="45.02795940649281" lon="12.298431878972895"><ele>-6.666666666666667</ele><time>2026-04-19T10:39:55.002Z</time></trkpt><trkpt lat="45.02808209071942" lon="12.29865860824009"><ele>-7.0</ele><time>2026-04-19T10:39:56.002Z</time></trkpt><trkpt lat="45.028205695352746" lon="12.298879048482695"><ele>-6.666666666666667</ele><time>2026-04-19T10:39:57.002Z</time></trkpt><trkpt lat="45.02832756429807" lon="12.299090191480332"><ele>-6.333333333333334</ele><time>2026-04-19T10:39:58.002Z</time></trkpt><trkpt lat="45.02845389564967" lon="12.299314035089147"><ele>-6.0</ele><time>2026-04-19T10:39:59.002Z</time></trkpt><trkpt lat="45.0285801676529" lon="12.299538195090365"><ele>-6.0</ele><time>2026-04-19T10:40:00.002Z</time></trkpt><trkpt lat="45.02870467769137" lon="12.299762709135472"><ele>-6.0</ele><time>2026-04-19T10:40:01.002Z</time></trkpt><trkpt lat="45.02883009663858" lon="12.299989306764907"><ele>-6.0</ele><time>2026-04-19T10:40:02.002Z</time></trkpt><trkpt lat="45.02895622353461" lon="12.300214722070722"><ele>-6.0</ele><time>2026-04-19T10:40:03.002Z</time></trkpt><trkpt lat="45.029084013951405" lon="12.300438727106354"><ele>-6.0</ele><time>2026-04-19T10:40:04.002Z</time></trkpt><trkpt lat="45.02921181107534" lon="12.300666023287597"><ele>-6.0</ele><time>2026-04-19T10:40:05.002Z</time></trkpt><trkpt lat="45.02933902465376" lon="12.300890838298582"><ele>-6.333333333333334</ele><time>2026-04-19T10:40:06.002Z</time></trkpt><trkpt lat="45.029466055516174" lon="12.30111767079664"><ele>-6.666666666666667</ele><time>2026-04-19T10:40:07.002Z</time></trkpt><trkpt lat="45.02959258894601" lon="12.301345762460816"><ele>-7.0</ele><time>2026-04-19T10:40:08.002Z</time></trkpt><trkpt lat="45.02972046653119" lon="12.301578978521965"><ele>-7.0</ele><time>2026-04-19T10:40:09.002Z</time></trkpt><trkpt lat="45.02984888326117" lon="12.30181171218718"><ele>-7.0</ele><time>2026-04-19T10:40:10.002Z</time></trkpt><trkpt lat="45.029975289650714" lon="12.302046091380005"><ele>-7.0</ele><time>2026-04-19T10:40:11.002Z</time></trkpt><trkpt lat="45.030100499372814" lon="12.302272463632509"><ele>-6.333333333333334</ele><time>2026-04-19T10:40:12.002Z</time></trkpt><trkpt lat="45.03022778850622" lon="12.302498359779753"><ele>-5.666666666666667</ele><time>2026-04-19T10:40:13.002Z</time></trkpt><trkpt lat="45.03034657394444" lon="12.302707317726693"><ele>-5.0</ele><time>2026-04-19T10:40:14.002Z</time></trkpt><trkpt lat="45.03044767204479" lon="12.302929803461545"><ele>-5.0</ele><time>2026-04-19T10:40:15.002Z</time></trkpt><trkpt lat="45.030564143133766" lon="12.303141152348617"><ele>-5.0</ele><time>2026-04-19T10:40:16.002Z</time></trkpt><trkpt lat="45.03069508951959" lon="12.303336720300177"><ele>-5.0</ele><time>2026-04-19T10:40:17.002Z</time></trkpt><trkpt lat="45.03082077435152" lon="12.303566816651895"><ele>-5.0</ele><time>2026-04-19T10:40:18.002Z</time></trkpt><trkpt lat="45.03094880729627" lon="12.303794784806731"><ele>-5.0</ele><time>2026-04-19T10:40:19.002Z</time></trkpt><trkpt lat="45.031075464851014" lon="12.30402681351063"><ele>-5.0</ele><time>2026-04-19T10:40:20Z</time></trkpt><trkpt lat="45.031205773167244" lon="12.304261475299858"><ele>-5.0</ele><time>2026-04-19T10:40:21Z</time></trkpt><trkpt lat="45.03133545450822" lon="12.30449615448746"><ele>-5.0</ele><time>2026-04-19T10:40:22Z</time></trkpt><trkpt lat="45.031464401170275" lon="12.304732527370849"><ele>-5.0</ele><time>2026-04-19T10:40:23Z</time></trkpt><trkpt lat="45.031587215038165" lon="12.304955728528968"><ele>-5.0</ele><time>2026-04-19T10:40:24Z</time></trkpt><trkpt lat="45.03170959709555" lon="12.305176380493798"><ele>-5.0</ele><time>2026-04-19T10:40:25Z</time></trkpt><trkpt lat="45.03183013630255" lon="12.305393343050266"><ele>-5.0</ele><time>2026-04-19T10:40:26Z</time></trkpt><trkpt lat="45.03195365860318" lon="12.305618759409574"><ele>-5.333333333333334</ele><time>2026-04-19T10:40:27Z</time></trkpt><trkpt lat="45.03207324088806" lon="12.305841793811597"><ele>-5.666666666666667</ele><time>2026-04-19T10:40:28Z</time></trkpt><trkpt lat="45.03219715012143" lon="12.306060867204073"><ele>-6.0</ele><time>2026-04-19T10:40:29Z</time></trkpt><trkpt lat="45.03232037913081" lon="12.306284491141222"><ele>-5.666666666666667</ele><time>2026-04-19T10:40:30Z</time></trkpt><trkpt lat="45.03244387654507" lon="12.306517081476334"><ele>-5.333333333333334</ele><time>2026-04-19T10:40:31Z</time></trkpt><trkpt lat="45.0325752609865" lon="12.306749060820936"><ele>-5.0</ele><time>2026-04-19T10:40:32Z</time></trkpt><trkpt lat="45.03270735285895" lon="12.306988606099077"><ele>-5.0</ele><time>2026-04-19T10:40:33Z</time></trkpt><trkpt lat="45.03283549112067" lon="12.307217660797738"><ele>-5.0</ele><time>2026-04-19T10:40:34Z</time></trkpt><trkpt lat="45.03296629339548" lon="12.30745429722163"><ele>-5.0</ele><time>2026-04-19T10:40:35Z</time></trkpt><trkpt lat="45.03309683217397" lon="12.307689540146889"><ele>-5.0</ele><time>2026-04-19T10:40:36Z</time></trkpt><trkpt lat="45.03322913627969" lon="12.3079299979727"><ele>-5.0</ele><time>2026-04-19T10:40:37Z</time></trkpt><trkpt lat="45.03336135628081" lon="12.308169580666693"><ele>-5.0</ele><time>2026-04-19T10:40:38Z</time></trkpt><trkpt lat="45.03349539062447" lon="12.308412222491265"><ele>-4.666666666666667</ele><time>2026-04-19T10:40:39Z</time></trkpt><trkpt lat="45.033628071148016" lon="12.308650362288429"><ele>-4.333333333333333</ele><time>2026-04-19T10:40:40Z</time></trkpt><trkpt lat="45.033767886015916" lon="12.308897078020568"><ele>-4.0</ele><time>2026-04-19T10:40:41Z</time></trkpt><trkpt lat="45.03390276266642" lon="12.309152752060763"><ele>-4.0</ele><time>2026-04-19T10:40:42Z</time></trkpt><trkpt lat="45.03404172443787" lon="12.309396747939392"><ele>-4.0</ele><time>2026-04-19T10:40:43Z</time></trkpt><trkpt lat="45.03417986261565" lon="12.309640872720799"><ele>-4.0</ele><time>2026-04-19T10:40:44Z</time></trkpt><trkpt lat="45.034317093063756" lon="12.309882646555316"><ele>-4.333333333333333</ele><time>2026-04-19T10:40:45Z</time></trkpt><trkpt lat="45.034455253355" lon="12.31012938390888"><ele>-4.666666666666667</ele><time>2026-04-19T10:40:46Z</time></trkpt><trkpt lat="45.03459167986096" lon="12.310374039925886"><ele>-5.0</ele><time>2026-04-19T10:40:47Z</time></trkpt><trkpt lat="45.03472872351197" lon="12.310621274091913"><ele>-5.0</ele><time>2026-04-19T10:40:48Z</time></trkpt><trkpt lat="45.03486732612041" lon="12.310872915654008"><ele>-5.0</ele><time>2026-04-19T10:40:49Z</time></trkpt><trkpt lat="45.03500526805058" lon="12.311123875069779"><ele>-5.0</ele><time>2026-04-19T10:40:50Z</time></trkpt><trkpt lat="45.03514543469313" lon="12.311382947573145"><ele>-5.0</ele><time>2026-04-19T10:40:51Z</time></trkpt><trkpt lat="45.0352868096192" lon="12.311641748995868"><ele>-5.0</ele><time>2026-04-19T10:40:52Z</time></trkpt><trkpt lat="45.0354317293604" lon="12.311905195026945"><ele>-5.0</ele><time>2026-04-19T10:40:53Z</time></trkpt><trkpt lat="45.03557629956204" lon="12.312168943980357"><ele>-5.0</ele><time>2026-04-19T10:40:54Z</time></trkpt><trkpt lat="45.035723414547014" lon="12.312436154807337"><ele>-5.0</ele><time>2026-04-19T10:40:55Z</time></trkpt><trkpt lat="45.03587079318467" lon="12.312700391444562"><ele>-5.0</ele><time>2026-04-19T10:40:56Z</time></trkpt><trkpt lat="45.03601815512442" lon="12.312969959492458"><ele>-5.0</ele><time>2026-04-19T10:40:57Z</time></trkpt><trkpt lat="45.03616859303847" lon="12.313242067309654"><ele>-5.0</ele><time>2026-04-19T10:40:58Z</time></trkpt><trkpt lat="45.03632030049434" lon="12.313514454927242"><ele>-5.0</ele><time>2026-04-19T10:40:59Z</time></trkpt><trkpt lat="45.036470968638895" lon="12.31378475882316"><ele>-4.5</ele><time>2026-04-19T10:41:00Z</time></trkpt><trkpt lat="45.03662071804489" lon="12.314050815351846"><ele>-4.0</ele><time>2026-04-19T10:41:01Z</time></trkpt><trkpt lat="45.03677339674321" lon="12.314324096506773"><ele>-4.0</ele><time>2026-04-19T10:41:02Z</time></trkpt><trkpt lat="45.03692332323441" lon="12.314593587120882"><ele>-4.0</ele><time>2026-04-19T10:41:03.001Z</time></trkpt><trkpt lat="45.03707599803744" lon="12.314869006088545"><ele>-4.5</ele><time>2026-04-19T10:41:04.001Z</time></trkpt><trkpt lat="45.03722119861852" lon="12.31512982259902"><ele>-5.0</ele><time>2026-04-19T10:41:05.001Z</time></trkpt><trkpt lat="45.03735785941403" lon="12.315377187354104"><ele>-5.0</ele><time>2026-04-19T10:41:06.001Z</time></trkpt><trkpt lat="45.03749524079492" lon="12.315625306039355"><ele>-5.0</ele><time>2026-04-19T10:41:07.001Z</time></trkpt><trkpt lat="45.037635506305925" lon="12.315877368399008"><ele>-5.0</ele><time>2026-04-19T10:41:08.001Z</time></trkpt><trkpt lat="45.037776996736774" lon="12.316134427780451"><ele>-5.0</ele><time>2026-04-19T10:41:09.001Z</time></trkpt><trkpt lat="45.03792281765625" lon="12.316397849736951"><ele>-5.0</ele><time>2026-04-19T10:41:10.001Z</time></trkpt><trkpt lat="45.0380753530575" lon="12.316675014969602"><ele>-5.0</ele><time>2026-04-19T10:41:11.001Z</time></trkpt><trkpt lat="45.03822614924316" lon="12.316947559015203"><ele>-5.0</ele><time>2026-04-19T10:41:12.001Z</time></trkpt><trkpt lat="45.03837757722749" lon="12.317222955939904"><ele>-5.0</ele><time>2026-04-19T10:41:13.001Z</time></trkpt><trkpt lat="45.03852921005263" lon="12.317500471861885"><ele>-5.0</ele><time>2026-04-19T10:41:14.001Z</time></trkpt><trkpt lat="45.03868401461095" lon="12.317777907746283"><ele>-5.0</ele><time>2026-04-19T10:41:15.001Z</time></trkpt><trkpt lat="45.038838309248874" lon="12.318052616870014"><ele>-5.0</ele><time>2026-04-19T10:41:16.001Z</time></trkpt><trkpt lat="45.03898812997021" lon="12.318324074097154"><ele>-5.5</ele><time>2026-04-19T10:41:17.001Z</time></trkpt><trkpt lat="45.039135994671184" lon="12.318587555864797"><ele>-6.0</ele><time>2026-04-19T10:41:18.001Z</time></trkpt><trkpt lat="45.0392823263963" lon="12.318846585380859"><ele>-5.5</ele><time>2026-04-19T10:41:19.001Z</time></trkpt><trkpt lat="45.03942781176085" lon="12.319105722306748"><ele>-5.0</ele><time>2026-04-19T10:41:20.001Z</time></trkpt><trkpt lat="45.039569870544234" lon="12.319363502086784"><ele>-5.0</ele><time>2026-04-19T10:41:21.001Z</time></trkpt><trkpt lat="45.03970900085257" lon="12.319616783881438"><ele>-5.0</ele><time>2026-04-19T10:41:22.001Z</time></trkpt><trkpt lat="45.0398501663307" lon="12.31986969599501"><ele>-5.0</ele><time>2026-04-19T10:41:23.001Z</time></trkpt><trkpt lat="45.03999072945597" lon="12.320125074490239"><ele>-5.0</ele><time>2026-04-19T10:41:24.001Z</time></trkpt><trkpt lat="45.04012789590695" lon="12.320375708360872"><ele>-4.666666666666667</ele><time>2026-04-19T10:41:25.001Z</time></trkpt><trkpt lat="45.0402595704482" lon="12.320616362751737"><ele>-4.333333333333333</ele><time>2026-04-19T10:41:26.001Z</time></trkpt><trkpt lat="45.040388405651576" lon="12.320846294783841"><ele>-4.0</ele><time>2026-04-19T10:41:27.001Z</time></trkpt><trkpt lat="45.040516042586304" lon="12.321077182198124"><ele>-4.0</ele><time>2026-04-19T10:41:28.001Z</time></trkpt><trkpt lat="45.040642370240356" lon="12.321304560211297"><ele>-4.0</ele><time>2026-04-19T10:41:29.001Z</time></trkpt><trkpt lat="45.040768888247854" lon="12.321533158815127"><ele>-4.0</ele><time>2026-04-19T10:41:30.001Z</time></trkpt><trkpt lat="45.04089360434832" lon="12.321760924608043"><ele>-4.0</ele><time>2026-04-19T10:41:31.001Z</time></trkpt><trkpt lat="45.04102175836254" lon="12.321993407480502"><ele>-4.0</ele><time>2026-04-19T10:41:32.001Z</time></trkpt><trkpt lat="45.041150686237145" lon="12.322224518689714"><ele>-4.0</ele><time>2026-04-19T10:41:33.001Z</time></trkpt><trkpt lat="45.04128361422725" lon="12.3224685838964"><ele>-4.0</ele><time>2026-04-19T10:41:34.001Z</time></trkpt><trkpt lat="45.04141967774539" lon="12.322715953517644"><ele>-4.0</ele><time>2026-04-19T10:41:35.001Z</time></trkpt><trkpt lat="45.04155962073692" lon="12.32296737669856"><ele>-4.0</ele><time>2026-04-19T10:41:36.001Z</time></trkpt><trkpt lat="45.041695214459104" lon="12.323215988768782"><ele>-4.0</ele><time>2026-04-19T10:41:37.001Z</time></trkpt><trkpt lat="45.041828146581445" lon="12.323457886859014"><ele>-4.0</ele><time>2026-04-19T10:41:38.001Z</time></trkpt><trkpt lat="45.04195841280402" lon="12.323696161326412"><ele>-4.0</ele><time>2026-04-19T10:41:39.001Z</time></trkpt><trkpt lat="45.042088641933354" lon="12.323932362967527"><ele>-4.0</ele><time>2026-04-19T10:41:40.001Z</time></trkpt><trkpt lat="45.04222072689009" lon="12.324171616722408"><ele>-4.0</ele><time>2026-04-19T10:41:41.001Z</time></trkpt><trkpt lat="45.04235050253493" lon="12.324409483070749"><ele>-4.0</ele><time>2026-04-19T10:41:42.001Z</time></trkpt><trkpt lat="45.042468123584136" lon="12.324625233483127"><ele>-4.333333333333333</ele><time>2026-04-19T10:41:43.001Z</time></trkpt><trkpt lat="45.04258010170841" lon="12.324832640250333"><ele>-4.666666666666667</ele><time>2026-04-19T10:41:44.001Z</time></trkpt><trkpt lat="45.04268951417098" lon="12.325027440588014"><ele>-5.0</ele><time>2026-04-19T10:41:45.001Z</time></trkpt><trkpt lat="45.04280277227108" lon="12.325203379438138"><ele>-5.0</ele><time>2026-04-19T10:41:46.001Z</time></trkpt><trkpt lat="45.04293081489784" lon="12.325351191805886"><ele>-5.0</ele><time>2026-04-19T10:41:47.001Z</time></trkpt><trkpt lat="45.04307653072321" lon="12.325484363783062"><ele>-5.0</ele><time>2026-04-19T10:41:48.002Z</time></trkpt><trkpt lat="45.04322156147498" lon="12.325599946490431"><ele>-4.75</ele><time>2026-04-19T10:41:49.002Z</time></trkpt><trkpt lat="45.04335109193938" lon="12.325699174576513"><ele>-4.5</ele><time>2026-04-19T10:41:50.002Z</time></trkpt><trkpt lat="45.043462843442875" lon="12.325788867576808"><ele>-4.25</ele><time>2026-04-19T10:41:51.002Z</time></trkpt><trkpt lat="45.04356058722104" lon="12.325866524567783"><ele>-4.0</ele><time>2026-04-19T10:41:52.002Z</time></trkpt><trkpt lat="45.043653045167815" lon="12.325936747886802"><ele>-4.0</ele><time>2026-04-19T10:41:53.002Z</time></trkpt><trkpt lat="45.04376418574513" lon="12.325955253407182"><ele>-4.0</ele><time>2026-04-19T10:41:54.002Z</time></trkpt><trkpt lat="45.043878817609865" lon="12.325932306089777"><ele>-4.0</ele><time>2026-04-19T10:41:55.002Z</time></trkpt><trkpt lat="45.043985666468856" lon="12.325865298087017"><ele>-4.0</ele><time>2026-04-19T10:41:56.002Z</time></trkpt><trkpt lat="45.04409008139946" lon="12.325777382890205"><ele>-3.6</ele><time>2026-04-19T10:41:57.002Z</time></trkpt><trkpt lat="45.044189420503514" lon="12.325691939392842"><ele>-3.2</ele><time>2026-04-19T10:41:58.002Z</time></trkpt><trkpt lat="45.0442669874505" lon="12.325624654383905"><ele>-2.8000000000000003</ele><time>2026-04-19T10:41:59.002Z</time></trkpt><trkpt lat="45.04433203694195" lon="12.325570523783872"><ele>-2.4000000000000004</ele><time>2026-04-19T10:42:00.002Z</time></trkpt><trkpt lat="45.044390766228936" lon="12.325522788743598"><ele>-2.0</ele><time>2026-04-19T10:42:01.002Z</time></trkpt><trkpt lat="45.04449028143187" lon="12.325448441153293"><ele>-1.9999999999999998</ele><time>2026-04-19T10:42:03.002Z</time></trkpt><trkpt lat="45.04456731164125" lon="12.325410717125841"><ele>-2.0</ele><time>2026-04-19T10:42:05.002Z</time></trkpt><trkpt lat="45.04462942357869" lon="12.325504266005298"><ele>-2.0</ele><time>2026-04-19T10:42:07.002Z</time></trkpt><trkpt lat="45.044681993016" lon="12.32564857956956"><ele>-2.0</ele><time>2026-04-19T10:42:09.002Z</time></trkpt><trkpt lat="45.04471460563211" lon="12.325738634177359"><ele>-1.9999999999999998</ele><time>2026-04-19T10:42:10.002Z</time></trkpt><trkpt lat="45.044755047114464" lon="12.325835584739968"><ele>-2.0</ele><time>2026-04-19T10:42:11.002Z</time></trkpt><trkpt lat="45.04481416501645" lon="12.325913921991122"><ele>-1.9999999999999998</ele><time>2026-04-19T10:42:12.002Z</time></trkpt><trkpt lat="45.04483022379207" lon="12.326055421421728"><ele>-2.0</ele><time>2026-04-19T10:42:13.002Z</time></trkpt><trkpt lat="45.04485969400115" lon="12.326162019590198"><ele>-2.0</ele><time>2026-04-19T10:42:14.002Z</time></trkpt><trkpt lat="45.04488911398874" lon="12.326274040587963"><ele>-2.0</ele><time>2026-04-19T10:42:15.002Z</time></trkpt><trkpt lat="45.04491522879339" lon="12.326386530360194"><ele>-1.9999999999999998</ele><time>2026-04-19T10:42:16.002Z</time></trkpt><trkpt lat="45.04494086305964" lon="12.326504264164571"><ele>-2.0</ele><time>2026-04-19T10:42:17.002Z</time></trkpt><trkpt lat="45.044968012375946" lon="12.326629089845758"><ele>-2.0</ele><time>2026-04-19T10:42:18.002Z</time></trkpt><trkpt lat="45.04499543525151" lon="12.326769221071144"><ele>-2.0</ele><time>2026-04-19T10:42:19.002Z</time></trkpt><trkpt lat="45.04501985141259" lon="12.326923209527274"><ele>-2.0</ele><time>2026-04-19T10:42:20.002Z</time></trkpt><trkpt lat="45.04503986593093" lon="12.327089925117917"><ele>-2.0</ele><time>2026-04-19T10:42:21.002Z</time></trkpt><trkpt lat="45.04505225634375" lon="12.327266735920482"><ele>-2.25</ele><time>2026-04-19T10:42:22.002Z</time></trkpt><trkpt lat="45.045059549517696" lon="12.327458184791412"><ele>-2.5</ele><time>2026-04-19T10:42:23.002Z</time></trkpt><trkpt lat="45.04506357395156" lon="12.327650820581674"><ele>-2.75</ele><time>2026-04-19T10:42:24.002Z</time></trkpt><trkpt lat="45.04506605400154" lon="12.32784244035013"><ele>-3.0</ele><time>2026-04-19T10:42:25.002Z</time></trkpt><trkpt lat="45.04506794329833" lon="12.32803814238355"><ele>-3.0</ele><time>2026-04-19T10:42:26Z</time></trkpt><trkpt lat="45.045071229143986" lon="12.328227688862869"><ele>-3.0</ele><time>2026-04-19T10:42:27Z</time></trkpt><trkpt lat="45.04507528571646" lon="12.328403816573063"><ele>-3.0</ele><time>2026-04-19T10:42:28Z</time></trkpt><trkpt lat="45.04507912568343" lon="12.328570334186669"><ele>-3.0</ele><time>2026-04-19T10:42:29Z</time></trkpt><trkpt lat="45.04507898111835" lon="12.328734551204867"><ele>-2.75</ele><time>2026-04-19T10:42:30Z</time></trkpt><trkpt lat="45.04507421645766" lon="12.328899723860538"><ele>-2.5</ele><time>2026-04-19T10:42:31Z</time></trkpt><trkpt lat="45.04506370381018" lon="12.32906421747109"><ele>-2.25</ele><time>2026-04-19T10:42:32Z</time></trkpt><trkpt lat="45.04504628029374" lon="12.32922846178734"><ele>-2.0</ele><time>2026-04-19T10:42:33Z</time></trkpt><trkpt lat="45.04501779348284" lon="12.329390702042064"><ele>-2.0</ele><time>2026-04-19T10:42:34Z</time></trkpt><trkpt lat="45.044978935269185" lon="12.329552340191418"><ele>-2.0</ele><time>2026-04-19T10:42:35Z</time></trkpt><trkpt lat="45.04493231055977" lon="12.329717453535844"><ele>-2.0</ele><time>2026-04-19T10:42:36Z</time></trkpt><trkpt lat="45.04487774336174" lon="12.329885985833936"><ele>-2.0</ele><time>2026-04-19T10:42:37Z</time></trkpt><trkpt lat="45.04482524314682" lon="12.330058844244766"><ele>-2.25</ele><time>2026-04-19T10:42:38Z</time></trkpt><trkpt lat="45.04478588048824" lon="12.330233830437784"><ele>-2.5</ele><time>2026-04-19T10:42:39Z</time></trkpt><trkpt lat="45.04476894999645" lon="12.330415322474689"><ele>-2.75</ele><time>2026-04-19T10:42:40Z</time></trkpt><trkpt lat="45.04476366246452" lon="12.330593391814226"><ele>-3.0</ele><time>2026-04-19T10:42:41Z</time></trkpt><trkpt lat="45.04477236054456" lon="12.330760523016174"><ele>-3.0</ele><time>2026-04-19T10:42:42Z</time></trkpt><trkpt lat="45.04478904165168" lon="12.330930203011029"><ele>-3.0</ele><time>2026-04-19T10:42:43Z</time></trkpt><trkpt lat="45.0448177529391" lon="12.331099148915982"><ele>-3.0</ele><time>2026-04-19T10:42:44Z</time></trkpt><trkpt lat="45.04486354670892" lon="12.331263730948262"><ele>-3.0</ele><time>2026-04-19T10:42:45Z</time></trkpt><trkpt lat="45.04492044507766" lon="12.331424967217298"><ele>-2.75</ele><time>2026-04-19T10:42:46Z</time></trkpt><trkpt lat="45.044978445934234" lon="12.331592081521674"><ele>-2.5</ele><time>2026-04-19T10:42:47Z</time></trkpt><trkpt lat="45.04502989323829" lon="12.331763295092188"><ele>-2.25</ele><time>2026-04-19T10:42:48Z</time></trkpt><trkpt lat="45.04506918433483" lon="12.331934553212752"><ele>-2.0</ele><time>2026-04-19T10:42:49Z</time></trkpt><trkpt lat="45.045087141187736" lon="12.332106951932296"><ele>-2.25</ele><time>2026-04-19T10:42:50Z</time></trkpt><trkpt lat="45.04508906842396" lon="12.332287839013878"><ele>-2.5</ele><time>2026-04-19T10:42:51Z</time></trkpt><trkpt lat="45.04507342142194" lon="12.332474225218053"><ele>-2.75</ele><time>2026-04-19T10:42:52Z</time></trkpt><trkpt lat="45.04504880174933" lon="12.332665613342128"><ele>-3.0</ele><time>2026-04-19T10:42:53Z</time></trkpt><trkpt lat="45.04501979181505" lon="12.332861839164615"><ele>-2.75</ele><time>2026-04-19T10:42:54Z</time></trkpt><trkpt lat="45.0449932337767" lon="12.333058437882595"><ele>-2.5</ele><time>2026-04-19T10:42:55Z</time></trkpt><trkpt lat="45.044965937263264" lon="12.333242161666575"><ele>-2.25</ele><time>2026-04-19T10:42:56Z</time></trkpt><trkpt lat="45.04494208121418" lon="12.333416385734509"><ele>-2.0</ele><time>2026-04-19T10:42:57Z</time></trkpt><trkpt lat="45.044916890493504" lon="12.333584845875412"><ele>-1.8</ele><time>2026-04-19T10:42:58Z</time></trkpt><trkpt lat="45.04489231589052" lon="12.333742578697914"><ele>-1.6</ele><time>2026-04-19T10:42:59Z</time></trkpt><trkpt lat="45.04486826067048" lon="12.333888939517353"><ele>-1.4000000000000001</ele><time>2026-04-19T10:43:00Z</time></trkpt><trkpt lat="45.044844951417694" lon="12.334039935657072"><ele>-1.2000000000000002</ele><time>2026-04-19T10:43:01Z</time></trkpt><trkpt lat="45.04481806776829" lon="12.33419882924525"><ele>-1.0</ele><time>2026-04-19T10:43:02Z</time></trkpt><trkpt lat="45.044790867636976" lon="12.334363398509407"><ele>-1.0</ele><time>2026-04-19T10:43:03Z</time></trkpt><trkpt lat="45.04476793997898" lon="12.334534520030617"><ele>-1.0</ele><time>2026-04-19T10:43:04Z</time></trkpt><trkpt lat="45.04474714259867" lon="12.334710520239742"><ele>-1.0</ele><time>2026-04-19T10:43:05Z</time></trkpt><trkpt lat="45.044726456387586" lon="12.334891287647151"><ele>-1.0</ele><time>2026-04-19T10:43:06Z</time></trkpt><trkpt lat="45.04470507056328" lon="12.33507675144421"><ele>-1.0</ele><time>2026-04-19T10:43:07.001Z</time></trkpt><trkpt lat="45.04468018242878" lon="12.335264125514732"><ele>-1.0</ele><time>2026-04-19T10:43:08.001Z</time></trkpt><trkpt lat="45.04465145129723" lon="12.335455580182732"><ele>-1.0</ele><time>2026-04-19T10:43:09.001Z</time></trkpt><trkpt lat="45.04461528660836" lon="12.335651996683143"><ele>-1.0</ele><time>2026-04-19T10:43:10.001Z</time></trkpt><trkpt lat="45.0445736563765" lon="12.335851891860074"><ele>-1.0</ele><time>2026-04-19T10:43:11.001Z</time></trkpt><trkpt lat="45.04453487524864" lon="12.33605592686202"><ele>-1.0</ele><time>2026-04-19T10:43:12.001Z</time></trkpt><trkpt lat="45.0445000998546" lon="12.336267299907595"><ele>-1.0</ele><time>2026-04-19T10:43:13.001Z</time></trkpt><trkpt lat="45.044468796138815" lon="12.336483451263398"><ele>-1.0</ele><time>2026-04-19T10:43:14.001Z</time></trkpt><trkpt lat="45.04443433707555" lon="12.336705308889893"><ele>-1.0</ele><time>2026-04-19T10:43:15.001Z</time></trkpt><trkpt lat="45.04440039541525" lon="12.336936481214098"><ele>-1.0</ele><time>2026-04-19T10:43:16.001Z</time></trkpt><trkpt lat="45.04436347674473" lon="12.337170689054634"><ele>-2.0</ele><time>2026-04-19T10:43:17.001Z</time></trkpt><trkpt lat="45.044323584241205" lon="12.337407666906653"><ele>-3.0</ele><time>2026-04-19T10:43:18.001Z</time></trkpt><trkpt lat="45.04428703952392" lon="12.337650291490261"><ele>-4.0</ele><time>2026-04-19T10:43:19.001Z</time></trkpt><trkpt lat="45.044250599731384" lon="12.337893075921487"><ele>-3.6666666666666665</ele><time>2026-04-19T10:43:20.001Z</time></trkpt><trkpt lat="45.044214955906035" lon="12.338141184642952"><ele>-3.333333333333333</ele><time>2026-04-19T10:43:21.001Z</time></trkpt><trkpt lat="45.044186318103975" lon="12.33837689164445"><ele>-3.0</ele><time>2026-04-19T10:43:22.001Z</time></trkpt><trkpt lat="45.044164072396626" lon="12.338622094444522"><ele>-3.0</ele><time>2026-04-19T10:43:23.001Z</time></trkpt><trkpt lat="45.04414536411773" lon="12.338881752771806"><ele>-3.0</ele><time>2026-04-19T10:43:24.001Z</time></trkpt><trkpt lat="45.04413066972628" lon="12.339141482444804"><ele>-3.0</ele><time>2026-04-19T10:43:25.001Z</time></trkpt><trkpt lat="45.0441177617958" lon="12.339392327861649"><ele>-3.0</ele><time>2026-04-19T10:43:26.001Z</time></trkpt><trkpt lat="45.04410823503176" lon="12.33964204662194"><ele>-3.0</ele><time>2026-04-19T10:43:27.001Z</time></trkpt><trkpt lat="45.04409933659521" lon="12.339887544564554"><ele>-3.0</ele><time>2026-04-19T10:43:28.001Z</time></trkpt><trkpt lat="45.04408981165998" lon="12.340128188552379"><ele>-3.0</ele><time>2026-04-19T10:43:29.001Z</time></trkpt><trkpt lat="45.04408185156147" lon="12.340359558309904"><ele>-3.0</ele><time>2026-04-19T10:43:30.001Z</time></trkpt><trkpt lat="45.04407347033066" lon="12.340577497812772"><ele>-3.0</ele><time>2026-04-19T10:43:31.001Z</time></trkpt><trkpt lat="45.0440643896899" lon="12.34077922430688"><ele>-2.75</ele><time>2026-04-19T10:43:32.001Z</time></trkpt><trkpt lat="45.04405558387163" lon="12.340979374442533"><ele>-2.5</ele><time>2026-04-19T10:43:33.001Z</time></trkpt><trkpt lat="45.04404454002983" lon="12.34118697861048"><ele>-2.25</ele><time>2026-04-19T10:43:34.001Z</time></trkpt><trkpt lat="45.04403360177561" lon="12.341397111707401"><ele>-2.0</ele><time>2026-04-19T10:43:35.001Z</time></trkpt><trkpt lat="45.04402156744659" lon="12.341610753968013"><ele>-2.0</ele><time>2026-04-19T10:43:36.001Z</time></trkpt><trkpt lat="45.04401003218059" lon="12.341830516100657"><ele>-2.0</ele><time>2026-04-19T10:43:37.001Z</time></trkpt><trkpt lat="45.04399826627183" lon="12.342052670558083"><ele>-2.0</ele><time>2026-04-19T10:43:38.001Z</time></trkpt><trkpt lat="45.043986295095515" lon="12.342274886692461"><ele>-2.333333333333333</ele><time>2026-04-19T10:43:39.001Z</time></trkpt><trkpt lat="45.0439776147062" lon="12.342498462218444"><ele>-2.6666666666666665</ele><time>2026-04-19T10:43:40.001Z</time></trkpt><trkpt lat="45.04397414587329" lon="12.342720193285647"><ele>-3.0</ele><time>2026-04-19T10:43:41.001Z</time></trkpt><trkpt lat="45.04397874365652" lon="12.342940851495394"><ele>-3.0</ele><time>2026-04-19T10:43:42.001Z</time></trkpt><trkpt lat="45.04399152775334" lon="12.343170225036694"><ele>-3.0</ele><time>2026-04-19T10:43:43.001Z</time></trkpt><trkpt lat="45.04400723878772" lon="12.34340905224109"><ele>-3.0</ele><time>2026-04-19T10:43:44.001Z</time></trkpt><trkpt lat="45.04402655114627" lon="12.343653490683401"><ele>-3.0</ele><time>2026-04-19T10:43:45.001Z</time></trkpt><trkpt lat="45.04405039960505" lon="12.343898161783287"><ele>-3.0</ele><time>2026-04-19T10:43:46.001Z</time></trkpt><trkpt lat="45.0440760122268" lon="12.344141085362152"><ele>-3.0</ele><time>2026-04-19T10:43:47.001Z</time></trkpt><trkpt lat="45.04410129671425" lon="12.344376396623256"><ele>-3.0</ele><time>2026-04-19T10:43:48.001Z</time></trkpt><trkpt lat="45.0441290813584" lon="12.34461598197328"><ele>-3.0</ele><time>2026-04-19T10:43:49.001Z</time></trkpt><trkpt lat="45.04415743346684" lon="12.344854345203453"><ele>-3.0</ele><time>2026-04-19T10:43:50.001Z</time></trkpt><trkpt lat="45.04418463836056" lon="12.345096772094934"><ele>-3.0</ele><time>2026-04-19T10:43:51.001Z</time></trkpt><trkpt lat="45.04421058580806" lon="12.345342581754021"><ele>-3.0</ele><time>2026-04-19T10:43:52.002Z</time></trkpt><trkpt lat="45.04423831726822" lon="12.345592540163675"><ele>-3.0</ele><time>2026-04-19T10:43:53.002Z</time></trkpt><trkpt lat="45.044268233498805" lon="12.345845826007954"><ele>-3.0</ele><time>2026-04-19T10:43:54.002Z</time></trkpt><trkpt lat="45.044296476514305" lon="12.346102816921551"><ele>-3.0</ele><time>2026-04-19T10:43:55.002Z</time></trkpt><trkpt lat="45.04432324432261" lon="12.346347505994089"><ele>-3.0</ele><time>2026-04-19T10:43:56.002Z</time></trkpt><trkpt lat="45.044352421697795" lon="12.346591878468054"><ele>-3.0</ele><time>2026-04-19T10:43:57.002Z</time></trkpt><trkpt lat="45.04438089664892" lon="12.346835859322523"><ele>-3.0</ele><time>2026-04-19T10:43:58.002Z</time></trkpt><trkpt lat="45.04440984135486" lon="12.347079919865607"><ele>-3.0</ele><time>2026-04-19T10:43:59.002Z</time></trkpt><trkpt lat="45.044438579616894" lon="12.347323840382694"><ele>-2.6666666666666665</ele><time>2026-04-19T10:44:00.002Z</time></trkpt><trkpt lat="45.044466157028126" lon="12.34756353865114"><ele>-2.333333333333333</ele><time>2026-04-19T10:44:01.002Z</time></trkpt><trkpt lat="45.04449495689117" lon="12.347804031926296"><ele>-2.0</ele><time>2026-04-19T10:44:02.002Z</time></trkpt><trkpt lat="45.04452509512777" lon="12.3480467512225"><ele>-1.6666666666666665</ele><time>2026-04-19T10:44:03.002Z</time></trkpt><trkpt lat="45.044553730298055" lon="12.348289183736158"><ele>-1.3333333333333333</ele><time>2026-04-19T10:44:04.002Z</time></trkpt><trkpt lat="45.04458077294838" lon="12.34852805320055"><ele>-1.0</ele><time>2026-04-19T10:44:05.002Z</time></trkpt><trkpt lat="45.04460686321892" lon="12.34876517730283"><ele>-1.6666666666666665</ele><time>2026-04-19T10:44:06.002Z</time></trkpt><trkpt lat="45.04463343096237" lon="12.349000002368578"><ele>-2.3333333333333335</ele><time>2026-04-19T10:44:07.002Z</time></trkpt><trkpt lat="45.044660897598895" lon="12.349233032654315"><ele>-3.0</ele><time>2026-04-19T10:44:08.002Z</time></trkpt><trkpt lat="45.04469003027254" lon="12.349468783222507"><ele>-3.0</ele><time>2026-04-19T10:44:09.002Z</time></trkpt><trkpt lat="45.04472456854336" lon="12.349704728178885"><ele>-3.0</ele><time>2026-04-19T10:44:10.002Z</time></trkpt><trkpt lat="45.04476523454552" lon="12.349937746085821"><ele>-3.0</ele><time>2026-04-19T10:44:11.002Z</time></trkpt><trkpt lat="45.04480826184348" lon="12.350171798788125"><ele>-3.0</ele><time>2026-04-19T10:44:12.002Z</time></trkpt><trkpt lat="45.044857808001076" lon="12.350408478328792"><ele>-3.0</ele><time>2026-04-19T10:44:13.002Z</time></trkpt><trkpt lat="45.04491007291193" lon="12.350649066252139"><ele>-3.0</ele><time>2026-04-19T10:44:14.002Z</time></trkpt><trkpt lat="45.04496667869768" lon="12.35089489009078"><ele>-2.6666666666666665</ele><time>2026-04-19T10:44:15.002Z</time></trkpt><trkpt lat="45.04502459939448" lon="12.351145867220806"><ele>-2.333333333333333</ele><time>2026-04-19T10:44:16.002Z</time></trkpt><trkpt lat="45.04508180040038" lon="12.351393111076119"><ele>-2.0</ele><time>2026-04-19T10:44:17.002Z</time></trkpt><trkpt lat="45.04514000565188" lon="12.35163994436967"><ele>-2.0</ele><time>2026-04-19T10:44:18.002Z</time></trkpt><trkpt lat="45.045198690986304" lon="12.351885959630394"><ele>-2.0</ele><time>2026-04-19T10:44:19.002Z</time></trkpt><trkpt lat="45.04525592786372" lon="12.352133467009239"><ele>-2.0</ele><time>2026-04-19T10:44:20.002Z</time></trkpt><trkpt lat="45.04531258473829" lon="12.352384200030807"><ele>-2.0</ele><time>2026-04-19T10:44:21.002Z</time></trkpt><trkpt lat="45.04536646124268" lon="12.35263939005984"><ele>-2.0</ele><time>2026-04-19T10:44:22.002Z</time></trkpt><trkpt lat="45.04541419381961" lon="12.352896298090721"><ele>-2.0</ele><time>2026-04-19T10:44:23.002Z</time></trkpt><trkpt lat="45.04545600989138" lon="12.353156582162729"><ele>-2.0</ele><time>2026-04-19T10:44:24.002Z</time></trkpt><trkpt lat="45.04549265074357" lon="12.35341862811702"><ele>-2.0</ele><time>2026-04-19T10:44:25.002Z</time></trkpt><trkpt lat="45.045528200044565" lon="12.35367739322397"><ele>-2.0</ele><time>2026-04-19T10:44:26.002Z</time></trkpt><trkpt lat="45.04556274265955" lon="12.35392670835106"><ele>-2.0</ele><time>2026-04-19T10:44:27.002Z</time></trkpt><trkpt lat="45.045595946432734" lon="12.35416859977826"><ele>-2.0</ele><time>2026-04-19T10:44:28.002Z</time></trkpt><trkpt lat="45.045629722081166" lon="12.354407596466313"><ele>-2.0</ele><time>2026-04-19T10:44:29.002Z</time></trkpt><trkpt lat="45.045662042398654" lon="12.354639908068057"><ele>-2.0</ele><time>2026-04-19T10:44:30.002Z</time></trkpt><trkpt lat="45.04569318617735" lon="12.354866764453822"><ele>-2.0</ele><time>2026-04-19T10:44:31.002Z</time></trkpt><trkpt lat="45.045726272752546" lon="12.355096427420984"><ele>-2.0</ele><time>2026-04-19T10:44:32.001Z</time></trkpt><trkpt lat="45.04576157091529" lon="12.355331493208901"><ele>-2.333333333333333</ele><time>2026-04-19T10:44:33.001Z</time></trkpt><trkpt lat="45.045797520543424" lon="12.355569166062022"><ele>-2.6666666666666665</ele><time>2026-04-19T10:44:34.001Z</time></trkpt><trkpt lat="45.0458328033482" lon="12.355811849771722"><ele>-3.0</ele><time>2026-04-19T10:44:35.001Z</time></trkpt><trkpt lat="45.04586606972422" lon="12.356056279050636"><ele>-3.0</ele><time>2026-04-19T10:44:36.001Z</time></trkpt><trkpt lat="45.04589925104008" lon="12.356300538000275"><ele>-3.0</ele><time>2026-04-19T10:44:37.001Z</time></trkpt><trkpt lat="45.045935705298774" lon="12.356549832227607"><ele>-3.0</ele><time>2026-04-19T10:44:38.001Z</time></trkpt><trkpt lat="45.04597566636546" lon="12.35679788569844"><ele>-2.6666666666666665</ele><time>2026-04-19T10:44:39.001Z</time></trkpt><trkpt lat="45.046024304268535" lon="12.357045880083009"><ele>-2.333333333333333</ele><time>2026-04-19T10:44:40.001Z</time></trkpt><trkpt lat="45.046082252376074" lon="12.357285984729248"><ele>-2.0</ele><time>2026-04-19T10:44:41.001Z</time></trkpt><trkpt lat="45.04614674306717" lon="12.357520907297861"><ele>-2.0</ele><time>2026-04-19T10:44:42.001Z</time></trkpt><trkpt lat="45.04621732653018" lon="12.35774417287821"><ele>-2.0</ele><time>2026-04-19T10:44:43.001Z</time></trkpt><trkpt lat="45.04629484207411" lon="12.357965228025396"><ele>-2.0</ele><time>2026-04-19T10:44:44Z</time></trkpt><trkpt lat="45.04637708619301" lon="12.358179883500686"><ele>-2.0</ele><time>2026-04-19T10:44:45Z</time></trkpt><trkpt lat="45.04645907050856" lon="12.358377842186131"><ele>-2.0</ele><time>2026-04-19T10:44:46Z</time></trkpt><trkpt lat="45.04653583327808" lon="12.358555341558262"><ele>-2.0</ele><time>2026-04-19T10:44:47.001Z</time></trkpt><trkpt lat="45.046605696271364" lon="12.358719429432362"><ele>-2.0</ele><time>2026-04-19T10:44:48.001Z</time></trkpt><trkpt lat="45.0466705114417" lon="12.358876861732401"><ele>-1.75</ele><time>2026-04-19T10:44:49.001Z</time></trkpt><trkpt lat="45.046730714213524" lon="12.359026505321898"><ele>-1.5</ele><time>2026-04-19T10:44:50.001Z</time></trkpt><trkpt lat="45.04678736095767" lon="12.359169701961095"><ele>-1.25</ele><time>2026-04-19T10:44:51.001Z</time></trkpt><trkpt lat="45.04684122262059" lon="12.35930916275593"><ele>-1.0</ele><time>2026-04-19T10:44:52.001Z</time></trkpt><trkpt lat="45.04689311834015" lon="12.359443704794872"><ele>-1.0</ele><time>2026-04-19T10:44:53.001Z</time></trkpt><trkpt lat="45.04694492562489" lon="12.359574664674994"><ele>-1.0</ele><time>2026-04-19T10:44:54.001Z</time></trkpt><trkpt lat="45.04700281953732" lon="12.35970863659186"><ele>-1.0</ele><time>2026-04-19T10:44:55.001Z</time></trkpt><trkpt lat="45.04707116086303" lon="12.359840550910713"><ele>-1.0</ele><time>2026-04-19T10:44:56.001Z</time></trkpt><trkpt lat="45.04715233643909" lon="12.359971371473115"><ele>-1.2000000000000002</ele><time>2026-04-19T10:44:57.001Z</time></trkpt><trkpt lat="45.047232632803976" lon="12.36009789187954"><ele>-1.4000000000000001</ele><time>2026-04-19T10:44:58.001Z</time></trkpt><trkpt lat="45.04731246309139" lon="12.360215602635096"><ele>-1.6</ele><time>2026-04-19T10:44:59.001Z</time></trkpt><trkpt lat="45.04739133176714" lon="12.360323764330785"><ele>-1.8</ele><time>2026-04-19T10:45:00.001Z</time></trkpt><trkpt lat="45.047465001533894" lon="12.360424759763452"><ele>-2.0</ele><time>2026-04-19T10:45:01.001Z</time></trkpt><trkpt lat="45.04753626152601" lon="12.360525267515474"><ele>-2.0</ele><time>2026-04-19T10:45:02.001Z</time></trkpt><trkpt lat="45.047609308255325" lon="12.360626901079332"><ele>-2.0</ele><time>2026-04-19T10:45:03.001Z</time></trkpt><trkpt lat="45.047685649892856" lon="12.360729744279057"><ele>-2.0</ele><time>2026-04-19T10:45:04.001Z</time></trkpt><trkpt lat="45.047761163366715" lon="12.360831174189814"><ele>-2.0</ele><time>2026-04-19T10:45:05.001Z</time></trkpt><trkpt lat="45.04783969255892" lon="12.360934752551684"><ele>-2.0</ele><time>2026-04-19T10:45:06.001Z</time></trkpt><trkpt lat="45.04792096956436" lon="12.361035877717509"><ele>-2.0</ele><time>2026-04-19T10:45:07.001Z</time></trkpt><trkpt lat="45.048004170627046" lon="12.36113514800903"><ele>-2.0</ele><time>2026-04-19T10:45:08.001Z</time></trkpt><trkpt lat="45.04808287362199" lon="12.361227184655881"><ele>-2.0</ele><time>2026-04-19T10:45:09.001Z</time></trkpt><trkpt lat="45.04815778022839" lon="12.361309957574642"><ele>-2.0</ele><time>2026-04-19T10:45:10.001Z</time></trkpt><trkpt lat="45.04823165654167" lon="12.361388537429042"><ele>-2.0</ele><time>2026-04-19T10:45:11.001Z</time></trkpt><trkpt lat="45.048303116976605" lon="12.361462942573734"><ele>-2.0</ele><time>2026-04-19T10:45:12.001Z</time></trkpt><trkpt lat="45.048373081403106" lon="12.361529712015878"><ele>-2.0</ele><time>2026-04-19T10:45:13.001Z</time></trkpt><trkpt lat="45.04843824206436" lon="12.36158898200374"><ele>-2.0</ele><time>2026-04-19T10:45:14.001Z</time></trkpt><trkpt lat="45.048498892333484" lon="12.361638833947822"><ele>-2.0</ele><time>2026-04-19T10:45:15.001Z</time></trkpt><trkpt lat="45.04860010629599" lon="12.361732839073902"><ele>-2.0</ele><time>2026-04-19T10:45:17.001Z</time></trkpt><trkpt lat="45.048674287352284" lon="12.36184358770711"><ele>-1.9999999999999998</ele><time>2026-04-19T10:45:19.001Z</time></trkpt><trkpt lat="45.04870591422398" lon="12.36198167108672"><ele>-2.0</ele><time>2026-04-19T10:45:21.001Z</time></trkpt><trkpt lat="45.04870715447413" lon="12.362124812260884"><ele>-2.0</ele><time>2026-04-19T10:45:23.001Z</time></trkpt><trkpt lat="45.04865810213403" lon="12.362189712868208"><ele>-2.0</ele><time>2026-04-19T10:45:24.001Z</time></trkpt><trkpt lat="45.048612620625995" lon="12.362253046653281"><ele>-1.9999999999999998</ele><time>2026-04-19T10:45:26.001Z</time></trkpt><trkpt lat="45.04856193298455" lon="12.362318810663064"><ele>-2.0</ele><time>2026-04-19T10:45:29.001Z</time></trkpt><trkpt lat="45.04851599720111" lon="12.362406773846462"><ele>-2.0</ele><time>2026-04-19T10:45:54.002Z</time></trkpt><trkpt lat="45.04847477771794" lon="12.36249771871653"><ele>-1.9999999999999998</ele><time>2026-04-19T10:46:00.002Z</time></trkpt><trkpt lat="45.048404495674674" lon="12.362537797755435"><ele>-2.0</ele><time>2026-04-19T10:46:05.002Z</time></trkpt><trkpt lat="45.048341751584836" lon="12.362588209266185"><ele>-2.0</ele><time>2026-04-19T10:46:08.002Z</time></trkpt><trkpt lat="45.048282274884464" lon="12.362624610139918"><ele>-1.9999999999999998</ele><time>2026-04-19T10:46:12.002Z</time></trkpt><trkpt lat="45.04834792015421" lon="12.362594825822152"><ele>-2.0</ele><time>2026-04-19T10:46:16.002Z</time></trkpt><trkpt lat="45.04841486996318" lon="12.362569517882308"><ele>-2.0</ele><time>2026-04-19T10:47:43.001Z</time></trkpt><trkpt lat="45.048467288249846" lon="12.362517818468325"><ele>-2.0</ele><time>2026-04-19T10:47:55.001Z</time></trkpt><trkpt lat="45.04856533638165" lon="12.362599151809174"><ele>-2.0</ele><time>2026-04-19T10:49:46.18Z</time></trkpt><trkpt lat="45.048510515682445" lon="12.362769675378098"><ele>-2.0</ele><time>2026-04-19T10:50:14.016Z</time></trkpt><trkpt lat="45.04847162054018" lon="12.362850335030133"><ele>-2.0</ele><time>2026-04-19T10:50:46.026Z</time></trkpt><trkpt lat="45.04843928981161" lon="12.362940805424085"><ele>-2.0</ele><time>2026-04-19T10:50:52.025Z</time></trkpt><trkpt lat="45.04845933135299" lon="12.362841262610104"><ele>-2.0</ele><time>2026-04-19T10:51:00.585Z</time></trkpt><trkpt lat="45.04852125616237" lon="12.362805802610303"><ele>-2.0</ele><time>2026-04-19T10:51:05.002Z</time></trkpt><trkpt lat="45.04856397180512" lon="12.362599869989232"><ele>-2.0</ele><time>2026-04-19T11:05:47.486Z</time></trkpt><trkpt lat="45.04856116642545" lon="12.362772085251565"><ele>-2.0</ele><time>2026-04-19T11:08:26.001Z</time></trkpt><trkpt lat="45.04855156838226" lon="12.362862669122002"><ele>-2.0</ele><time>2026-04-19T11:08:31.001Z</time></trkpt></trkseg></trk></gpx>